﻿<?xml version="1.0" encoding="utf-8"?><gpx creator="Garmin Desktop App" version="1.1" xsi:schemaLocation="http://www.topografix.com/GPX/1/1 http://www.topografix.com/GPX/1/1/gpx.xsd http://www.garmin.com/xmlschemas/WaypointExtension/v1 http://www8.garmin.com/xmlschemas/WaypointExtensionv1.xsd http://www.garmin.com/xmlschemas/TrackPointExtension/v1 http://www.garmin.com/xmlschemas/TrackPointExtensionv1.xsd http://www.garmin.com/xmlschemas/GpxExtensions/v3 http://www8.garmin.com/xmlschemas/GpxExtensionsv3.xsd http://www.garmin.com/xmlschemas/ActivityExtension/v1 http://www8.garmin.com/xmlschemas/ActivityExtensionv1.xsd http://www.garmin.com/xmlschemas/AdventuresExtensions/v1 http://www8.garmin.com/xmlschemas/AdventuresExtensionv1.xsd http://www.garmin.com/xmlschemas/PressureExtension/v1 http://www.garmin.com/xmlschemas/PressureExtensionv1.xsd http://www.garmin.com/xmlschemas/TripExtensions/v1 http://www.garmin.com/xmlschemas/TripExtensionsv1.xsd http://www.garmin.com/xmlschemas/TripMetaDataExtensions/v1 http://www.garmin.com/xmlschemas/TripMetaDataExtensionsv1.xsd http://www.garmin.com/xmlschemas/ViaPointTransportationModeExtensions/v1 http://www.garmin.com/xmlschemas/ViaPointTransportationModeExtensionsv1.xsd http://www.garmin.com/xmlschemas/CreationTimeExtension/v1 http://www.garmin.com/xmlschemas/CreationTimeExtensionsv1.xsd http://www.garmin.com/xmlschemas/AccelerationExtension/v1 http://www.garmin.com/xmlschemas/AccelerationExtensionv1.xsd http://www.garmin.com/xmlschemas/PowerExtension/v1 http://www.garmin.com/xmlschemas/PowerExtensionv1.xsd http://www.garmin.com/xmlschemas/VideoExtension/v1 http://www.garmin.com/xmlschemas/VideoExtensionv1.xsd" xmlns="http://www.topografix.com/GPX/1/1" xmlns:xsi="http://www.w3.org/2001/XMLSchema-instance" xmlns:wptx1="http://www.garmin.com/xmlschemas/WaypointExtension/v1" xmlns:gpxtrx="http://www.garmin.com/xmlschemas/GpxExtensions/v3" xmlns:gpxtpx="http://www.garmin.com/xmlschemas/TrackPointExtension/v1" xmlns:gpxx="http://www.garmin.com/xmlschemas/GpxExtensions/v3" xmlns:trp="http://www.garmin.com/xmlschemas/TripExtensions/v1" xmlns:adv="http://www.garmin.com/xmlschemas/AdventuresExtensions/v1" xmlns:prs="http://www.garmin.com/xmlschemas/PressureExtension/v1" xmlns:tmd="http://www.garmin.com/xmlschemas/TripMetaDataExtensions/v1" xmlns:vptm="http://www.garmin.com/xmlschemas/ViaPointTransportationModeExtensions/v1" xmlns:ctx="http://www.garmin.com/xmlschemas/CreationTimeExtension/v1" xmlns:gpxacc="http://www.garmin.com/xmlschemas/AccelerationExtension/v1" xmlns:gpxpx="http://www.garmin.com/xmlschemas/PowerExtension/v1" xmlns:vidx1="http://www.garmin.com/xmlschemas/VideoExtension/v1">

  <metadata>
    <link href="http://www.garmin.com">
      <text>Garmin International</text>
    </link>
    <time>2018-07-01T18:37:46Z</time>
    <bounds maxlat="51.255186013877392" maxlon="8.478605020791292" minlat="50.065458007156849" minlon="3.228264022618532" />
  </metadata>

  <trk>
    <name>Track vom: 2018-07-01 05:12</name>
    <extensions>
      <gpxx:TrackExtension>
        <gpxx:DisplayColor>DarkGray</gpxx:DisplayColor>
      </gpxx:TrackExtension>
    </extensions>
    <trkseg>
      <trkpt lat="50.068555036559701" lon="8.478263039141893">
        <ele>129.91999999999999</ele>
        <time>2018-07-01T03:12:25Z</time>
      </trkpt>
      <trkpt lat="50.068561993539333" lon="8.478259015828371">
        <ele>130.40000000000001</ele>
        <time>2018-07-01T03:13:04Z</time>
      </trkpt>
      <trkpt lat="50.068586971610785" lon="8.478297991678119">
        <ele>131.36000000000001</ele>
        <time>2018-07-01T03:13:08Z</time>
      </trkpt>
      <trkpt lat="50.06846803240478" lon="8.478172011673451">
        <ele>127.98999999999999</ele>
        <time>2018-07-01T03:13:11Z</time>
      </trkpt>
      <trkpt lat="50.068197967484593" lon="8.478605020791292">
        <ele>118.86</ele>
        <time>2018-07-01T03:13:19Z</time>
      </trkpt>
      <trkpt lat="50.068121021613479" lon="8.478598985821009">
        <ele>117.90000000000001</ele>
        <time>2018-07-01T03:13:20Z</time>
      </trkpt>
      <trkpt lat="50.068105012178421" lon="8.47855900414288">
        <ele>116.94</ele>
        <time>2018-07-01T03:13:21Z</time>
      </trkpt>
      <trkpt lat="50.068084979429841" lon="8.478509970009327">
        <ele>115.98</ele>
        <time>2018-07-01T03:13:22Z</time>
      </trkpt>
      <trkpt lat="50.068064024671912" lon="8.478459008038044">
        <ele>115.01000000000001</ele>
        <time>2018-07-01T03:13:23Z</time>
      </trkpt>
      <trkpt lat="50.068042986094952" lon="8.47840704023838">
        <ele>114.53</ele>
        <time>2018-07-01T03:13:24Z</time>
      </trkpt>
      <trkpt lat="50.068021025508642" lon="8.478352976962924">
        <ele>114.05</ele>
        <time>2018-07-01T03:13:25Z</time>
      </trkpt>
      <trkpt lat="50.067771999165416" lon="8.477739002555609">
        <ele>112.13</ele>
        <time>2018-07-01T03:13:34Z</time>
      </trkpt>
      <trkpt lat="50.06773897446692" lon="8.477658033370972">
        <ele>111.65000000000001</ele>
        <time>2018-07-01T03:13:35Z</time>
      </trkpt>
      <trkpt lat="50.067336978390813" lon="8.476660000160337">
        <ele>109.73</ele>
        <time>2018-07-01T03:13:44Z</time>
      </trkpt>
      <trkpt lat="50.066614039242268" lon="8.475277991965413">
        <ele>108.77</ele>
        <time>2018-07-01T03:13:55Z</time>
      </trkpt>
      <trkpt lat="50.066552013158798" lon="8.475168021395803">
        <ele>108.77</ele>
        <time>2018-07-01T03:13:56Z</time>
      </trkpt>
      <trkpt lat="50.066565005108714" lon="8.474965011700988">
        <ele>108.77</ele>
        <time>2018-07-01T03:13:57Z</time>
      </trkpt>
      <trkpt lat="50.066542960703373" lon="8.474879013374448">
        <ele>108.29000000000001</ele>
        <time>2018-07-01T03:13:58Z</time>
      </trkpt>
      <trkpt lat="50.066260993480682" lon="8.474418008700013">
        <ele>108.77</ele>
        <time>2018-07-01T03:14:03Z</time>
      </trkpt>
      <trkpt lat="50.066221011802554" lon="8.4742839820683">
        <ele>108.29000000000001</ele>
        <time>2018-07-01T03:14:05Z</time>
      </trkpt>
      <trkpt lat="50.066209025681019" lon="8.474245006218553">
        <ele>108.29000000000001</ele>
        <time>2018-07-01T03:14:06Z</time>
      </trkpt>
      <trkpt lat="50.066209025681019" lon="8.474245006218553">
        <ele>108.29000000000001</ele>
        <time>2018-07-01T03:14:17Z</time>
      </trkpt>
      <trkpt lat="50.066209025681019" lon="8.474245006218553">
        <ele>107.81</ele>
        <time>2018-07-01T03:14:53Z</time>
      </trkpt>
      <trkpt lat="50.066209025681019" lon="8.474245006218553">
        <ele>107.81</ele>
        <time>2018-07-01T03:15:39Z</time>
      </trkpt>
      <trkpt lat="50.066183963790536" lon="8.474162025377154">
        <ele>108.77</ele>
        <time>2018-07-01T03:15:44Z</time>
      </trkpt>
      <trkpt lat="50.065996963530779" lon="8.473538998514414">
        <ele>108.29000000000001</ele>
        <time>2018-07-01T03:15:51Z</time>
      </trkpt>
      <trkpt lat="50.065594967454672" lon="8.472128994762898">
        <ele>109.73</ele>
        <time>2018-07-01T03:16:02Z</time>
      </trkpt>
      <trkpt lat="50.065458007156849" lon="8.471435979008675">
        <ele>110.20999999999999</ele>
        <time>2018-07-01T03:16:07Z</time>
      </trkpt>
      <trkpt lat="50.065464964136481" lon="8.471311004832387">
        <ele>110.20999999999999</ele>
        <time>2018-07-01T03:16:08Z</time>
      </trkpt>
      <trkpt lat="50.065480973571539" lon="8.471193993464112">
        <ele>110.20999999999999</ele>
        <time>2018-07-01T03:16:09Z</time>
      </trkpt>
      <trkpt lat="50.065516009926796" lon="8.471074970439076">
        <ele>110.69</ele>
        <time>2018-07-01T03:16:10Z</time>
      </trkpt>
      <trkpt lat="50.065550962463021" lon="8.470957959070802">
        <ele>110.69</ele>
        <time>2018-07-01T03:16:11Z</time>
      </trkpt>
      <trkpt lat="50.065618017688394" lon="8.470832984894514">
        <ele>110.69</ele>
        <time>2018-07-01T03:16:12Z</time>
      </trkpt>
      <trkpt lat="50.065703010186553" lon="8.470761990174651">
        <ele>110.69</ele>
        <time>2018-07-01T03:16:13Z</time>
      </trkpt>
      <trkpt lat="50.065794037654996" lon="8.470685966312885">
        <ele>111.17</ele>
        <time>2018-07-01T03:16:14Z</time>
      </trkpt>
      <trkpt lat="50.067160036414862" lon="8.469609981402755">
        <ele>114.53</ele>
        <time>2018-07-01T03:16:27Z</time>
      </trkpt>
      <trkpt lat="50.068373987451196" lon="8.468786962330341">
        <ele>120.78</ele>
        <time>2018-07-01T03:16:39Z</time>
      </trkpt>
      <trkpt lat="50.068794004619122" lon="8.468611026182771">
        <ele>121.73999999999999</ele>
        <time>2018-07-01T03:16:44Z</time>
      </trkpt>
      <trkpt lat="50.069743003696203" lon="8.468903973698616">
        <ele>121.73999999999999</ele>
        <time>2018-07-01T03:16:53Z</time>
      </trkpt>
      <trkpt lat="50.069850962609053" lon="8.469003969803453">
        <ele>120.78</ele>
        <time>2018-07-01T03:16:55Z</time>
      </trkpt>
      <trkpt lat="50.070136031135917" lon="8.469348968937993">
        <ele>119.81999999999999</ele>
        <time>2018-07-01T03:16:57Z</time>
      </trkpt>
      <trkpt lat="50.070223035290837" lon="8.469481989741325">
        <ele>119.34</ele>
        <time>2018-07-01T03:16:58Z</time>
      </trkpt>
      <trkpt lat="50.070312973111868" lon="8.469620039686561">
        <ele>118.38</ele>
        <time>2018-07-01T03:16:59Z</time>
      </trkpt>
      <trkpt lat="50.070404000580311" lon="8.469758005812764">
        <ele>117.90000000000001</ele>
        <time>2018-07-01T03:17:00Z</time>
      </trkpt>
      <trkpt lat="50.070482036098838" lon="8.46994299441576">
        <ele>116.94</ele>
        <time>2018-07-01T03:17:01Z</time>
      </trkpt>
      <trkpt lat="50.070550013333559" lon="8.470125971361995">
        <ele>116.45999999999999</ele>
        <time>2018-07-01T03:17:02Z</time>
      </trkpt>
      <trkpt lat="50.071437992155552" lon="8.472136035561562">
        <ele>112.13</ele>
        <time>2018-07-01T03:17:13Z</time>
      </trkpt>
      <trkpt lat="50.072199990972877" lon="8.473172960802913">
        <ele>111.17</ele>
        <time>2018-07-01T03:17:20Z</time>
      </trkpt>
      <trkpt lat="50.072338040918112" lon="8.473256025463343">
        <ele>111.17</ele>
        <time>2018-07-01T03:17:21Z</time>
      </trkpt>
      <trkpt lat="50.073282010853291" lon="8.473665984347463">
        <ele>112.13</ele>
        <time>2018-07-01T03:17:28Z</time>
      </trkpt>
      <trkpt lat="50.073385024443269" lon="8.47379095852375">
        <ele>112.13</ele>
        <time>2018-07-01T03:17:29Z</time>
      </trkpt>
      <trkpt lat="50.073488960042596" lon="8.47391702234745">
        <ele>112.61</ele>
        <time>2018-07-01T03:17:30Z</time>
      </trkpt>
      <trkpt lat="50.073908977210522" lon="8.474423959851265">
        <ele>115.01000000000001</ele>
        <time>2018-07-01T03:17:36Z</time>
      </trkpt>
      <trkpt lat="50.073987012729049" lon="8.47451901063323">
        <ele>117.42</ele>
        <time>2018-07-01T03:17:44Z</time>
      </trkpt>
      <trkpt lat="50.074073011055589" lon="8.474623030051589">
        <ele>117.90000000000001</ele>
        <time>2018-07-01T03:17:47Z</time>
      </trkpt>
      <trkpt lat="50.074117016047239" lon="8.474676003679633">
        <ele>117.90000000000001</ele>
        <time>2018-07-01T03:17:48Z</time>
      </trkpt>
      <trkpt lat="50.074158003553748" lon="8.474725959822536">
        <ele>117.90000000000001</ele>
        <time>2018-07-01T03:17:49Z</time>
      </trkpt>
      <trkpt lat="50.074219023808837" lon="8.474640967324376">
        <ele>118.38</ele>
        <time>2018-07-01T03:17:51Z</time>
      </trkpt>
      <trkpt lat="50.074328994378448" lon="8.474473999813199">
        <ele>118.38</ele>
        <time>2018-07-01T03:17:52Z</time>
      </trkpt>
      <trkpt lat="50.074395965784788" lon="8.474372997879982">
        <ele>118.86</ele>
        <time>2018-07-01T03:17:53Z</time>
      </trkpt>
      <trkpt lat="50.075136004015803" lon="8.4732720348984">
        <ele>115.5</ele>
        <time>2018-07-01T03:18:02Z</time>
      </trkpt>
      <trkpt lat="50.075802030041814" lon="8.472258998081088">
        <ele>114.53</ele>
        <time>2018-07-01T03:18:11Z</time>
      </trkpt>
      <trkpt lat="50.076274015009403" lon="8.471514014527202">
        <ele>113.09</ele>
        <time>2018-07-01T03:18:21Z</time>
      </trkpt>
      <trkpt lat="50.07710499688983" lon="8.470266032963991">
        <ele>113.56999999999999</ele>
        <time>2018-07-01T03:18:30Z</time>
      </trkpt>
      <trkpt lat="50.077992975711823" lon="8.46813996322453">
        <ele>116.45999999999999</ele>
        <time>2018-07-01T03:18:41Z</time>
      </trkpt>
      <trkpt lat="50.07828701287508" lon="8.467162968590856">
        <ele>117.42</ele>
        <time>2018-07-01T03:18:47Z</time>
      </trkpt>
      <trkpt lat="50.078497985377908" lon="8.465979024767876">
        <ele>117.42</ele>
        <time>2018-07-01T03:18:58Z</time>
      </trkpt>
      <trkpt lat="50.078550036996603" lon="8.465679958462715">
        <ele>116.45999999999999</ele>
        <time>2018-07-01T03:19:06Z</time>
      </trkpt>
      <trkpt lat="50.078605022281408" lon="8.465272011235356">
        <ele>115.98</ele>
        <time>2018-07-01T03:19:17Z</time>
      </trkpt>
      <trkpt lat="50.07873997092247" lon="8.463987987488508">
        <ele>115.98</ele>
        <time>2018-07-01T03:19:25Z</time>
      </trkpt>
      <trkpt lat="50.079007018357515" lon="8.461694028228521">
        <ele>117.42</ele>
        <time>2018-07-01T03:19:36Z</time>
      </trkpt>
      <trkpt lat="50.079505993053317" lon="8.459246009588242">
        <ele>122.22</ele>
        <time>2018-07-01T03:19:47Z</time>
      </trkpt>
      <trkpt lat="50.080165984109044" lon="8.457111977040768">
        <ele>125.59</ele>
        <time>2018-07-01T03:19:56Z</time>
      </trkpt>
      <trkpt lat="50.080903004854918" lon="8.454745011404157">
        <ele>128.47</ele>
        <time>2018-07-01T03:20:05Z</time>
      </trkpt>
      <trkpt lat="50.081742033362389" lon="8.451952999457717">
        <ele>130.40000000000001</ele>
        <time>2018-07-01T03:20:15Z</time>
      </trkpt>
      <trkpt lat="50.082725984975696" lon="8.448579031974077">
        <ele>132.80000000000001</ele>
        <time>2018-07-01T03:20:27Z</time>
      </trkpt>
      <trkpt lat="50.083649000152946" lon="8.445548973977566">
        <ele>134.24000000000001</ele>
        <time>2018-07-01T03:20:38Z</time>
      </trkpt>
      <trkpt lat="50.084414016455412" lon="8.443349981680512">
        <ele>132.80000000000001</ele>
        <time>2018-07-01T03:20:47Z</time>
      </trkpt>
      <trkpt lat="50.084879966452718" lon="8.441951964050531">
        <ele>131.84</ele>
        <time>2018-07-01T03:20:54Z</time>
      </trkpt>
      <trkpt lat="50.084950039163232" lon="8.441730011254549">
        <ele>131.84</ele>
        <time>2018-07-01T03:20:55Z</time>
      </trkpt>
      <trkpt lat="50.085731986910105" lon="8.439319962635636">
        <ele>134.24000000000001</ele>
        <time>2018-07-01T03:21:07Z</time>
      </trkpt>
      <trkpt lat="50.086527010425925" lon="8.437147038057447">
        <ele>137.61000000000001</ele>
        <time>2018-07-01T03:21:19Z</time>
      </trkpt>
      <trkpt lat="50.087191024795175" lon="8.43532900325954">
        <ele>142.41</ele>
        <time>2018-07-01T03:21:29Z</time>
      </trkpt>
      <trkpt lat="50.087744984775782" lon="8.433577017858625">
        <ele>147.69999999999999</ele>
        <time>2018-07-01T03:21:38Z</time>
      </trkpt>
      <trkpt lat="50.08853699080646" lon="8.432060983031988">
        <ele>151.06</ele>
        <time>2018-07-01T03:21:47Z</time>
      </trkpt>
      <trkpt lat="50.08888098411262" lon="8.431621016934514">
        <ele>151.53999999999999</ele>
        <time>2018-07-01T03:21:50Z</time>
      </trkpt>
      <trkpt lat="50.090315965935588" lon="8.430578978732228">
        <ele>147.69999999999999</ele>
        <time>2018-07-01T03:22:00Z</time>
      </trkpt>
      <trkpt lat="50.090620983392" lon="8.4303870331496">
        <ele>145.30000000000001</ele>
        <time>2018-07-01T03:22:02Z</time>
      </trkpt>
      <trkpt lat="50.091491024941206" lon="8.429669039323926">
        <ele>140.49000000000001</ele>
        <time>2018-07-01T03:22:08Z</time>
      </trkpt>
      <trkpt lat="50.092430971562862" lon="8.428720040246844">
        <ele>138.09</ele>
        <time>2018-07-01T03:22:15Z</time>
      </trkpt>
      <trkpt lat="50.092721991240978" lon="8.428512001410127">
        <ele>137.61000000000001</ele>
        <time>2018-07-01T03:22:17Z</time>
      </trkpt>
      <trkpt lat="50.093379970639944" lon="8.428256018087268">
        <ele>135.68000000000001</ele>
        <time>2018-07-01T03:22:21Z</time>
      </trkpt>
      <trkpt lat="50.094886031001806" lon="8.427877994254232">
        <ele>131.84</ele>
        <time>2018-07-01T03:22:30Z</time>
      </trkpt>
      <trkpt lat="50.096219005063176" lon="8.427747990936041">
        <ele>129.91999999999999</ele>
        <time>2018-07-01T03:22:38Z</time>
      </trkpt>
      <trkpt lat="50.098146004602313" lon="8.427714966237545">
        <ele>132.31999999999999</ele>
        <time>2018-07-01T03:22:49Z</time>
      </trkpt>
      <trkpt lat="50.099974013864994" lon="8.42738295905292">
        <ele>138.09</ele>
        <time>2018-07-01T03:22:59Z</time>
      </trkpt>
      <trkpt lat="50.100536020472646" lon="8.42738002538681">
        <ele>139.05000000000001</ele>
        <time>2018-07-01T03:23:02Z</time>
      </trkpt>
      <trkpt lat="50.100727966055274" lon="8.427431993186474">
        <ele>139.05000000000001</ele>
        <time>2018-07-01T03:23:03Z</time>
      </trkpt>
      <trkpt lat="50.10226403363049" lon="8.427771963179112">
        <ele>139.05000000000001</ele>
        <time>2018-07-01T03:23:11Z</time>
      </trkpt>
      <trkpt lat="50.105210021138191" lon="8.428033981472254">
        <ele>143.37</ele>
        <time>2018-07-01T03:23:27Z</time>
      </trkpt>
      <trkpt lat="50.106724966317415" lon="8.428445030003786">
        <ele>144.81999999999999</ele>
        <time>2018-07-01T03:23:36Z</time>
      </trkpt>
      <trkpt lat="50.108806025236845" lon="8.429100997745991">
        <ele>149.13999999999999</ele>
        <time>2018-07-01T03:23:49Z</time>
      </trkpt>
      <trkpt lat="50.109198968857527" lon="8.429131004959345">
        <ele>149.62</ele>
        <time>2018-07-01T03:23:52Z</time>
      </trkpt>
      <trkpt lat="50.10931002907455" lon="8.429080964997411">
        <ele>150.09999999999999</ele>
        <time>2018-07-01T03:23:53Z</time>
      </trkpt>
      <trkpt lat="50.109480014070868" lon="8.429003013297916">
        <ele>149.62</ele>
        <time>2018-07-01T03:23:54Z</time>
      </trkpt>
      <trkpt lat="50.109542040154338" lon="8.428936963900924">
        <ele>149.62</ele>
        <time>2018-07-01T03:23:55Z</time>
      </trkpt>
      <trkpt lat="50.109649999067187" lon="8.428822970017791">
        <ele>149.62</ele>
        <time>2018-07-01T03:23:56Z</time>
      </trkpt>
      <trkpt lat="50.110289035364985" lon="8.428086033090949">
        <ele>149.13999999999999</ele>
        <time>2018-07-01T03:24:02Z</time>
      </trkpt>
      <trkpt lat="50.110818017274141" lon="8.427603989839554">
        <ele>150.58000000000001</ele>
        <time>2018-07-01T03:24:08Z</time>
      </trkpt>
      <trkpt lat="50.110896974802017" lon="8.427540035918355">
        <ele>151.06</ele>
        <time>2018-07-01T03:24:09Z</time>
      </trkpt>
      <trkpt lat="50.111123034730554" lon="8.427354041486979">
        <ele>152.50999999999999</ele>
        <time>2018-07-01T03:24:12Z</time>
      </trkpt>
      <trkpt lat="50.111760981380939" lon="8.426701007410884">
        <ele>154.43000000000001</ele>
        <time>2018-07-01T03:24:21Z</time>
      </trkpt>
      <trkpt lat="50.111831976100802" lon="8.426618026569486">
        <ele>154.43000000000001</ele>
        <time>2018-07-01T03:24:22Z</time>
      </trkpt>
      <trkpt lat="50.111900959163904" lon="8.426537979394198">
        <ele>154.91</ele>
        <time>2018-07-01T03:24:23Z</time>
      </trkpt>
      <trkpt lat="50.111968014389277" lon="8.426458016037941">
        <ele>154.43000000000001</ele>
        <time>2018-07-01T03:24:24Z</time>
      </trkpt>
      <trkpt lat="50.112035991623998" lon="8.426378974691033">
        <ele>154.43000000000001</ele>
        <time>2018-07-01T03:24:25Z</time>
      </trkpt>
      <trkpt lat="50.112103968858719" lon="8.426300017163158">
        <ele>153.94999999999999</ele>
        <time>2018-07-01T03:24:26Z</time>
      </trkpt>
      <trkpt lat="50.112179992720485" lon="8.42622097581625">
        <ele>153.47</ele>
        <time>2018-07-01T03:24:27Z</time>
      </trkpt>
      <trkpt lat="50.112256016582251" lon="8.426152998581529">
        <ele>153.47</ele>
        <time>2018-07-01T03:24:28Z</time>
      </trkpt>
      <trkpt lat="50.112336985766888" lon="8.426083009690046">
        <ele>153.47</ele>
        <time>2018-07-01T03:24:29Z</time>
      </trkpt>
      <trkpt lat="50.112418960779905" lon="8.426020983606577">
        <ele>153.47</ele>
        <time>2018-07-01T03:24:30Z</time>
      </trkpt>
      <trkpt lat="50.112502025440335" lon="8.425959041342139">
        <ele>153.47</ele>
        <time>2018-07-01T03:24:31Z</time>
      </trkpt>
      <trkpt lat="50.112588023766875" lon="8.425893997773528">
        <ele>153.47</ele>
        <time>2018-07-01T03:24:32Z</time>
      </trkpt>
      <trkpt lat="50.113380029797554" lon="8.425401980057359">
        <ele>154.43000000000001</ele>
        <time>2018-07-01T03:24:41Z</time>
      </trkpt>
      <trkpt lat="50.114112021401525" lon="8.424913985654712">
        <ele>154.91</ele>
        <time>2018-07-01T03:24:51Z</time>
      </trkpt>
      <trkpt lat="50.114514017477632" lon="8.424650961533189">
        <ele>154.43000000000001</ele>
        <time>2018-07-01T03:24:57Z</time>
      </trkpt>
      <trkpt lat="50.114763965830207" lon="8.424410987645388">
        <ele>155.38999999999999</ele>
        <time>2018-07-01T03:25:02Z</time>
      </trkpt>
      <trkpt lat="50.115208961069584" lon="8.423810005187988">
        <ele>156.34999999999999</ele>
        <time>2018-07-01T03:25:08Z</time>
      </trkpt>
      <trkpt lat="50.115876998752356" lon="8.422786993905902">
        <ele>158.75</ele>
        <time>2018-07-01T03:25:20Z</time>
      </trkpt>
      <trkpt lat="50.115939024835825" lon="8.42269403859973">
        <ele>159.24000000000001</ele>
        <time>2018-07-01T03:25:21Z</time>
      </trkpt>
      <trkpt lat="50.116045977920294" lon="8.422544002532959">
        <ele>159.24000000000001</ele>
        <time>2018-07-01T03:25:23Z</time>
      </trkpt>
      <trkpt lat="50.116260973736644" lon="8.422235967591405">
        <ele>159.72</ele>
        <time>2018-07-01T03:25:27Z</time>
      </trkpt>
      <trkpt lat="50.1163150370121" lon="8.422152986750007">
        <ele>159.72</ele>
        <time>2018-07-01T03:25:28Z</time>
      </trkpt>
      <trkpt lat="50.116566997021437" lon="8.421742022037506">
        <ele>161.63999999999999</ele>
        <time>2018-07-01T03:25:33Z</time>
      </trkpt>
      <trkpt lat="50.117039987817407" lon="8.420838033780456">
        <ele>165</ele>
        <time>2018-07-01T03:25:43Z</time>
      </trkpt>
      <trkpt lat="50.11708902195096" lon="8.420756980776787">
        <ele>164.52000000000001</ele>
        <time>2018-07-01T03:25:44Z</time>
      </trkpt>
      <trkpt lat="50.117172002792358" lon="8.42074197717011">
        <ele>164.52000000000001</ele>
        <time>2018-07-01T03:25:45Z</time>
      </trkpt>
      <trkpt lat="50.117237968370318" lon="8.42074197717011">
        <ele>164.03999999999999</ele>
        <time>2018-07-01T03:25:46Z</time>
      </trkpt>
      <trkpt lat="50.117307035252452" lon="8.42074197717011">
        <ele>164.03999999999999</ele>
        <time>2018-07-01T03:25:47Z</time>
      </trkpt>
      <trkpt lat="50.117376018315554" lon="8.42074197717011">
        <ele>163.56</ele>
        <time>2018-07-01T03:25:48Z</time>
      </trkpt>
      <trkpt lat="50.117448018863797" lon="8.420711969956756">
        <ele>163.56</ele>
        <time>2018-07-01T03:25:49Z</time>
      </trkpt>
      <trkpt lat="50.117505015805364" lon="8.42067701742053">
        <ele>163.56</ele>
        <time>2018-07-01T03:25:50Z</time>
      </trkpt>
      <trkpt lat="50.117824031040072" lon="8.420348027721047">
        <ele>163.08000000000001</ele>
        <time>2018-07-01T03:25:55Z</time>
      </trkpt>
      <trkpt lat="50.117881027981639" lon="8.420288013294339">
        <ele>162.12</ele>
        <time>2018-07-01T03:25:56Z</time>
      </trkpt>
      <trkpt lat="50.11807800270617" lon="8.420083997771144">
        <ele>160.19999999999999</ele>
        <time>2018-07-01T03:25:59Z</time>
      </trkpt>
      <trkpt lat="50.118139022961259" lon="8.420007973909378">
        <ele>160.68000000000001</ele>
        <time>2018-07-01T03:26:00Z</time>
      </trkpt>
      <trkpt lat="50.118213035166264" lon="8.4199049603194">
        <ele>160.68000000000001</ele>
        <time>2018-07-01T03:26:01Z</time>
      </trkpt>
      <trkpt lat="50.118748974055052" lon="8.418922014534473">
        <ele>162.59999999999999</ele>
        <time>2018-07-01T03:26:13Z</time>
      </trkpt>
      <trkpt lat="50.119342999532819" lon="8.417807975783944">
        <ele>166.93000000000001</ele>
        <time>2018-07-01T03:26:26Z</time>
      </trkpt>
      <trkpt lat="50.119670983403921" lon="8.417259966954589">
        <ele>167.88999999999999</ele>
        <time>2018-07-01T03:26:32Z</time>
      </trkpt>
      <trkpt lat="50.119826970621943" lon="8.417074978351593">
        <ele>167.41</ele>
        <time>2018-07-01T03:26:34Z</time>
      </trkpt>
      <trkpt lat="50.119908023625612" lon="8.416977999731898">
        <ele>166.93000000000001</ele>
        <time>2018-07-01T03:26:35Z</time>
      </trkpt>
      <trkpt lat="50.12011899612844" lon="8.416854031383991">
        <ele>165.96000000000001</ele>
        <time>2018-07-01T03:26:37Z</time>
      </trkpt>
      <trkpt lat="50.12022502720356" lon="8.416821006685495">
        <ele>165</ele>
        <time>2018-07-01T03:26:38Z</time>
      </trkpt>
      <trkpt lat="50.120595004409552" lon="8.416773984208703">
        <ele>163.56</ele>
        <time>2018-07-01T03:26:41Z</time>
      </trkpt>
      <trkpt lat="50.120717966929078" lon="8.416794016957283">
        <ele>163.08000000000001</ele>
        <time>2018-07-01T03:26:42Z</time>
      </trkpt>
      <trkpt lat="50.12127997353673" lon="8.417011024430394">
        <ele>162.59999999999999</ele>
        <time>2018-07-01T03:26:46Z</time>
      </trkpt>
      <trkpt lat="50.121680041775107" lon="8.417319981381297">
        <ele>163.08000000000001</ele>
        <time>2018-07-01T03:26:49Z</time>
      </trkpt>
      <trkpt lat="50.121799986809492" lon="8.417440010234714">
        <ele>163.56</ele>
        <time>2018-07-01T03:26:50Z</time>
      </trkpt>
      <trkpt lat="50.12192202731967" lon="8.417585017159581">
        <ele>164.03999999999999</ele>
        <time>2018-07-01T03:26:51Z</time>
      </trkpt>
      <trkpt lat="50.122259985655546" lon="8.418007967993617">
        <ele>164.52000000000001</ele>
        <time>2018-07-01T03:26:54Z</time>
      </trkpt>
      <trkpt lat="50.122381020337343" lon="8.418127996847034">
        <ele>164.52000000000001</ele>
        <time>2018-07-01T03:26:55Z</time>
      </trkpt>
      <trkpt lat="50.122497025877237" lon="8.418239979073405">
        <ele>164.52000000000001</ele>
        <time>2018-07-01T03:26:56Z</time>
      </trkpt>
      <trkpt lat="50.12263398617506" lon="8.418326983228326">
        <ele>164.52000000000001</ele>
        <time>2018-07-01T03:26:57Z</time>
      </trkpt>
      <trkpt lat="50.122771030291915" lon="8.418380962684751">
        <ele>164.52000000000001</ele>
        <time>2018-07-01T03:26:58Z</time>
      </trkpt>
      <trkpt lat="50.1228909753263" lon="8.418380962684751">
        <ele>164.52000000000001</ele>
        <time>2018-07-01T03:26:59Z</time>
      </trkpt>
      <trkpt lat="50.123061966150999" lon="8.418322037905455">
        <ele>164.52000000000001</ele>
        <time>2018-07-01T03:27:00Z</time>
      </trkpt>
      <trkpt lat="50.123208984732628" lon="8.41827099211514">
        <ele>164.52000000000001</ele>
        <time>2018-07-01T03:27:01Z</time>
      </trkpt>
      <trkpt lat="50.123354997485876" lon="8.418221035972238">
        <ele>165</ele>
        <time>2018-07-01T03:27:02Z</time>
      </trkpt>
      <trkpt lat="50.123501010239124" lon="8.418150963261724">
        <ele>165.47999999999999</ele>
        <time>2018-07-01T03:27:03Z</time>
      </trkpt>
      <trkpt lat="50.123908035457134" lon="8.417859021574259">
        <ele>166.44999999999999</ele>
        <time>2018-07-01T03:27:08Z</time>
      </trkpt>
      <trkpt lat="50.124086989089847" lon="8.417731029912829">
        <ele>168.37</ele>
        <time>2018-07-01T03:27:14Z</time>
      </trkpt>
      <trkpt lat="50.124613959342241" lon="8.41739097610116">
        <ele>169.81</ele>
        <time>2018-07-01T03:27:23Z</time>
      </trkpt>
      <trkpt lat="50.125146964564919" lon="8.417013958096504">
        <ele>171.25</ele>
        <time>2018-07-01T03:27:29Z</time>
      </trkpt>
      <trkpt lat="50.125237992033362" lon="8.416914967820048">
        <ele>172.21000000000001</ele>
        <time>2018-07-01T03:27:30Z</time>
      </trkpt>
      <trkpt lat="50.12529700063169" lon="8.416785970330238">
        <ele>172.69</ele>
        <time>2018-07-01T03:27:31Z</time>
      </trkpt>
      <trkpt lat="50.125358020886779" lon="8.416633000597358">
        <ele>173.16999999999999</ele>
        <time>2018-07-01T03:27:32Z</time>
      </trkpt>
      <trkpt lat="50.125419963151217" lon="8.416478019207716">
        <ele>173.66</ele>
        <time>2018-07-01T03:27:33Z</time>
      </trkpt>
      <trkpt lat="50.125465979799628" lon="8.416364025324583">
        <ele>174.13999999999999</ele>
        <time>2018-07-01T03:27:34Z</time>
      </trkpt>
      <trkpt lat="50.125509984791279" lon="8.416139977052808">
        <ele>174.62</ele>
        <time>2018-07-01T03:27:35Z</time>
      </trkpt>
      <trkpt lat="50.125546026974916" lon="8.415954988449812">
        <ele>175.09999999999999</ele>
        <time>2018-07-01T03:27:36Z</time>
      </trkpt>
      <trkpt lat="50.125659015029669" lon="8.414444988593459">
        <ele>175.09999999999999</ele>
        <time>2018-07-01T03:27:44Z</time>
      </trkpt>
      <trkpt lat="50.125694973394275" lon="8.41369497589767">
        <ele>175.58000000000001</ele>
        <time>2018-07-01T03:27:48Z</time>
      </trkpt>
      <trkpt lat="50.125725986436009" lon="8.413535971194506">
        <ele>175.58000000000001</ele>
        <time>2018-07-01T03:27:49Z</time>
      </trkpt>
      <trkpt lat="50.125772003084421" lon="8.413380989804864">
        <ele>176.06</ele>
        <time>2018-07-01T03:27:50Z</time>
      </trkpt>
      <trkpt lat="50.125808967277408" lon="8.413252998143435">
        <ele>176.53999999999999</ele>
        <time>2018-07-01T03:27:51Z</time>
      </trkpt>
      <trkpt lat="50.125879961997271" lon="8.413144033402205">
        <ele>176.53999999999999</ele>
        <time>2018-07-01T03:27:52Z</time>
      </trkpt>
      <trkpt lat="50.125951040536165" lon="8.413033979013562">
        <ele>177.02000000000001</ele>
        <time>2018-07-01T03:27:53Z</time>
      </trkpt>
      <trkpt lat="50.126023963093758" lon="8.41292099095881">
        <ele>177.02000000000001</ele>
        <time>2018-07-01T03:27:54Z</time>
      </trkpt>
      <trkpt lat="50.126095963642001" lon="8.412838010117412">
        <ele>177.02000000000001</ele>
        <time>2018-07-01T03:27:55Z</time>
      </trkpt>
      <trkpt lat="50.126182967796922" lon="8.412750000134111">
        <ele>177.02000000000001</ele>
        <time>2018-07-01T03:27:56Z</time>
      </trkpt>
      <trkpt lat="50.126262009143829" lon="8.412715969607234">
        <ele>177.02000000000001</ele>
        <time>2018-07-01T03:27:57Z</time>
      </trkpt>
      <trkpt lat="50.12637197971344" lon="8.412679005414248">
        <ele>176.53999999999999</ele>
        <time>2018-07-01T03:27:58Z</time>
      </trkpt>
      <trkpt lat="50.126486979424953" lon="8.41264103539288">
        <ele>176.53999999999999</ele>
        <time>2018-07-01T03:27:59Z</time>
      </trkpt>
      <trkpt lat="50.126609019935131" lon="8.41259996406734">
        <ele>176.06</ele>
        <time>2018-07-01T03:28:00Z</time>
      </trkpt>
      <trkpt lat="50.126731982454658" lon="8.412558976560831">
        <ele>175.58000000000001</ele>
        <time>2018-07-01T03:28:01Z</time>
      </trkpt>
      <trkpt lat="50.126847987994552" lon="8.412522012367845">
        <ele>175.58000000000001</ele>
        <time>2018-07-01T03:28:02Z</time>
      </trkpt>
      <trkpt lat="50.127953980118036" lon="8.412097971886396">
        <ele>176.53999999999999</ele>
        <time>2018-07-01T03:28:12Z</time>
      </trkpt>
      <trkpt lat="50.128222033381462" lon="8.411994958296418">
        <ele>177.02000000000001</ele>
        <time>2018-07-01T03:28:15Z</time>
      </trkpt>
      <trkpt lat="50.128430994227529" lon="8.411943996325135">
        <ele>177.5</ele>
        <time>2018-07-01T03:28:17Z</time>
      </trkpt>
      <trkpt lat="50.1285429764539" lon="8.411950031295419">
        <ele>177.5</ele>
        <time>2018-07-01T03:28:18Z</time>
      </trkpt>
      <trkpt lat="50.12866803444922" lon="8.411957994103432">
        <ele>177.97999999999999</ele>
        <time>2018-07-01T03:28:19Z</time>
      </trkpt>
      <trkpt lat="50.12879996560514" lon="8.411965034902096">
        <ele>178.46000000000001</ele>
        <time>2018-07-01T03:28:20Z</time>
      </trkpt>
      <trkpt lat="50.12892896309495" lon="8.411972997710109">
        <ele>178.46000000000001</ele>
        <time>2018-07-01T03:28:21Z</time>
      </trkpt>
      <trkpt lat="50.129053015261889" lon="8.411980038508773">
        <ele>178.94</ele>
        <time>2018-07-01T03:28:22Z</time>
      </trkpt>
      <trkpt lat="50.129302041605115" lon="8.411914994940162">
        <ele>179.41999999999999</ele>
        <time>2018-07-01T03:28:24Z</time>
      </trkpt>
      <trkpt lat="50.129420980811119" lon="8.41184601187706">
        <ele>179.90000000000001</ele>
        <time>2018-07-01T03:28:25Z</time>
      </trkpt>
      <trkpt lat="50.129537992179394" lon="8.411778034642339">
        <ele>180.38</ele>
        <time>2018-07-01T03:28:26Z</time>
      </trkpt>
      <trkpt lat="50.129638994112611" lon="8.411670997738838">
        <ele>180.87</ele>
        <time>2018-07-01T03:28:27Z</time>
      </trkpt>
      <trkpt lat="50.129731027409434" lon="8.411523979157209">
        <ele>181.34999999999999</ele>
        <time>2018-07-01T03:28:28Z</time>
      </trkpt>
      <trkpt lat="50.12980998493731" lon="8.411366986110807">
        <ele>181.34999999999999</ele>
        <time>2018-07-01T03:28:29Z</time>
      </trkpt>
      <trkpt lat="50.129886008799076" lon="8.411192977800965">
        <ele>181.83000000000001</ele>
        <time>2018-07-01T03:28:30Z</time>
      </trkpt>
      <trkpt lat="50.129954991862178" lon="8.410790981724858">
        <ele>182.31</ele>
        <time>2018-07-01T03:28:32Z</time>
      </trkpt>
      <trkpt lat="50.12998097576201" lon="8.410591995343566">
        <ele>181.83000000000001</ele>
        <time>2018-07-01T03:28:33Z</time>
      </trkpt>
      <trkpt lat="50.130116008222103" lon="8.409550040960312">
        <ele>181.34999999999999</ele>
        <time>2018-07-01T03:28:38Z</time>
      </trkpt>
      <trkpt lat="50.130356987938285" lon="8.407646007835865">
        <ele>181.34999999999999</ele>
        <time>2018-07-01T03:28:47Z</time>
      </trkpt>
      <trkpt lat="50.13036796823144" lon="8.407437968999147">
        <ele>181.83000000000001</ele>
        <time>2018-07-01T03:28:48Z</time>
      </trkpt>
      <trkpt lat="50.130380038172007" lon="8.407222973182797">
        <ele>182.31</ele>
        <time>2018-07-01T03:28:49Z</time>
      </trkpt>
      <trkpt lat="50.130352964624763" lon="8.406739002093673">
        <ele>183.27000000000001</ele>
        <time>2018-07-01T03:28:52Z</time>
      </trkpt>
      <trkpt lat="50.13034500181675" lon="8.406596006825566">
        <ele>183.27000000000001</ele>
        <time>2018-07-01T03:28:53Z</time>
      </trkpt>
      <trkpt lat="50.130337039008737" lon="8.406450999900699">
        <ele>183.27000000000001</ele>
        <time>2018-07-01T03:28:54Z</time>
      </trkpt>
      <trkpt lat="50.130340978503227" lon="8.406381011009216">
        <ele>183.27000000000001</ele>
        <time>2018-07-01T03:28:55Z</time>
      </trkpt>
      <trkpt lat="50.13034500181675" lon="8.406322002410889">
        <ele>182.78999999999999</ele>
        <time>2018-07-01T03:28:56Z</time>
      </trkpt>
      <trkpt lat="50.130348019301891" lon="8.406272968277335">
        <ele>182.31</ele>
        <time>2018-07-01T03:28:57Z</time>
      </trkpt>
      <trkpt lat="50.130350030958652" lon="8.406237009912729">
        <ele>181.83000000000001</ele>
        <time>2018-07-01T03:28:58Z</time>
      </trkpt>
      <trkpt lat="50.130351958796382" lon="8.406210020184517">
        <ele>181.34999999999999</ele>
        <time>2018-07-01T03:28:59Z</time>
      </trkpt>
      <trkpt lat="50.130352964624763" lon="8.406186969950795">
        <ele>180.87</ele>
        <time>2018-07-01T03:29:00Z</time>
      </trkpt>
      <trkpt lat="50.130353970453143" lon="8.406170038506389">
        <ele>180.87</ele>
        <time>2018-07-01T03:29:01Z</time>
      </trkpt>
      <trkpt lat="50.130355982109904" lon="8.406146988272667">
        <ele>179.90000000000001</ele>
        <time>2018-07-01T03:29:12Z</time>
      </trkpt>
      <trkpt lat="50.130357993766665" lon="8.406114969402552">
        <ele>179.90000000000001</ele>
        <time>2018-07-01T03:29:13Z</time>
      </trkpt>
      <trkpt lat="50.130363022908568" lon="8.406086973845959">
        <ele>179.41999999999999</ele>
        <time>2018-07-01T03:29:14Z</time>
      </trkpt>
      <trkpt lat="50.130379032343626" lon="8.406018996611238">
        <ele>179.41999999999999</ele>
        <time>2018-07-01T03:29:15Z</time>
      </trkpt>
      <trkpt lat="50.130395041778684" lon="8.405952025204897">
        <ele>178.94</ele>
        <time>2018-07-01T03:29:16Z</time>
      </trkpt>
      <trkpt lat="50.13040903955698" lon="8.405895028263331">
        <ele>178.94</ele>
        <time>2018-07-01T03:29:17Z</time>
      </trkpt>
      <trkpt lat="50.130419014021754" lon="8.40585102327168">
        <ele>178.46000000000001</ele>
        <time>2018-07-01T03:29:18Z</time>
      </trkpt>
      <trkpt lat="50.130425971001387" lon="8.405821016058326">
        <ele>178.46000000000001</ele>
        <time>2018-07-01T03:29:19Z</time>
      </trkpt>
      <trkpt lat="50.130425971001387" lon="8.405821016058326">
        <ele>177.97999999999999</ele>
        <time>2018-07-01T03:29:30Z</time>
      </trkpt>
      <trkpt lat="50.130429994314909" lon="8.405805006623268">
        <ele>177.97999999999999</ele>
        <time>2018-07-01T03:29:45Z</time>
      </trkpt>
      <trkpt lat="50.130435023456812" lon="8.405786985531449">
        <ele>177.97999999999999</ele>
        <time>2018-07-01T03:29:46Z</time>
      </trkpt>
      <trkpt lat="50.130438962951303" lon="8.405768964439631">
        <ele>177.97999999999999</ele>
        <time>2018-07-01T03:29:47Z</time>
      </trkpt>
      <trkpt lat="50.130443992093205" lon="8.405748009681702">
        <ele>177.5</ele>
        <time>2018-07-01T03:29:48Z</time>
      </trkpt>
      <trkpt lat="50.130450027063489" lon="8.405720014125109">
        <ele>177.5</ele>
        <time>2018-07-01T03:29:49Z</time>
      </trkpt>
      <trkpt lat="50.130466036498547" lon="8.405656982213259">
        <ele>177.02000000000001</ele>
        <time>2018-07-01T03:29:50Z</time>
      </trkpt>
      <trkpt lat="50.130466036498547" lon="8.405656982213259">
        <ele>176.53999999999999</ele>
        <time>2018-07-01T03:29:51Z</time>
      </trkpt>
      <trkpt lat="50.130952019244432" lon="8.404228035360575">
        <ele>172.21000000000001</ele>
        <time>2018-07-01T03:33:23Z</time>
      </trkpt>
      <trkpt lat="50.13058103621006" lon="8.405662011355162">
        <ele>187.11000000000001</ele>
        <time>2018-07-01T03:33:38Z</time>
      </trkpt>
      <trkpt lat="50.130548011511564" lon="8.405627980828285">
        <ele>192.88</ele>
        <time>2018-07-01T03:34:27Z</time>
      </trkpt>
      <trkpt lat="50.130541976541281" lon="8.40570199303329">
        <ele>190</ele>
        <time>2018-07-01T03:35:11Z</time>
      </trkpt>
      <trkpt lat="50.130541976541281" lon="8.405699981376529">
        <ele>190</ele>
        <time>2018-07-01T03:35:47Z</time>
      </trkpt>
      <trkpt lat="50.130492020398378" lon="8.405608031898737">
        <ele>190</ele>
        <time>2018-07-01T03:35:49Z</time>
      </trkpt>
      <trkpt lat="50.130514986813068" lon="8.405566960573196">
        <ele>190</ele>
        <time>2018-07-01T03:35:50Z</time>
      </trkpt>
      <trkpt lat="50.130553962662816" lon="8.405495965853334">
        <ele>190</ele>
        <time>2018-07-01T03:35:51Z</time>
      </trkpt>
      <trkpt lat="50.130600985139608" lon="8.405408961698413">
        <ele>189.52000000000001</ele>
        <time>2018-07-01T03:35:52Z</time>
      </trkpt>
      <trkpt lat="50.130653036758304" lon="8.40531500056386">
        <ele>189.52000000000001</ele>
        <time>2018-07-01T03:35:53Z</time>
      </trkpt>
      <trkpt lat="50.130999041721225" lon="8.404661966487765">
        <ele>188.56</ele>
        <time>2018-07-01T03:35:58Z</time>
      </trkpt>
      <trkpt lat="50.131070958450437" lon="8.404488964006305">
        <ele>188.08000000000001</ele>
        <time>2018-07-01T03:35:59Z</time>
      </trkpt>
      <trkpt lat="50.131145976483822" lon="8.40430498123169">
        <ele>187.59</ele>
        <time>2018-07-01T03:36:00Z</time>
      </trkpt>
      <trkpt lat="50.13161301612854" lon="8.403033027425408">
        <ele>184.71000000000001</ele>
        <time>2018-07-01T03:36:06Z</time>
      </trkpt>
      <trkpt lat="50.131728015840054" lon="8.402879973873496">
        <ele>184.22999999999999</ele>
        <time>2018-07-01T03:36:07Z</time>
      </trkpt>
      <trkpt lat="50.131848966702819" lon="8.402732033282518">
        <ele>183.75</ele>
        <time>2018-07-01T03:36:08Z</time>
      </trkpt>
      <trkpt lat="50.131988022476435" lon="8.40260798111558">
        <ele>183.75</ele>
        <time>2018-07-01T03:36:09Z</time>
      </trkpt>
      <trkpt lat="50.132128000259399" lon="8.402482001110911">
        <ele>183.27000000000001</ele>
        <time>2018-07-01T03:36:10Z</time>
      </trkpt>
      <trkpt lat="50.133168026804924" lon="8.401630986481905">
        <ele>181.34999999999999</ele>
        <time>2018-07-01T03:36:18Z</time>
      </trkpt>
      <trkpt lat="50.134111996740103" lon="8.400835962966085">
        <ele>180.87</ele>
        <time>2018-07-01T03:36:28Z</time>
      </trkpt>
      <trkpt lat="50.134951025247574" lon="8.400335982441902">
        <ele>177.97999999999999</ele>
        <time>2018-07-01T03:36:36Z</time>
      </trkpt>
      <trkpt lat="50.13569500297308" lon="8.399995006620884">
        <ele>173.66</ele>
        <time>2018-07-01T03:36:43Z</time>
      </trkpt>
      <trkpt lat="50.13668398372829" lon="8.399569038301706">
        <ele>170.77000000000001</ele>
        <time>2018-07-01T03:36:52Z</time>
      </trkpt>
      <trkpt lat="50.136793032288551" lon="8.399525033310056">
        <ele>170.77000000000001</ele>
        <time>2018-07-01T03:36:53Z</time>
      </trkpt>
      <trkpt lat="50.136901997029781" lon="8.399480022490025">
        <ele>170.28999999999999</ele>
        <time>2018-07-01T03:36:54Z</time>
      </trkpt>
      <trkpt lat="50.137452017515898" lon="8.399253962561488">
        <ele>171.25</ele>
        <time>2018-07-01T03:36:59Z</time>
      </trkpt>
      <trkpt lat="50.13756399974227" lon="8.399209035560489">
        <ele>171.25</ele>
        <time>2018-07-01T03:37:00Z</time>
      </trkpt>
      <trkpt lat="50.137676987797022" lon="8.39917098172009">
        <ele>171.72999999999999</ele>
        <time>2018-07-01T03:37:01Z</time>
      </trkpt>
      <trkpt lat="50.13812399469316" lon="8.399051036685705">
        <ele>172.69</ele>
        <time>2018-07-01T03:37:05Z</time>
      </trkpt>
      <trkpt lat="50.138227008283138" lon="8.399028992280364">
        <ele>172.69</ele>
        <time>2018-07-01T03:37:06Z</time>
      </trkpt>
      <trkpt lat="50.138342007994652" lon="8.399005020037293">
        <ele>173.16999999999999</ele>
        <time>2018-07-01T03:37:07Z</time>
      </trkpt>
      <trkpt lat="50.138456001877785" lon="8.398996973410249">
        <ele>173.16999999999999</ele>
        <time>2018-07-01T03:37:08Z</time>
      </trkpt>
      <trkpt lat="50.138662029057741" lon="8.398983981460333">
        <ele>173.16999999999999</ele>
        <time>2018-07-01T03:37:09Z</time>
      </trkpt>
      <trkpt lat="50.138664962723851" lon="8.398983981460333">
        <ele>173.16999999999999</ele>
        <time>2018-07-01T03:37:10Z</time>
      </trkpt>
      <trkpt lat="50.13894097879529" lon="8.398983981460333">
        <ele>173.16999999999999</ele>
        <time>2018-07-01T03:37:12Z</time>
      </trkpt>
      <trkpt lat="50.139011973515153" lon="8.398941988125444">
        <ele>173.16999999999999</ele>
        <time>2018-07-01T03:37:13Z</time>
      </trkpt>
      <trkpt lat="50.139121022075415" lon="8.398879040032625">
        <ele>173.16999999999999</ele>
        <time>2018-07-01T03:37:14Z</time>
      </trkpt>
      <trkpt lat="50.139239961281419" lon="8.398782983422279">
        <ele>173.66</ele>
        <time>2018-07-01T03:37:15Z</time>
      </trkpt>
      <trkpt lat="50.139334006235003" lon="8.398667983710766">
        <ele>173.66</ele>
        <time>2018-07-01T03:37:16Z</time>
      </trkpt>
      <trkpt lat="50.13960599899292" lon="8.39833396486938">
        <ele>173.66</ele>
        <time>2018-07-01T03:37:19Z</time>
      </trkpt>
      <trkpt lat="50.139829963445663" lon="8.397921994328499">
        <ele>175.09999999999999</ele>
        <time>2018-07-01T03:37:24Z</time>
      </trkpt>
      <trkpt lat="50.13988402672112" lon="8.397790985181928">
        <ele>178.46000000000001</ele>
        <time>2018-07-01T03:37:32Z</time>
      </trkpt>
      <trkpt lat="50.1399299595505" lon="8.397676991298795">
        <ele>180.38</ele>
        <time>2018-07-01T03:38:11Z</time>
      </trkpt>
      <trkpt lat="50.13994999229908" lon="8.397628040984273">
        <ele>180.38</ele>
        <time>2018-07-01T03:38:12Z</time>
      </trkpt>
      <trkpt lat="50.139990979805589" lon="8.397522009909153">
        <ele>179.90000000000001</ele>
        <time>2018-07-01T03:38:13Z</time>
      </trkpt>
      <trkpt lat="50.139952003955841" lon="8.397442968562245">
        <ele>178.94</ele>
        <time>2018-07-01T03:38:14Z</time>
      </trkpt>
      <trkpt lat="50.139912022277713" lon="8.397363005205989">
        <ele>177.97999999999999</ele>
        <time>2018-07-01T03:38:15Z</time>
      </trkpt>
      <trkpt lat="50.139870028942823" lon="8.39727901853621">
        <ele>177.02000000000001</ele>
        <time>2018-07-01T03:38:16Z</time>
      </trkpt>
      <trkpt lat="50.139747988432646" lon="8.396971989423037">
        <ele>174.13999999999999</ele>
        <time>2018-07-01T03:38:19Z</time>
      </trkpt>
      <trkpt lat="50.13947700150311" lon="8.395563997328281">
        <ele>169.81</ele>
        <time>2018-07-01T03:38:28Z</time>
      </trkpt>
      <trkpt lat="50.139259994029999" lon="8.393184039741755">
        <ele>174.62</ele>
        <time>2018-07-01T03:38:40Z</time>
      </trkpt>
      <trkpt lat="50.139180030673742" lon="8.391902027651668">
        <ele>176.06</ele>
        <time>2018-07-01T03:38:47Z</time>
      </trkpt>
      <trkpt lat="50.139177013188601" lon="8.391788033768535">
        <ele>176.53999999999999</ele>
        <time>2018-07-01T03:38:48Z</time>
      </trkpt>
      <trkpt lat="50.139177013188601" lon="8.391127036884427">
        <ele>177.5</ele>
        <time>2018-07-01T03:38:53Z</time>
      </trkpt>
      <trkpt lat="50.139288995414972" lon="8.390220031142235">
        <ele>177.97999999999999</ele>
        <time>2018-07-01T03:38:59Z</time>
      </trkpt>
      <trkpt lat="50.139312967658043" lon="8.390053985640407">
        <ele>177.97999999999999</ele>
        <time>2018-07-01T03:39:00Z</time>
      </trkpt>
      <trkpt lat="50.139909004792571" lon="8.388571981340647">
        <ele>177.02000000000001</ele>
        <time>2018-07-01T03:39:10Z</time>
      </trkpt>
      <trkpt lat="50.140624986961484" lon="8.387452997267246">
        <ele>178.46000000000001</ele>
        <time>2018-07-01T03:39:19Z</time>
      </trkpt>
      <trkpt lat="50.140801006928086" lon="8.387210005894303">
        <ele>178.94</ele>
        <time>2018-07-01T03:39:21Z</time>
      </trkpt>
      <trkpt lat="50.141756040975451" lon="8.386585973203182">
        <ele>182.31</ele>
        <time>2018-07-01T03:39:30Z</time>
      </trkpt>
      <trkpt lat="50.141868023201823" lon="8.386527970433235">
        <ele>182.78999999999999</ele>
        <time>2018-07-01T03:39:31Z</time>
      </trkpt>
      <trkpt lat="50.141984028741717" lon="8.386468961834908">
        <ele>183.27000000000001</ele>
        <time>2018-07-01T03:39:32Z</time>
      </trkpt>
      <trkpt lat="50.142208999022841" lon="8.386353040114045">
        <ele>184.22999999999999</ele>
        <time>2018-07-01T03:39:34Z</time>
      </trkpt>
      <trkpt lat="50.142414020374417" lon="8.386189006268978">
        <ele>184.71000000000001</ele>
        <time>2018-07-01T03:39:36Z</time>
      </trkpt>
      <trkpt lat="50.14250798150897" lon="8.386086998507381">
        <ele>185.66999999999999</ele>
        <time>2018-07-01T03:39:37Z</time>
      </trkpt>
      <trkpt lat="50.142577970400453" lon="8.385950960218906">
        <ele>185.66999999999999</ele>
        <time>2018-07-01T03:39:38Z</time>
      </trkpt>
      <trkpt lat="50.142607977613807" lon="8.385789021849632">
        <ele>185.66999999999999</ele>
        <time>2018-07-01T03:39:39Z</time>
      </trkpt>
      <trkpt lat="50.14263303950429" lon="8.385629011318088">
        <ele>186.15000000000001</ele>
        <time>2018-07-01T03:39:40Z</time>
      </trkpt>
      <trkpt lat="50.142658017575741" lon="8.38546103797853">
        <ele>186.15000000000001</ele>
        <time>2018-07-01T03:39:41Z</time>
      </trkpt>
      <trkpt lat="50.142684001475573" lon="8.38529197499156">
        <ele>185.66999999999999</ele>
        <time>2018-07-01T03:39:42Z</time>
      </trkpt>
      <trkpt lat="50.142717026174068" lon="8.38511997833848">
        <ele>185.66999999999999</ele>
        <time>2018-07-01T03:39:43Z</time>
      </trkpt>
      <trkpt lat="50.142831020057201" lon="8.384607005864382">
        <ele>185.66999999999999</ele>
        <time>2018-07-01T03:39:46Z</time>
      </trkpt>
      <trkpt lat="50.142847029492259" lon="8.384442972019315">
        <ele>186.15000000000001</ele>
        <time>2018-07-01T03:39:47Z</time>
      </trkpt>
      <trkpt lat="50.142847029492259" lon="8.38427902199328">
        <ele>186.15000000000001</ele>
        <time>2018-07-01T03:39:48Z</time>
      </trkpt>
      <trkpt lat="50.142837977036834" lon="8.384114988148212">
        <ele>186.15000000000001</ele>
        <time>2018-07-01T03:39:49Z</time>
      </trkpt>
      <trkpt lat="50.14280503615737" lon="8.383953971788287">
        <ele>186.15000000000001</ele>
        <time>2018-07-01T03:39:50Z</time>
      </trkpt>
      <trkpt lat="50.142771005630493" lon="8.38378599844873">
        <ele>186.15000000000001</ele>
        <time>2018-07-01T03:39:51Z</time>
      </trkpt>
      <trkpt lat="50.142734041437507" lon="8.383608972653747">
        <ele>186.15000000000001</ele>
        <time>2018-07-01T03:39:52Z</time>
      </trkpt>
      <trkpt lat="50.142695987597108" lon="8.383423984050751">
        <ele>186.15000000000001</ele>
        <time>2018-07-01T03:39:53Z</time>
      </trkpt>
      <trkpt lat="50.142331039533019" lon="8.382271975278854">
        <ele>187.59</ele>
        <time>2018-07-01T03:39:59Z</time>
      </trkpt>
      <trkpt lat="50.142251998186111" lon="8.382086986675859">
        <ele>187.59</ele>
        <time>2018-07-01T03:40:00Z</time>
      </trkpt>
      <trkpt lat="50.142158959060907" lon="8.381900992244482">
        <ele>188.08000000000001</ele>
        <time>2018-07-01T03:40:01Z</time>
      </trkpt>
      <trkpt lat="50.141869029030204" lon="8.381314007565379">
        <ele>188.08000000000001</ele>
        <time>2018-07-01T03:40:04Z</time>
      </trkpt>
      <trkpt lat="50.141785964369774" lon="8.38110102340579">
        <ele>188.08000000000001</ele>
        <time>2018-07-01T03:40:05Z</time>
      </trkpt>
      <trkpt lat="50.141702983528376" lon="8.380890972912312">
        <ele>188.08000000000001</ele>
        <time>2018-07-01T03:40:06Z</time>
      </trkpt>
      <trkpt lat="50.14164699241519" lon="8.380644964054227">
        <ele>188.08000000000001</ele>
        <time>2018-07-01T03:40:07Z</time>
      </trkpt>
      <trkpt lat="50.141598964110017" lon="8.380409013479948">
        <ele>188.56</ele>
        <time>2018-07-01T03:40:08Z</time>
      </trkpt>
      <trkpt lat="50.141552025452256" lon="8.380171973258257">
        <ele>188.56</ele>
        <time>2018-07-01T03:40:09Z</time>
      </trkpt>
      <trkpt lat="50.141501985490322" lon="8.379951026290655">
        <ele>188.56</ele>
        <time>2018-07-01T03:40:10Z</time>
      </trkpt>
      <trkpt lat="50.141430990770459" lon="8.379737036302686">
        <ele>189.03999999999999</ele>
        <time>2018-07-01T03:40:11Z</time>
      </trkpt>
      <trkpt lat="50.141351027414203" lon="8.379561016336083">
        <ele>189.52000000000001</ele>
        <time>2018-07-01T03:40:12Z</time>
      </trkpt>
      <trkpt lat="50.14123703353107" lon="8.379415003582835">
        <ele>190</ele>
        <time>2018-07-01T03:40:13Z</time>
      </trkpt>
      <trkpt lat="50.141121027991176" lon="8.379266979172826">
        <ele>190</ele>
        <time>2018-07-01T03:40:14Z</time>
      </trkpt>
      <trkpt lat="50.141000999137759" lon="8.379114009439945">
        <ele>190.47999999999999</ele>
        <time>2018-07-01T03:40:15Z</time>
      </trkpt>
      <trkpt lat="50.140882981941104" lon="8.378980988636613">
        <ele>190.96000000000001</ele>
        <time>2018-07-01T03:40:16Z</time>
      </trkpt>
      <trkpt lat="50.140514010563493" lon="8.378570023924112">
        <ele>192.88</ele>
        <time>2018-07-01T03:40:19Z</time>
      </trkpt>
      <trkpt lat="50.14040001668036" lon="8.378401966765523">
        <ele>192.88</ele>
        <time>2018-07-01T03:40:20Z</time>
      </trkpt>
      <trkpt lat="50.140311000868678" lon="8.378217983990908">
        <ele>193.36000000000001</ele>
        <time>2018-07-01T03:40:21Z</time>
      </trkpt>
      <trkpt lat="50.140223996713758" lon="8.378037018701434">
        <ele>193.84</ele>
        <time>2018-07-01T03:40:22Z</time>
      </trkpt>
      <trkpt lat="50.14014202170074" lon="8.377868961542845">
        <ele>194.31999999999999</ele>
        <time>2018-07-01T03:40:23Z</time>
      </trkpt>
      <trkpt lat="50.140087958425283" lon="8.377657989040017">
        <ele>194.80000000000001</ele>
        <time>2018-07-01T03:40:24Z</time>
      </trkpt>
      <trkpt lat="50.140032973140478" lon="8.377241995185614">
        <ele>196.25</ele>
        <time>2018-07-01T03:40:26Z</time>
      </trkpt>
      <trkpt lat="50.140028027817607" lon="8.377032028511167">
        <ele>196.72999999999999</ele>
        <time>2018-07-01T03:40:27Z</time>
      </trkpt>
      <trkpt lat="50.139987962320447" lon="8.37615704163909">
        <ele>198.65000000000001</ele>
        <time>2018-07-01T03:40:31Z</time>
      </trkpt>
      <trkpt lat="50.139743965119123" lon="8.374364990741015">
        <ele>199.61000000000001</ele>
        <time>2018-07-01T03:40:39Z</time>
      </trkpt>
      <trkpt lat="50.139715969562531" lon="8.374156029894948">
        <ele>199.61000000000001</ele>
        <time>2018-07-01T03:40:40Z</time>
      </trkpt>
      <trkpt lat="50.139689985662699" lon="8.373956959694624">
        <ele>199.61000000000001</ele>
        <time>2018-07-01T03:40:41Z</time>
      </trkpt>
      <trkpt lat="50.139624020084739" lon="8.373177023604512">
        <ele>200.56999999999999</ele>
        <time>2018-07-01T03:40:45Z</time>
      </trkpt>
      <trkpt lat="50.139617985114455" lon="8.372982982546091">
        <ele>201.05000000000001</ele>
        <time>2018-07-01T03:40:46Z</time>
      </trkpt>
      <trkpt lat="50.139611028134823" lon="8.372780978679657">
        <ele>201.53</ele>
        <time>2018-07-01T03:40:47Z</time>
      </trkpt>
      <trkpt lat="50.139601975679398" lon="8.370693968608975">
        <ele>204.41999999999999</ele>
        <time>2018-07-01T03:40:57Z</time>
      </trkpt>
      <trkpt lat="50.139564005658031" lon="8.369282959029079">
        <ele>205.86000000000001</ele>
        <time>2018-07-01T03:41:04Z</time>
      </trkpt>
      <trkpt lat="50.139658972620964" lon="8.367918971925974">
        <ele>207.30000000000001</ele>
        <time>2018-07-01T03:41:11Z</time>
      </trkpt>
      <trkpt lat="50.13973600231111" lon="8.367749992758036">
        <ele>207.30000000000001</ele>
        <time>2018-07-01T03:41:12Z</time>
      </trkpt>
      <trkpt lat="50.139818983152509" lon="8.367626024410129">
        <ele>207.78</ele>
        <time>2018-07-01T03:41:13Z</time>
      </trkpt>
      <trkpt lat="50.139886038377881" lon="8.367527034133673">
        <ele>207.78</ele>
        <time>2018-07-01T03:41:14Z</time>
      </trkpt>
      <trkpt lat="50.140019981190562" lon="8.367427960038185">
        <ele>207.78</ele>
        <time>2018-07-01T03:41:15Z</time>
      </trkpt>
      <trkpt lat="50.140131963416934" lon="8.367345985025168">
        <ele>208.25999999999999</ele>
        <time>2018-07-01T03:41:16Z</time>
      </trkpt>
      <trkpt lat="50.140247968956828" lon="8.367271972820163">
        <ele>208.74000000000001</ele>
        <time>2018-07-01T03:41:17Z</time>
      </trkpt>
      <trkpt lat="50.140376966446638" lon="8.367211958393455">
        <ele>208.74000000000001</ele>
        <time>2018-07-01T03:41:18Z</time>
      </trkpt>
      <trkpt lat="50.141341974958777" lon="8.366759000346065">
        <ele>211.63</ele>
        <time>2018-07-01T03:41:25Z</time>
      </trkpt>
      <trkpt lat="50.141728967428207" lon="8.366564037278295">
        <ele>213.06999999999999</ele>
        <time>2018-07-01T03:41:28Z</time>
      </trkpt>
      <trkpt lat="50.141847990453243" lon="8.366579962894321">
        <ele>213.06999999999999</ele>
        <time>2018-07-01T03:41:29Z</time>
      </trkpt>
      <trkpt lat="50.141971036791801" lon="8.366596978157759">
        <ele>213.55000000000001</ele>
        <time>2018-07-01T03:41:30Z</time>
      </trkpt>
      <trkpt lat="50.142104979604483" lon="8.366616005077958">
        <ele>213.55000000000001</ele>
        <time>2018-07-01T03:41:31Z</time>
      </trkpt>
      <trkpt lat="50.142241017892957" lon="8.366634026169777">
        <ele>213.55000000000001</ele>
        <time>2018-07-01T03:41:32Z</time>
      </trkpt>
      <trkpt lat="50.14237898401916" lon="8.366624973714352">
        <ele>214.03</ele>
        <time>2018-07-01T03:41:33Z</time>
      </trkpt>
      <trkpt lat="50.142516028136015" lon="8.366561019793153">
        <ele>214.50999999999999</ele>
        <time>2018-07-01T03:41:34Z</time>
      </trkpt>
      <trkpt lat="50.142651982605457" lon="8.366496982052922">
        <ele>214.99000000000001</ele>
        <time>2018-07-01T03:41:35Z</time>
      </trkpt>
      <trkpt lat="50.142794977873564" lon="8.366431016474962">
        <ele>215.47</ele>
        <time>2018-07-01T03:41:36Z</time>
      </trkpt>
      <trkpt lat="50.142948031425476" lon="8.366359015926719">
        <ele>215.94999999999999</ele>
        <time>2018-07-01T03:41:37Z</time>
      </trkpt>
      <trkpt lat="50.143105024471879" lon="8.36632096208632">
        <ele>216.43000000000001</ele>
        <time>2018-07-01T03:41:38Z</time>
      </trkpt>
      <trkpt lat="50.143252965062857" lon="8.366291038691998">
        <ele>216.43000000000001</ele>
        <time>2018-07-01T03:41:39Z</time>
      </trkpt>
      <trkpt lat="50.143400989472866" lon="8.366261031478643">
        <ele>216.91</ele>
        <time>2018-07-01T03:41:40Z</time>
      </trkpt>
      <trkpt lat="50.143531998619437" lon="8.366150977090001">
        <ele>216.91</ele>
        <time>2018-07-01T03:41:41Z</time>
      </trkpt>
      <trkpt lat="50.143660996109247" lon="8.366041006520391">
        <ele>216.91</ele>
        <time>2018-07-01T03:41:42Z</time>
      </trkpt>
      <trkpt lat="50.143784964457154" lon="8.365917960181832">
        <ele>217.40000000000001</ele>
        <time>2018-07-01T03:41:43Z</time>
      </trkpt>
      <trkpt lat="50.143899964168668" lon="8.365796003490686">
        <ele>217.88</ele>
        <time>2018-07-01T03:41:44Z</time>
      </trkpt>
      <trkpt lat="50.14401001855731" lon="8.365677986294031">
        <ele>217.88</ele>
        <time>2018-07-01T03:41:45Z</time>
      </trkpt>
      <trkpt lat="50.14411898329854" lon="8.365631969645619">
        <ele>218.36000000000001</ele>
        <time>2018-07-01T03:41:46Z</time>
      </trkpt>
      <trkpt lat="50.144242029637098" lon="8.365595005452633">
        <ele>218.84</ele>
        <time>2018-07-01T03:41:47Z</time>
      </trkpt>
      <trkpt lat="50.144388964399695" lon="8.365595005452633">
        <ele>219.31999999999999</ele>
        <time>2018-07-01T03:41:48Z</time>
      </trkpt>
      <trkpt lat="50.144695993512869" lon="8.365595005452633">
        <ele>219.31999999999999</ele>
        <time>2018-07-01T03:41:50Z</time>
      </trkpt>
      <trkpt lat="50.144839994609356" lon="8.365595005452633">
        <ele>219.80000000000001</ele>
        <time>2018-07-01T03:41:51Z</time>
      </trkpt>
      <trkpt lat="50.144971003755927" lon="8.365517975762487">
        <ele>219.80000000000001</ele>
        <time>2018-07-01T03:41:52Z</time>
      </trkpt>
      <trkpt lat="50.145101007074118" lon="8.365424014627934">
        <ele>220.28</ele>
        <time>2018-07-01T03:41:53Z</time>
      </trkpt>
      <trkpt lat="50.145232016220689" lon="8.365328963845968">
        <ele>220.28</ele>
        <time>2018-07-01T03:41:54Z</time>
      </trkpt>
      <trkpt lat="50.145733002573252" lon="8.364897966384888">
        <ele>219.80000000000001</ele>
        <time>2018-07-01T03:41:58Z</time>
      </trkpt>
      <trkpt lat="50.145854037255049" lon="8.364777015522122">
        <ele>220.28</ele>
        <time>2018-07-01T03:41:59Z</time>
      </trkpt>
      <trkpt lat="50.145951015874743" lon="8.364619016647339">
        <ele>220.28</ele>
        <time>2018-07-01T03:42:00Z</time>
      </trkpt>
      <trkpt lat="50.146036008372903" lon="8.364442996680737">
        <ele>221.24000000000001</ele>
        <time>2018-07-01T03:42:01Z</time>
      </trkpt>
      <trkpt lat="50.146123012527823" lon="8.364263037219644">
        <ele>221.72</ele>
        <time>2018-07-01T03:42:02Z</time>
      </trkpt>
      <trkpt lat="50.146201970055699" lon="8.364068996161223">
        <ele>222.68000000000001</ele>
        <time>2018-07-01T03:42:03Z</time>
      </trkpt>
      <trkpt lat="50.146239018067718" lon="8.363857017830014">
        <ele>223.63999999999999</ele>
        <time>2018-07-01T03:42:04Z</time>
      </trkpt>
      <trkpt lat="50.146276988089085" lon="8.363637998700142">
        <ele>224.61000000000001</ele>
        <time>2018-07-01T03:42:05Z</time>
      </trkpt>
      <trkpt lat="50.14639601111412" lon="8.362958980724216">
        <ele>226.53</ele>
        <time>2018-07-01T03:42:08Z</time>
      </trkpt>
      <trkpt lat="50.146436998620629" lon="8.362724035978317">
        <ele>227.49000000000001</ele>
        <time>2018-07-01T03:42:09Z</time>
      </trkpt>
      <trkpt lat="50.146475974470377" lon="8.362500993534923">
        <ele>228.44999999999999</ele>
        <time>2018-07-01T03:42:10Z</time>
      </trkpt>
      <trkpt lat="50.146515034139156" lon="8.36227904073894">
        <ele>229.41</ele>
        <time>2018-07-01T03:42:11Z</time>
      </trkpt>
      <trkpt lat="50.146553004160523" lon="8.362060021609068">
        <ele>230.37</ele>
        <time>2018-07-01T03:42:12Z</time>
      </trkpt>
      <trkpt lat="50.146597009152174" lon="8.361863968893886">
        <ele>231.33000000000001</ele>
        <time>2018-07-01T03:42:13Z</time>
      </trkpt>
      <trkpt lat="50.146771017462015" lon="8.361529028043151">
        <ele>232.30000000000001</ele>
        <time>2018-07-01T03:42:15Z</time>
      </trkpt>
      <trkpt lat="50.146873025223613" lon="8.361371029168367">
        <ele>232.30000000000001</ele>
        <time>2018-07-01T03:42:16Z</time>
      </trkpt>
      <trkpt lat="50.147263035178185" lon="8.360746996477246">
        <ele>232.30000000000001</ele>
        <time>2018-07-01T03:42:20Z</time>
      </trkpt>
      <trkpt lat="50.147331012412906" lon="8.360578017309308">
        <ele>231.81</ele>
        <time>2018-07-01T03:42:21Z</time>
      </trkpt>
      <trkpt lat="50.148059986531734" lon="8.358941031619906">
        <ele>230.37</ele>
        <time>2018-07-01T03:42:30Z</time>
      </trkpt>
      <trkpt lat="50.148959029465914" lon="8.357403036206961">
        <ele>226.53</ele>
        <time>2018-07-01T03:42:39Z</time>
      </trkpt>
      <trkpt lat="50.149035975337029" lon="8.357215030118823">
        <ele>226.53</ele>
        <time>2018-07-01T03:42:40Z</time>
      </trkpt>
      <trkpt lat="50.149186011403799" lon="8.356832982972264">
        <ele>226.53</ele>
        <time>2018-07-01T03:42:42Z</time>
      </trkpt>
      <trkpt lat="50.150011964142323" lon="8.354548998177052">
        <ele>229.88999999999999</ele>
        <time>2018-07-01T03:42:54Z</time>
      </trkpt>
      <trkpt lat="50.1507349871099" lon="8.35336497053504">
        <ele>231.81</ele>
        <time>2018-07-01T03:43:03Z</time>
      </trkpt>
      <trkpt lat="50.151544008404016" lon="8.352388981729746">
        <ele>230.84999999999999</ele>
        <time>2018-07-01T03:43:12Z</time>
      </trkpt>
      <trkpt lat="50.151954973116517" lon="8.351779030635953">
        <ele>229.88999999999999</ele>
        <time>2018-07-01T03:43:18Z</time>
      </trkpt>
      <trkpt lat="50.152022028341889" lon="8.351683979853988">
        <ele>229.88999999999999</ele>
        <time>2018-07-01T03:43:19Z</time>
      </trkpt>
      <trkpt lat="50.152087993919849" lon="8.351589012891054">
        <ele>229.88999999999999</ele>
        <time>2018-07-01T03:43:20Z</time>
      </trkpt>
      <trkpt lat="50.152155971154571" lon="8.351491028442979">
        <ele>230.37</ele>
        <time>2018-07-01T03:43:21Z</time>
      </trkpt>
      <trkpt lat="50.152225960046053" lon="8.351389020681381">
        <ele>230.84999999999999</ele>
        <time>2018-07-01T03:43:22Z</time>
      </trkpt>
      <trkpt lat="50.152296032756567" lon="8.351288018748164">
        <ele>231.33000000000001</ele>
        <time>2018-07-01T03:43:23Z</time>
      </trkpt>
      <trkpt lat="50.152729041874409" lon="8.350662980228663">
        <ele>231.33000000000001</ele>
        <time>2018-07-01T03:43:29Z</time>
      </trkpt>
      <trkpt lat="50.152802970260382" lon="8.350556027144194">
        <ele>231.33000000000001</ele>
        <time>2018-07-01T03:43:30Z</time>
      </trkpt>
      <trkpt lat="50.153692960739136" lon="8.349183993414044">
        <ele>231.81</ele>
        <time>2018-07-01T03:43:42Z</time>
      </trkpt>
      <trkpt lat="50.154149020090699" lon="8.348096022382379">
        <ele>234.22</ele>
        <time>2018-07-01T03:43:49Z</time>
      </trkpt>
      <trkpt lat="50.154183972626925" lon="8.347917990759015">
        <ele>234.22</ele>
        <time>2018-07-01T03:43:50Z</time>
      </trkpt>
      <trkpt lat="50.154222026467323" lon="8.347729984670878">
        <ele>234.69999999999999</ele>
        <time>2018-07-01T03:43:51Z</time>
      </trkpt>
      <trkpt lat="50.154348006471992" lon="8.34595100954175">
        <ele>237.09999999999999</ele>
        <time>2018-07-01T03:44:00Z</time>
      </trkpt>
      <trkpt lat="50.154167041182518" lon="8.344418965280056">
        <ele>237.58000000000001</ele>
        <time>2018-07-01T03:44:07Z</time>
      </trkpt>
      <trkpt lat="50.154068972915411" lon="8.343976987525821">
        <ele>238.06</ele>
        <time>2018-07-01T03:44:09Z</time>
      </trkpt>
      <trkpt lat="50.153350979089737" lon="8.34182501770556">
        <ele>239.99000000000001</ele>
        <time>2018-07-01T03:44:19Z</time>
      </trkpt>
      <trkpt lat="50.152328973636031" lon="8.340045958757401">
        <ele>238.06</ele>
        <time>2018-07-01T03:44:28Z</time>
      </trkpt>
      <trkpt lat="50.151332030072808" lon="8.338176039978862">
        <ele>235.18000000000001</ele>
        <time>2018-07-01T03:44:37Z</time>
      </trkpt>
      <trkpt lat="50.151260029524565" lon="8.337938999757171">
        <ele>235.18000000000001</ele>
        <time>2018-07-01T03:44:38Z</time>
      </trkpt>
      <trkpt lat="50.151123991236091" lon="8.33744497038424">
        <ele>234.22</ele>
        <time>2018-07-01T03:44:40Z</time>
      </trkpt>
      <trkpt lat="50.150915030390024" lon="8.335189986974001">
        <ele>232.78</ele>
        <time>2018-07-01T03:44:49Z</time>
      </trkpt>
      <trkpt lat="50.150872031226754" lon="8.335004998371005">
        <ele>232.78</ele>
        <time>2018-07-01T03:44:50Z</time>
      </trkpt>
      <trkpt lat="50.150790978223085" lon="8.33482202142477">
        <ele>232.78</ele>
        <time>2018-07-01T03:44:51Z</time>
      </trkpt>
      <trkpt lat="50.150678995996714" lon="8.3346529584378">
        <ele>232.78</ele>
        <time>2018-07-01T03:44:52Z</time>
      </trkpt>
      <trkpt lat="50.150580005720258" lon="8.334535025060177">
        <ele>233.25999999999999</ele>
        <time>2018-07-01T03:44:53Z</time>
      </trkpt>
      <trkpt lat="50.150471962988377" lon="8.334385994821787">
        <ele>233.25999999999999</ele>
        <time>2018-07-01T03:44:54Z</time>
      </trkpt>
      <trkpt lat="50.150359980762005" lon="8.334229001775384">
        <ele>233.74000000000001</ele>
        <time>2018-07-01T03:44:55Z</time>
      </trkpt>
      <trkpt lat="50.150286974385381" lon="8.33404703065753">
        <ele>234.22</ele>
        <time>2018-07-01T03:44:56Z</time>
      </trkpt>
      <trkpt lat="50.150212040171027" lon="8.333858018741012">
        <ele>234.69999999999999</ele>
        <time>2018-07-01T03:44:57Z</time>
      </trkpt>
      <trkpt lat="50.150140039622784" lon="8.333676969632506">
        <ele>235.18000000000001</ele>
        <time>2018-07-01T03:44:58Z</time>
      </trkpt>
      <trkpt lat="50.150071978569031" lon="8.333505978807807">
        <ele>236.13999999999999</ele>
        <time>2018-07-01T03:44:59Z</time>
      </trkpt>
      <trkpt lat="50.149948010221124" lon="8.333187969401479">
        <ele>238.06</ele>
        <time>2018-07-01T03:45:01Z</time>
      </trkpt>
      <trkpt lat="50.149927977472544" lon="8.332836013287306">
        <ele>239.50999999999999</ele>
        <time>2018-07-01T03:45:03Z</time>
      </trkpt>
      <trkpt lat="50.149943986907601" lon="8.332665022462606">
        <ele>239.50999999999999</ele>
        <time>2018-07-01T03:45:04Z</time>
      </trkpt>
      <trkpt lat="50.149991009384394" lon="8.332496965304017">
        <ele>239.99000000000001</ele>
        <time>2018-07-01T03:45:05Z</time>
      </trkpt>
      <trkpt lat="50.150039959698915" lon="8.332322034984827">
        <ele>240.47</ele>
        <time>2018-07-01T03:45:06Z</time>
      </trkpt>
      <trkpt lat="50.150088993832469" lon="8.332149032503367">
        <ele>240.94999999999999</ele>
        <time>2018-07-01T03:45:07Z</time>
      </trkpt>
      <trkpt lat="50.150610012933612" lon="8.330257991328836">
        <ele>246.22999999999999</ele>
        <time>2018-07-01T03:45:17Z</time>
      </trkpt>
      <trkpt lat="50.150654017925262" lon="8.330065961927176">
        <ele>246.72</ele>
        <time>2018-07-01T03:45:18Z</time>
      </trkpt>
      <trkpt lat="50.150700034573674" lon="8.329867981374264">
        <ele>247.19999999999999</ele>
        <time>2018-07-01T03:45:19Z</time>
      </trkpt>
      <trkpt lat="50.151009997352958" lon="8.328601978719235">
        <ele>249.59999999999999</ele>
        <time>2018-07-01T03:45:26Z</time>
      </trkpt>
      <trkpt lat="50.151063976809382" lon="8.328427970409393">
        <ele>250.08000000000001</ele>
        <time>2018-07-01T03:45:27Z</time>
      </trkpt>
      <trkpt lat="50.151187023147941" lon="8.328104009851813">
        <ele>251.52000000000001</ele>
        <time>2018-07-01T03:45:29Z</time>
      </trkpt>
      <trkpt lat="50.152079025283456" lon="8.326645977795124">
        <ele>253.44</ele>
        <time>2018-07-01T03:45:39Z</time>
      </trkpt>
      <trkpt lat="50.153151992708445" lon="8.324815034866333">
        <ele>252.96000000000001</ele>
        <time>2018-07-01T03:45:51Z</time>
      </trkpt>
      <trkpt lat="50.153587013483047" lon="8.323910962790251">
        <ele>254.41</ele>
        <time>2018-07-01T03:45:57Z</time>
      </trkpt>
      <trkpt lat="50.153618026524782" lon="8.323766039684415">
        <ele>254.88999999999999</ele>
        <time>2018-07-01T03:45:58Z</time>
      </trkpt>
      <trkpt lat="50.153649039566517" lon="8.323617009446025">
        <ele>254.88999999999999</ele>
        <time>2018-07-01T03:45:59Z</time>
      </trkpt>
      <trkpt lat="50.153768984600902" lon="8.323452975600958">
        <ele>255.37</ele>
        <time>2018-07-01T03:46:01Z</time>
      </trkpt>
      <trkpt lat="50.153841990977526" lon="8.323201015591621">
        <ele>255.37</ele>
        <time>2018-07-01T03:46:02Z</time>
      </trkpt>
      <trkpt lat="50.15393796376884" lon="8.323123985901475">
        <ele>254.88999999999999</ele>
        <time>2018-07-01T03:46:03Z</time>
      </trkpt>
      <trkpt lat="50.154049023985863" lon="8.323055002838373">
        <ele>254.41</ele>
        <time>2018-07-01T03:46:04Z</time>
      </trkpt>
      <trkpt lat="50.154162012040615" lon="8.322998005896807">
        <ele>254.41</ele>
        <time>2018-07-01T03:46:05Z</time>
      </trkpt>
      <trkpt lat="50.15428296290338" lon="8.322937991470099">
        <ele>253.93000000000001</ele>
        <time>2018-07-01T03:46:06Z</time>
      </trkpt>
      <trkpt lat="50.155835039913654" lon="8.322171969339252">
        <ele>252.96000000000001</ele>
        <time>2018-07-01T03:46:17Z</time>
      </trkpt>
      <trkpt lat="50.156322028487921" lon="8.32195102237165">
        <ele>253.93000000000001</ele>
        <time>2018-07-01T03:46:20Z</time>
      </trkpt>
      <trkpt lat="50.15758803114295" lon="8.321791011840105">
        <ele>254.88999999999999</ele>
        <time>2018-07-01T03:46:28Z</time>
      </trkpt>
      <trkpt lat="50.157858012244105" lon="8.32167299464345">
        <ele>254.88999999999999</ele>
        <time>2018-07-01T03:46:30Z</time>
      </trkpt>
      <trkpt lat="50.158107038587332" lon="8.321525976061821">
        <ele>254.88999999999999</ele>
        <time>2018-07-01T03:46:32Z</time>
      </trkpt>
      <trkpt lat="50.158234024420381" lon="8.32143603824079">
        <ele>254.41</ele>
        <time>2018-07-01T03:46:33Z</time>
      </trkpt>
      <trkpt lat="50.158476009964943" lon="8.321209978312254">
        <ele>253.93000000000001</ele>
        <time>2018-07-01T03:46:35Z</time>
      </trkpt>
      <trkpt lat="50.158595032989979" lon="8.321097996085882">
        <ele>253.93000000000001</ele>
        <time>2018-07-01T03:46:36Z</time>
      </trkpt>
      <trkpt lat="50.159892970696092" lon="8.319926038384438">
        <ele>257.29000000000002</ele>
        <time>2018-07-01T03:46:46Z</time>
      </trkpt>
      <trkpt lat="50.160822020843625" lon="8.318799007683992">
        <ele>257.29000000000002</ele>
        <time>2018-07-01T03:46:54Z</time>
      </trkpt>
      <trkpt lat="50.16107096336782" lon="8.318331968039274">
        <ele>257.76999999999998</ele>
        <time>2018-07-01T03:46:57Z</time>
      </trkpt>
      <trkpt lat="50.161144975572824" lon="8.318162988871336">
        <ele>257.29000000000002</ele>
        <time>2018-07-01T03:46:58Z</time>
      </trkpt>
      <trkpt lat="50.161214964464307" lon="8.318001972511411">
        <ele>257.29000000000002</ele>
        <time>2018-07-01T03:46:59Z</time>
      </trkpt>
      <trkpt lat="50.16128302551806" lon="8.317844979465008">
        <ele>256.81</ele>
        <time>2018-07-01T03:47:00Z</time>
      </trkpt>
      <trkpt lat="50.161354020237923" lon="8.317683963105083">
        <ele>256.81</ele>
        <time>2018-07-01T03:47:01Z</time>
      </trkpt>
      <trkpt lat="50.161629030480981" lon="8.316763965412974">
        <ele>255.84999999999999</ele>
        <time>2018-07-01T03:47:06Z</time>
      </trkpt>
      <trkpt lat="50.1622099801898" lon="8.315551020205021">
        <ele>252.47999999999999</ele>
        <time>2018-07-01T03:47:15Z</time>
      </trkpt>
      <trkpt lat="50.163092007860541" lon="8.314183009788394">
        <ele>258.25</ele>
        <time>2018-07-01T03:47:26Z</time>
      </trkpt>
      <trkpt lat="50.163415968418121" lon="8.31365997903049">
        <ele>261.62</ele>
        <time>2018-07-01T03:47:30Z</time>
      </trkpt>
      <trkpt lat="50.16358201391995" lon="8.313409024849534">
        <ele>262.57999999999998</ele>
        <time>2018-07-01T03:47:32Z</time>
      </trkpt>
      <trkpt lat="50.163662983104587" lon="8.313284972682595">
        <ele>262.57999999999998</ele>
        <time>2018-07-01T03:47:33Z</time>
      </trkpt>
      <trkpt lat="50.163912009447813" lon="8.312909966334701">
        <ele>263.54000000000002</ele>
        <time>2018-07-01T03:47:36Z</time>
      </trkpt>
      <trkpt lat="50.163986021652818" lon="8.312796978279948">
        <ele>264.5</ele>
        <time>2018-07-01T03:47:37Z</time>
      </trkpt>
      <trkpt lat="50.164411989971995" lon="8.312101028859615">
        <ele>267.86000000000001</ele>
        <time>2018-07-01T03:47:44Z</time>
      </trkpt>
      <trkpt lat="50.165167031809688" lon="8.310356000438333">
        <ele>271.70999999999998</ele>
        <time>2018-07-01T03:47:56Z</time>
      </trkpt>
      <trkpt lat="50.165841020643711" lon="8.308927975594997">
        <ele>277</ele>
        <time>2018-07-01T03:48:06Z</time>
      </trkpt>
      <trkpt lat="50.166791025549173" lon="8.30777102150023">
        <ele>278.92000000000002</ele>
        <time>2018-07-01T03:48:15Z</time>
      </trkpt>
      <trkpt lat="50.166950030252337" lon="8.30762199126184">
        <ele>279.39999999999998</ele>
        <time>2018-07-01T03:48:16Z</time>
      </trkpt>
      <trkpt lat="50.168283004313707" lon="8.306347019970417">
        <ele>281.80000000000001</ele>
        <time>2018-07-01T03:48:23Z</time>
      </trkpt>
      <trkpt lat="50.16972603276372" lon="8.304920000955463">
        <ele>284.20999999999998</ele>
        <time>2018-07-01T03:48:30Z</time>
      </trkpt>
      <trkpt lat="50.171481035649776" lon="8.303047986701131">
        <ele>290.45999999999998</ele>
        <time>2018-07-01T03:48:39Z</time>
      </trkpt>
      <trkpt lat="50.173057001084089" lon="8.301296001300216">
        <ele>298.14999999999998</ele>
        <time>2018-07-01T03:48:48Z</time>
      </trkpt>
      <trkpt lat="50.173625964671373" lon="8.300830973312259">
        <ele>301.99000000000001</ele>
        <time>2018-07-01T03:48:51Z</time>
      </trkpt>
      <trkpt lat="50.173807013779879" lon="8.300684960559011">
        <ele>302.94999999999999</ele>
        <time>2018-07-01T03:48:52Z</time>
      </trkpt>
      <trkpt lat="50.173996025696397" lon="8.300529979169369">
        <ele>303.91000000000003</ele>
        <time>2018-07-01T03:48:53Z</time>
      </trkpt>
      <trkpt lat="50.174190988764167" lon="8.300406010821462">
        <ele>304.88</ele>
        <time>2018-07-01T03:48:54Z</time>
      </trkpt>
      <trkpt lat="50.174393998458982" lon="8.300297968089581">
        <ele>306.31999999999999</ele>
        <time>2018-07-01T03:48:55Z</time>
      </trkpt>
      <trkpt lat="50.175992008298635" lon="8.299388028681278">
        <ele>312.08999999999997</ele>
        <time>2018-07-01T03:49:03Z</time>
      </trkpt>
      <trkpt lat="50.176185965538025" lon="8.299233969300985">
        <ele>312.56999999999999</ele>
        <time>2018-07-01T03:49:04Z</time>
      </trkpt>
      <trkpt lat="50.177906015887856" lon="8.297491036355496">
        <ele>314.00999999999999</ele>
        <time>2018-07-01T03:49:13Z</time>
      </trkpt>
      <trkpt lat="50.179502014070749" lon="8.295886991545558">
        <ele>317.85000000000002</ele>
        <time>2018-07-01T03:49:22Z</time>
      </trkpt>
      <trkpt lat="50.179989002645016" lon="8.295430010184646">
        <ele>321.22000000000003</ele>
        <time>2018-07-01T03:49:25Z</time>
      </trkpt>
      <trkpt lat="50.180143984034657" lon="8.295306041836739">
        <ele>322.18000000000001</ele>
        <time>2018-07-01T03:49:26Z</time>
      </trkpt>
      <trkpt lat="50.180336013436317" lon="8.295233035460115">
        <ele>322.66000000000003</ele>
        <time>2018-07-01T03:49:27Z</time>
      </trkpt>
      <trkpt lat="50.180550003424287" lon="8.295192969962955">
        <ele>323.62</ele>
        <time>2018-07-01T03:49:28Z</time>
      </trkpt>
      <trkpt lat="50.180760975927114" lon="8.295251978561282">
        <ele>324.57999999999998</ele>
        <time>2018-07-01T03:49:29Z</time>
      </trkpt>
      <trkpt lat="50.180989969521761" lon="8.295316016301513">
        <ele>325.06</ele>
        <time>2018-07-01T03:49:30Z</time>
      </trkpt>
      <trkpt lat="50.182525031268597" lon="8.295794958248735">
        <ele>329.87</ele>
        <time>2018-07-01T03:49:37Z</time>
      </trkpt>
      <trkpt lat="50.183851970359683" lon="8.295922027900815">
        <ele>333.70999999999998</ele>
        <time>2018-07-01T03:49:45Z</time>
      </trkpt>
      <trkpt lat="50.184688987210393" lon="8.295665038749576">
        <ele>334.68000000000001</ele>
        <time>2018-07-01T03:49:52Z</time>
      </trkpt>
      <trkpt lat="50.184701979160309" lon="8.295659003779292">
        <ele>334.68000000000001</ele>
        <time>2018-07-01T03:49:53Z</time>
      </trkpt>
      <trkpt lat="50.184761993587017" lon="8.295628996565938">
        <ele>334.19999999999999</ele>
        <time>2018-07-01T03:49:54Z</time>
      </trkpt>
      <trkpt lat="50.184784037992358" lon="8.295522965490818">
        <ele>334.19999999999999</ele>
        <time>2018-07-01T03:49:55Z</time>
      </trkpt>
      <trkpt lat="50.184793006628752" lon="8.295421041548252">
        <ele>334.19999999999999</ele>
        <time>2018-07-01T03:49:56Z</time>
      </trkpt>
      <trkpt lat="50.184764005243778" lon="8.295343006029725">
        <ele>334.19999999999999</ele>
        <time>2018-07-01T03:49:57Z</time>
      </trkpt>
      <trkpt lat="50.184731986373663" lon="8.295300006866455">
        <ele>334.19999999999999</ele>
        <time>2018-07-01T03:49:58Z</time>
      </trkpt>
      <trkpt lat="50.184600977227092" lon="8.295264970511198">
        <ele>333.70999999999998</ele>
        <time>2018-07-01T03:49:59Z</time>
      </trkpt>
      <trkpt lat="50.184534005820751" lon="8.295167991891503">
        <ele>333.70999999999998</ele>
        <time>2018-07-01T03:50:00Z</time>
      </trkpt>
      <trkpt lat="50.184456976130605" lon="8.295057015493512">
        <ele>333.23000000000002</ele>
        <time>2018-07-01T03:50:01Z</time>
      </trkpt>
      <trkpt lat="50.183815006166697" lon="8.294282024726272">
        <ele>330.35000000000002</ele>
        <time>2018-07-01T03:50:07Z</time>
      </trkpt>
      <trkpt lat="50.182488989084959" lon="8.292665993794799">
        <ele>318.81</ele>
        <time>2018-07-01T03:50:16Z</time>
      </trkpt>
      <trkpt lat="50.180373983457685" lon="8.290102975443006">
        <ele>305.36000000000001</ele>
        <time>2018-07-01T03:50:29Z</time>
      </trkpt>
      <trkpt lat="50.180242974311113" lon="8.289901977404952">
        <ele>304.88</ele>
        <time>2018-07-01T03:50:30Z</time>
      </trkpt>
      <trkpt lat="50.180156975984573" lon="8.289663009345532">
        <ele>304.38999999999999</ele>
        <time>2018-07-01T03:50:31Z</time>
      </trkpt>
      <trkpt lat="50.179763026535511" lon="8.288468001410365">
        <ele>304.38999999999999</ele>
        <time>2018-07-01T03:50:37Z</time>
      </trkpt>
      <trkpt lat="50.179702006280422" lon="8.288303967565298">
        <ele>304.38999999999999</ele>
        <time>2018-07-01T03:50:38Z</time>
      </trkpt>
      <trkpt lat="50.179372010752559" lon="8.287062020972371">
        <ele>306.31999999999999</ele>
        <time>2018-07-01T03:50:46Z</time>
      </trkpt>
      <trkpt lat="50.179348960518837" lon="8.286925982683897">
        <ele>306.80000000000001</ele>
        <time>2018-07-01T03:50:47Z</time>
      </trkpt>
      <trkpt lat="50.179281989112496" lon="8.28639498911798">
        <ele>309.19999999999999</ele>
        <time>2018-07-01T03:50:52Z</time>
      </trkpt>
      <trkpt lat="50.179231027141213" lon="8.286271020770073">
        <ele>309.68000000000001</ele>
        <time>2018-07-01T03:50:53Z</time>
      </trkpt>
      <trkpt lat="50.17907302826643" lon="8.285888973623514">
        <ele>311.60000000000002</ele>
        <time>2018-07-01T03:50:57Z</time>
      </trkpt>
      <trkpt lat="50.179034974426031" lon="8.285795012488961">
        <ele>312.56999999999999</ele>
        <time>2018-07-01T03:50:58Z</time>
      </trkpt>
      <trkpt lat="50.178995998576283" lon="8.285700967535377">
        <ele>313.52999999999997</ele>
        <time>2018-07-01T03:50:59Z</time>
      </trkpt>
      <trkpt lat="50.178950987756252" lon="8.285613963380456">
        <ele>314.49000000000001</ele>
        <time>2018-07-01T03:51:00Z</time>
      </trkpt>
      <trkpt lat="50.178904971107841" lon="8.2855340000242">
        <ele>315.44999999999999</ele>
        <time>2018-07-01T03:51:01Z</time>
      </trkpt>
      <trkpt lat="50.178812015801668" lon="8.285372983664274">
        <ele>317.37</ele>
        <time>2018-07-01T03:51:03Z</time>
      </trkpt>
      <trkpt lat="50.178719982504845" lon="8.28521397896111">
        <ele>319.30000000000001</ele>
        <time>2018-07-01T03:51:05Z</time>
      </trkpt>
      <trkpt lat="50.178676983341575" lon="8.285140972584486">
        <ele>320.25999999999999</ele>
        <time>2018-07-01T03:51:06Z</time>
      </trkpt>
      <trkpt lat="50.178553014993668" lon="8.284924970939755">
        <ele>322.66000000000003</ele>
        <time>2018-07-01T03:51:09Z</time>
      </trkpt>
      <trkpt lat="50.178509010002017" lon="8.284850036725402">
        <ele>323.13999999999999</ele>
        <time>2018-07-01T03:51:10Z</time>
      </trkpt>
      <trkpt lat="50.178459975868464" lon="8.284850036725402">
        <ele>324.10000000000002</ele>
        <time>2018-07-01T03:51:11Z</time>
      </trkpt>
      <trkpt lat="50.178327038884163" lon="8.284850036725402">
        <ele>325.06</ele>
        <time>2018-07-01T03:51:13Z</time>
      </trkpt>
      <trkpt lat="50.178261995315552" lon="8.284808965399861">
        <ele>325.54000000000002</ele>
        <time>2018-07-01T03:51:14Z</time>
      </trkpt>
      <trkpt lat="50.178210027515888" lon="8.284742999821901">
        <ele>326.01999999999998</ele>
        <time>2018-07-01T03:51:15Z</time>
      </trkpt>
      <trkpt lat="50.178158981725574" lon="8.284678040072322">
        <ele>326.99000000000001</ele>
        <time>2018-07-01T03:51:16Z</time>
      </trkpt>
      <trkpt lat="50.178121011704206" lon="8.284629005938768">
        <ele>327.47000000000003</ele>
        <time>2018-07-01T03:51:17Z</time>
      </trkpt>
      <trkpt lat="50.178096033632755" lon="8.284490033984184">
        <ele>327.94999999999999</ele>
        <time>2018-07-01T03:51:18Z</time>
      </trkpt>
      <trkpt lat="50.178124029189348" lon="8.284446028992534">
        <ele>327.94999999999999</ele>
        <time>2018-07-01T03:51:19Z</time>
      </trkpt>
      <trkpt lat="50.178159987553954" lon="8.284388026222587">
        <ele>328.43000000000001</ele>
        <time>2018-07-01T03:51:20Z</time>
      </trkpt>
      <trkpt lat="50.178201980888844" lon="8.284319965168834">
        <ele>328.43000000000001</ele>
        <time>2018-07-01T03:51:21Z</time>
      </trkpt>
      <trkpt lat="50.178246991708875" lon="8.284248970448971">
        <ele>328.91000000000003</ele>
        <time>2018-07-01T03:51:22Z</time>
      </trkpt>
      <trkpt lat="50.178276998922229" lon="8.284166995435953">
        <ele>328.91000000000003</ele>
        <time>2018-07-01T03:51:23Z</time>
      </trkpt>
      <trkpt lat="50.178286973387003" lon="8.284058030694723">
        <ele>328.91000000000003</ele>
        <time>2018-07-01T03:51:24Z</time>
      </trkpt>
      <trkpt lat="50.178292002528906" lon="8.283954011276364">
        <ele>329.38999999999999</ele>
        <time>2018-07-01T03:51:25Z</time>
      </trkpt>
      <trkpt lat="50.178273981437087" lon="8.283846974372864">
        <ele>329.87</ele>
        <time>2018-07-01T03:51:26Z</time>
      </trkpt>
      <trkpt lat="50.178256966173649" lon="8.283746978268027">
        <ele>330.35000000000002</ele>
        <time>2018-07-01T03:51:27Z</time>
      </trkpt>
      <trkpt lat="50.17823601141572" lon="8.283647987991571">
        <ele>330.82999999999998</ele>
        <time>2018-07-01T03:51:28Z</time>
      </trkpt>
      <trkpt lat="50.178212961181998" lon="8.283553021028638">
        <ele>331.31</ele>
        <time>2018-07-01T03:51:29Z</time>
      </trkpt>
      <trkpt lat="50.178189994767308" lon="8.283457970246673">
        <ele>332.26999999999998</ele>
        <time>2018-07-01T03:51:31Z</time>
      </trkpt>
      <trkpt lat="50.178143978118896" lon="8.283272981643677">
        <ele>333.23000000000002</ele>
        <time>2018-07-01T03:51:32Z</time>
      </trkpt>
      <trkpt lat="50.178122017532587" lon="8.283180026337504">
        <ele>333.70999999999998</ele>
        <time>2018-07-01T03:51:33Z</time>
      </trkpt>
      <trkpt lat="50.178026966750622" lon="8.282793033868074">
        <ele>337.07999999999998</ele>
        <time>2018-07-01T03:51:37Z</time>
      </trkpt>
      <trkpt lat="50.178004000335932" lon="8.282695971429348">
        <ele>337.56</ele>
        <time>2018-07-01T03:51:38Z</time>
      </trkpt>
      <trkpt lat="50.177982039749622" lon="8.282593041658402">
        <ele>338.04000000000002</ele>
        <time>2018-07-01T03:51:39Z</time>
      </trkpt>
      <trkpt lat="50.177934011444449" lon="8.282385002821684">
        <ele>339.48000000000002</ele>
        <time>2018-07-01T03:51:41Z</time>
      </trkpt>
      <trkpt lat="50.177907021716237" lon="8.28226899728179">
        <ele>340.44</ele>
        <time>2018-07-01T03:51:42Z</time>
      </trkpt>
      <trkpt lat="50.177596975117922" lon="8.280787998810411">
        <ele>344.76999999999998</ele>
        <time>2018-07-01T03:51:52Z</time>
      </trkpt>
      <trkpt lat="50.177422966808081" lon="8.280053995549679">
        <ele>347.17000000000002</ele>
        <time>2018-07-01T03:51:57Z</time>
      </trkpt>
      <trkpt lat="50.177387008443475" lon="8.279893985018134">
        <ele>347.64999999999998</ele>
        <time>2018-07-01T03:51:58Z</time>
      </trkpt>
      <trkpt lat="50.177350966259837" lon="8.279725005850196">
        <ele>348.13</ele>
        <time>2018-07-01T03:51:59Z</time>
      </trkpt>
      <trkpt lat="50.177280977368355" lon="8.279342036694288">
        <ele>349.57999999999998</ele>
        <time>2018-07-01T03:52:01Z</time>
      </trkpt>
      <trkpt lat="50.177264967933297" lon="8.279122011736035">
        <ele>350.06</ele>
        <time>2018-07-01T03:52:02Z</time>
      </trkpt>
      <trkpt lat="50.177248036488891" lon="8.278890000656247">
        <ele>350.06</ele>
        <time>2018-07-01T03:52:03Z</time>
      </trkpt>
      <trkpt lat="50.177259016782045" lon="8.278650026768446">
        <ele>350.06</ele>
        <time>2018-07-01T03:52:04Z</time>
      </trkpt>
      <trkpt lat="50.177291035652161" lon="8.278404017910361">
        <ele>350.06</ele>
        <time>2018-07-01T03:52:05Z</time>
      </trkpt>
      <trkpt lat="50.177327999845147" lon="8.278139987960458">
        <ele>350.06</ele>
        <time>2018-07-01T03:52:06Z</time>
      </trkpt>
      <trkpt lat="50.177367981523275" lon="8.277861960232258">
        <ele>350.06</ele>
        <time>2018-07-01T03:52:07Z</time>
      </trkpt>
      <trkpt lat="50.177671993151307" lon="8.275708984583616">
        <ele>344.76999999999998</ele>
        <time>2018-07-01T03:52:15Z</time>
      </trkpt>
      <trkpt lat="50.177683979272842" lon="8.275487031787634">
        <ele>344.29000000000002</ele>
        <time>2018-07-01T03:52:16Z</time>
      </trkpt>
      <trkpt lat="50.177674004808068" lon="8.274976992979646">
        <ele>343.32999999999998</ele>
        <time>2018-07-01T03:52:18Z</time>
      </trkpt>
      <trkpt lat="50.177626982331276" lon="8.274725032970309">
        <ele>343.32999999999998</ele>
        <time>2018-07-01T03:52:19Z</time>
      </trkpt>
      <trkpt lat="50.177577026188374" lon="8.274467037990689">
        <ele>342.85000000000002</ele>
        <time>2018-07-01T03:52:20Z</time>
      </trkpt>
      <trkpt lat="50.177165977656841" lon="8.272638022899628">
        <ele>344.29000000000002</ele>
        <time>2018-07-01T03:52:27Z</time>
      </trkpt>
      <trkpt lat="50.176766999065876" lon="8.271015034988523">
        <ele>346.69</ele>
        <time>2018-07-01T03:52:33Z</time>
      </trkpt>
      <trkpt lat="50.17666800878942" lon="8.270742036402226">
        <ele>347.17000000000002</ele>
        <time>2018-07-01T03:52:34Z</time>
      </trkpt>
      <trkpt lat="50.1765619777143" lon="8.270477000623941">
        <ele>347.64999999999998</ele>
        <time>2018-07-01T03:52:35Z</time>
      </trkpt>
      <trkpt lat="50.17645301297307" lon="8.270206013694406">
        <ele>348.13</ele>
        <time>2018-07-01T03:52:36Z</time>
      </trkpt>
      <trkpt lat="50.176338013261557" lon="8.269923962652683">
        <ele>348.62</ele>
        <time>2018-07-01T03:52:37Z</time>
      </trkpt>
      <trkpt lat="50.175384990870953" lon="8.267576023936272">
        <ele>352.45999999999998</ele>
        <time>2018-07-01T03:52:45Z</time>
      </trkpt>
      <trkpt lat="50.174988023936749" lon="8.266426026821137">
        <ele>356.31</ele>
        <time>2018-07-01T03:52:49Z</time>
      </trkpt>
      <trkpt lat="50.174931026995182" lon="8.266142969951034">
        <ele>358.23000000000002</ele>
        <time>2018-07-01T03:52:50Z</time>
      </trkpt>
      <trkpt lat="50.174900013953447" lon="8.265868965536356">
        <ele>359.67000000000002</ele>
        <time>2018-07-01T03:52:51Z</time>
      </trkpt>
      <trkpt lat="50.174891967326403" lon="8.265565959736705">
        <ele>361.58999999999997</ele>
        <time>2018-07-01T03:52:52Z</time>
      </trkpt>
      <trkpt lat="50.174882998690009" lon="8.265259014442563">
        <ele>363.04000000000002</ele>
        <time>2018-07-01T03:52:53Z</time>
      </trkpt>
      <trkpt lat="50.174921974539757" lon="8.264963971450925">
        <ele>364.48000000000002</ele>
        <time>2018-07-01T03:52:54Z</time>
      </trkpt>
      <trkpt lat="50.175416003912687" lon="8.262722985818982">
        <ele>373.61000000000001</ele>
        <time>2018-07-01T03:53:01Z</time>
      </trkpt>
      <trkpt lat="50.175740970298648" lon="8.260388039052486">
        <ele>383.22000000000003</ele>
        <time>2018-07-01T03:53:08Z</time>
      </trkpt>
      <trkpt lat="50.175740970298648" lon="8.260048991069198">
        <ele>384.18000000000001</ele>
        <time>2018-07-01T03:53:09Z</time>
      </trkpt>
      <trkpt lat="50.175695959478617" lon="8.259716983884573">
        <ele>385.63</ele>
        <time>2018-07-01T03:53:10Z</time>
      </trkpt>
      <trkpt lat="50.175647009164095" lon="8.259389000013471">
        <ele>386.58999999999997</ele>
        <time>2018-07-01T03:53:11Z</time>
      </trkpt>
      <trkpt lat="50.175566039979458" lon="8.259076019749045">
        <ele>387.55000000000001</ele>
        <time>2018-07-01T03:53:12Z</time>
      </trkpt>
      <trkpt lat="50.17548599280417" lon="8.25876597315073">
        <ele>388.50999999999999</ele>
        <time>2018-07-01T03:53:13Z</time>
      </trkpt>
      <trkpt lat="50.174905965104699" lon="8.25642297975719">
        <ele>396.19999999999999</ele>
        <time>2018-07-01T03:53:21Z</time>
      </trkpt>
      <trkpt lat="50.174818960949779" lon="8.256006985902786">
        <ele>398.60000000000002</ele>
        <time>2018-07-01T03:53:23Z</time>
      </trkpt>
      <trkpt lat="50.174776967614889" lon="8.254805020987988">
        <ele>403.88999999999999</ele>
        <time>2018-07-01T03:53:31Z</time>
      </trkpt>
      <trkpt lat="50.174760958179832" lon="8.254540991038084">
        <ele>404.37</ele>
        <time>2018-07-01T03:53:33Z</time>
      </trkpt>
      <trkpt lat="50.174705972895026" lon="8.254149975255132">
        <ele>406.29000000000002</ele>
        <time>2018-07-01T03:53:36Z</time>
      </trkpt>
      <trkpt lat="50.174637995660305" lon="8.253726018592715">
        <ele>407.74000000000001</ele>
        <time>2018-07-01T03:53:39Z</time>
      </trkpt>
      <trkpt lat="50.174599019810557" lon="8.25358503498137">
        <ele>408.22000000000003</ele>
        <time>2018-07-01T03:53:40Z</time>
      </trkpt>
      <trkpt lat="50.174088981002569" lon="8.252256000414491">
        <ele>410.62</ele>
        <time>2018-07-01T03:53:50Z</time>
      </trkpt>
      <trkpt lat="50.174039024859667" lon="8.252132032066584">
        <ele>411.10000000000002</ele>
        <time>2018-07-01T03:53:51Z</time>
      </trkpt>
      <trkpt lat="50.173990996554494" lon="8.252010997384787">
        <ele>411.57999999999998</ele>
        <time>2018-07-01T03:53:52Z</time>
      </trkpt>
      <trkpt lat="50.173942968249321" lon="8.25189096853137">
        <ele>411.57999999999998</ele>
        <time>2018-07-01T03:53:53Z</time>
      </trkpt>
      <trkpt lat="50.173897035419941" lon="8.251770017668605">
        <ele>411.57999999999998</ele>
        <time>2018-07-01T03:53:54Z</time>
      </trkpt>
      <trkpt lat="50.17385202459991" lon="8.251646971330047">
        <ele>411.57999999999998</ele>
        <time>2018-07-01T03:53:55Z</time>
      </trkpt>
      <trkpt lat="50.173497973009944" lon="8.250638041645289">
        <ele>408.69999999999999</ele>
        <time>2018-07-01T03:54:03Z</time>
      </trkpt>
      <trkpt lat="50.173456985503435" lon="8.250519018620253">
        <ele>408.22000000000003</ele>
        <time>2018-07-01T03:54:04Z</time>
      </trkpt>
      <trkpt lat="50.173298986628652" lon="8.250071005895734">
        <ele>406.29000000000002</ele>
        <time>2018-07-01T03:54:08Z</time>
      </trkpt>
      <trkpt lat="50.17325397580862" lon="8.249968998134136">
        <ele>406.29000000000002</ele>
        <time>2018-07-01T03:54:09Z</time>
      </trkpt>
      <trkpt lat="50.173050966113806" lon="8.24946197681129">
        <ele>408.69999999999999</ele>
        <time>2018-07-01T03:54:14Z</time>
      </trkpt>
      <trkpt lat="50.173039985820651" lon="8.249378995969892">
        <ele>409.18000000000001</ele>
        <time>2018-07-01T03:54:15Z</time>
      </trkpt>
      <trkpt lat="50.173066975548863" lon="8.249271037057042">
        <ele>409.66000000000003</ele>
        <time>2018-07-01T03:54:16Z</time>
      </trkpt>
      <trkpt lat="50.173110980540514" lon="8.249196019023657">
        <ele>409.66000000000003</ele>
        <time>2018-07-01T03:54:17Z</time>
      </trkpt>
      <trkpt lat="50.173156997188926" lon="8.249142961576581">
        <ele>410.13999999999999</ele>
        <time>2018-07-01T03:54:18Z</time>
      </trkpt>
      <trkpt lat="50.17320703715086" lon="8.249085964635015">
        <ele>410.62</ele>
        <time>2018-07-01T03:54:19Z</time>
      </trkpt>
      <trkpt lat="50.173260010778904" lon="8.249025028198957">
        <ele>410.62</ele>
        <time>2018-07-01T03:54:20Z</time>
      </trkpt>
      <trkpt lat="50.173477018252015" lon="8.248753035441041">
        <ele>412.06</ele>
        <time>2018-07-01T03:54:24Z</time>
      </trkpt>
      <trkpt lat="50.173528986051679" lon="8.248681034892798">
        <ele>413.01999999999998</ele>
        <time>2018-07-01T03:54:25Z</time>
      </trkpt>
      <trkpt lat="50.173727972432971" lon="8.248406024649739">
        <ele>415.91000000000003</ele>
        <time>2018-07-01T03:54:29Z</time>
      </trkpt>
      <trkpt lat="50.173781029880047" lon="8.248331006616354">
        <ele>416.87</ele>
        <time>2018-07-01T03:54:30Z</time>
      </trkpt>
      <trkpt lat="50.173932993784547" lon="8.248119028285146">
        <ele>419.75</ele>
        <time>2018-07-01T03:54:33Z</time>
      </trkpt>
      <trkpt lat="50.1739820279181" lon="8.248049961403012">
        <ele>420.70999999999998</ele>
        <time>2018-07-01T03:54:34Z</time>
      </trkpt>
      <trkpt lat="50.173998037353158" lon="8.247973015531898">
        <ele>421.19</ele>
        <time>2018-07-01T03:54:35Z</time>
      </trkpt>
      <trkpt lat="50.174019997939467" lon="8.247873019427061">
        <ele>422.16000000000003</ele>
        <time>2018-07-01T03:54:36Z</time>
      </trkpt>
      <trkpt lat="50.174045981839299" lon="8.247749973088503">
        <ele>422.63999999999999</ele>
        <time>2018-07-01T03:54:37Z</time>
      </trkpt>
      <trkpt lat="50.174031984061003" lon="8.247664980590344">
        <ele>423.12</ele>
        <time>2018-07-01T03:54:38Z</time>
      </trkpt>
      <trkpt lat="50.174013040959835" lon="8.247551992535591">
        <ele>423.60000000000002</ele>
        <time>2018-07-01T03:54:39Z</time>
      </trkpt>
      <trkpt lat="50.1739820279181" lon="8.247454008087516">
        <ele>424.07999999999998</ele>
        <time>2018-07-01T03:54:40Z</time>
      </trkpt>
      <trkpt lat="50.173933999612927" lon="8.247369015589356">
        <ele>424.56</ele>
        <time>2018-07-01T03:54:41Z</time>
      </trkpt>
      <trkpt lat="50.173883037641644" lon="8.247289974242449">
        <ele>425.04000000000002</ele>
        <time>2018-07-01T03:54:42Z</time>
      </trkpt>
      <trkpt lat="50.173814976587892" lon="8.247241023927927">
        <ele>426</ele>
        <time>2018-07-01T03:54:43Z</time>
      </trkpt>
      <trkpt lat="50.173741970211267" lon="8.247192995622754">
        <ele>426.48000000000002</ele>
        <time>2018-07-01T03:54:44Z</time>
      </trkpt>
      <trkpt lat="50.173664018511772" lon="8.247214034199715">
        <ele>426.95999999999998</ele>
        <time>2018-07-01T03:54:45Z</time>
      </trkpt>
      <trkpt lat="50.173581959679723" lon="8.247234988957644">
        <ele>427.92000000000002</ele>
        <time>2018-07-01T03:54:46Z</time>
      </trkpt>
      <trkpt lat="50.173501996323466" lon="8.247257033362985">
        <ele>428.39999999999998</ele>
        <time>2018-07-01T03:54:47Z</time>
      </trkpt>
      <trkpt lat="50.17310201190412" lon="8.247363986447454">
        <ele>432.25</ele>
        <time>2018-07-01T03:54:52Z</time>
      </trkpt>
      <trkpt lat="50.173040991649032" lon="8.247319981455803">
        <ele>433.20999999999998</ele>
        <time>2018-07-01T03:54:53Z</time>
      </trkpt>
      <trkpt lat="50.17297301441431" lon="8.247272036969662">
        <ele>434.17000000000002</ele>
        <time>2018-07-01T03:54:54Z</time>
      </trkpt>
      <trkpt lat="50.172917023301125" lon="8.247186038643122">
        <ele>435.13</ele>
        <time>2018-07-01T03:54:55Z</time>
      </trkpt>
      <trkpt lat="50.172860026359558" lon="8.247071960940957">
        <ele>436.10000000000002</ele>
        <time>2018-07-01T03:54:56Z</time>
      </trkpt>
      <trkpt lat="50.172319980338216" lon="8.245840994641185">
        <ele>444.26999999999998</ele>
        <time>2018-07-01T03:55:04Z</time>
      </trkpt>
      <trkpt lat="50.171644985675812" lon="8.244151035323739">
        <ele>453.39999999999998</ele>
        <time>2018-07-01T03:55:12Z</time>
      </trkpt>
      <trkpt lat="50.170826995745301" lon="8.241854980587959">
        <ele>469.25999999999999</ele>
        <time>2018-07-01T03:55:22Z</time>
      </trkpt>
      <trkpt lat="50.170633960515261" lon="8.240669025108218">
        <ele>476.94999999999999</ele>
        <time>2018-07-01T03:55:27Z</time>
      </trkpt>
      <trkpt lat="50.170635972172022" lon="8.240447994321585">
        <ele>478.38999999999999</ele>
        <time>2018-07-01T03:55:28Z</time>
      </trkpt>
      <trkpt lat="50.170666985213757" lon="8.23998698964715">
        <ele>479.83999999999997</ele>
        <time>2018-07-01T03:55:30Z</time>
      </trkpt>
      <trkpt lat="50.170661034062505" lon="8.23975196108222">
        <ele>480.31999999999999</ele>
        <time>2018-07-01T03:55:31Z</time>
      </trkpt>
      <trkpt lat="50.17063002102077" lon="8.239505030214787">
        <ele>481.27999999999997</ele>
        <time>2018-07-01T03:55:32Z</time>
      </trkpt>
      <trkpt lat="50.170205980539322" lon="8.237556992098689">
        <ele>483.19999999999999</ele>
        <time>2018-07-01T03:55:39Z</time>
      </trkpt>
      <trkpt lat="50.170023003593087" lon="8.23616299778223">
        <ele>481.27999999999997</ele>
        <time>2018-07-01T03:55:44Z</time>
      </trkpt>
      <trkpt lat="50.170040018856525" lon="8.235877007246018">
        <ele>480.31999999999999</ele>
        <time>2018-07-01T03:55:45Z</time>
      </trkpt>
      <trkpt lat="50.170188965275884" lon="8.234692979604006">
        <ele>475.99000000000001</ele>
        <time>2018-07-01T03:55:49Z</time>
      </trkpt>
      <trkpt lat="50.170189971104264" lon="8.232929008081555">
        <ele>468.77999999999997</ele>
        <time>2018-07-01T03:55:54Z</time>
      </trkpt>
      <trkpt lat="50.170161975547671" lon="8.232558025047183">
        <ele>467.33999999999997</ele>
        <time>2018-07-01T03:55:55Z</time>
      </trkpt>
      <trkpt lat="50.170096009969711" lon="8.232202967628837">
        <ele>465.42000000000002</ele>
        <time>2018-07-01T03:55:56Z</time>
      </trkpt>
      <trkpt lat="50.16964003443718" lon="8.22918196208775">
        <ele>452.44</ele>
        <time>2018-07-01T03:56:04Z</time>
      </trkpt>
      <trkpt lat="50.169433001428843" lon="8.226593965664506">
        <ele>440.42000000000002</ele>
        <time>2018-07-01T03:56:11Z</time>
      </trkpt>
      <trkpt lat="50.169443981721997" lon="8.224890008568764">
        <ele>434.17000000000002</ele>
        <time>2018-07-01T03:56:17Z</time>
      </trkpt>
      <trkpt lat="50.169506007805467" lon="8.22462597861886">
        <ele>432.73000000000002</ele>
        <time>2018-07-01T03:56:18Z</time>
      </trkpt>
      <trkpt lat="50.169570967555046" lon="8.224351974204183">
        <ele>431.76999999999998</ele>
        <time>2018-07-01T03:56:19Z</time>
      </trkpt>
      <trkpt lat="50.170347969979048" lon="8.222403014078736">
        <ele>420.23000000000002</ele>
        <time>2018-07-01T03:56:26Z</time>
      </trkpt>
      <trkpt lat="50.170800006017089" lon="8.221345972269774">
        <ele>413.01999999999998</ele>
        <time>2018-07-01T03:56:30Z</time>
      </trkpt>
      <trkpt lat="50.171450022608042" lon="8.21886501275003">
        <ele>403.41000000000003</ele>
        <time>2018-07-01T03:56:38Z</time>
      </trkpt>
      <trkpt lat="50.171929970383644" lon="8.216870035976172">
        <ele>394.27999999999997</ele>
        <time>2018-07-01T03:56:45Z</time>
      </trkpt>
      <trkpt lat="50.172000965103507" lon="8.21663299575448">
        <ele>393.31999999999999</ele>
        <time>2018-07-01T03:56:46Z</time>
      </trkpt>
      <trkpt lat="50.172080006450415" lon="8.216414982452989">
        <ele>392.36000000000001</ele>
        <time>2018-07-01T03:56:47Z</time>
      </trkpt>
      <trkpt lat="50.172171033918858" lon="8.216256983578205">
        <ele>391.38999999999999</ele>
        <time>2018-07-01T03:56:48Z</time>
      </trkpt>
      <trkpt lat="50.172256026417017" lon="8.216109964996576">
        <ele>390.91000000000003</ele>
        <time>2018-07-01T03:56:49Z</time>
      </trkpt>
      <trkpt lat="50.172332972288132" lon="8.215978033840656">
        <ele>389.94999999999999</ele>
        <time>2018-07-01T03:56:50Z</time>
      </trkpt>
      <trkpt lat="50.172402039170265" lon="8.215860016644001">
        <ele>388.99000000000001</ele>
        <time>2018-07-01T03:56:51Z</time>
      </trkpt>
      <trkpt lat="50.172471022233367" lon="8.215757003054023">
        <ele>388.50999999999999</ele>
        <time>2018-07-01T03:56:52Z</time>
      </trkpt>
      <trkpt lat="50.172527013346553" lon="8.21568600833416">
        <ele>388.02999999999997</ele>
        <time>2018-07-01T03:56:53Z</time>
      </trkpt>
      <trkpt lat="50.172572024166584" lon="8.215631023049355">
        <ele>387.06999999999999</ele>
        <time>2018-07-01T03:56:54Z</time>
      </trkpt>
      <trkpt lat="50.172618962824345" lon="8.215927993878722">
        <ele>386.58999999999997</ele>
        <time>2018-07-01T03:56:55Z</time>
      </trkpt>
      <trkpt lat="50.172791965305805" lon="8.215705035254359">
        <ele>386.11000000000001</ele>
        <time>2018-07-01T03:56:56Z</time>
      </trkpt>
      <trkpt lat="50.172827001661062" lon="8.215788016095758">
        <ele>385.63</ele>
        <time>2018-07-01T03:56:57Z</time>
      </trkpt>
      <trkpt lat="50.172871006652713" lon="8.215890023857355">
        <ele>385.14999999999998</ele>
        <time>2018-07-01T03:56:58Z</time>
      </trkpt>
      <trkpt lat="50.173310972750187" lon="8.217060975730419">
        <ele>386.58999999999997</ele>
        <time>2018-07-01T03:57:05Z</time>
      </trkpt>
      <trkpt lat="50.174027038738132" lon="8.218947993591428">
        <ele>386.11000000000001</ele>
        <time>2018-07-01T03:57:14Z</time>
      </trkpt>
      <trkpt lat="50.174303976818919" lon="8.219692977145314">
        <ele>386.58999999999997</ele>
        <time>2018-07-01T03:57:19Z</time>
      </trkpt>
      <trkpt lat="50.174272963777184" lon="8.219872014597058">
        <ele>387.06999999999999</ele>
        <time>2018-07-01T03:57:20Z</time>
      </trkpt>
      <trkpt lat="50.174267012625933" lon="8.220008974894881">
        <ele>387.55000000000001</ele>
        <time>2018-07-01T03:57:21Z</time>
      </trkpt>
      <trkpt lat="50.174215966835618" lon="8.22019899263978">
        <ele>388.02999999999997</ele>
        <time>2018-07-01T03:57:22Z</time>
      </trkpt>
      <trkpt lat="50.174131980165839" lon="8.22024098597467">
        <ele>388.50999999999999</ele>
        <time>2018-07-01T03:57:23Z</time>
      </trkpt>
      <trkpt lat="50.174022009596229" lon="8.22024098597467">
        <ele>389.47000000000003</ele>
        <time>2018-07-01T03:57:24Z</time>
      </trkpt>
      <trkpt lat="50.173914972692728" lon="8.22024098597467">
        <ele>389.94999999999999</ele>
        <time>2018-07-01T03:57:25Z</time>
      </trkpt>
      <trkpt lat="50.173797961324453" lon="8.220193041488528">
        <ele>390.91000000000003</ele>
        <time>2018-07-01T03:57:26Z</time>
      </trkpt>
      <trkpt lat="50.173696037381887" lon="8.220102014020085">
        <ele>391.38999999999999</ele>
        <time>2018-07-01T03:57:27Z</time>
      </trkpt>
      <trkpt lat="50.173600986599922" lon="8.219951977953315">
        <ele>392.36000000000001</ele>
        <time>2018-07-01T03:57:28Z</time>
      </trkpt>
      <trkpt lat="50.173526974394917" lon="8.219803031533957">
        <ele>393.31999999999999</ele>
        <time>2018-07-01T03:57:29Z</time>
      </trkpt>
      <trkpt lat="50.173368975520134" lon="8.219373961910605">
        <ele>396.19999999999999</ele>
        <time>2018-07-01T03:57:32Z</time>
      </trkpt>
      <trkpt lat="50.173348020762205" lon="8.219262985512614">
        <ele>396.68000000000001</ele>
        <time>2018-07-01T03:57:33Z</time>
      </trkpt>
      <trkpt lat="50.173342991620302" lon="8.21916600689292">
        <ele>397.16000000000003</ele>
        <time>2018-07-01T03:57:34Z</time>
      </trkpt>
      <trkpt lat="50.173351038247347" lon="8.21908000856638">
        <ele>397.63999999999999</ele>
        <time>2018-07-01T03:57:35Z</time>
      </trkpt>
      <trkpt lat="50.173398982733488" lon="8.218956962227821">
        <ele>397.63999999999999</ele>
        <time>2018-07-01T03:57:36Z</time>
      </trkpt>
      <trkpt lat="50.173466959968209" lon="8.218885967507958">
        <ele>397.63999999999999</ele>
        <time>2018-07-01T03:57:37Z</time>
      </trkpt>
      <trkpt lat="50.174220995977521" lon="8.218077030032873">
        <ele>396.19999999999999</ele>
        <time>2018-07-01T03:57:44Z</time>
      </trkpt>
      <trkpt lat="50.1755500305444" lon="8.216707007959485">
        <ele>394.27999999999997</ele>
        <time>2018-07-01T03:57:52Z</time>
      </trkpt>
      <trkpt lat="50.177348032593727" lon="8.214808003976941">
        <ele>394.27999999999997</ele>
        <time>2018-07-01T03:58:00Z</time>
      </trkpt>
      <trkpt lat="50.178017998114228" lon="8.213921030983329">
        <ele>396.68000000000001</ele>
        <time>2018-07-01T03:58:03Z</time>
      </trkpt>
      <trkpt lat="50.178231988102198" lon="8.213598998263478">
        <ele>397.16000000000003</ele>
        <time>2018-07-01T03:58:04Z</time>
      </trkpt>
      <trkpt lat="50.178394010290504" lon="8.213217034935951">
        <ele>398.60000000000002</ele>
        <time>2018-07-01T03:58:05Z</time>
      </trkpt>
      <trkpt lat="50.178556032478809" lon="8.212833981961012">
        <ele>400.05000000000001</ele>
        <time>2018-07-01T03:58:06Z</time>
      </trkpt>
      <trkpt lat="50.178705984726548" lon="8.212432991713285">
        <ele>401.49000000000001</ele>
        <time>2018-07-01T03:58:07Z</time>
      </trkpt>
      <trkpt lat="50.178810004144907" lon="8.212003000080586">
        <ele>402.93000000000001</ele>
        <time>2018-07-01T03:58:08Z</time>
      </trkpt>
      <trkpt lat="50.178896002471447" lon="8.211564961820841">
        <ele>404.37</ele>
        <time>2018-07-01T03:58:09Z</time>
      </trkpt>
      <trkpt lat="50.178976971656084" lon="8.211126001551747">
        <ele>405.81</ele>
        <time>2018-07-01T03:58:10Z</time>
      </trkpt>
      <trkpt lat="50.179017959162593" lon="8.210670026019216">
        <ele>407.74000000000001</ele>
        <time>2018-07-01T03:58:11Z</time>
      </trkpt>
      <trkpt lat="50.17941802740097" lon="8.207120960578322">
        <ele>418.79000000000002</ele>
        <time>2018-07-01T03:58:19Z</time>
      </trkpt>
      <trkpt lat="50.180052034556866" lon="8.205432007089257">
        <ele>425.51999999999998</ele>
        <time>2018-07-01T03:58:24Z</time>
      </trkpt>
      <trkpt lat="50.180913023650646" lon="8.20425502024591">
        <ele>431.76999999999998</ele>
        <time>2018-07-01T03:58:29Z</time>
      </trkpt>
      <trkpt lat="50.18107102252543" lon="8.204097021371126">
        <ele>432.73000000000002</ele>
        <time>2018-07-01T03:58:30Z</time>
      </trkpt>
      <trkpt lat="50.18122399225831" lon="8.203987972810864">
        <ele>434.17000000000002</ele>
        <time>2018-07-01T03:58:31Z</time>
      </trkpt>
      <trkpt lat="50.181440999731421" lon="8.203839026391506">
        <ele>435.61000000000001</ele>
        <time>2018-07-01T03:58:33Z</time>
      </trkpt>
      <trkpt lat="50.181483998894691" lon="8.203709023073316">
        <ele>436.57999999999998</ele>
        <time>2018-07-01T03:58:34Z</time>
      </trkpt>
      <trkpt lat="50.181474024429917" lon="8.203602991998196">
        <ele>437.06</ele>
        <time>2018-07-01T03:58:35Z</time>
      </trkpt>
      <trkpt lat="50.181462960317731" lon="8.203467959538102">
        <ele>437.06</ele>
        <time>2018-07-01T03:58:36Z</time>
      </trkpt>
      <trkpt lat="50.181448962539434" lon="8.203310966491699">
        <ele>437.54000000000002</ele>
        <time>2018-07-01T03:58:37Z</time>
      </trkpt>
      <trkpt lat="50.181457009166479" lon="8.20311801508069">
        <ele>437.06</ele>
        <time>2018-07-01T03:58:38Z</time>
      </trkpt>
      <trkpt lat="50.181465977802873" lon="8.202904025092721">
        <ele>437.06</ele>
        <time>2018-07-01T03:58:39Z</time>
      </trkpt>
      <trkpt lat="50.181482993066311" lon="8.202662961557508">
        <ele>436.57999999999998</ele>
        <time>2018-07-01T03:58:40Z</time>
      </trkpt>
      <trkpt lat="50.181659013032913" lon="8.200787007808685">
        <ele>434.17000000000002</ele>
        <time>2018-07-01T03:58:46Z</time>
      </trkpt>
      <trkpt lat="50.181972999125719" lon="8.197236014530063">
        <ele>434.64999999999998</ele>
        <time>2018-07-01T03:58:56Z</time>
      </trkpt>
      <trkpt lat="50.182156981900334" lon="8.195304991677404">
        <ele>433.69</ele>
        <time>2018-07-01T03:59:02Z</time>
      </trkpt>
      <trkpt lat="50.182156981900334" lon="8.195015983656049">
        <ele>433.20999999999998</ele>
        <time>2018-07-01T03:59:03Z</time>
      </trkpt>
      <trkpt lat="50.182153964415193" lon="8.194720018655062">
        <ele>432.25</ele>
        <time>2018-07-01T03:59:04Z</time>
      </trkpt>
      <trkpt lat="50.181935029104352" lon="8.192615993320942">
        <ele>428.39999999999998</ele>
        <time>2018-07-01T03:59:12Z</time>
      </trkpt>
      <trkpt lat="50.181873003020883" lon="8.192409966140986">
        <ele>427.44</ele>
        <time>2018-07-01T03:59:13Z</time>
      </trkpt>
      <trkpt lat="50.181396994739771" lon="8.190984958782792">
        <ele>423.12</ele>
        <time>2018-07-01T03:59:21Z</time>
      </trkpt>
      <trkpt lat="50.181376961991191" lon="8.190812040120363">
        <ele>422.16000000000003</ele>
        <time>2018-07-01T03:59:22Z</time>
      </trkpt>
      <trkpt lat="50.181288029998541" lon="8.1899259891361">
        <ele>417.82999999999998</ele>
        <time>2018-07-01T03:59:27Z</time>
      </trkpt>
      <trkpt lat="50.181253999471664" lon="8.189764972776175">
        <ele>416.38999999999999</ele>
        <time>2018-07-01T03:59:28Z</time>
      </trkpt>
      <trkpt lat="50.181187028065324" lon="8.18945299834013">
        <ele>414.47000000000003</ele>
        <time>2018-07-01T03:59:30Z</time>
      </trkpt>
      <trkpt lat="50.1810949947685" lon="8.189031975343823">
        <ele>411.57999999999998</ele>
        <time>2018-07-01T03:59:33Z</time>
      </trkpt>
      <trkpt lat="50.181077979505062" lon="8.188896020874381">
        <ele>410.13999999999999</ele>
        <time>2018-07-01T03:59:34Z</time>
      </trkpt>
      <trkpt lat="50.181062975898385" lon="8.18876501172781">
        <ele>408.69999999999999</ele>
        <time>2018-07-01T03:59:35Z</time>
      </trkpt>
      <trkpt lat="50.18107102252543" lon="8.188645988702774">
        <ele>406.76999999999998</ele>
        <time>2018-07-01T03:59:36Z</time>
      </trkpt>
      <trkpt lat="50.181078985333443" lon="8.188524032011628">
        <ele>405.32999999999998</ele>
        <time>2018-07-01T03:59:37Z</time>
      </trkpt>
      <trkpt lat="50.181088037788868" lon="8.188410960137844">
        <ele>404.37</ele>
        <time>2018-07-01T03:59:38Z</time>
      </trkpt>
      <trkpt lat="50.181122990325093" lon="8.188092028722167">
        <ele>400.52999999999997</ele>
        <time>2018-07-01T03:59:41Z</time>
      </trkpt>
      <trkpt lat="50.181191973388195" lon="8.18760403431952">
        <ele>397.63999999999999</ele>
        <time>2018-07-01T03:59:45Z</time>
      </trkpt>
      <trkpt lat="50.181190967559814" lon="8.187522981315851">
        <ele>397.16000000000003</ele>
        <time>2018-07-01T03:59:46Z</time>
      </trkpt>
      <trkpt lat="50.181187028065324" lon="8.187416028231382">
        <ele>396.68000000000001</ele>
        <time>2018-07-01T03:59:47Z</time>
      </trkpt>
      <trkpt lat="50.18117998726666" lon="8.187200026586652">
        <ele>396.19999999999999</ele>
        <time>2018-07-01T03:59:49Z</time>
      </trkpt>
      <trkpt lat="50.181176969781518" lon="8.18709097802639">
        <ele>395.72000000000003</ele>
        <time>2018-07-01T03:59:50Z</time>
      </trkpt>
      <trkpt lat="50.181154003366828" lon="8.186678001657128">
        <ele>397.16000000000003</ele>
        <time>2018-07-01T03:59:54Z</time>
      </trkpt>
      <trkpt lat="50.181228015571833" lon="8.18580100312829">
        <ele>398.60000000000002</ele>
        <time>2018-07-01T04:00:02Z</time>
      </trkpt>
      <trkpt lat="50.181251987814903" lon="8.18571399897337">
        <ele>398.12</ele>
        <time>2018-07-01T04:00:03Z</time>
      </trkpt>
      <trkpt lat="50.181274032220244" lon="8.185632023960352">
        <ele>397.63999999999999</ele>
        <time>2018-07-01T04:00:04Z</time>
      </trkpt>
      <trkpt lat="50.181331029161811" lon="8.185540996491909">
        <ele>397.63999999999999</ele>
        <time>2018-07-01T04:00:05Z</time>
      </trkpt>
      <trkpt lat="50.181382996961474" lon="8.185536973178387">
        <ele>397.16000000000003</ele>
        <time>2018-07-01T04:00:06Z</time>
      </trkpt>
      <trkpt lat="50.181496990844607" lon="8.185525992885232">
        <ele>396.68000000000001</ele>
        <time>2018-07-01T04:00:08Z</time>
      </trkpt>
      <trkpt lat="50.182248009368777" lon="8.185317032039166">
        <ele>401.49000000000001</ele>
        <time>2018-07-01T04:00:18Z</time>
      </trkpt>
      <trkpt lat="50.183011014014482" lon="8.185059037059546">
        <ele>412.06</ele>
        <time>2018-07-01T04:00:27Z</time>
      </trkpt>
      <trkpt lat="50.183915002271533" lon="8.184805987402797">
        <ele>420.23000000000002</ele>
        <time>2018-07-01T04:00:35Z</time>
      </trkpt>
      <trkpt lat="50.184048023074865" lon="8.184800036251545">
        <ele>421.68000000000001</ele>
        <time>2018-07-01T04:00:36Z</time>
      </trkpt>
      <trkpt lat="50.185509994626045" lon="8.184956023469567">
        <ele>433.20999999999998</ele>
        <time>2018-07-01T04:00:45Z</time>
      </trkpt>
      <trkpt lat="50.185663970187306" lon="8.184964992105961">
        <ele>434.17000000000002</ele>
        <time>2018-07-01T04:00:46Z</time>
      </trkpt>
      <trkpt lat="50.18582196906209" lon="8.184905983507633">
        <ele>435.13</ele>
        <time>2018-07-01T04:00:47Z</time>
      </trkpt>
      <trkpt lat="50.18713197670877" lon="8.18438496440649">
        <ele>432.73000000000002</ele>
        <time>2018-07-01T04:00:54Z</time>
      </trkpt>
      <trkpt lat="50.189170958474278" lon="8.18382597528398">
        <ele>422.16000000000003</ele>
        <time>2018-07-01T04:01:03Z</time>
      </trkpt>
      <trkpt lat="50.190671989694238" lon="8.18333001807332">
        <ele>415.91000000000003</ele>
        <time>2018-07-01T04:01:10Z</time>
      </trkpt>
      <trkpt lat="50.191356036812067" lon="8.183001028373838">
        <ele>410.62</ele>
        <time>2018-07-01T04:01:14Z</time>
      </trkpt>
      <trkpt lat="50.191523004323244" lon="8.183022988960147">
        <ele>409.18000000000001</ele>
        <time>2018-07-01T04:01:15Z</time>
      </trkpt>
      <trkpt lat="50.191684020683169" lon="8.183067999780178">
        <ele>408.22000000000003</ele>
        <time>2018-07-01T04:01:16Z</time>
      </trkpt>
      <trkpt lat="50.191833972930908" lon="8.183161960914731">
        <ele>406.76999999999998</ele>
        <time>2018-07-01T04:01:17Z</time>
      </trkpt>
      <trkpt lat="50.191985014826059" lon="8.183256005868316">
        <ele>405.81</ele>
        <time>2018-07-01T04:01:18Z</time>
      </trkpt>
      <trkpt lat="50.192132033407688" lon="8.183348039165139">
        <ele>404.85000000000002</ele>
        <time>2018-07-01T04:01:19Z</time>
      </trkpt>
      <trkpt lat="50.192277040332556" lon="8.183404030278325">
        <ele>403.41000000000003</ele>
        <time>2018-07-01T04:01:20Z</time>
      </trkpt>
      <trkpt lat="50.192414000630379" lon="8.183440994471312">
        <ele>402.44999999999999</ele>
        <time>2018-07-01T04:01:21Z</time>
      </trkpt>
      <trkpt lat="50.192547021433711" lon="8.183362036943436">
        <ele>401.49000000000001</ele>
        <time>2018-07-01T04:01:22Z</time>
      </trkpt>
      <trkpt lat="50.192703008651733" lon="8.183267991989851">
        <ele>400.52999999999997</ele>
        <time>2018-07-01T04:01:23Z</time>
      </trkpt>
      <trkpt lat="50.192867964506149" lon="8.183169001713395">
        <ele>399.56999999999999</ele>
        <time>2018-07-01T04:01:24Z</time>
      </trkpt>
      <trkpt lat="50.194467986002564" lon="8.182008024305105">
        <ele>396.19999999999999</ele>
        <time>2018-07-01T04:01:33Z</time>
      </trkpt>
      <trkpt lat="50.194623973220587" lon="8.181832004338503">
        <ele>394.75999999999999</ele>
        <time>2018-07-01T04:01:34Z</time>
      </trkpt>
      <trkpt lat="50.194745007902384" lon="8.181606028228998">
        <ele>393.31999999999999</ele>
        <time>2018-07-01T04:01:35Z</time>
      </trkpt>
      <trkpt lat="50.194838969036937" lon="8.18135398440063">
        <ele>391.87</ele>
        <time>2018-07-01T04:01:36Z</time>
      </trkpt>
      <trkpt lat="50.19490803591907" lon="8.181085009127855">
        <ele>390.91000000000003</ele>
        <time>2018-07-01T04:01:37Z</time>
      </trkpt>
      <trkpt lat="50.194949023425579" lon="8.180804969742894">
        <ele>389.94999999999999</ele>
        <time>2018-07-01T04:01:38Z</time>
      </trkpt>
      <trkpt lat="50.194960003718734" lon="8.180523002520204">
        <ele>388.50999999999999</ele>
        <time>2018-07-01T04:01:39Z</time>
      </trkpt>
      <trkpt lat="50.194945000112057" lon="8.180233994498849">
        <ele>387.06999999999999</ele>
        <time>2018-07-01T04:01:40Z</time>
      </trkpt>
      <trkpt lat="50.194921027868986" lon="8.179936017841101">
        <ele>385.63</ele>
        <time>2018-07-01T04:01:41Z</time>
      </trkpt>
      <trkpt lat="50.19486797042191" lon="8.179067987948656">
        <ele>381.77999999999997</ele>
        <time>2018-07-01T04:01:44Z</time>
      </trkpt>
      <trkpt lat="50.194884985685349" lon="8.178794989362359">
        <ele>380.81999999999999</ele>
        <time>2018-07-01T04:01:45Z</time>
      </trkpt>
      <trkpt lat="50.194902000948787" lon="8.178519979119301">
        <ele>379.86000000000001</ele>
        <time>2018-07-01T04:01:46Z</time>
      </trkpt>
      <trkpt lat="50.194977018982172" lon="8.178271036595106">
        <ele>378.42000000000002</ele>
        <time>2018-07-01T04:01:47Z</time>
      </trkpt>
      <trkpt lat="50.195066034793854" lon="8.178035002201796">
        <ele>377.44999999999999</ele>
        <time>2018-07-01T04:01:48Z</time>
      </trkpt>
      <trkpt lat="50.195184973999858" lon="8.17780802026391">
        <ele>376.49000000000001</ele>
        <time>2018-07-01T04:01:49Z</time>
      </trkpt>
      <trkpt lat="50.195322018116713" lon="8.177625965327025">
        <ele>375.52999999999997</ele>
        <time>2018-07-01T04:01:50Z</time>
      </trkpt>
      <trkpt lat="50.195464007556438" lon="8.177468972280622">
        <ele>374.56999999999999</ele>
        <time>2018-07-01T04:01:51Z</time>
      </trkpt>
      <trkpt lat="50.195632986724377" lon="8.177282977849245">
        <ele>373.61000000000001</ele>
        <time>2018-07-01T04:01:52Z</time>
      </trkpt>
      <trkpt lat="50.195797020569444" lon="8.177255988121033">
        <ele>372.64999999999998</ele>
        <time>2018-07-01T04:01:53Z</time>
      </trkpt>
      <trkpt lat="50.196747025474906" lon="8.177288006991148">
        <ele>367.83999999999997</ele>
        <time>2018-07-01T04:01:58Z</time>
      </trkpt>
      <trkpt lat="50.197791997343302" lon="8.177207037806511">
        <ele>362.55000000000001</ele>
        <time>2018-07-01T04:02:03Z</time>
      </trkpt>
      <trkpt lat="50.198001964017749" lon="8.177136965095997">
        <ele>361.58999999999997</ele>
        <time>2018-07-01T04:02:04Z</time>
      </trkpt>
      <trkpt lat="50.198982981964946" lon="8.176951976493001">
        <ele>354.86000000000001</ele>
        <time>2018-07-01T04:02:09Z</time>
      </trkpt>
      <trkpt lat="50.199168976396322" lon="8.176897997036576">
        <ele>353.89999999999998</ele>
        <time>2018-07-01T04:02:10Z</time>
      </trkpt>
      <trkpt lat="50.199363017454743" lon="8.17682096734643">
        <ele>352.45999999999998</ele>
        <time>2018-07-01T04:02:11Z</time>
      </trkpt>
      <trkpt lat="50.199534008279443" lon="8.176641007885337">
        <ele>351.01999999999998</ele>
        <time>2018-07-01T04:02:12Z</time>
      </trkpt>
      <trkpt lat="50.199691001325846" lon="8.176431963220239">
        <ele>350.06</ele>
        <time>2018-07-01T04:02:13Z</time>
      </trkpt>
      <trkpt lat="50.199836008250713" lon="8.176186038181186">
        <ele>349.10000000000002</ele>
        <time>2018-07-01T04:02:14Z</time>
      </trkpt>
      <trkpt lat="50.199983026832342" lon="8.175936006009579">
        <ele>347.64999999999998</ele>
        <time>2018-07-01T04:02:15Z</time>
      </trkpt>
      <trkpt lat="50.200745025649667" lon="8.174709985032678">
        <ele>341.88999999999999</ele>
        <time>2018-07-01T04:02:20Z</time>
      </trkpt>
      <trkpt lat="50.200923979282379" lon="8.174519967287779">
        <ele>340.92000000000002</ele>
        <time>2018-07-01T04:02:21Z</time>
      </trkpt>
      <trkpt lat="50.201796032488346" lon="8.173600975424051">
        <ele>336.60000000000002</ele>
        <time>2018-07-01T04:02:26Z</time>
      </trkpt>
      <trkpt lat="50.201912960037589" lon="8.173357984051108">
        <ele>336.12</ele>
        <time>2018-07-01T04:02:27Z</time>
      </trkpt>
      <trkpt lat="50.202027959749103" lon="8.173120021820068">
        <ele>335.63999999999999</ele>
        <time>2018-07-01T04:02:28Z</time>
      </trkpt>
      <trkpt lat="50.202137008309364" lon="8.172893961891532">
        <ele>335.63999999999999</ele>
        <time>2018-07-01T04:02:29Z</time>
      </trkpt>
      <trkpt lat="50.202241027727723" lon="8.172677038237453">
        <ele>335.63999999999999</ele>
        <time>2018-07-01T04:02:30Z</time>
      </trkpt>
      <trkpt lat="50.202352004125714" lon="8.172473022714257">
        <ele>335.63999999999999</ele>
        <time>2018-07-01T04:02:31Z</time>
      </trkpt>
      <trkpt lat="50.202518971636891" lon="8.172342013567686">
        <ele>336.12</ele>
        <time>2018-07-01T04:02:32Z</time>
      </trkpt>
      <trkpt lat="50.202695997431874" lon="8.17226598970592">
        <ele>336.12</ele>
        <time>2018-07-01T04:02:33Z</time>
      </trkpt>
      <trkpt lat="50.202882997691631" lon="8.172255009412766">
        <ele>336.60000000000002</ele>
        <time>2018-07-01T04:02:34Z</time>
      </trkpt>
      <trkpt lat="50.203064968809485" lon="8.172276969999075">
        <ele>337.07999999999998</ele>
        <time>2018-07-01T04:02:35Z</time>
      </trkpt>
      <trkpt lat="50.203250041231513" lon="8.172298008576036">
        <ele>337.07999999999998</ele>
        <time>2018-07-01T04:02:36Z</time>
      </trkpt>
      <trkpt lat="50.203433018177748" lon="8.172319969162345">
        <ele>337.07999999999998</ele>
        <time>2018-07-01T04:02:37Z</time>
      </trkpt>
      <trkpt lat="50.203613983467221" lon="8.172326004132628">
        <ele>337.07999999999998</ele>
        <time>2018-07-01T04:02:38Z</time>
      </trkpt>
      <trkpt lat="50.203779023140669" lon="8.172245034947991">
        <ele>337.07999999999998</ele>
        <time>2018-07-01T04:02:39Z</time>
      </trkpt>
      <trkpt lat="50.203950013965368" lon="8.172139003872871">
        <ele>336.60000000000002</ele>
        <time>2018-07-01T04:02:40Z</time>
      </trkpt>
      <trkpt lat="50.204112036153674" lon="8.171952003613114">
        <ele>335.63999999999999</ele>
        <time>2018-07-01T04:02:41Z</time>
      </trkpt>
      <trkpt lat="50.204273974522948" lon="8.171754023060203">
        <ele>334.68000000000001</ele>
        <time>2018-07-01T04:02:42Z</time>
      </trkpt>
      <trkpt lat="50.205422965809703" lon="8.170363968238235">
        <ele>325.54000000000002</ele>
        <time>2018-07-01T04:02:49Z</time>
      </trkpt>
      <trkpt lat="50.205579958856106" lon="8.170275036245585">
        <ele>323.62</ele>
        <time>2018-07-01T04:02:50Z</time>
      </trkpt>
      <trkpt lat="50.20573703572154" lon="8.170229019597173">
        <ele>322.18000000000001</ele>
        <time>2018-07-01T04:02:51Z</time>
      </trkpt>
      <trkpt lat="50.205875001847744" lon="8.170206975191832">
        <ele>321.22000000000003</ele>
        <time>2018-07-01T04:02:52Z</time>
      </trkpt>
      <trkpt lat="50.206006010994315" lon="8.170217033475637">
        <ele>319.77999999999997</ele>
        <time>2018-07-01T04:02:53Z</time>
      </trkpt>
      <trkpt lat="50.206610010936856" lon="8.170313006266952">
        <ele>314.49000000000001</ele>
        <time>2018-07-01T04:03:00Z</time>
      </trkpt>
      <trkpt lat="50.2071120031178" lon="8.170394981279969">
        <ele>313.05000000000001</ele>
        <time>2018-07-01T04:03:06Z</time>
      </trkpt>
      <trkpt lat="50.207146033644676" lon="8.170435968786478">
        <ele>313.05000000000001</ele>
        <time>2018-07-01T04:03:07Z</time>
      </trkpt>
      <trkpt lat="50.207219962030649" lon="8.170523978769779">
        <ele>313.05000000000001</ele>
        <time>2018-07-01T04:03:08Z</time>
      </trkpt>
      <trkpt lat="50.207253992557526" lon="8.170621963217855">
        <ele>313.52999999999997</ele>
        <time>2018-07-01T04:03:09Z</time>
      </trkpt>
      <trkpt lat="50.207292968407273" lon="8.170734029263258">
        <ele>314.00999999999999</ele>
        <time>2018-07-01T04:03:10Z</time>
      </trkpt>
      <trkpt lat="50.207334039732814" lon="8.170850034803152">
        <ele>314.49000000000001</ele>
        <time>2018-07-01T04:03:11Z</time>
      </trkpt>
      <trkpt lat="50.207590023055673" lon="8.171442970633507">
        <ele>314.97000000000003</ele>
        <time>2018-07-01T04:03:16Z</time>
      </trkpt>
      <trkpt lat="50.207642996683717" lon="8.171562999486923">
        <ele>315.44999999999999</ele>
        <time>2018-07-01T04:03:17Z</time>
      </trkpt>
      <trkpt lat="50.207711979746819" lon="8.171630976721644">
        <ele>315.44999999999999</ele>
        <time>2018-07-01T04:03:18Z</time>
      </trkpt>
      <trkpt lat="50.207791021093726" lon="8.171699037775397">
        <ele>314.97000000000003</ele>
        <time>2018-07-01T04:03:19Z</time>
      </trkpt>
      <trkpt lat="50.207867966964841" lon="8.171766009181738">
        <ele>314.97000000000003</ele>
        <time>2018-07-01T04:03:20Z</time>
      </trkpt>
      <trkpt lat="50.208360990509391" lon="8.172059962525964">
        <ele>315.44999999999999</ele>
        <time>2018-07-01T04:03:28Z</time>
      </trkpt>
      <trkpt lat="50.208421004936099" lon="8.172089969739318">
        <ele>315.93000000000001</ele>
        <time>2018-07-01T04:03:29Z</time>
      </trkpt>
      <trkpt lat="50.208439026027918" lon="8.171990979462862">
        <ele>316.41000000000003</ele>
        <time>2018-07-01T04:03:30Z</time>
      </trkpt>
      <trkpt lat="50.208451012149453" lon="8.17192199639976">
        <ele>316.88999999999999</ele>
        <time>2018-07-01T04:03:31Z</time>
      </trkpt>
      <trkpt lat="50.20846500992775" lon="8.17183599807322">
        <ele>317.37</ele>
        <time>2018-07-01T04:03:32Z</time>
      </trkpt>
      <trkpt lat="50.208481019362807" lon="8.171744970604777">
        <ele>317.85000000000002</ele>
        <time>2018-07-01T04:03:33Z</time>
      </trkpt>
      <trkpt lat="50.208533992990851" lon="8.171439031139016">
        <ele>319.30000000000001</ele>
        <time>2018-07-01T04:03:36Z</time>
      </trkpt>
      <trkpt lat="50.208553019911051" lon="8.171330988407135">
        <ele>319.77999999999997</ele>
        <time>2018-07-01T04:03:37Z</time>
      </trkpt>
      <trkpt lat="50.208570035174489" lon="8.171229986473918">
        <ele>320.25999999999999</ele>
        <time>2018-07-01T04:03:38Z</time>
      </trkpt>
      <trkpt lat="50.208587972447276" lon="8.171125967055559">
        <ele>320.74000000000001</ele>
        <time>2018-07-01T04:03:39Z</time>
      </trkpt>
      <trkpt lat="50.20861404016614" lon="8.170974003151059">
        <ele>322.18000000000001</ele>
        <time>2018-07-01T04:03:40Z</time>
      </trkpt>
      <trkpt lat="50.208610016852617" lon="8.170902002602816">
        <ele>322.66000000000003</ele>
        <time>2018-07-01T04:03:41Z</time>
      </trkpt>
      <trkpt lat="50.208602976053953" lon="8.170781973749399">
        <ele>322.66000000000003</ele>
        <time>2018-07-01T04:03:42Z</time>
      </trkpt>
      <trkpt lat="50.208596019074321" lon="8.170656999573112">
        <ele>323.13999999999999</ele>
        <time>2018-07-01T04:03:43Z</time>
      </trkpt>
      <trkpt lat="50.208582021296024" lon="8.170401016250253">
        <ele>323.62</ele>
        <time>2018-07-01T04:03:45Z</time>
      </trkpt>
      <trkpt lat="50.208571963012218" lon="8.170222984626889">
        <ele>323.62</ele>
        <time>2018-07-01T04:03:46Z</time>
      </trkpt>
      <trkpt lat="50.208428967744112" lon="8.16927800886333">
        <ele>324.10000000000002</ele>
        <time>2018-07-01T04:03:52Z</time>
      </trkpt>
      <trkpt lat="50.207921024411917" lon="8.167519988492131">
        <ele>321.22000000000003</ele>
        <time>2018-07-01T04:03:59Z</time>
      </trkpt>
      <trkpt lat="50.207663029432297" lon="8.166603008285165">
        <ele>318.32999999999998</ele>
        <time>2018-07-01T04:04:02Z</time>
      </trkpt>
      <trkpt lat="50.207588011398911" lon="8.166274018585682">
        <ele>317.85000000000002</ele>
        <time>2018-07-01T04:04:03Z</time>
      </trkpt>
      <trkpt lat="50.207545012235641" lon="8.165936982259154">
        <ele>316.41000000000003</ele>
        <time>2018-07-01T04:04:04Z</time>
      </trkpt>
      <trkpt lat="50.20752003416419" lon="8.165590977296233">
        <ele>315.44999999999999</ele>
        <time>2018-07-01T04:04:05Z</time>
      </trkpt>
      <trkpt lat="50.20752003416419" lon="8.16523801535368">
        <ele>314.97000000000003</ele>
        <time>2018-07-01T04:04:06Z</time>
      </trkpt>
      <trkpt lat="50.207540988922119" lon="8.164900979027152">
        <ele>314.00999999999999</ele>
        <time>2018-07-01T04:04:07Z</time>
      </trkpt>
      <trkpt lat="50.20758599974215" lon="8.164563020691276">
        <ele>313.05000000000001</ele>
        <time>2018-07-01T04:04:08Z</time>
      </trkpt>
      <trkpt lat="50.207633022218943" lon="8.164240987971425">
        <ele>312.08999999999997</ele>
        <time>2018-07-01T04:04:09Z</time>
      </trkpt>
      <trkpt lat="50.207731006667018" lon="8.163939993828535">
        <ele>311.12</ele>
        <time>2018-07-01T04:04:10Z</time>
      </trkpt>
      <trkpt lat="50.207827985286713" lon="8.163641011342406">
        <ele>310.16000000000003</ele>
        <time>2018-07-01T04:04:11Z</time>
      </trkpt>
      <trkpt lat="50.207927981391549" lon="8.163353009149432">
        <ele>309.68000000000001</ele>
        <time>2018-07-01T04:04:12Z</time>
      </trkpt>
      <trkpt lat="50.208043986931443" lon="8.163103982806206">
        <ele>308.72000000000003</ele>
        <time>2018-07-01T04:04:13Z</time>
      </trkpt>
      <trkpt lat="50.208110958337784" lon="8.16283299587667">
        <ele>308.72000000000003</ele>
        <time>2018-07-01T04:04:14Z</time>
      </trkpt>
      <trkpt lat="50.208169966936111" lon="8.162567038089037">
        <ele>308.24000000000001</ele>
        <time>2018-07-01T04:04:15Z</time>
      </trkpt>
      <trkpt lat="50.208184970542789" lon="8.162281969562173">
        <ele>307.75999999999999</ele>
        <time>2018-07-01T04:04:16Z</time>
      </trkpt>
      <trkpt lat="50.208159992471337" lon="8.161982987076044">
        <ele>307.27999999999997</ele>
        <time>2018-07-01T04:04:17Z</time>
      </trkpt>
      <trkpt lat="50.208098972216249" lon="8.161679981276393">
        <ele>307.27999999999997</ele>
        <time>2018-07-01T04:04:18Z</time>
      </trkpt>
      <trkpt lat="50.208007022738457" lon="8.161399019882083">
        <ele>307.75999999999999</ele>
        <time>2018-07-01T04:04:19Z</time>
      </trkpt>
      <trkpt lat="50.2078200224787" lon="8.160827038809657">
        <ele>308.24000000000001</ele>
        <time>2018-07-01T04:04:21Z</time>
      </trkpt>
      <trkpt lat="50.207748021930456" lon="8.160524033010006">
        <ele>308.24000000000001</ele>
        <time>2018-07-01T04:04:22Z</time>
      </trkpt>
      <trkpt lat="50.207660011947155" lon="8.159876028075814">
        <ele>308.24000000000001</ele>
        <time>2018-07-01T04:04:24Z</time>
      </trkpt>
      <trkpt lat="50.207644002512097" lon="8.159533962607384">
        <ele>308.24000000000001</ele>
        <time>2018-07-01T04:04:25Z</time>
      </trkpt>
      <trkpt lat="50.207551969215274" lon="8.155588014051318">
        <ele>307.75999999999999</ele>
        <time>2018-07-01T04:04:36Z</time>
      </trkpt>
      <trkpt lat="50.207440992817283" lon="8.151444001123309">
        <ele>304.38999999999999</ele>
        <time>2018-07-01T04:04:47Z</time>
      </trkpt>
      <trkpt lat="50.207379972562194" lon="8.151077041402459">
        <ele>304.38999999999999</ele>
        <time>2018-07-01T04:04:48Z</time>
      </trkpt>
      <trkpt lat="50.207302020862699" lon="8.150722989812493">
        <ele>303.91000000000003</ele>
        <time>2018-07-01T04:04:49Z</time>
      </trkpt>
      <trkpt lat="50.207191966474056" lon="8.150387965142727">
        <ele>303.43000000000001</ele>
        <time>2018-07-01T04:04:50Z</time>
      </trkpt>
      <trkpt lat="50.207057017832994" lon="8.15007196739316">
        <ele>302.94999999999999</ele>
        <time>2018-07-01T04:04:51Z</time>
      </trkpt>
      <trkpt lat="50.20692097954452" lon="8.149750018492341">
        <ele>302.47000000000003</ele>
        <time>2018-07-01T04:04:52Z</time>
      </trkpt>
      <trkpt lat="50.20636199042201" lon="8.148244963958859">
        <ele>300.06999999999999</ele>
        <time>2018-07-01T04:04:57Z</time>
      </trkpt>
      <trkpt lat="50.206300970166922" lon="8.147325972095132">
        <ele>298.63</ele>
        <time>2018-07-01T04:05:00Z</time>
      </trkpt>
      <trkpt lat="50.206333994865417" lon="8.147038975730538">
        <ele>298.63</ele>
        <time>2018-07-01T04:05:01Z</time>
      </trkpt>
      <trkpt lat="50.206387974321842" lon="8.146748039871454">
        <ele>298.14999999999998</ele>
        <time>2018-07-01T04:05:02Z</time>
      </trkpt>
      <trkpt lat="50.206781001761556" lon="8.145281039178371">
        <ele>295.25999999999999</ele>
        <time>2018-07-01T04:05:07Z</time>
      </trkpt>
      <trkpt lat="50.206837998703122" lon="8.144976021721959">
        <ele>294.77999999999997</ele>
        <time>2018-07-01T04:05:08Z</time>
      </trkpt>
      <trkpt lat="50.206878986209631" lon="8.144649965688586">
        <ele>294.77999999999997</ele>
        <time>2018-07-01T04:05:09Z</time>
      </trkpt>
      <trkpt lat="50.206888960674405" lon="8.144319970160723">
        <ele>294.77999999999997</ele>
        <time>2018-07-01T04:05:10Z</time>
      </trkpt>
      <trkpt lat="50.206894995644689" lon="8.143974971026182">
        <ele>294.30000000000001</ele>
        <time>2018-07-01T04:05:11Z</time>
      </trkpt>
      <trkpt lat="50.206800028681755" lon="8.142542000859976">
        <ele>293.33999999999997</ele>
        <time>2018-07-01T04:05:15Z</time>
      </trkpt>
      <trkpt lat="50.206731967628002" lon="8.142191972583532">
        <ele>292.86000000000001</ele>
        <time>2018-07-01T04:05:16Z</time>
      </trkpt>
      <trkpt lat="50.206655021756887" lon="8.141856025904417">
        <ele>292.86000000000001</ele>
        <time>2018-07-01T04:05:17Z</time>
      </trkpt>
      <trkpt lat="50.206310022622347" lon="8.140771994367242">
        <ele>294.30000000000001</ele>
        <time>2018-07-01T04:05:21Z</time>
      </trkpt>
      <trkpt lat="50.206270040944219" lon="8.140540989115834">
        <ele>294.77999999999997</ele>
        <time>2018-07-01T04:05:22Z</time>
      </trkpt>
      <trkpt lat="50.206256965175271" lon="8.140330016613007">
        <ele>295.25999999999999</ele>
        <time>2018-07-01T04:05:23Z</time>
      </trkpt>
      <trkpt lat="50.206244979053736" lon="8.140142010524869">
        <ele>295.25999999999999</ele>
        <time>2018-07-01T04:05:24Z</time>
      </trkpt>
      <trkpt lat="50.2062329929322" lon="8.139946963638067">
        <ele>295.25999999999999</ele>
        <time>2018-07-01T04:05:25Z</time>
      </trkpt>
      <trkpt lat="50.206243973225355" lon="8.13979902304709">
        <ele>295.25999999999999</ele>
        <time>2018-07-01T04:05:26Z</time>
      </trkpt>
      <trkpt lat="50.206256965175271" lon="8.139635995030403">
        <ele>295.25999999999999</ele>
        <time>2018-07-01T04:05:27Z</time>
      </trkpt>
      <trkpt lat="50.206290995702147" lon="8.139183036983013">
        <ele>294.30000000000001</ele>
        <time>2018-07-01T04:05:30Z</time>
      </trkpt>
      <trkpt lat="50.206483025103807" lon="8.138316012918949">
        <ele>291.42000000000002</ele>
        <time>2018-07-01T04:05:37Z</time>
      </trkpt>
      <trkpt lat="50.206509009003639" lon="8.138204030692577">
        <ele>290.94</ele>
        <time>2018-07-01T04:05:38Z</time>
      </trkpt>
      <trkpt lat="50.206535998731852" lon="8.138092970475555">
        <ele>290.94</ele>
        <time>2018-07-01T04:05:39Z</time>
      </trkpt>
      <trkpt lat="50.206586038693786" lon="8.137878980487585">
        <ele>290.94</ele>
        <time>2018-07-01T04:05:41Z</time>
      </trkpt>
      <trkpt lat="50.206659967079759" lon="8.137562982738018">
        <ele>291.42000000000002</ele>
        <time>2018-07-01T04:05:44Z</time>
      </trkpt>
      <trkpt lat="50.20670598372817" lon="8.137365002185106">
        <ele>291.89999999999998</ele>
        <time>2018-07-01T04:05:46Z</time>
      </trkpt>
      <trkpt lat="50.206729033961892" lon="8.137259976938367">
        <ele>292.38</ele>
        <time>2018-07-01T04:05:47Z</time>
      </trkpt>
      <trkpt lat="50.206754012033343" lon="8.137151012197137">
        <ele>292.38</ele>
        <time>2018-07-01T04:05:48Z</time>
      </trkpt>
      <trkpt lat="50.206777984276414" lon="8.137040035799146">
        <ele>291.89999999999998</ele>
        <time>2018-07-01T04:05:49Z</time>
      </trkpt>
      <trkpt lat="50.206803968176246" lon="8.136924030259252">
        <ele>292.38</ele>
        <time>2018-07-01T04:05:50Z</time>
      </trkpt>
      <trkpt lat="50.206830035895109" lon="8.136806013062596">
        <ele>292.38</ele>
        <time>2018-07-01T04:05:51Z</time>
      </trkpt>
      <trkpt lat="50.206858031451702" lon="8.136681960895658">
        <ele>292.38</ele>
        <time>2018-07-01T04:05:52Z</time>
      </trkpt>
      <trkpt lat="50.206892983987927" lon="8.136560004204512">
        <ele>292.38</ele>
        <time>2018-07-01T04:05:53Z</time>
      </trkpt>
      <trkpt lat="50.207318030297756" lon="8.135591978207231">
        <ele>291.89999999999998</ele>
        <time>2018-07-01T04:06:02Z</time>
      </trkpt>
      <trkpt lat="50.20741299726069" lon="8.135393997654319">
        <ele>292.38</ele>
        <time>2018-07-01T04:06:04Z</time>
      </trkpt>
      <trkpt lat="50.20790996029973" lon="8.134207958355546">
        <ele>292.38</ele>
        <time>2018-07-01T04:06:15Z</time>
      </trkpt>
      <trkpt lat="50.207937033846974" lon="8.134080972522497">
        <ele>292.86000000000001</ele>
        <time>2018-07-01T04:06:16Z</time>
      </trkpt>
      <trkpt lat="50.207952037453651" lon="8.133952980861068">
        <ele>292.86000000000001</ele>
        <time>2018-07-01T04:06:17Z</time>
      </trkpt>
      <trkpt lat="50.207967041060328" lon="8.133833035826683">
        <ele>292.86000000000001</ele>
        <time>2018-07-01T04:06:18Z</time>
      </trkpt>
      <trkpt lat="50.207981038838625" lon="8.133716024458408">
        <ele>293.33999999999997</ele>
        <time>2018-07-01T04:06:19Z</time>
      </trkpt>
      <trkpt lat="50.207995036616921" lon="8.133595995604992">
        <ele>293.33999999999997</ele>
        <time>2018-07-01T04:06:20Z</time>
      </trkpt>
      <trkpt lat="50.208010040223598" lon="8.133475966751576">
        <ele>293.33999999999997</ele>
        <time>2018-07-01T04:06:21Z</time>
      </trkpt>
      <trkpt lat="50.20799201913178" lon="8.133396003395319">
        <ele>293.33999999999997</ele>
        <time>2018-07-01T04:06:22Z</time>
      </trkpt>
      <trkpt lat="50.207942984998226" lon="8.133289972320199">
        <ele>292.86000000000001</ele>
        <time>2018-07-01T04:06:23Z</time>
      </trkpt>
      <trkpt lat="50.207890011370182" lon="8.133187964558601">
        <ele>291.42000000000002</ele>
        <time>2018-07-01T04:06:24Z</time>
      </trkpt>
      <trkpt lat="50.207828991115093" lon="8.133109007030726">
        <ele>290.45999999999998</ele>
        <time>2018-07-01T04:06:25Z</time>
      </trkpt>
      <trkpt lat="50.207770988345146" lon="8.133034994825721">
        <ele>288.52999999999997</ele>
        <time>2018-07-01T04:06:26Z</time>
      </trkpt>
      <trkpt lat="50.207705022767186" lon="8.132948996499181">
        <ele>286.61000000000001</ele>
        <time>2018-07-01T04:06:27Z</time>
      </trkpt>
      <trkpt lat="50.207636961713433" lon="8.132862998172641">
        <ele>285.17000000000002</ele>
        <time>2018-07-01T04:06:28Z</time>
      </trkpt>
      <trkpt lat="50.207573007792234" lon="8.132730983197689">
        <ele>284.20999999999998</ele>
        <time>2018-07-01T04:06:29Z</time>
      </trkpt>
      <trkpt lat="50.20752003416419" lon="8.13258396461606">
        <ele>282.76999999999998</ele>
        <time>2018-07-01T04:06:30Z</time>
      </trkpt>
      <trkpt lat="50.207490026950836" lon="8.132425965741277">
        <ele>281.80000000000001</ele>
        <time>2018-07-01T04:06:31Z</time>
      </trkpt>
      <trkpt lat="50.207459013909101" lon="8.132265033200383">
        <ele>280.83999999999997</ele>
        <time>2018-07-01T04:06:32Z</time>
      </trkpt>
      <trkpt lat="50.20743403583765" lon="8.132085995748639">
        <ele>280.36000000000001</ele>
        <time>2018-07-01T04:06:33Z</time>
      </trkpt>
      <trkpt lat="50.20743403583765" lon="8.131900001317263">
        <ele>279.88</ele>
        <time>2018-07-01T04:06:34Z</time>
      </trkpt>
      <trkpt lat="50.20743403583765" lon="8.13170000910759">
        <ele>278.92000000000002</ele>
        <time>2018-07-01T04:06:35Z</time>
      </trkpt>
      <trkpt lat="50.20743403583765" lon="8.131492976099253">
        <ele>278.92000000000002</ele>
        <time>2018-07-01T04:06:36Z</time>
      </trkpt>
      <trkpt lat="50.207425989210606" lon="8.131264988332987">
        <ele>278.44</ele>
        <time>2018-07-01T04:06:37Z</time>
      </trkpt>
      <trkpt lat="50.207376033067703" lon="8.131053010001779">
        <ele>278.44</ele>
        <time>2018-07-01T04:06:38Z</time>
      </trkpt>
      <trkpt lat="50.207321969792247" lon="8.130828039720655">
        <ele>278.44</ele>
        <time>2018-07-01T04:06:39Z</time>
      </trkpt>
      <trkpt lat="50.207265978679061" lon="8.130593011155725">
        <ele>277.95999999999998</ele>
        <time>2018-07-01T04:06:40Z</time>
      </trkpt>
      <trkpt lat="50.206952998414636" lon="8.129295995458961">
        <ele>281.31999999999999</ele>
        <time>2018-07-01T04:06:45Z</time>
      </trkpt>
      <trkpt lat="50.206872029229999" lon="8.129022996872664">
        <ele>282.76999999999998</ele>
        <time>2018-07-01T04:06:46Z</time>
      </trkpt>
      <trkpt lat="50.20648998208344" lon="8.127980958670378">
        <ele>288.05000000000001</ele>
        <time>2018-07-01T04:06:50Z</time>
      </trkpt>
      <trkpt lat="50.206401972100139" lon="8.127738973125815">
        <ele>289.00999999999999</ele>
        <time>2018-07-01T04:06:51Z</time>
      </trkpt>
      <trkpt lat="50.206289989873767" lon="8.12753202393651">
        <ele>290.45999999999998</ele>
        <time>2018-07-01T04:06:52Z</time>
      </trkpt>
      <trkpt lat="50.206157974898815" lon="8.127352986484766">
        <ele>291.89999999999998</ele>
        <time>2018-07-01T04:06:53Z</time>
      </trkpt>
      <trkpt lat="50.205992013216019" lon="8.127198005095124">
        <ele>293.33999999999997</ele>
        <time>2018-07-01T04:06:54Z</time>
      </trkpt>
      <trkpt lat="50.205821022391319" lon="8.127057021483779">
        <ele>294.77999999999997</ele>
        <time>2018-07-01T04:06:55Z</time>
      </trkpt>
      <trkpt lat="50.205648019909859" lon="8.126914026215673">
        <ele>296.69999999999999</ele>
        <time>2018-07-01T04:06:56Z</time>
      </trkpt>
      <trkpt lat="50.204655015841126" lon="8.12637297436595">
        <ele>305.83999999999997</ele>
        <time>2018-07-01T04:07:01Z</time>
      </trkpt>
      <trkpt lat="50.204466003924608" lon="8.126240959390998">
        <ele>307.75999999999999</ele>
        <time>2018-07-01T04:07:02Z</time>
      </trkpt>
      <trkpt lat="50.204295013099909" lon="8.126066029071808">
        <ele>310.16000000000003</ele>
        <time>2018-07-01T04:07:03Z</time>
      </trkpt>
      <trkpt lat="50.204143971204758" lon="8.125844998285174">
        <ele>312.08999999999997</ele>
        <time>2018-07-01T04:07:04Z</time>
      </trkpt>
      <trkpt lat="50.20399603061378" lon="8.125621033832431">
        <ele>314.00999999999999</ele>
        <time>2018-07-01T04:07:05Z</time>
      </trkpt>
      <trkpt lat="50.203884970396757" lon="8.125347029417753">
        <ele>315.93000000000001</ele>
        <time>2018-07-01T04:07:06Z</time>
      </trkpt>
      <trkpt lat="50.203771982342005" lon="8.125065984204412">
        <ele>317.85000000000002</ele>
        <time>2018-07-01T04:07:07Z</time>
      </trkpt>
      <trkpt lat="50.202572029083967" lon="8.121868958696723">
        <ele>340.44</ele>
        <time>2018-07-01T04:07:18Z</time>
      </trkpt>
      <trkpt lat="50.202508997172117" lon="8.121552038937807">
        <ele>342.85000000000002</ele>
        <time>2018-07-01T04:07:19Z</time>
      </trkpt>
      <trkpt lat="50.202459963038564" lon="8.121222965419292">
        <ele>344.76999999999998</ele>
        <time>2018-07-01T04:07:20Z</time>
      </trkpt>
      <trkpt lat="50.202046986669302" lon="8.118472024798393">
        <ele>359.19</ele>
        <time>2018-07-01T04:07:28Z</time>
      </trkpt>
      <trkpt lat="50.201884964480996" lon="8.117426969110966">
        <ele>359.19</ele>
        <time>2018-07-01T04:07:31Z</time>
      </trkpt>
      <trkpt lat="50.201796032488346" lon="8.117084987461567">
        <ele>358.23000000000002</ele>
        <time>2018-07-01T04:07:32Z</time>
      </trkpt>
      <trkpt lat="50.201168982312083" lon="8.115000994876027">
        <ele>349.57999999999998</ele>
        <time>2018-07-01T04:07:38Z</time>
      </trkpt>
      <trkpt lat="50.201020035892725" lon="8.114694971591234">
        <ele>348.13</ele>
        <time>2018-07-01T04:07:39Z</time>
      </trkpt>
      <trkpt lat="50.200015967711806" lon="8.112410986796022">
        <ele>343.81</ele>
        <time>2018-07-01T04:07:46Z</time>
      </trkpt>
      <trkpt lat="50.199203006923199" lon="8.109977971762419">
        <ele>340.92000000000002</ele>
        <time>2018-07-01T04:07:53Z</time>
      </trkpt>
      <trkpt lat="50.197473987936974" lon="8.105935966596007">
        <ele>334.19999999999999</ele>
        <time>2018-07-01T04:08:05Z</time>
      </trkpt>
      <trkpt lat="50.196481989696622" lon="8.10437299311161">
        <ele>330.82999999999998</ele>
        <time>2018-07-01T04:08:11Z</time>
      </trkpt>
      <trkpt lat="50.196049986407161" lon="8.103673020377755">
        <ele>325.54000000000002</ele>
        <time>2018-07-01T04:08:14Z</time>
      </trkpt>
      <trkpt lat="50.195973962545395" lon="8.103418964892626">
        <ele>323.62</ele>
        <time>2018-07-01T04:08:15Z</time>
      </trkpt>
      <trkpt lat="50.195909002795815" lon="8.103181002661586">
        <ele>321.69999999999999</ele>
        <time>2018-07-01T04:08:16Z</time>
      </trkpt>
      <trkpt lat="50.195909002795815" lon="8.102687979117036">
        <ele>317.85000000000002</ele>
        <time>2018-07-01T04:08:18Z</time>
      </trkpt>
      <trkpt lat="50.195929035544395" lon="8.102449011057615">
        <ele>315.93000000000001</ele>
        <time>2018-07-01T04:08:19Z</time>
      </trkpt>
      <trkpt lat="50.195997012779117" lon="8.102242983877659">
        <ele>314.00999999999999</ele>
        <time>2018-07-01T04:08:20Z</time>
      </trkpt>
      <trkpt lat="50.196084016934037" lon="8.102032011374831">
        <ele>312.56999999999999</ele>
        <time>2018-07-01T04:08:21Z</time>
      </trkpt>
      <trkpt lat="50.196187030524015" lon="8.101827995851636">
        <ele>310.63999999999999</ele>
        <time>2018-07-01T04:08:22Z</time>
      </trkpt>
      <trkpt lat="50.196318039670587" lon="8.101648958399892">
        <ele>309.19999999999999</ele>
        <time>2018-07-01T04:08:23Z</time>
      </trkpt>
      <trkpt lat="50.196461034938693" lon="8.101478973403573">
        <ele>307.75999999999999</ele>
        <time>2018-07-01T04:08:24Z</time>
      </trkpt>
      <trkpt lat="50.196618027985096" lon="8.101317035034299">
        <ele>305.83999999999997</ele>
        <time>2018-07-01T04:08:25Z</time>
      </trkpt>
      <trkpt lat="50.197891993448138" lon="8.099951958283782">
        <ele>292.38</ele>
        <time>2018-07-01T04:08:33Z</time>
      </trkpt>
      <trkpt lat="50.198014033958316" lon="8.099755989387631">
        <ele>290.94</ele>
        <time>2018-07-01T04:08:34Z</time>
      </trkpt>
      <trkpt lat="50.198068013414741" lon="8.099577035754919">
        <ele>289.49000000000001</ele>
        <time>2018-07-01T04:08:35Z</time>
      </trkpt>
      <trkpt lat="50.198106989264488" lon="8.099371008574963">
        <ele>288.52999999999997</ele>
        <time>2018-07-01T04:08:36Z</time>
      </trkpt>
      <trkpt lat="50.198100032284856" lon="8.099159030243754">
        <ele>287.08999999999997</ele>
        <time>2018-07-01T04:08:37Z</time>
      </trkpt>
      <trkpt lat="50.198061978444457" lon="8.098937999457121">
        <ele>286.13</ele>
        <time>2018-07-01T04:08:38Z</time>
      </trkpt>
      <trkpt lat="50.198014033958316" lon="8.098661983385682">
        <ele>285.17000000000002</ele>
        <time>2018-07-01T04:08:39Z</time>
      </trkpt>
      <trkpt lat="50.197947984561324" lon="8.098510019481182">
        <ele>284.20999999999998</ele>
        <time>2018-07-01T04:08:40Z</time>
      </trkpt>
      <trkpt lat="50.197863997891545" lon="8.098318995907903">
        <ele>283.73000000000002</ele>
        <time>2018-07-01T04:08:41Z</time>
      </trkpt>
      <trkpt lat="50.197521010413766" lon="8.097530007362366">
        <ele>281.80000000000001</ele>
        <time>2018-07-01T04:08:47Z</time>
      </trkpt>
      <trkpt lat="50.197445992380381" lon="8.097516009584069">
        <ele>282.27999999999997</ele>
        <time>2018-07-01T04:08:48Z</time>
      </trkpt>
      <trkpt lat="50.197382960468531" lon="8.097556997090578">
        <ele>282.76999999999998</ele>
        <time>2018-07-01T04:08:49Z</time>
      </trkpt>
      <trkpt lat="50.197311965748668" lon="8.09760301373899">
        <ele>282.76999999999998</ele>
        <time>2018-07-01T04:08:50Z</time>
      </trkpt>
      <trkpt lat="50.197233008220792" lon="8.097653975710273">
        <ele>283.25</ele>
        <time>2018-07-01T04:08:51Z</time>
      </trkpt>
      <trkpt lat="50.196854984387755" lon="8.097898978739977">
        <ele>282.76999999999998</ele>
        <time>2018-07-01T04:08:56Z</time>
      </trkpt>
      <trkpt lat="50.19679899327457" lon="8.097935020923615">
        <ele>282.76999999999998</ele>
        <time>2018-07-01T04:08:57Z</time>
      </trkpt>
      <trkpt lat="50.196769991889596" lon="8.097953964024782">
        <ele>282.27999999999997</ele>
        <time>2018-07-01T04:08:58Z</time>
      </trkpt>
      <trkpt lat="50.196701008826494" lon="8.09786201454699">
        <ele>281.80000000000001</ele>
        <time>2018-07-01T04:08:59Z</time>
      </trkpt>
      <trkpt lat="50.196661027148366" lon="8.097809040918946">
        <ele>281.80000000000001</ele>
        <time>2018-07-01T04:09:00Z</time>
      </trkpt>
      <trkpt lat="50.196612998843193" lon="8.097745003178716">
        <ele>281.31999999999999</ele>
        <time>2018-07-01T04:09:01Z</time>
      </trkpt>
      <trkpt lat="50.196464974433184" lon="8.09754098765552">
        <ele>280.36000000000001</ele>
        <time>2018-07-01T04:09:04Z</time>
      </trkpt>
      <trkpt lat="50.196415018290281" lon="8.097465969622135">
        <ele>280.83999999999997</ele>
        <time>2018-07-01T04:09:05Z</time>
      </trkpt>
      <trkpt lat="50.196361038833857" lon="8.097387012094259">
        <ele>280.36000000000001</ele>
        <time>2018-07-01T04:09:06Z</time>
      </trkpt>
      <trkpt lat="50.196307981386781" lon="8.097306964918971">
        <ele>280.36000000000001</ele>
        <time>2018-07-01T04:09:07Z</time>
      </trkpt>
      <trkpt lat="50.196256013587117" lon="8.097232030704618">
        <ele>280.36000000000001</ele>
        <time>2018-07-01T04:09:08Z</time>
      </trkpt>
      <trkpt lat="50.195991983637214" lon="8.096841014921665">
        <ele>278.92000000000002</ele>
        <time>2018-07-01T04:09:15Z</time>
      </trkpt>
      <trkpt lat="50.195975974202156" lon="8.096816958859563">
        <ele>277.48000000000002</ele>
        <time>2018-07-01T04:09:16Z</time>
      </trkpt>
      <trkpt lat="50.19598301500082" lon="8.096802961081266">
        <ele>276.51999999999998</ele>
        <time>2018-07-01T04:09:17Z</time>
      </trkpt>
      <trkpt lat="50.196008998900652" lon="8.096755016595125">
        <ele>275.06999999999999</ele>
        <time>2018-07-01T04:09:18Z</time>
      </trkpt>
      <trkpt lat="50.196039006114006" lon="8.096698019653559">
        <ele>273.63</ele>
        <time>2018-07-01T04:09:19Z</time>
      </trkpt>
      <trkpt lat="50.196075970306993" lon="8.096629036590457">
        <ele>272.67000000000002</ele>
        <time>2018-07-01T04:09:20Z</time>
      </trkpt>
      <trkpt lat="50.196115029975772" lon="8.096556030213833">
        <ele>271.70999999999998</ele>
        <time>2018-07-01T04:09:21Z</time>
      </trkpt>
      <trkpt lat="50.196147970855236" lon="8.096495009958744">
        <ele>271.23000000000002</ele>
        <time>2018-07-01T04:09:22Z</time>
      </trkpt>
      <trkpt lat="50.196251990273595" lon="8.096165014430881">
        <ele>269.79000000000002</ele>
        <time>2018-07-01T04:09:25Z</time>
      </trkpt>
      <trkpt lat="50.196298006922007" lon="8.096023024991155">
        <ele>269.79000000000002</ele>
        <time>2018-07-01T04:09:26Z</time>
      </trkpt>
      <trkpt lat="50.196298006922007" lon="8.09592898003757">
        <ele>270.26999999999998</ele>
        <time>2018-07-01T04:09:27Z</time>
      </trkpt>
      <trkpt lat="50.196298006922007" lon="8.095808029174805">
        <ele>270.75</ele>
        <time>2018-07-01T04:09:28Z</time>
      </trkpt>
      <trkpt lat="50.196298006922007" lon="8.095682971179485">
        <ele>271.23000000000002</ele>
        <time>2018-07-01T04:09:29Z</time>
      </trkpt>
      <trkpt lat="50.196298006922007" lon="8.09543302282691">
        <ele>271.70999999999998</ele>
        <time>2018-07-01T04:09:31Z</time>
      </trkpt>
      <trkpt lat="50.196245033293962" lon="8.095278041437268">
        <ele>272.19</ele>
        <time>2018-07-01T04:09:32Z</time>
      </trkpt>
      <trkpt lat="50.196193987503648" lon="8.095159018412232">
        <ele>272.19</ele>
        <time>2018-07-01T04:09:33Z</time>
      </trkpt>
      <trkpt lat="50.196130033582449" lon="8.095038989558816">
        <ele>273.14999999999998</ele>
        <time>2018-07-01T04:09:34Z</time>
      </trkpt>
      <trkpt lat="50.196059038862586" lon="8.094927007332444">
        <ele>274.11000000000001</ele>
        <time>2018-07-01T04:09:35Z</time>
      </trkpt>
      <trkpt lat="50.195985026657581" lon="8.094812007620931">
        <ele>274.58999999999997</ele>
        <time>2018-07-01T04:09:36Z</time>
      </trkpt>
      <trkpt lat="50.195134012028575" lon="8.093747003003955">
        <ele>281.80000000000001</ele>
        <time>2018-07-01T04:09:46Z</time>
      </trkpt>
      <trkpt lat="50.1949099637568" lon="8.093418013304472">
        <ele>283.73000000000002</ele>
        <time>2018-07-01T04:09:49Z</time>
      </trkpt>
      <trkpt lat="50.194876017048955" lon="8.093268983066082">
        <ele>284.20999999999998</ele>
        <time>2018-07-01T04:09:50Z</time>
      </trkpt>
      <trkpt lat="50.194860007613897" lon="8.093117019161582">
        <ele>284.20999999999998</ele>
        <time>2018-07-01T04:09:51Z</time>
      </trkpt>
      <trkpt lat="50.194860007613897" lon="8.092960026115179">
        <ele>284.69</ele>
        <time>2018-07-01T04:09:52Z</time>
      </trkpt>
      <trkpt lat="50.194860007613897" lon="8.092795992270112">
        <ele>285.17000000000002</ele>
        <time>2018-07-01T04:09:53Z</time>
      </trkpt>
      <trkpt lat="50.194860007613897" lon="8.092622989788652">
        <ele>285.17000000000002</ele>
        <time>2018-07-01T04:09:54Z</time>
      </trkpt>
      <trkpt lat="50.194878028705716" lon="8.09244898147881">
        <ele>285.64999999999998</ele>
        <time>2018-07-01T04:09:55Z</time>
      </trkpt>
      <trkpt lat="50.194897977635264" lon="8.092268016189337">
        <ele>285.17000000000002</ele>
        <time>2018-07-01T04:09:56Z</time>
      </trkpt>
      <trkpt lat="50.194918010383844" lon="8.092085961252451">
        <ele>285.17000000000002</ele>
        <time>2018-07-01T04:09:57Z</time>
      </trkpt>
      <trkpt lat="50.195054970681667" lon="8.091535018756986">
        <ele>284.69</ele>
        <time>2018-07-01T04:10:00Z</time>
      </trkpt>
      <trkpt lat="50.195061005651951" lon="8.091341983526945">
        <ele>284.20999999999998</ele>
        <time>2018-07-01T04:10:01Z</time>
      </trkpt>
      <trkpt lat="50.195067962631583" lon="8.091160012409091">
        <ele>284.20999999999998</ele>
        <time>2018-07-01T04:10:02Z</time>
      </trkpt>
      <trkpt lat="50.194969978183508" lon="8.08909697458148">
        <ele>284.20999999999998</ele>
        <time>2018-07-01T04:10:13Z</time>
      </trkpt>
      <trkpt lat="50.194878028705716" lon="8.088499009609222">
        <ele>284.20999999999998</ele>
        <time>2018-07-01T04:10:16Z</time>
      </trkpt>
      <trkpt lat="50.19482396543026" lon="8.08829901739955">
        <ele>284.20999999999998</ele>
        <time>2018-07-01T04:10:17Z</time>
      </trkpt>
      <trkpt lat="50.194204039871693" lon="8.0860860273242">
        <ele>281.80000000000001</ele>
        <time>2018-07-01T04:10:27Z</time>
      </trkpt>
      <trkpt lat="50.193566009402275" lon="8.083836995065212">
        <ele>281.31999999999999</ele>
        <time>2018-07-01T04:10:35Z</time>
      </trkpt>
      <trkpt lat="50.193288987502456" lon="8.082749024033546">
        <ele>279.88</ele>
        <time>2018-07-01T04:10:39Z</time>
      </trkpt>
      <trkpt lat="50.193235008046031" lon="8.082508966326714">
        <ele>279.39999999999998</ele>
        <time>2018-07-01T04:10:40Z</time>
      </trkpt>
      <trkpt lat="50.193011965602636" lon="8.080353979021311">
        <ele>273.14999999999998</ele>
        <time>2018-07-01T04:10:48Z</time>
      </trkpt>
      <trkpt lat="50.19286997616291" lon="8.077868996188045">
        <ele>267.86000000000001</ele>
        <time>2018-07-01T04:10:56Z</time>
      </trkpt>
      <trkpt lat="50.192733015865088" lon="8.076736014336348">
        <ele>265.45999999999998</ele>
        <time>2018-07-01T04:11:00Z</time>
      </trkpt>
      <trkpt lat="50.192652968689799" lon="8.076470978558064">
        <ele>264.98000000000002</ele>
        <time>2018-07-01T04:11:01Z</time>
      </trkpt>
      <trkpt lat="50.191892981529236" lon="8.073945008218288">
        <ele>260.17000000000002</ele>
        <time>2018-07-01T04:11:10Z</time>
      </trkpt>
      <trkpt lat="50.191701035946608" lon="8.073418037965894">
        <ele>260.64999999999998</ele>
        <time>2018-07-01T04:11:12Z</time>
      </trkpt>
      <trkpt lat="50.191560974344611" lon="8.073201030492783">
        <ele>260.64999999999998</ele>
        <time>2018-07-01T04:11:13Z</time>
      </trkpt>
      <trkpt lat="50.190853960812092" lon="8.071614000946283">
        <ele>259.69</ele>
        <time>2018-07-01T04:11:19Z</time>
      </trkpt>
      <trkpt lat="50.190725969150662" lon="8.07137000374496">
        <ele>259.69</ele>
        <time>2018-07-01T04:11:20Z</time>
      </trkpt>
      <trkpt lat="50.190465040504932" lon="8.070922996848822">
        <ele>258.73000000000002</ele>
        <time>2018-07-01T04:11:22Z</time>
      </trkpt>
      <trkpt lat="50.190339982509613" lon="8.070709006860852">
        <ele>258.73000000000002</ele>
        <time>2018-07-01T04:11:23Z</time>
      </trkpt>
      <trkpt lat="50.190241998061538" lon="8.070439025759697">
        <ele>258.25</ele>
        <time>2018-07-01T04:11:24Z</time>
      </trkpt>
      <trkpt lat="50.190157005563378" lon="8.070167033001781">
        <ele>258.25</ele>
        <time>2018-07-01T04:11:25Z</time>
      </trkpt>
      <trkpt lat="50.190072013065219" lon="8.069897973909974">
        <ele>258.25</ele>
        <time>2018-07-01T04:11:26Z</time>
      </trkpt>
      <trkpt lat="50.18972902558744" lon="8.068801034241915">
        <ele>258.25</ele>
        <time>2018-07-01T04:11:30Z</time>
      </trkpt>
      <trkpt lat="50.189671022817492" lon="8.068529041483998">
        <ele>258.25</ele>
        <time>2018-07-01T04:11:31Z</time>
      </trkpt>
      <trkpt lat="50.189656019210815" lon="8.068229975178838">
        <ele>258.25</ele>
        <time>2018-07-01T04:11:32Z</time>
      </trkpt>
      <trkpt lat="50.189620982855558" lon="8.067336967214942">
        <ele>257.76999999999998</ele>
        <time>2018-07-01T04:11:35Z</time>
      </trkpt>
      <trkpt lat="50.189608996734023" lon="8.067042008042336">
        <ele>257.29000000000002</ele>
        <time>2018-07-01T04:11:36Z</time>
      </trkpt>
      <trkpt lat="50.189582007005811" lon="8.066230975091457">
        <ele>255.37</ele>
        <time>2018-07-01T04:11:39Z</time>
      </trkpt>
      <trkpt lat="50.189602039754391" lon="8.065979015082121">
        <ele>254.88999999999999</ele>
        <time>2018-07-01T04:11:40Z</time>
      </trkpt>
      <trkpt lat="50.189655013382435" lon="8.065753038972616">
        <ele>254.41</ele>
        <time>2018-07-01T04:11:41Z</time>
      </trkpt>
      <trkpt lat="50.189704969525337" lon="8.065537959337235">
        <ele>253.93000000000001</ele>
        <time>2018-07-01T04:11:42Z</time>
      </trkpt>
      <trkpt lat="50.189717039465904" lon="8.065291028469801">
        <ele>253.44</ele>
        <time>2018-07-01T04:11:43Z</time>
      </trkpt>
      <trkpt lat="50.18968703225255" lon="8.065035967156291">
        <ele>252.96000000000001</ele>
        <time>2018-07-01T04:11:44Z</time>
      </trkpt>
      <trkpt lat="50.189657025039196" lon="8.064766991883516">
        <ele>252.47999999999999</ele>
        <time>2018-07-01T04:11:45Z</time>
      </trkpt>
      <trkpt lat="50.18966699950397" lon="8.064489969983697">
        <ele>252</ele>
        <time>2018-07-01T04:11:46Z</time>
      </trkpt>
      <trkpt lat="50.189698012545705" lon="8.064212026074529">
        <ele>251.52000000000001</ele>
        <time>2018-07-01T04:11:47Z</time>
      </trkpt>
      <trkpt lat="50.189750986173749" lon="8.063699975609779">
        <ele>250.56</ele>
        <time>2018-07-01T04:11:49Z</time>
      </trkpt>
      <trkpt lat="50.189735982567072" lon="8.063487997278571">
        <ele>250.08000000000001</ele>
        <time>2018-07-01T04:11:50Z</time>
      </trkpt>
      <trkpt lat="50.189717961475253" lon="8.063317006453872">
        <ele>249.59999999999999</ele>
        <time>2018-07-01T04:11:51Z</time>
      </trkpt>
      <trkpt lat="50.189702035859227" lon="8.063179962337017">
        <ele>249.12</ele>
        <time>2018-07-01T04:11:52Z</time>
      </trkpt>
      <trkpt lat="50.189688038080931" lon="8.063067980110645">
        <ele>248.63999999999999</ele>
        <time>2018-07-01T04:11:53Z</time>
      </trkpt>
      <trkpt lat="50.189676973968744" lon="8.062974018976092">
        <ele>248.16</ele>
        <time>2018-07-01T04:11:54Z</time>
      </trkpt>
      <trkpt lat="50.189656019210815" lon="8.062805961817503">
        <ele>246.72</ele>
        <time>2018-07-01T04:11:56Z</time>
      </trkpt>
      <trkpt lat="50.189691977575421" lon="8.062667995691299">
        <ele>246.72</ele>
        <time>2018-07-01T04:11:57Z</time>
      </trkpt>
      <trkpt lat="50.189760960638523" lon="8.062589038163424">
        <ele>246.22999999999999</ele>
        <time>2018-07-01T04:11:58Z</time>
      </trkpt>
      <trkpt lat="50.189878977835178" lon="8.062503039836884">
        <ele>246.22999999999999</ele>
        <time>2018-07-01T04:11:59Z</time>
      </trkpt>
      <trkpt lat="50.190005041658878" lon="8.062434978783131">
        <ele>245.75</ele>
        <time>2018-07-01T04:12:00Z</time>
      </trkpt>
      <trkpt lat="50.190162034705281" lon="8.062408994883299">
        <ele>245.75</ele>
        <time>2018-07-01T04:12:01Z</time>
      </trkpt>
      <trkpt lat="50.190327996388078" lon="8.062393991276622">
        <ele>246.22999999999999</ele>
        <time>2018-07-01T04:12:02Z</time>
      </trkpt>
      <trkpt lat="50.190506028011441" lon="8.062378987669945">
        <ele>246.22999999999999</ele>
        <time>2018-07-01T04:12:03Z</time>
      </trkpt>
      <trkpt lat="50.190697973594069" lon="8.062445959076285">
        <ele>246.22999999999999</ele>
        <time>2018-07-01T04:12:04Z</time>
      </trkpt>
      <trkpt lat="50.190884973853827" lon="8.062520977109671">
        <ele>246.22999999999999</ele>
        <time>2018-07-01T04:12:05Z</time>
      </trkpt>
      <trkpt lat="50.191081026569009" lon="8.062599012628198">
        <ele>246.22999999999999</ele>
        <time>2018-07-01T04:12:06Z</time>
      </trkpt>
      <trkpt lat="50.191284036263824" lon="8.062696997076273">
        <ele>246.72</ele>
        <time>2018-07-01T04:12:07Z</time>
      </trkpt>
      <trkpt lat="50.192162040621042" lon="8.063084995374084">
        <ele>247.68000000000001</ele>
        <time>2018-07-01T04:12:11Z</time>
      </trkpt>
      <trkpt lat="50.192392040044069" lon="8.063107039779425">
        <ele>248.16</ele>
        <time>2018-07-01T04:12:12Z</time>
      </trkpt>
      <trkpt lat="50.192621033638716" lon="8.063107039779425">
        <ele>248.63999999999999</ele>
        <time>2018-07-01T04:12:13Z</time>
      </trkpt>
      <trkpt lat="50.192835023626685" lon="8.06307602673769">
        <ele>249.12</ele>
        <time>2018-07-01T04:12:14Z</time>
      </trkpt>
      <trkpt lat="50.193045996129513" lon="8.063009977340698">
        <ele>249.59999999999999</ele>
        <time>2018-07-01T04:12:15Z</time>
      </trkpt>
      <trkpt lat="50.193243976682425" lon="8.062889026477933">
        <ele>249.59999999999999</ele>
        <time>2018-07-01T04:12:16Z</time>
      </trkpt>
      <trkpt lat="50.193438017740846" lon="8.062747959047556">
        <ele>249.59999999999999</ele>
        <time>2018-07-01T04:12:17Z</time>
      </trkpt>
      <trkpt lat="50.193622000515461" lon="8.06256297044456">
        <ele>250.08000000000001</ele>
        <time>2018-07-01T04:12:18Z</time>
      </trkpt>
      <trkpt lat="50.19379198551178" lon="8.062345962971449">
        <ele>250.56</ele>
        <time>2018-07-01T04:12:19Z</time>
      </trkpt>
      <trkpt lat="50.193956019356847" lon="8.062095008790493">
        <ele>250.56</ele>
        <time>2018-07-01T04:12:20Z</time>
      </trkpt>
      <trkpt lat="50.194118041545153" lon="8.061842964962125">
        <ele>250.56</ele>
        <time>2018-07-01T04:12:21Z</time>
      </trkpt>
      <trkpt lat="50.194258019328117" lon="8.061549011617899">
        <ele>251.03999999999999</ele>
        <time>2018-07-01T04:12:22Z</time>
      </trkpt>
      <trkpt lat="50.194377964362502" lon="8.061239970847964">
        <ele>251.03999999999999</ele>
        <time>2018-07-01T04:12:23Z</time>
      </trkpt>
      <trkpt lat="50.194481983780861" lon="8.060907041653991">
        <ele>251.03999999999999</ele>
        <time>2018-07-01T04:12:24Z</time>
      </trkpt>
      <trkpt lat="50.194572005420923" lon="8.060575034469366">
        <ele>251.52000000000001</ele>
        <time>2018-07-01T04:12:25Z</time>
      </trkpt>
      <trkpt lat="50.194623973220587" lon="8.060215031728149">
        <ele>251.52000000000001</ele>
        <time>2018-07-01T04:12:26Z</time>
      </trkpt>
      <trkpt lat="50.194674013182521" lon="8.059868020936847">
        <ele>251.52000000000001</ele>
        <time>2018-07-01T04:12:27Z</time>
      </trkpt>
      <trkpt lat="50.194722041487694" lon="8.059541964903474">
        <ele>251.03999999999999</ele>
        <time>2018-07-01T04:12:28Z</time>
      </trkpt>
      <trkpt lat="50.194816002622247" lon="8.05891097523272">
        <ele>251.03999999999999</ele>
        <time>2018-07-01T04:12:30Z</time>
      </trkpt>
      <trkpt lat="50.194868976250291" lon="8.058606963604689">
        <ele>250.56</ele>
        <time>2018-07-01T04:12:31Z</time>
      </trkpt>
      <trkpt lat="50.194946005940437" lon="8.058344023302198">
        <ele>250.08000000000001</ele>
        <time>2018-07-01T04:12:32Z</time>
      </trkpt>
      <trkpt lat="50.195009959861636" lon="8.058149982243776">
        <ele>250.08000000000001</ele>
        <time>2018-07-01T04:12:33Z</time>
      </trkpt>
      <trkpt lat="50.195143986493349" lon="8.057976979762316">
        <ele>249.59999999999999</ele>
        <time>2018-07-01T04:12:34Z</time>
      </trkpt>
      <trkpt lat="50.195267032831907" lon="8.057846976444125">
        <ele>249.12</ele>
        <time>2018-07-01T04:12:35Z</time>
      </trkpt>
      <trkpt lat="50.195431988686323" lon="8.057755026966333">
        <ele>249.12</ele>
        <time>2018-07-01T04:12:36Z</time>
      </trkpt>
      <trkpt lat="50.195614965632558" lon="8.057652013376355">
        <ele>248.63999999999999</ele>
        <time>2018-07-01T04:12:37Z</time>
      </trkpt>
      <trkpt lat="50.195805989205837" lon="8.05755696259439">
        <ele>248.63999999999999</ele>
        <time>2018-07-01T04:12:38Z</time>
      </trkpt>
      <trkpt lat="50.196221983060241" lon="8.057429976761341">
        <ele>247.19999999999999</ele>
        <time>2018-07-01T04:12:40Z</time>
      </trkpt>
      <trkpt lat="50.196424992755055" lon="8.057420002296567">
        <ele>247.19999999999999</ele>
        <time>2018-07-01T04:12:41Z</time>
      </trkpt>
      <trkpt lat="50.196625990793109" lon="8.057456966489554">
        <ele>246.72</ele>
        <time>2018-07-01T04:12:42Z</time>
      </trkpt>
      <trkpt lat="50.196837969124317" lon="8.057507006451488">
        <ele>246.72</ele>
        <time>2018-07-01T04:12:43Z</time>
      </trkpt>
      <trkpt lat="50.197046007961035" lon="8.057567020878196">
        <ele>246.22999999999999</ele>
        <time>2018-07-01T04:12:44Z</time>
      </trkpt>
      <trkpt lat="50.197703987360001" lon="8.057713033631444">
        <ele>245.27000000000001</ele>
        <time>2018-07-01T04:12:48Z</time>
      </trkpt>
      <trkpt lat="50.197811024263501" lon="8.057644972577691">
        <ele>244.78999999999999</ele>
        <time>2018-07-01T04:12:49Z</time>
      </trkpt>
      <trkpt lat="50.197912026196718" lon="8.057581018656492">
        <ele>244.31</ele>
        <time>2018-07-01T04:12:50Z</time>
      </trkpt>
      <trkpt lat="50.197984026744962" lon="8.057460989803076">
        <ele>243.83000000000001</ele>
        <time>2018-07-01T04:12:51Z</time>
      </trkpt>
      <trkpt lat="50.198054015636444" lon="8.057320006191731">
        <ele>243.34999999999999</ele>
        <time>2018-07-01T04:12:52Z</time>
      </trkpt>
      <trkpt lat="50.198101038113236" lon="8.057152032852173">
        <ele>242.87</ele>
        <time>2018-07-01T04:12:53Z</time>
      </trkpt>
      <trkpt lat="50.198143031448126" lon="8.056931002065539">
        <ele>242.87</ele>
        <time>2018-07-01T04:12:54Z</time>
      </trkpt>
      <trkpt lat="50.198169015347958" lon="8.056691028177738">
        <ele>242.38999999999999</ele>
        <time>2018-07-01T04:12:55Z</time>
      </trkpt>
      <trkpt lat="50.198176978155971" lon="8.056417023763061">
        <ele>241.91</ele>
        <time>2018-07-01T04:12:56Z</time>
      </trkpt>
      <trkpt lat="50.198184018954635" lon="8.056129021570087">
        <ele>241.91</ele>
        <time>2018-07-01T04:12:57Z</time>
      </trkpt>
      <trkpt lat="50.198072958737612" lon="8.054588008671999">
        <ele>239.50999999999999</ele>
        <time>2018-07-01T04:13:03Z</time>
      </trkpt>
      <trkpt lat="50.198059966787696" lon="8.05437401868403">
        <ele>238.53999999999999</ele>
        <time>2018-07-01T04:13:04Z</time>
      </trkpt>
      <trkpt lat="50.198014033958316" lon="8.054179977625608">
        <ele>238.06</ele>
        <time>2018-07-01T04:13:05Z</time>
      </trkpt>
      <trkpt lat="50.197906997054815" lon="8.053998006507754">
        <ele>237.58000000000001</ele>
        <time>2018-07-01T04:13:06Z</time>
      </trkpt>
      <trkpt lat="50.197814041748643" lon="8.053840007632971">
        <ele>237.09999999999999</ele>
        <time>2018-07-01T04:13:07Z</time>
      </trkpt>
      <trkpt lat="50.197708010673523" lon="8.053700029850006">
        <ele>236.62</ele>
        <time>2018-07-01T04:13:08Z</time>
      </trkpt>
      <trkpt lat="50.197306014597416" lon="8.05319300852716">
        <ele>236.13999999999999</ele>
        <time>2018-07-01T04:13:12Z</time>
      </trkpt>
      <trkpt lat="50.197244994342327" lon="8.052977006882429">
        <ele>236.13999999999999</ele>
        <time>2018-07-01T04:13:13Z</time>
      </trkpt>
      <trkpt lat="50.19720702432096" lon="8.052784977480769">
        <ele>235.66</ele>
        <time>2018-07-01T04:13:14Z</time>
      </trkpt>
      <trkpt lat="50.197215992957354" lon="8.052594037726522">
        <ele>235.18000000000001</ele>
        <time>2018-07-01T04:13:15Z</time>
      </trkpt>
      <trkpt lat="50.197244994342327" lon="8.052393039688468">
        <ele>235.18000000000001</ele>
        <time>2018-07-01T04:13:16Z</time>
      </trkpt>
      <trkpt lat="50.197333004325628" lon="8.052225988358259">
        <ele>234.69999999999999</ele>
        <time>2018-07-01T04:13:17Z</time>
      </trkpt>
      <trkpt lat="50.197425037622452" lon="8.052048962563276">
        <ele>234.22</ele>
        <time>2018-07-01T04:13:18Z</time>
      </trkpt>
      <trkpt lat="50.197525033727288" lon="8.051864979788661">
        <ele>234.22</ele>
        <time>2018-07-01T04:13:19Z</time>
      </trkpt>
      <trkpt lat="50.198248978704214" lon="8.050276022404432">
        <ele>231.33000000000001</ele>
        <time>2018-07-01T04:13:26Z</time>
      </trkpt>
      <trkpt lat="50.198437990620732" lon="8.049795990809798">
        <ele>230.37</ele>
        <time>2018-07-01T04:13:28Z</time>
      </trkpt>
      <trkpt lat="50.198576040565968" lon="8.049660958349705">
        <ele>229.88999999999999</ele>
        <time>2018-07-01T04:13:29Z</time>
      </trkpt>
      <trkpt lat="50.19871199503541" lon="8.049556016921997">
        <ele>229.41</ele>
        <time>2018-07-01T04:13:30Z</time>
      </trkpt>
      <trkpt lat="50.198881980031729" lon="8.049499019980431">
        <ele>228.93000000000001</ele>
        <time>2018-07-01T04:13:31Z</time>
      </trkpt>
      <trkpt lat="50.199064034968615" lon="8.049458032473922">
        <ele>228.44999999999999</ele>
        <time>2018-07-01T04:13:32Z</time>
      </trkpt>
      <trkpt lat="50.199852017685771" lon="8.049315037205815">
        <ele>227.49000000000001</ele>
        <time>2018-07-01T04:13:36Z</time>
      </trkpt>
      <trkpt lat="50.20004304125905" lon="8.049280000850558">
        <ele>227.00999999999999</ele>
        <time>2018-07-01T04:13:37Z</time>
      </trkpt>
      <trkpt lat="50.200243033468723" lon="8.049315959215164">
        <ele>226.53</ele>
        <time>2018-07-01T04:13:38Z</time>
      </trkpt>
      <trkpt lat="50.200436990708113" lon="8.04939198307693">
        <ele>226.05000000000001</ele>
        <time>2018-07-01T04:13:39Z</time>
      </trkpt>
      <trkpt lat="50.200634971261024" lon="8.049470018595457">
        <ele>225.56999999999999</ele>
        <time>2018-07-01T04:13:40Z</time>
      </trkpt>
      <trkpt lat="50.200825994834304" lon="8.049514023587108">
        <ele>225.09</ele>
        <time>2018-07-01T04:13:41Z</time>
      </trkpt>
      <trkpt lat="50.201006960123777" lon="8.049533972516656">
        <ele>225.09</ele>
        <time>2018-07-01T04:13:42Z</time>
      </trkpt>
      <trkpt lat="50.20116101950407" lon="8.049507988616824">
        <ele>224.61000000000001</ele>
        <time>2018-07-01T04:13:43Z</time>
      </trkpt>
      <trkpt lat="50.201299991458654" lon="8.049415033310652">
        <ele>224.61000000000001</ele>
        <time>2018-07-01T04:13:44Z</time>
      </trkpt>
      <trkpt lat="50.201424965634942" lon="8.049258040264249">
        <ele>224.61000000000001</ele>
        <time>2018-07-01T04:13:45Z</time>
      </trkpt>
      <trkpt lat="50.201533008366823" lon="8.049042960628867">
        <ele>224.61000000000001</ele>
        <time>2018-07-01T04:13:46Z</time>
      </trkpt>
      <trkpt lat="50.201640967279673" lon="8.048804998397827">
        <ele>224.61000000000001</ele>
        <time>2018-07-01T04:13:47Z</time>
      </trkpt>
      <trkpt lat="50.201753033325076" lon="8.04855496622622">
        <ele>224.61000000000001</ele>
        <time>2018-07-01T04:13:48Z</time>
      </trkpt>
      <trkpt lat="50.20223499275744" lon="8.04728401824832">
        <ele>224.12</ele>
        <time>2018-07-01T04:13:53Z</time>
      </trkpt>
      <trkpt lat="50.202272040769458" lon="8.047000039368868">
        <ele>224.12</ele>
        <time>2018-07-01T04:13:54Z</time>
      </trkpt>
      <trkpt lat="50.202284026890993" lon="8.046411965042353">
        <ele>224.12</ele>
        <time>2018-07-01T04:13:56Z</time>
      </trkpt>
      <trkpt lat="50.202231975272298" lon="8.046137038618326">
        <ele>224.12</ele>
        <time>2018-07-01T04:13:57Z</time>
      </trkpt>
      <trkpt lat="50.202176989987493" lon="8.045876026153565">
        <ele>223.63999999999999</ele>
        <time>2018-07-01T04:13:58Z</time>
      </trkpt>
      <trkpt lat="50.202065007761121" lon="8.045599004253745">
        <ele>224.12</ele>
        <time>2018-07-01T04:13:59Z</time>
      </trkpt>
      <trkpt lat="50.20195696502924" lon="8.04533296264708">
        <ele>224.12</ele>
        <time>2018-07-01T04:14:00Z</time>
      </trkpt>
      <trkpt lat="50.201838025823236" lon="8.045099023729563">
        <ele>224.12</ele>
        <time>2018-07-01T04:14:01Z</time>
      </trkpt>
      <trkpt lat="50.201699975878" lon="8.044891990721226">
        <ele>224.12</ele>
        <time>2018-07-01T04:14:02Z</time>
      </trkpt>
      <trkpt lat="50.201562009751797" lon="8.044714964926243">
        <ele>224.12</ele>
        <time>2018-07-01T04:14:03Z</time>
      </trkpt>
      <trkpt lat="50.201422031968832" lon="8.044558977708221">
        <ele>224.12</ele>
        <time>2018-07-01T04:14:04Z</time>
      </trkpt>
      <trkpt lat="50.201288005337119" lon="8.044409025460482">
        <ele>223.63999999999999</ele>
        <time>2018-07-01T04:14:05Z</time>
      </trkpt>
      <trkpt lat="50.201163031160831" lon="8.044264018535614">
        <ele>223.63999999999999</ele>
        <time>2018-07-01T04:14:06Z</time>
      </trkpt>
      <trkpt lat="50.201086001470685" lon="8.044063020497561">
        <ele>223.63999999999999</ele>
        <time>2018-07-01T04:14:07Z</time>
      </trkpt>
      <trkpt lat="50.201019030064344" lon="8.043861016631126">
        <ele>223.63999999999999</ele>
        <time>2018-07-01T04:14:08Z</time>
      </trkpt>
      <trkpt lat="50.201006960123777" lon="8.043622970581055">
        <ele>223.16</ele>
        <time>2018-07-01T04:14:09Z</time>
      </trkpt>
      <trkpt lat="50.201006038114429" lon="8.043370004743338">
        <ele>223.16</ele>
        <time>2018-07-01T04:14:10Z</time>
      </trkpt>
      <trkpt lat="50.201065968722105" lon="8.043126007542014">
        <ele>222.19999999999999</ele>
        <time>2018-07-01T04:14:11Z</time>
      </trkpt>
      <trkpt lat="50.201116008684039" lon="8.04285996593535">
        <ele>221.72</ele>
        <time>2018-07-01T04:14:12Z</time>
      </trkpt>
      <trkpt lat="50.201167976483703" lon="8.042582022026181">
        <ele>221.24000000000001</ele>
        <time>2018-07-01T04:14:13Z</time>
      </trkpt>
      <trkpt lat="50.201625041663647" lon="8.04013098590076">
        <ele>219.31999999999999</ele>
        <time>2018-07-01T04:14:21Z</time>
      </trkpt>
      <trkpt lat="50.202014967799187" lon="8.038288978859782">
        <ele>218.84</ele>
        <time>2018-07-01T04:14:29Z</time>
      </trkpt>
      <trkpt lat="50.202096020802855" lon="8.038007011637092">
        <ele>219.31999999999999</ele>
        <time>2018-07-01T04:14:31Z</time>
      </trkpt>
      <trkpt lat="50.202124016359448" lon="8.037907015532255">
        <ele>219.80000000000001</ele>
        <time>2018-07-01T04:14:32Z</time>
      </trkpt>
      <trkpt lat="50.20204103551805" lon="8.037642985582352">
        <ele>219.80000000000001</ele>
        <time>2018-07-01T04:14:33Z</time>
      </trkpt>
      <trkpt lat="50.201920000836253" lon="8.037571990862489">
        <ele>219.80000000000001</ele>
        <time>2018-07-01T04:14:34Z</time>
      </trkpt>
      <trkpt lat="50.201855963096023" lon="8.037525974214077">
        <ele>219.80000000000001</ele>
        <time>2018-07-01T04:14:35Z</time>
      </trkpt>
      <trkpt lat="50.201754961162806" lon="8.037451039999723">
        <ele>219.80000000000001</ele>
        <time>2018-07-01T04:14:36Z</time>
      </trkpt>
      <trkpt lat="50.201666029170156" lon="8.037385996431112">
        <ele>219.31999999999999</ele>
        <time>2018-07-01T04:14:37Z</time>
      </trkpt>
      <trkpt lat="50.20159101113677" lon="8.037309972569346">
        <ele>218.84</ele>
        <time>2018-07-01T04:14:38Z</time>
      </trkpt>
      <trkpt lat="50.2015670388937" lon="8.037213999778032">
        <ele>218.84</ele>
        <time>2018-07-01T04:14:39Z</time>
      </trkpt>
      <trkpt lat="50.2015670388937" lon="8.037120960652828">
        <ele>218.36000000000001</ele>
        <time>2018-07-01T04:14:40Z</time>
      </trkpt>
      <trkpt lat="50.201597968116403" lon="8.037011995911598">
        <ele>218.36000000000001</ele>
        <time>2018-07-01T04:14:41Z</time>
      </trkpt>
      <trkpt lat="50.201637027785182" lon="8.036877969279885">
        <ele>218.36000000000001</ele>
        <time>2018-07-01T04:14:42Z</time>
      </trkpt>
      <trkpt lat="50.201694024726748" lon="8.036727011203766">
        <ele>218.36000000000001</ele>
        <time>2018-07-01T04:14:43Z</time>
      </trkpt>
      <trkpt lat="50.201760996133089" lon="8.036553002893925">
        <ele>218.84</ele>
        <time>2018-07-01T04:14:44Z</time>
      </trkpt>
      <trkpt lat="50.202036006376147" lon="8.035696959123015">
        <ele>220.75999999999999</ele>
        <time>2018-07-01T04:14:48Z</time>
      </trkpt>
      <trkpt lat="50.202099038287997" lon="8.03546997718513">
        <ele>221.24000000000001</ele>
        <time>2018-07-01T04:14:49Z</time>
      </trkpt>
      <trkpt lat="50.202177995815873" lon="8.035257998853922">
        <ele>221.72</ele>
        <time>2018-07-01T04:14:50Z</time>
      </trkpt>
      <trkpt lat="50.202275980263948" lon="8.035076027736068">
        <ele>222.19999999999999</ele>
        <time>2018-07-01T04:14:51Z</time>
      </trkpt>
      <trkpt lat="50.202399026602507" lon="8.034961028024554">
        <ele>222.68000000000001</ele>
        <time>2018-07-01T04:14:52Z</time>
      </trkpt>
      <trkpt lat="50.202533975243568" lon="8.034892966970801">
        <ele>222.68000000000001</ele>
        <time>2018-07-01T04:14:53Z</time>
      </trkpt>
      <trkpt lat="50.2026860229671" lon="8.034857008606195">
        <ele>223.16</ele>
        <time>2018-07-01T04:14:54Z</time>
      </trkpt>
      <trkpt lat="50.202847961336374" lon="8.034820966422558">
        <ele>224.12</ele>
        <time>2018-07-01T04:14:55Z</time>
      </trkpt>
      <trkpt lat="50.203020963817835" lon="8.034792970865965">
        <ele>224.61000000000001</ele>
        <time>2018-07-01T04:14:56Z</time>
      </trkpt>
      <trkpt lat="50.204119998961687" lon="8.034428022801876">
        <ele>227.97</ele>
        <time>2018-07-01T04:15:02Z</time>
      </trkpt>
      <trkpt lat="50.204300964251161" lon="8.03433196619153">
        <ele>228.44999999999999</ele>
        <time>2018-07-01T04:15:03Z</time>
      </trkpt>
      <trkpt lat="50.204429961740971" lon="8.034171033650637">
        <ele>228.93000000000001</ele>
        <time>2018-07-01T04:15:04Z</time>
      </trkpt>
      <trkpt lat="50.205020969733596" lon="8.033410040661693">
        <ele>232.30000000000001</ele>
        <time>2018-07-01T04:15:08Z</time>
      </trkpt>
      <trkpt lat="50.205955971032381" lon="8.032237999141216">
        <ele>239.02000000000001</ele>
        <time>2018-07-01T04:15:14Z</time>
      </trkpt>
      <trkpt lat="50.206130985170603" lon="8.032067008316517">
        <ele>240.47</ele>
        <time>2018-07-01T04:15:15Z</time>
      </trkpt>
      <trkpt lat="50.207013012841344" lon="8.031206019222736">
        <ele>245.75</ele>
        <time>2018-07-01T04:15:20Z</time>
      </trkpt>
      <trkpt lat="50.207189032807946" lon="8.031034022569656">
        <ele>246.72</ele>
        <time>2018-07-01T04:15:21Z</time>
      </trkpt>
      <trkpt lat="50.207361029461026" lon="8.030865965411067">
        <ele>247.19999999999999</ele>
        <time>2018-07-01T04:15:22Z</time>
      </trkpt>
      <trkpt lat="50.20820802077651" lon="8.03003397770226">
        <ele>251.03999999999999</ele>
        <time>2018-07-01T04:15:28Z</time>
      </trkpt>
      <trkpt lat="50.208245990797877" lon="8.029881007969379">
        <ele>251.52000000000001</ele>
        <time>2018-07-01T04:15:29Z</time>
      </trkpt>
      <trkpt lat="50.20829301327467" lon="8.029697025194764">
        <ele>252.47999999999999</ele>
        <time>2018-07-01T04:15:30Z</time>
      </trkpt>
      <trkpt lat="50.208533992990851" lon="8.028074959293008">
        <ele>258.73000000000002</ele>
        <time>2018-07-01T04:15:36Z</time>
      </trkpt>
      <trkpt lat="50.2086800057441" lon="8.026706026867032">
        <ele>265.45999999999998</ele>
        <time>2018-07-01T04:15:41Z</time>
      </trkpt>
      <trkpt lat="50.208721999078989" lon="8.026478039100766">
        <ele>266.42000000000002</ele>
        <time>2018-07-01T04:15:42Z</time>
      </trkpt>
      <trkpt lat="50.208803974092007" lon="8.026319034397602">
        <ele>266.89999999999998</ele>
        <time>2018-07-01T04:15:43Z</time>
      </trkpt>
      <trkpt lat="50.209021987393498" lon="8.025899017229676">
        <ele>268.82999999999998</ele>
        <time>2018-07-01T04:15:45Z</time>
      </trkpt>
      <trkpt lat="50.209075966849923" lon="8.025706987828016">
        <ele>269.79000000000002</ele>
        <time>2018-07-01T04:15:46Z</time>
      </trkpt>
      <trkpt lat="50.209250980988145" lon="8.025088990107179">
        <ele>272.67000000000002</ele>
        <time>2018-07-01T04:15:49Z</time>
      </trkpt>
      <trkpt lat="50.209301020950079" lon="8.024911964312196">
        <ele>273.63</ele>
        <time>2018-07-01T04:15:50Z</time>
      </trkpt>
      <trkpt lat="50.209387019276619" lon="8.024719012901187">
        <ele>274.58999999999997</ele>
        <time>2018-07-01T04:15:51Z</time>
      </trkpt>
      <trkpt lat="50.209443010389805" lon="8.024680959060788">
        <ele>275.56</ele>
        <time>2018-07-01T04:15:52Z</time>
      </trkpt>
      <trkpt lat="50.209572007879615" lon="8.024653969332576">
        <ele>276.51999999999998</ele>
        <time>2018-07-01T04:15:53Z</time>
      </trkpt>
      <trkpt lat="50.209683990105987" lon="8.024696968495846">
        <ele>277.48000000000002</ele>
        <time>2018-07-01T04:15:54Z</time>
      </trkpt>
      <trkpt lat="50.2097989898175" lon="8.024740973487496">
        <ele>278.92000000000002</ele>
        <time>2018-07-01T04:15:55Z</time>
      </trkpt>
      <trkpt lat="50.209902003407478" lon="8.024780033156276">
        <ele>280.36000000000001</ele>
        <time>2018-07-01T04:15:56Z</time>
      </trkpt>
      <trkpt lat="50.210020020604134" lon="8.024953035637736">
        <ele>281.31999999999999</ele>
        <time>2018-07-01T04:15:57Z</time>
      </trkpt>
      <trkpt lat="50.210067965090275" lon="8.025158978998661">
        <ele>282.27999999999997</ele>
        <time>2018-07-01T04:15:58Z</time>
      </trkpt>
      <trkpt lat="50.210095038637519" lon="8.025354025885463">
        <ele>283.73000000000002</ele>
        <time>2018-07-01T04:15:59Z</time>
      </trkpt>
      <trkpt lat="50.210124040022492" lon="8.025561980903149">
        <ele>285.17000000000002</ele>
        <time>2018-07-01T04:16:00Z</time>
      </trkpt>
      <trkpt lat="50.210154969245195" lon="8.025785023346543">
        <ele>286.61000000000001</ele>
        <time>2018-07-01T04:16:01Z</time>
      </trkpt>
      <trkpt lat="50.210176007822156" lon="8.026063973084092">
        <ele>287.56999999999999</ele>
        <time>2018-07-01T04:16:02Z</time>
      </trkpt>
      <trkpt lat="50.210154969245195" lon="8.02691699936986">
        <ele>293.33999999999997</ele>
        <time>2018-07-01T04:16:06Z</time>
      </trkpt>
      <trkpt lat="50.210192017257214" lon="8.027082039043307">
        <ele>294.77999999999997</ele>
        <time>2018-07-01T04:16:07Z</time>
      </trkpt>
      <trkpt lat="50.21027198061347" lon="8.027266021817923">
        <ele>296.69999999999999</ele>
        <time>2018-07-01T04:16:08Z</time>
      </trkpt>
      <trkpt lat="50.210371976718307" lon="8.02745302207768">
        <ele>298.63</ele>
        <time>2018-07-01T04:16:09Z</time>
      </trkpt>
      <trkpt lat="50.210518995299935" lon="8.027638010680676">
        <ele>301.02999999999997</ele>
        <time>2018-07-01T04:16:10Z</time>
      </trkpt>
      <trkpt lat="50.210805991664529" lon="8.027999019250274">
        <ele>305.83999999999997</ele>
        <time>2018-07-01T04:16:12Z</time>
      </trkpt>
      <trkpt lat="50.2109370008111" lon="8.028146959841251">
        <ele>307.75999999999999</ele>
        <time>2018-07-01T04:16:13Z</time>
      </trkpt>
      <trkpt lat="50.211090976372361" lon="8.028237987309694">
        <ele>309.19999999999999</ele>
        <time>2018-07-01T04:16:14Z</time>
      </trkpt>
      <trkpt lat="50.211255010217428" lon="8.028231030330062">
        <ele>311.12</ele>
        <time>2018-07-01T04:16:15Z</time>
      </trkpt>
      <trkpt lat="50.211427006870508" lon="8.028223989531398">
        <ele>313.52999999999997</ele>
        <time>2018-07-01T04:16:16Z</time>
      </trkpt>
      <trkpt lat="50.211603026837111" lon="8.028217032551765">
        <ele>314.97000000000003</ele>
        <time>2018-07-01T04:16:17Z</time>
      </trkpt>
      <trkpt lat="50.211772006005049" lon="8.028123993426561">
        <ele>316.88999999999999</ele>
        <time>2018-07-01T04:16:18Z</time>
      </trkpt>
      <trkpt lat="50.211952971294522" lon="8.028016034513712">
        <ele>318.32999999999998</ele>
        <time>2018-07-01T04:16:19Z</time>
      </trkpt>
      <trkpt lat="50.212137037888169" lon="8.027904974296689">
        <ele>319.30000000000001</ele>
        <time>2018-07-01T04:16:20Z</time>
      </trkpt>
      <trkpt lat="50.212359996512532" lon="8.027870021760464">
        <ele>320.74000000000001</ele>
        <time>2018-07-01T04:16:21Z</time>
      </trkpt>
      <trkpt lat="50.212542973458767" lon="8.027945039793849">
        <ele>321.69999999999999</ele>
        <time>2018-07-01T04:16:22Z</time>
      </trkpt>
      <trkpt lat="50.21274003200233" lon="8.028025003150106">
        <ele>323.13999999999999</ele>
        <time>2018-07-01T04:16:23Z</time>
      </trkpt>
      <trkpt lat="50.212926026433706" lon="8.028134973719716">
        <ele>324.57999999999998</ele>
        <time>2018-07-01T04:16:24Z</time>
      </trkpt>
      <trkpt lat="50.213104980066419" lon="8.028278974816203">
        <ele>326.01999999999998</ele>
        <time>2018-07-01T04:16:25Z</time>
      </trkpt>
      <trkpt lat="50.213272031396627" lon="8.028415013104677">
        <ele>326.99000000000001</ele>
        <time>2018-07-01T04:16:26Z</time>
      </trkpt>
      <trkpt lat="50.213427012786269" lon="8.028540993109345">
        <ele>328.43000000000001</ele>
        <time>2018-07-01T04:16:27Z</time>
      </trkpt>
      <trkpt lat="50.21370898000896" lon="8.028731010854244">
        <ele>330.82999999999998</ele>
        <time>2018-07-01T04:16:29Z</time>
      </trkpt>
      <trkpt lat="50.213786009699106" lon="8.028752971440554">
        <ele>331.79000000000002</ele>
        <time>2018-07-01T04:16:30Z</time>
      </trkpt>
      <trkpt lat="50.213935039937496" lon="8.0286780372262">
        <ele>332.75</ele>
        <time>2018-07-01T04:16:31Z</time>
      </trkpt>
      <trkpt lat="50.214019026607275" lon="8.028580974787474">
        <ele>333.70999999999998</ele>
        <time>2018-07-01T04:16:32Z</time>
      </trkpt>
      <trkpt lat="50.214084992185235" lon="8.028453988954425">
        <ele>334.68000000000001</ele>
        <time>2018-07-01T04:16:33Z</time>
      </trkpt>
      <trkpt lat="50.214150035753846" lon="8.028253996744752">
        <ele>335.63999999999999</ele>
        <time>2018-07-01T04:16:34Z</time>
      </trkpt>
      <trkpt lat="50.214223964139819" lon="8.028029026463628">
        <ele>337.07999999999998</ele>
        <time>2018-07-01T04:16:35Z</time>
      </trkpt>
      <trkpt lat="50.214732997119427" lon="8.026470998302102">
        <ele>343.32999999999998</ele>
        <time>2018-07-01T04:16:41Z</time>
      </trkpt>
      <trkpt lat="50.214751018211246" lon="8.026245022192597">
        <ele>344.76999999999998</ele>
        <time>2018-07-01T04:16:42Z</time>
      </trkpt>
      <trkpt lat="50.214744983240962" lon="8.026028014719486">
        <ele>346.20999999999998</ele>
        <time>2018-07-01T04:16:43Z</time>
      </trkpt>
      <trkpt lat="50.214710030704737" lon="8.025793991982937">
        <ele>348.13</ele>
        <time>2018-07-01T04:16:44Z</time>
      </trkpt>
      <trkpt lat="50.214608022943139" lon="8.025121008977294">
        <ele>354.38</ele>
        <time>2018-07-01T04:16:47Z</time>
      </trkpt>
      <trkpt lat="50.214581033214927" lon="8.024909030646086">
        <ele>356.79000000000002</ele>
        <time>2018-07-01T04:16:48Z</time>
      </trkpt>
      <trkpt lat="50.214592013508081" lon="8.024728987365961">
        <ele>359.67000000000002</ele>
        <time>2018-07-01T04:16:49Z</time>
      </trkpt>
      <trkpt lat="50.214600982144475" lon="8.024578029289842">
        <ele>362.06999999999999</ele>
        <time>2018-07-01T04:16:50Z</time>
      </trkpt>
      <trkpt lat="50.214665019884706" lon="8.024459006264806">
        <ele>364.95999999999998</ele>
        <time>2018-07-01T04:16:51Z</time>
      </trkpt>
      <trkpt lat="50.214734002947807" lon="8.024340989068151">
        <ele>367.36000000000001</ele>
        <time>2018-07-01T04:16:52Z</time>
      </trkpt>
      <trkpt lat="50.214836010709405" lon="8.024258008226752">
        <ele>369.75999999999999</ele>
        <time>2018-07-01T04:16:53Z</time>
      </trkpt>
      <trkpt lat="50.214966014027596" lon="8.024197993800044">
        <ele>372.17000000000002</ele>
        <time>2018-07-01T04:16:54Z</time>
      </trkpt>
      <trkpt lat="50.215116972103715" lon="8.024177039042115">
        <ele>374.08999999999997</ele>
        <time>2018-07-01T04:16:55Z</time>
      </trkpt>
      <trkpt lat="50.215419977903366" lon="8.02412498742342">
        <ele>377.94</ele>
        <time>2018-07-01T04:16:57Z</time>
      </trkpt>
      <trkpt lat="50.21555501036346" lon="8.024044018238783">
        <ele>379.38</ele>
        <time>2018-07-01T04:16:58Z</time>
      </trkpt>
      <trkpt lat="50.215674033388495" lon="8.023920971900225">
        <ele>380.81999999999999</ele>
        <time>2018-07-01T04:16:59Z</time>
      </trkpt>
      <trkpt lat="50.215806970372796" lon="8.023736989125609">
        <ele>381.30000000000001</ele>
        <time>2018-07-01T04:17:00Z</time>
      </trkpt>
      <trkpt lat="50.215938985347748" lon="8.023554012179375">
        <ele>382.25999999999999</ele>
        <time>2018-07-01T04:17:01Z</time>
      </trkpt>
      <trkpt lat="50.216035963967443" lon="8.023349996656179">
        <ele>383.69999999999999</ele>
        <time>2018-07-01T04:17:02Z</time>
      </trkpt>
      <trkpt lat="50.216111987829208" lon="8.023111028596759">
        <ele>385.14999999999998</ele>
        <time>2018-07-01T04:17:03Z</time>
      </trkpt>
      <trkpt lat="50.216181976720691" lon="8.02285697311163">
        <ele>386.58999999999997</ele>
        <time>2018-07-01T04:17:04Z</time>
      </trkpt>
      <trkpt lat="50.216228999197483" lon="8.022582968696952">
        <ele>387.55000000000001</ele>
        <time>2018-07-01T04:17:05Z</time>
      </trkpt>
      <trkpt lat="50.216537034139037" lon="8.02064398303628">
        <ele>401.00999999999999</ele>
        <time>2018-07-01T04:17:12Z</time>
      </trkpt>
      <trkpt lat="50.216542985290289" lon="8.020383976399899">
        <ele>402.93000000000001</ele>
        <time>2018-07-01T04:17:13Z</time>
      </trkpt>
      <trkpt lat="50.216497974470258" lon="8.02010796032846">
        <ele>404.37</ele>
        <time>2018-07-01T04:17:14Z</time>
      </trkpt>
      <trkpt lat="50.216452041640878" lon="8.019825993105769">
        <ele>405.81</ele>
        <time>2018-07-01T04:17:15Z</time>
      </trkpt>
      <trkpt lat="50.216406024992466" lon="8.019550982862711">
        <ele>407.25999999999999</ele>
        <time>2018-07-01T04:17:16Z</time>
      </trkpt>
      <trkpt lat="50.21630896255374" lon="8.018969027325511">
        <ele>410.13999999999999</ele>
        <time>2018-07-01T04:17:18Z</time>
      </trkpt>
      <trkpt lat="50.216246014460921" lon="8.018678007647395">
        <ele>412.54000000000002</ele>
        <time>2018-07-01T04:17:19Z</time>
      </trkpt>
      <trkpt lat="50.21618097089231" lon="8.018379025161266">
        <ele>414.47000000000003</ele>
        <time>2018-07-01T04:17:20Z</time>
      </trkpt>
      <trkpt lat="50.215849969536066" lon="8.016841029748321">
        <ele>421.68000000000001</ele>
        <time>2018-07-01T04:17:25Z</time>
      </trkpt>
      <trkpt lat="50.215774029493332" lon="8.016618993133307">
        <ele>422.63999999999999</ele>
        <time>2018-07-01T04:17:26Z</time>
      </trkpt>
      <trkpt lat="50.215679984539747" lon="8.01641003228724">
        <ele>423.12</ele>
        <time>2018-07-01T04:17:27Z</time>
      </trkpt>
      <trkpt lat="50.215543024241924" lon="8.016236023977399">
        <ele>423.60000000000002</ele>
        <time>2018-07-01T04:17:28Z</time>
      </trkpt>
      <trkpt lat="50.215386031195521" lon="8.016074001789093">
        <ele>423.12</ele>
        <time>2018-07-01T04:17:29Z</time>
      </trkpt>
      <trkpt lat="50.214341981336474" lon="8.015131037682295">
        <ele>423.60000000000002</ele>
        <time>2018-07-01T04:17:35Z</time>
      </trkpt>
      <trkpt lat="50.214208038523793" lon="8.014944959431887">
        <ele>423.60000000000002</ele>
        <time>2018-07-01T04:17:36Z</time>
      </trkpt>
      <trkpt lat="50.214069988578558" lon="8.014743961393833">
        <ele>423.12</ele>
        <time>2018-07-01T04:17:37Z</time>
      </trkpt>
      <trkpt lat="50.213735969737172" lon="8.01409000530839">
        <ele>417.82999999999998</ele>
        <time>2018-07-01T04:17:40Z</time>
      </trkpt>
      <trkpt lat="50.21366698667407" lon="8.013861011713743">
        <ele>415.43000000000001</ele>
        <time>2018-07-01T04:17:41Z</time>
      </trkpt>
      <trkpt lat="50.213635973632336" lon="8.013608967885375">
        <ele>413.98000000000002</ele>
        <time>2018-07-01T04:17:42Z</time>
      </trkpt>
      <trkpt lat="50.213635973632336" lon="8.0133590195328">
        <ele>411.57999999999998</ele>
        <time>2018-07-01T04:17:43Z</time>
      </trkpt>
      <trkpt lat="50.213664975017309" lon="8.013093983754516">
        <ele>409.66000000000003</ele>
        <time>2018-07-01T04:17:44Z</time>
      </trkpt>
      <trkpt lat="50.21375197917223" lon="8.012851998209953">
        <ele>407.25999999999999</ele>
        <time>2018-07-01T04:17:45Z</time>
      </trkpt>
      <trkpt lat="50.213843006640673" lon="8.012598026543856">
        <ele>404.85000000000002</ele>
        <time>2018-07-01T04:17:46Z</time>
      </trkpt>
      <trkpt lat="50.213938979431987" lon="8.01233097910881">
        <ele>402.44999999999999</ele>
        <time>2018-07-01T04:17:47Z</time>
      </trkpt>
      <trkpt lat="50.21512602455914" lon="8.009869968518615">
        <ele>390.43000000000001</ele>
        <time>2018-07-01T04:17:56Z</time>
      </trkpt>
      <trkpt lat="50.216002017259598" lon="8.008038019761443">
        <ele>385.63</ele>
        <time>2018-07-01T04:18:03Z</time>
      </trkpt>
      <trkpt lat="50.216077035292983" lon="8.007780024781823">
        <ele>385.14999999999998</ele>
        <time>2018-07-01T04:18:04Z</time>
      </trkpt>
      <trkpt lat="50.216124979779124" lon="8.007527980953455">
        <ele>384.66000000000003</ele>
        <time>2018-07-01T04:18:05Z</time>
      </trkpt>
      <trkpt lat="50.216124979779124" lon="8.007245007902384">
        <ele>383.69999999999999</ele>
        <time>2018-07-01T04:18:06Z</time>
      </trkpt>
      <trkpt lat="50.216124979779124" lon="8.006974020972848">
        <ele>382.25999999999999</ele>
        <time>2018-07-01T04:18:07Z</time>
      </trkpt>
      <trkpt lat="50.216076029464602" lon="8.006733963266015">
        <ele>380.81999999999999</ele>
        <time>2018-07-01T04:18:08Z</time>
      </trkpt>
      <trkpt lat="50.21600503474474" lon="8.006472028791904">
        <ele>379.86000000000001</ele>
        <time>2018-07-01T04:18:09Z</time>
      </trkpt>
      <trkpt lat="50.215897997841239" lon="8.006210010498762">
        <ele>378.89999999999998</ele>
        <time>2018-07-01T04:18:10Z</time>
      </trkpt>
      <trkpt lat="50.215044971555471" lon="8.003965001553297">
        <ele>371.20999999999998</ele>
        <time>2018-07-01T04:18:18Z</time>
      </trkpt>
      <trkpt lat="50.214980011805892" lon="8.003687979653478">
        <ele>370.73000000000002</ele>
        <time>2018-07-01T04:18:19Z</time>
      </trkpt>
      <trkpt lat="50.214946987107396" lon="8.00341104157269">
        <ele>369.75999999999999</ele>
        <time>2018-07-01T04:18:20Z</time>
      </trkpt>
      <trkpt lat="50.2149139624089" lon="8.003135025501251">
        <ele>369.27999999999997</ele>
        <time>2018-07-01T04:18:21Z</time>
      </trkpt>
      <trkpt lat="50.214881021529436" lon="8.002855991944671">
        <ele>368.31999999999999</ele>
        <time>2018-07-01T04:18:22Z</time>
      </trkpt>
      <trkpt lat="50.214798040688038" lon="8.002083012834191">
        <ele>366.39999999999998</ele>
        <time>2018-07-01T04:18:25Z</time>
      </trkpt>
      <trkpt lat="50.214820001274347" lon="8.00184496678412">
        <ele>365.44</ele>
        <time>2018-07-01T04:18:26Z</time>
      </trkpt>
      <trkpt lat="50.214841039851308" lon="8.001615973189473">
        <ele>364.95999999999998</ele>
        <time>2018-07-01T04:18:27Z</time>
      </trkpt>
      <trkpt lat="50.214899964630604" lon="8.000979032367468">
        <ele>362.55000000000001</ele>
        <time>2018-07-01T04:18:30Z</time>
      </trkpt>
      <trkpt lat="50.214923014864326" lon="8.000729000195861">
        <ele>361.58999999999997</ele>
        <time>2018-07-01T04:18:31Z</time>
      </trkpt>
      <trkpt lat="50.214908011257648" lon="8.00057795830071">
        <ele>361.11000000000001</ele>
        <time>2018-07-01T04:18:32Z</time>
      </trkpt>
      <trkpt lat="50.214855959638953" lon="8.000377966091037">
        <ele>360.14999999999998</ele>
        <time>2018-07-01T04:18:33Z</time>
      </trkpt>
      <trkpt lat="50.214796029031277" lon="8.000197000801563">
        <ele>359.67000000000002</ele>
        <time>2018-07-01T04:18:34Z</time>
      </trkpt>
      <trkpt lat="50.214734002947807" lon="8.000012012198567">
        <ele>358.70999999999998</ele>
        <time>2018-07-01T04:18:35Z</time>
      </trkpt>
      <trkpt lat="50.214651022106409" lon="7.999845966696739">
        <ele>358.23000000000002</ele>
        <time>2018-07-01T04:18:36Z</time>
      </trkpt>
      <trkpt lat="50.21456996910274" lon="7.999688973650336">
        <ele>357.75</ele>
        <time>2018-07-01T04:18:37Z</time>
      </trkpt>
      <trkpt lat="50.214493023231626" lon="7.999538015574217">
        <ele>357.26999999999998</ele>
        <time>2018-07-01T04:18:38Z</time>
      </trkpt>
      <trkpt lat="50.214303005486727" lon="7.999092014506459">
        <ele>355.82999999999998</ele>
        <time>2018-07-01T04:18:41Z</time>
      </trkpt>
      <trkpt lat="50.214279033243656" lon="7.998948013409972">
        <ele>355.82999999999998</ele>
        <time>2018-07-01T04:18:42Z</time>
      </trkpt>
      <trkpt lat="50.214279033243656" lon="7.998783979564905">
        <ele>355.82999999999998</ele>
        <time>2018-07-01T04:18:43Z</time>
      </trkpt>
      <trkpt lat="50.214284984394908" lon="7.998477034270763">
        <ele>356.79000000000002</ele>
        <time>2018-07-01T04:18:45Z</time>
      </trkpt>
      <trkpt lat="50.214291019365191" lon="7.998331021517515">
        <ele>356.79000000000002</ele>
        <time>2018-07-01T04:18:46Z</time>
      </trkpt>
      <trkpt lat="50.214365031570196" lon="7.997811008244753">
        <ele>357.75</ele>
        <time>2018-07-01T04:18:53Z</time>
      </trkpt>
      <trkpt lat="50.21439503878355" lon="7.997587965801358">
        <ele>358.23000000000002</ele>
        <time>2018-07-01T04:18:54Z</time>
      </trkpt>
      <trkpt lat="50.214358996599913" lon="7.997541027143598">
        <ele>358.23000000000002</ele>
        <time>2018-07-01T04:18:55Z</time>
      </trkpt>
      <trkpt lat="50.214313985779881" lon="7.99748201854527">
        <ele>358.70999999999998</ele>
        <time>2018-07-01T04:18:56Z</time>
      </trkpt>
      <trkpt lat="50.214263023808599" lon="7.997414963319898">
        <ele>359.19</ele>
        <time>2018-07-01T04:18:57Z</time>
      </trkpt>
      <trkpt lat="50.214204015210271" lon="7.997338017448783">
        <ele>360.14999999999998</ele>
        <time>2018-07-01T04:18:58Z</time>
      </trkpt>
      <trkpt lat="50.214137965813279" lon="7.997265011072159">
        <ele>360.63</ele>
        <time>2018-07-01T04:18:59Z</time>
      </trkpt>
      <trkpt lat="50.214062025770545" lon="7.997197033837438">
        <ele>361.11000000000001</ele>
        <time>2018-07-01T04:19:00Z</time>
      </trkpt>
      <trkpt lat="50.213981978595257" lon="7.997125033289194">
        <ele>361.58999999999997</ele>
        <time>2018-07-01T04:19:01Z</time>
      </trkpt>
      <trkpt lat="50.21314999088645" lon="7.996619017794728">
        <ele>368.31999999999999</ele>
        <time>2018-07-01T04:19:10Z</time>
      </trkpt>
      <trkpt lat="50.213069021701813" lon="7.996546011418104">
        <ele>368.80000000000001</ele>
        <time>2018-07-01T04:19:11Z</time>
      </trkpt>
      <trkpt lat="50.21291303448379" lon="7.99640603363514">
        <ele>369.75999999999999</ele>
        <time>2018-07-01T04:19:13Z</time>
      </trkpt>
      <trkpt lat="50.212844973430037" lon="7.996346019208431">
        <ele>370.24000000000001</ele>
        <time>2018-07-01T04:19:14Z</time>
      </trkpt>
      <trkpt lat="50.2127830311656" lon="7.996290028095245">
        <ele>370.24000000000001</ele>
        <time>2018-07-01T04:19:15Z</time>
      </trkpt>
      <trkpt lat="50.212718993425369" lon="7.996275024488568">
        <ele>370.73000000000002</ele>
        <time>2018-07-01T04:19:16Z</time>
      </trkpt>
      <trkpt lat="50.212645987048745" lon="7.996294973418117">
        <ele>371.20999999999998</ele>
        <time>2018-07-01T04:19:17Z</time>
      </trkpt>
      <trkpt lat="50.212567029520869" lon="7.9963200353086">
        <ele>371.20999999999998</ele>
        <time>2018-07-01T04:19:18Z</time>
      </trkpt>
      <trkpt lat="50.212476002052426" lon="7.996348030865192">
        <ele>370.73000000000002</ele>
        <time>2018-07-01T04:19:19Z</time>
      </trkpt>
      <trkpt lat="50.21237701177597" lon="7.996378960087895">
        <ele>370.24000000000001</ele>
        <time>2018-07-01T04:19:20Z</time>
      </trkpt>
      <trkpt lat="50.212271986529231" lon="7.996382983401418">
        <ele>369.75999999999999</ele>
        <time>2018-07-01T04:19:21Z</time>
      </trkpt>
      <trkpt lat="50.212170984596014" lon="7.996361022815108">
        <ele>369.27999999999997</ele>
        <time>2018-07-01T04:19:22Z</time>
      </trkpt>
      <trkpt lat="50.212070988491178" lon="7.996339984238148">
        <ele>368.31999999999999</ele>
        <time>2018-07-01T04:19:23Z</time>
      </trkpt>
      <trkpt lat="50.211974009871483" lon="7.996306037530303">
        <ele>367.83999999999997</ele>
        <time>2018-07-01T04:19:24Z</time>
      </trkpt>
      <trkpt lat="50.211887005716562" lon="7.996264966204763">
        <ele>366.88</ele>
        <time>2018-07-01T04:19:25Z</time>
      </trkpt>
      <trkpt lat="50.211804024875164" lon="7.996226996183395">
        <ele>365.92000000000002</ele>
        <time>2018-07-01T04:19:26Z</time>
      </trkpt>
      <trkpt lat="50.211697993800044" lon="7.996168993413448">
        <ele>364.95999999999998</ele>
        <time>2018-07-01T04:19:27Z</time>
      </trkpt>
      <trkpt lat="50.211508981883526" lon="7.995889037847519">
        <ele>363.51999999999998</ele>
        <time>2018-07-01T04:19:30Z</time>
      </trkpt>
      <trkpt lat="50.211434969678521" lon="7.99580798484385">
        <ele>363.51999999999998</ele>
        <time>2018-07-01T04:19:31Z</time>
      </trkpt>
      <trkpt lat="50.211358023807406" lon="7.99572198651731">
        <ele>364</ele>
        <time>2018-07-01T04:19:32Z</time>
      </trkpt>
      <trkpt lat="50.211039008572698" lon="7.995370030403137">
        <ele>366.39999999999998</ele>
        <time>2018-07-01T04:19:36Z</time>
      </trkpt>
      <trkpt lat="50.210912022739649" lon="7.995154028758407">
        <ele>366.88</ele>
        <time>2018-07-01T04:19:38Z</time>
      </trkpt>
      <trkpt lat="50.210854019969702" lon="7.995037017390132">
        <ele>366.88</ele>
        <time>2018-07-01T04:19:39Z</time>
      </trkpt>
      <trkpt lat="50.210642963647842" lon="7.994710961356759">
        <ele>367.83999999999997</ele>
        <time>2018-07-01T04:19:42Z</time>
      </trkpt>
      <trkpt lat="50.210559982806444" lon="7.994627980515361">
        <ele>368.31999999999999</ele>
        <time>2018-07-01T04:19:43Z</time>
      </trkpt>
      <trkpt lat="50.210472978651524" lon="7.994564026594162">
        <ele>368.31999999999999</ele>
        <time>2018-07-01T04:19:44Z</time>
      </trkpt>
      <trkpt lat="50.210368037223816" lon="7.994537958875299">
        <ele>368.80000000000001</ele>
        <time>2018-07-01T04:19:45Z</time>
      </trkpt>
      <trkpt lat="50.210258988663554" lon="7.994511974975467">
        <ele>369.75999999999999</ele>
        <time>2018-07-01T04:19:46Z</time>
      </trkpt>
      <trkpt lat="50.209933016449213" lon="7.994433017447591">
        <ele>371.20999999999998</ele>
        <time>2018-07-01T04:19:49Z</time>
      </trkpt>
      <trkpt lat="50.209794966503978" lon="7.994398986920714">
        <ele>372.17000000000002</ele>
        <time>2018-07-01T04:19:50Z</time>
      </trkpt>
      <trkpt lat="50.209085019305348" lon="7.993807978928089">
        <ele>381.30000000000001</ele>
        <time>2018-07-01T04:19:59Z</time>
      </trkpt>
      <trkpt lat="50.208860971033573" lon="7.99361502751708">
        <ele>384.18000000000001</ele>
        <time>2018-07-01T04:20:02Z</time>
      </trkpt>
      <trkpt lat="50.208154963329434" lon="7.992915976792574">
        <ele>390.91000000000003</ele>
        <time>2018-07-01T04:20:09Z</time>
      </trkpt>
      <trkpt lat="50.207067998126149" lon="7.991578979417682">
        <ele>401.97000000000003</ele>
        <time>2018-07-01T04:20:17Z</time>
      </trkpt>
      <trkpt lat="50.206988034769893" lon="7.991389967501164">
        <ele>403.41000000000003</ele>
        <time>2018-07-01T04:20:18Z</time>
      </trkpt>
      <trkpt lat="50.206915028393269" lon="7.991180000826716">
        <ele>404.85000000000002</ele>
        <time>2018-07-01T04:20:19Z</time>
      </trkpt>
      <trkpt lat="50.206832969561219" lon="7.990943966433406">
        <ele>406.29000000000002</ele>
        <time>2018-07-01T04:20:20Z</time>
      </trkpt>
      <trkpt lat="50.206772033125162" lon="7.99069301225245">
        <ele>407.74000000000001</ele>
        <time>2018-07-01T04:20:21Z</time>
      </trkpt>
      <trkpt lat="50.206011962145567" lon="7.988232001662254">
        <ele>421.19</ele>
        <time>2018-07-01T04:20:30Z</time>
      </trkpt>
      <trkpt lat="50.205000014975667" lon="7.986500971019268">
        <ele>431.76999999999998</ele>
        <time>2018-07-01T04:20:38Z</time>
      </trkpt>
      <trkpt lat="50.204730033874512" lon="7.986143985763192">
        <ele>434.64999999999998</ele>
        <time>2018-07-01T04:20:40Z</time>
      </trkpt>
      <trkpt lat="50.204614028334618" lon="7.985931001603603">
        <ele>436.10000000000002</ele>
        <time>2018-07-01T04:20:41Z</time>
      </trkpt>
      <trkpt lat="50.203770976513624" lon="7.984284041449428">
        <ele>449.55000000000001</ele>
        <time>2018-07-01T04:20:49Z</time>
      </trkpt>
      <trkpt lat="50.203652959316969" lon="7.984169041737914">
        <ele>451</ele>
        <time>2018-07-01T04:20:50Z</time>
      </trkpt>
      <trkpt lat="50.203528990969062" lon="7.984053958207369">
        <ele>452.92000000000002</ele>
        <time>2018-07-01T04:20:51Z</time>
      </trkpt>
      <trkpt lat="50.20339597016573" lon="7.983932001516223">
        <ele>454.36000000000001</ele>
        <time>2018-07-01T04:20:52Z</time>
      </trkpt>
      <trkpt lat="50.203122971579432" lon="7.983680963516235">
        <ele>456.75999999999999</ele>
        <time>2018-07-01T04:20:54Z</time>
      </trkpt>
      <trkpt lat="50.202971007674932" lon="7.983541991561651">
        <ele>458.20999999999998</ele>
        <time>2018-07-01T04:20:55Z</time>
      </trkpt>
      <trkpt lat="50.2028570137918" lon="7.983377035707235">
        <ele>459.17000000000002</ele>
        <time>2018-07-01T04:20:56Z</time>
      </trkpt>
      <trkpt lat="50.20212703384459" lon="7.982174986973405">
        <ele>465.42000000000002</ele>
        <time>2018-07-01T04:21:01Z</time>
      </trkpt>
      <trkpt lat="50.200632037594914" lon="7.979700984433293">
        <ele>484.63999999999999</ele>
        <time>2018-07-01T04:21:09Z</time>
      </trkpt>
      <trkpt lat="50.198916010558605" lon="7.977125979959965">
        <ele>499.06</ele>
        <time>2018-07-01T04:21:18Z</time>
      </trkpt>
      <trkpt lat="50.197426965460181" lon="7.974893040955067">
        <ele>511.56</ele>
        <time>2018-07-01T04:21:27Z</time>
      </trkpt>
      <trkpt lat="50.196726992726326" lon="7.973889978602529">
        <ele>514.44000000000005</ele>
        <time>2018-07-01T04:21:32Z</time>
      </trkpt>
      <trkpt lat="50.196553990244865" lon="7.973724016919732">
        <ele>514.91999999999996</ele>
        <time>2018-07-01T04:21:33Z</time>
      </trkpt>
      <trkpt lat="50.196371013298631" lon="7.97354900278151">
        <ele>515.39999999999998</ele>
        <time>2018-07-01T04:21:34Z</time>
      </trkpt>
      <trkpt lat="50.196171021088958" lon="7.973401984199882">
        <ele>515.39999999999998</ele>
        <time>2018-07-01T04:21:35Z</time>
      </trkpt>
      <trkpt lat="50.195959964767098" lon="7.973264018073678">
        <ele>515.39999999999998</ele>
        <time>2018-07-01T04:21:36Z</time>
      </trkpt>
      <trkpt lat="50.195539025589824" lon="7.973050028085709">
        <ele>515.88</ele>
        <time>2018-07-01T04:21:38Z</time>
      </trkpt>
      <trkpt lat="50.195322018116713" lon="7.972967969253659">
        <ele>515.88</ele>
        <time>2018-07-01T04:21:39Z</time>
      </trkpt>
      <trkpt lat="50.195093024522066" lon="7.972892029210925">
        <ele>516.85000000000002</ele>
        <time>2018-07-01T04:21:40Z</time>
      </trkpt>
      <trkpt lat="50.193887958303094" lon="7.97271098010242">
        <ele>522.13</ele>
        <time>2018-07-01T04:21:45Z</time>
      </trkpt>
      <trkpt lat="50.192114012315869" lon="7.972445022314787">
        <ele>532.71000000000004</ele>
        <time>2018-07-01T04:21:52Z</time>
      </trkpt>
      <trkpt lat="50.1910400390625" lon="7.972187027335167">
        <ele>538.96000000000004</ele>
        <time>2018-07-01T04:21:57Z</time>
      </trkpt>
      <trkpt lat="50.190832000225782" lon="7.972071021795273">
        <ele>539.91999999999996</ele>
        <time>2018-07-01T04:21:58Z</time>
      </trkpt>
      <trkpt lat="50.190609041601419" lon="7.971945963799954">
        <ele>540.88</ele>
        <time>2018-07-01T04:21:59Z</time>
      </trkpt>
      <trkpt lat="50.188954034820199" lon="7.970866961404681">
        <ele>543.75999999999999</ele>
        <time>2018-07-01T04:22:06Z</time>
      </trkpt>
      <trkpt lat="50.187589041888714" lon="7.969979988411069">
        <ele>544.24000000000001</ele>
        <time>2018-07-01T04:22:13Z</time>
      </trkpt>
      <trkpt lat="50.187270026654005" lon="7.969812015071511">
        <ele>544.24000000000001</ele>
        <time>2018-07-01T04:22:15Z</time>
      </trkpt>
      <trkpt lat="50.187117978930473" lon="7.969778990373015">
        <ele>544.24000000000001</ele>
        <time>2018-07-01T04:22:16Z</time>
      </trkpt>
      <trkpt lat="50.186984036117792" lon="7.969748983159661">
        <ele>544.24000000000001</ele>
        <time>2018-07-01T04:22:17Z</time>
      </trkpt>
      <trkpt lat="50.186707014217973" lon="7.969650998711586">
        <ele>538.96000000000004</ele>
        <time>2018-07-01T04:22:19Z</time>
      </trkpt>
      <trkpt lat="50.186663009226322" lon="7.969615962356329">
        <ele>537.99000000000001</ele>
        <time>2018-07-01T04:22:20Z</time>
      </trkpt>
      <trkpt lat="50.18657399341464" lon="7.969448994845152">
        <ele>537.02999999999997</ele>
        <time>2018-07-01T04:22:21Z</time>
      </trkpt>
      <trkpt lat="50.18652998842299" lon="7.969368025660515">
        <ele>536.54999999999995</ele>
        <time>2018-07-01T04:22:22Z</time>
      </trkpt>
      <trkpt lat="50.186512973159552" lon="7.96933701261878">
        <ele>536.07000000000005</ele>
        <time>2018-07-01T04:22:23Z</time>
      </trkpt>
      <trkpt lat="50.186586985364556" lon="7.969279009848833">
        <ele>534.14999999999998</ele>
        <time>2018-07-01T04:22:24Z</time>
      </trkpt>
      <trkpt lat="50.186653034761548" lon="7.969227964058518">
        <ele>532.71000000000004</ele>
        <time>2018-07-01T04:22:25Z</time>
      </trkpt>
      <trkpt lat="50.186750013381243" lon="7.969142971560359">
        <ele>529.34000000000003</ele>
        <time>2018-07-01T04:22:26Z</time>
      </trkpt>
      <trkpt lat="50.186859983950853" lon="7.969054039567709">
        <ele>525.98000000000002</ele>
        <time>2018-07-01T04:22:27Z</time>
      </trkpt>
      <trkpt lat="50.187615025788546" lon="7.968452973291278">
        <ele>521.64999999999998</ele>
        <time>2018-07-01T04:22:32Z</time>
      </trkpt>
      <trkpt lat="50.189062999561429" lon="7.967314040288329">
        <ele>525.98000000000002</ele>
        <time>2018-07-01T04:22:39Z</time>
      </trkpt>
      <trkpt lat="50.19155602902174" lon="7.965329037979245">
        <ele>535.11000000000001</ele>
        <time>2018-07-01T04:22:49Z</time>
      </trkpt>
      <trkpt lat="50.194319039583206" lon="7.963461969047785">
        <ele>538.96000000000004</ele>
        <time>2018-07-01T04:22:59Z</time>
      </trkpt>
      <trkpt lat="50.196862025186419" lon="7.96181601472199">
        <ele>533.19000000000005</ele>
        <time>2018-07-01T04:23:08Z</time>
      </trkpt>
      <trkpt lat="50.19929202273488" lon="7.960238037630916">
        <ele>526.94000000000005</ele>
        <time>2018-07-01T04:23:17Z</time>
      </trkpt>
      <trkpt lat="50.19995997659862" lon="7.959706038236618">
        <ele>524.05999999999995</ele>
        <time>2018-07-01T04:23:20Z</time>
      </trkpt>
      <trkpt lat="50.20015200600028" lon="7.959448965266347">
        <ele>523.09000000000003</ele>
        <time>2018-07-01T04:23:21Z</time>
      </trkpt>
      <trkpt lat="50.200340012088418" lon="7.959150988608599">
        <ele>522.13</ele>
        <time>2018-07-01T04:23:22Z</time>
      </trkpt>
      <trkpt lat="50.200528018176556" lon="7.958851000294089">
        <ele>521.16999999999996</ele>
        <time>2018-07-01T04:23:23Z</time>
      </trkpt>
      <trkpt lat="50.200661960989237" lon="7.958510024473071">
        <ele>520.69000000000005</ele>
        <time>2018-07-01T04:23:24Z</time>
      </trkpt>
      <trkpt lat="50.200762962922454" lon="7.958139041438699">
        <ele>520.21000000000004</ele>
        <time>2018-07-01T04:23:25Z</time>
      </trkpt>
      <trkpt lat="50.20086002536118" lon="7.957738973200321">
        <ele>520.21000000000004</ele>
        <time>2018-07-01T04:23:26Z</time>
      </trkpt>
      <trkpt lat="50.200959015637636" lon="7.957329014316201">
        <ele>519.73000000000002</ele>
        <time>2018-07-01T04:23:27Z</time>
      </trkpt>
      <trkpt lat="50.201061023399234" lon="7.956914026290178">
        <ele>519.73000000000002</ele>
        <time>2018-07-01T04:23:28Z</time>
      </trkpt>
      <trkpt lat="50.201150039210916" lon="7.956491997465491">
        <ele>519.25</ele>
        <time>2018-07-01T04:23:29Z</time>
      </trkpt>
      <trkpt lat="50.20163300447166" lon="7.954582013189793">
        <ele>516.37</ele>
        <time>2018-07-01T04:23:34Z</time>
      </trkpt>
      <trkpt lat="50.20178597420454" lon="7.954240031540394">
        <ele>516.37</ele>
        <time>2018-07-01T04:23:35Z</time>
      </trkpt>
      <trkpt lat="50.201959982514381" lon="7.953923027962446">
        <ele>515.88</ele>
        <time>2018-07-01T04:23:36Z</time>
      </trkpt>
      <trkpt lat="50.202155029401183" lon="7.95363100245595">
        <ele>515.88</ele>
        <time>2018-07-01T04:23:37Z</time>
      </trkpt>
      <trkpt lat="50.202356027439237" lon="7.953360015526414">
        <ele>515.39999999999998</ele>
        <time>2018-07-01T04:23:38Z</time>
      </trkpt>
      <trkpt lat="50.202582003548741" lon="7.953118029981852">
        <ele>515.39999999999998</ele>
        <time>2018-07-01T04:23:39Z</time>
      </trkpt>
      <trkpt lat="50.202821977436543" lon="7.952936980873346">
        <ele>514.91999999999996</ele>
        <time>2018-07-01T04:23:40Z</time>
      </trkpt>
      <trkpt lat="50.203069997951388" lon="7.952806977555156">
        <ele>514.91999999999996</ele>
        <time>2018-07-01T04:23:41Z</time>
      </trkpt>
      <trkpt lat="50.203337967395782" lon="7.952711004763842">
        <ele>514.44000000000005</ele>
        <time>2018-07-01T04:23:42Z</time>
      </trkpt>
      <trkpt lat="50.20360903814435" lon="7.952631041407585">
        <ele>513.96000000000004</ele>
        <time>2018-07-01T04:23:43Z</time>
      </trkpt>
      <trkpt lat="50.203884970396757" lon="7.952589970082045">
        <ele>513.48000000000002</ele>
        <time>2018-07-01T04:23:44Z</time>
      </trkpt>
      <trkpt lat="50.20414799451828" lon="7.952550994232297">
        <ele>512.51999999999998</ele>
        <time>2018-07-01T04:23:45Z</time>
      </trkpt>
      <trkpt lat="50.204408001154661" lon="7.952512018382549">
        <ele>512.03999999999996</ele>
        <time>2018-07-01T04:23:46Z</time>
      </trkpt>
      <trkpt lat="50.204675970599055" lon="7.95247295871377">
        <ele>511.07999999999998</ele>
        <time>2018-07-01T04:23:47Z</time>
      </trkpt>
      <trkpt lat="50.204934971407056" lon="7.952366005629301">
        <ele>510.12</ele>
        <time>2018-07-01T04:23:48Z</time>
      </trkpt>
      <trkpt lat="50.205182991921902" lon="7.952260980382562">
        <ele>508.67000000000002</ele>
        <time>2018-07-01T04:23:49Z</time>
      </trkpt>
      <trkpt lat="50.205410979688168" lon="7.952094012871385">
        <ele>507.23000000000002</ele>
        <time>2018-07-01T04:23:50Z</time>
      </trkpt>
      <trkpt lat="50.20562999881804" lon="7.951908018440008">
        <ele>505.79000000000002</ele>
        <time>2018-07-01T04:23:51Z</time>
      </trkpt>
      <trkpt lat="50.2058220282197" lon="7.95165304094553">
        <ele>504.82999999999998</ele>
        <time>2018-07-01T04:23:52Z</time>
      </trkpt>
      <trkpt lat="50.206001987680793" lon="7.951386999338865">
        <ele>503.38999999999999</ele>
        <time>2018-07-01T04:23:53Z</time>
      </trkpt>
      <trkpt lat="50.20616602152586" lon="7.951094973832369">
        <ele>501.94999999999999</ele>
        <time>2018-07-01T04:23:54Z</time>
      </trkpt>
      <trkpt lat="50.206288984045386" lon="7.950758021324873">
        <ele>500.98000000000002</ele>
        <time>2018-07-01T04:23:55Z</time>
      </trkpt>
      <trkpt lat="50.206412030383945" lon="7.950419979169965">
        <ele>499.54000000000002</ele>
        <time>2018-07-01T04:23:56Z</time>
      </trkpt>
      <trkpt lat="50.206498028710485" lon="7.950060982257128">
        <ele>498.57999999999998</ele>
        <time>2018-07-01T04:23:57Z</time>
      </trkpt>
      <trkpt lat="50.206571035087109" lon="7.949684970080853">
        <ele>497.13999999999999</ele>
        <time>2018-07-01T04:23:58Z</time>
      </trkpt>
      <trkpt lat="50.206585032865405" lon="7.94929001480341">
        <ele>496.18000000000001</ele>
        <time>2018-07-01T04:23:59Z</time>
      </trkpt>
      <trkpt lat="50.206595007330179" lon="7.948886007070541">
        <ele>494.74000000000001</ele>
        <time>2018-07-01T04:24:00Z</time>
      </trkpt>
      <trkpt lat="50.206572962924838" lon="7.94847596436739">
        <ele>493.76999999999998</ele>
        <time>2018-07-01T04:24:01Z</time>
      </trkpt>
      <trkpt lat="50.206541027873755" lon="7.948047984391451">
        <ele>492.81</ele>
        <time>2018-07-01T04:24:02Z</time>
      </trkpt>
      <trkpt lat="50.206217989325523" lon="7.943770028650761">
        <ele>488.97000000000003</ele>
        <time>2018-07-01T04:24:12Z</time>
      </trkpt>
      <trkpt lat="50.206256965175271" lon="7.943004006519914">
        <ele>488.49000000000001</ele>
        <time>2018-07-01T04:24:14Z</time>
      </trkpt>
      <trkpt lat="50.206315973773599" lon="7.942624976858497">
        <ele>488.00999999999999</ele>
        <time>2018-07-01T04:24:15Z</time>
      </trkpt>
      <trkpt lat="50.206931037828326" lon="7.939920974895358">
        <ele>486.07999999999998</ele>
        <time>2018-07-01T04:24:22Z</time>
      </trkpt>
      <trkpt lat="50.207750033587217" lon="7.936385991051793">
        <ele>477.43000000000001</ele>
        <time>2018-07-01T04:24:31Z</time>
      </trkpt>
      <trkpt lat="50.208145994693041" lon="7.934685973450542">
        <ele>470.69999999999999</ele>
        <time>2018-07-01T04:24:35Z</time>
      </trkpt>
      <trkpt lat="50.208242973312736" lon="7.934269979596138">
        <ele>468.77999999999997</ele>
        <time>2018-07-01T04:24:36Z</time>
      </trkpt>
      <trkpt lat="50.208813026547432" lon="7.931784996762872">
        <ele>456.27999999999997</ele>
        <time>2018-07-01T04:24:43Z</time>
      </trkpt>
      <trkpt lat="50.209427000954747" lon="7.929144026711583">
        <ele>446.19</ele>
        <time>2018-07-01T04:24:52Z</time>
      </trkpt>
      <trkpt lat="50.209559015929699" lon="7.92855997569859">
        <ele>444.26999999999998</ele>
        <time>2018-07-01T04:24:54Z</time>
      </trkpt>
      <trkpt lat="50.209624981507659" lon="7.928270967677236">
        <ele>443.31</ele>
        <time>2018-07-01T04:24:55Z</time>
      </trkpt>
      <trkpt lat="50.210498962551355" lon="7.924429960548878">
        <ele>431.29000000000002</ele>
        <time>2018-07-01T04:25:08Z</time>
      </trkpt>
      <trkpt lat="50.211185021325946" lon="7.921460000798106">
        <ele>421.19</ele>
        <time>2018-07-01T04:25:18Z</time>
      </trkpt>
      <trkpt lat="50.211652982980013" lon="7.919262014329433">
        <ele>416.38999999999999</ele>
        <time>2018-07-01T04:25:26Z</time>
      </trkpt>
      <trkpt lat="50.211661029607058" lon="7.919016005471349">
        <ele>415.91000000000003</ele>
        <time>2018-07-01T04:25:27Z</time>
      </trkpt>
      <trkpt lat="50.211648959666491" lon="7.918098019436002">
        <ele>412.54000000000002</ele>
        <time>2018-07-01T04:25:32Z</time>
      </trkpt>
      <trkpt lat="50.211698999628425" lon="7.917887968942523">
        <ele>412.06</ele>
        <time>2018-07-01T04:25:34Z</time>
      </trkpt>
      <trkpt lat="50.21166798658669" lon="7.917812028899789">
        <ele>412.06</ele>
        <time>2018-07-01T04:25:35Z</time>
      </trkpt>
      <trkpt lat="50.211610989645123" lon="7.917761988937855">
        <ele>412.06</ele>
        <time>2018-07-01T04:25:36Z</time>
      </trkpt>
      <trkpt lat="50.211531026288867" lon="7.917700968682766">
        <ele>412.06</ele>
        <time>2018-07-01T04:25:37Z</time>
      </trkpt>
      <trkpt lat="50.211504036560655" lon="7.917599966749549">
        <ele>411.57999999999998</ele>
        <time>2018-07-01T04:25:38Z</time>
      </trkpt>
      <trkpt lat="50.211471011862159" lon="7.917473986744881">
        <ele>410.62</ele>
        <time>2018-07-01T04:25:39Z</time>
      </trkpt>
      <trkpt lat="50.211153002455831" lon="7.916295994073153">
        <ele>409.18000000000001</ele>
        <time>2018-07-01T04:25:45Z</time>
      </trkpt>
      <trkpt lat="50.210439031943679" lon="7.914018966257572">
        <ele>404.37</ele>
        <time>2018-07-01T04:25:53Z</time>
      </trkpt>
      <trkpt lat="50.209457008168101" lon="7.912204032763839">
        <ele>404.37</ele>
        <time>2018-07-01T04:26:00Z</time>
      </trkpt>
      <trkpt lat="50.208117999136448" lon="7.910861000418663">
        <ele>403.88999999999999</ele>
        <time>2018-07-01T04:26:08Z</time>
      </trkpt>
      <trkpt lat="50.206591989845037" lon="7.910074023529887">
        <ele>403.41000000000003</ele>
        <time>2018-07-01T04:26:16Z</time>
      </trkpt>
      <trkpt lat="50.204274980351329" lon="7.908977000042796">
        <ele>403.88999999999999</ele>
        <time>2018-07-01T04:26:28Z</time>
      </trkpt>
      <trkpt lat="50.202554007992148" lon="7.90745803155005">
        <ele>402.44999999999999</ele>
        <time>2018-07-01T04:26:38Z</time>
      </trkpt>
      <trkpt lat="50.20122698508203" lon="7.905631028115749">
        <ele>398.60000000000002</ele>
        <time>2018-07-01T04:26:47Z</time>
      </trkpt>
      <trkpt lat="50.200168015435338" lon="7.903460031375289">
        <ele>395.24000000000001</ele>
        <time>2018-07-01T04:26:55Z</time>
      </trkpt>
      <trkpt lat="50.199169982224703" lon="7.900460986420512">
        <ele>388.99000000000001</ele>
        <time>2018-07-01T04:27:03Z</time>
      </trkpt>
      <trkpt lat="50.197218004614115" lon="7.894184030592442">
        <ele>362.55000000000001</ele>
        <time>2018-07-01T04:27:19Z</time>
      </trkpt>
      <trkpt lat="50.195545982569456" lon="7.88876798003912">
        <ele>349.57999999999998</ele>
        <time>2018-07-01T04:27:33Z</time>
      </trkpt>
      <trkpt lat="50.194356003776193" lon="7.88457702845335">
        <ele>339</ele>
        <time>2018-07-01T04:27:44Z</time>
      </trkpt>
      <trkpt lat="50.193887036293745" lon="7.881358964368701">
        <ele>332.26999999999998</ele>
        <time>2018-07-01T04:27:52Z</time>
      </trkpt>
      <trkpt lat="50.193269038572907" lon="7.878671977669001">
        <ele>327.47000000000003</ele>
        <time>2018-07-01T04:27:59Z</time>
      </trkpt>
      <trkpt lat="50.192157011479139" lon="7.875628005713224">
        <ele>320.74000000000001</ele>
        <time>2018-07-01T04:28:08Z</time>
      </trkpt>
      <trkpt lat="50.190618010237813" lon="7.87140503525734">
        <ele>307.75999999999999</ele>
        <time>2018-07-01T04:28:20Z</time>
      </trkpt>
      <trkpt lat="50.189589969813824" lon="7.867682967334986">
        <ele>293.33999999999997</ele>
        <time>2018-07-01T04:28:29Z</time>
      </trkpt>
      <trkpt lat="50.189332980662584" lon="7.864594990387559">
        <ele>282.27999999999997</ele>
        <time>2018-07-01T04:28:36Z</time>
      </trkpt>
      <trkpt lat="50.189672028645873" lon="7.86244603805244">
        <ele>273.63</ele>
        <time>2018-07-01T04:28:41Z</time>
      </trkpt>
      <trkpt lat="50.190411983057857" lon="7.860606964677572">
        <ele>265.94</ele>
        <time>2018-07-01T04:28:46Z</time>
      </trkpt>
      <trkpt lat="50.191095024347305" lon="7.858820026740432">
        <ele>261.13999999999999</ele>
        <time>2018-07-01T04:28:52Z</time>
      </trkpt>
      <trkpt lat="50.191628029569983" lon="7.85739803686738">
        <ele>258.73000000000002</ele>
        <time>2018-07-01T04:28:58Z</time>
      </trkpt>
      <trkpt lat="50.191748980432749" lon="7.857198966667056">
        <ele>258.25</ele>
        <time>2018-07-01T04:28:59Z</time>
      </trkpt>
      <trkpt lat="50.191884012892842" lon="7.857020013034344">
        <ele>257.76999999999998</ele>
        <time>2018-07-01T04:29:00Z</time>
      </trkpt>
      <trkpt lat="50.192556995898485" lon="7.856147959828377">
        <ele>256.32999999999998</ele>
        <time>2018-07-01T04:29:05Z</time>
      </trkpt>
      <trkpt lat="50.19269404001534" lon="7.855999013409019">
        <ele>256.32999999999998</ele>
        <time>2018-07-01T04:29:06Z</time>
      </trkpt>
      <trkpt lat="50.192848015576601" lon="7.855898011475802">
        <ele>256.32999999999998</ele>
        <time>2018-07-01T04:29:07Z</time>
      </trkpt>
      <trkpt lat="50.192993022501469" lon="7.855826010927558">
        <ele>256.81</ele>
        <time>2018-07-01T04:29:08Z</time>
      </trkpt>
      <trkpt lat="50.193174993619323" lon="7.8558100014925">
        <ele>256.81</ele>
        <time>2018-07-01T04:29:09Z</time>
      </trkpt>
      <trkpt lat="50.193343972787261" lon="7.855794997885823">
        <ele>257.29000000000002</ele>
        <time>2018-07-01T04:29:10Z</time>
      </trkpt>
      <trkpt lat="50.19351496361196" lon="7.85578896291554">
        <ele>257.29000000000002</ele>
        <time>2018-07-01T04:29:11Z</time>
      </trkpt>
      <trkpt lat="50.193678997457027" lon="7.855828022584319">
        <ele>257.76999999999998</ele>
        <time>2018-07-01T04:29:12Z</time>
      </trkpt>
      <trkpt lat="50.193836996331811" lon="7.855865992605686">
        <ele>257.76999999999998</ele>
        <time>2018-07-01T04:29:13Z</time>
      </trkpt>
      <trkpt lat="50.193994995206594" lon="7.855921983718872">
        <ele>257.76999999999998</ele>
        <time>2018-07-01T04:29:14Z</time>
      </trkpt>
      <trkpt lat="50.194141007959843" lon="7.856018040329218">
        <ele>257.29000000000002</ele>
        <time>2018-07-01T04:29:15Z</time>
      </trkpt>
      <trkpt lat="50.194276040419936" lon="7.856125999242067">
        <ele>257.29000000000002</ele>
        <time>2018-07-01T04:29:16Z</time>
      </trkpt>
      <trkpt lat="50.194405037909746" lon="7.856229012832046">
        <ele>257.29000000000002</ele>
        <time>2018-07-01T04:29:17Z</time>
      </trkpt>
      <trkpt lat="50.195196960121393" lon="7.856806023046374">
        <ele>255.37</ele>
        <time>2018-07-01T04:29:24Z</time>
      </trkpt>
      <trkpt lat="50.195540031418204" lon="7.856937032192946">
        <ele>253.93000000000001</ele>
        <time>2018-07-01T04:29:27Z</time>
      </trkpt>
      <trkpt lat="50.19566098228097" lon="7.856933008879423">
        <ele>253.93000000000001</ele>
        <time>2018-07-01T04:29:28Z</time>
      </trkpt>
      <trkpt lat="50.195782016962767" lon="7.856921022757888">
        <ele>253.44</ele>
        <time>2018-07-01T04:29:29Z</time>
      </trkpt>
      <trkpt lat="50.195898022502661" lon="7.856909958645701">
        <ele>253.44</ele>
        <time>2018-07-01T04:29:30Z</time>
      </trkpt>
      <trkpt lat="50.196018973365426" lon="7.856897972524166">
        <ele>253.44</ele>
        <time>2018-07-01T04:29:31Z</time>
      </trkpt>
      <trkpt lat="50.196474026888609" lon="7.856659004464746">
        <ele>252.96000000000001</ele>
        <time>2018-07-01T04:29:35Z</time>
      </trkpt>
      <trkpt lat="50.196577962487936" lon="7.856580968946219">
        <ele>252.96000000000001</ele>
        <time>2018-07-01T04:29:36Z</time>
      </trkpt>
      <trkpt lat="50.197690995410085" lon="7.855634987354279">
        <ele>250.56</ele>
        <time>2018-07-01T04:29:47Z</time>
      </trkpt>
      <trkpt lat="50.198100032284856" lon="7.855268027633429">
        <ele>250.56</ele>
        <time>2018-07-01T04:29:53Z</time>
      </trkpt>
      <trkpt lat="50.198241015896201" lon="7.855319995433092">
        <ele>250.08000000000001</ele>
        <time>2018-07-01T04:29:55Z</time>
      </trkpt>
      <trkpt lat="50.198272028937936" lon="7.855249000713229">
        <ele>249.59999999999999</ele>
        <time>2018-07-01T04:29:56Z</time>
      </trkpt>
      <trkpt lat="50.198272028937936" lon="7.85518798045814">
        <ele>249.59999999999999</ele>
        <time>2018-07-01T04:29:57Z</time>
      </trkpt>
      <trkpt lat="50.198294995352626" lon="7.855129977688193">
        <ele>249.12</ele>
        <time>2018-07-01T04:29:58Z</time>
      </trkpt>
      <trkpt lat="50.198326008394361" lon="7.855091001838446">
        <ele>249.12</ele>
        <time>2018-07-01T04:29:59Z</time>
      </trkpt>
      <trkpt lat="50.198532035574317" lon="7.85469202324748">
        <ele>247.19999999999999</ele>
        <time>2018-07-01T04:30:04Z</time>
      </trkpt>
      <trkpt lat="50.198672013357282" lon="7.854130016639829">
        <ele>247.68000000000001</ele>
        <time>2018-07-01T04:30:08Z</time>
      </trkpt>
      <trkpt lat="50.198705960065126" lon="7.853956008329988">
        <ele>247.68000000000001</ele>
        <time>2018-07-01T04:30:09Z</time>
      </trkpt>
      <trkpt lat="50.198739990592003" lon="7.853777976706624">
        <ele>247.68000000000001</ele>
        <time>2018-07-01T04:30:10Z</time>
      </trkpt>
      <trkpt lat="50.19877502694726" lon="7.853592988103628">
        <ele>247.68000000000001</ele>
        <time>2018-07-01T04:30:11Z</time>
      </trkpt>
      <trkpt lat="50.198811991140246" lon="7.853400958701968">
        <ele>248.16</ele>
        <time>2018-07-01T04:30:12Z</time>
      </trkpt>
      <trkpt lat="50.199278024956584" lon="7.852012999355793">
        <ele>248.63999999999999</ele>
        <time>2018-07-01T04:30:19Z</time>
      </trkpt>
      <trkpt lat="50.200160974636674" lon="7.850059010088444">
        <ele>248.63999999999999</ele>
        <time>2018-07-01T04:30:29Z</time>
      </trkpt>
      <trkpt lat="50.200265999883413" lon="7.849756004288793">
        <ele>248.63999999999999</ele>
        <time>2018-07-01T04:30:31Z</time>
      </trkpt>
      <trkpt lat="50.200288966298103" lon="7.849689032882452">
        <ele>248.63999999999999</ele>
        <time>2018-07-01T04:30:32Z</time>
      </trkpt>
      <trkpt lat="50.200463980436325" lon="7.849604962393642">
        <ele>248.63999999999999</ele>
        <time>2018-07-01T04:30:33Z</time>
      </trkpt>
      <trkpt lat="50.200482001528144" lon="7.849495997652412">
        <ele>248.63999999999999</ele>
        <time>2018-07-01T04:30:34Z</time>
      </trkpt>
      <trkpt lat="50.200443025678396" lon="7.849365994334221">
        <ele>248.63999999999999</ele>
        <time>2018-07-01T04:30:35Z</time>
      </trkpt>
      <trkpt lat="50.200441014021635" lon="7.849202966317534">
        <ele>248.63999999999999</ele>
        <time>2018-07-01T04:30:36Z</time>
      </trkpt>
      <trkpt lat="50.200482001528144" lon="7.849066006019712">
        <ele>248.63999999999999</ele>
        <time>2018-07-01T04:30:37Z</time>
      </trkpt>
      <trkpt lat="50.200531035661697" lon="7.848903983831406">
        <ele>248.16</ele>
        <time>2018-07-01T04:30:38Z</time>
      </trkpt>
      <trkpt lat="50.200586020946503" lon="7.84871899522841">
        <ele>248.16</ele>
        <time>2018-07-01T04:30:39Z</time>
      </trkpt>
      <trkpt lat="50.20064796321094" lon="7.848513973876834">
        <ele>248.16</ele>
        <time>2018-07-01T04:30:40Z</time>
      </trkpt>
      <trkpt lat="50.200714012607932" lon="7.848292021080852">
        <ele>247.68000000000001</ele>
        <time>2018-07-01T04:30:41Z</time>
      </trkpt>
      <trkpt lat="50.200786013156176" lon="7.84805397503078">
        <ele>247.68000000000001</ele>
        <time>2018-07-01T04:30:42Z</time>
      </trkpt>
      <trkpt lat="50.201516998931766" lon="7.846222026273608">
        <ele>247.19999999999999</ele>
        <time>2018-07-01T04:30:49Z</time>
      </trkpt>
      <trkpt lat="50.202752994373441" lon="7.844248004257679">
        <ele>246.72</ele>
        <time>2018-07-01T04:30:57Z</time>
      </trkpt>
      <trkpt lat="50.204870011657476" lon="7.841057013720274">
        <ele>242.87</ele>
        <time>2018-07-01T04:31:10Z</time>
      </trkpt>
      <trkpt lat="50.205934010446072" lon="7.839554976671934">
        <ele>241.43000000000001</ele>
        <time>2018-07-01T04:31:17Z</time>
      </trkpt>
      <trkpt lat="50.207505030557513" lon="7.838200964033604">
        <ele>239.50999999999999</ele>
        <time>2018-07-01T04:31:26Z</time>
      </trkpt>
      <trkpt lat="50.209252992644906" lon="7.837510965764523">
        <ele>239.02000000000001</ele>
        <time>2018-07-01T04:31:35Z</time>
      </trkpt>
      <trkpt lat="50.211303038522601" lon="7.837457992136478">
        <ele>238.53999999999999</ele>
        <time>2018-07-01T04:31:44Z</time>
      </trkpt>
      <trkpt lat="50.214190017431974" lon="7.83741700462997">
        <ele>240.94999999999999</ele>
        <time>2018-07-01T04:31:56Z</time>
      </trkpt>
      <trkpt lat="50.215076990425587" lon="7.837352966889739">
        <ele>241.43000000000001</ele>
        <time>2018-07-01T04:32:00Z</time>
      </trkpt>
      <trkpt lat="50.215272037312388" lon="7.837273003533483">
        <ele>240.94999999999999</ele>
        <time>2018-07-01T04:32:01Z</time>
      </trkpt>
      <trkpt lat="50.21566397510469" lon="7.837048033252358">
        <ele>240.94999999999999</ele>
        <time>2018-07-01T04:32:03Z</time>
      </trkpt>
      <trkpt lat="50.215847035869956" lon="7.836886011064053">
        <ele>240.47</ele>
        <time>2018-07-01T04:32:04Z</time>
      </trkpt>
      <trkpt lat="50.216016015037894" lon="7.836712002754211">
        <ele>239.99000000000001</ele>
        <time>2018-07-01T04:32:05Z</time>
      </trkpt>
      <trkpt lat="50.216175019741058" lon="7.836507987231016">
        <ele>239.50999999999999</ele>
        <time>2018-07-01T04:32:06Z</time>
      </trkpt>
      <trkpt lat="50.2163300011307" lon="7.836311012506485">
        <ele>239.02000000000001</ele>
        <time>2018-07-01T04:32:07Z</time>
      </trkpt>
      <trkpt lat="50.216929977759719" lon="7.83557097427547">
        <ele>236.62</ele>
        <time>2018-07-01T04:32:11Z</time>
      </trkpt>
      <trkpt lat="50.217098034918308" lon="7.835439965128899">
        <ele>235.66</ele>
        <time>2018-07-01T04:32:12Z</time>
      </trkpt>
      <trkpt lat="50.218753041699529" lon="7.834369009360671">
        <ele>230.84999999999999</ele>
        <time>2018-07-01T04:32:21Z</time>
      </trkpt>
      <trkpt lat="50.2200479619205" lon="7.834060974419117">
        <ele>228.93000000000001</ele>
        <time>2018-07-01T04:32:28Z</time>
      </trkpt>
      <trkpt lat="50.220887996256351" lon="7.83391697332263">
        <ele>229.41</ele>
        <time>2018-07-01T04:32:33Z</time>
      </trkpt>
      <trkpt lat="50.221016993746161" lon="7.833982016891241">
        <ele>229.41</ele>
        <time>2018-07-01T04:32:34Z</time>
      </trkpt>
      <trkpt lat="50.221170969307423" lon="7.834058962762356">
        <ele>229.41</ele>
        <time>2018-07-01T04:32:35Z</time>
      </trkpt>
      <trkpt lat="50.221323017030954" lon="7.834133980795741">
        <ele>229.41</ele>
        <time>2018-07-01T04:32:36Z</time>
      </trkpt>
      <trkpt lat="50.221469029784203" lon="7.834206987172365">
        <ele>228.93000000000001</ele>
        <time>2018-07-01T04:32:37Z</time>
      </trkpt>
      <trkpt lat="50.221609007567167" lon="7.834276976063848">
        <ele>228.44999999999999</ele>
        <time>2018-07-01T04:32:38Z</time>
      </trkpt>
      <trkpt lat="50.221747979521751" lon="7.834307989105582">
        <ele>227.97</ele>
        <time>2018-07-01T04:32:39Z</time>
      </trkpt>
      <trkpt lat="50.221881000325084" lon="7.83430203795433">
        <ele>227.49000000000001</ele>
        <time>2018-07-01T04:32:40Z</time>
      </trkpt>
      <trkpt lat="50.222006980329752" lon="7.834244035184383">
        <ele>227.00999999999999</ele>
        <time>2018-07-01T04:32:41Z</time>
      </trkpt>
      <trkpt lat="50.222123991698027" lon="7.834185026586056">
        <ele>226.05000000000001</ele>
        <time>2018-07-01T04:32:42Z</time>
      </trkpt>
      <trkpt lat="50.222231028601527" lon="7.834090981632471">
        <ele>225.56999999999999</ele>
        <time>2018-07-01T04:32:43Z</time>
      </trkpt>
      <trkpt lat="50.222334964200854" lon="7.833999032154679">
        <ele>224.61000000000001</ele>
        <time>2018-07-01T04:32:44Z</time>
      </trkpt>
      <trkpt lat="50.223096963018179" lon="7.833376005291939">
        <ele>220.28</ele>
        <time>2018-07-01T04:32:52Z</time>
      </trkpt>
      <trkpt lat="50.223200982436538" lon="7.833353038877249">
        <ele>219.80000000000001</ele>
        <time>2018-07-01T04:32:53Z</time>
      </trkpt>
      <trkpt lat="50.223308019340038" lon="7.833328982815146">
        <ele>219.80000000000001</ele>
        <time>2018-07-01T04:32:54Z</time>
      </trkpt>
      <trkpt lat="50.224447958171368" lon="7.833102000877261">
        <ele>216.43000000000001</ele>
        <time>2018-07-01T04:33:05Z</time>
      </trkpt>
      <trkpt lat="50.224535968154669" lon="7.833080040290952">
        <ele>216.43000000000001</ele>
        <time>2018-07-01T04:33:06Z</time>
      </trkpt>
      <trkpt lat="50.224592965096235" lon="7.83299102447927">
        <ele>215.94999999999999</ele>
        <time>2018-07-01T04:33:07Z</time>
      </trkpt>
      <trkpt lat="50.224729003384709" lon="7.832777034491301">
        <ele>216.43000000000001</ele>
        <time>2018-07-01T04:33:09Z</time>
      </trkpt>
      <trkpt lat="50.224793963134289" lon="7.832675026729703">
        <ele>216.43000000000001</ele>
        <time>2018-07-01T04:33:10Z</time>
      </trkpt>
      <trkpt lat="50.224860012531281" lon="7.832570001482964">
        <ele>216.43000000000001</ele>
        <time>2018-07-01T04:33:11Z</time>
      </trkpt>
      <trkpt lat="50.225079031661153" lon="7.832225002348423">
        <ele>217.40000000000001</ele>
        <time>2018-07-01T04:33:14Z</time>
      </trkpt>
      <trkpt lat="50.225299978628755" lon="7.831876985728741">
        <ele>217.88</ele>
        <time>2018-07-01T04:33:17Z</time>
      </trkpt>
      <trkpt lat="50.225372985005379" lon="7.831761986017227">
        <ele>218.36000000000001</ele>
        <time>2018-07-01T04:33:18Z</time>
      </trkpt>
      <trkpt lat="50.225444985553622" lon="7.831654027104378">
        <ele>218.84</ele>
        <time>2018-07-01T04:33:19Z</time>
      </trkpt>
      <trkpt lat="50.225658975541592" lon="7.831348003819585">
        <ele>219.80000000000001</ele>
        <time>2018-07-01T04:33:22Z</time>
      </trkpt>
      <trkpt lat="50.225728964433074" lon="7.83125001937151">
        <ele>219.80000000000001</ele>
        <time>2018-07-01T04:33:23Z</time>
      </trkpt>
      <trkpt lat="50.226031970232725" lon="7.830896973609924">
        <ele>220.28</ele>
        <time>2018-07-01T04:33:27Z</time>
      </trkpt>
      <trkpt lat="50.226111011579633" lon="7.830819021910429">
        <ele>220.28</ele>
        <time>2018-07-01T04:33:28Z</time>
      </trkpt>
      <trkpt lat="50.226189969107509" lon="7.830738974735141">
        <ele>220.75999999999999</ele>
        <time>2018-07-01T04:33:29Z</time>
      </trkpt>
      <trkpt lat="50.226360037922859" lon="7.830596985295415">
        <ele>221.24000000000001</ele>
        <time>2018-07-01T04:33:31Z</time>
      </trkpt>
      <trkpt lat="50.226446036249399" lon="7.83056597225368">
        <ele>221.72</ele>
        <time>2018-07-01T04:33:32Z</time>
      </trkpt>
      <trkpt lat="50.226529017090797" lon="7.830534959211946">
        <ele>221.24000000000001</ele>
        <time>2018-07-01T04:33:33Z</time>
      </trkpt>
      <trkpt lat="50.22661903873086" lon="7.830532025545836">
        <ele>220.75999999999999</ele>
        <time>2018-07-01T04:33:34Z</time>
      </trkpt>
      <trkpt lat="50.2267050370574" lon="7.830537976697087">
        <ele>220.28</ele>
        <time>2018-07-01T04:33:35Z</time>
      </trkpt>
      <trkpt lat="50.226789023727179" lon="7.830545017495751">
        <ele>219.31999999999999</ele>
        <time>2018-07-01T04:33:36Z</time>
      </trkpt>
      <trkpt lat="50.226876027882099" lon="7.830551974475384">
        <ele>218.36000000000001</ele>
        <time>2018-07-01T04:33:37Z</time>
      </trkpt>
      <trkpt lat="50.2269640378654" lon="7.830558009445667">
        <ele>216.91</ele>
        <time>2018-07-01T04:33:38Z</time>
      </trkpt>
      <trkpt lat="50.227293027564883" lon="7.830583993345499">
        <ele>213.55000000000001</ele>
        <time>2018-07-01T04:33:42Z</time>
      </trkpt>
      <trkpt lat="50.227375002577901" lon="7.83056597225368">
        <ele>212.59</ele>
        <time>2018-07-01T04:33:43Z</time>
      </trkpt>
      <trkpt lat="50.22745999507606" lon="7.830547029152513">
        <ele>212.59</ele>
        <time>2018-07-01T04:33:44Z</time>
      </trkpt>
      <trkpt lat="50.22754498757422" lon="7.830528002232313">
        <ele>212.11000000000001</ele>
        <time>2018-07-01T04:33:45Z</time>
      </trkpt>
      <trkpt lat="50.227634003385901" lon="7.830507969483733">
        <ele>211.63</ele>
        <time>2018-07-01T04:33:46Z</time>
      </trkpt>
      <trkpt lat="50.227726958692074" lon="7.830488020554185">
        <ele>211.63</ele>
        <time>2018-07-01T04:33:47Z</time>
      </trkpt>
      <trkpt lat="50.227841036394238" lon="7.830462958663702">
        <ele>211.63</ele>
        <time>2018-07-01T04:33:48Z</time>
      </trkpt>
      <trkpt lat="50.227901972830296" lon="7.830419037491083">
        <ele>211.63</ele>
        <time>2018-07-01T04:33:49Z</time>
      </trkpt>
      <trkpt lat="50.228140018880367" lon="7.830247962847352">
        <ele>210.19</ele>
        <time>2018-07-01T04:33:52Z</time>
      </trkpt>
      <trkpt lat="50.22821000777185" lon="7.830189038068056">
        <ele>209.22</ele>
        <time>2018-07-01T04:33:53Z</time>
      </trkpt>
      <trkpt lat="50.228278990834951" lon="7.830130029469729">
        <ele>208.74000000000001</ele>
        <time>2018-07-01T04:33:54Z</time>
      </trkpt>
      <trkpt lat="50.228347973898053" lon="7.83007001504302">
        <ele>208.25999999999999</ele>
        <time>2018-07-01T04:33:55Z</time>
      </trkpt>
      <trkpt lat="50.228441013023257" lon="7.829989967867732">
        <ele>208.25999999999999</ele>
        <time>2018-07-01T04:33:56Z</time>
      </trkpt>
      <trkpt lat="50.228471020236611" lon="7.829944035038352">
        <ele>208.74000000000001</ele>
        <time>2018-07-01T04:33:57Z</time>
      </trkpt>
      <trkpt lat="50.228517036885023" lon="7.829869017004967">
        <ele>209.22</ele>
        <time>2018-07-01T04:33:58Z</time>
      </trkpt>
      <trkpt lat="50.228548971936107" lon="7.829796010628343">
        <ele>209.69999999999999</ele>
        <time>2018-07-01T04:33:59Z</time>
      </trkpt>
      <trkpt lat="50.228548971936107" lon="7.829720992594957">
        <ele>210.19</ele>
        <time>2018-07-01T04:34:00Z</time>
      </trkpt>
      <trkpt lat="50.228548971936107" lon="7.829646980389953">
        <ele>210.66999999999999</ele>
        <time>2018-07-01T04:34:01Z</time>
      </trkpt>
      <trkpt lat="50.228548971936107" lon="7.829646980389953">
        <ele>210.66999999999999</ele>
        <time>2018-07-01T04:34:02Z</time>
      </trkpt>
      <trkpt lat="50.228542014956474" lon="7.829593000933528">
        <ele>210.66999999999999</ele>
        <time>2018-07-01T04:34:03Z</time>
      </trkpt>
      <trkpt lat="50.228537991642952" lon="7.829560982063413">
        <ele>211.15000000000001</ele>
        <time>2018-07-01T04:34:04Z</time>
      </trkpt>
      <trkpt lat="50.22853497415781" lon="7.829530974850059">
        <ele>211.15000000000001</ele>
        <time>2018-07-01T04:34:05Z</time>
      </trkpt>
      <trkpt lat="50.22853103466332" lon="7.829502979293466">
        <ele>211.15000000000001</ele>
        <time>2018-07-01T04:34:06Z</time>
      </trkpt>
      <trkpt lat="50.228528017178178" lon="7.829476995393634">
        <ele>211.63</ele>
        <time>2018-07-01T04:34:07Z</time>
      </trkpt>
      <trkpt lat="50.228524999693036" lon="7.829453023150563">
        <ele>211.63</ele>
        <time>2018-07-01T04:34:08Z</time>
      </trkpt>
      <trkpt lat="50.228521982207894" lon="7.829423015937209">
        <ele>212.11000000000001</ele>
        <time>2018-07-01T04:34:09Z</time>
      </trkpt>
      <trkpt lat="50.228499015793204" lon="7.828967040404677">
        <ele>214.03</ele>
        <time>2018-07-01T04:34:22Z</time>
      </trkpt>
      <trkpt lat="50.228503961116076" lon="7.82890903763473">
        <ele>214.50999999999999</ele>
        <time>2018-07-01T04:34:37Z</time>
      </trkpt>
      <trkpt lat="50.228505972772837" lon="7.828895961865783">
        <ele>214.50999999999999</ele>
        <time>2018-07-01T04:34:38Z</time>
      </trkpt>
      <trkpt lat="50.228495998308063" lon="7.828897973522544">
        <ele>214.99000000000001</ele>
        <time>2018-07-01T04:34:39Z</time>
      </trkpt>
      <trkpt lat="50.228505972772837" lon="7.828895961865783">
        <ele>214.99000000000001</ele>
        <time>2018-07-01T04:34:40Z</time>
      </trkpt>
      <trkpt lat="50.228503039106727" lon="7.828926974907517">
        <ele>214.99000000000001</ele>
        <time>2018-07-01T04:34:41Z</time>
      </trkpt>
      <trkpt lat="50.228503039106727" lon="7.828926974907517">
        <ele>214.99000000000001</ele>
        <time>2018-07-01T04:34:42Z</time>
      </trkpt>
      <trkpt lat="50.228503039106727" lon="7.828926974907517">
        <ele>214.99000000000001</ele>
        <time>2018-07-01T04:34:58Z</time>
      </trkpt>
      <trkpt lat="50.228494992479682" lon="7.829004004597664">
        <ele>214.50999999999999</ele>
        <time>2018-07-01T04:35:19Z</time>
      </trkpt>
      <trkpt lat="50.228484012186527" lon="7.829111041501164">
        <ele>214.99000000000001</ele>
        <time>2018-07-01T04:35:20Z</time>
      </trkpt>
      <trkpt lat="50.228548971936107" lon="7.829681010916829">
        <ele>214.99000000000001</ele>
        <time>2018-07-01T04:35:26Z</time>
      </trkpt>
      <trkpt lat="50.228548971936107" lon="7.829741025343537">
        <ele>215.47</ele>
        <time>2018-07-01T04:35:27Z</time>
      </trkpt>
      <trkpt lat="50.228548971936107" lon="7.829788969829679">
        <ele>215.47</ele>
        <time>2018-07-01T04:35:28Z</time>
      </trkpt>
      <trkpt lat="50.228588031604886" lon="7.829806990921497">
        <ele>215.47</ele>
        <time>2018-07-01T04:35:29Z</time>
      </trkpt>
      <trkpt lat="50.228633964434266" lon="7.829792993143201">
        <ele>215.47</ele>
        <time>2018-07-01T04:35:30Z</time>
      </trkpt>
      <trkpt lat="50.228690039366484" lon="7.829775977879763">
        <ele>215.47</ele>
        <time>2018-07-01T04:35:31Z</time>
      </trkpt>
      <trkpt lat="50.228756004944444" lon="7.829756028950214">
        <ele>215.47</ele>
        <time>2018-07-01T04:35:32Z</time>
      </trkpt>
      <trkpt lat="50.229011988267303" lon="7.829678999260068">
        <ele>215.47</ele>
        <time>2018-07-01T04:35:35Z</time>
      </trkpt>
      <trkpt lat="50.229711038991809" lon="7.829527035355568">
        <ele>217.40000000000001</ele>
        <time>2018-07-01T04:35:41Z</time>
      </trkpt>
      <trkpt lat="50.229857973754406" lon="7.829517982900143">
        <ele>217.40000000000001</ele>
        <time>2018-07-01T04:35:42Z</time>
      </trkpt>
      <trkpt lat="50.231319023296237" lon="7.829720992594957">
        <ele>215.47</ele>
        <time>2018-07-01T04:35:52Z</time>
      </trkpt>
      <trkpt lat="50.231816992163658" lon="7.829922996461391">
        <ele>214.99000000000001</ele>
        <time>2018-07-01T04:35:55Z</time>
      </trkpt>
      <trkpt lat="50.231989994645119" lon="7.83000597730279">
        <ele>214.99000000000001</ele>
        <time>2018-07-01T04:35:56Z</time>
      </trkpt>
      <trkpt lat="50.233150972053409" lon="7.830736041069031">
        <ele>214.99000000000001</ele>
        <time>2018-07-01T04:36:03Z</time>
      </trkpt>
      <trkpt lat="50.233294973149896" lon="7.830792032182217">
        <ele>215.47</ele>
        <time>2018-07-01T04:36:04Z</time>
      </trkpt>
      <trkpt lat="50.233420031145215" lon="7.830806029960513">
        <ele>215.94999999999999</ele>
        <time>2018-07-01T04:36:05Z</time>
      </trkpt>
      <trkpt lat="50.23356000892818" lon="7.830707039684057">
        <ele>216.91</ele>
        <time>2018-07-01T04:36:06Z</time>
      </trkpt>
      <trkpt lat="50.233667967841029" lon="7.830598996952176">
        <ele>217.40000000000001</ele>
        <time>2018-07-01T04:36:07Z</time>
      </trkpt>
      <trkpt lat="50.233764024451375" lon="7.830439992249012">
        <ele>218.36000000000001</ele>
        <time>2018-07-01T04:36:08Z</time>
      </trkpt>
      <trkpt lat="50.233845999464393" lon="7.830249974504113">
        <ele>219.80000000000001</ele>
        <time>2018-07-01T04:36:09Z</time>
      </trkpt>
      <trkpt lat="50.233929986134171" lon="7.830054005607963">
        <ele>220.75999999999999</ele>
        <time>2018-07-01T04:36:10Z</time>
      </trkpt>
      <trkpt lat="50.234015984460711" lon="7.82985501922667">
        <ele>221.72</ele>
        <time>2018-07-01T04:36:11Z</time>
      </trkpt>
      <trkpt lat="50.234106006100774" lon="7.829646980389953">
        <ele>222.68000000000001</ele>
        <time>2018-07-01T04:36:12Z</time>
      </trkpt>
      <trkpt lat="50.234230980277061" lon="7.829505996778607">
        <ele>223.63999999999999</ele>
        <time>2018-07-01T04:36:13Z</time>
      </trkpt>
      <trkpt lat="50.234339023008943" lon="7.829470038414002">
        <ele>225.09</ele>
        <time>2018-07-01T04:36:14Z</time>
      </trkpt>
      <trkpt lat="50.234418986365199" lon="7.829487975686789">
        <ele>226.05000000000001</ele>
        <time>2018-07-01T04:36:15Z</time>
      </trkpt>
      <trkpt lat="50.234475983306766" lon="7.829544972628355">
        <ele>227.00999999999999</ele>
        <time>2018-07-01T04:36:16Z</time>
      </trkpt>
      <trkpt lat="50.234534991905093" lon="7.829603981226683">
        <ele>227.97</ele>
        <time>2018-07-01T04:36:17Z</time>
      </trkpt>
      <trkpt lat="50.234552007168531" lon="7.829700037837029">
        <ele>229.41</ele>
        <time>2018-07-01T04:36:18Z</time>
      </trkpt>
      <trkpt lat="50.234573967754841" lon="7.829819982871413">
        <ele>230.37</ele>
        <time>2018-07-01T04:36:19Z</time>
      </trkpt>
      <trkpt lat="50.234599029645324" lon="7.829959038645029">
        <ele>231.33000000000001</ele>
        <time>2018-07-01T04:36:20Z</time>
      </trkpt>
      <trkpt lat="50.234627025201917" lon="7.830117959529162">
        <ele>232.30000000000001</ele>
        <time>2018-07-01T04:36:21Z</time>
      </trkpt>
      <trkpt lat="50.234672036021948" lon="7.830287022516131">
        <ele>233.25999999999999</ele>
        <time>2018-07-01T04:36:22Z</time>
      </trkpt>
      <trkpt lat="50.234732972458005" lon="7.83045600168407">
        <ele>234.22</ele>
        <time>2018-07-01T04:36:23Z</time>
      </trkpt>
      <trkpt lat="50.234802961349487" lon="7.83064903691411">
        <ele>234.69999999999999</ele>
        <time>2018-07-01T04:36:24Z</time>
      </trkpt>
      <trkpt lat="50.235109990462661" lon="7.831259993836284">
        <ele>238.06</ele>
        <time>2018-07-01T04:36:27Z</time>
      </trkpt>
      <trkpt lat="50.235247034579515" lon="7.83146501518786">
        <ele>239.50999999999999</ele>
        <time>2018-07-01T04:36:28Z</time>
      </trkpt>
      <trkpt lat="50.235391035676003" lon="7.83168101683259">
        <ele>240.94999999999999</ele>
        <time>2018-07-01T04:36:29Z</time>
      </trkpt>
      <trkpt lat="50.236769020557404" lon="7.833143994212151">
        <ele>256.32999999999998</ele>
        <time>2018-07-01T04:36:37Z</time>
      </trkpt>
      <trkpt lat="50.236931964755058" lon="7.833254970610142">
        <ele>258.73000000000002</ele>
        <time>2018-07-01T04:36:38Z</time>
      </trkpt>
      <trkpt lat="50.238209031522274" lon="7.833977993577719">
        <ele>273.14999999999998</ele>
        <time>2018-07-01T04:36:45Z</time>
      </trkpt>
      <trkpt lat="50.238387985154986" lon="7.834140015766025">
        <ele>275.06999999999999</ele>
        <time>2018-07-01T04:36:46Z</time>
      </trkpt>
      <trkpt lat="50.238989973440766" lon="7.834823979064822">
        <ele>280.36000000000001</ele>
        <time>2018-07-01T04:36:50Z</time>
      </trkpt>
      <trkpt lat="50.239113019779325" lon="7.835034029558301">
        <ele>281.80000000000001</ele>
        <time>2018-07-01T04:36:51Z</time>
      </trkpt>
      <trkpt lat="50.239760018885136" lon="7.836140021681786">
        <ele>288.05000000000001</ele>
        <time>2018-07-01T04:36:56Z</time>
      </trkpt>
      <trkpt lat="50.239894967526197" lon="7.836357029154897">
        <ele>289.00999999999999</ele>
        <time>2018-07-01T04:36:57Z</time>
      </trkpt>
      <trkpt lat="50.240064030513167" lon="7.836506981402636">
        <ele>290.45999999999998</ele>
        <time>2018-07-01T04:36:58Z</time>
      </trkpt>
      <trkpt lat="50.241160970181227" lon="7.837422033771873">
        <ele>296.22000000000003</ele>
        <time>2018-07-01T04:37:04Z</time>
      </trkpt>
      <trkpt lat="50.241371020674706" lon="7.837518006563187">
        <ele>297.67000000000002</ele>
        <time>2018-07-01T04:37:05Z</time>
      </trkpt>
      <trkpt lat="50.243010018020868" lon="7.83808303065598">
        <ele>310.63999999999999</ele>
        <time>2018-07-01T04:37:13Z</time>
      </trkpt>
      <trkpt lat="50.243433974683285" lon="7.838205993175507">
        <ele>311.12</ele>
        <time>2018-07-01T04:37:16Z</time>
      </trkpt>
      <trkpt lat="50.243602031841874" lon="7.838195012882352">
        <ele>310.63999999999999</ele>
        <time>2018-07-01T04:37:17Z</time>
      </trkpt>
      <trkpt lat="50.244294963777065" lon="7.83814799040556">
        <ele>307.75999999999999</ele>
        <time>2018-07-01T04:37:21Z</time>
      </trkpt>
      <trkpt lat="50.244425972923636" lon="7.838200964033604">
        <ele>306.80000000000001</ele>
        <time>2018-07-01T04:37:22Z</time>
      </trkpt>
      <trkpt lat="50.24453803896904" lon="7.838274976238608">
        <ele>306.31999999999999</ele>
        <time>2018-07-01T04:37:23Z</time>
      </trkpt>
      <trkpt lat="50.244632000103593" lon="7.838382013142109">
        <ele>304.88</ele>
        <time>2018-07-01T04:37:24Z</time>
      </trkpt>
      <trkpt lat="50.244708023965359" lon="7.838533977046609">
        <ele>303.91000000000003</ele>
        <time>2018-07-01T04:37:25Z</time>
      </trkpt>
      <trkpt lat="50.244781030341983" lon="7.838701028376818">
        <ele>303.43000000000001</ele>
        <time>2018-07-01T04:37:26Z</time>
      </trkpt>
      <trkpt lat="50.244850013405085" lon="7.838890962302685">
        <ele>302.94999999999999</ele>
        <time>2018-07-01T04:37:27Z</time>
      </trkpt>
      <trkpt lat="50.245290985330939" lon="7.839863011613488">
        <ele>299.58999999999997</ele>
        <time>2018-07-01T04:37:32Z</time>
      </trkpt>
      <trkpt lat="50.24540196172893" lon="7.839989997446537">
        <ele>299.11000000000001</ele>
        <time>2018-07-01T04:37:33Z</time>
      </trkpt>
      <trkpt lat="50.245534982532263" lon="7.840044982731342">
        <ele>298.63</ele>
        <time>2018-07-01T04:37:34Z</time>
      </trkpt>
      <trkpt lat="50.245673032477498" lon="7.840069038793445">
        <ele>298.14999999999998</ele>
        <time>2018-07-01T04:37:35Z</time>
      </trkpt>
      <trkpt lat="50.245819967240095" lon="7.840054035186768">
        <ele>297.67000000000002</ele>
        <time>2018-07-01T04:37:36Z</time>
      </trkpt>
      <trkpt lat="50.245965979993343" lon="7.840040037408471">
        <ele>297.18000000000001</ele>
        <time>2018-07-01T04:37:37Z</time>
      </trkpt>
      <trkpt lat="50.246353978291154" lon="7.839915985241532">
        <ele>295.74000000000001</ele>
        <time>2018-07-01T04:37:40Z</time>
      </trkpt>
      <trkpt lat="50.246461015194654" lon="7.839821018278599">
        <ele>295.25999999999999</ele>
        <time>2018-07-01T04:37:41Z</time>
      </trkpt>
      <trkpt lat="50.246563022956252" lon="7.839730996638537">
        <ele>294.77999999999997</ele>
        <time>2018-07-01T04:37:42Z</time>
      </trkpt>
      <trkpt lat="50.246658995747566" lon="7.839646004140377">
        <ele>294.30000000000001</ele>
        <time>2018-07-01T04:37:43Z</time>
      </trkpt>
      <trkpt lat="50.246741976588964" lon="7.839536033570766">
        <ele>293.81999999999999</ele>
        <time>2018-07-01T04:37:44Z</time>
      </trkpt>
      <trkpt lat="50.24681699462235" lon="7.839431008324027">
        <ele>293.33999999999997</ele>
        <time>2018-07-01T04:37:45Z</time>
      </trkpt>
      <trkpt lat="50.247272970154881" lon="7.838786020874977">
        <ele>292.86000000000001</ele>
        <time>2018-07-01T04:37:53Z</time>
      </trkpt>
      <trkpt lat="50.247342037037015" lon="7.838712008669972">
        <ele>293.33999999999997</ele>
        <time>2018-07-01T04:37:54Z</time>
      </trkpt>
      <trkpt lat="50.247929021716118" lon="7.83808303065598">
        <ele>299.58999999999997</ele>
        <time>2018-07-01T04:38:03Z</time>
      </trkpt>
      <trkpt lat="50.248032035306096" lon="7.837972976267338">
        <ele>301.50999999999999</ele>
        <time>2018-07-01T04:38:07Z</time>
      </trkpt>
      <trkpt lat="50.248030023649335" lon="7.83793299458921">
        <ele>301.99000000000001</ele>
        <time>2018-07-01T04:38:08Z</time>
      </trkpt>
      <trkpt lat="50.248027006164193" lon="7.837869040668011">
        <ele>302.47000000000003</ele>
        <time>2018-07-01T04:38:09Z</time>
      </trkpt>
      <trkpt lat="50.24802197702229" lon="7.8377849701792">
        <ele>302.94999999999999</ele>
        <time>2018-07-01T04:38:10Z</time>
      </trkpt>
      <trkpt lat="50.248017031699419" lon="7.837682040408254">
        <ele>302.94999999999999</ele>
        <time>2018-07-01T04:38:11Z</time>
      </trkpt>
      <trkpt lat="50.24799800477922" lon="7.837339974939823">
        <ele>302.94999999999999</ele>
        <time>2018-07-01T04:38:14Z</time>
      </trkpt>
      <trkpt lat="50.247991969808936" lon="7.837213994935155">
        <ele>302.94999999999999</ele>
        <time>2018-07-01T04:38:15Z</time>
      </trkpt>
      <trkpt lat="50.247985012829304" lon="7.837087009102106">
        <ele>302.94999999999999</ele>
        <time>2018-07-01T04:38:16Z</time>
      </trkpt>
      <trkpt lat="50.248007979243994" lon="7.836273964494467">
        <ele>300.06999999999999</ele>
        <time>2018-07-01T04:38:22Z</time>
      </trkpt>
      <trkpt lat="50.248046033084393" lon="7.836163993924856">
        <ele>299.58999999999997</ele>
        <time>2018-07-01T04:38:23Z</time>
      </trkpt>
      <trkpt lat="50.248102024197578" lon="7.836056035012007">
        <ele>299.58999999999997</ele>
        <time>2018-07-01T04:38:24Z</time>
      </trkpt>
      <trkpt lat="50.248852958902717" lon="7.835052972659469">
        <ele>301.02999999999997</ele>
        <time>2018-07-01T04:38:32Z</time>
      </trkpt>
      <trkpt lat="50.249618981033564" lon="7.833899036049843">
        <ele>301.99000000000001</ele>
        <time>2018-07-01T04:38:38Z</time>
      </trkpt>
      <trkpt lat="50.249731969088316" lon="7.833616985008121">
        <ele>301.02999999999997</ele>
        <time>2018-07-01T04:38:39Z</time>
      </trkpt>
      <trkpt lat="50.250280983746052" lon="7.831955021247268">
        <ele>297.18000000000001</ele>
        <time>2018-07-01T04:38:44Z</time>
      </trkpt>
      <trkpt lat="50.251388987526298" lon="7.828175034373999">
        <ele>295.74000000000001</ele>
        <time>2018-07-01T04:38:54Z</time>
      </trkpt>
      <trkpt lat="50.252312002703547" lon="7.824946995824575">
        <ele>301.02999999999997</ele>
        <time>2018-07-01T04:39:03Z</time>
      </trkpt>
      <trkpt lat="50.252949027344584" lon="7.822638032957912">
        <ele>292.86000000000001</ele>
        <time>2018-07-01T04:39:10Z</time>
      </trkpt>
      <trkpt lat="50.25354003533721" lon="7.821017978712916">
        <ele>283.73000000000002</ele>
        <time>2018-07-01T04:39:16Z</time>
      </trkpt>
      <trkpt lat="50.253598960116506" lon="7.820772975683212">
        <ele>281.80000000000001</ele>
        <time>2018-07-01T04:39:17Z</time>
      </trkpt>
      <trkpt lat="50.253635002300143" lon="7.820534007623792">
        <ele>279.88</ele>
        <time>2018-07-01T04:39:18Z</time>
      </trkpt>
      <trkpt lat="50.253640031442046" lon="7.820266038179398">
        <ele>277.48000000000002</ele>
        <time>2018-07-01T04:39:19Z</time>
      </trkpt>
      <trkpt lat="50.253645982593298" lon="7.819974012672901">
        <ele>275.06999999999999</ele>
        <time>2018-07-01T04:39:20Z</time>
      </trkpt>
      <trkpt lat="50.253654029220343" lon="7.819584002718329">
        <ele>272.67000000000002</ele>
        <time>2018-07-01T04:39:21Z</time>
      </trkpt>
      <trkpt lat="50.253636008128524" lon="7.81932701356709">
        <ele>270.26999999999998</ele>
        <time>2018-07-01T04:39:22Z</time>
      </trkpt>
      <trkpt lat="50.253397040069103" lon="7.817008998245001">
        <ele>264.01999999999998</ele>
        <time>2018-07-01T04:39:29Z</time>
      </trkpt>
      <trkpt lat="50.253385975956917" lon="7.815728997811675">
        <ele>268.35000000000002</ele>
        <time>2018-07-01T04:39:35Z</time>
      </trkpt>
      <trkpt lat="50.253534000366926" lon="7.814587969332933">
        <ele>273.14999999999998</ele>
        <time>2018-07-01T04:39:43Z</time>
      </trkpt>
      <trkpt lat="50.253625027835369" lon="7.814045995473862">
        <ele>277.48000000000002</ele>
        <time>2018-07-01T04:39:49Z</time>
      </trkpt>
      <trkpt lat="50.253639025613666" lon="7.813925966620445">
        <ele>278.44</ele>
        <time>2018-07-01T04:39:50Z</time>
      </trkpt>
      <trkpt lat="50.253653023391962" lon="7.813804009929299">
        <ele>278.92000000000002</ele>
        <time>2018-07-01T04:39:51Z</time>
      </trkpt>
      <trkpt lat="50.253765005618334" lon="7.813178971409798">
        <ele>280.36000000000001</ele>
        <time>2018-07-01T04:39:56Z</time>
      </trkpt>
      <trkpt lat="50.25379903614521" lon="7.813058020547032">
        <ele>280.36000000000001</ele>
        <time>2018-07-01T04:39:57Z</time>
      </trkpt>
      <trkpt lat="50.253857960924506" lon="7.812826009467244">
        <ele>280.36000000000001</ele>
        <time>2018-07-01T04:39:59Z</time>
      </trkpt>
      <trkpt lat="50.253869025036693" lon="7.812714027240872">
        <ele>279.88</ele>
        <time>2018-07-01T04:40:00Z</time>
      </trkpt>
      <trkpt lat="50.253869025036693" lon="7.812587041407824">
        <ele>279.88</ele>
        <time>2018-07-01T04:40:01Z</time>
      </trkpt>
      <trkpt lat="50.253828037530184" lon="7.81234597787261">
        <ele>279.39999999999998</ele>
        <time>2018-07-01T04:40:03Z</time>
      </trkpt>
      <trkpt lat="50.253729969263077" lon="7.811976000666618">
        <ele>279.88</ele>
        <time>2018-07-01T04:40:06Z</time>
      </trkpt>
      <trkpt lat="50.253697028383613" lon="7.811852032318711">
        <ele>280.36000000000001</ele>
        <time>2018-07-01T04:40:07Z</time>
      </trkpt>
      <trkpt lat="50.253666015341878" lon="7.811732003465295">
        <ele>280.83999999999997</ele>
        <time>2018-07-01T04:40:08Z</time>
      </trkpt>
      <trkpt lat="50.253622010350227" lon="7.811488006263971">
        <ele>281.31999999999999</ele>
        <time>2018-07-01T04:40:10Z</time>
      </trkpt>
      <trkpt lat="50.253584962338209" lon="7.811255995184183">
        <ele>282.27999999999997</ele>
        <time>2018-07-01T04:40:12Z</time>
      </trkpt>
      <trkpt lat="50.253568030893803" lon="7.811150969937444">
        <ele>282.27999999999997</ele>
        <time>2018-07-01T04:40:13Z</time>
      </trkpt>
      <trkpt lat="50.253512039780617" lon="7.811051979660988">
        <ele>282.27999999999997</ele>
        <time>2018-07-01T04:40:14Z</time>
      </trkpt>
      <trkpt lat="50.253446996212006" lon="7.810978973284364">
        <ele>281.80000000000001</ele>
        <time>2018-07-01T04:40:15Z</time>
      </trkpt>
      <trkpt lat="50.253358986228704" lon="7.810922982171178">
        <ele>281.31999999999999</ele>
        <time>2018-07-01T04:40:16Z</time>
      </trkpt>
      <trkpt lat="50.253258990123868" lon="7.810875959694386">
        <ele>280.83999999999997</ele>
        <time>2018-07-01T04:40:17Z</time>
      </trkpt>
      <trkpt lat="50.253143990412354" lon="7.810836983844638">
        <ele>280.36000000000001</ele>
        <time>2018-07-01T04:40:18Z</time>
      </trkpt>
      <trkpt lat="50.25220999494195" lon="7.810417972505093">
        <ele>274.11000000000001</ele>
        <time>2018-07-01T04:40:24Z</time>
      </trkpt>
      <trkpt lat="50.250922031700611" lon="7.809211984276772">
        <ele>263.06</ele>
        <time>2018-07-01T04:40:31Z</time>
      </trkpt>
      <trkpt lat="50.249779997393489" lon="7.807646999135613">
        <ele>252.96000000000001</ele>
        <time>2018-07-01T04:40:38Z</time>
      </trkpt>
      <trkpt lat="50.248851031064987" lon="7.805914962664247">
        <ele>241.91</ele>
        <time>2018-07-01T04:40:45Z</time>
      </trkpt>
      <trkpt lat="50.248709041625261" lon="7.805716982111335">
        <ele>239.99000000000001</ele>
        <time>2018-07-01T04:40:46Z</time>
      </trkpt>
      <trkpt lat="50.248544001951814" lon="7.805597959086299">
        <ele>238.53999999999999</ele>
        <time>2018-07-01T04:40:47Z</time>
      </trkpt>
      <trkpt lat="50.248372005298734" lon="7.805482959374785">
        <ele>236.62</ele>
        <time>2018-07-01T04:40:48Z</time>
      </trkpt>
      <trkpt lat="50.248203026130795" lon="7.805393021553755">
        <ele>234.69999999999999</ele>
        <time>2018-07-01T04:40:49Z</time>
      </trkpt>
      <trkpt lat="50.248019965365529" lon="7.80536200851202">
        <ele>232.78</ele>
        <time>2018-07-01T04:40:50Z</time>
      </trkpt>
      <trkpt lat="50.247860960662365" lon="7.805336024612188">
        <ele>230.84999999999999</ele>
        <time>2018-07-01T04:40:51Z</time>
      </trkpt>
      <trkpt lat="50.24765501730144" lon="7.805419005453587">
        <ele>228.44999999999999</ele>
        <time>2018-07-01T04:40:52Z</time>
      </trkpt>
      <trkpt lat="50.247472040355206" lon="7.805494023486972">
        <ele>226.05000000000001</ele>
        <time>2018-07-01T04:40:53Z</time>
      </trkpt>
      <trkpt lat="50.247302977368236" lon="7.805595025420189">
        <ele>223.63999999999999</ele>
        <time>2018-07-01T04:40:54Z</time>
      </trkpt>
      <trkpt lat="50.247145984321833" lon="7.805745983496308">
        <ele>221.72</ele>
        <time>2018-07-01T04:40:55Z</time>
      </trkpt>
      <trkpt lat="50.246998965740204" lon="7.805944969877601">
        <ele>219.31999999999999</ele>
        <time>2018-07-01T04:40:56Z</time>
      </trkpt>
      <trkpt lat="50.246860999614" lon="7.806161977350712">
        <ele>216.91</ele>
        <time>2018-07-01T04:40:57Z</time>
      </trkpt>
      <trkpt lat="50.246736025437713" lon="7.80643698759377">
        <ele>214.99000000000001</ele>
        <time>2018-07-01T04:40:58Z</time>
      </trkpt>
      <trkpt lat="50.245448984205723" lon="7.809242997318506">
        <ele>205.86000000000001</ele>
        <time>2018-07-01T04:41:07Z</time>
      </trkpt>
      <trkpt lat="50.243815016001463" lon="7.812636997550726">
        <ele>212.11000000000001</ele>
        <time>2018-07-01T04:41:18Z</time>
      </trkpt>
      <trkpt lat="50.242870040237904" lon="7.814817968755961">
        <ele>214.99000000000001</ele>
        <time>2018-07-01T04:41:26Z</time>
      </trkpt>
      <trkpt lat="50.242827963083982" lon="7.815093984827399">
        <ele>215.94999999999999</ele>
        <time>2018-07-01T04:41:27Z</time>
      </trkpt>
      <trkpt lat="50.242539960891008" lon="7.816935991868377">
        <ele>213.06999999999999</ele>
        <time>2018-07-01T04:41:34Z</time>
      </trkpt>
      <trkpt lat="50.242488998919725" lon="7.817101031541824">
        <ele>212.11000000000001</ele>
        <time>2018-07-01T04:41:35Z</time>
      </trkpt>
      <trkpt lat="50.242435019463301" lon="7.817234974354506">
        <ele>211.63</ele>
        <time>2018-07-01T04:41:36Z</time>
      </trkpt>
      <trkpt lat="50.242392020300031" lon="7.817344022914767">
        <ele>210.66999999999999</ele>
        <time>2018-07-01T04:41:37Z</time>
      </trkpt>
      <trkpt lat="50.242340974509716" lon="7.817390961572528">
        <ele>210.66999999999999</ele>
        <time>2018-07-01T04:41:38Z</time>
      </trkpt>
      <trkpt lat="50.242266962304711" lon="7.817452987655997">
        <ele>210.19</ele>
        <time>2018-07-01T04:41:39Z</time>
      </trkpt>
      <trkpt lat="50.24219797924161" lon="7.81750001013279">
        <ele>210.19</ele>
        <time>2018-07-01T04:41:40Z</time>
      </trkpt>
      <trkpt lat="50.242131007835269" lon="7.817545020952821">
        <ele>209.69999999999999</ele>
        <time>2018-07-01T04:41:41Z</time>
      </trkpt>
      <trkpt lat="50.242064036428928" lon="7.817536974325776">
        <ele>209.22</ele>
        <time>2018-07-01T04:41:42Z</time>
      </trkpt>
      <trkpt lat="50.24196001701057" lon="7.81752398237586">
        <ele>208.74000000000001</ele>
        <time>2018-07-01T04:41:43Z</time>
      </trkpt>
      <trkpt lat="50.24189698509872" lon="7.817461034283042">
        <ele>208.25999999999999</ele>
        <time>2018-07-01T04:41:44Z</time>
      </trkpt>
      <trkpt lat="50.241816015914083" lon="7.817379981279373">
        <ele>208.25999999999999</ele>
        <time>2018-07-01T04:41:45Z</time>
      </trkpt>
      <trkpt lat="50.2417460270226" lon="7.817275039851666">
        <ele>207.78</ele>
        <time>2018-07-01T04:41:46Z</time>
      </trkpt>
      <trkpt lat="50.241615017876029" lon="7.817036993801594">
        <ele>207.78</ele>
        <time>2018-07-01T04:41:48Z</time>
      </trkpt>
      <trkpt lat="50.241549974307418" lon="7.816917970776558">
        <ele>207.78</ele>
        <time>2018-07-01T04:41:49Z</time>
      </trkpt>
      <trkpt lat="50.241233976557851" lon="7.815951034426689">
        <ele>210.19</ele>
        <time>2018-07-01T04:41:56Z</time>
      </trkpt>
      <trkpt lat="50.24118703790009" lon="7.815807033330202">
        <ele>210.66999999999999</ele>
        <time>2018-07-01T04:41:57Z</time>
      </trkpt>
      <trkpt lat="50.241109002381563" lon="7.815574016422033">
        <ele>211.63</ele>
        <time>2018-07-01T04:41:59Z</time>
      </trkpt>
      <trkpt lat="50.24105804041028" lon="7.815462034195662">
        <ele>211.63</ele>
        <time>2018-07-01T04:42:00Z</time>
      </trkpt>
      <trkpt lat="50.240603992715478" lon="7.814374985173345">
        <ele>214.50999999999999</ele>
        <time>2018-07-01T04:42:10Z</time>
      </trkpt>
      <trkpt lat="50.240476001054049" lon="7.813894031569362">
        <ele>215.47</ele>
        <time>2018-07-01T04:42:14Z</time>
      </trkpt>
      <trkpt lat="50.240443982183933" lon="7.813770985230804">
        <ele>215.47</ele>
        <time>2018-07-01T04:42:15Z</time>
      </trkpt>
      <trkpt lat="50.240310961380601" lon="7.813325989991427">
        <ele>215.47</ele>
        <time>2018-07-01T04:42:19Z</time>
      </trkpt>
      <trkpt lat="50.240320013836026" lon="7.812954001128674">
        <ele>214.50999999999999</ele>
        <time>2018-07-01T04:42:22Z</time>
      </trkpt>
      <trkpt lat="50.24041498079896" lon="7.811772990971804">
        <ele>214.03</ele>
        <time>2018-07-01T04:42:30Z</time>
      </trkpt>
      <trkpt lat="50.240463009104133" lon="7.811599988490343">
        <ele>214.03</ele>
        <time>2018-07-01T04:42:31Z</time>
      </trkpt>
      <trkpt lat="50.240637017413974" lon="7.810984002426267">
        <ele>214.50999999999999</ele>
        <time>2018-07-01T04:42:35Z</time>
      </trkpt>
      <trkpt lat="50.240681022405624" lon="7.810824997723103">
        <ele>214.50999999999999</ele>
        <time>2018-07-01T04:42:36Z</time>
      </trkpt>
      <trkpt lat="50.241270018741488" lon="7.809267975389957">
        <ele>211.63</ele>
        <time>2018-07-01T04:42:46Z</time>
      </trkpt>
      <trkpt lat="50.242065964266658" lon="7.807627972215414">
        <ele>210.19</ele>
        <time>2018-07-01T04:42:55Z</time>
      </trkpt>
      <trkpt lat="50.242095971480012" lon="7.807449018582702">
        <ele>210.19</ele>
        <time>2018-07-01T04:42:56Z</time>
      </trkpt>
      <trkpt lat="50.242109969258308" lon="7.807223964482546">
        <ele>210.19</ele>
        <time>2018-07-01T04:42:57Z</time>
      </trkpt>
      <trkpt lat="50.242081973701715" lon="7.80701600946486">
        <ele>210.66999999999999</ele>
        <time>2018-07-01T04:42:58Z</time>
      </trkpt>
      <trkpt lat="50.242050038650632" lon="7.806770000606775">
        <ele>211.63</ele>
        <time>2018-07-01T04:42:59Z</time>
      </trkpt>
      <trkpt lat="50.241782991215587" lon="7.804556004703045">
        <ele>216.43000000000001</ele>
        <time>2018-07-01T04:43:06Z</time>
      </trkpt>
      <trkpt lat="50.241536982357502" lon="7.801364008337259">
        <ele>224.12</ele>
        <time>2018-07-01T04:43:15Z</time>
      </trkpt>
      <trkpt lat="50.241570007055998" lon="7.800741987302899">
        <ele>227.00999999999999</ele>
        <time>2018-07-01T04:43:17Z</time>
      </trkpt>
      <trkpt lat="50.241599008440971" lon="7.80042196623981">
        <ele>227.97</ele>
        <time>2018-07-01T04:43:18Z</time>
      </trkpt>
      <trkpt lat="50.241665979847312" lon="7.800104040652514">
        <ele>229.41</ele>
        <time>2018-07-01T04:43:19Z</time>
      </trkpt>
      <trkpt lat="50.241795983165503" lon="7.799480007961392">
        <ele>232.30000000000001</ele>
        <time>2018-07-01T04:43:21Z</time>
      </trkpt>
      <trkpt lat="50.241808975115418" lon="7.799172978848219">
        <ele>233.25999999999999</ele>
        <time>2018-07-01T04:43:22Z</time>
      </trkpt>
      <trkpt lat="50.241808975115418" lon="7.798857986927033">
        <ele>234.69999999999999</ele>
        <time>2018-07-01T04:43:23Z</time>
      </trkpt>
      <trkpt lat="50.241805035620928" lon="7.798524973914027">
        <ele>235.66</ele>
        <time>2018-07-01T04:43:24Z</time>
      </trkpt>
      <trkpt lat="50.241757007315755" lon="7.798193972557783">
        <ele>236.62</ele>
        <time>2018-07-01T04:43:25Z</time>
      </trkpt>
      <trkpt lat="50.241594985127449" lon="7.796967029571533">
        <ele>239.99000000000001</ele>
        <time>2018-07-01T04:43:30Z</time>
      </trkpt>
      <trkpt lat="50.241621974855661" lon="7.796822022646666">
        <ele>240.47</ele>
        <time>2018-07-01T04:43:31Z</time>
      </trkpt>
      <trkpt lat="50.241679977625608" lon="7.796694030985236">
        <ele>240.47</ele>
        <time>2018-07-01T04:43:32Z</time>
      </trkpt>
      <trkpt lat="50.241762036457658" lon="7.796626975759864">
        <ele>241.43000000000001</ele>
        <time>2018-07-01T04:43:33Z</time>
      </trkpt>
      <trkpt lat="50.241866977885365" lon="7.796595962718129">
        <ele>241.91</ele>
        <time>2018-07-01T04:43:34Z</time>
      </trkpt>
      <trkpt lat="50.241970997303724" lon="7.796608032658696">
        <ele>242.38999999999999</ele>
        <time>2018-07-01T04:43:35Z</time>
      </trkpt>
      <trkpt lat="50.242073005065322" lon="7.796710040420294">
        <ele>243.34999999999999</ele>
        <time>2018-07-01T04:43:36Z</time>
      </trkpt>
      <trkpt lat="50.242137964814901" lon="7.796864015981555">
        <ele>243.83000000000001</ele>
        <time>2018-07-01T04:43:37Z</time>
      </trkpt>
      <trkpt lat="50.242206025868654" lon="7.79702503234148">
        <ele>244.78999999999999</ele>
        <time>2018-07-01T04:43:38Z</time>
      </trkpt>
      <trkpt lat="50.242277020588517" lon="7.797193005681038">
        <ele>245.27000000000001</ele>
        <time>2018-07-01T04:43:39Z</time>
      </trkpt>
      <trkpt lat="50.242366958409548" lon="7.797357039526105">
        <ele>245.75</ele>
        <time>2018-07-01T04:43:40Z</time>
      </trkpt>
      <trkpt lat="50.242463015019894" lon="7.797529958188534">
        <ele>246.72</ele>
        <time>2018-07-01T04:43:41Z</time>
      </trkpt>
      <trkpt lat="50.242581032216549" lon="7.797665996477008">
        <ele>247.19999999999999</ele>
        <time>2018-07-01T04:43:42Z</time>
      </trkpt>
      <trkpt lat="50.242698965594172" lon="7.797772027552128">
        <ele>248.16</ele>
        <time>2018-07-01T04:43:43Z</time>
      </trkpt>
      <trkpt lat="50.242829974740744" lon="7.797805974259973">
        <ele>249.12</ele>
        <time>2018-07-01T04:43:44Z</time>
      </trkpt>
      <trkpt lat="50.242954026907682" lon="7.797811003401876">
        <ele>249.59999999999999</ele>
        <time>2018-07-01T04:43:45Z</time>
      </trkpt>
      <trkpt lat="50.243054023012519" lon="7.797727016732097">
        <ele>250.08000000000001</ele>
        <time>2018-07-01T04:43:46Z</time>
      </trkpt>
      <trkpt lat="50.243149995803833" lon="7.797601958736777">
        <ele>250.56</ele>
        <time>2018-07-01T04:43:47Z</time>
      </trkpt>
      <trkpt lat="50.243241023272276" lon="7.797457035630941">
        <ele>251.52000000000001</ele>
        <time>2018-07-01T04:43:48Z</time>
      </trkpt>
      <trkpt lat="50.243311012163758" lon="7.79724296182394">
        <ele>252.47999999999999</ele>
        <time>2018-07-01T04:43:49Z</time>
      </trkpt>
      <trkpt lat="50.243388963863254" lon="7.7970049995929">
        <ele>253.44</ele>
        <time>2018-07-01T04:43:50Z</time>
      </trkpt>
      <trkpt lat="50.243946025148034" lon="7.795086968690157">
        <ele>258.73000000000002</ele>
        <time>2018-07-01T04:43:57Z</time>
      </trkpt>
      <trkpt lat="50.243972009047866" lon="7.794807013124228">
        <ele>259.20999999999998</ele>
        <time>2018-07-01T04:43:58Z</time>
      </trkpt>
      <trkpt lat="50.243961028754711" lon="7.794508030638099">
        <ele>259.69</ele>
        <time>2018-07-01T04:43:59Z</time>
      </trkpt>
      <trkpt lat="50.243914006277919" lon="7.79315703548491">
        <ele>262.10000000000002</ele>
        <time>2018-07-01T04:44:03Z</time>
      </trkpt>
      <trkpt lat="50.243957005441189" lon="7.792798960581422">
        <ele>262.57999999999998</ele>
        <time>2018-07-01T04:44:04Z</time>
      </trkpt>
      <trkpt lat="50.244335029274225" lon="7.789364978671074">
        <ele>267.38</ele>
        <time>2018-07-01T04:44:13Z</time>
      </trkpt>
      <trkpt lat="50.244501996785402" lon="7.786640021950007">
        <ele>272.19</ele>
        <time>2018-07-01T04:44:20Z</time>
      </trkpt>
      <trkpt lat="50.244952021166682" lon="7.783236969262362">
        <ele>277.95999999999998</ele>
        <time>2018-07-01T04:44:29Z</time>
      </trkpt>
      <trkpt lat="50.245053023099899" lon="7.782550994306803">
        <ele>279.39999999999998</ele>
        <time>2018-07-01T04:44:31Z</time>
      </trkpt>
      <trkpt lat="50.245124017819762" lon="7.782197026535869">
        <ele>279.88</ele>
        <time>2018-07-01T04:44:32Z</time>
      </trkpt>
      <trkpt lat="50.246049966663122" lon="7.779435021802783">
        <ele>285.17000000000002</ele>
        <time>2018-07-01T04:44:40Z</time>
      </trkpt>
      <trkpt lat="50.247452007606626" lon="7.775659980252385">
        <ele>288.52999999999997</ele>
        <time>2018-07-01T04:44:51Z</time>
      </trkpt>
      <trkpt lat="50.249026967212558" lon="7.77191000059247">
        <ele>292.38</ele>
        <time>2018-07-01T04:45:02Z</time>
      </trkpt>
      <trkpt lat="50.250087026506662" lon="7.76950397528708">
        <ele>296.22000000000003</ele>
        <time>2018-07-01T04:45:11Z</time>
      </trkpt>
      <trkpt lat="50.250314008444548" lon="7.76885999366641">
        <ele>297.18000000000001</ele>
        <time>2018-07-01T04:45:13Z</time>
      </trkpt>
      <trkpt lat="50.250422973185778" lon="7.768511977046728">
        <ele>297.67000000000002</ele>
        <time>2018-07-01T04:45:14Z</time>
      </trkpt>
      <trkpt lat="50.251152031123638" lon="7.765529025346041">
        <ele>307.27999999999997</ele>
        <time>2018-07-01T04:45:22Z</time>
      </trkpt>
      <trkpt lat="50.252257017418742" lon="7.762258993461728">
        <ele>316.41000000000003</ele>
        <time>2018-07-01T04:45:32Z</time>
      </trkpt>
      <trkpt lat="50.252844002097845" lon="7.759763030335307">
        <ele>319.30000000000001</ele>
        <time>2018-07-01T04:45:40Z</time>
      </trkpt>
      <trkpt lat="50.253181038424373" lon="7.757331021130085">
        <ele>323.62</ele>
        <time>2018-07-01T04:45:46Z</time>
      </trkpt>
      <trkpt lat="50.253705997020006" lon="7.754800021648407">
        <ele>328.43000000000001</ele>
        <time>2018-07-01T04:45:52Z</time>
      </trkpt>
      <trkpt lat="50.25498297996819" lon="7.750891959294677">
        <ele>340.44</ele>
        <time>2018-07-01T04:46:02Z</time>
      </trkpt>
      <trkpt lat="50.255134021863341" lon="7.75059599429369">
        <ele>341.41000000000003</ele>
        <time>2018-07-01T04:46:03Z</time>
      </trkpt>
      <trkpt lat="50.255616987124085" lon="7.749843969941139">
        <ele>345.25</ele>
        <time>2018-07-01T04:46:06Z</time>
      </trkpt>
      <trkpt lat="50.255725029855967" lon="7.749556973576546">
        <ele>346.20999999999998</ele>
        <time>2018-07-01T04:46:07Z</time>
      </trkpt>
      <trkpt lat="50.255811028182507" lon="7.749234018847346">
        <ele>347.17000000000002</ele>
        <time>2018-07-01T04:46:08Z</time>
      </trkpt>
      <trkpt lat="50.256490968167782" lon="7.746601011604071">
        <ele>352.45999999999998</ele>
        <time>2018-07-01T04:46:15Z</time>
      </trkpt>
      <trkpt lat="50.25678601115942" lon="7.745153959840536">
        <ele>353.89999999999998</ele>
        <time>2018-07-01T04:46:19Z</time>
      </trkpt>
      <trkpt lat="50.256795985624194" lon="7.74477400816977">
        <ele>354.86000000000001</ele>
        <time>2018-07-01T04:46:20Z</time>
      </trkpt>
      <trkpt lat="50.256748041138053" lon="7.744402019307017">
        <ele>355.82999999999998</ele>
        <time>2018-07-01T04:46:21Z</time>
      </trkpt>
      <trkpt lat="50.2566799800843" lon="7.744035981595516">
        <ele>356.31</ele>
        <time>2018-07-01T04:46:22Z</time>
      </trkpt>
      <trkpt lat="50.256609991192818" lon="7.743664998561144">
        <ele>357.26999999999998</ele>
        <time>2018-07-01T04:46:23Z</time>
      </trkpt>
      <trkpt lat="50.256540002301335" lon="7.743287980556488">
        <ele>358.23000000000002</ele>
        <time>2018-07-01T04:46:24Z</time>
      </trkpt>
      <trkpt lat="50.256187962368131" lon="7.741476986557245">
        <ele>364</ele>
        <time>2018-07-01T04:46:29Z</time>
      </trkpt>
      <trkpt lat="50.256072962656617" lon="7.741179009899497">
        <ele>365.44</ele>
        <time>2018-07-01T04:46:30Z</time>
      </trkpt>
      <trkpt lat="50.255937008187175" lon="7.740896958857775">
        <ele>366.88</ele>
        <time>2018-07-01T04:46:31Z</time>
      </trkpt>
      <trkpt lat="50.255465023219585" lon="7.740102019160986">
        <ele>370.24000000000001</ele>
        <time>2018-07-01T04:46:34Z</time>
      </trkpt>
      <trkpt lat="50.25515103712678" lon="7.739643026143313">
        <ele>372.17000000000002</ele>
        <time>2018-07-01T04:46:36Z</time>
      </trkpt>
      <trkpt lat="50.255033019930124" lon="7.73940104059875">
        <ele>373.13</ele>
        <time>2018-07-01T04:46:37Z</time>
      </trkpt>
      <trkpt lat="50.254948027431965" lon="7.739113960415125">
        <ele>374.08999999999997</ele>
        <time>2018-07-01T04:46:38Z</time>
      </trkpt>
      <trkpt lat="50.254437988623977" lon="7.737586023285985">
        <ele>378.89999999999998</ele>
        <time>2018-07-01T04:46:43Z</time>
      </trkpt>
      <trkpt lat="50.254371017217636" lon="7.737262984737754">
        <ele>379.86000000000001</ele>
        <time>2018-07-01T04:46:44Z</time>
      </trkpt>
      <trkpt lat="50.254029035568237" lon="7.735089976340532">
        <ele>386.58999999999997</ele>
        <time>2018-07-01T04:46:51Z</time>
      </trkpt>
      <trkpt lat="50.253534000366926" lon="7.733609983697534">
        <ele>391.38999999999999</ele>
        <time>2018-07-01T04:46:58Z</time>
      </trkpt>
      <trkpt lat="50.253431992605329" lon="7.733420971781015">
        <ele>391.87</ele>
        <time>2018-07-01T04:46:59Z</time>
      </trkpt>
      <trkpt lat="50.25330601260066" lon="7.7332560159266">
        <ele>392.83999999999997</ele>
        <time>2018-07-01T04:47:00Z</time>
      </trkpt>
      <trkpt lat="50.252083009108901" lon="7.731727994978428">
        <ele>395.24000000000001</ele>
        <time>2018-07-01T04:47:08Z</time>
      </trkpt>
      <trkpt lat="50.250520035624504" lon="7.729738969355822">
        <ele>392.83999999999997</ele>
        <time>2018-07-01T04:47:17Z</time>
      </trkpt>
      <trkpt lat="50.250392965972424" lon="7.729494972154498">
        <ele>392.36000000000001</ele>
        <time>2018-07-01T04:47:18Z</time>
      </trkpt>
      <trkpt lat="50.250270003452897" lon="7.729237983003259">
        <ele>391.87</ele>
        <time>2018-07-01T04:47:19Z</time>
      </trkpt>
      <trkpt lat="50.250186016783118" lon="7.728947969153523">
        <ele>390.91000000000003</ele>
        <time>2018-07-01T04:47:20Z</time>
      </trkpt>
      <trkpt lat="50.250118039548397" lon="7.728644041344523">
        <ele>389.94999999999999</ele>
        <time>2018-07-01T04:47:21Z</time>
      </trkpt>
      <trkpt lat="50.250064982101321" lon="7.728331983089447">
        <ele>389.47000000000003</ele>
        <time>2018-07-01T04:47:22Z</time>
      </trkpt>
      <trkpt lat="50.250046039000154" lon="7.728005005046725">
        <ele>388.50999999999999</ele>
        <time>2018-07-01T04:47:23Z</time>
      </trkpt>
      <trkpt lat="50.250031035393476" lon="7.72767199203372">
        <ele>387.55000000000001</ele>
        <time>2018-07-01T04:47:24Z</time>
      </trkpt>
      <trkpt lat="50.250061964616179" lon="7.727339984849095">
        <ele>387.06999999999999</ele>
        <time>2018-07-01T04:47:25Z</time>
      </trkpt>
      <trkpt lat="50.25010303594172" lon="7.72700596600771">
        <ele>386.11000000000001</ele>
        <time>2018-07-01T04:47:26Z</time>
      </trkpt>
      <trkpt lat="50.250190040096641" lon="7.726690974086523">
        <ele>384.66000000000003</ele>
        <time>2018-07-01T04:47:27Z</time>
      </trkpt>
      <trkpt lat="50.250289030373096" lon="7.726384028792381">
        <ele>383.69999999999999</ele>
        <time>2018-07-01T04:47:28Z</time>
      </trkpt>
      <trkpt lat="50.250394977629185" lon="7.726078005507588">
        <ele>382.25999999999999</ele>
        <time>2018-07-01T04:47:29Z</time>
      </trkpt>
      <trkpt lat="50.250505032017827" lon="7.725765025243163">
        <ele>380.81999999999999</ele>
        <time>2018-07-01T04:47:30Z</time>
      </trkpt>
      <trkpt lat="50.251756031066179" lon="7.722807973623276">
        <ele>367.36000000000001</ele>
        <time>2018-07-01T04:47:40Z</time>
      </trkpt>
      <trkpt lat="50.251890979707241" lon="7.722571017220616">
        <ele>365.92000000000002</ele>
        <time>2018-07-01T04:47:41Z</time>
      </trkpt>
      <trkpt lat="50.252043027430773" lon="7.722345963120461">
        <ele>364.48000000000002</ele>
        <time>2018-07-01T04:47:42Z</time>
      </trkpt>
      <trkpt lat="50.252214018255472" lon="7.722202967852354">
        <ele>363.04000000000002</ele>
        <time>2018-07-01T04:47:43Z</time>
      </trkpt>
      <trkpt lat="50.252387020736933" lon="7.722059972584248">
        <ele>362.06999999999999</ele>
        <time>2018-07-01T04:47:44Z</time>
      </trkpt>
      <trkpt lat="50.252573015168309" lon="7.721946984529495">
        <ele>361.11000000000001</ele>
        <time>2018-07-01T04:47:45Z</time>
      </trkpt>
      <trkpt lat="50.252760015428066" lon="7.721835002303124">
        <ele>360.63</ele>
        <time>2018-07-01T04:47:46Z</time>
      </trkpt>
      <trkpt lat="50.253138961270452" lon="7.721608020365238">
        <ele>359.19</ele>
        <time>2018-07-01T04:47:48Z</time>
      </trkpt>
      <trkpt lat="50.253299977630377" lon="7.721390007063747">
        <ele>358.70999999999998</ele>
        <time>2018-07-01T04:47:49Z</time>
      </trkpt>
      <trkpt lat="50.253458982333541" lon="7.721175011247397">
        <ele>357.75</ele>
        <time>2018-07-01T04:47:50Z</time>
      </trkpt>
      <trkpt lat="50.25360700674355" lon="7.720943000167608">
        <ele>357.26999999999998</ele>
        <time>2018-07-01T04:47:51Z</time>
      </trkpt>
      <trkpt lat="50.253760982304811" lon="7.720685005187988">
        <ele>356.79000000000002</ele>
        <time>2018-07-01T04:47:52Z</time>
      </trkpt>
      <trkpt lat="50.253857960924506" lon="7.720394991338253">
        <ele>355.82999999999998</ele>
        <time>2018-07-01T04:47:53Z</time>
      </trkpt>
      <trkpt lat="50.253960974514484" lon="7.720087040215731">
        <ele>355.33999999999997</ele>
        <time>2018-07-01T04:47:54Z</time>
      </trkpt>
      <trkpt lat="50.254157027229667" lon="7.7194859739393">
        <ele>353.42000000000002</ele>
        <time>2018-07-01T04:47:56Z</time>
      </trkpt>
      <trkpt lat="50.254285018891096" lon="7.719230996444821">
        <ele>351.98000000000002</ele>
        <time>2018-07-01T04:47:57Z</time>
      </trkpt>
      <trkpt lat="50.254419967532158" lon="7.71899001672864">
        <ele>351.01999999999998</ele>
        <time>2018-07-01T04:47:58Z</time>
      </trkpt>
      <trkpt lat="50.254704030230641" lon="7.718571005389094">
        <ele>348.62</ele>
        <time>2018-07-01T04:48:00Z</time>
      </trkpt>
      <trkpt lat="50.254835039377213" lon="7.718364978209138">
        <ele>347.64999999999998</ele>
        <time>2018-07-01T04:48:01Z</time>
      </trkpt>
      <trkpt lat="50.254931012168527" lon="7.718060966581106">
        <ele>346.69</ele>
        <time>2018-07-01T04:48:02Z</time>
      </trkpt>
      <trkpt lat="50.254941992461681" lon="7.717757960781455">
        <ele>345.25</ele>
        <time>2018-07-01T04:48:03Z</time>
      </trkpt>
      <trkpt lat="50.254867980256677" lon="7.71744598634541">
        <ele>344.29000000000002</ele>
        <time>2018-07-01T04:48:04Z</time>
      </trkpt>
      <trkpt lat="50.254771001636982" lon="7.717190003022552">
        <ele>343.32999999999998</ele>
        <time>2018-07-01T04:48:05Z</time>
      </trkpt>
      <trkpt lat="50.254672011360526" lon="7.716922033578157">
        <ele>341.88999999999999</ele>
        <time>2018-07-01T04:48:06Z</time>
      </trkpt>
      <trkpt lat="50.254570003598928" lon="7.71664903499186">
        <ele>340.92000000000002</ele>
        <time>2018-07-01T04:48:07Z</time>
      </trkpt>
      <trkpt lat="50.254373028874397" lon="7.716118041425943">
        <ele>338.51999999999998</ele>
        <time>2018-07-01T04:48:09Z</time>
      </trkpt>
      <trkpt lat="50.254283007234335" lon="7.715874966233969">
        <ele>337.56</ele>
        <time>2018-07-01T04:48:10Z</time>
      </trkpt>
      <trkpt lat="50.254205977544188" lon="7.715571960434318">
        <ele>336.12</ele>
        <time>2018-07-01T04:48:11Z</time>
      </trkpt>
      <trkpt lat="50.254225004464388" lon="7.715208018198609">
        <ele>335.16000000000003</ele>
        <time>2018-07-01T04:48:12Z</time>
      </trkpt>
      <trkpt lat="50.254344027489424" lon="7.71499696187675">
        <ele>334.19999999999999</ele>
        <time>2018-07-01T04:48:13Z</time>
      </trkpt>
      <trkpt lat="50.25446598418057" lon="7.714817002415657">
        <ele>333.23000000000002</ele>
        <time>2018-07-01T04:48:14Z</time>
      </trkpt>
      <trkpt lat="50.25459498167038" lon="7.714626984670758">
        <ele>332.26999999999998</ele>
        <time>2018-07-01T04:48:15Z</time>
      </trkpt>
      <trkpt lat="50.254715010523796" lon="7.71441500633955">
        <ele>331.31</ele>
        <time>2018-07-01T04:48:16Z</time>
      </trkpt>
      <trkpt lat="50.254820035770535" lon="7.71417997777462">
        <ele>330.35000000000002</ele>
        <time>2018-07-01T04:48:17Z</time>
      </trkpt>
      <trkpt lat="50.254903016611934" lon="7.713909996673465">
        <ele>329.38999999999999</ele>
        <time>2018-07-01T04:48:18Z</time>
      </trkpt>
      <trkpt lat="50.255344994366169" lon="7.712272005155683">
        <ele>322.18000000000001</ele>
        <time>2018-07-01T04:48:24Z</time>
      </trkpt>
      <trkpt lat="50.255351029336452" lon="7.712005041539669">
        <ele>321.22000000000003</ele>
        <time>2018-07-01T04:48:25Z</time>
      </trkpt>
      <trkpt lat="50.255318004637957" lon="7.711746962741017">
        <ele>320.25999999999999</ele>
        <time>2018-07-01T04:48:26Z</time>
      </trkpt>
      <trkpt lat="50.255253966897726" lon="7.711500031873584">
        <ele>318.81</ele>
        <time>2018-07-01T04:48:27Z</time>
      </trkpt>
      <trkpt lat="50.255167968571186" lon="7.71125502884388">
        <ele>317.37</ele>
        <time>2018-07-01T04:48:28Z</time>
      </trkpt>
      <trkpt lat="50.255095968022943" lon="7.710982030257583">
        <ele>316.41000000000003</ele>
        <time>2018-07-01T04:48:29Z</time>
      </trkpt>
      <trkpt lat="50.254985997453332" lon="7.710442990064621">
        <ele>313.52999999999997</ele>
        <time>2018-07-01T04:48:31Z</time>
      </trkpt>
      <trkpt lat="50.254967976361513" lon="7.710164962336421">
        <ele>312.08999999999997</ele>
        <time>2018-07-01T04:48:32Z</time>
      </trkpt>
      <trkpt lat="50.254983985796571" lon="7.709956001490355">
        <ele>310.63999999999999</ele>
        <time>2018-07-01T04:48:33Z</time>
      </trkpt>
      <trkpt lat="50.255075013265014" lon="7.70964696072042">
        <ele>309.19999999999999</ele>
        <time>2018-07-01T04:48:34Z</time>
      </trkpt>
      <trkpt lat="50.255149025470018" lon="7.709362981840968">
        <ele>307.75999999999999</ele>
        <time>2018-07-01T04:48:35Z</time>
      </trkpt>
      <trkpt lat="50.255416994914412" lon="7.708150958642364">
        <ele>302.47000000000003</ele>
        <time>2018-07-01T04:48:39Z</time>
      </trkpt>
      <trkpt lat="50.256009008735418" lon="7.706321021541953">
        <ele>295.74000000000001</ele>
        <time>2018-07-01T04:48:45Z</time>
      </trkpt>
      <trkpt lat="50.256068017333746" lon="7.70603402517736">
        <ele>294.77999999999997</ele>
        <time>2018-07-01T04:48:46Z</time>
      </trkpt>
      <trkpt lat="50.256088972091675" lon="7.705738982185721">
        <ele>293.81999999999999</ele>
        <time>2018-07-01T04:48:47Z</time>
      </trkpt>
      <trkpt lat="50.256085032597184" lon="7.705430025234819">
        <ele>292.38</ele>
        <time>2018-07-01T04:48:48Z</time>
      </trkpt>
      <trkpt lat="50.256053013727069" lon="7.705116961151362">
        <ele>290.94</ele>
        <time>2018-07-01T04:48:49Z</time>
      </trkpt>
      <trkpt lat="50.256020994856954" lon="7.704800041392446">
        <ele>289.49000000000001</ele>
        <time>2018-07-01T04:48:50Z</time>
      </trkpt>
      <trkpt lat="50.255854027345777" lon="7.70362900570035">
        <ele>285.17000000000002</ele>
        <time>2018-07-01T04:48:54Z</time>
      </trkpt>
      <trkpt lat="50.255770962685347" lon="7.703410992398858">
        <ele>284.20999999999998</ele>
        <time>2018-07-01T04:48:55Z</time>
      </trkpt>
      <trkpt lat="50.255671972408891" lon="7.703205971047282">
        <ele>283.25</ele>
        <time>2018-07-01T04:48:56Z</time>
      </trkpt>
      <trkpt lat="50.255544986575842" lon="7.703039003536105">
        <ele>282.27999999999997</ele>
        <time>2018-07-01T04:48:57Z</time>
      </trkpt>
      <trkpt lat="50.255420012399554" lon="7.702873041853309">
        <ele>281.31999999999999</ele>
        <time>2018-07-01T04:48:58Z</time>
      </trkpt>
      <trkpt lat="50.255300989374518" lon="7.702716970816255">
        <ele>280.36000000000001</ele>
        <time>2018-07-01T04:48:59Z</time>
      </trkpt>
      <trkpt lat="50.255207028239965" lon="7.702561989426613">
        <ele>279.39999999999998</ele>
        <time>2018-07-01T04:49:00Z</time>
      </trkpt>
      <trkpt lat="50.255137039348483" lon="7.702409019693732">
        <ele>277.95999999999998</ele>
        <time>2018-07-01T04:49:01Z</time>
      </trkpt>
      <trkpt lat="50.25510803796351" lon="7.702225036919117">
        <ele>277</ele>
        <time>2018-07-01T04:49:02Z</time>
      </trkpt>
      <trkpt lat="50.255078030750155" lon="7.70201800391078">
        <ele>276.04000000000002</ele>
        <time>2018-07-01T04:49:03Z</time>
      </trkpt>
      <trkpt lat="50.255050035193563" lon="7.701788004487753">
        <ele>274.58999999999997</ele>
        <time>2018-07-01T04:49:04Z</time>
      </trkpt>
      <trkpt lat="50.255057998001575" lon="7.701527997851372">
        <ele>273.14999999999998</ele>
        <time>2018-07-01T04:49:05Z</time>
      </trkpt>
      <trkpt lat="50.255069984123111" lon="7.69978498108685">
        <ele>266.89999999999998</ele>
        <time>2018-07-01T04:49:11Z</time>
      </trkpt>
      <trkpt lat="50.25517400354147" lon="7.699145022779703">
        <ele>264.98000000000002</ele>
        <time>2018-07-01T04:49:14Z</time>
      </trkpt>
      <trkpt lat="50.25523703545332" lon="7.6989880297333">
        <ele>264.5</ele>
        <time>2018-07-01T04:49:15Z</time>
      </trkpt>
      <trkpt lat="50.255321022123098" lon="7.698847968131304">
        <ele>263.54000000000002</ele>
        <time>2018-07-01T04:49:16Z</time>
      </trkpt>
      <trkpt lat="50.25543199852109" lon="7.698736991733313">
        <ele>262.57999999999998</ele>
        <time>2018-07-01T04:49:17Z</time>
      </trkpt>
      <trkpt lat="50.25558102875948" lon="7.698692986741662">
        <ele>261.62</ele>
        <time>2018-07-01T04:49:18Z</time>
      </trkpt>
      <trkpt lat="50.255741961300373" lon="7.698647975921631">
        <ele>260.64999999999998</ele>
        <time>2018-07-01T04:49:19Z</time>
      </trkpt>
      <trkpt lat="50.255915969610214" lon="7.698599025607109">
        <ele>259.69</ele>
        <time>2018-07-01T04:49:20Z</time>
      </trkpt>
      <trkpt lat="50.256096012890339" lon="7.698547979816794">
        <ele>258.73000000000002</ele>
        <time>2018-07-01T04:49:21Z</time>
      </trkpt>
      <trkpt lat="50.256436988711357" lon="7.698357040062547">
        <ele>256.81</ele>
        <time>2018-07-01T04:49:23Z</time>
      </trkpt>
      <trkpt lat="50.256607979536057" lon="7.698256960138679">
        <ele>256.32999999999998</ele>
        <time>2018-07-01T04:49:24Z</time>
      </trkpt>
      <trkpt lat="50.256759021431208" lon="7.698078006505966">
        <ele>255.37</ele>
        <time>2018-07-01T04:49:25Z</time>
      </trkpt>
      <trkpt lat="50.257194964215159" lon="7.697494961321354">
        <ele>253.44</ele>
        <time>2018-07-01T04:49:28Z</time>
      </trkpt>
      <trkpt lat="50.257362015545368" lon="7.697338974103332">
        <ele>252.96000000000001</ele>
        <time>2018-07-01T04:49:29Z</time>
      </trkpt>
      <trkpt lat="50.257545998319983" lon="7.697232021018863">
        <ele>252</ele>
        <time>2018-07-01T04:49:30Z</time>
      </trkpt>
      <trkpt lat="50.257889991626143" lon="7.697069998830557">
        <ele>249.59999999999999</ele>
        <time>2018-07-01T04:49:32Z</time>
      </trkpt>
      <trkpt lat="50.258048996329308" lon="7.696994980797172">
        <ele>248.63999999999999</ele>
        <time>2018-07-01T04:49:33Z</time>
      </trkpt>
      <trkpt lat="50.258200038224459" lon="7.696855003014207">
        <ele>247.19999999999999</ele>
        <time>2018-07-01T04:49:34Z</time>
      </trkpt>
      <trkpt lat="50.258314032107592" lon="7.696674959734082">
        <ele>246.22999999999999</ele>
        <time>2018-07-01T04:49:35Z</time>
      </trkpt>
      <trkpt lat="50.258422996848822" lon="7.696450995281339">
        <ele>245.27000000000001</ele>
        <time>2018-07-01T04:49:36Z</time>
      </trkpt>
      <trkpt lat="50.258496003225446" lon="7.696189982816577">
        <ele>243.83000000000001</ele>
        <time>2018-07-01T04:49:37Z</time>
      </trkpt>
      <trkpt lat="50.258574960753322" lon="7.695907009765506">
        <ele>241.91</ele>
        <time>2018-07-01T04:49:38Z</time>
      </trkpt>
      <trkpt lat="50.258915014564991" lon="7.694696998223662">
        <ele>237.09999999999999</ele>
        <time>2018-07-01T04:49:42Z</time>
      </trkpt>
      <trkpt lat="50.258973017334938" lon="7.694417964667082">
        <ele>235.66</ele>
        <time>2018-07-01T04:49:43Z</time>
      </trkpt>
      <trkpt lat="50.258989026769996" lon="7.69413398578763">
        <ele>234.22</ele>
        <time>2018-07-01T04:49:44Z</time>
      </trkpt>
      <trkpt lat="50.25897603482008" lon="7.693869033828378">
        <ele>232.78</ele>
        <time>2018-07-01T04:49:45Z</time>
      </trkpt>
      <trkpt lat="50.258963964879513" lon="7.693623024970293">
        <ele>231.33000000000001</ele>
        <time>2018-07-01T04:49:46Z</time>
      </trkpt>
      <trkpt lat="50.258963964879513" lon="7.69340199418366">
        <ele>229.41</ele>
        <time>2018-07-01T04:49:47Z</time>
      </trkpt>
      <trkpt lat="50.25901903398335" lon="7.693219017237425">
        <ele>227.97</ele>
        <time>2018-07-01T04:49:48Z</time>
      </trkpt>
      <trkpt lat="50.259119030088186" lon="7.693085996434093">
        <ele>226.53</ele>
        <time>2018-07-01T04:49:49Z</time>
      </trkpt>
      <trkpt lat="50.259232018142939" lon="7.692937972024083">
        <ele>224.61000000000001</ele>
        <time>2018-07-01T04:49:50Z</time>
      </trkpt>
      <trkpt lat="50.259357998147607" lon="7.692772010341287">
        <ele>223.16</ele>
        <time>2018-07-01T04:49:51Z</time>
      </trkpt>
      <trkpt lat="50.25949596427381" lon="7.692588027566671">
        <ele>221.72</ele>
        <time>2018-07-01T04:49:52Z</time>
      </trkpt>
      <trkpt lat="50.26050103828311" lon="7.691023964434862">
        <ele>214.99000000000001</ele>
        <time>2018-07-01T04:49:59Z</time>
      </trkpt>
      <trkpt lat="50.260755009949207" lon="7.690662033855915">
        <ele>214.50999999999999</ele>
        <time>2018-07-01T04:50:01Z</time>
      </trkpt>
      <trkpt lat="50.260851988568902" lon="7.69050101749599">
        <ele>214.50999999999999</ele>
        <time>2018-07-01T04:50:02Z</time>
      </trkpt>
      <trkpt lat="50.260904962196946" lon="7.690281998366118">
        <ele>214.03</ele>
        <time>2018-07-01T04:50:03Z</time>
      </trkpt>
      <trkpt lat="50.260879984125495" lon="7.690049987286329">
        <ele>213.55000000000001</ele>
        <time>2018-07-01T04:50:04Z</time>
      </trkpt>
      <trkpt lat="50.260854000225663" lon="7.689798027276993">
        <ele>213.55000000000001</ele>
        <time>2018-07-01T04:50:05Z</time>
      </trkpt>
      <trkpt lat="50.26082600466907" lon="7.689527962356806">
        <ele>213.06999999999999</ele>
        <time>2018-07-01T04:50:06Z</time>
      </trkpt>
      <trkpt lat="50.260757021605968" lon="7.689055977389216">
        <ele>212.59</ele>
        <time>2018-07-01T04:50:08Z</time>
      </trkpt>
      <trkpt lat="50.260797003284097" lon="7.688788007944822">
        <ele>212.11000000000001</ele>
        <time>2018-07-01T04:50:09Z</time>
      </trkpt>
      <trkpt lat="50.260835979133844" lon="7.688534036278725">
        <ele>211.63</ele>
        <time>2018-07-01T04:50:10Z</time>
      </trkpt>
      <trkpt lat="50.260865986347198" lon="7.688261959701777">
        <ele>211.15000000000001</ele>
        <time>2018-07-01T04:50:11Z</time>
      </trkpt>
      <trkpt lat="50.260873027145863" lon="7.687969012185931">
        <ele>210.19</ele>
        <time>2018-07-01T04:50:12Z</time>
      </trkpt>
      <trkpt lat="50.260880989953876" lon="7.687655026093125">
        <ele>209.69999999999999</ele>
        <time>2018-07-01T04:50:13Z</time>
      </trkpt>
      <trkpt lat="50.26086900383234" lon="7.687327964231372">
        <ele>208.74000000000001</ele>
        <time>2018-07-01T04:50:14Z</time>
      </trkpt>
      <trkpt lat="50.26074000634253" lon="7.686738967895508">
        <ele>207.30000000000001</ele>
        <time>2018-07-01T04:50:16Z</time>
      </trkpt>
      <trkpt lat="50.260631963610649" lon="7.686508968472481">
        <ele>206.81999999999999</ele>
        <time>2018-07-01T04:50:17Z</time>
      </trkpt>
      <trkpt lat="50.260445969179273" lon="7.686066990718246">
        <ele>205.86000000000001</ele>
        <time>2018-07-01T04:50:19Z</time>
      </trkpt>
      <trkpt lat="50.260402970016003" lon="7.685814024880529">
        <ele>205.38</ele>
        <time>2018-07-01T04:50:20Z</time>
      </trkpt>
      <trkpt lat="50.260394001379609" lon="7.68553800880909">
        <ele>204.90000000000001</ele>
        <time>2018-07-01T04:50:21Z</time>
      </trkpt>
      <trkpt lat="50.260420991107821" lon="7.684237975627184">
        <ele>202.00999999999999</ele>
        <time>2018-07-01T04:50:25Z</time>
      </trkpt>
      <trkpt lat="50.260427026078105" lon="7.683918038383126">
        <ele>201.05000000000001</ele>
        <time>2018-07-01T04:50:26Z</time>
      </trkpt>
      <trkpt lat="50.260370029136539" lon="7.683339016512036">
        <ele>200.09</ele>
        <time>2018-07-01T04:50:28Z</time>
      </trkpt>
      <trkpt lat="50.260276990011334" lon="7.683051014319062">
        <ele>199.13</ele>
        <time>2018-07-01T04:50:29Z</time>
      </trkpt>
      <trkpt lat="50.260143969208002" lon="7.682756977155805">
        <ele>198.65000000000001</ele>
        <time>2018-07-01T04:50:30Z</time>
      </trkpt>
      <trkpt lat="50.259475009515882" lon="7.681457027792931">
        <ele>193.36000000000001</ele>
        <time>2018-07-01T04:50:35Z</time>
      </trkpt>
      <trkpt lat="50.259417006745934" lon="7.681213030591607">
        <ele>192.40000000000001</ele>
        <time>2018-07-01T04:50:36Z</time>
      </trkpt>
      <trkpt lat="50.259396973997355" lon="7.680960986763239">
        <ele>191.44</ele>
        <time>2018-07-01T04:50:37Z</time>
      </trkpt>
      <trkpt lat="50.259384987875819" lon="7.680677007883787">
        <ele>190</ele>
        <time>2018-07-01T04:50:38Z</time>
      </trkpt>
      <trkpt lat="50.259371995925903" lon="7.680363021790981">
        <ele>188.56</ele>
        <time>2018-07-01T04:50:39Z</time>
      </trkpt>
      <trkpt lat="50.259357998147607" lon="7.680026991292834">
        <ele>187.59</ele>
        <time>2018-07-01T04:50:40Z</time>
      </trkpt>
      <trkpt lat="50.25934400036931" lon="7.679676963016391">
        <ele>186.15000000000001</ele>
        <time>2018-07-01T04:50:41Z</time>
      </trkpt>
      <trkpt lat="50.25929999537766" lon="7.679330036044121">
        <ele>184.71000000000001</ele>
        <time>2018-07-01T04:50:42Z</time>
      </trkpt>
      <trkpt lat="50.259053986519575" lon="7.676725024357438">
        <ele>174.13999999999999</ele>
        <time>2018-07-01T04:50:50Z</time>
      </trkpt>
      <trkpt lat="50.258983997628093" lon="7.675882978364825">
        <ele>170.28999999999999</ele>
        <time>2018-07-01T04:50:53Z</time>
      </trkpt>
      <trkpt lat="50.258923983201385" lon="7.675660019740462">
        <ele>169.33000000000001</ele>
        <time>2018-07-01T04:50:54Z</time>
      </trkpt>
      <trkpt lat="50.258814012631774" lon="7.67524603754282">
        <ele>166.93000000000001</ele>
        <time>2018-07-01T04:50:56Z</time>
      </trkpt>
      <trkpt lat="50.258786017075181" lon="7.675046967342496">
        <ele>165.96000000000001</ele>
        <time>2018-07-01T04:50:57Z</time>
      </trkpt>
      <trkpt lat="50.258795991539955" lon="7.67483901232481">
        <ele>165</ele>
        <time>2018-07-01T04:50:58Z</time>
      </trkpt>
      <trkpt lat="50.25880697183311" lon="7.674613958224654">
        <ele>164.03999999999999</ele>
        <time>2018-07-01T04:50:59Z</time>
      </trkpt>
      <trkpt lat="50.258818035945296" lon="7.674379013478756">
        <ele>163.08000000000001</ele>
        <time>2018-07-01T04:51:00Z</time>
      </trkpt>
      <trkpt lat="50.258943010121584" lon="7.672661980614066">
        <ele>159.24000000000001</ele>
        <time>2018-07-01T04:51:07Z</time>
      </trkpt>
      <trkpt lat="50.258905962109566" lon="7.672417983412743">
        <ele>158.75</ele>
        <time>2018-07-01T04:51:08Z</time>
      </trkpt>
      <trkpt lat="50.25887000374496" lon="7.672178009524941">
        <ele>158.27000000000001</ele>
        <time>2018-07-01T04:51:09Z</time>
      </trkpt>
      <trkpt lat="50.258833961561322" lon="7.671941975131631">
        <ele>157.31</ele>
        <time>2018-07-01T04:51:10Z</time>
      </trkpt>
      <trkpt lat="50.258799009025097" lon="7.671708036214113">
        <ele>156.83000000000001</ele>
        <time>2018-07-01T04:51:11Z</time>
      </trkpt>
      <trkpt lat="50.25876103900373" lon="7.671461021527648">
        <ele>155.87</ele>
        <time>2018-07-01T04:51:12Z</time>
      </trkpt>
      <trkpt lat="50.258748969063163" lon="7.671213001012802">
        <ele>154.91</ele>
        <time>2018-07-01T04:51:13Z</time>
      </trkpt>
      <trkpt lat="50.258736982941628" lon="7.670959029346705">
        <ele>154.43000000000001</ele>
        <time>2018-07-01T04:51:14Z</time>
      </trkpt>
      <trkpt lat="50.258703036233783" lon="7.67024103552103">
        <ele>152.03</ele>
        <time>2018-07-01T04:51:17Z</time>
      </trkpt>
      <trkpt lat="50.258705969899893" lon="7.669997960329056">
        <ele>151.06</ele>
        <time>2018-07-01T04:51:18Z</time>
      </trkpt>
      <trkpt lat="50.258860029280186" lon="7.669005962088704">
        <ele>148.18000000000001</ele>
        <time>2018-07-01T04:51:22Z</time>
      </trkpt>
      <trkpt lat="50.258909985423088" lon="7.668760037049651">
        <ele>147.69999999999999</ele>
        <time>2018-07-01T04:51:23Z</time>
      </trkpt>
      <trkpt lat="50.258996989578009" lon="7.668520985171199">
        <ele>146.74000000000001</ele>
        <time>2018-07-01T04:51:24Z</time>
      </trkpt>
      <trkpt lat="50.259107965976" lon="7.668300038203597">
        <ele>146.25999999999999</ele>
        <time>2018-07-01T04:51:25Z</time>
      </trkpt>
      <trkpt lat="50.259221037849784" lon="7.668073978275061">
        <ele>145.78</ele>
        <time>2018-07-01T04:51:26Z</time>
      </trkpt>
      <trkpt lat="50.259341988712549" lon="7.667871974408627">
        <ele>145.30000000000001</ele>
        <time>2018-07-01T04:51:27Z</time>
      </trkpt>
      <trkpt lat="50.260242037475109" lon="7.66671996563673">
        <ele>142.41</ele>
        <time>2018-07-01T04:51:33Z</time>
      </trkpt>
      <trkpt lat="50.261633014306426" lon="7.665633000433445">
        <ele>140.00999999999999</ele>
        <time>2018-07-01T04:51:41Z</time>
      </trkpt>
      <trkpt lat="50.261790007352829" lon="7.665519006550312">
        <ele>139.53</ele>
        <time>2018-07-01T04:51:42Z</time>
      </trkpt>
      <trkpt lat="50.261949012055993" lon="7.665405012667179">
        <ele>139.05000000000001</ele>
        <time>2018-07-01T04:51:43Z</time>
      </trkpt>
      <trkpt lat="50.262384032830596" lon="7.665046015754342">
        <ele>137.13</ele>
        <time>2018-07-01T04:51:46Z</time>
      </trkpt>
      <trkpt lat="50.262616965919733" lon="7.664690036326647">
        <ele>136.16</ele>
        <time>2018-07-01T04:51:48Z</time>
      </trkpt>
      <trkpt lat="50.262720985338092" lon="7.664459031075239">
        <ele>135.19999999999999</ele>
        <time>2018-07-01T04:51:49Z</time>
      </trkpt>
      <trkpt lat="50.263256002217531" lon="7.663273997604847">
        <ele>130.88</ele>
        <time>2018-07-01T04:51:54Z</time>
      </trkpt>
      <trkpt lat="50.263358009979129" lon="7.663049027323723">
        <ele>129.91999999999999</ele>
        <time>2018-07-01T04:51:55Z</time>
      </trkpt>
      <trkpt lat="50.263823037967086" lon="7.661885032430291">
        <ele>124.15000000000001</ele>
        <time>2018-07-01T04:52:00Z</time>
      </trkpt>
      <trkpt lat="50.264294017106295" lon="7.66020798124373">
        <ele>117.42</ele>
        <time>2018-07-01T04:52:07Z</time>
      </trkpt>
      <trkpt lat="50.264614038169384" lon="7.658612988889217">
        <ele>109.25</ele>
        <time>2018-07-01T04:52:14Z</time>
      </trkpt>
      <trkpt lat="50.264666005969048" lon="7.658415008336306">
        <ele>108.29000000000001</ele>
        <time>2018-07-01T04:52:15Z</time>
      </trkpt>
      <trkpt lat="50.264745969325304" lon="7.658244017511606">
        <ele>107.31999999999999</ele>
        <time>2018-07-01T04:52:16Z</time>
      </trkpt>
      <trkpt lat="50.264838002622128" lon="7.658088030293584">
        <ele>106.84</ele>
        <time>2018-07-01T04:52:17Z</time>
      </trkpt>
      <trkpt lat="50.26493196375668" lon="7.657936988398433">
        <ele>105.88</ele>
        <time>2018-07-01T04:52:18Z</time>
      </trkpt>
      <trkpt lat="50.265029026195407" lon="7.657798016443849">
        <ele>105.40000000000001</ele>
        <time>2018-07-01T04:52:19Z</time>
      </trkpt>
      <trkpt lat="50.265606958419085" lon="7.656914982944727">
        <ele>103</ele>
        <time>2018-07-01T04:52:27Z</time>
      </trkpt>
      <trkpt lat="50.265774009749293" lon="7.656660005450249">
        <ele>103</ele>
        <time>2018-07-01T04:52:30Z</time>
      </trkpt>
      <trkpt lat="50.265824971720576" lon="7.656582975760102">
        <ele>103</ele>
        <time>2018-07-01T04:52:31Z</time>
      </trkpt>
      <trkpt lat="50.266054971143603" lon="7.656233031302691">
        <ele>103.48</ele>
        <time>2018-07-01T04:52:39Z</time>
      </trkpt>
      <trkpt lat="50.266054971143603" lon="7.656233031302691">
        <ele>103.48</ele>
        <time>2018-07-01T04:53:06Z</time>
      </trkpt>
      <trkpt lat="50.266054971143603" lon="7.656233031302691">
        <ele>103.95999999999999</ele>
        <time>2018-07-01T04:53:54Z</time>
      </trkpt>
      <trkpt lat="50.266054971143603" lon="7.656233031302691">
        <ele>104.44</ele>
        <time>2018-07-01T04:54:42Z</time>
      </trkpt>
      <trkpt lat="50.266054971143603" lon="7.656233031302691">
        <ele>104.44</ele>
        <time>2018-07-01T04:55:33Z</time>
      </trkpt>
      <trkpt lat="50.266234008595347" lon="7.655961038544774">
        <ele>105.88</ele>
        <time>2018-07-01T04:55:52Z</time>
      </trkpt>
      <trkpt lat="50.266934987157583" lon="7.655183030292392">
        <ele>104.44</ele>
        <time>2018-07-01T04:56:01Z</time>
      </trkpt>
      <trkpt lat="50.267850961536169" lon="7.654163036495447">
        <ele>100.59999999999999</ele>
        <time>2018-07-01T04:56:11Z</time>
      </trkpt>
      <trkpt lat="50.268998024985194" lon="7.652873983606696">
        <ele>97.709999999999994</ele>
        <time>2018-07-01T04:56:23Z</time>
      </trkpt>
      <trkpt lat="50.269665978848934" lon="7.652170993387699">
        <ele>92.900000000000006</ele>
        <time>2018-07-01T04:56:30Z</time>
      </trkpt>
      <trkpt lat="50.269756000488997" lon="7.652077032253146">
        <ele>92.420000000000002</ele>
        <time>2018-07-01T04:56:31Z</time>
      </trkpt>
      <trkpt lat="50.269872006028891" lon="7.65204300172627">
        <ele>91.459999999999994</ele>
        <time>2018-07-01T04:56:32Z</time>
      </trkpt>
      <trkpt lat="50.269980970770121" lon="7.65202104113996">
        <ele>90.980000000000004</ele>
        <time>2018-07-01T04:56:33Z</time>
      </trkpt>
      <trkpt lat="50.270091025158763" lon="7.651998996734619">
        <ele>90.5</ele>
        <time>2018-07-01T04:56:34Z</time>
      </trkpt>
      <trkpt lat="50.270205019041896" lon="7.652033027261496">
        <ele>89.540000000000006</ele>
        <time>2018-07-01T04:56:35Z</time>
      </trkpt>
      <trkpt lat="50.270323036238551" lon="7.652068985626102">
        <ele>89.060000000000002</ele>
        <time>2018-07-01T04:56:36Z</time>
      </trkpt>
      <trkpt lat="50.271495999768376" lon="7.65240702778101">
        <ele>84.25</ele>
        <time>2018-07-01T04:56:45Z</time>
      </trkpt>
      <trkpt lat="50.272785974666476" lon="7.652681032195687">
        <ele>78.480000000000004</ele>
        <time>2018-07-01T04:56:55Z</time>
      </trkpt>
      <trkpt lat="50.274136969819665" lon="7.652540970593691">
        <ele>71.760000000000005</ele>
        <time>2018-07-01T04:57:06Z</time>
      </trkpt>
      <trkpt lat="50.274434024468064" lon="7.652503000572324">
        <ele>70.790000000000006</ele>
        <time>2018-07-01T04:57:09Z</time>
      </trkpt>
      <trkpt lat="50.274615995585918" lon="7.652437034994364">
        <ele>70.790000000000006</ele>
        <time>2018-07-01T04:57:11Z</time>
      </trkpt>
      <trkpt lat="50.274687996134162" lon="7.652305020019412">
        <ele>71.269999999999996</ele>
        <time>2018-07-01T04:57:12Z</time>
      </trkpt>
      <trkpt lat="50.274738036096096" lon="7.652179962024093">
        <ele>71.269999999999996</ele>
        <time>2018-07-01T04:57:13Z</time>
      </trkpt>
      <trkpt lat="50.274785980582237" lon="7.652058005332947">
        <ele>71.760000000000005</ele>
        <time>2018-07-01T04:57:14Z</time>
      </trkpt>
      <trkpt lat="50.274831997230649" lon="7.651941999793053">
        <ele>71.760000000000005</ele>
        <time>2018-07-01T04:57:15Z</time>
      </trkpt>
      <trkpt lat="50.275011034682393" lon="7.651415029540658">
        <ele>71.760000000000005</ele>
        <time>2018-07-01T04:57:20Z</time>
      </trkpt>
      <trkpt lat="50.275020003318787" lon="7.651305980980396">
        <ele>72.239999999999995</ele>
        <time>2018-07-01T04:57:21Z</time>
      </trkpt>
      <trkpt lat="50.27502897195518" lon="7.651191987097263">
        <ele>72.239999999999995</ele>
        <time>2018-07-01T04:57:22Z</time>
      </trkpt>
      <trkpt lat="50.275038024410605" lon="7.651073969900608">
        <ele>71.760000000000005</ele>
        <time>2018-07-01T04:57:23Z</time>
      </trkpt>
      <trkpt lat="50.275046993046999" lon="7.65094798989594">
        <ele>71.760000000000005</ele>
        <time>2018-07-01T04:57:24Z</time>
      </trkpt>
      <trkpt lat="50.275032995268703" lon="7.650858974084258">
        <ele>71.760000000000005</ele>
        <time>2018-07-01T04:57:25Z</time>
      </trkpt>
      <trkpt lat="50.275014974176884" lon="7.650742968544364">
        <ele>71.760000000000005</ele>
        <time>2018-07-01T04:57:26Z</time>
      </trkpt>
      <trkpt lat="50.274886982515454" lon="7.650005025789142">
        <ele>69.349999999999994</ele>
        <time>2018-07-01T04:57:32Z</time>
      </trkpt>
      <trkpt lat="50.274864016100764" lon="7.649880973622203">
        <ele>69.349999999999994</ele>
        <time>2018-07-01T04:57:33Z</time>
      </trkpt>
      <trkpt lat="50.274801990017295" lon="7.649533040821552">
        <ele>68.870000000000005</ele>
        <time>2018-07-01T04:57:36Z</time>
      </trkpt>
      <trkpt lat="50.274780029430985" lon="7.649417035281658">
        <ele>68.870000000000005</ele>
        <time>2018-07-01T04:57:37Z</time>
      </trkpt>
      <trkpt lat="50.274755973368883" lon="7.649299018085003">
        <ele>68.870000000000005</ele>
        <time>2018-07-01T04:57:38Z</time>
      </trkpt>
      <trkpt lat="50.274670980870724" lon="7.648837007582188">
        <ele>67.909999999999997</ele>
        <time>2018-07-01T04:57:42Z</time>
      </trkpt>
      <trkpt lat="50.274535026401281" lon="7.648168969899416">
        <ele>66.469999999999999</ele>
        <time>2018-07-01T04:57:48Z</time>
      </trkpt>
      <trkpt lat="50.2744269836694" lon="7.647846015170217">
        <ele>65.510000000000005</ele>
        <time>2018-07-01T04:57:51Z</time>
      </trkpt>
      <trkpt lat="50.274153985083103" lon="7.64678000472486">
        <ele>64.069999999999993</ele>
        <time>2018-07-01T04:58:00Z</time>
      </trkpt>
      <trkpt lat="50.274094976484776" lon="7.646545981988311">
        <ele>64.549999999999997</ele>
        <time>2018-07-01T04:58:02Z</time>
      </trkpt>
      <trkpt lat="50.273986011743546" lon="7.646120013669133">
        <ele>65.989999999999995</ele>
        <time>2018-07-01T04:58:06Z</time>
      </trkpt>
      <trkpt lat="50.273956004530191" lon="7.646036026999354">
        <ele>65.989999999999995</ele>
        <time>2018-07-01T04:58:07Z</time>
      </trkpt>
      <trkpt lat="50.273920968174934" lon="7.645752970129252">
        <ele>66.950000000000003</ele>
        <time>2018-07-01T04:58:10Z</time>
      </trkpt>
      <trkpt lat="50.273946030065417" lon="7.645677030086517">
        <ele>67.430000000000007</ele>
        <time>2018-07-01T04:58:11Z</time>
      </trkpt>
      <trkpt lat="50.27405901812017" lon="7.645393973216415">
        <ele>68.870000000000005</ele>
        <time>2018-07-01T04:58:14Z</time>
      </trkpt>
      <trkpt lat="50.274181980639696" lon="7.645098008215427">
        <ele>70.790000000000006</ele>
        <time>2018-07-01T04:58:17Z</time>
      </trkpt>
      <trkpt lat="50.274332016706467" lon="7.644775975495577">
        <ele>74.640000000000001</ele>
        <time>2018-07-01T04:58:20Z</time>
      </trkpt>
      <trkpt lat="50.27438398450613" lon="7.644663993269205">
        <ele>75.599999999999994</ele>
        <time>2018-07-01T04:58:21Z</time>
      </trkpt>
      <trkpt lat="50.274666035547853" lon="7.644035015255213">
        <ele>78.480000000000004</ele>
        <time>2018-07-01T04:58:26Z</time>
      </trkpt>
      <trkpt lat="50.274829985573888" lon="7.64379302971065">
        <ele>78.480000000000004</ele>
        <time>2018-07-01T04:58:28Z</time>
      </trkpt>
      <trkpt lat="50.275681000202894" lon="7.642839001491666">
        <ele>75.599999999999994</ele>
        <time>2018-07-01T04:58:37Z</time>
      </trkpt>
      <trkpt lat="50.276729995384812" lon="7.641738038510084">
        <ele>73.200000000000003</ele>
        <time>2018-07-01T04:58:48Z</time>
      </trkpt>
      <trkpt lat="50.277170967310667" lon="7.64114803634584">
        <ele>73.680000000000007</ele>
        <time>2018-07-01T04:58:53Z</time>
      </trkpt>
      <trkpt lat="50.277257971465588" lon="7.641031024977565">
        <ele>74.159999999999997</ele>
        <time>2018-07-01T04:58:54Z</time>
      </trkpt>
      <trkpt lat="50.278118960559368" lon="7.639849008992314">
        <ele>76.079999999999998</ele>
        <time>2018-07-01T04:59:03Z</time>
      </trkpt>
      <trkpt lat="50.279440032318234" lon="7.638011025264859">
        <ele>78.480000000000004</ele>
        <time>2018-07-01T04:59:14Z</time>
      </trkpt>
      <trkpt lat="50.280611990019679" lon="7.636200031265616">
        <ele>76.079999999999998</ele>
        <time>2018-07-01T04:59:24Z</time>
      </trkpt>
      <trkpt lat="50.281499968841672" lon="7.634677961468697">
        <ele>75.120000000000005</ele>
        <time>2018-07-01T04:59:34Z</time>
      </trkpt>
      <trkpt lat="50.282754991203547" lon="7.632548036053777">
        <ele>78</ele>
        <time>2018-07-01T04:59:48Z</time>
      </trkpt>
      <trkpt lat="50.283888978883624" lon="7.630554987117648">
        <ele>76.560000000000002</ele>
        <time>2018-07-01T05:00:00Z</time>
      </trkpt>
      <trkpt lat="50.284915007650852" lon="7.628766037523747">
        <ele>77.519999999999996</ele>
        <time>2018-07-01T05:00:12Z</time>
      </trkpt>
      <trkpt lat="50.285220025107265" lon="7.628249963745475">
        <ele>77.040000000000006</ele>
        <time>2018-07-01T05:00:16Z</time>
      </trkpt>
      <trkpt lat="50.285293031483889" lon="7.628125995397568">
        <ele>77.040000000000006</ele>
        <time>2018-07-01T05:00:17Z</time>
      </trkpt>
      <trkpt lat="50.28536100871861" lon="7.628012001514435">
        <ele>76.560000000000002</ele>
        <time>2018-07-01T05:00:18Z</time>
      </trkpt>
      <trkpt lat="50.285586984828115" lon="7.627943018451333">
        <ele>76.560000000000002</ele>
        <time>2018-07-01T05:00:19Z</time>
      </trkpt>
      <trkpt lat="50.285652028396726" lon="7.628016024827957">
        <ele>76.560000000000002</ele>
        <time>2018-07-01T05:00:20Z</time>
      </trkpt>
      <trkpt lat="50.285726962611079" lon="7.628101017326117">
        <ele>76.560000000000002</ele>
        <time>2018-07-01T05:00:21Z</time>
      </trkpt>
      <trkpt lat="50.285812960937619" lon="7.628196990117431">
        <ele>76.560000000000002</ele>
        <time>2018-07-01T05:00:22Z</time>
      </trkpt>
      <trkpt lat="50.285906000062823" lon="7.628294974565506">
        <ele>76.560000000000002</ele>
        <time>2018-07-01T05:00:23Z</time>
      </trkpt>
      <trkpt lat="50.286004990339279" lon="7.628399999812245">
        <ele>77.040000000000006</ele>
        <time>2018-07-01T05:00:24Z</time>
      </trkpt>
      <trkpt lat="50.286229038611054" lon="7.628613989800215">
        <ele>78</ele>
        <time>2018-07-01T05:00:26Z</time>
      </trkpt>
      <trkpt lat="50.286363987252116" lon="7.628691019490361">
        <ele>78.969999999999999</ele>
        <time>2018-07-01T05:00:27Z</time>
      </trkpt>
      <trkpt lat="50.286514023318887" lon="7.628752961754799">
        <ele>79.450000000000003</ele>
        <time>2018-07-01T05:00:28Z</time>
      </trkpt>
      <trkpt lat="50.286670010536909" lon="7.628713985905051">
        <ele>80.409999999999997</ele>
        <time>2018-07-01T05:00:29Z</time>
      </trkpt>
      <trkpt lat="50.286830021068454" lon="7.628674004226923">
        <ele>81.370000000000005</ele>
        <time>2018-07-01T05:00:30Z</time>
      </trkpt>
      <trkpt lat="50.286978967487812" lon="7.628588005900383">
        <ele>81.849999999999994</ele>
        <time>2018-07-01T05:00:31Z</time>
      </trkpt>
      <trkpt lat="50.28710201382637" lon="7.628464037552476">
        <ele>82.810000000000002</ele>
        <time>2018-07-01T05:00:32Z</time>
      </trkpt>
      <trkpt lat="50.287165967747569" lon="7.628263961523771">
        <ele>83.290000000000006</ele>
        <time>2018-07-01T05:00:33Z</time>
      </trkpt>
      <trkpt lat="50.287201004102826" lon="7.628073021769524">
        <ele>83.769999999999996</ele>
        <time>2018-07-01T05:00:34Z</time>
      </trkpt>
      <trkpt lat="50.287235034629703" lon="7.627880992367864">
        <ele>84.25</ele>
        <time>2018-07-01T05:00:35Z</time>
      </trkpt>
      <trkpt lat="50.287216007709503" lon="7.627716036513448">
        <ele>84.730000000000004</ele>
        <time>2018-07-01T05:00:36Z</time>
      </trkpt>
      <trkpt lat="50.287196980789304" lon="7.627557031810284">
        <ele>84.730000000000004</ele>
        <time>2018-07-01T05:00:37Z</time>
      </trkpt>
      <trkpt lat="50.28725397773087" lon="7.627276992425323">
        <ele>85.209999999999994</ele>
        <time>2018-07-01T05:00:39Z</time>
      </trkpt>
      <trkpt lat="50.287285996600986" lon="7.627150006592274">
        <ele>85.689999999999998</ele>
        <time>2018-07-01T05:00:40Z</time>
      </trkpt>
      <trkpt lat="50.287318015471101" lon="7.627027966082096">
        <ele>85.689999999999998</ele>
        <time>2018-07-01T05:00:41Z</time>
      </trkpt>
      <trkpt lat="50.287348022684455" lon="7.626910032704473">
        <ele>86.180000000000007</ele>
        <time>2018-07-01T05:00:42Z</time>
      </trkpt>
      <trkpt lat="50.287413988262415" lon="7.626750022172928">
        <ele>86.659999999999997</ele>
        <time>2018-07-01T05:00:43Z</time>
      </trkpt>
      <trkpt lat="50.287512978538871" lon="7.626696964725852">
        <ele>86.659999999999997</ele>
        <time>2018-07-01T05:00:44Z</time>
      </trkpt>
      <trkpt lat="50.288405986502767" lon="7.626039991155267">
        <ele>89.060000000000002</ele>
        <time>2018-07-01T05:00:51Z</time>
      </trkpt>
      <trkpt lat="50.289844991639256" lon="7.624720009043813">
        <ele>90.980000000000004</ele>
        <time>2018-07-01T05:01:00Z</time>
      </trkpt>
      <trkpt lat="50.291541991755366" lon="7.623449983075261">
        <ele>93.390000000000001</ele>
        <time>2018-07-01T05:01:08Z</time>
      </trkpt>
      <trkpt lat="50.294081037864089" lon="7.621653992682695">
        <ele>93.870000000000005</ele>
        <time>2018-07-01T05:01:18Z</time>
      </trkpt>
      <trkpt lat="50.296229990199208" lon="7.619844004511833">
        <ele>94.349999999999994</ele>
        <time>2018-07-01T05:01:27Z</time>
      </trkpt>
      <trkpt lat="50.29735098592937" lon="7.618340961635113">
        <ele>94.349999999999994</ele>
        <time>2018-07-01T05:01:34Z</time>
      </trkpt>
      <trkpt lat="50.298817986622453" lon="7.615879029035568">
        <ele>94.349999999999994</ele>
        <time>2018-07-01T05:01:44Z</time>
      </trkpt>
      <trkpt lat="50.30005800537765" lon="7.614441029727459">
        <ele>94.829999999999998</ele>
        <time>2018-07-01T05:01:51Z</time>
      </trkpt>
      <trkpt lat="50.30160496942699" lon="7.612996995449066">
        <ele>93.390000000000001</ele>
        <time>2018-07-01T05:02:01Z</time>
      </trkpt>
      <trkpt lat="50.303578991442919" lon="7.61109103448689">
        <ele>95.790000000000006</ele>
        <time>2018-07-01T05:02:13Z</time>
      </trkpt>
      <trkpt lat="50.304963011294603" lon="7.610235996544361">
        <ele>97.709999999999994</ele>
        <time>2018-07-01T05:02:20Z</time>
      </trkpt>
      <trkpt lat="50.306358011439443" lon="7.610227027907968">
        <ele>98.670000000000002</ele>
        <time>2018-07-01T05:02:27Z</time>
      </trkpt>
      <trkpt lat="50.30652497895062" lon="7.610269021242857">
        <ele>98.670000000000002</ele>
        <time>2018-07-01T05:02:28Z</time>
      </trkpt>
      <trkpt lat="50.306708039715886" lon="7.610320989042521">
        <ele>98.670000000000002</ele>
        <time>2018-07-01T05:02:29Z</time>
      </trkpt>
      <trkpt lat="50.306895039975643" lon="7.610414028167725">
        <ele>98.670000000000002</ele>
        <time>2018-07-01T05:02:30Z</time>
      </trkpt>
      <trkpt lat="50.308975009247661" lon="7.611772986128926">
        <ele>103</ele>
        <time>2018-07-01T05:02:40Z</time>
      </trkpt>
      <trkpt lat="50.309714963659644" lon="7.612092001363635">
        <ele>103.95999999999999</ele>
        <time>2018-07-01T05:02:44Z</time>
      </trkpt>
      <trkpt lat="50.309895006939769" lon="7.612130977213383">
        <ele>104.44</ele>
        <time>2018-07-01T05:02:45Z</time>
      </trkpt>
      <trkpt lat="50.310072032734752" lon="7.612130977213383">
        <ele>104.92</ele>
        <time>2018-07-01T05:02:46Z</time>
      </trkpt>
      <trkpt lat="50.310239000245929" lon="7.612055959179997">
        <ele>104.92</ele>
        <time>2018-07-01T05:02:47Z</time>
      </trkpt>
      <trkpt lat="50.310404961928725" lon="7.611961998045445">
        <ele>105.40000000000001</ele>
        <time>2018-07-01T05:02:48Z</time>
      </trkpt>
      <trkpt lat="50.310560027137399" lon="7.611872982233763">
        <ele>105.40000000000001</ele>
        <time>2018-07-01T05:02:49Z</time>
      </trkpt>
      <trkpt lat="50.310710985213518" lon="7.611708026379347">
        <ele>105.88</ele>
        <time>2018-07-01T05:02:50Z</time>
      </trkpt>
      <trkpt lat="50.310859009623528" lon="7.61154499836266">
        <ele>105.88</ele>
        <time>2018-07-01T05:02:51Z</time>
      </trkpt>
      <trkpt lat="50.311009967699647" lon="7.611379958689213">
        <ele>106.36</ele>
        <time>2018-07-01T05:02:52Z</time>
      </trkpt>
      <trkpt lat="50.31110200099647" lon="7.61111400090158">
        <ele>106.84</ele>
        <time>2018-07-01T05:02:53Z</time>
      </trkpt>
      <trkpt lat="50.311195040121675" lon="7.610844019800425">
        <ele>106.84</ele>
        <time>2018-07-01T05:02:54Z</time>
      </trkpt>
      <trkpt lat="50.311270980164409" lon="7.610544031485915">
        <ele>106.84</ele>
        <time>2018-07-01T05:02:55Z</time>
      </trkpt>
      <trkpt lat="50.31198201701045" lon="7.607916975393891">
        <ele>104.44</ele>
        <time>2018-07-01T05:03:03Z</time>
      </trkpt>
      <trkpt lat="50.31320502050221" lon="7.605566019192338">
        <ele>101.56</ele>
        <time>2018-07-01T05:03:11Z</time>
      </trkpt>
      <trkpt lat="50.314896991476417" lon="7.603864995762706">
        <ele>97.709999999999994</ele>
        <time>2018-07-01T05:03:19Z</time>
      </trkpt>
      <trkpt lat="50.317064970731735" lon="7.602666970342398">
        <ele>94.829999999999998</ele>
        <time>2018-07-01T05:03:28Z</time>
      </trkpt>
      <trkpt lat="50.3190509788692" lon="7.602294981479645">
        <ele>97.230000000000004</ele>
        <time>2018-07-01T05:03:36Z</time>
      </trkpt>
      <trkpt lat="50.319806020706892" lon="7.602582983672619">
        <ele>98.189999999999998</ele>
        <time>2018-07-01T05:03:39Z</time>
      </trkpt>
      <trkpt lat="50.321395983919501" lon="7.603892991319299">
        <ele>104.92</ele>
        <time>2018-07-01T05:03:46Z</time>
      </trkpt>
      <trkpt lat="50.323209995403886" lon="7.605043994262815">
        <ele>112.61</ele>
        <time>2018-07-01T05:03:54Z</time>
      </trkpt>
      <trkpt lat="50.324929961934686" lon="7.605187995359302">
        <ele>115.01000000000001</ele>
        <time>2018-07-01T05:04:01Z</time>
      </trkpt>
      <trkpt lat="50.328648006543517" lon="7.605430986732245">
        <ele>119.81999999999999</ele>
        <time>2018-07-01T05:04:16Z</time>
      </trkpt>
      <trkpt lat="50.330100003629923" lon="7.605869024991989">
        <ele>121.73999999999999</ele>
        <time>2018-07-01T05:04:22Z</time>
      </trkpt>
      <trkpt lat="50.33213596791029" lon="7.60632298886776">
        <ele>123.67</ele>
        <time>2018-07-01T05:04:30Z</time>
      </trkpt>
      <trkpt lat="50.33391603268683" lon="7.606063988059759">
        <ele>125.59</ele>
        <time>2018-07-01T05:04:37Z</time>
      </trkpt>
      <trkpt lat="50.33591796644032" lon="7.605731980875135">
        <ele>127.51000000000001</ele>
        <time>2018-07-01T05:04:45Z</time>
      </trkpt>
      <trkpt lat="50.338332960382104" lon="7.605814039707184">
        <ele>129.43000000000001</ele>
        <time>2018-07-01T05:04:54Z</time>
      </trkpt>
      <trkpt lat="50.341355977579951" lon="7.606250988319516">
        <ele>130.88</ele>
        <time>2018-07-01T05:05:05Z</time>
      </trkpt>
      <trkpt lat="50.341621013358235" lon="7.606245037168264">
        <ele>129.91999999999999</ele>
        <time>2018-07-01T05:05:06Z</time>
      </trkpt>
      <trkpt lat="50.343175018206239" lon="7.605886040255427">
        <ele>125.11</ele>
        <time>2018-07-01T05:05:12Z</time>
      </trkpt>
      <trkpt lat="50.344415958970785" lon="7.605820996686816">
        <ele>122.22</ele>
        <time>2018-07-01T05:05:18Z</time>
      </trkpt>
      <trkpt lat="50.345759997144341" lon="7.606502026319504">
        <ele>119.81999999999999</ele>
        <time>2018-07-01T05:05:25Z</time>
      </trkpt>
      <trkpt lat="50.346945030614734" lon="7.607298977673054">
        <ele>115.5</ele>
        <time>2018-07-01T05:05:31Z</time>
      </trkpt>
      <trkpt lat="50.347159020602703" lon="7.607406014576554">
        <ele>114.53</ele>
        <time>2018-07-01T05:05:32Z</time>
      </trkpt>
      <trkpt lat="50.347378961741924" lon="7.607454964891076">
        <ele>113.56999999999999</ele>
        <time>2018-07-01T05:05:33Z</time>
      </trkpt>
      <trkpt lat="50.347595969215035" lon="7.607496958225966">
        <ele>112.61</ele>
        <time>2018-07-01T05:05:34Z</time>
      </trkpt>
      <trkpt lat="50.347806019708514" lon="7.607511039823294">
        <ele>111.17</ele>
        <time>2018-07-01T05:05:35Z</time>
      </trkpt>
      <trkpt lat="50.348988035693765" lon="7.607665015384555">
        <ele>101.56</ele>
        <time>2018-07-01T05:05:42Z</time>
      </trkpt>
      <trkpt lat="50.350209027528763" lon="7.608249988406897">
        <ele>94.349999999999994</ele>
        <time>2018-07-01T05:05:50Z</time>
      </trkpt>
      <trkpt lat="50.351856993511319" lon="7.609383976086974">
        <ele>89.540000000000006</ele>
        <time>2018-07-01T05:06:01Z</time>
      </trkpt>
      <trkpt lat="50.352558977901936" lon="7.609841041266918">
        <ele>87.620000000000005</ele>
        <time>2018-07-01T05:06:07Z</time>
      </trkpt>
      <trkpt lat="50.352656040340662" lon="7.609966015443206">
        <ele>87.140000000000001</ele>
        <time>2018-07-01T05:06:08Z</time>
      </trkpt>
      <trkpt lat="50.352702978998423" lon="7.610071040689945">
        <ele>86.180000000000007</ele>
        <time>2018-07-01T05:06:09Z</time>
      </trkpt>
      <trkpt lat="50.352742960676551" lon="7.610204983502626">
        <ele>85.689999999999998</ele>
        <time>2018-07-01T05:06:10Z</time>
      </trkpt>
      <trkpt lat="50.352777997031808" lon="7.610320989042521">
        <ele>85.209999999999994</ele>
        <time>2018-07-01T05:06:11Z</time>
      </trkpt>
      <trkpt lat="50.352813033387065" lon="7.610436994582415">
        <ele>84.730000000000004</ele>
        <time>2018-07-01T05:06:12Z</time>
      </trkpt>
      <trkpt lat="50.352830970659852" lon="7.610500026494265">
        <ele>83.769999999999996</ele>
        <time>2018-07-01T05:06:13Z</time>
      </trkpt>
      <trkpt lat="50.351851964369416" lon="7.610348984599114">
        <ele>79.930000000000007</ele>
        <time>2018-07-01T05:06:33Z</time>
      </trkpt>
      <trkpt lat="50.351898986846209" lon="7.609328990802169">
        <ele>78</ele>
        <time>2018-07-01T05:06:37Z</time>
      </trkpt>
      <trkpt lat="50.352261001244187" lon="7.607430992648006">
        <ele>77.519999999999996</ele>
        <time>2018-07-01T05:06:38Z</time>
      </trkpt>
      <trkpt lat="50.35278101451695" lon="7.605661991983652">
        <ele>78.480000000000004</ele>
        <time>2018-07-01T05:06:47Z</time>
      </trkpt>
      <trkpt lat="50.353660024702549" lon="7.602841984480619">
        <ele>78.480000000000004</ele>
        <time>2018-07-01T05:07:03Z</time>
      </trkpt>
      <trkpt lat="50.354076018556952" lon="7.60103702545166">
        <ele>76.079999999999998</ele>
        <time>2018-07-01T05:07:14Z</time>
      </trkpt>
      <trkpt lat="50.354086998850107" lon="7.59931898675859">
        <ele>72.719999999999999</ele>
        <time>2018-07-01T05:07:24Z</time>
      </trkpt>
      <trkpt lat="50.354198981076479" lon="7.597467005252838">
        <ele>70.790000000000006</ele>
        <time>2018-07-01T05:07:35Z</time>
      </trkpt>
      <trkpt lat="50.354254972189665" lon="7.597328033298254">
        <ele>70.790000000000006</ele>
        <time>2018-07-01T05:07:36Z</time>
      </trkpt>
      <trkpt lat="50.354315992444754" lon="7.597199035808444">
        <ele>70.310000000000002</ele>
        <time>2018-07-01T05:07:37Z</time>
      </trkpt>
      <trkpt lat="50.354440966621041" lon="7.596939029172063">
        <ele>69.349999999999994</ele>
        <time>2018-07-01T05:07:39Z</time>
      </trkpt>
      <trkpt lat="50.354480026289821" lon="7.596852025017142">
        <ele>68.870000000000005</ele>
        <time>2018-07-01T05:07:40Z</time>
      </trkpt>
      <trkpt lat="50.354529982432723" lon="7.596727972850204">
        <ele>68.390000000000001</ele>
        <time>2018-07-01T05:07:41Z</time>
      </trkpt>
      <trkpt lat="50.354554960504174" lon="7.596611967310309">
        <ele>67.909999999999997</ele>
        <time>2018-07-01T05:07:42Z</time>
      </trkpt>
      <trkpt lat="50.354578010737896" lon="7.596505014225841">
        <ele>67.430000000000007</ele>
        <time>2018-07-01T05:07:43Z</time>
      </trkpt>
      <trkpt lat="50.354600977152586" lon="7.596408035606146">
        <ele>66.950000000000003</ele>
        <time>2018-07-01T05:07:44Z</time>
      </trkpt>
      <trkpt lat="50.354701979085803" lon="7.596048032864928">
        <ele>65.030000000000001</ele>
        <time>2018-07-01T05:07:52Z</time>
      </trkpt>
      <trkpt lat="50.354701979085803" lon="7.596048032864928">
        <ele>65.989999999999995</ele>
        <time>2018-07-01T05:08:12Z</time>
      </trkpt>
      <trkpt lat="50.354717988520861" lon="7.595990030094981">
        <ele>65.989999999999995</ele>
        <time>2018-07-01T05:08:17Z</time>
      </trkpt>
      <trkpt lat="50.354744978249073" lon="7.595895985141397">
        <ele>66.469999999999999</ele>
        <time>2018-07-01T05:08:18Z</time>
      </trkpt>
      <trkpt lat="50.355083020403981" lon="7.594702988862991">
        <ele>68.390000000000001</ele>
        <time>2018-07-01T05:08:28Z</time>
      </trkpt>
      <trkpt lat="50.355219980701804" lon="7.594223963096738">
        <ele>68.870000000000005</ele>
        <time>2018-07-01T05:08:32Z</time>
      </trkpt>
      <trkpt lat="50.3552530054003" lon="7.594107035547495">
        <ele>68.870000000000005</ele>
        <time>2018-07-01T05:08:33Z</time>
      </trkpt>
      <trkpt lat="50.355290975421667" lon="7.593981977552176">
        <ele>69.349999999999994</ele>
        <time>2018-07-01T05:08:34Z</time>
      </trkpt>
      <trkpt lat="50.355331040918827" lon="7.593865972012281">
        <ele>69.349999999999994</ele>
        <time>2018-07-01T05:08:35Z</time>
      </trkpt>
      <trkpt lat="50.355372028425336" lon="7.593746026977897">
        <ele>69.349999999999994</ele>
        <time>2018-07-01T05:08:36Z</time>
      </trkpt>
      <trkpt lat="50.355766983702779" lon="7.592596029862762">
        <ele>70.790000000000006</ele>
        <time>2018-07-01T05:08:47Z</time>
      </trkpt>
      <trkpt lat="50.356148025020957" lon="7.591557009145618">
        <ele>73.680000000000007</ele>
        <time>2018-07-01T05:08:59Z</time>
      </trkpt>
      <trkpt lat="50.356181971728802" lon="7.591461958363652">
        <ele>75.120000000000005</ele>
        <time>2018-07-01T05:09:07Z</time>
      </trkpt>
      <trkpt lat="50.356192030012608" lon="7.59143203496933">
        <ele>75.120000000000005</ele>
        <time>2018-07-01T05:09:22Z</time>
      </trkpt>
      <trkpt lat="50.356207033619285" lon="7.591392975300551">
        <ele>75.599999999999994</ele>
        <time>2018-07-01T05:09:23Z</time>
      </trkpt>
      <trkpt lat="50.356230000033975" lon="7.591328015550971">
        <ele>75.599999999999994</ele>
        <time>2018-07-01T05:09:24Z</time>
      </trkpt>
      <trkpt lat="50.356366960331798" lon="7.590840021148324">
        <ele>76.079999999999998</ele>
        <time>2018-07-01T05:09:29Z</time>
      </trkpt>
      <trkpt lat="50.356428986415267" lon="7.590636005625129">
        <ele>76.079999999999998</ele>
        <time>2018-07-01T05:09:31Z</time>
      </trkpt>
      <trkpt lat="50.356467040255666" lon="7.590526035055518">
        <ele>76.079999999999998</ele>
        <time>2018-07-01T05:09:32Z</time>
      </trkpt>
      <trkpt lat="50.356932990252972" lon="7.589445021003485">
        <ele>74.640000000000001</ele>
        <time>2018-07-01T05:09:40Z</time>
      </trkpt>
      <trkpt lat="50.357004990801215" lon="7.589348964393139">
        <ele>74.640000000000001</ele>
        <time>2018-07-01T05:09:41Z</time>
      </trkpt>
      <trkpt lat="50.357076991349459" lon="7.589260032400489">
        <ele>74.640000000000001</ele>
        <time>2018-07-01T05:09:42Z</time>
      </trkpt>
      <trkpt lat="50.35716500133276" lon="7.589181996881962">
        <ele>73.680000000000007</ele>
        <time>2018-07-01T05:09:43Z</time>
      </trkpt>
      <trkpt lat="50.357270026579499" lon="7.589124999940395">
        <ele>73.200000000000003</ele>
        <time>2018-07-01T05:09:44Z</time>
      </trkpt>
      <trkpt lat="50.357377985492349" lon="7.589064985513687">
        <ele>72.239999999999995</ele>
        <time>2018-07-01T05:09:45Z</time>
      </trkpt>
      <trkpt lat="50.35860400646925" lon="7.588435001671314">
        <ele>69.349999999999994</ele>
        <time>2018-07-01T05:09:57Z</time>
      </trkpt>
      <trkpt lat="50.359725002199411" lon="7.588280020281673">
        <ele>68.870000000000005</ele>
        <time>2018-07-01T05:10:08Z</time>
      </trkpt>
      <trkpt lat="50.360563024878502" lon="7.588261999189854">
        <ele>68.390000000000001</ele>
        <time>2018-07-01T05:10:17Z</time>
      </trkpt>
      <trkpt lat="50.360634019598365" lon="7.588266022503376">
        <ele>68.390000000000001</ele>
        <time>2018-07-01T05:10:18Z</time>
      </trkpt>
      <trkpt lat="50.360733009874821" lon="7.588314972817898">
        <ele>67.909999999999997</ele>
        <time>2018-07-01T05:10:19Z</time>
      </trkpt>
      <trkpt lat="50.360783971846104" lon="7.588399965316057">
        <ele>67.430000000000007</ele>
        <time>2018-07-01T05:10:20Z</time>
      </trkpt>
      <trkpt lat="50.360834011808038" lon="7.588482024148107">
        <ele>66.950000000000003</ele>
        <time>2018-07-01T05:10:21Z</time>
      </trkpt>
      <trkpt lat="50.360898971557617" lon="7.588523011654615">
        <ele>66.469999999999999</ele>
        <time>2018-07-01T05:10:22Z</time>
      </trkpt>
      <trkpt lat="50.3609689604491" lon="7.588555030524731">
        <ele>65.989999999999995</ele>
        <time>2018-07-01T05:10:23Z</time>
      </trkpt>
      <trkpt lat="50.361043978482485" lon="7.588570034131408">
        <ele>65.989999999999995</ele>
        <time>2018-07-01T05:10:24Z</time>
      </trkpt>
      <trkpt lat="50.361125031486154" lon="7.588570034131408">
        <ele>65.989999999999995</ele>
        <time>2018-07-01T05:10:25Z</time>
      </trkpt>
      <trkpt lat="50.361190997064114" lon="7.58851395919919">
        <ele>65.989999999999995</ele>
        <time>2018-07-01T05:10:26Z</time>
      </trkpt>
      <trkpt lat="50.361261991783977" lon="7.588443970307708">
        <ele>65.989999999999995</ele>
        <time>2018-07-01T05:10:27Z</time>
      </trkpt>
      <trkpt lat="50.361328963190317" lon="7.588375993072987">
        <ele>66.469999999999999</ele>
        <time>2018-07-01T05:10:28Z</time>
      </trkpt>
      <trkpt lat="50.36135695874691" lon="7.58825596421957">
        <ele>67.430000000000007</ele>
        <time>2018-07-01T05:10:29Z</time>
      </trkpt>
      <trkpt lat="50.361384032294154" lon="7.588137025013566">
        <ele>67.430000000000007</ele>
        <time>2018-07-01T05:10:30Z</time>
      </trkpt>
      <trkpt lat="50.361371962353587" lon="7.587991012260318">
        <ele>68.390000000000001</ele>
        <time>2018-07-01T05:10:31Z</time>
      </trkpt>
      <trkpt lat="50.361371962353587" lon="7.587917000055313">
        <ele>68.870000000000005</ele>
        <time>2018-07-01T05:10:32Z</time>
      </trkpt>
      <trkpt lat="50.361360982060432" lon="7.587855979800224">
        <ele>69.349999999999994</ele>
        <time>2018-07-01T05:10:33Z</time>
      </trkpt>
      <trkpt lat="50.361332986503839" lon="7.587786996737123">
        <ele>69.829999999999998</ele>
        <time>2018-07-01T05:10:34Z</time>
      </trkpt>
      <trkpt lat="50.36131102591753" lon="7.587733017280698">
        <ele>70.310000000000002</ele>
        <time>2018-07-01T05:10:35Z</time>
      </trkpt>
      <trkpt lat="50.3612279612571" lon="7.587479967623949">
        <ele>72.719999999999999</ele>
        <time>2018-07-01T05:10:40Z</time>
      </trkpt>
      <trkpt lat="50.361218992620707" lon="7.587403021752834">
        <ele>73.200000000000003</ele>
        <time>2018-07-01T05:10:41Z</time>
      </trkpt>
      <trkpt lat="50.361209018155932" lon="7.587314005941153">
        <ele>73.200000000000003</ele>
        <time>2018-07-01T05:10:42Z</time>
      </trkpt>
      <trkpt lat="50.361199965700507" lon="7.587219038978219">
        <ele>73.680000000000007</ele>
        <time>2018-07-01T05:10:43Z</time>
      </trkpt>
      <trkpt lat="50.361199965700507" lon="7.587122982367873">
        <ele>74.159999999999997</ele>
        <time>2018-07-01T05:10:44Z</time>
      </trkpt>
      <trkpt lat="50.361199965700507" lon="7.58702902123332">
        <ele>74.640000000000001</ele>
        <time>2018-07-01T05:10:45Z</time>
      </trkpt>
      <trkpt lat="50.361199965700507" lon="7.586946040391922">
        <ele>74.640000000000001</ele>
        <time>2018-07-01T05:10:46Z</time>
      </trkpt>
      <trkpt lat="50.361267020925879" lon="7.586586037650704">
        <ele>76.560000000000002</ele>
        <time>2018-07-01T05:10:54Z</time>
      </trkpt>
      <trkpt lat="50.36131395958364" lon="7.586010033264756">
        <ele>77.519999999999996</ele>
        <time>2018-07-01T05:11:00Z</time>
      </trkpt>
      <trkpt lat="50.361317982897162" lon="7.585896039381623">
        <ele>77.519999999999996</ele>
        <time>2018-07-01T05:11:01Z</time>
      </trkpt>
      <trkpt lat="50.361371962353587" lon="7.584921978414059">
        <ele>79.930000000000007</ele>
        <time>2018-07-01T05:11:09Z</time>
      </trkpt>
      <trkpt lat="50.361358970403671" lon="7.584854001179338">
        <ele>79.930000000000007</ele>
        <time>2018-07-01T05:11:10Z</time>
      </trkpt>
      <trkpt lat="50.361338015645742" lon="7.584737995639443">
        <ele>80.409999999999997</ele>
        <time>2018-07-01T05:11:11Z</time>
      </trkpt>
      <trkpt lat="50.361252017319202" lon="7.584270033985376">
        <ele>79.450000000000003</ele>
        <time>2018-07-01T05:11:15Z</time>
      </trkpt>
      <trkpt lat="50.361230978742242" lon="7.584154028445482">
        <ele>79.450000000000003</ele>
        <time>2018-07-01T05:11:16Z</time>
      </trkpt>
      <trkpt lat="50.361112961545587" lon="7.583584981039167">
        <ele>78.480000000000004</ele>
        <time>2018-07-01T05:11:21Z</time>
      </trkpt>
      <trkpt lat="50.361085971817374" lon="7.583467969670892">
        <ele>78.480000000000004</ele>
        <time>2018-07-01T05:11:22Z</time>
      </trkpt>
      <trkpt lat="50.361007014289498" lon="7.583120036870241">
        <ele>79.450000000000003</ele>
        <time>2018-07-01T05:11:25Z</time>
      </trkpt>
      <trkpt lat="50.36096996627748" lon="7.583031021058559">
        <ele>80.409999999999997</ele>
        <time>2018-07-01T05:11:26Z</time>
      </trkpt>
      <trkpt lat="50.360637037083507" lon="7.582218982279301">
        <ele>81.370000000000005</ele>
        <time>2018-07-01T05:11:35Z</time>
      </trkpt>
      <trkpt lat="50.360570987686515" lon="7.582059977576137">
        <ele>81.849999999999994</ele>
        <time>2018-07-01T05:11:37Z</time>
      </trkpt>
      <trkpt lat="50.360537962988019" lon="7.581978002563119">
        <ele>81.849999999999994</ele>
        <time>2018-07-01T05:11:38Z</time>
      </trkpt>
      <trkpt lat="50.360507033765316" lon="7.581896027550101">
        <ele>81.849999999999994</ele>
        <time>2018-07-01T05:11:39Z</time>
      </trkpt>
      <trkpt lat="50.360477026551962" lon="7.581794019788504">
        <ele>81.849999999999994</ele>
        <time>2018-07-01T05:11:40Z</time>
      </trkpt>
      <trkpt lat="50.360446013510227" lon="7.581691006198525">
        <ele>81.849999999999994</ele>
        <time>2018-07-01T05:11:41Z</time>
      </trkpt>
      <trkpt lat="50.360350962728262" lon="7.581369979307056">
        <ele>80.890000000000001</ele>
        <time>2018-07-01T05:11:44Z</time>
      </trkpt>
      <trkpt lat="50.360320033505559" lon="7.581266965717077">
        <ele>80.409999999999997</ele>
        <time>2018-07-01T05:11:45Z</time>
      </trkpt>
      <trkpt lat="50.360289020463824" lon="7.58116303011775">
        <ele>79.930000000000007</ele>
        <time>2018-07-01T05:11:46Z</time>
      </trkpt>
      <trkpt lat="50.36025800742209" lon="7.581054987385869">
        <ele>79.450000000000003</ele>
        <time>2018-07-01T05:11:47Z</time>
      </trkpt>
      <trkpt lat="50.360224982723594" lon="7.580945016816258">
        <ele>78.969999999999999</ele>
        <time>2018-07-01T05:11:48Z</time>
      </trkpt>
      <trkpt lat="50.36019204184413" lon="7.580834962427616">
        <ele>78.480000000000004</ele>
        <time>2018-07-01T05:11:49Z</time>
      </trkpt>
      <trkpt lat="50.360162034630775" lon="7.580727003514767">
        <ele>78.480000000000004</ele>
        <time>2018-07-01T05:11:50Z</time>
      </trkpt>
      <trkpt lat="50.359787028282881" lon="7.579516991972923">
        <ele>77.519999999999996</ele>
        <time>2018-07-01T05:12:02Z</time>
      </trkpt>
      <trkpt lat="50.359698012471199" lon="7.579232007265091">
        <ele>77.040000000000006</ele>
        <time>2018-07-01T05:12:05Z</time>
      </trkpt>
      <trkpt lat="50.359524004161358" lon="7.578734960407019">
        <ele>78</ele>
        <time>2018-07-01T05:12:10Z</time>
      </trkpt>
      <trkpt lat="50.359254023060203" lon="7.578057032078505">
        <ele>77.040000000000006</ele>
        <time>2018-07-01T05:12:17Z</time>
      </trkpt>
      <trkpt lat="50.359094012528658" lon="7.577654030174017">
        <ele>77.519999999999996</ele>
        <time>2018-07-01T05:12:22Z</time>
      </trkpt>
      <trkpt lat="50.359061993658543" lon="7.577573982998729">
        <ele>77.519999999999996</ele>
        <time>2018-07-01T05:12:23Z</time>
      </trkpt>
      <trkpt lat="50.358954034745693" lon="7.577302996069193">
        <ele>77.040000000000006</ele>
        <time>2018-07-01T05:12:31Z</time>
      </trkpt>
      <trkpt lat="50.358857978135347" lon="7.577063022181392">
        <ele>75.120000000000005</ele>
        <time>2018-07-01T05:12:58Z</time>
      </trkpt>
      <trkpt lat="50.358445001766086" lon="7.576258024200797">
        <ele>69.829999999999998</ele>
        <time>2018-07-01T05:13:08Z</time>
      </trkpt>
      <trkpt lat="50.358321033418179" lon="7.576011009514332">
        <ele>68.870000000000005</ele>
        <time>2018-07-01T05:13:11Z</time>
      </trkpt>
      <trkpt lat="50.358275016769767" lon="7.575917970389128">
        <ele>68.870000000000005</ele>
        <time>2018-07-01T05:13:12Z</time>
      </trkpt>
      <trkpt lat="50.357835972681642" lon="7.57482698187232">
        <ele>68.870000000000005</ele>
        <time>2018-07-01T05:13:22Z</time>
      </trkpt>
      <trkpt lat="50.357449986040592" lon="7.573842024430633">
        <ele>70.790000000000006</ele>
        <time>2018-07-01T05:13:32Z</time>
      </trkpt>
      <trkpt lat="50.357420984655619" lon="7.573767006397247">
        <ele>70.790000000000006</ele>
        <time>2018-07-01T05:13:33Z</time>
      </trkpt>
      <trkpt lat="50.357389971613884" lon="7.573684025555849">
        <ele>70.790000000000006</ele>
        <time>2018-07-01T05:13:34Z</time>
      </trkpt>
      <trkpt lat="50.357355019077659" lon="7.573594003915787">
        <ele>70.790000000000006</ele>
        <time>2018-07-01T05:13:35Z</time>
      </trkpt>
      <trkpt lat="50.357319982722402" lon="7.573500964790583">
        <ele>70.790000000000006</ele>
        <time>2018-07-01T05:13:36Z</time>
      </trkpt>
      <trkpt lat="50.357283018529415" lon="7.573404991999269">
        <ele>70.790000000000006</ele>
        <time>2018-07-01T05:13:37Z</time>
      </trkpt>
      <trkpt lat="50.357243958860636" lon="7.57330097258091">
        <ele>70.790000000000006</ele>
        <time>2018-07-01T05:13:38Z</time>
      </trkpt>
      <trkpt lat="50.35707900300622" lon="7.572867963463068">
        <ele>70.790000000000006</ele>
        <time>2018-07-01T05:13:42Z</time>
      </trkpt>
      <trkpt lat="50.357039021328092" lon="7.57276201620698">
        <ele>70.310000000000002</ele>
        <time>2018-07-01T05:13:43Z</time>
      </trkpt>
      <trkpt lat="50.356657980009913" lon="7.571760965511203">
        <ele>67.909999999999997</ele>
        <time>2018-07-01T05:13:51Z</time>
      </trkpt>
      <trkpt lat="50.356611963361502" lon="7.571641020476818">
        <ele>67.430000000000007</ele>
        <time>2018-07-01T05:13:52Z</time>
      </trkpt>
      <trkpt lat="50.356568964198232" lon="7.571528032422066">
        <ele>66.950000000000003</ele>
        <time>2018-07-01T05:13:53Z</time>
      </trkpt>
      <trkpt lat="50.356401996687055" lon="7.571089994162321">
        <ele>67.430000000000007</ele>
        <time>2018-07-01T05:13:57Z</time>
      </trkpt>
      <trkpt lat="50.355970999225974" lon="7.569974027574062">
        <ele>69.829999999999998</ele>
        <time>2018-07-01T05:14:08Z</time>
      </trkpt>
      <trkpt lat="50.355946021154523" lon="7.56990403868258">
        <ele>69.829999999999998</ele>
        <time>2018-07-01T05:14:09Z</time>
      </trkpt>
      <trkpt lat="50.355922970920801" lon="7.569838995113969">
        <ele>70.310000000000002</ele>
        <time>2018-07-01T05:14:10Z</time>
      </trkpt>
      <trkpt lat="50.355977034196258" lon="7.569692982360721">
        <ele>70.310000000000002</ele>
        <time>2018-07-01T05:14:11Z</time>
      </trkpt>
      <trkpt lat="50.356022967025638" lon="7.569645959883928">
        <ele>70.310000000000002</ele>
        <time>2018-07-01T05:14:12Z</time>
      </trkpt>
      <trkpt lat="50.356076024472713" lon="7.569590974599123">
        <ele>70.310000000000002</ele>
        <time>2018-07-01T05:14:13Z</time>
      </trkpt>
      <trkpt lat="50.356137966737151" lon="7.569527020677924">
        <ele>70.310000000000002</ele>
        <time>2018-07-01T05:14:14Z</time>
      </trkpt>
      <trkpt lat="50.356203010305762" lon="7.569458959624171">
        <ele>70.790000000000006</ele>
        <time>2018-07-01T05:14:15Z</time>
      </trkpt>
      <trkpt lat="50.356577010825276" lon="7.569031985476613">
        <ele>70.790000000000006</ele>
        <time>2018-07-01T05:14:20Z</time>
      </trkpt>
      <trkpt lat="50.3566500172019" lon="7.5689169857651">
        <ele>70.310000000000002</ele>
        <time>2018-07-01T05:14:21Z</time>
      </trkpt>
      <trkpt lat="50.356729980558157" lon="7.568801986053586">
        <ele>69.829999999999998</ele>
        <time>2018-07-01T05:14:22Z</time>
      </trkpt>
      <trkpt lat="50.356811033561826" lon="7.568672988563776">
        <ele>69.829999999999998</ele>
        <time>2018-07-01T05:14:23Z</time>
      </trkpt>
      <trkpt lat="50.356867024675012" lon="7.568509038537741">
        <ele>69.829999999999998</ele>
        <time>2018-07-01T05:14:24Z</time>
      </trkpt>
      <trkpt lat="50.356924021616578" lon="7.568340981379151">
        <ele>69.829999999999998</ele>
        <time>2018-07-01T05:14:25Z</time>
      </trkpt>
      <trkpt lat="50.357708986848593" lon="7.566501991823316">
        <ele>73.200000000000003</ele>
        <time>2018-07-01T05:14:37Z</time>
      </trkpt>
      <trkpt lat="50.358538962900639" lon="7.564538028091192">
        <ele>80.890000000000001</ele>
        <time>2018-07-01T05:14:49Z</time>
      </trkpt>
      <trkpt lat="50.359339015558362" lon="7.56268696859479">
        <ele>80.409999999999997</ele>
        <time>2018-07-01T05:15:02Z</time>
      </trkpt>
      <trkpt lat="50.360295977443457" lon="7.560539022088051">
        <ele>78</ele>
        <time>2018-07-01T05:15:14Z</time>
      </trkpt>
      <trkpt lat="50.36057903431356" lon="7.560032000765204">
        <ele>77.519999999999996</ele>
        <time>2018-07-01T05:15:17Z</time>
      </trkpt>
      <trkpt lat="50.360692022368312" lon="7.559894034639001">
        <ele>77.519999999999996</ele>
        <time>2018-07-01T05:15:18Z</time>
      </trkpt>
      <trkpt lat="50.360805010423064" lon="7.559755984693766">
        <ele>77.519999999999996</ele>
        <time>2018-07-01T05:15:19Z</time>
      </trkpt>
      <trkpt lat="50.36092302761972" lon="7.559635033831">
        <ele>77.519999999999996</ele>
        <time>2018-07-01T05:15:20Z</time>
      </trkpt>
      <trkpt lat="50.361054036766291" lon="7.559541994705796">
        <ele>77.519999999999996</ele>
        <time>2018-07-01T05:15:21Z</time>
      </trkpt>
      <trkpt lat="50.361190997064114" lon="7.559481980279088">
        <ele>77.519999999999996</ele>
        <time>2018-07-01T05:15:22Z</time>
      </trkpt>
      <trkpt lat="50.361328041180968" lon="7.559434035792947">
        <ele>77.519999999999996</ele>
        <time>2018-07-01T05:15:23Z</time>
      </trkpt>
      <trkpt lat="50.361466007307172" lon="7.559386007487774">
        <ele>77.519999999999996</ele>
        <time>2018-07-01T05:15:24Z</time>
      </trkpt>
      <trkpt lat="50.361609002575278" lon="7.559382990002632">
        <ele>77.519999999999996</ele>
        <time>2018-07-01T05:15:25Z</time>
      </trkpt>
      <trkpt lat="50.361746968701482" lon="7.559408973902464">
        <ele>77.519999999999996</ele>
        <time>2018-07-01T05:15:26Z</time>
      </trkpt>
      <trkpt lat="50.361889963969588" lon="7.559436969459057">
        <ele>77.040000000000006</ele>
        <time>2018-07-01T05:15:27Z</time>
      </trkpt>
      <trkpt lat="50.362030025571585" lon="7.559463959187269">
        <ele>77.040000000000006</ele>
        <time>2018-07-01T05:15:28Z</time>
      </trkpt>
      <trkpt lat="50.362166985869408" lon="7.559520034119487">
        <ele>76.560000000000002</ele>
        <time>2018-07-01T05:15:29Z</time>
      </trkpt>
      <trkpt lat="50.363943027332425" lon="7.560440031811595">
        <ele>77.519999999999996</ele>
        <time>2018-07-01T05:15:41Z</time>
      </trkpt>
      <trkpt lat="50.365985026583076" lon="7.561405962333083">
        <ele>75.599999999999994</ele>
        <time>2018-07-01T05:15:53Z</time>
      </trkpt>
      <trkpt lat="50.367246000096202" lon="7.561502018943429">
        <ele>78.480000000000004</ele>
        <time>2018-07-01T05:16:01Z</time>
      </trkpt>
      <trkpt lat="50.367689989507198" lon="7.56139699369669">
        <ele>78</ele>
        <time>2018-07-01T05:16:04Z</time>
      </trkpt>
      <trkpt lat="50.367837008088827" lon="7.56133203394711">
        <ele>77.519999999999996</ele>
        <time>2018-07-01T05:16:05Z</time>
      </trkpt>
      <trkpt lat="50.368589032441378" lon="7.561015030369163">
        <ele>77.040000000000006</ele>
        <time>2018-07-01T05:16:12Z</time>
      </trkpt>
      <trkpt lat="50.368734039366245" lon="7.560942023992539">
        <ele>78.480000000000004</ele>
        <time>2018-07-01T05:16:16Z</time>
      </trkpt>
      <trkpt lat="50.368734039366245" lon="7.560942023992539">
        <ele>78.969999999999999</ele>
        <time>2018-07-01T05:16:29Z</time>
      </trkpt>
      <trkpt lat="50.368760023266077" lon="7.560930037871003">
        <ele>79.930000000000007</ele>
        <time>2018-07-01T05:16:31Z</time>
      </trkpt>
      <trkpt lat="50.368791958317161" lon="7.560913022607565">
        <ele>80.409999999999997</ele>
        <time>2018-07-01T05:16:32Z</time>
      </trkpt>
      <trkpt lat="50.368844009935856" lon="7.560887038707733">
        <ele>80.890000000000001</ele>
        <time>2018-07-01T05:16:33Z</time>
      </trkpt>
      <trkpt lat="50.368897989392281" lon="7.560859965160489">
        <ele>81.370000000000005</ele>
        <time>2018-07-01T05:16:34Z</time>
      </trkpt>
      <trkpt lat="50.368931014090776" lon="7.560762986540794">
        <ele>82.329999999999998</ele>
        <time>2018-07-01T05:16:35Z</time>
      </trkpt>
      <trkpt lat="50.368938976898789" lon="7.560665002092719">
        <ele>82.329999999999998</ele>
        <time>2018-07-01T05:16:36Z</time>
      </trkpt>
      <trkpt lat="50.368946017697453" lon="7.560568023473024">
        <ele>82.810000000000002</ele>
        <time>2018-07-01T05:16:37Z</time>
      </trkpt>
      <trkpt lat="50.368962027132511" lon="7.560425028204918">
        <ele>83.290000000000006</ele>
        <time>2018-07-01T05:16:38Z</time>
      </trkpt>
      <trkpt lat="50.369040984660387" lon="7.558763986453414">
        <ele>86.659999999999997</ele>
        <time>2018-07-01T05:16:49Z</time>
      </trkpt>
      <trkpt lat="50.368930008262396" lon="7.556835981085897">
        <ele>88.579999999999998</ele>
        <time>2018-07-01T05:17:01Z</time>
      </trkpt>
      <trkpt lat="50.368903018534184" lon="7.556174984201789">
        <ele>88.579999999999998</ele>
        <time>2018-07-01T05:17:05Z</time>
      </trkpt>
      <trkpt lat="50.368922967463732" lon="7.556021008640528">
        <ele>88.579999999999998</ele>
        <time>2018-07-01T05:17:06Z</time>
      </trkpt>
      <trkpt lat="50.369133017957211" lon="7.55437103100121">
        <ele>90.5</ele>
        <time>2018-07-01T05:17:16Z</time>
      </trkpt>
      <trkpt lat="50.369356982409954" lon="7.552328025922179">
        <ele>91.459999999999994</ele>
        <time>2018-07-01T05:17:26Z</time>
      </trkpt>
      <trkpt lat="50.369634004309773" lon="7.549660988152027">
        <ele>95.790000000000006</ele>
        <time>2018-07-01T05:17:37Z</time>
      </trkpt>
      <trkpt lat="50.36975503899157" lon="7.548561030998826">
        <ele>96.75</ele>
        <time>2018-07-01T05:17:43Z</time>
      </trkpt>
      <trkpt lat="50.369761995971203" lon="7.548508979380131">
        <ele>97.230000000000004</ele>
        <time>2018-07-01T05:17:44Z</time>
      </trkpt>
      <trkpt lat="50.369827039539814" lon="7.548233969137073">
        <ele>97.230000000000004</ele>
        <time>2018-07-01T05:17:45Z</time>
      </trkpt>
      <trkpt lat="50.369812035933137" lon="7.547858962789178">
        <ele>97.709999999999994</ele>
        <time>2018-07-01T05:17:47Z</time>
      </trkpt>
      <trkpt lat="50.369968023151159" lon="7.546162968501449">
        <ele>103</ele>
        <time>2018-07-01T05:17:54Z</time>
      </trkpt>
      <trkpt lat="50.370020996779203" lon="7.543123019859195">
        <ele>115.01000000000001</ele>
        <time>2018-07-01T05:18:04Z</time>
      </trkpt>
      <trkpt lat="50.370330959558487" lon="7.540666032582521">
        <ele>120.78</ele>
        <time>2018-07-01T05:18:13Z</time>
      </trkpt>
      <trkpt lat="50.370397008955479" lon="7.540396973490715">
        <ele>121.26000000000001</ele>
        <time>2018-07-01T05:18:14Z</time>
      </trkpt>
      <trkpt lat="50.370675958693027" lon="7.539315037429333">
        <ele>123.67</ele>
        <time>2018-07-01T05:18:18Z</time>
      </trkpt>
      <trkpt lat="50.370708983391523" lon="7.539033992215991">
        <ele>124.15000000000001</ele>
        <time>2018-07-01T05:18:19Z</time>
      </trkpt>
      <trkpt lat="50.370727004483342" lon="7.538767028599978">
        <ele>124.15000000000001</ele>
        <time>2018-07-01T05:18:20Z</time>
      </trkpt>
      <trkpt lat="50.370727004483342" lon="7.538504004478455">
        <ele>124.63</ele>
        <time>2018-07-01T05:18:21Z</time>
      </trkpt>
      <trkpt lat="50.370727004483342" lon="7.538231005892158">
        <ele>124.63</ele>
        <time>2018-07-01T05:18:22Z</time>
      </trkpt>
      <trkpt lat="50.3707430139184" lon="7.537166001275182">
        <ele>124.63</ele>
        <time>2018-07-01T05:18:26Z</time>
      </trkpt>
      <trkpt lat="50.370793975889683" lon="7.536910017952323">
        <ele>124.15000000000001</ele>
        <time>2018-07-01T05:18:27Z</time>
      </trkpt>
      <trkpt lat="50.370856001973152" lon="7.53666996024549">
        <ele>124.15000000000001</ele>
        <time>2018-07-01T05:18:28Z</time>
      </trkpt>
      <trkpt lat="50.37095901556313" lon="7.536493018269539">
        <ele>123.67</ele>
        <time>2018-07-01T05:18:29Z</time>
      </trkpt>
      <trkpt lat="50.371059011667967" lon="7.53632303327322">
        <ele>123.67</ele>
        <time>2018-07-01T05:18:30Z</time>
      </trkpt>
      <trkpt lat="50.371161019429564" lon="7.536161011084914">
        <ele>122.70999999999999</ele>
        <time>2018-07-01T05:18:31Z</time>
      </trkpt>
      <trkpt lat="50.371811036020517" lon="7.535130036994815">
        <ele>118.86</ele>
        <time>2018-07-01T05:18:38Z</time>
      </trkpt>
      <trkpt lat="50.371877001598477" lon="7.534987963736057">
        <ele>118.38</ele>
        <time>2018-07-01T05:18:39Z</time>
      </trkpt>
      <trkpt lat="50.372120998799801" lon="7.534064026549459">
        <ele>116.94</ele>
        <time>2018-07-01T05:18:45Z</time>
      </trkpt>
      <trkpt lat="50.37216198630631" lon="7.533908039331436">
        <ele>116.45999999999999</ele>
        <time>2018-07-01T05:18:46Z</time>
      </trkpt>
      <trkpt lat="50.372203979641199" lon="7.53374601714313">
        <ele>116.45999999999999</ele>
        <time>2018-07-01T05:18:47Z</time>
      </trkpt>
      <trkpt lat="50.372686022892594" lon="7.531831003725529">
        <ele>114.53</ele>
        <time>2018-07-01T05:18:59Z</time>
      </trkpt>
      <trkpt lat="50.372900012880564" lon="7.530959034338594">
        <ele>114.53</ele>
        <time>2018-07-01T05:19:05Z</time>
      </trkpt>
      <trkpt lat="50.37291300483048" lon="7.530804974958301">
        <ele>115.01000000000001</ele>
        <time>2018-07-01T05:19:06Z</time>
      </trkpt>
      <trkpt lat="50.372904958203435" lon="7.53065200522542">
        <ele>115.01000000000001</ele>
        <time>2018-07-01T05:19:07Z</time>
      </trkpt>
      <trkpt lat="50.372896995395422" lon="7.530498029664159">
        <ele>115.5</ele>
        <time>2018-07-01T05:19:08Z</time>
      </trkpt>
      <trkpt lat="50.372881991788745" lon="7.530345981940627">
        <ele>115.5</ele>
        <time>2018-07-01T05:19:09Z</time>
      </trkpt>
      <trkpt lat="50.372862964868546" lon="7.530193012207747">
        <ele>115.98</ele>
        <time>2018-07-01T05:19:10Z</time>
      </trkpt>
      <trkpt lat="50.372689962387085" lon="7.528817960992456">
        <ele>116.94</ele>
        <time>2018-07-01T05:19:19Z</time>
      </trkpt>
      <trkpt lat="50.37242098711431" lon="7.527082990854979">
        <ele>123.67</ele>
        <time>2018-07-01T05:19:32Z</time>
      </trkpt>
      <trkpt lat="50.372180007398129" lon="7.525443993508816">
        <ele>128.47</ele>
        <time>2018-07-01T05:19:43Z</time>
      </trkpt>
      <trkpt lat="50.371875995770097" lon="7.523525040596724">
        <ele>133.75999999999999</ele>
        <time>2018-07-01T05:19:55Z</time>
      </trkpt>
      <trkpt lat="50.371782034635544" lon="7.52324097789824">
        <ele>134.72</ele>
        <time>2018-07-01T05:19:57Z</time>
      </trkpt>
      <trkpt lat="50.371734006330371" lon="7.523096976801753">
        <ele>134.72</ele>
        <time>2018-07-01T05:19:58Z</time>
      </trkpt>
      <trkpt lat="50.371685978025198" lon="7.522951969876885">
        <ele>135.19999999999999</ele>
        <time>2018-07-01T05:19:59Z</time>
      </trkpt>
      <trkpt lat="50.371627975255251" lon="7.522780979052186">
        <ele>135.19999999999999</ele>
        <time>2018-07-01T05:20:00Z</time>
      </trkpt>
      <trkpt lat="50.371564021334052" lon="7.522694980725646">
        <ele>135.19999999999999</ele>
        <time>2018-07-01T05:20:01Z</time>
      </trkpt>
      <trkpt lat="50.371484979987144" lon="7.522589033469558">
        <ele>135.19999999999999</ele>
        <time>2018-07-01T05:20:02Z</time>
      </trkpt>
      <trkpt lat="50.371164036914706" lon="7.522161975502968">
        <ele>134.24000000000001</ele>
        <time>2018-07-01T05:20:06Z</time>
      </trkpt>
      <trkpt lat="50.370824988931417" lon="7.521569961681962">
        <ele>131.84</ele>
        <time>2018-07-01T05:20:11Z</time>
      </trkpt>
      <trkpt lat="50.370719041675329" lon="7.521213982254267">
        <ele>131.36000000000001</ele>
        <time>2018-07-01T05:20:14Z</time>
      </trkpt>
      <trkpt lat="50.370538998395205" lon="7.520379982888699">
        <ele>131.84</ele>
        <time>2018-07-01T05:20:20Z</time>
      </trkpt>
      <trkpt lat="50.370515026152134" lon="7.520231958478689">
        <ele>132.31999999999999</ele>
        <time>2018-07-01T05:20:21Z</time>
      </trkpt>
      <trkpt lat="50.370307993143797" lon="7.518923962488771">
        <ele>134.24000000000001</ele>
        <time>2018-07-01T05:20:31Z</time>
      </trkpt>
      <trkpt lat="50.370043963193893" lon="7.517599035054445">
        <ele>134.72</ele>
        <time>2018-07-01T05:20:41Z</time>
      </trkpt>
      <trkpt lat="50.370019990950823" lon="7.517448998987675">
        <ele>135.19999999999999</ele>
        <time>2018-07-01T05:20:42Z</time>
      </trkpt>
      <trkpt lat="50.370025020092726" lon="7.517298962920904">
        <ele>135.19999999999999</ele>
        <time>2018-07-01T05:20:43Z</time>
      </trkpt>
      <trkpt lat="50.370030971243978" lon="7.517148004844785">
        <ele>135.68000000000001</ele>
        <time>2018-07-01T05:20:44Z</time>
      </trkpt>
      <trkpt lat="50.37003600038588" lon="7.516996962949634">
        <ele>136.16</ele>
        <time>2018-07-01T05:20:45Z</time>
      </trkpt>
      <trkpt lat="50.370045974850655" lon="7.516695968806744">
        <ele>136.63999999999999</ele>
        <time>2018-07-01T05:20:47Z</time>
      </trkpt>
      <trkpt lat="50.37005603313446" lon="7.516395980492234">
        <ele>138.09</ele>
        <time>2018-07-01T05:20:49Z</time>
      </trkpt>
      <trkpt lat="50.370061984285712" lon="7.516246028244495">
        <ele>138.56999999999999</ele>
        <time>2018-07-01T05:20:50Z</time>
      </trkpt>
      <trkpt lat="50.370053015649319" lon="7.516088029369712">
        <ele>138.56999999999999</ele>
        <time>2018-07-01T05:20:51Z</time>
      </trkpt>
      <trkpt lat="50.370008004829288" lon="7.515315972268581">
        <ele>141.44999999999999</ele>
        <time>2018-07-01T05:20:56Z</time>
      </trkpt>
      <trkpt lat="50.369999036192894" lon="7.51516199670732">
        <ele>141.93000000000001</ele>
        <time>2018-07-01T05:20:57Z</time>
      </trkpt>
      <trkpt lat="50.370045974850655" lon="7.513349996879697">
        <ele>151.53999999999999</ele>
        <time>2018-07-01T05:21:09Z</time>
      </trkpt>
      <trkpt lat="50.37001496180892" lon="7.511721979826689">
        <ele>158.75</ele>
        <time>2018-07-01T05:21:21Z</time>
      </trkpt>
      <trkpt lat="50.369687983766198" lon="7.510182978585362">
        <ele>164.03999999999999</ele>
        <time>2018-07-01T05:21:32Z</time>
      </trkpt>
      <trkpt lat="50.369212981313467" lon="7.509034993126988">
        <ele>166.93000000000001</ele>
        <time>2018-07-01T05:21:37Z</time>
      </trkpt>
      <trkpt lat="50.368088968098164" lon="7.506693005561829">
        <ele>171.72999999999999</ele>
        <time>2018-07-01T05:21:45Z</time>
      </trkpt>
      <trkpt lat="50.366695979610085" lon="7.5035809725523">
        <ele>173.16999999999999</ele>
        <time>2018-07-01T05:21:55Z</time>
      </trkpt>
      <trkpt lat="50.365184973925352" lon="7.499387003481388">
        <ele>177.02000000000001</ele>
        <time>2018-07-01T05:22:08Z</time>
      </trkpt>
      <trkpt lat="50.363743035122752" lon="7.49513603746891">
        <ele>183.75</ele>
        <time>2018-07-01T05:22:22Z</time>
      </trkpt>
      <trkpt lat="50.363345984369516" lon="7.492493977770209">
        <ele>188.56</ele>
        <time>2018-07-01T05:22:30Z</time>
      </trkpt>
      <trkpt lat="50.363491997122765" lon="7.490491038188338">
        <ele>191.44</ele>
        <time>2018-07-01T05:22:36Z</time>
      </trkpt>
      <trkpt lat="50.363778993487358" lon="7.487541027367115">
        <ele>197.21000000000001</ele>
        <time>2018-07-01T05:22:45Z</time>
      </trkpt>
      <trkpt lat="50.363450003787875" lon="7.485655015334487">
        <ele>200.09</ele>
        <time>2018-07-01T05:22:51Z</time>
      </trkpt>
      <trkpt lat="50.36245197057724" lon="7.483002981171012">
        <ele>204.41999999999999</ele>
        <time>2018-07-01T05:23:00Z</time>
      </trkpt>
      <trkpt lat="50.361353019252419" lon="7.480207029730082">
        <ele>207.78</ele>
        <time>2018-07-01T05:23:10Z</time>
      </trkpt>
      <trkpt lat="50.360479960218072" lon="7.477537980303168">
        <ele>210.66999999999999</ele>
        <time>2018-07-01T05:23:20Z</time>
      </trkpt>
      <trkpt lat="50.360356997698545" lon="7.475699996575713">
        <ele>211.15000000000001</ele>
        <time>2018-07-01T05:23:27Z</time>
      </trkpt>
      <trkpt lat="50.360233029350638" lon="7.474128976464272">
        <ele>208.25999999999999</ele>
        <time>2018-07-01T05:23:33Z</time>
      </trkpt>
      <trkpt lat="50.360153988003731" lon="7.473881961777806">
        <ele>207.30000000000001</ele>
        <time>2018-07-01T05:23:34Z</time>
      </trkpt>
      <trkpt lat="50.359502965584397" lon="7.472180016338825">
        <ele>200.56999999999999</ele>
        <time>2018-07-01T05:23:42Z</time>
      </trkpt>
      <trkpt lat="50.359151009470224" lon="7.471289020031691">
        <ele>196.72999999999999</ele>
        <time>2018-07-01T05:23:47Z</time>
      </trkpt>
      <trkpt lat="50.359116978943348" lon="7.471100008115172">
        <ele>195.77000000000001</ele>
        <time>2018-07-01T05:23:48Z</time>
      </trkpt>
      <trkpt lat="50.359084038063884" lon="7.470914013683796">
        <ele>194.80000000000001</ele>
        <time>2018-07-01T05:23:49Z</time>
      </trkpt>
      <trkpt lat="50.359058976173401" lon="7.470715027302504">
        <ele>193.84</ele>
        <time>2018-07-01T05:23:50Z</time>
      </trkpt>
      <trkpt lat="50.359084038063884" lon="7.47053699567914">
        <ele>193.36000000000001</ele>
        <time>2018-07-01T05:23:51Z</time>
      </trkpt>
      <trkpt lat="50.359109016135335" lon="7.47036399319768">
        <ele>192.88</ele>
        <time>2018-07-01T05:23:52Z</time>
      </trkpt>
      <trkpt lat="50.359132988378406" lon="7.470197025686503">
        <ele>191.91999999999999</ele>
        <time>2018-07-01T05:23:53Z</time>
      </trkpt>
      <trkpt lat="50.359301967546344" lon="7.469012998044491">
        <ele>188.56</ele>
        <time>2018-07-01T05:24:01Z</time>
      </trkpt>
      <trkpt lat="50.359322000294924" lon="7.468871008604765">
        <ele>188.56</ele>
        <time>2018-07-01T05:24:02Z</time>
      </trkpt>
      <trkpt lat="50.359327029436827" lon="7.468726001679897">
        <ele>188.08000000000001</ele>
        <time>2018-07-01T05:24:03Z</time>
      </trkpt>
      <trkpt lat="50.35931202583015" lon="7.468574959784746">
        <ele>187.59</ele>
        <time>2018-07-01T05:24:04Z</time>
      </trkpt>
      <trkpt lat="50.359297022223473" lon="7.468418972566724">
        <ele>187.11000000000001</ele>
        <time>2018-07-01T05:24:05Z</time>
      </trkpt>
      <trkpt lat="50.358898965641856" lon="7.466806964948773">
        <ele>181.34999999999999</ele>
        <time>2018-07-01T05:24:15Z</time>
      </trkpt>
      <trkpt lat="50.358817996457219" lon="7.466675033792853">
        <ele>180.87</ele>
        <time>2018-07-01T05:24:16Z</time>
      </trkpt>
      <trkpt lat="50.358736021444201" lon="7.466544024646282">
        <ele>180.38</ele>
        <time>2018-07-01T05:24:17Z</time>
      </trkpt>
      <trkpt lat="50.358652034774423" lon="7.466417038813233">
        <ele>180.38</ele>
        <time>2018-07-01T05:24:18Z</time>
      </trkpt>
      <trkpt lat="50.358143001794815" lon="7.46587498113513">
        <ele>178.46000000000001</ele>
        <time>2018-07-01T05:24:24Z</time>
      </trkpt>
      <trkpt lat="50.358053985983133" lon="7.465781020000577">
        <ele>177.5</ele>
        <time>2018-07-01T05:24:25Z</time>
      </trkpt>
      <trkpt lat="50.357968993484974" lon="7.465682029724121">
        <ele>176.53999999999999</ele>
        <time>2018-07-01T05:24:26Z</time>
      </trkpt>
      <trkpt lat="50.35789699293673" lon="7.465559989213944">
        <ele>175.58000000000001</ele>
        <time>2018-07-01T05:24:27Z</time>
      </trkpt>
      <trkpt lat="50.357829015702009" lon="7.465437026694417">
        <ele>175.09999999999999</ele>
        <time>2018-07-01T05:24:28Z</time>
      </trkpt>
      <trkpt lat="50.357794985175133" lon="7.465285984799266">
        <ele>174.13999999999999</ele>
        <time>2018-07-01T05:24:29Z</time>
      </trkpt>
      <trkpt lat="50.357772018760443" lon="7.465133015066385">
        <ele>173.16999999999999</ele>
        <time>2018-07-01T05:24:30Z</time>
      </trkpt>
      <trkpt lat="50.357750980183482" lon="7.464975016191602">
        <ele>172.21000000000001</ele>
        <time>2018-07-01T05:24:31Z</time>
      </trkpt>
      <trkpt lat="50.357752991840243" lon="7.464810982346535">
        <ele>171.25</ele>
        <time>2018-07-01T05:24:32Z</time>
      </trkpt>
      <trkpt lat="50.357819963246584" lon="7.463707001879811">
        <ele>168.37</ele>
        <time>2018-07-01T05:24:39Z</time>
      </trkpt>
      <trkpt lat="50.35783002153039" lon="7.463537016883493">
        <ele>167.88999999999999</ele>
        <time>2018-07-01T05:24:40Z</time>
      </trkpt>
      <trkpt lat="50.357841001823545" lon="7.463367031887174">
        <ele>167.41</ele>
        <time>2018-07-01T05:24:41Z</time>
      </trkpt>
      <trkpt lat="50.357850976288319" lon="7.463199980556965">
        <ele>166.93000000000001</ele>
        <time>2018-07-01T05:24:42Z</time>
      </trkpt>
      <trkpt lat="50.357876038178802" lon="7.463041981682181">
        <ele>166.44999999999999</ele>
        <time>2018-07-01T05:24:43Z</time>
      </trkpt>
      <trkpt lat="50.35791601985693" lon="7.462894041091204">
        <ele>165.96000000000001</ele>
        <time>2018-07-01T05:24:44Z</time>
      </trkpt>
      <trkpt lat="50.357980979606509" lon="7.462764037773013">
        <ele>165</ele>
        <time>2018-07-01T05:24:45Z</time>
      </trkpt>
      <trkpt lat="50.358084999024868" lon="7.462678961455822">
        <ele>164.52000000000001</ele>
        <time>2018-07-01T05:24:46Z</time>
      </trkpt>
      <trkpt lat="50.358183989301324" lon="7.462597992271185">
        <ele>164.03999999999999</ele>
        <time>2018-07-01T05:24:47Z</time>
      </trkpt>
      <trkpt lat="50.358284991234541" lon="7.462532026693225">
        <ele>163.56</ele>
        <time>2018-07-01T05:24:48Z</time>
      </trkpt>
      <trkpt lat="50.3583890106529" lon="7.462473018094897">
        <ele>163.56</ele>
        <time>2018-07-01T05:24:49Z</time>
      </trkpt>
      <trkpt lat="50.35851800814271" lon="7.462399005889893">
        <ele>163.56</ele>
        <time>2018-07-01T05:24:50Z</time>
      </trkpt>
      <trkpt lat="50.358708025887609" lon="7.462360030040145">
        <ele>163.56</ele>
        <time>2018-07-01T05:24:52Z</time>
      </trkpt>
      <trkpt lat="50.359000973403454" lon="7.462299009785056">
        <ele>164.03999999999999</ele>
        <time>2018-07-01T05:24:55Z</time>
      </trkpt>
      <trkpt lat="50.359073979780078" lon="7.462258022278547">
        <ele>164.03999999999999</ele>
        <time>2018-07-01T05:24:56Z</time>
      </trkpt>
      <trkpt lat="50.359152015298605" lon="7.462195996195078">
        <ele>164.03999999999999</ele>
        <time>2018-07-01T05:24:57Z</time>
      </trkpt>
      <trkpt lat="50.359246982261539" lon="7.462119972333312">
        <ele>164.03999999999999</ele>
        <time>2018-07-01T05:24:58Z</time>
      </trkpt>
      <trkpt lat="50.359318982809782" lon="7.462034979835153">
        <ele>164.03999999999999</ele>
        <time>2018-07-01T05:24:59Z</time>
      </trkpt>
      <trkpt lat="50.359401041641831" lon="7.461938001215458">
        <ele>164.03999999999999</ele>
        <time>2018-07-01T05:25:00Z</time>
      </trkpt>
      <trkpt lat="50.360255995765328" lon="7.460833014920354">
        <ele>167.88999999999999</ele>
        <time>2018-07-01T05:25:10Z</time>
      </trkpt>
      <trkpt lat="50.360499992966652" lon="7.460535038262606">
        <ele>169.33000000000001</ele>
        <time>2018-07-01T05:25:13Z</time>
      </trkpt>
      <trkpt lat="50.360590014606714" lon="7.460424983873963">
        <ele>169.81</ele>
        <time>2018-07-01T05:25:14Z</time>
      </trkpt>
      <trkpt lat="50.360676012933254" lon="7.460321970283985">
        <ele>170.28999999999999</ele>
        <time>2018-07-01T05:25:15Z</time>
      </trkpt>
      <trkpt lat="50.36075396463275" lon="7.460221974179149">
        <ele>171.25</ele>
        <time>2018-07-01T05:25:16Z</time>
      </trkpt>
      <trkpt lat="50.360826971009374" lon="7.460087025538087">
        <ele>171.25</ele>
        <time>2018-07-01T05:25:17Z</time>
      </trkpt>
      <trkpt lat="50.360899977385998" lon="7.459952998906374">
        <ele>172.21000000000001</ele>
        <time>2018-07-01T05:25:18Z</time>
      </trkpt>
      <trkpt lat="50.360960997641087" lon="7.459813021123409">
        <ele>172.21000000000001</ele>
        <time>2018-07-01T05:25:19Z</time>
      </trkpt>
      <trkpt lat="50.361508000642061" lon="7.458551041781902">
        <ele>179.90000000000001</ele>
        <time>2018-07-01T05:25:28Z</time>
      </trkpt>
      <trkpt lat="50.361586958169937" lon="7.458410980179906">
        <ele>180.87</ele>
        <time>2018-07-01T05:25:29Z</time>
      </trkpt>
      <trkpt lat="50.361856017261744" lon="7.457932038232684">
        <ele>184.22999999999999</ele>
        <time>2018-07-01T05:25:32Z</time>
      </trkpt>
      <trkpt lat="50.361944027245045" lon="7.457774039357901">
        <ele>185.66999999999999</ele>
        <time>2018-07-01T05:25:33Z</time>
      </trkpt>
      <trkpt lat="50.362029019743204" lon="7.45762299746275">
        <ele>187.59</ele>
        <time>2018-07-01T05:25:34Z</time>
      </trkpt>
      <trkpt lat="50.362587003037333" lon="7.455693986266851">
        <ele>204.41999999999999</ele>
        <time>2018-07-01T05:25:44Z</time>
      </trkpt>
      <trkpt lat="50.362878022715449" lon="7.453295001760125">
        <ele>216.91</ele>
        <time>2018-07-01T05:25:52Z</time>
      </trkpt>
      <trkpt lat="50.362747013568878" lon="7.450234014540911">
        <ele>226.53</ele>
        <time>2018-07-01T05:26:00Z</time>
      </trkpt>
      <trkpt lat="50.362161034718156" lon="7.44722499512136">
        <ele>230.84999999999999</ele>
        <time>2018-07-01T05:26:07Z</time>
      </trkpt>
      <trkpt lat="50.36129099316895" lon="7.445302018895745">
        <ele>233.25999999999999</ele>
        <time>2018-07-01T05:26:12Z</time>
      </trkpt>
      <trkpt lat="50.361070968210697" lon="7.444997001439333">
        <ele>233.74000000000001</ele>
        <time>2018-07-01T05:26:13Z</time>
      </trkpt>
      <trkpt lat="50.360805010423064" lon="7.444743029773235">
        <ele>234.22</ele>
        <time>2018-07-01T05:26:14Z</time>
      </trkpt>
      <trkpt lat="50.360542992129922" lon="7.444510012865067">
        <ele>234.69999999999999</ele>
        <time>2018-07-01T05:26:15Z</time>
      </trkpt>
      <trkpt lat="50.360263958573341" lon="7.444331981241703">
        <ele>234.69999999999999</ele>
        <time>2018-07-01T05:26:16Z</time>
      </trkpt>
      <trkpt lat="50.359982997179031" lon="7.444165013730526">
        <ele>235.18000000000001</ele>
        <time>2018-07-01T05:26:17Z</time>
      </trkpt>
      <trkpt lat="50.359691977500916" lon="7.444024030119181">
        <ele>235.18000000000001</ele>
        <time>2018-07-01T05:26:18Z</time>
      </trkpt>
      <trkpt lat="50.35817401483655" lon="7.443108977749944">
        <ele>235.66</ele>
        <time>2018-07-01T05:26:24Z</time>
      </trkpt>
      <trkpt lat="50.357947032898664" lon="7.44282198138535">
        <ele>235.66</ele>
        <time>2018-07-01T05:26:25Z</time>
      </trkpt>
      <trkpt lat="50.357738994061947" lon="7.442559963092208">
        <ele>235.66</ele>
        <time>2018-07-01T05:26:26Z</time>
      </trkpt>
      <trkpt lat="50.357546964660287" lon="7.442269027233124">
        <ele>235.66</ele>
        <time>2018-07-01T05:26:27Z</time>
      </trkpt>
      <trkpt lat="50.357362981885672" lon="7.441969038918614">
        <ele>235.66</ele>
        <time>2018-07-01T05:26:28Z</time>
      </trkpt>
      <trkpt lat="50.357212023809552" lon="7.441613981500268">
        <ele>235.66</ele>
        <time>2018-07-01T05:26:29Z</time>
      </trkpt>
      <trkpt lat="50.357094006612897" lon="7.441238975152373">
        <ele>235.18000000000001</ele>
        <time>2018-07-01T05:26:30Z</time>
      </trkpt>
      <trkpt lat="50.356978001073003" lon="7.44086698628962">
        <ele>234.69999999999999</ele>
        <time>2018-07-01T05:26:31Z</time>
      </trkpt>
      <trkpt lat="50.356867024675012" lon="7.440490974113345">
        <ele>234.69999999999999</ele>
        <time>2018-07-01T05:26:32Z</time>
      </trkpt>
      <trkpt lat="50.356777003034949" lon="7.440102975815535">
        <ele>234.22</ele>
        <time>2018-07-01T05:26:33Z</time>
      </trkpt>
      <trkpt lat="50.355882989242673" lon="7.435740027576685">
        <ele>222.68000000000001</ele>
        <time>2018-07-01T05:26:44Z</time>
      </trkpt>
      <trkpt lat="50.355546958744526" lon="7.432900993153453">
        <ele>211.63</ele>
        <time>2018-07-01T05:26:51Z</time>
      </trkpt>
      <trkpt lat="50.355374962091446" lon="7.428609961643815">
        <ele>203.94</ele>
        <time>2018-07-01T05:27:02Z</time>
      </trkpt>
      <trkpt lat="50.355419972911477" lon="7.426903992891312">
        <ele>204.90000000000001</ele>
        <time>2018-07-01T05:27:08Z</time>
      </trkpt>
      <trkpt lat="50.355299022048712" lon="7.424412975087762">
        <ele>207.30000000000001</ele>
        <time>2018-07-01T05:27:18Z</time>
      </trkpt>
      <trkpt lat="50.355261974036694" lon="7.422176012769342">
        <ele>207.78</ele>
        <time>2018-07-01T05:27:25Z</time>
      </trkpt>
      <trkpt lat="50.355153009295464" lon="7.419854979962111">
        <ele>209.22</ele>
        <time>2018-07-01T05:27:33Z</time>
      </trkpt>
      <trkpt lat="50.354913035407662" lon="7.417411990463734">
        <ele>207.78</ele>
        <time>2018-07-01T05:27:40Z</time>
      </trkpt>
      <trkpt lat="50.35422395914793" lon="7.41160199046135">
        <ele>209.69999999999999</ele>
        <time>2018-07-01T05:27:55Z</time>
      </trkpt>
      <trkpt lat="50.353514011949301" lon="7.406241009011865">
        <ele>204.41999999999999</ele>
        <time>2018-07-01T05:28:08Z</time>
      </trkpt>
      <trkpt lat="50.352659979835153" lon="7.403134005144239">
        <ele>200.56999999999999</ele>
        <time>2018-07-01T05:28:16Z</time>
      </trkpt>
      <trkpt lat="50.35207299515605" lon="7.400597976520658">
        <ele>200.09</ele>
        <time>2018-07-01T05:28:24Z</time>
      </trkpt>
      <trkpt lat="50.351516017690301" lon="7.398159010335803">
        <ele>202.97999999999999</ele>
        <time>2018-07-01T05:28:34Z</time>
      </trkpt>
      <trkpt lat="50.350819984450936" lon="7.395534971728921">
        <ele>207.78</ele>
        <time>2018-07-01T05:28:46Z</time>
      </trkpt>
      <trkpt lat="50.350323021411896" lon="7.393626999109983">
        <ele>210.19</ele>
        <time>2018-07-01T05:28:56Z</time>
      </trkpt>
      <trkpt lat="50.349506959319115" lon="7.391425995156169">
        <ele>199.13</ele>
        <time>2018-07-01T05:29:10Z</time>
      </trkpt>
      <trkpt lat="50.349155003204942" lon="7.390219001099467">
        <ele>190.96000000000001</ele>
        <time>2018-07-01T05:29:19Z</time>
      </trkpt>
      <trkpt lat="50.349128013476729" lon="7.390080029144883">
        <ele>190.47999999999999</ele>
        <time>2018-07-01T05:29:20Z</time>
      </trkpt>
      <trkpt lat="50.349087025970221" lon="7.389973998069763">
        <ele>190</ele>
        <time>2018-07-01T05:29:21Z</time>
      </trkpt>
      <trkpt lat="50.349023994058371" lon="7.38987903110683">
        <ele>189.52000000000001</ele>
        <time>2018-07-01T05:29:22Z</time>
      </trkpt>
      <trkpt lat="50.348958028480411" lon="7.389810970053077">
        <ele>189.03999999999999</ele>
        <time>2018-07-01T05:29:23Z</time>
      </trkpt>
      <trkpt lat="50.348870018497109" lon="7.389762019738555">
        <ele>189.52000000000001</ele>
        <time>2018-07-01T05:29:24Z</time>
      </trkpt>
      <trkpt lat="50.348781002685428" lon="7.389711979776621">
        <ele>189.52000000000001</ele>
        <time>2018-07-01T05:29:25Z</time>
      </trkpt>
      <trkpt lat="50.348691986873746" lon="7.389662023633719">
        <ele>189.52000000000001</ele>
        <time>2018-07-01T05:29:26Z</time>
      </trkpt>
      <trkpt lat="50.348605988547206" lon="7.389613995328546">
        <ele>190</ele>
        <time>2018-07-01T05:29:27Z</time>
      </trkpt>
      <trkpt lat="50.348525019362569" lon="7.389567978680134">
        <ele>190.47999999999999</ele>
        <time>2018-07-01T05:29:28Z</time>
      </trkpt>
      <trkpt lat="50.348434997722507" lon="7.389422971755266">
        <ele>190.47999999999999</ele>
        <time>2018-07-01T05:29:29Z</time>
      </trkpt>
      <trkpt lat="50.348413959145546" lon="7.389307972043753">
        <ele>190.47999999999999</ele>
        <time>2018-07-01T05:29:30Z</time>
      </trkpt>
      <trkpt lat="50.348428040742874" lon="7.389169000089169">
        <ele>190</ele>
        <time>2018-07-01T05:29:31Z</time>
      </trkpt>
      <trkpt lat="50.348444972187281" lon="7.389046959578991">
        <ele>190</ele>
        <time>2018-07-01T05:29:32Z</time>
      </trkpt>
      <trkpt lat="50.348462993279099" lon="7.388915028423071">
        <ele>189.52000000000001</ele>
        <time>2018-07-01T05:29:33Z</time>
      </trkpt>
      <trkpt lat="50.348500041291118" lon="7.388485036790371">
        <ele>188.56</ele>
        <time>2018-07-01T05:29:36Z</time>
      </trkpt>
      <trkpt lat="50.348511021584272" lon="7.388341035693884">
        <ele>188.56</ele>
        <time>2018-07-01T05:29:37Z</time>
      </trkpt>
      <trkpt lat="50.348522001877427" lon="7.388197034597397">
        <ele>188.08000000000001</ele>
        <time>2018-07-01T05:29:38Z</time>
      </trkpt>
      <trkpt lat="50.348531976342201" lon="7.38805403932929">
        <ele>187.11000000000001</ele>
        <time>2018-07-01T05:29:39Z</time>
      </trkpt>
      <trkpt lat="50.348543040454388" lon="7.387918001040816">
        <ele>186.15000000000001</ele>
        <time>2018-07-01T05:29:40Z</time>
      </trkpt>
      <trkpt lat="50.348561983555555" lon="7.387777017429471">
        <ele>186.15000000000001</ele>
        <time>2018-07-01T05:29:41Z</time>
      </trkpt>
      <trkpt lat="50.348581010475755" lon="7.387631004676223">
        <ele>185.19</ele>
        <time>2018-07-01T05:29:42Z</time>
      </trkpt>
      <trkpt lat="50.348600037395954" lon="7.387487003579736">
        <ele>184.71000000000001</ele>
        <time>2018-07-01T05:29:43Z</time>
      </trkpt>
      <trkpt lat="50.348618980497122" lon="7.38734501414001">
        <ele>184.22999999999999</ele>
        <time>2018-07-01T05:29:44Z</time>
      </trkpt>
      <trkpt lat="50.348639013245702" lon="7.387208975851536">
        <ele>183.75</ele>
        <time>2018-07-01T05:29:45Z</time>
      </trkpt>
      <trkpt lat="50.348659968003631" lon="7.387070003896952">
        <ele>183.75</ele>
        <time>2018-07-01T05:29:46Z</time>
      </trkpt>
      <trkpt lat="50.348682012408972" lon="7.386929020285606">
        <ele>183.75</ele>
        <time>2018-07-01T05:29:47Z</time>
      </trkpt>
      <trkpt lat="50.348702967166901" lon="7.386784013360739">
        <ele>183.27000000000001</ele>
        <time>2018-07-01T05:29:48Z</time>
      </trkpt>
      <trkpt lat="50.348725011572242" lon="7.386642023921013">
        <ele>183.27000000000001</ele>
        <time>2018-07-01T05:29:49Z</time>
      </trkpt>
      <trkpt lat="50.3487219940871" lon="7.386483019217849">
        <ele>182.78999999999999</ele>
        <time>2018-07-01T05:29:50Z</time>
      </trkpt>
      <trkpt lat="50.348706990480423" lon="7.386342035606504">
        <ele>182.78999999999999</ele>
        <time>2018-07-01T05:29:51Z</time>
      </trkpt>
      <trkpt lat="50.348691986873746" lon="7.386197028681636">
        <ele>182.31</ele>
        <time>2018-07-01T05:29:52Z</time>
      </trkpt>
      <trkpt lat="50.348647981882095" lon="7.386065013706684">
        <ele>181.83000000000001</ele>
        <time>2018-07-01T05:29:53Z</time>
      </trkpt>
      <trkpt lat="50.348600037395954" lon="7.385934004560113">
        <ele>182.31</ele>
        <time>2018-07-01T05:29:54Z</time>
      </trkpt>
      <trkpt lat="50.348546979948878" lon="7.385797966271639">
        <ele>182.31</ele>
        <time>2018-07-01T05:29:55Z</time>
      </trkpt>
      <trkpt lat="50.348495012149215" lon="7.385665029287338">
        <ele>182.31</ele>
        <time>2018-07-01T05:29:56Z</time>
      </trkpt>
      <trkpt lat="50.3484439663589" lon="7.385537037625909">
        <ele>182.78999999999999</ele>
        <time>2018-07-01T05:29:57Z</time>
      </trkpt>
      <trkpt lat="50.348396021872759" lon="7.385406028479338">
        <ele>182.78999999999999</ele>
        <time>2018-07-01T05:29:58Z</time>
      </trkpt>
      <trkpt lat="50.348353022709489" lon="7.385275019332767">
        <ele>183.27000000000001</ele>
        <time>2018-07-01T05:29:59Z</time>
      </trkpt>
      <trkpt lat="50.348309017717838" lon="7.385139986872673">
        <ele>183.75</ele>
        <time>2018-07-01T05:30:00Z</time>
      </trkpt>
      <trkpt lat="50.348264006897807" lon="7.38500202074647">
        <ele>184.22999999999999</ele>
        <time>2018-07-01T05:30:01Z</time>
      </trkpt>
      <trkpt lat="50.348083963617682" lon="7.384450994431973">
        <ele>185.19</ele>
        <time>2018-07-01T05:30:05Z</time>
      </trkpt>
      <trkpt lat="50.348042976111174" lon="7.384313028305769">
        <ele>185.19</ele>
        <time>2018-07-01T05:30:06Z</time>
      </trkpt>
      <trkpt lat="50.347984973341227" lon="7.383861998096108">
        <ele>184.71000000000001</ele>
        <time>2018-07-01T05:30:09Z</time>
      </trkpt>
      <trkpt lat="50.347900986671448" lon="7.381958970800042">
        <ele>177.97999999999999</ele>
        <time>2018-07-01T05:30:21Z</time>
      </trkpt>
      <trkpt lat="50.347847007215023" lon="7.380849039182067">
        <ele>172.69</ele>
        <time>2018-07-01T05:30:28Z</time>
      </trkpt>
      <trkpt lat="50.347633017227054" lon="7.379932980984449">
        <ele>171.25</ele>
        <time>2018-07-01T05:30:34Z</time>
      </trkpt>
      <trkpt lat="50.347579959779978" lon="7.379787974059582">
        <ele>170.77000000000001</ele>
        <time>2018-07-01T05:30:35Z</time>
      </trkpt>
      <trkpt lat="50.347138987854123" lon="7.378556001931429">
        <ele>170.28999999999999</ele>
        <time>2018-07-01T05:30:43Z</time>
      </trkpt>
      <trkpt lat="50.347077967599034" lon="7.378361960873008">
        <ele>170.28999999999999</ele>
        <time>2018-07-01T05:30:44Z</time>
      </trkpt>
      <trkpt lat="50.347060030326247" lon="7.378155011683703">
        <ele>170.28999999999999</ele>
        <time>2018-07-01T05:30:45Z</time>
      </trkpt>
      <trkpt lat="50.347041003406048" lon="7.377936998382211">
        <ele>170.28999999999999</ele>
        <time>2018-07-01T05:30:46Z</time>
      </trkpt>
      <trkpt lat="50.34704796038568" lon="7.3777009639889">
        <ele>170.28999999999999</ele>
        <time>2018-07-01T05:30:47Z</time>
      </trkpt>
      <trkpt lat="50.347060030326247" lon="7.377455038949847">
        <ele>169.81</ele>
        <time>2018-07-01T05:30:48Z</time>
      </trkpt>
      <trkpt lat="50.347072016447783" lon="7.377193020656705">
        <ele>169.33000000000001</ele>
        <time>2018-07-01T05:30:49Z</time>
      </trkpt>
      <trkpt lat="50.347095988690853" lon="7.376918010413647">
        <ele>169.33000000000001</ele>
        <time>2018-07-01T05:30:50Z</time>
      </trkpt>
      <trkpt lat="50.347482981160283" lon="7.374456999823451">
        <ele>168.37</ele>
        <time>2018-07-01T05:30:58Z</time>
      </trkpt>
      <trkpt lat="50.348007017746568" lon="7.3716189712286">
        <ele>173.16999999999999</ele>
        <time>2018-07-01T05:31:07Z</time>
      </trkpt>
      <trkpt lat="50.348324021324515" lon="7.369809988886118">
        <ele>165.47999999999999</ele>
        <time>2018-07-01T05:31:14Z</time>
      </trkpt>
      <trkpt lat="50.348346987739205" lon="7.369679985567927">
        <ele>164.52000000000001</ele>
        <time>2018-07-01T05:31:15Z</time>
      </trkpt>
      <trkpt lat="50.348333995789289" lon="7.369496002793312">
        <ele>163.56</ele>
        <time>2018-07-01T05:31:16Z</time>
      </trkpt>
      <trkpt lat="50.34831496886909" lon="7.369368011131883">
        <ele>163.08000000000001</ele>
        <time>2018-07-01T05:31:17Z</time>
      </trkpt>
      <trkpt lat="50.348242968320847" lon="7.369284024462104">
        <ele>162.12</ele>
        <time>2018-07-01T05:31:18Z</time>
      </trkpt>
      <trkpt lat="50.348161999136209" lon="7.369229961186647">
        <ele>161.63999999999999</ele>
        <time>2018-07-01T05:31:19Z</time>
      </trkpt>
      <trkpt lat="50.348062003031373" lon="7.369252005591989">
        <ele>160.68000000000001</ele>
        <time>2018-07-01T05:31:20Z</time>
      </trkpt>
      <trkpt lat="50.347942980006337" lon="7.369304979220033">
        <ele>159.72</ele>
        <time>2018-07-01T05:31:21Z</time>
      </trkpt>
      <trkpt lat="50.347660006955266" lon="7.369425008073449">
        <ele>157.31</ele>
        <time>2018-07-01T05:31:23Z</time>
      </trkpt>
      <trkpt lat="50.347508965060115" lon="7.369439005851746">
        <ele>156.34999999999999</ele>
        <time>2018-07-01T05:31:24Z</time>
      </trkpt>
      <trkpt lat="50.347362030297518" lon="7.36940598115325">
        <ele>154.91</ele>
        <time>2018-07-01T05:31:25Z</time>
      </trkpt>
      <trkpt lat="50.347215011715889" lon="7.369336998090148">
        <ele>153.94999999999999</ele>
        <time>2018-07-01T05:31:26Z</time>
      </trkpt>
      <trkpt lat="50.347071010619402" lon="7.369270026683807">
        <ele>152.50999999999999</ele>
        <time>2018-07-01T05:31:27Z</time>
      </trkpt>
      <trkpt lat="50.346932960674167" lon="7.369205988943577">
        <ele>151.53999999999999</ele>
        <time>2018-07-01T05:31:28Z</time>
      </trkpt>
      <trkpt lat="50.346806980669498" lon="7.369109010323882">
        <ele>150.58000000000001</ele>
        <time>2018-07-01T05:31:29Z</time>
      </trkpt>
      <trkpt lat="50.346698015928268" lon="7.368944976478815">
        <ele>149.62</ele>
        <time>2018-07-01T05:31:30Z</time>
      </trkpt>
      <trkpt lat="50.346596008166671" lon="7.368740038946271">
        <ele>148.18000000000001</ele>
        <time>2018-07-01T05:31:31Z</time>
      </trkpt>
      <trkpt lat="50.346497017890215" lon="7.36852596513927">
        <ele>147.22</ele>
        <time>2018-07-01T05:31:32Z</time>
      </trkpt>
      <trkpt lat="50.346344970166683" lon="7.368194041773677">
        <ele>144.81999999999999</ele>
        <time>2018-07-01T05:31:34Z</time>
      </trkpt>
      <trkpt lat="50.346282022073865" lon="7.367995977401733">
        <ele>142.41</ele>
        <time>2018-07-01T05:31:36Z</time>
      </trkpt>
      <trkpt lat="50.346284033730626" lon="7.367905033752322">
        <ele>140.97</ele>
        <time>2018-07-01T05:31:37Z</time>
      </trkpt>
      <trkpt lat="50.346334995701909" lon="7.367861028760672">
        <ele>140.00999999999999</ele>
        <time>2018-07-01T05:31:38Z</time>
      </trkpt>
      <trkpt lat="50.346424011513591" lon="7.367797996848822">
        <ele>138.56999999999999</ele>
        <time>2018-07-01T05:31:39Z</time>
      </trkpt>
      <trkpt lat="50.346501041203737" lon="7.367850970476866">
        <ele>137.13</ele>
        <time>2018-07-01T05:31:40Z</time>
      </trkpt>
      <trkpt lat="50.34659500233829" lon="7.367915008217096">
        <ele>135.68000000000001</ele>
        <time>2018-07-01T05:31:41Z</time>
      </trkpt>
      <trkpt lat="50.346693992614746" lon="7.367982985451818">
        <ele>134.24000000000001</ele>
        <time>2018-07-01T05:31:42Z</time>
      </trkpt>
      <trkpt lat="50.346784014254808" lon="7.368027996271849">
        <ele>133.75999999999999</ele>
        <time>2018-07-01T05:31:43Z</time>
      </trkpt>
      <trkpt lat="50.346891973167658" lon="7.368006035685539">
        <ele>132.80000000000001</ele>
        <time>2018-07-01T05:31:44Z</time>
      </trkpt>
      <trkpt lat="50.347016025334597" lon="7.367900004610419">
        <ele>132.31999999999999</ele>
        <time>2018-07-01T05:31:45Z</time>
      </trkpt>
      <trkpt lat="50.347095988690853" lon="7.367773018777371">
        <ele>131.84</ele>
        <time>2018-07-01T05:31:46Z</time>
      </trkpt>
      <trkpt lat="50.347188021987677" lon="7.367627006024122">
        <ele>132.31999999999999</ele>
        <time>2018-07-01T05:31:47Z</time>
      </trkpt>
      <trkpt lat="50.347275026142597" lon="7.3674710188061">
        <ele>132.80000000000001</ele>
        <time>2018-07-01T05:31:48Z</time>
      </trkpt>
      <trkpt lat="50.347289023920894" lon="7.367287036031485">
        <ele>133.28</ele>
        <time>2018-07-01T05:31:49Z</time>
      </trkpt>
      <trkpt lat="50.347277037799358" lon="7.367081008851528">
        <ele>134.24000000000001</ele>
        <time>2018-07-01T05:31:50Z</time>
      </trkpt>
      <trkpt lat="50.34723898395896" lon="7.366852015256882">
        <ele>135.19999999999999</ele>
        <time>2018-07-01T05:31:51Z</time>
      </trkpt>
      <trkpt lat="50.347180981189013" lon="7.366609023883939">
        <ele>136.63999999999999</ele>
        <time>2018-07-01T05:31:52Z</time>
      </trkpt>
      <trkpt lat="50.346780996769667" lon="7.365035992115736">
        <ele>145.78</ele>
        <time>2018-07-01T05:31:59Z</time>
      </trkpt>
      <trkpt lat="50.346753001213074" lon="7.364903977140784">
        <ele>147.22</ele>
        <time>2018-07-01T05:32:00Z</time>
      </trkpt>
      <trkpt lat="50.346749983727932" lon="7.364783026278019">
        <ele>148.18000000000001</ele>
        <time>2018-07-01T05:32:01Z</time>
      </trkpt>
      <trkpt lat="50.346806980669498" lon="7.364707002416253">
        <ele>149.62</ele>
        <time>2018-07-01T05:32:02Z</time>
      </trkpt>
      <trkpt lat="50.346883004531264" lon="7.364661991596222">
        <ele>150.58000000000001</ele>
        <time>2018-07-01T05:32:03Z</time>
      </trkpt>
      <trkpt lat="50.346975959837437" lon="7.364676995202899">
        <ele>152.03</ele>
        <time>2018-07-01T05:32:04Z</time>
      </trkpt>
      <trkpt lat="50.347093977034092" lon="7.364696022123098">
        <ele>152.99000000000001</ele>
        <time>2018-07-01T05:32:05Z</time>
      </trkpt>
      <trkpt lat="50.347844995558262" lon="7.364773973822594">
        <ele>158.75</ele>
        <time>2018-07-01T05:32:10Z</time>
      </trkpt>
      <trkpt lat="50.34796804189682" lon="7.364696022123098">
        <ele>160.68000000000001</ele>
        <time>2018-07-01T05:32:11Z</time>
      </trkpt>
      <trkpt lat="50.348087986931205" lon="7.364570964127779">
        <ele>162.12</ele>
        <time>2018-07-01T05:32:12Z</time>
      </trkpt>
      <trkpt lat="50.348899019882083" lon="7.363427001982927">
        <ele>169.33000000000001</ele>
        <time>2018-07-01T05:32:18Z</time>
      </trkpt>
      <trkpt lat="50.349221974611282" lon="7.362901037558913">
        <ele>174.13999999999999</ele>
        <time>2018-07-01T05:32:21Z</time>
      </trkpt>
      <trkpt lat="50.34930101595819" lon="7.362698027864099">
        <ele>175.09999999999999</ele>
        <time>2018-07-01T05:32:22Z</time>
      </trkpt>
      <trkpt lat="50.349354995414615" lon="7.36248797737062">
        <ele>176.06</ele>
        <time>2018-07-01T05:32:23Z</time>
      </trkpt>
      <trkpt lat="50.349354995414615" lon="7.362271975725889">
        <ele>177.5</ele>
        <time>2018-07-01T05:32:24Z</time>
      </trkpt>
      <trkpt lat="50.349329011514783" lon="7.362082963809371">
        <ele>178.46000000000001</ele>
        <time>2018-07-01T05:32:25Z</time>
      </trkpt>
      <trkpt lat="50.349270002916455" lon="7.361891018226743">
        <ele>179.90000000000001</ele>
        <time>2018-07-01T05:32:26Z</time>
      </trkpt>
      <trkpt lat="50.349173024296761" lon="7.361706029623747">
        <ele>181.34999999999999</ele>
        <time>2018-07-01T05:32:27Z</time>
      </trkpt>
      <trkpt lat="50.348568018525839" lon="7.360583022236824">
        <ele>190</ele>
        <time>2018-07-01T05:32:32Z</time>
      </trkpt>
      <trkpt lat="50.348409013822675" lon="7.360347993671894">
        <ele>191.91999999999999</ele>
        <time>2018-07-01T05:32:33Z</time>
      </trkpt>
      <trkpt lat="50.347993019968271" lon="7.359653972089291">
        <ele>197.69</ele>
        <time>2018-07-01T05:32:36Z</time>
      </trkpt>
      <trkpt lat="50.34792797639966" lon="7.359433025121689">
        <ele>199.61000000000001</ele>
        <time>2018-07-01T05:32:37Z</time>
      </trkpt>
      <trkpt lat="50.347901992499828" lon="7.359196990728378">
        <ele>201.53</ele>
        <time>2018-07-01T05:32:38Z</time>
      </trkpt>
      <trkpt lat="50.347875002771616" lon="7.358936984091997">
        <ele>202.97999999999999</ele>
        <time>2018-07-01T05:32:39Z</time>
      </trkpt>
      <trkpt lat="50.347881037741899" lon="7.358647976070643">
        <ele>204.90000000000001</ele>
        <time>2018-07-01T05:32:40Z</time>
      </trkpt>
      <trkpt lat="50.347937028855085" lon="7.355885971337557">
        <ele>221.24000000000001</ele>
        <time>2018-07-01T05:32:48Z</time>
      </trkpt>
      <trkpt lat="50.347935017198324" lon="7.355211982503533">
        <ele>224.61000000000001</ele>
        <time>2018-07-01T05:32:50Z</time>
      </trkpt>
      <trkpt lat="50.347887994721532" lon="7.35488198697567">
        <ele>226.05000000000001</ele>
        <time>2018-07-01T05:32:51Z</time>
      </trkpt>
      <trkpt lat="50.347448028624058" lon="7.352076983079314">
        <ele>227.49000000000001</ele>
        <time>2018-07-01T05:32:59Z</time>
      </trkpt>
      <trkpt lat="50.346762975677848" lon="7.347828028723598">
        <ele>215.94999999999999</ele>
        <time>2018-07-01T05:33:13Z</time>
      </trkpt>
      <trkpt lat="50.346711007878184" lon="7.347516976296902">
        <ele>214.99000000000001</ele>
        <time>2018-07-01T05:33:14Z</time>
      </trkpt>
      <trkpt lat="50.346633978188038" lon="7.347208019345999">
        <ele>213.55000000000001</ele>
        <time>2018-07-01T05:33:15Z</time>
      </trkpt>
      <trkpt lat="50.345923025161028" lon="7.34478103928268">
        <ele>204.90000000000001</ele>
        <time>2018-07-01T05:33:22Z</time>
      </trkpt>
      <trkpt lat="50.344838993623853" lon="7.340960986912251">
        <ele>195.77000000000001</ele>
        <time>2018-07-01T05:33:31Z</time>
      </trkpt>
      <trkpt lat="50.343104023486376" lon="7.334595015272498">
        <ele>196.25</ele>
        <time>2018-07-01T05:33:46Z</time>
      </trkpt>
      <trkpt lat="50.341440970078111" lon="7.328084036707878">
        <ele>188.56</ele>
        <time>2018-07-01T05:34:01Z</time>
      </trkpt>
      <trkpt lat="50.339624024927616" lon="7.321034017950296">
        <ele>200.09</ele>
        <time>2018-07-01T05:34:18Z</time>
      </trkpt>
      <trkpt lat="50.337653020396829" lon="7.313451999798417">
        <ele>230.84999999999999</ele>
        <time>2018-07-01T05:34:37Z</time>
      </trkpt>
      <trkpt lat="50.336077976971865" lon="7.308112978935242">
        <ele>246.22999999999999</ele>
        <time>2018-07-01T05:34:51Z</time>
      </trkpt>
      <trkpt lat="50.335424020886421" lon="7.306398963555694">
        <ele>251.52000000000001</ele>
        <time>2018-07-01T05:34:57Z</time>
      </trkpt>
      <trkpt lat="50.334625979885459" lon="7.305048974230886">
        <ele>252.47999999999999</ele>
        <time>2018-07-01T05:35:04Z</time>
      </trkpt>
      <trkpt lat="50.33445599488914" lon="7.304603978991509">
        <ele>252.47999999999999</ele>
        <time>2018-07-01T05:35:07Z</time>
      </trkpt>
      <trkpt lat="50.33443202264607" lon="7.304484033957124">
        <ele>252.47999999999999</ele>
        <time>2018-07-01T05:35:08Z</time>
      </trkpt>
      <trkpt lat="50.334484996274114" lon="7.304298961535096">
        <ele>252.96000000000001</ele>
        <time>2018-07-01T05:35:09Z</time>
      </trkpt>
      <trkpt lat="50.334484996274114" lon="7.304237019270659">
        <ele>252.96000000000001</ele>
        <time>2018-07-01T05:35:10Z</time>
      </trkpt>
      <trkpt lat="50.33445498906076" lon="7.304121013730764">
        <ele>252.96000000000001</ele>
        <time>2018-07-01T05:35:11Z</time>
      </trkpt>
      <trkpt lat="50.334420958533883" lon="7.304040966555476">
        <ele>253.44</ele>
        <time>2018-07-01T05:35:12Z</time>
      </trkpt>
      <trkpt lat="50.334420958533883" lon="7.304040966555476">
        <ele>253.44</ele>
        <time>2018-07-01T05:35:13Z</time>
      </trkpt>
      <trkpt lat="50.33428299240768" lon="7.303810967132449">
        <ele>253.93000000000001</ele>
        <time>2018-07-01T05:35:15Z</time>
      </trkpt>
      <trkpt lat="50.334227001294494" lon="7.303387010470033">
        <ele>253.93000000000001</ele>
        <time>2018-07-01T05:35:16Z</time>
      </trkpt>
      <trkpt lat="50.334065984934568" lon="7.302166018635035">
        <ele>253.93000000000001</ele>
        <time>2018-07-01T05:35:20Z</time>
      </trkpt>
      <trkpt lat="50.333501966670156" lon="7.299777008593082">
        <ele>256.32999999999998</ele>
        <time>2018-07-01T05:35:26Z</time>
      </trkpt>
      <trkpt lat="50.332485996186733" lon="7.295462004840374">
        <ele>255.84999999999999</ele>
        <time>2018-07-01T05:35:36Z</time>
      </trkpt>
      <trkpt lat="50.331908985972404" lon="7.292545018717647">
        <ele>241.91</ele>
        <time>2018-07-01T05:35:43Z</time>
      </trkpt>
      <trkpt lat="50.33187797293067" lon="7.292129024863243">
        <ele>239.99000000000001</ele>
        <time>2018-07-01T05:35:44Z</time>
      </trkpt>
      <trkpt lat="50.331873027607799" lon="7.291702972725034">
        <ele>238.06</ele>
        <time>2018-07-01T05:35:45Z</time>
      </trkpt>
      <trkpt lat="50.33209296874702" lon="7.288596974685788">
        <ele>229.41</ele>
        <time>2018-07-01T05:35:52Z</time>
      </trkpt>
      <trkpt lat="50.332574006170034" lon="7.286184998229146">
        <ele>221.24000000000001</ele>
        <time>2018-07-01T05:35:58Z</time>
      </trkpt>
      <trkpt lat="50.332688000053167" lon="7.285416964441538">
        <ele>218.36000000000001</ele>
        <time>2018-07-01T05:36:00Z</time>
      </trkpt>
      <trkpt lat="50.332709960639477" lon="7.285005999729037">
        <ele>216.91</ele>
        <time>2018-07-01T05:36:01Z</time>
      </trkpt>
      <trkpt lat="50.332740973681211" lon="7.283019991591573">
        <ele>212.59</ele>
        <time>2018-07-01T05:36:06Z</time>
      </trkpt>
      <trkpt lat="50.332679031416774" lon="7.2826490085572">
        <ele>212.11000000000001</ele>
        <time>2018-07-01T05:36:07Z</time>
      </trkpt>
      <trkpt lat="50.332382982596755" lon="7.280699964612722">
        <ele>213.55000000000001</ele>
        <time>2018-07-01T05:36:12Z</time>
      </trkpt>
      <trkpt lat="50.332361022010446" lon="7.280309032648802">
        <ele>213.55000000000001</ele>
        <time>2018-07-01T05:36:13Z</time>
      </trkpt>
      <trkpt lat="50.332354987040162" lon="7.278768019750714">
        <ele>214.50999999999999</ele>
        <time>2018-07-01T05:36:18Z</time>
      </trkpt>
      <trkpt lat="50.332180978730321" lon="7.276303991675377">
        <ele>217.88</ele>
        <time>2018-07-01T05:36:29Z</time>
      </trkpt>
      <trkpt lat="50.331887025386095" lon="7.274641022086144">
        <ele>221.24000000000001</ele>
        <time>2018-07-01T05:36:38Z</time>
      </trkpt>
      <trkpt lat="50.331674041226506" lon="7.273406032472849">
        <ele>224.12</ele>
        <time>2018-07-01T05:36:46Z</time>
      </trkpt>
      <trkpt lat="50.331671023741364" lon="7.273249961435795">
        <ele>224.61000000000001</ele>
        <time>2018-07-01T05:36:47Z</time>
      </trkpt>
      <trkpt lat="50.331669012084603" lon="7.273094980046153">
        <ele>225.09</ele>
        <time>2018-07-01T05:36:48Z</time>
      </trkpt>
      <trkpt lat="50.331653002649546" lon="7.270985003560782">
        <ele>227.00999999999999</ele>
        <time>2018-07-01T05:37:01Z</time>
      </trkpt>
      <trkpt lat="50.331653002649546" lon="7.269118018448353">
        <ele>232.78</ele>
        <time>2018-07-01T05:37:11Z</time>
      </trkpt>
      <trkpt lat="50.331616038456559" lon="7.268238002434373">
        <ele>237.09999999999999</ele>
        <time>2018-07-01T05:37:16Z</time>
      </trkpt>
      <trkpt lat="50.331584019586444" lon="7.268086038529873">
        <ele>238.06</ele>
        <time>2018-07-01T05:37:17Z</time>
      </trkpt>
      <trkpt lat="50.331532973796129" lon="7.267933990806341">
        <ele>239.02000000000001</ele>
        <time>2018-07-01T05:37:18Z</time>
      </trkpt>
      <trkpt lat="50.331485029309988" lon="7.267772974446416">
        <ele>239.99000000000001</ele>
        <time>2018-07-01T05:37:19Z</time>
      </trkpt>
      <trkpt lat="50.331439012661576" lon="7.267615981400013">
        <ele>240.94999999999999</ele>
        <time>2018-07-01T05:37:20Z</time>
      </trkpt>
      <trkpt lat="50.331116979941726" lon="7.266938975080848">
        <ele>245.27000000000001</ele>
        <time>2018-07-01T05:37:25Z</time>
      </trkpt>
      <trkpt lat="50.330955041572452" lon="7.266716016456485">
        <ele>247.19999999999999</ele>
        <time>2018-07-01T05:37:27Z</time>
      </trkpt>
      <trkpt lat="50.330069996416569" lon="7.265377007424831">
        <ele>259.20999999999998</ele>
        <time>2018-07-01T05:37:37Z</time>
      </trkpt>
      <trkpt lat="50.329144969582558" lon="7.263297038152814">
        <ele>266.89999999999998</ele>
        <time>2018-07-01T05:37:48Z</time>
      </trkpt>
      <trkpt lat="50.328428987413645" lon="7.260935017839074">
        <ele>268.35000000000002</ele>
        <time>2018-07-01T05:37:59Z</time>
      </trkpt>
      <trkpt lat="50.328262019902468" lon="7.259339019656181">
        <ele>269.79000000000002</ele>
        <time>2018-07-01T05:38:06Z</time>
      </trkpt>
      <trkpt lat="50.328262019902468" lon="7.258968958631158">
        <ele>269.79000000000002</ele>
        <time>2018-07-01T05:38:08Z</time>
      </trkpt>
      <trkpt lat="50.328262019902468" lon="7.258809031918645">
        <ele>269.31</ele>
        <time>2018-07-01T05:38:09Z</time>
      </trkpt>
      <trkpt lat="50.328262019902468" lon="7.258695960044861">
        <ele>269.31</ele>
        <time>2018-07-01T05:38:10Z</time>
      </trkpt>
      <trkpt lat="50.328262019902468" lon="7.258608033880591">
        <ele>269.31</ele>
        <time>2018-07-01T05:38:11Z</time>
      </trkpt>
      <trkpt lat="50.3284399677068" lon="7.25839102640748">
        <ele>269.31</ele>
        <time>2018-07-01T05:38:12Z</time>
      </trkpt>
      <trkpt lat="50.328494030982256" lon="7.258388008922339">
        <ele>269.79000000000002</ele>
        <time>2018-07-01T05:38:13Z</time>
      </trkpt>
      <trkpt lat="50.328563014045358" lon="7.258383985608816">
        <ele>269.79000000000002</ele>
        <time>2018-07-01T05:38:14Z</time>
      </trkpt>
      <trkpt lat="50.328648006543517" lon="7.258379962295294">
        <ele>269.79000000000002</ele>
        <time>2018-07-01T05:38:15Z</time>
      </trkpt>
      <trkpt lat="50.328748002648354" lon="7.258393038064241">
        <ele>269.79000000000002</ele>
        <time>2018-07-01T05:38:16Z</time>
      </trkpt>
      <trkpt lat="50.328864008188248" lon="7.258408041670919">
        <ele>270.26999999999998</ele>
        <time>2018-07-01T05:38:17Z</time>
      </trkpt>
      <trkpt lat="50.328995017334819" lon="7.258448023349047">
        <ele>270.75</ele>
        <time>2018-07-01T05:38:18Z</time>
      </trkpt>
      <trkpt lat="50.329104987904429" lon="7.258566040545702">
        <ele>270.75</ele>
        <time>2018-07-01T05:38:19Z</time>
      </trkpt>
      <trkpt lat="50.329224010929465" lon="7.258693026378751">
        <ele>271.23000000000002</ele>
        <time>2018-07-01T05:38:20Z</time>
      </trkpt>
      <trkpt lat="50.329325012862682" lon="7.258866028860211">
        <ele>271.70999999999998</ele>
        <time>2018-07-01T05:38:21Z</time>
      </trkpt>
      <trkpt lat="50.329392990097404" lon="7.2590790130198">
        <ele>272.19</ele>
        <time>2018-07-01T05:38:22Z</time>
      </trkpt>
      <trkpt lat="50.329462978988886" lon="7.25931404158473">
        <ele>272.67000000000002</ele>
        <time>2018-07-01T05:38:23Z</time>
      </trkpt>
      <trkpt lat="50.329445041716099" lon="7.259526019915938">
        <ele>272.67000000000002</ele>
        <time>2018-07-01T05:38:24Z</time>
      </trkpt>
      <trkpt lat="50.329429032281041" lon="7.259721988812089">
        <ele>273.14999999999998</ele>
        <time>2018-07-01T05:38:25Z</time>
      </trkpt>
      <trkpt lat="50.329356025904417" lon="7.259912006556988">
        <ele>273.14999999999998</ele>
        <time>2018-07-01T05:38:26Z</time>
      </trkpt>
      <trkpt lat="50.329262986779213" lon="7.26004502736032">
        <ele>273.14999999999998</ele>
        <time>2018-07-01T05:38:27Z</time>
      </trkpt>
      <trkpt lat="50.329139018431306" lon="7.260122979059815">
        <ele>273.63</ele>
        <time>2018-07-01T05:38:28Z</time>
      </trkpt>
      <trkpt lat="50.329014966264367" lon="7.260162038728595">
        <ele>273.63</ele>
        <time>2018-07-01T05:38:29Z</time>
      </trkpt>
      <trkpt lat="50.328895021229982" lon="7.260148962959647">
        <ele>274.11000000000001</ele>
        <time>2018-07-01T05:38:30Z</time>
      </trkpt>
      <trkpt lat="50.328780021518469" lon="7.260077968239784">
        <ele>274.11000000000001</ele>
        <time>2018-07-01T05:38:31Z</time>
      </trkpt>
      <trkpt lat="50.328666027635336" lon="7.260004039853811">
        <ele>274.58999999999997</ele>
        <time>2018-07-01T05:38:32Z</time>
      </trkpt>
      <trkpt lat="50.328568965196609" lon="7.259859032928944">
        <ele>274.58999999999997</ele>
        <time>2018-07-01T05:38:33Z</time>
      </trkpt>
      <trkpt lat="50.328467041254044" lon="7.259705979377031">
        <ele>275.06999999999999</ele>
        <time>2018-07-01T05:38:34Z</time>
      </trkpt>
      <trkpt lat="50.328370984643698" lon="7.25948503240943">
        <ele>275.06999999999999</ele>
        <time>2018-07-01T05:38:35Z</time>
      </trkpt>
      <trkpt lat="50.327738989144564" lon="7.257257038727403">
        <ele>277.48000000000002</ele>
        <time>2018-07-01T05:38:43Z</time>
      </trkpt>
      <trkpt lat="50.327092995867133" lon="7.254130002111197">
        <ele>278.92000000000002</ele>
        <time>2018-07-01T05:38:52Z</time>
      </trkpt>
      <trkpt lat="50.326178027316928" lon="7.251334972679615">
        <ele>277</ele>
        <time>2018-07-01T05:39:00Z</time>
      </trkpt>
      <trkpt lat="50.324731981381774" lon="7.248873962089419">
        <ele>272.67000000000002</ele>
        <time>2018-07-01T05:39:08Z</time>
      </trkpt>
      <trkpt lat="50.322770029306412" lon="7.246412029489875">
        <ele>258.73000000000002</ele>
        <time>2018-07-01T05:39:17Z</time>
      </trkpt>
      <trkpt lat="50.321405036374927" lon="7.243998041376472">
        <ele>246.72</ele>
        <time>2018-07-01T05:39:25Z</time>
      </trkpt>
      <trkpt lat="50.319598987698555" lon="7.240485018119216">
        <ele>239.50999999999999</ele>
        <time>2018-07-01T05:39:37Z</time>
      </trkpt>
      <trkpt lat="50.318273976445198" lon="7.237957958132029">
        <ele>241.91</ele>
        <time>2018-07-01T05:39:46Z</time>
      </trkpt>
      <trkpt lat="50.316039025783539" lon="7.233567014336586">
        <ele>262.10000000000002</ele>
        <time>2018-07-01T05:39:59Z</time>
      </trkpt>
      <trkpt lat="50.313673987984657" lon="7.228726968169212">
        <ele>280.83999999999997</ele>
        <time>2018-07-01T05:40:12Z</time>
      </trkpt>
      <trkpt lat="50.311588989570737" lon="7.223748033866286">
        <ele>284.69</ele>
        <time>2018-07-01T05:40:24Z</time>
      </trkpt>
      <trkpt lat="50.309873968362808" lon="7.21832200884819">
        <ele>287.56999999999999</ele>
        <time>2018-07-01T05:40:36Z</time>
      </trkpt>
      <trkpt lat="50.308624980971217" lon="7.21376895904541">
        <ele>297.18000000000001</ele>
        <time>2018-07-01T05:40:46Z</time>
      </trkpt>
      <trkpt lat="50.308477962389588" lon="7.211429988965392">
        <ele>307.27999999999997</ele>
        <time>2018-07-01T05:40:51Z</time>
      </trkpt>
      <trkpt lat="50.308882975950837" lon="7.208744008094072">
        <ele>320.25999999999999</ele>
        <time>2018-07-01T05:40:57Z</time>
      </trkpt>
      <trkpt lat="50.309763997793198" lon="7.206411994993687">
        <ele>332.26999999999998</ele>
        <time>2018-07-01T05:41:03Z</time>
      </trkpt>
      <trkpt lat="50.311463009566069" lon="7.203170964494348">
        <ele>349.10000000000002</ele>
        <time>2018-07-01T05:41:12Z</time>
      </trkpt>
      <trkpt lat="50.312205981463194" lon="7.200543992221355">
        <ele>356.31</ele>
        <time>2018-07-01T05:41:18Z</time>
      </trkpt>
      <trkpt lat="50.31241200864315" lon="7.197637986391783">
        <ele>364</ele>
        <time>2018-07-01T05:41:24Z</time>
      </trkpt>
      <trkpt lat="50.312576964497566" lon="7.19324997626245">
        <ele>380.81999999999999</ele>
        <time>2018-07-01T05:41:33Z</time>
      </trkpt>
      <trkpt lat="50.313254976645112" lon="7.190588973462582">
        <ele>395.72000000000003</ele>
        <time>2018-07-01T05:41:39Z</time>
      </trkpt>
      <trkpt lat="50.313413981348276" lon="7.190209021791816">
        <ele>398.60000000000002</ele>
        <time>2018-07-01T05:41:40Z</time>
      </trkpt>
      <trkpt lat="50.313611039891839" lon="7.18989503569901">
        <ele>401.49000000000001</ele>
        <time>2018-07-01T05:41:41Z</time>
      </trkpt>
      <trkpt lat="50.313822012394667" lon="7.189608961343765">
        <ele>404.37</ele>
        <time>2018-07-01T05:41:42Z</time>
      </trkpt>
      <trkpt lat="50.31404497101903" lon="7.189334034919739">
        <ele>406.76999999999998</ele>
        <time>2018-07-01T05:41:43Z</time>
      </trkpt>
      <trkpt lat="50.31427999958396" lon="7.189090959727764">
        <ele>408.69999999999999</ele>
        <time>2018-07-01T05:41:44Z</time>
      </trkpt>
      <trkpt lat="50.314511004835367" lon="7.18888602219522">
        <ele>410.13999999999999</ele>
        <time>2018-07-01T05:41:45Z</time>
      </trkpt>
      <trkpt lat="50.315916985273361" lon="7.187672993168235">
        <ele>414.47000000000003</ele>
        <time>2018-07-01T05:41:52Z</time>
      </trkpt>
      <trkpt lat="50.317634018138051" lon="7.186347981914878">
        <ele>412.54000000000002</ele>
        <time>2018-07-01T05:42:00Z</time>
      </trkpt>
      <trkpt lat="50.319088026881218" lon="7.185484981164336">
        <ele>409.66000000000003</ele>
        <time>2018-07-01T05:42:08Z</time>
      </trkpt>
      <trkpt lat="50.320503981783986" lon="7.18471996486187">
        <ele>411.57999999999998</ele>
        <time>2018-07-01T05:42:17Z</time>
      </trkpt>
      <trkpt lat="50.320647982880473" lon="7.184724994003773">
        <ele>412.54000000000002</ele>
        <time>2018-07-01T05:42:18Z</time>
      </trkpt>
      <trkpt lat="50.320816962048411" lon="7.184736980125308">
        <ele>413.01999999999998</ele>
        <time>2018-07-01T05:42:19Z</time>
      </trkpt>
      <trkpt lat="50.320929028093815" lon="7.18482599593699">
        <ele>413.5</ele>
        <time>2018-07-01T05:42:20Z</time>
      </trkpt>
      <trkpt lat="50.321055008098483" lon="7.1849549934268">
        <ele>414.47000000000003</ele>
        <time>2018-07-01T05:42:21Z</time>
      </trkpt>
      <trkpt lat="50.321146035566926" lon="7.185134030878544">
        <ele>414.94999999999999</ele>
        <time>2018-07-01T05:42:22Z</time>
      </trkpt>
      <trkpt lat="50.321244020015001" lon="7.185323964804411">
        <ele>415.43000000000001</ele>
        <time>2018-07-01T05:42:23Z</time>
      </trkpt>
      <trkpt lat="50.32134703360498" lon="7.185525968670845">
        <ele>416.38999999999999</ele>
        <time>2018-07-01T05:42:24Z</time>
      </trkpt>
      <trkpt lat="50.321454992517829" lon="7.185737024992704">
        <ele>416.87</ele>
        <time>2018-07-01T05:42:25Z</time>
      </trkpt>
      <trkpt lat="50.321579966694117" lon="7.185918996110559">
        <ele>417.35000000000002</ele>
        <time>2018-07-01T05:42:26Z</time>
      </trkpt>
      <trkpt lat="50.32173503190279" lon="7.186096021905541">
        <ele>418.31</ele>
        <time>2018-07-01T05:42:27Z</time>
      </trkpt>
      <trkpt lat="50.32268101349473" lon="7.187045020982623">
        <ele>423.60000000000002</ele>
        <time>2018-07-01T05:42:33Z</time>
      </trkpt>
      <trkpt lat="50.322846975177526" lon="7.187133030965924">
        <ele>424.07999999999998</ele>
        <time>2018-07-01T05:42:34Z</time>
      </trkpt>
      <trkpt lat="50.323016038164496" lon="7.18718902207911">
        <ele>425.04000000000002</ele>
        <time>2018-07-01T05:42:35Z</time>
      </trkpt>
      <trkpt lat="50.323198009282351" lon="7.187204025685787">
        <ele>426</ele>
        <time>2018-07-01T05:42:36Z</time>
      </trkpt>
      <trkpt lat="50.323367994278669" lon="7.18710302375257">
        <ele>426.48000000000002</ele>
        <time>2018-07-01T05:42:37Z</time>
      </trkpt>
      <trkpt lat="50.323542002588511" lon="7.186980983242393">
        <ele>426.95999999999998</ele>
        <time>2018-07-01T05:42:38Z</time>
      </trkpt>
      <trkpt lat="50.323681980371475" lon="7.186785014346242">
        <ele>427.44</ele>
        <time>2018-07-01T05:42:39Z</time>
      </trkpt>
      <trkpt lat="50.323793962597847" lon="7.186532970517874">
        <ele>427.92000000000002</ele>
        <time>2018-07-01T05:42:40Z</time>
      </trkpt>
      <trkpt lat="50.323871998116374" lon="7.186257960274816">
        <ele>428.88999999999999</ele>
        <time>2018-07-01T05:42:41Z</time>
      </trkpt>
      <trkpt lat="50.323908962309361" lon="7.18596501275897">
        <ele>429.85000000000002</ele>
        <time>2018-07-01T05:42:42Z</time>
      </trkpt>
      <trkpt lat="50.323937041684985" lon="7.185655971989036">
        <ele>431.29000000000002</ele>
        <time>2018-07-01T05:42:43Z</time>
      </trkpt>
      <trkpt lat="50.323953973129392" lon="7.185348020866513">
        <ele>432.25</ele>
        <time>2018-07-01T05:42:44Z</time>
      </trkpt>
      <trkpt lat="50.323993032798171" lon="7.184790959581733">
        <ele>434.17000000000002</ele>
        <time>2018-07-01T05:42:46Z</time>
      </trkpt>
      <trkpt lat="50.3240139875561" lon="7.184544028714299">
        <ele>435.13</ele>
        <time>2018-07-01T05:42:47Z</time>
      </trkpt>
      <trkpt lat="50.324079031124711" lon="7.184347975999117">
        <ele>436.10000000000002</ele>
        <time>2018-07-01T05:42:48Z</time>
      </trkpt>
      <trkpt lat="50.32416402362287" lon="7.184183020144701">
        <ele>437.06</ele>
        <time>2018-07-01T05:42:49Z</time>
      </trkpt>
      <trkpt lat="50.324263013899326" lon="7.184023009613156">
        <ele>438.01999999999998</ele>
        <time>2018-07-01T05:42:50Z</time>
      </trkpt>
      <trkpt lat="50.324365021660924" lon="7.183857969939709">
        <ele>439.45999999999998</ele>
        <time>2018-07-01T05:42:51Z</time>
      </trkpt>
      <trkpt lat="50.324493013322353" lon="7.183744981884956">
        <ele>440.42000000000002</ele>
        <time>2018-07-01T05:42:52Z</time>
      </trkpt>
      <trkpt lat="50.324639026075602" lon="7.183628976345062">
        <ele>441.38</ele>
        <time>2018-07-01T05:42:53Z</time>
      </trkpt>
      <trkpt lat="50.324789984151721" lon="7.183510037139058">
        <ele>442.81999999999999</ele>
        <time>2018-07-01T05:42:54Z</time>
      </trkpt>
      <trkpt lat="50.325073963031173" lon="7.183233015239239">
        <ele>444.75</ele>
        <time>2018-07-01T05:42:56Z</time>
      </trkpt>
      <trkpt lat="50.325206983834505" lon="7.18306596390903">
        <ele>445.70999999999998</ele>
        <time>2018-07-01T05:42:57Z</time>
      </trkpt>
      <trkpt lat="50.325322989374399" lon="7.182859014719725">
        <ele>446.67000000000002</ele>
        <time>2018-07-01T05:42:58Z</time>
      </trkpt>
      <trkpt lat="50.325446035712957" lon="7.182639995589852">
        <ele>446.67000000000002</ele>
        <time>2018-07-01T05:42:59Z</time>
      </trkpt>
      <trkpt lat="50.325567992404103" lon="7.18242097645998">
        <ele>446.67000000000002</ele>
        <time>2018-07-01T05:43:00Z</time>
      </trkpt>
      <trkpt lat="50.326371984556317" lon="7.180945007130504">
        <ele>446.19</ele>
        <time>2018-07-01T05:43:07Z</time>
      </trkpt>
      <trkpt lat="50.327325006946921" lon="7.179167037829757">
        <ele>448.11000000000001</ele>
        <time>2018-07-01T05:43:14Z</time>
      </trkpt>
      <trkpt lat="50.32848103903234" lon="7.177044991403818">
        <ele>451.48000000000002</ele>
        <time>2018-07-01T05:43:21Z</time>
      </trkpt>
      <trkpt lat="50.329975029453635" lon="7.174352975562215">
        <ele>456.75999999999999</ele>
        <time>2018-07-01T05:43:30Z</time>
      </trkpt>
      <trkpt lat="50.331131983548403" lon="7.17223503626883">
        <ele>459.17000000000002</ele>
        <time>2018-07-01T05:43:39Z</time>
      </trkpt>
      <trkpt lat="50.331827010959387" lon="7.17096702195704">
        <ele>460.13</ele>
        <time>2018-07-01T05:43:46Z</time>
      </trkpt>
      <trkpt lat="50.332131022587419" lon="7.170392023399472">
        <ele>460.61000000000001</ele>
        <time>2018-07-01T05:43:53Z</time>
      </trkpt>
      <trkpt lat="50.332382982596755" lon="7.169900005683303">
        <ele>460.13</ele>
        <time>2018-07-01T05:43:59Z</time>
      </trkpt>
      <trkpt lat="50.332426987588406" lon="7.169813001528382">
        <ele>459.64999999999998</ele>
        <time>2018-07-01T05:44:00Z</time>
      </trkpt>
      <trkpt lat="50.332473004236817" lon="7.169723985716701">
        <ele>459.64999999999998</ele>
        <time>2018-07-01T05:44:01Z</time>
      </trkpt>
      <trkpt lat="50.332652041688561" lon="7.169345039874315">
        <ele>458.20999999999998</ele>
        <time>2018-07-01T05:44:05Z</time>
      </trkpt>
      <trkpt lat="50.332966027781367" lon="7.168516991659999">
        <ele>456.27999999999997</ele>
        <time>2018-07-01T05:44:13Z</time>
      </trkpt>
      <trkpt lat="50.333186974748969" lon="7.167815007269383">
        <ele>454.83999999999997</ele>
        <time>2018-07-01T05:44:21Z</time>
      </trkpt>
      <trkpt lat="50.333221005275846" lon="7.167647033929825">
        <ele>454.36000000000001</ele>
        <time>2018-07-01T05:44:23Z</time>
      </trkpt>
      <trkpt lat="50.333232991397381" lon="7.167589031159878">
        <ele>454.36000000000001</ele>
        <time>2018-07-01T05:44:24Z</time>
      </trkpt>
      <trkpt lat="50.333241038024426" lon="7.167548965662718">
        <ele>454.36000000000001</ele>
        <time>2018-07-01T05:44:32Z</time>
      </trkpt>
      <trkpt lat="50.333241038024426" lon="7.167548965662718">
        <ele>454.83999999999997</ele>
        <time>2018-07-01T05:45:11Z</time>
      </trkpt>
      <trkpt lat="50.333241038024426" lon="7.167548965662718">
        <ele>454.83999999999997</ele>
        <time>2018-07-01T05:46:03Z</time>
      </trkpt>
      <trkpt lat="50.333262998610735" lon="7.167435977607966">
        <ele>454.83999999999997</ele>
        <time>2018-07-01T05:46:12Z</time>
      </trkpt>
      <trkpt lat="50.33338101580739" lon="7.16684496961534">
        <ele>456.75999999999999</ele>
        <time>2018-07-01T05:46:18Z</time>
      </trkpt>
      <trkpt lat="50.333399958908558" lon="7.166740028187633">
        <ele>457.24000000000001</ele>
        <time>2018-07-01T05:46:20Z</time>
      </trkpt>
      <trkpt lat="50.333415968343616" lon="7.166637014597654">
        <ele>457.72000000000003</ele>
        <time>2018-07-01T05:46:21Z</time>
      </trkpt>
      <trkpt lat="50.333438012748957" lon="7.166501982137561">
        <ele>458.20999999999998</ele>
        <time>2018-07-01T05:46:22Z</time>
      </trkpt>
      <trkpt lat="50.333583019673824" lon="7.165217036381364">
        <ele>460.13</ele>
        <time>2018-07-01T05:46:28Z</time>
      </trkpt>
      <trkpt lat="50.33376800827682" lon="7.162975966930389">
        <ele>464.93000000000001</ele>
        <time>2018-07-01T05:46:35Z</time>
      </trkpt>
      <trkpt lat="50.333904968574643" lon="7.16127896681428">
        <ele>468.30000000000001</ele>
        <time>2018-07-01T05:46:41Z</time>
      </trkpt>
      <trkpt lat="50.334146032109857" lon="7.158238012343645">
        <ele>469.74000000000001</ele>
        <time>2018-07-01T05:46:54Z</time>
      </trkpt>
      <trkpt lat="50.334379971027374" lon="7.155064959079027">
        <ele>477.43000000000001</ele>
        <time>2018-07-01T05:47:08Z</time>
      </trkpt>
      <trkpt lat="50.334601001814008" lon="7.151883020997047">
        <ele>489.44999999999999</ele>
        <time>2018-07-01T05:47:20Z</time>
      </trkpt>
      <trkpt lat="50.334668979048729" lon="7.150851963087916">
        <ele>492.81</ele>
        <time>2018-07-01T05:47:25Z</time>
      </trkpt>
      <trkpt lat="50.334677025675774" lon="7.150707039982081">
        <ele>492.81</ele>
        <time>2018-07-01T05:47:26Z</time>
      </trkpt>
      <trkpt lat="50.334678031504154" lon="7.150580976158381">
        <ele>493.29000000000002</ele>
        <time>2018-07-01T05:47:27Z</time>
      </trkpt>
      <trkpt lat="50.334678031504154" lon="7.150446027517319">
        <ele>493.76999999999998</ele>
        <time>2018-07-01T05:47:28Z</time>
      </trkpt>
      <trkpt lat="50.334678031504154" lon="7.150339996442199">
        <ele>493.76999999999998</ele>
        <time>2018-07-01T05:47:29Z</time>
      </trkpt>
      <trkpt lat="50.33469001762569" lon="7.150162970647216">
        <ele>494.25999999999999</ele>
        <time>2018-07-01T05:47:30Z</time>
      </trkpt>
      <trkpt lat="50.334699992090464" lon="7.149992985650897">
        <ele>494.25999999999999</ele>
        <time>2018-07-01T05:47:31Z</time>
      </trkpt>
      <trkpt lat="50.334699992090464" lon="7.149795005097985">
        <ele>494.25999999999999</ele>
        <time>2018-07-01T05:47:32Z</time>
      </trkpt>
      <trkpt lat="50.334699992090464" lon="7.149572968482971">
        <ele>494.25999999999999</ele>
        <time>2018-07-01T05:47:33Z</time>
      </trkpt>
      <trkpt lat="50.334722036495805" lon="7.148024998605251">
        <ele>494.74000000000001</ele>
        <time>2018-07-01T05:47:38Z</time>
      </trkpt>
      <trkpt lat="50.33475598320365" lon="7.145046992227435">
        <ele>496.66000000000003</ele>
        <time>2018-07-01T05:47:45Z</time>
      </trkpt>
      <trkpt lat="50.334818009287119" lon="7.139596994966269">
        <ele>497.13999999999999</ele>
        <time>2018-07-01T05:47:56Z</time>
      </trkpt>
      <trkpt lat="50.334853967651725" lon="7.136389994993806">
        <ele>493.29000000000002</ele>
        <time>2018-07-01T05:48:03Z</time>
      </trkpt>
      <trkpt lat="50.334849022328854" lon="7.134651001542807">
        <ele>488.97000000000003</ele>
        <time>2018-07-01T05:48:08Z</time>
      </trkpt>
      <trkpt lat="50.334814991801977" lon="7.13435797020793">
        <ele>488.00999999999999</ele>
        <time>2018-07-01T05:48:09Z</time>
      </trkpt>
      <trkpt lat="50.334739973768592" lon="7.134111039340496">
        <ele>487.52999999999997</ele>
        <time>2018-07-01T05:48:10Z</time>
      </trkpt>
      <trkpt lat="50.334644000977278" lon="7.133855978026986">
        <ele>486.56</ele>
        <time>2018-07-01T05:48:11Z</time>
      </trkpt>
      <trkpt lat="50.334513997659087" lon="7.133634025231004">
        <ele>486.07999999999998</ele>
        <time>2018-07-01T05:48:12Z</time>
      </trkpt>
      <trkpt lat="50.334352981299162" lon="7.133406959474087">
        <ele>485.60000000000002</ele>
        <time>2018-07-01T05:48:13Z</time>
      </trkpt>
      <trkpt lat="50.334178972989321" lon="7.133187018334866">
        <ele>485.12</ele>
        <time>2018-07-01T05:48:14Z</time>
      </trkpt>
      <trkpt lat="50.332417013123631" lon="7.131345011293888">
        <ele>481.75999999999999</ele>
        <time>2018-07-01T05:48:22Z</time>
      </trkpt>
      <trkpt lat="50.330736022442579" lon="7.129584979265928">
        <ele>475.99000000000001</ele>
        <time>2018-07-01T05:48:30Z</time>
      </trkpt>
      <trkpt lat="50.33005197532475" lon="7.128675039857626">
        <ele>470.69999999999999</ele>
        <time>2018-07-01T05:48:34Z</time>
      </trkpt>
      <trkpt lat="50.329908980056643" lon="7.128373961895704">
        <ele>469.74000000000001</ele>
        <time>2018-07-01T05:48:35Z</time>
      </trkpt>
      <trkpt lat="50.329018989577889" lon="7.126111015677452">
        <ele>462.52999999999997</ele>
        <time>2018-07-01T05:48:42Z</time>
      </trkpt>
      <trkpt lat="50.3285470046103" lon="7.124993037432432">
        <ele>456.75999999999999</ele>
        <time>2018-07-01T05:48:47Z</time>
      </trkpt>
      <trkpt lat="50.328448014333844" lon="7.12488398887217">
        <ele>455.80000000000001</ele>
        <time>2018-07-01T05:48:48Z</time>
      </trkpt>
      <trkpt lat="50.328336032107472" lon="7.124806037172675">
        <ele>455.31999999999999</ele>
        <time>2018-07-01T05:48:49Z</time>
      </trkpt>
      <trkpt lat="50.328226983547211" lon="7.124804025515914">
        <ele>454.36000000000001</ele>
        <time>2018-07-01T05:48:50Z</time>
      </trkpt>
      <trkpt lat="50.328084994107485" lon="7.124840989708901">
        <ele>453.39999999999998</ele>
        <time>2018-07-01T05:48:51Z</time>
      </trkpt>
      <trkpt lat="50.327925989404321" lon="7.124881977215409">
        <ele>452.92000000000002</ele>
        <time>2018-07-01T05:48:52Z</time>
      </trkpt>
      <trkpt lat="50.327418968081474" lon="7.125092027708888">
        <ele>449.55000000000001</ele>
        <time>2018-07-01T05:48:55Z</time>
      </trkpt>
      <trkpt lat="50.327268010005355" lon="7.125196969136596">
        <ele>448.11000000000001</ele>
        <time>2018-07-01T05:48:56Z</time>
      </trkpt>
      <trkpt lat="50.326931979507208" lon="7.125449012964964">
        <ele>443.79000000000002</ele>
        <time>2018-07-01T05:48:59Z</time>
      </trkpt>
      <trkpt lat="50.326844975352287" lon="7.125424034893513">
        <ele>442.81999999999999</ele>
        <time>2018-07-01T05:49:00Z</time>
      </trkpt>
      <trkpt lat="50.32678303308785" lon="7.125407019630075">
        <ele>441.38</ele>
        <time>2018-07-01T05:49:01Z</time>
      </trkpt>
      <trkpt lat="50.326771968975663" lon="7.125341976061463">
        <ele>439.94</ele>
        <time>2018-07-01T05:49:02Z</time>
      </trkpt>
      <trkpt lat="50.326755959540606" lon="7.125237034633756">
        <ele>438.5</ele>
        <time>2018-07-01T05:49:03Z</time>
      </trkpt>
      <trkpt lat="50.326768029481173" lon="7.125079035758972">
        <ele>437.54000000000002</ele>
        <time>2018-07-01T05:49:04Z</time>
      </trkpt>
      <trkpt lat="50.326861990615726" lon="7.124983984977007">
        <ele>436.57999999999998</ele>
        <time>2018-07-01T05:49:05Z</time>
      </trkpt>
      <trkpt lat="50.326979001984" lon="7.124911984428763">
        <ele>435.61000000000001</ele>
        <time>2018-07-01T05:49:06Z</time>
      </trkpt>
      <trkpt lat="50.327113028615713" lon="7.124830009415746">
        <ele>434.17000000000002</ele>
        <time>2018-07-01T05:49:07Z</time>
      </trkpt>
      <trkpt lat="50.327262980863452" lon="7.124736970290542">
        <ele>433.20999999999998</ele>
        <time>2018-07-01T05:49:08Z</time>
      </trkpt>
      <trkpt lat="50.327431038022041" lon="7.124634040519595">
        <ele>431.76999999999998</ele>
        <time>2018-07-01T05:49:09Z</time>
      </trkpt>
      <trkpt lat="50.327639998868108" lon="7.124504959210753">
        <ele>430.81</ele>
        <time>2018-07-01T05:49:10Z</time>
      </trkpt>
      <trkpt lat="50.327776037156582" lon="7.124385014176369">
        <ele>429.37</ele>
        <time>2018-07-01T05:49:11Z</time>
      </trkpt>
      <trkpt lat="50.327932024374604" lon="7.124245958402753">
        <ele>427.92000000000002</ele>
        <time>2018-07-01T05:49:12Z</time>
      </trkpt>
      <trkpt lat="50.328211979940534" lon="7.123946975916624">
        <ele>425.51999999999998</ele>
        <time>2018-07-01T05:49:14Z</time>
      </trkpt>
      <trkpt lat="50.328327985480428" lon="7.123791994526982">
        <ele>424.07999999999998</ele>
        <time>2018-07-01T05:49:15Z</time>
      </trkpt>
      <trkpt lat="50.328414989635348" lon="7.123610023409128">
        <ele>423.12</ele>
        <time>2018-07-01T05:49:16Z</time>
      </trkpt>
      <trkpt lat="50.328494030982256" lon="7.123444983735681">
        <ele>422.16000000000003</ele>
        <time>2018-07-01T05:49:17Z</time>
      </trkpt>
      <trkpt lat="50.328540969640017" lon="7.123250020667911">
        <ele>421.19</ele>
        <time>2018-07-01T05:49:18Z</time>
      </trkpt>
      <trkpt lat="50.328529989346862" lon="7.123066037893295">
        <ele>420.23000000000002</ele>
        <time>2018-07-01T05:49:19Z</time>
      </trkpt>
      <trkpt lat="50.328497970476747" lon="7.122938968241215">
        <ele>419.75</ele>
        <time>2018-07-01T05:49:20Z</time>
      </trkpt>
      <trkpt lat="50.328398980200291" lon="7.122844001278281">
        <ele>419.26999999999998</ele>
        <time>2018-07-01T05:49:21Z</time>
      </trkpt>
      <trkpt lat="50.328298984095454" lon="7.122748028486967">
        <ele>418.31</ele>
        <time>2018-07-01T05:49:22Z</time>
      </trkpt>
      <trkpt lat="50.328192031010985" lon="7.12264602072537">
        <ele>417.82999999999998</ele>
        <time>2018-07-01T05:49:23Z</time>
      </trkpt>
      <trkpt lat="50.328084994107485" lon="7.122544012963772">
        <ele>417.35000000000002</ele>
        <time>2018-07-01T05:49:24Z</time>
      </trkpt>
      <trkpt lat="50.327997989952564" lon="7.122442005202174">
        <ele>416.87</ele>
        <time>2018-07-01T05:49:25Z</time>
      </trkpt>
      <trkpt lat="50.327941998839378" lon="7.122257016599178">
        <ele>416.87</ele>
        <time>2018-07-01T05:49:26Z</time>
      </trkpt>
      <trkpt lat="50.327906962484121" lon="7.122062975540757">
        <ele>416.87</ele>
        <time>2018-07-01T05:49:27Z</time>
      </trkpt>
      <trkpt lat="50.327869998291135" lon="7.121850997209549">
        <ele>417.35000000000002</ele>
        <time>2018-07-01T05:49:28Z</time>
      </trkpt>
      <trkpt lat="50.327833034098148" lon="7.121627032756805">
        <ele>418.31</ele>
        <time>2018-07-01T05:49:29Z</time>
      </trkpt>
      <trkpt lat="50.327770002186298" lon="7.12140298448503">
        <ele>418.79000000000002</ele>
        <time>2018-07-01T05:49:30Z</time>
      </trkpt>
      <trkpt lat="50.327684003859758" lon="7.121198968961835">
        <ele>419.75</ele>
        <time>2018-07-01T05:49:31Z</time>
      </trkpt>
      <trkpt lat="50.327598005533218" lon="7.120994031429291">
        <ele>421.19</ele>
        <time>2018-07-01T05:49:32Z</time>
      </trkpt>
      <trkpt lat="50.327507983893156" lon="7.120781969279051">
        <ele>422.16000000000003</ele>
        <time>2018-07-01T05:49:33Z</time>
      </trkpt>
      <trkpt lat="50.327141024172306" lon="7.119845962151885">
        <ele>426.48000000000002</ele>
        <time>2018-07-01T05:49:37Z</time>
      </trkpt>
      <trkpt lat="50.32708503305912" lon="7.119578998535872">
        <ele>427.92000000000002</ele>
        <time>2018-07-01T05:49:38Z</time>
      </trkpt>
      <trkpt lat="50.327043039724231" lon="7.119310023263097">
        <ele>428.88999999999999</ele>
        <time>2018-07-01T05:49:39Z</time>
      </trkpt>
      <trkpt lat="50.32702099531889" lon="7.119049010798335">
        <ele>429.85000000000002</ele>
        <time>2018-07-01T05:49:40Z</time>
      </trkpt>
      <trkpt lat="50.327038010582328" lon="7.118809036910534">
        <ele>431.29000000000002</ele>
        <time>2018-07-01T05:49:41Z</time>
      </trkpt>
      <trkpt lat="50.327054020017385" lon="7.118596974760294">
        <ele>432.25</ele>
        <time>2018-07-01T05:49:42Z</time>
      </trkpt>
      <trkpt lat="50.32708796672523" lon="7.118436964228749">
        <ele>432.73000000000002</ele>
        <time>2018-07-01T05:49:43Z</time>
      </trkpt>
      <trkpt lat="50.327144963666797" lon="7.118314001709223">
        <ele>433.69</ele>
        <time>2018-07-01T05:49:44Z</time>
      </trkpt>
      <trkpt lat="50.327189974486828" lon="7.118218028917909">
        <ele>434.64999999999998</ele>
        <time>2018-07-01T05:49:45Z</time>
      </trkpt>
      <trkpt lat="50.32725996337831" lon="7.118162037804723">
        <ele>435.61000000000001</ele>
        <time>2018-07-01T05:49:46Z</time>
      </trkpt>
      <trkpt lat="50.327348979189992" lon="7.118132030591369">
        <ele>436.57999999999998</ele>
        <time>2018-07-01T05:49:47Z</time>
      </trkpt>
      <trkpt lat="50.327445035800338" lon="7.118132030591369">
        <ele>437.06</ele>
        <time>2018-07-01T05:49:48Z</time>
      </trkpt>
      <trkpt lat="50.327547965571284" lon="7.118132030591369">
        <ele>437.54000000000002</ele>
        <time>2018-07-01T05:49:49Z</time>
      </trkpt>
      <trkpt lat="50.328200999647379" lon="7.118110992014408">
        <ele>440.89999999999998</ele>
        <time>2018-07-01T05:49:54Z</time>
      </trkpt>
      <trkpt lat="50.328355981037021" lon="7.118041003122926">
        <ele>441.86000000000001</ele>
        <time>2018-07-01T05:49:55Z</time>
      </trkpt>
      <trkpt lat="50.328507022932172" lon="7.117920974269509">
        <ele>442.81999999999999</ele>
        <time>2018-07-01T05:49:56Z</time>
      </trkpt>
      <trkpt lat="50.328657981008291" lon="7.117763981223106">
        <ele>443.79000000000002</ele>
        <time>2018-07-01T05:49:57Z</time>
      </trkpt>
      <trkpt lat="50.328793013468385" lon="7.117554014548659">
        <ele>445.23000000000002</ele>
        <time>2018-07-01T05:49:58Z</time>
      </trkpt>
      <trkpt lat="50.328906001523137" lon="7.117299037054181">
        <ele>446.19</ele>
        <time>2018-07-01T05:49:59Z</time>
      </trkpt>
      <trkpt lat="50.32901999540627" lon="7.117030983790755">
        <ele>447.63</ele>
        <time>2018-07-01T05:50:00Z</time>
      </trkpt>
      <trkpt lat="50.329661965370178" lon="7.115306993946433">
        <ele>455.31999999999999</ele>
        <time>2018-07-01T05:50:06Z</time>
      </trkpt>
      <trkpt lat="50.329706976190209" lon="7.115027038380504">
        <ele>456.75999999999999</ele>
        <time>2018-07-01T05:50:07Z</time>
      </trkpt>
      <trkpt lat="50.329738995060325" lon="7.114740964025259">
        <ele>458.20999999999998</ele>
        <time>2018-07-01T05:50:08Z</time>
      </trkpt>
      <trkpt lat="50.329718040302396" lon="7.114435024559498">
        <ele>459.64999999999998</ele>
        <time>2018-07-01T05:50:09Z</time>
      </trkpt>
      <trkpt lat="50.329697001725435" lon="7.114110980182886">
        <ele>461.08999999999997</ele>
        <time>2018-07-01T05:50:10Z</time>
      </trkpt>
      <trkpt lat="50.329549983143806" lon="7.111739991232753">
        <ele>470.69999999999999</ele>
        <time>2018-07-01T05:50:17Z</time>
      </trkpt>
      <trkpt lat="50.329549983143806" lon="7.111470010131598">
        <ele>472.13999999999999</ele>
        <time>2018-07-01T05:50:18Z</time>
      </trkpt>
      <trkpt lat="50.329559035599232" lon="7.11121897213161">
        <ele>473.11000000000001</ele>
        <time>2018-07-01T05:50:19Z</time>
      </trkpt>
      <trkpt lat="50.329588958993554" lon="7.110975980758667">
        <ele>474.06999999999999</ele>
        <time>2018-07-01T05:50:20Z</time>
      </trkpt>
      <trkpt lat="50.329660959541798" lon="7.110759979113936">
        <ele>475.02999999999997</ele>
        <time>2018-07-01T05:50:21Z</time>
      </trkpt>
      <trkpt lat="50.329732960090041" lon="7.110544983297586">
        <ele>475.99000000000001</ele>
        <time>2018-07-01T05:50:22Z</time>
      </trkpt>
      <trkpt lat="50.329823987558484" lon="7.110353959724307">
        <ele>476.94999999999999</ele>
        <time>2018-07-01T05:50:23Z</time>
      </trkpt>
      <trkpt lat="50.329923983663321" lon="7.110167965292931">
        <ele>478.38999999999999</ele>
        <time>2018-07-01T05:50:24Z</time>
      </trkpt>
      <trkpt lat="50.331179006025195" lon="7.107798987999558">
        <ele>489.44999999999999</ele>
        <time>2018-07-01T05:50:37Z</time>
      </trkpt>
      <trkpt lat="50.331966988742352" lon="7.106338022276759">
        <ele>495.69999999999999</ele>
        <time>2018-07-01T05:50:48Z</time>
      </trkpt>
      <trkpt lat="50.332278041169047" lon="7.105597984045744">
        <ele>497.62</ele>
        <time>2018-07-01T05:50:53Z</time>
      </trkpt>
      <trkpt lat="50.332332020625472" lon="7.105431016534567">
        <ele>497.62</ele>
        <time>2018-07-01T05:50:54Z</time>
      </trkpt>
      <trkpt lat="50.33269596286118" lon="7.104164008051157">
        <ele>498.10000000000002</ele>
        <time>2018-07-01T05:51:03Z</time>
      </trkpt>
      <trkpt lat="50.332953035831451" lon="7.103681964799762">
        <ele>498.57999999999998</ele>
        <time>2018-07-01T05:51:07Z</time>
      </trkpt>
      <trkpt lat="50.333002991974354" lon="7.103586997836828">
        <ele>498.57999999999998</ele>
        <time>2018-07-01T05:51:08Z</time>
      </trkpt>
      <trkpt lat="50.332954041659832" lon="7.103450037539005">
        <ele>499.06</ele>
        <time>2018-07-01T05:51:09Z</time>
      </trkpt>
      <trkpt lat="50.332917999476194" lon="7.103356998413801">
        <ele>499.06</ele>
        <time>2018-07-01T05:51:10Z</time>
      </trkpt>
      <trkpt lat="50.332877011969686" lon="7.103248033672571">
        <ele>499.06</ele>
        <time>2018-07-01T05:51:11Z</time>
      </trkpt>
      <trkpt lat="50.332833006978035" lon="7.103085005655885">
        <ele>499.06</ele>
        <time>2018-07-01T05:51:12Z</time>
      </trkpt>
      <trkpt lat="50.332833006978035" lon="7.102931030094624">
        <ele>499.06</ele>
        <time>2018-07-01T05:51:13Z</time>
      </trkpt>
      <trkpt lat="50.332857985049486" lon="7.102756015956402">
        <ele>499.54000000000002</ele>
        <time>2018-07-01T05:51:14Z</time>
      </trkpt>
      <trkpt lat="50.33288698643446" lon="7.102570021525025">
        <ele>499.54000000000002</ele>
        <time>2018-07-01T05:51:15Z</time>
      </trkpt>
      <trkpt lat="50.332919005304575" lon="7.102360976859927">
        <ele>500.01999999999998</ele>
        <time>2018-07-01T05:51:16Z</time>
      </trkpt>
      <trkpt lat="50.333285965025425" lon="7.100513018667698">
        <ele>503.87</ele>
        <time>2018-07-01T05:51:23Z</time>
      </trkpt>
      <trkpt lat="50.333813019096851" lon="7.097729975357652">
        <ele>509.16000000000003</ele>
        <time>2018-07-01T05:51:31Z</time>
      </trkpt>
      <trkpt lat="50.333847971633077" lon="7.097405008971691">
        <ele>509.63999999999999</ele>
        <time>2018-07-01T05:51:32Z</time>
      </trkpt>
      <trkpt lat="50.333860041573644" lon="7.09708197042346">
        <ele>510.60000000000002</ele>
        <time>2018-07-01T05:51:33Z</time>
      </trkpt>
      <trkpt lat="50.333842020481825" lon="7.096762033179402">
        <ele>511.07999999999998</ele>
        <time>2018-07-01T05:51:34Z</time>
      </trkpt>
      <trkpt lat="50.333812013268471" lon="7.096428014338017">
        <ele>512.03999999999996</ele>
        <time>2018-07-01T05:51:35Z</time>
      </trkpt>
      <trkpt lat="50.333781000226736" lon="7.096089972183108">
        <ele>512.51999999999998</ele>
        <time>2018-07-01T05:51:36Z</time>
      </trkpt>
      <trkpt lat="50.333341034129262" lon="7.091779997572303">
        <ele>518.76999999999998</ele>
        <time>2018-07-01T05:51:48Z</time>
      </trkpt>
      <trkpt lat="50.33275798894465" lon="7.086320025846362">
        <ele>525.01999999999998</ele>
        <time>2018-07-01T05:52:02Z</time>
      </trkpt>
      <trkpt lat="50.332335960119963" lon="7.083087963983417">
        <ele>527.41999999999996</ele>
        <time>2018-07-01T05:52:10Z</time>
      </trkpt>
      <trkpt lat="50.332229007035494" lon="7.082704994827509">
        <ele>527.41999999999996</ele>
        <time>2018-07-01T05:52:11Z</time>
      </trkpt>
      <trkpt lat="50.331173976883292" lon="7.079664040356875">
        <ele>526.94000000000005</ele>
        <time>2018-07-01T05:52:19Z</time>
      </trkpt>
      <trkpt lat="50.330054992809892" lon="7.076515965163708">
        <ele>525.01999999999998</ele>
        <time>2018-07-01T05:52:28Z</time>
      </trkpt>
      <trkpt lat="50.329196015372872" lon="7.07351298071444">
        <ele>516.37</ele>
        <time>2018-07-01T05:52:36Z</time>
      </trkpt>
      <trkpt lat="50.328927040100098" lon="7.070652991533279">
        <ele>513</ele>
        <time>2018-07-01T05:52:43Z</time>
      </trkpt>
      <trkpt lat="50.328539041802287" lon="7.066688016057015">
        <ele>504.35000000000002</ele>
        <time>2018-07-01T05:52:53Z</time>
      </trkpt>
      <trkpt lat="50.327941998839378" lon="7.064188029617071">
        <ele>501.45999999999998</ele>
        <time>2018-07-01T05:52:59Z</time>
      </trkpt>
      <trkpt lat="50.327509995549917" lon="7.061706986278296">
        <ele>501.94999999999999</ele>
        <time>2018-07-01T05:53:05Z</time>
      </trkpt>
      <trkpt lat="50.327072963118553" lon="7.057545036077499">
        <ele>503.87</ele>
        <time>2018-07-01T05:53:15Z</time>
      </trkpt>
      <trkpt lat="50.326509028673172" lon="7.052072994410992">
        <ele>504.82999999999998</ele>
        <time>2018-07-01T05:53:28Z</time>
      </trkpt>
      <trkpt lat="50.325807966291904" lon="7.046164004132152">
        <ele>502.91000000000003</ele>
        <time>2018-07-01T05:53:41Z</time>
      </trkpt>
      <trkpt lat="50.325255012139678" lon="7.042331965640187">
        <ele>496.66000000000003</ele>
        <time>2018-07-01T05:53:50Z</time>
      </trkpt>
      <trkpt lat="50.32459401525557" lon="7.040039012208581">
        <ele>490.41000000000003</ele>
        <time>2018-07-01T05:53:56Z</time>
      </trkpt>
      <trkpt lat="50.324234012514353" lon="7.038856996223331">
        <ele>485.60000000000002</ele>
        <time>2018-07-01T05:54:00Z</time>
      </trkpt>
      <trkpt lat="50.324153965339065" lon="7.038666978478432">
        <ele>484.63999999999999</ele>
        <time>2018-07-01T05:54:01Z</time>
      </trkpt>
      <trkpt lat="50.324024967849255" lon="7.038548961281776">
        <ele>484.16000000000003</ele>
        <time>2018-07-01T05:54:02Z</time>
      </trkpt>
      <trkpt lat="50.323879960924387" lon="7.038441002368927">
        <ele>483.68000000000001</ele>
        <time>2018-07-01T05:54:03Z</time>
      </trkpt>
      <trkpt lat="50.323693966493011" lon="7.038367995992303">
        <ele>482.72000000000003</ele>
        <time>2018-07-01T05:54:04Z</time>
      </trkpt>
      <trkpt lat="50.323490034788847" lon="7.038288032636046">
        <ele>481.75999999999999</ele>
        <time>2018-07-01T05:54:05Z</time>
      </trkpt>
      <trkpt lat="50.322049017995596" lon="7.037784028798342">
        <ele>474.55000000000001</ele>
        <time>2018-07-01T05:54:12Z</time>
      </trkpt>
      <trkpt lat="50.321924965828657" lon="7.037691995501518">
        <ele>473.58999999999997</ele>
        <time>2018-07-01T05:54:13Z</time>
      </trkpt>
      <trkpt lat="50.321847014129162" lon="7.037623012438417">
        <ele>472.63</ele>
        <time>2018-07-01T05:54:14Z</time>
      </trkpt>
      <trkpt lat="50.321779036894441" lon="7.037470964714885">
        <ele>471.66000000000003</ele>
        <time>2018-07-01T05:54:15Z</time>
      </trkpt>
      <trkpt lat="50.321761015802622" lon="7.037352025508881">
        <ele>471.18000000000001</ele>
        <time>2018-07-01T05:54:16Z</time>
      </trkpt>
      <trkpt lat="50.321761015802622" lon="7.037186985835433">
        <ele>470.69999999999999</ele>
        <time>2018-07-01T05:54:17Z</time>
      </trkpt>
      <trkpt lat="50.321761015802622" lon="7.036979030817747">
        <ele>470.22000000000003</ele>
        <time>2018-07-01T05:54:18Z</time>
      </trkpt>
      <trkpt lat="50.321807032451034" lon="7.036807034164667">
        <ele>469.74000000000001</ele>
        <time>2018-07-01T05:54:19Z</time>
      </trkpt>
      <trkpt lat="50.321865035220981" lon="7.036591032519937">
        <ele>469.25999999999999</ele>
        <time>2018-07-01T05:54:20Z</time>
      </trkpt>
      <trkpt lat="50.321923960000277" lon="7.036374025046825">
        <ele>468.77999999999997</ele>
        <time>2018-07-01T05:54:21Z</time>
      </trkpt>
      <trkpt lat="50.322030996903777" lon="7.035974962636828">
        <ele>467.81999999999999</ele>
        <time>2018-07-01T05:54:23Z</time>
      </trkpt>
      <trkpt lat="50.322061004117131" lon="7.035799026489258">
        <ele>467.33999999999997</ele>
        <time>2018-07-01T05:54:24Z</time>
      </trkpt>
      <trkpt lat="50.322061004117131" lon="7.035629041492939">
        <ele>466.86000000000001</ele>
        <time>2018-07-01T05:54:25Z</time>
      </trkpt>
      <trkpt lat="50.322056980803609" lon="7.035469030961394">
        <ele>465.89999999999998</ele>
        <time>2018-07-01T05:54:26Z</time>
      </trkpt>
      <trkpt lat="50.322029991075397" lon="7.035298040136695">
        <ele>465.42000000000002</ele>
        <time>2018-07-01T05:54:27Z</time>
      </trkpt>
      <trkpt lat="50.322004007175565" lon="7.035124031826854">
        <ele>464.93000000000001</ele>
        <time>2018-07-01T05:54:28Z</time>
      </trkpt>
      <trkpt lat="50.321975005790591" lon="7.034940971061587">
        <ele>463.97000000000003</ele>
        <time>2018-07-01T05:54:29Z</time>
      </trkpt>
      <trkpt lat="50.321926977485418" lon="7.034781966358423">
        <ele>463.49000000000001</ele>
        <time>2018-07-01T05:54:30Z</time>
      </trkpt>
      <trkpt lat="50.321871992200613" lon="7.034633019939065">
        <ele>463.49000000000001</ele>
        <time>2018-07-01T05:54:31Z</time>
      </trkpt>
      <trkpt lat="50.321795968338847" lon="7.034508967772126">
        <ele>463.49000000000001</ele>
        <time>2018-07-01T05:54:32Z</time>
      </trkpt>
      <trkpt lat="50.321721034124494" lon="7.03438701108098">
        <ele>463.97000000000003</ele>
        <time>2018-07-01T05:54:33Z</time>
      </trkpt>
      <trkpt lat="50.320880999788642" lon="7.03329199925065">
        <ele>471.18000000000001</ele>
        <time>2018-07-01T05:54:44Z</time>
      </trkpt>
      <trkpt lat="50.320773962885141" lon="7.033223016187549">
        <ele>472.13999999999999</ele>
        <time>2018-07-01T05:54:45Z</time>
      </trkpt>
      <trkpt lat="50.319853965193033" lon="7.032867958769202">
        <ele>478.38999999999999</ele>
        <time>2018-07-01T05:54:51Z</time>
      </trkpt>
      <trkpt lat="50.318447984755039" lon="7.032298995181918">
        <ele>481.27999999999997</ele>
        <time>2018-07-01T05:54:58Z</time>
      </trkpt>
      <trkpt lat="50.318285040557384" lon="7.032163962721825">
        <ele>481.27999999999997</ele>
        <time>2018-07-01T05:54:59Z</time>
      </trkpt>
      <trkpt lat="50.318145984783769" lon="7.031991966068745">
        <ele>481.27999999999997</ele>
        <time>2018-07-01T05:55:00Z</time>
      </trkpt>
      <trkpt lat="50.318026961758733" lon="7.031798008829355">
        <ele>480.80000000000001</ele>
        <time>2018-07-01T05:55:01Z</time>
      </trkpt>
      <trkpt lat="50.31791397370398" lon="7.031589969992638">
        <ele>480.31999999999999</ele>
        <time>2018-07-01T05:55:02Z</time>
      </trkpt>
      <trkpt lat="50.317815989255905" lon="7.031349996104837">
        <ele>479.83999999999997</ele>
        <time>2018-07-01T05:55:03Z</time>
      </trkpt>
      <trkpt lat="50.317217018455267" lon="7.029454009607434">
        <ele>472.63</ele>
        <time>2018-07-01T05:55:10Z</time>
      </trkpt>
      <trkpt lat="50.316403973847628" lon="7.026886967942119">
        <ele>465.89999999999998</ele>
        <time>2018-07-01T05:55:18Z</time>
      </trkpt>
      <trkpt lat="50.316246980801225" lon="7.026612041518092">
        <ele>466.38</ele>
        <time>2018-07-01T05:55:19Z</time>
      </trkpt>
      <trkpt lat="50.314811998978257" lon="7.024411959573627">
        <ele>474.06999999999999</ele>
        <time>2018-07-01T05:55:27Z</time>
      </trkpt>
      <trkpt lat="50.314433975145221" lon="7.023578966036439">
        <ele>475.50999999999999</ele>
        <time>2018-07-01T05:55:30Z</time>
      </trkpt>
      <trkpt lat="50.314101967960596" lon="7.022716971114278">
        <ele>475.99000000000001</ele>
        <time>2018-07-01T05:55:35Z</time>
      </trkpt>
      <trkpt lat="50.313890995457768" lon="7.021937035024166">
        <ele>475.50999999999999</ele>
        <time>2018-07-01T05:55:41Z</time>
      </trkpt>
      <trkpt lat="50.313869034871459" lon="7.02179403975606">
        <ele>475.50999999999999</ele>
        <time>2018-07-01T05:55:42Z</time>
      </trkpt>
      <trkpt lat="50.313717992976308" lon="7.020060997456312">
        <ele>475.99000000000001</ele>
        <time>2018-07-01T05:55:54Z</time>
      </trkpt>
      <trkpt lat="50.313798962160945" lon="7.018872024491429">
        <ele>473.58999999999997</ele>
        <time>2018-07-01T05:56:02Z</time>
      </trkpt>
      <trkpt lat="50.313812037929893" lon="7.018728023394942">
        <ele>473.58999999999997</ele>
        <time>2018-07-01T05:56:03Z</time>
      </trkpt>
      <trkpt lat="50.313864005729556" lon="7.018182026222348">
        <ele>474.55000000000001</ele>
        <time>2018-07-01T05:56:07Z</time>
      </trkpt>
      <trkpt lat="50.313965007662773" lon="7.0174989849329">
        <ele>476.47000000000003</ele>
        <time>2018-07-01T05:56:13Z</time>
      </trkpt>
      <trkpt lat="50.313952015712857" lon="7.017380967736244">
        <ele>476.94999999999999</ele>
        <time>2018-07-01T05:56:14Z</time>
      </trkpt>
      <trkpt lat="50.313910022377968" lon="7.017311984673142">
        <ele>477.43000000000001</ele>
        <time>2018-07-01T05:56:15Z</time>
      </trkpt>
      <trkpt lat="50.31385101377964" lon="7.017230009660125">
        <ele>477.43000000000001</ele>
        <time>2018-07-01T05:56:16Z</time>
      </trkpt>
      <trkpt lat="50.31378697603941" lon="7.017141999676824">
        <ele>477.91000000000003</ele>
        <time>2018-07-01T05:56:17Z</time>
      </trkpt>
      <trkpt lat="50.313724027946591" lon="7.017052983865142">
        <ele>478.38999999999999</ele>
        <time>2018-07-01T05:56:18Z</time>
      </trkpt>
      <trkpt lat="50.313670970499516" lon="7.016980983316898">
        <ele>478.38999999999999</ele>
        <time>2018-07-01T05:56:19Z</time>
      </trkpt>
      <trkpt lat="50.313582038506866" lon="7.016924992203713">
        <ele>478.87</ele>
        <time>2018-07-01T05:56:20Z</time>
      </trkpt>
      <trkpt lat="50.313495034351945" lon="7.016871012747288">
        <ele>479.35000000000002</ele>
        <time>2018-07-01T05:56:21Z</time>
      </trkpt>
      <trkpt lat="50.313406018540263" lon="7.016815021634102">
        <ele>479.83999999999997</ele>
        <time>2018-07-01T05:56:22Z</time>
      </trkpt>
      <trkpt lat="50.313317002728581" lon="7.016758024692535">
        <ele>479.83999999999997</ele>
        <time>2018-07-01T05:56:23Z</time>
      </trkpt>
      <trkpt lat="50.31314198859036" lon="7.016617963090539">
        <ele>480.80000000000001</ele>
        <time>2018-07-01T05:56:25Z</time>
      </trkpt>
      <trkpt lat="50.313064036890864" lon="7.016505980864167">
        <ele>481.27999999999997</ele>
        <time>2018-07-01T05:56:26Z</time>
      </trkpt>
      <trkpt lat="50.313001004979014" lon="7.016390981152654">
        <ele>481.75999999999999</ele>
        <time>2018-07-01T05:56:27Z</time>
      </trkpt>
      <trkpt lat="50.312769999727607" lon="7.015971969813108">
        <ele>482.24000000000001</ele>
        <time>2018-07-01T05:56:31Z</time>
      </trkpt>
      <trkpt lat="50.312697999179363" lon="7.01595202088356">
        <ele>482.24000000000001</ele>
        <time>2018-07-01T05:56:32Z</time>
      </trkpt>
      <trkpt lat="50.31260697171092" lon="7.015929976478219">
        <ele>481.75999999999999</ele>
        <time>2018-07-01T05:56:33Z</time>
      </trkpt>
      <trkpt lat="50.312505969777703" lon="7.015940034762025">
        <ele>481.75999999999999</ele>
        <time>2018-07-01T05:56:34Z</time>
      </trkpt>
      <trkpt lat="50.312404967844486" lon="7.015949003398418">
        <ele>481.27999999999997</ele>
        <time>2018-07-01T05:56:35Z</time>
      </trkpt>
      <trkpt lat="50.312302960082889" lon="7.01595101505518">
        <ele>481.27999999999997</ele>
        <time>2018-07-01T05:56:36Z</time>
      </trkpt>
      <trkpt lat="50.312198018655181" lon="7.01595101505518">
        <ele>481.27999999999997</ele>
        <time>2018-07-01T05:56:37Z</time>
      </trkpt>
      <trkpt lat="50.312100034207106" lon="7.01595101505518">
        <ele>481.27999999999997</ele>
        <time>2018-07-01T05:56:38Z</time>
      </trkpt>
      <trkpt lat="50.312029961496592" lon="7.015897035598755">
        <ele>480.80000000000001</ele>
        <time>2018-07-01T05:56:39Z</time>
      </trkpt>
      <trkpt lat="50.311957960948348" lon="7.015825035050511">
        <ele>480.80000000000001</ele>
        <time>2018-07-01T05:56:40Z</time>
      </trkpt>
      <trkpt lat="50.311885960400105" lon="7.015753034502268">
        <ele>480.31999999999999</ele>
        <time>2018-07-01T05:56:41Z</time>
      </trkpt>
      <trkpt lat="50.311830975115299" lon="7.015666030347347">
        <ele>479.83999999999997</ele>
        <time>2018-07-01T05:56:42Z</time>
      </trkpt>
      <trkpt lat="50.311786970123649" lon="7.015534015372396">
        <ele>479.83999999999997</ele>
        <time>2018-07-01T05:56:43Z</time>
      </trkpt>
      <trkpt lat="50.311740031465888" lon="7.01539303176105">
        <ele>479.35000000000002</ele>
        <time>2018-07-01T05:56:44Z</time>
      </trkpt>
      <trkpt lat="50.311712035909295" lon="7.015256993472576">
        <ele>479.35000000000002</ele>
        <time>2018-07-01T05:56:45Z</time>
      </trkpt>
      <trkpt lat="50.31168102286756" lon="7.015110980719328">
        <ele>479.35000000000002</ele>
        <time>2018-07-01T05:56:46Z</time>
      </trkpt>
      <trkpt lat="50.31120702624321" lon="7.013205019757152">
        <ele>483.19999999999999</ele>
        <time>2018-07-01T05:56:58Z</time>
      </trkpt>
      <trkpt lat="50.310749961063266" lon="7.012283010408282">
        <ele>486.56</ele>
        <time>2018-07-01T05:57:04Z</time>
      </trkpt>
      <trkpt lat="50.310201030224562" lon="7.01143903657794">
        <ele>490.88999999999999</ele>
        <time>2018-07-01T05:57:09Z</time>
      </trkpt>
      <trkpt lat="50.310106985270977" lon="7.011214988306165">
        <ele>491.37</ele>
        <time>2018-07-01T05:57:10Z</time>
      </trkpt>
      <trkpt lat="50.310045965015888" lon="7.010960010811687">
        <ele>492.81</ele>
        <time>2018-07-01T05:57:11Z</time>
      </trkpt>
      <trkpt lat="50.310003971680999" lon="7.010675026103854">
        <ele>493.76999999999998</ele>
        <time>2018-07-01T05:57:12Z</time>
      </trkpt>
      <trkpt lat="50.309972958639264" lon="7.010373026132584">
        <ele>495.69999999999999</ele>
        <time>2018-07-01T05:57:13Z</time>
      </trkpt>
      <trkpt lat="50.309941023588181" lon="7.010059040039778">
        <ele>497.13999999999999</ele>
        <time>2018-07-01T05:57:14Z</time>
      </trkpt>
      <trkpt lat="50.309888971969485" lon="7.009733989834786">
        <ele>499.06</ele>
        <time>2018-07-01T05:57:15Z</time>
      </trkpt>
      <trkpt lat="50.309426039457321" lon="7.006834018975496">
        <ele>513.48000000000002</ele>
        <time>2018-07-01T05:57:23Z</time>
      </trkpt>
      <trkpt lat="50.309190005064011" lon="7.005219999700785">
        <ele>521.16999999999996</ele>
        <time>2018-07-01T05:57:29Z</time>
      </trkpt>
      <trkpt lat="50.309165026992559" lon="7.004642989486456">
        <ele>522.61000000000001</ele>
        <time>2018-07-01T05:57:31Z</time>
      </trkpt>
      <trkpt lat="50.309169972315431" lon="7.004519021138549">
        <ele>523.09000000000003</ele>
        <time>2018-07-01T05:57:32Z</time>
      </trkpt>
      <trkpt lat="50.309221018105745" lon="7.002547010779381">
        <ele>523.09000000000003</ele>
        <time>2018-07-01T05:57:38Z</time>
      </trkpt>
      <trkpt lat="50.309197967872024" lon="6.999917021021247">
        <ele>512.03999999999996</ele>
        <time>2018-07-01T05:57:46Z</time>
      </trkpt>
      <trkpt lat="50.309228980913758" lon="6.999682998284698">
        <ele>510.12</ele>
        <time>2018-07-01T05:57:47Z</time>
      </trkpt>
      <trkpt lat="50.309281032532454" lon="6.999454004690051">
        <ele>508.67000000000002</ele>
        <time>2018-07-01T05:57:48Z</time>
      </trkpt>
      <trkpt lat="50.309367030858994" lon="6.999282008036971">
        <ele>506.75</ele>
        <time>2018-07-01T05:57:49Z</time>
      </trkpt>
      <trkpt lat="50.309485970064998" lon="6.999166002497077">
        <ele>504.82999999999998</ele>
        <time>2018-07-01T05:57:50Z</time>
      </trkpt>
      <trkpt lat="50.309616979211569" lon="6.999092996120453">
        <ele>502.91000000000003</ele>
        <time>2018-07-01T05:57:51Z</time>
      </trkpt>
      <trkpt lat="50.309757040813565" lon="6.999019989743829">
        <ele>500.98000000000002</ele>
        <time>2018-07-01T05:57:52Z</time>
      </trkpt>
      <trkpt lat="50.309920990839601" lon="6.999012026935816">
        <ele>499.06</ele>
        <time>2018-07-01T05:57:53Z</time>
      </trkpt>
      <trkpt lat="50.310100028291345" lon="6.999002974480391">
        <ele>497.62</ele>
        <time>2018-07-01T05:57:54Z</time>
      </trkpt>
      <trkpt lat="50.310289962217212" lon="6.999031975865364">
        <ele>495.69999999999999</ele>
        <time>2018-07-01T05:57:55Z</time>
      </trkpt>
      <trkpt lat="50.310874013230205" lon="6.999316960573196">
        <ele>490.41000000000003</ele>
        <time>2018-07-01T05:57:58Z</time>
      </trkpt>
      <trkpt lat="50.311067970469594" lon="6.999430032446981">
        <ele>488.97000000000003</ele>
        <time>2018-07-01T05:57:59Z</time>
      </trkpt>
      <trkpt lat="50.311434008181095" lon="6.999636981636286">
        <ele>485.60000000000002</ele>
        <time>2018-07-01T05:58:01Z</time>
      </trkpt>
      <trkpt lat="50.311615979298949" lon="6.999713005498052">
        <ele>484.16000000000003</ele>
        <time>2018-07-01T05:58:02Z</time>
      </trkpt>
      <trkpt lat="50.311808008700609" lon="6.999710993841291">
        <ele>483.19999999999999</ele>
        <time>2018-07-01T05:58:03Z</time>
      </trkpt>
      <trkpt lat="50.312005989253521" lon="6.99968702159822">
        <ele>481.75999999999999</ele>
        <time>2018-07-01T05:58:04Z</time>
      </trkpt>
      <trkpt lat="50.312202963978052" lon="6.99962398968637">
        <ele>480.80000000000001</ele>
        <time>2018-07-01T05:58:05Z</time>
      </trkpt>
      <trkpt lat="50.312401028349996" lon="6.999545032158494">
        <ele>480.31999999999999</ele>
        <time>2018-07-01T05:58:06Z</time>
      </trkpt>
      <trkpt lat="50.312591968104243" lon="6.999439001083374">
        <ele>479.35000000000002</ele>
        <time>2018-07-01T05:58:07Z</time>
      </trkpt>
      <trkpt lat="50.312771005555987" lon="6.999316038563848">
        <ele>478.87</ele>
        <time>2018-07-01T05:58:08Z</time>
      </trkpt>
      <trkpt lat="50.312925986945629" lon="6.999144963920116">
        <ele>478.38999999999999</ele>
        <time>2018-07-01T05:58:09Z</time>
      </trkpt>
      <trkpt lat="50.313038975000381" lon="6.99889300391078">
        <ele>477.91000000000003</ele>
        <time>2018-07-01T05:58:10Z</time>
      </trkpt>
      <trkpt lat="50.313151963055134" lon="6.998620005324483">
        <ele>477.91000000000003</ele>
        <time>2018-07-01T05:58:11Z</time>
      </trkpt>
      <trkpt lat="50.313254976645112" lon="6.998309958726168">
        <ele>477.43000000000001</ele>
        <time>2018-07-01T05:58:12Z</time>
      </trkpt>
      <trkpt lat="50.313349021598697" lon="6.997977029532194">
        <ele>477.91000000000003</ele>
        <time>2018-07-01T05:58:13Z</time>
      </trkpt>
      <trkpt lat="50.314203975722194" lon="6.995078986510634">
        <ele>482.24000000000001</ele>
        <time>2018-07-01T05:58:21Z</time>
      </trkpt>
      <trkpt lat="50.315412981435657" lon="6.992445979267359">
        <ele>495.69999999999999</ele>
        <time>2018-07-01T05:58:29Z</time>
      </trkpt>
      <trkpt lat="50.315678017213941" lon="6.991857988759875">
        <ele>497.62</ele>
        <time>2018-07-01T05:58:31Z</time>
      </trkpt>
      <trkpt lat="50.315750017762184" lon="6.991561017930508">
        <ele>498.10000000000002</ele>
        <time>2018-07-01T05:58:32Z</time>
      </trkpt>
      <trkpt lat="50.315783964470029" lon="6.991261029615998">
        <ele>497.62</ele>
        <time>2018-07-01T05:58:33Z</time>
      </trkpt>
      <trkpt lat="50.315815983340144" lon="6.990949977189302">
        <ele>497.13999999999999</ele>
        <time>2018-07-01T05:58:34Z</time>
      </trkpt>
      <trkpt lat="50.315795028582215" lon="6.990612018853426">
        <ele>496.18000000000001</ele>
        <time>2018-07-01T05:58:35Z</time>
      </trkpt>
      <trkpt lat="50.315771978348494" lon="6.990244975313544">
        <ele>495.22000000000003</ele>
        <time>2018-07-01T05:58:36Z</time>
      </trkpt>
      <trkpt lat="50.315762003883719" lon="6.987738031893969">
        <ele>490.88999999999999</ele>
        <time>2018-07-01T05:58:42Z</time>
      </trkpt>
      <trkpt lat="50.315995020791888" lon="6.98583098128438">
        <ele>489.93000000000001</ele>
        <time>2018-07-01T05:58:47Z</time>
      </trkpt>
      <trkpt lat="50.316073978319764" lon="6.985568962991238">
        <ele>489.44999999999999</ele>
        <time>2018-07-01T05:58:48Z</time>
      </trkpt>
      <trkpt lat="50.316194007173181" lon="6.985354973003268">
        <ele>488.97000000000003</ele>
        <time>2018-07-01T05:58:49Z</time>
      </trkpt>
      <trkpt lat="50.316326022148132" lon="6.985165039077401">
        <ele>488.49000000000001</ele>
        <time>2018-07-01T05:58:50Z</time>
      </trkpt>
      <trkpt lat="50.316483015194535" lon="6.985018020495772">
        <ele>487.05000000000001</ele>
        <time>2018-07-01T05:58:51Z</time>
      </trkpt>
      <trkpt lat="50.316660040989518" lon="6.984914001077414">
        <ele>486.07999999999998</ele>
        <time>2018-07-01T05:58:52Z</time>
      </trkpt>
      <trkpt lat="50.316842012107372" lon="6.984807970002294">
        <ele>485.12</ele>
        <time>2018-07-01T05:58:53Z</time>
      </trkpt>
      <trkpt lat="50.317022977396846" lon="6.984703028574586">
        <ele>483.68000000000001</ele>
        <time>2018-07-01T05:58:54Z</time>
      </trkpt>
      <trkpt lat="50.317198997363448" lon="6.984600014984608">
        <ele>482.24000000000001</ele>
        <time>2018-07-01T05:58:55Z</time>
      </trkpt>
      <trkpt lat="50.317351967096329" lon="6.984460959210992">
        <ele>480.80000000000001</ele>
        <time>2018-07-01T05:58:56Z</time>
      </trkpt>
      <trkpt lat="50.317465960979462" lon="6.984276976436377">
        <ele>479.35000000000002</ele>
        <time>2018-07-01T05:58:57Z</time>
      </trkpt>
      <trkpt lat="50.317551959306002" lon="6.984072960913181">
        <ele>477.91000000000003</ele>
        <time>2018-07-01T05:58:58Z</time>
      </trkpt>
      <trkpt lat="50.317619014531374" lon="6.983871962875128">
        <ele>476.94999999999999</ele>
        <time>2018-07-01T05:58:59Z</time>
      </trkpt>
      <trkpt lat="50.31763200648129" lon="6.983624026179314">
        <ele>475.50999999999999</ele>
        <time>2018-07-01T05:59:00Z</time>
      </trkpt>
      <trkpt lat="50.317640975117683" lon="6.983419004827738">
        <ele>474.55000000000001</ele>
        <time>2018-07-01T05:59:01Z</time>
      </trkpt>
      <trkpt lat="50.317640975117683" lon="6.983243990689516">
        <ele>473.58999999999997</ele>
        <time>2018-07-01T05:59:02Z</time>
      </trkpt>
      <trkpt lat="50.317640975117683" lon="6.983094960451126">
        <ele>473.11000000000001</ele>
        <time>2018-07-01T05:59:03Z</time>
      </trkpt>
      <trkpt lat="50.317624965682626" lon="6.982850041240454">
        <ele>471.66000000000003</ele>
        <time>2018-07-01T05:59:05Z</time>
      </trkpt>
      <trkpt lat="50.317605016753078" lon="6.982620963826776">
        <ele>470.69999999999999</ele>
        <time>2018-07-01T05:59:07Z</time>
      </trkpt>
      <trkpt lat="50.317595964297652" lon="6.982506969943643">
        <ele>470.22000000000003</ele>
        <time>2018-07-01T05:59:08Z</time>
      </trkpt>
      <trkpt lat="50.31754600815475" lon="6.982153002172709">
        <ele>468.77999999999997</ele>
        <time>2018-07-01T05:59:11Z</time>
      </trkpt>
      <trkpt lat="50.317517006769776" lon="6.982030961662531">
        <ele>468.77999999999997</ele>
        <time>2018-07-01T05:59:12Z</time>
      </trkpt>
      <trkpt lat="50.317488005384803" lon="6.981909004971385">
        <ele>468.30000000000001</ele>
        <time>2018-07-01T05:59:13Z</time>
      </trkpt>
      <trkpt lat="50.317379040643573" lon="6.981544978916645">
        <ele>467.81999999999999</ele>
        <time>2018-07-01T05:59:16Z</time>
      </trkpt>
      <trkpt lat="50.317352972924709" lon="6.981422016397119">
        <ele>467.81999999999999</ele>
        <time>2018-07-01T05:59:17Z</time>
      </trkpt>
      <trkpt lat="50.317339980974793" lon="6.98129603639245">
        <ele>467.33999999999997</ele>
        <time>2018-07-01T05:59:18Z</time>
      </trkpt>
      <trkpt lat="50.317339980974793" lon="6.981167960911989">
        <ele>467.33999999999997</ele>
        <time>2018-07-01T05:59:19Z</time>
      </trkpt>
      <trkpt lat="50.317339980974793" lon="6.98103703558445">
        <ele>467.33999999999997</ele>
        <time>2018-07-01T05:59:20Z</time>
      </trkpt>
      <trkpt lat="50.317356996238232" lon="6.980780968442559">
        <ele>467.33999999999997</ele>
        <time>2018-07-01T05:59:22Z</time>
      </trkpt>
      <trkpt lat="50.317366970703006" lon="6.980650965124369">
        <ele>467.33999999999997</ele>
        <time>2018-07-01T05:59:23Z</time>
      </trkpt>
      <trkpt lat="50.317376023158431" lon="6.980518028140068">
        <ele>467.33999999999997</ele>
        <time>2018-07-01T05:59:24Z</time>
      </trkpt>
      <trkpt lat="50.317394966259599" lon="6.980386013165116">
        <ele>467.33999999999997</ele>
        <time>2018-07-01T05:59:25Z</time>
      </trkpt>
      <trkpt lat="50.317436959594488" lon="6.980266990140081">
        <ele>467.33999999999997</ele>
        <time>2018-07-01T05:59:26Z</time>
      </trkpt>
      <trkpt lat="50.317479036748409" lon="6.980148972943425">
        <ele>467.33999999999997</ele>
        <time>2018-07-01T05:59:27Z</time>
      </trkpt>
      <trkpt lat="50.317603005096316" lon="6.979778995737433">
        <ele>467.33999999999997</ele>
        <time>2018-07-01T05:59:30Z</time>
      </trkpt>
      <trkpt lat="50.317620020359755" lon="6.979642035439611">
        <ele>467.33999999999997</ele>
        <time>2018-07-01T05:59:31Z</time>
      </trkpt>
      <trkpt lat="50.317640975117683" lon="6.979472972452641">
        <ele>467.33999999999997</ele>
        <time>2018-07-01T05:59:32Z</time>
      </trkpt>
      <trkpt lat="50.317640975117683" lon="6.979201985523105">
        <ele>467.81999999999999</ele>
        <time>2018-07-01T05:59:34Z</time>
      </trkpt>
      <trkpt lat="50.317755974829197" lon="6.977532980963588">
        <ele>474.55000000000001</ele>
        <time>2018-07-01T05:59:43Z</time>
      </trkpt>
      <trkpt lat="50.318124024197459" lon="6.975972019135952">
        <ele>482.24000000000001</ele>
        <time>2018-07-01T05:59:49Z</time>
      </trkpt>
      <trkpt lat="50.318850986659527" lon="6.973130973055959">
        <ele>493.76999999999998</ele>
        <time>2018-07-01T05:59:57Z</time>
      </trkpt>
      <trkpt lat="50.318874036893249" lon="6.972762001678348">
        <ele>494.74000000000001</ele>
        <time>2018-07-01T05:59:58Z</time>
      </trkpt>
      <trkpt lat="50.318993981927633" lon="6.969432039186359">
        <ele>501.94999999999999</ele>
        <time>2018-07-01T06:00:07Z</time>
      </trkpt>
      <trkpt lat="50.318929022178054" lon="6.968238959088922">
        <ele>503.87</ele>
        <time>2018-07-01T06:00:11Z</time>
      </trkpt>
      <trkpt lat="50.318916030228138" lon="6.96778398938477">
        <ele>503.87</ele>
        <time>2018-07-01T06:00:13Z</time>
      </trkpt>
      <trkpt lat="50.318911001086235" lon="6.967575028538704">
        <ele>504.35000000000002</ele>
        <time>2018-07-01T06:00:14Z</time>
      </trkpt>
      <trkpt lat="50.318906977772713" lon="6.967434966936708">
        <ele>504.35000000000002</ele>
        <time>2018-07-01T06:00:15Z</time>
      </trkpt>
      <trkpt lat="50.318936984986067" lon="6.967204967513681">
        <ele>504.82999999999998</ele>
        <time>2018-07-01T06:00:16Z</time>
      </trkpt>
      <trkpt lat="50.318956011906266" lon="6.967058032751083">
        <ele>505.31</ele>
        <time>2018-07-01T06:00:17Z</time>
      </trkpt>
      <trkpt lat="50.318983001634479" lon="6.966919982805848">
        <ele>505.31</ele>
        <time>2018-07-01T06:00:18Z</time>
      </trkpt>
      <trkpt lat="50.319034969434142" lon="6.966817975044251">
        <ele>505.79000000000002</ele>
        <time>2018-07-01T06:00:19Z</time>
      </trkpt>
      <trkpt lat="50.319086015224457" lon="6.966718984767795">
        <ele>505.79000000000002</ele>
        <time>2018-07-01T06:00:20Z</time>
      </trkpt>
      <trkpt lat="50.319439982995391" lon="6.966007025912404">
        <ele>505.31</ele>
        <time>2018-07-01T06:00:27Z</time>
      </trkpt>
      <trkpt lat="50.319499997422099" lon="6.965919015929103">
        <ele>505.31</ele>
        <time>2018-07-01T06:00:28Z</time>
      </trkpt>
      <trkpt lat="50.319578032940626" lon="6.965926978737116">
        <ele>505.31</ele>
        <time>2018-07-01T06:00:29Z</time>
      </trkpt>
      <trkpt lat="50.319641986861825" lon="6.965940976515412">
        <ele>505.31</ele>
        <time>2018-07-01T06:00:30Z</time>
      </trkpt>
      <trkpt lat="50.319784982129931" lon="6.966030998155475">
        <ele>504.82999999999998</ele>
        <time>2018-07-01T06:00:32Z</time>
      </trkpt>
      <trkpt lat="50.319858994334936" lon="6.966099981218576">
        <ele>503.87</ele>
        <time>2018-07-01T06:00:33Z</time>
      </trkpt>
      <trkpt lat="50.319933006539941" lon="6.966168964281678">
        <ele>502.91000000000003</ele>
        <time>2018-07-01T06:00:34Z</time>
      </trkpt>
      <trkpt lat="50.320026967674494" lon="6.966207018122077">
        <ele>501.94999999999999</ele>
        <time>2018-07-01T06:00:35Z</time>
      </trkpt>
      <trkpt lat="50.320125035941601" lon="6.966196037828922">
        <ele>500.5</ele>
        <time>2018-07-01T06:00:36Z</time>
      </trkpt>
      <trkpt lat="50.320172980427742" lon="6.966190002858639">
        <ele>499.54000000000002</ele>
        <time>2018-07-01T06:00:37Z</time>
      </trkpt>
      <trkpt lat="50.320266019552946" lon="6.96625798009336">
        <ele>498.57999999999998</ele>
        <time>2018-07-01T06:00:38Z</time>
      </trkpt>
      <trkpt lat="50.320414965972304" lon="6.966358982026577">
        <ele>496.66000000000003</ele>
        <time>2018-07-01T06:00:40Z</time>
      </trkpt>
      <trkpt lat="50.320452013984323" lon="6.966340960934758">
        <ele>495.69999999999999</ele>
        <time>2018-07-01T06:00:41Z</time>
      </trkpt>
      <trkpt lat="50.320504987612367" lon="6.9661920145154">
        <ele>495.22000000000003</ele>
        <time>2018-07-01T06:00:42Z</time>
      </trkpt>
      <trkpt lat="50.320537006482482" lon="6.966100987046957">
        <ele>494.74000000000001</ele>
        <time>2018-07-01T06:00:43Z</time>
      </trkpt>
      <trkpt lat="50.320558967068791" lon="6.966011971235275">
        <ele>494.74000000000001</ele>
        <time>2018-07-01T06:00:44Z</time>
      </trkpt>
      <trkpt lat="50.320558967068791" lon="6.965909041464329">
        <ele>495.69999999999999</ele>
        <time>2018-07-01T06:00:45Z</time>
      </trkpt>
      <trkpt lat="50.320558967068791" lon="6.965788006782532">
        <ele>496.18000000000001</ele>
        <time>2018-07-01T06:00:46Z</time>
      </trkpt>
      <trkpt lat="50.320546980947256" lon="6.965660015121102">
        <ele>497.13999999999999</ele>
        <time>2018-07-01T06:00:47Z</time>
      </trkpt>
      <trkpt lat="50.320517979562283" lon="6.965514002367854">
        <ele>498.10000000000002</ele>
        <time>2018-07-01T06:00:48Z</time>
      </trkpt>
      <trkpt lat="50.320459976792336" lon="6.965013016015291">
        <ele>500.01999999999998</ele>
        <time>2018-07-01T06:00:51Z</time>
      </trkpt>
      <trkpt lat="50.320459976792336" lon="6.964814029633999">
        <ele>500.5</ele>
        <time>2018-07-01T06:00:52Z</time>
      </trkpt>
      <trkpt lat="50.320493001490831" lon="6.964635998010635">
        <ele>501.45999999999998</ele>
        <time>2018-07-01T06:00:53Z</time>
      </trkpt>
      <trkpt lat="50.320527032017708" lon="6.964454026892781">
        <ele>501.94999999999999</ele>
        <time>2018-07-01T06:00:54Z</time>
      </trkpt>
      <trkpt lat="50.320559972897172" lon="6.964270966127515">
        <ele>502.43000000000001</ele>
        <time>2018-07-01T06:00:55Z</time>
      </trkpt>
      <trkpt lat="50.320595009252429" lon="6.964084971696138">
        <ele>503.38999999999999</ele>
        <time>2018-07-01T06:00:56Z</time>
      </trkpt>
      <trkpt lat="50.320697017014027" lon="6.963534029200673">
        <ele>505.31</ele>
        <time>2018-07-01T06:00:59Z</time>
      </trkpt>
      <trkpt lat="50.320746973156929" lon="6.963358009234071">
        <ele>506.26999999999998</ele>
        <time>2018-07-01T06:01:00Z</time>
      </trkpt>
      <trkpt lat="50.321292970329523" lon="6.961849015206099">
        <ele>513</ele>
        <time>2018-07-01T06:01:09Z</time>
      </trkpt>
      <trkpt lat="50.321342004463077" lon="6.961663020774722">
        <ele>513.96000000000004</ele>
        <time>2018-07-01T06:01:10Z</time>
      </trkpt>
      <trkpt lat="50.321363965049386" lon="6.961474008858204">
        <ele>514.44000000000005</ele>
        <time>2018-07-01T06:01:11Z</time>
      </trkpt>
      <trkpt lat="50.321411993354559" lon="6.961068995296955">
        <ele>515.88</ele>
        <time>2018-07-01T06:01:13Z</time>
      </trkpt>
      <trkpt lat="50.321438983082771" lon="6.960846958681941">
        <ele>516.37</ele>
        <time>2018-07-01T06:01:14Z</time>
      </trkpt>
      <trkpt lat="50.321527998894453" lon="6.96073598228395">
        <ele>516.85000000000002</ele>
        <time>2018-07-01T06:01:15Z</time>
      </trkpt>
      <trkpt lat="50.321630006656051" lon="6.960608996450901">
        <ele>517.33000000000004</ele>
        <time>2018-07-01T06:01:16Z</time>
      </trkpt>
      <trkpt lat="50.321751041337848" lon="6.960512017831206">
        <ele>517.80999999999995</ele>
        <time>2018-07-01T06:01:17Z</time>
      </trkpt>
      <trkpt lat="50.321890013292432" lon="6.960482010617852">
        <ele>518.76999999999998</ele>
        <time>2018-07-01T06:01:18Z</time>
      </trkpt>
      <trkpt lat="50.322035020217299" lon="6.960473963990808">
        <ele>519.73000000000002</ele>
        <time>2018-07-01T06:01:19Z</time>
      </trkpt>
      <trkpt lat="50.322186984121799" lon="6.960467007011175">
        <ele>520.21000000000004</ele>
        <time>2018-07-01T06:01:20Z</time>
      </trkpt>
      <trkpt lat="50.322343977168202" lon="6.960438005626202">
        <ele>521.16999999999996</ele>
        <time>2018-07-01T06:01:21Z</time>
      </trkpt>
      <trkpt lat="50.322501976042986" lon="6.960358964279294">
        <ele>522.13</ele>
        <time>2018-07-01T06:01:22Z</time>
      </trkpt>
      <trkpt lat="50.322651006281376" lon="6.960228960961103">
        <ele>523.09000000000003</ele>
        <time>2018-07-01T06:01:23Z</time>
      </trkpt>
      <trkpt lat="50.322804981842637" lon="6.960089989006519">
        <ele>523.58000000000004</ele>
        <time>2018-07-01T06:01:24Z</time>
      </trkpt>
      <trkpt lat="50.32295904122293" lon="6.959942970424891">
        <ele>524.53999999999996</ele>
        <time>2018-07-01T06:01:25Z</time>
      </trkpt>
      <trkpt lat="50.323099019005895" lon="6.959744989871979">
        <ele>525.5</ele>
        <time>2018-07-01T06:01:26Z</time>
      </trkpt>
      <trkpt lat="50.323241008445621" lon="6.959543991833925">
        <ele>526.46000000000004</ele>
        <time>2018-07-01T06:01:27Z</time>
      </trkpt>
      <trkpt lat="50.323360031470656" lon="6.95929697714746">
        <ele>527.41999999999996</ele>
        <time>2018-07-01T06:01:28Z</time>
      </trkpt>
      <trkpt lat="50.323451980948448" lon="6.959033031016588">
        <ele>528.38</ele>
        <time>2018-07-01T06:01:29Z</time>
      </trkpt>
      <trkpt lat="50.323539990931749" lon="6.958781993016601">
        <ele>529.34000000000003</ele>
        <time>2018-07-01T06:01:30Z</time>
      </trkpt>
      <trkpt lat="50.323696983978152" lon="6.958332974463701">
        <ele>530.78999999999996</ele>
        <time>2018-07-01T06:01:32Z</time>
      </trkpt>
      <trkpt lat="50.323778036981821" lon="6.958100963383913">
        <ele>531.26999999999998</ele>
        <time>2018-07-01T06:01:33Z</time>
      </trkpt>
      <trkpt lat="50.323870992287993" lon="6.957960985600948">
        <ele>532.23000000000002</ele>
        <time>2018-07-01T06:01:34Z</time>
      </trkpt>
      <trkpt lat="50.32399202696979" lon="6.957812961190939">
        <ele>532.71000000000004</ele>
        <time>2018-07-01T06:01:35Z</time>
      </trkpt>
      <trkpt lat="50.324135022237897" lon="6.957711959257722">
        <ele>533.19000000000005</ele>
        <time>2018-07-01T06:01:36Z</time>
      </trkpt>
      <trkpt lat="50.324282962828875" lon="6.957607017830014">
        <ele>533.66999999999996</ele>
        <time>2018-07-01T06:01:37Z</time>
      </trkpt>
      <trkpt lat="50.32446401193738" lon="6.957479026168585">
        <ele>534.63</ele>
        <time>2018-07-01T06:01:38Z</time>
      </trkpt>
      <trkpt lat="50.324612036347389" lon="6.95740501396358">
        <ele>535.59000000000003</ele>
        <time>2018-07-01T06:01:39Z</time>
      </trkpt>
      <trkpt lat="50.325964037328959" lon="6.95665399543941">
        <ele>548.09000000000003</ele>
        <time>2018-07-01T06:01:47Z</time>
      </trkpt>
      <trkpt lat="50.326840030029416" lon="6.955764004960656">
        <ele>559.62</ele>
        <time>2018-07-01T06:01:55Z</time>
      </trkpt>
      <trkpt lat="50.327031975612044" lon="6.955439960584045">
        <ele>562.50999999999999</ele>
        <time>2018-07-01T06:01:57Z</time>
      </trkpt>
      <trkpt lat="50.32712996006012" lon="6.955275004729629">
        <ele>563.47000000000003</ele>
        <time>2018-07-01T06:01:58Z</time>
      </trkpt>
      <trkpt lat="50.327200032770634" lon="6.955067971721292">
        <ele>564.42999999999995</ele>
        <time>2018-07-01T06:01:59Z</time>
      </trkpt>
      <trkpt lat="50.327261975035071" lon="6.954859010875225">
        <ele>565.38999999999999</ele>
        <time>2018-07-01T06:02:00Z</time>
      </trkpt>
      <trkpt lat="50.327324001118541" lon="6.954648960381746">
        <ele>566.35000000000002</ele>
        <time>2018-07-01T06:02:01Z</time>
      </trkpt>
      <trkpt lat="50.32738602720201" lon="6.954434970393777">
        <ele>567.32000000000005</ele>
        <time>2018-07-01T06:02:02Z</time>
      </trkpt>
      <trkpt lat="50.327627006918192" lon="6.953466022387147">
        <ele>571.15999999999997</ele>
        <time>2018-07-01T06:02:07Z</time>
      </trkpt>
      <trkpt lat="50.327749969437718" lon="6.95321599021554">
        <ele>572.60000000000002</ele>
        <time>2018-07-01T06:02:09Z</time>
      </trkpt>
      <trkpt lat="50.327819958329201" lon="6.953091016039252">
        <ele>573.55999999999995</ele>
        <time>2018-07-01T06:02:10Z</time>
      </trkpt>
      <trkpt lat="50.327903022989631" lon="6.952985990792513">
        <ele>574.03999999999996</ele>
        <time>2018-07-01T06:02:11Z</time>
      </trkpt>
      <trkpt lat="50.32798801548779" lon="6.952878031879664">
        <ele>575.00999999999999</ele>
        <time>2018-07-01T06:02:12Z</time>
      </trkpt>
      <trkpt lat="50.328077031299472" lon="6.95276596583426">
        <ele>575.97000000000003</ele>
        <time>2018-07-01T06:02:13Z</time>
      </trkpt>
      <trkpt lat="50.328156994655728" lon="6.952644009143114">
        <ele>576.92999999999995</ele>
        <time>2018-07-01T06:02:14Z</time>
      </trkpt>
      <trkpt lat="50.32822597771883" lon="6.952497996389866">
        <ele>577.40999999999997</ele>
        <time>2018-07-01T06:02:15Z</time>
      </trkpt>
      <trkpt lat="50.328295966610312" lon="6.952349971979857">
        <ele>578.37</ele>
        <time>2018-07-01T06:02:16Z</time>
      </trkpt>
      <trkpt lat="50.328349024057388" lon="6.952190967276692">
        <ele>578.85000000000002</ele>
        <time>2018-07-01T06:02:17Z</time>
      </trkpt>
      <trkpt lat="50.328389005735517" lon="6.952015031129122">
        <ele>579.80999999999995</ele>
        <time>2018-07-01T06:02:18Z</time>
      </trkpt>
      <trkpt lat="50.328430999070406" lon="6.951832976192236">
        <ele>580.28999999999996</ele>
        <time>2018-07-01T06:02:19Z</time>
      </trkpt>
      <trkpt lat="50.328460000455379" lon="6.951649999246001">
        <ele>580.76999999999998</ele>
        <time>2018-07-01T06:02:20Z</time>
      </trkpt>
      <trkpt lat="50.328471986576915" lon="6.951458975672722">
        <ele>581.73000000000002</ele>
        <time>2018-07-01T06:02:21Z</time>
      </trkpt>
      <trkpt lat="50.328726964071393" lon="6.949524013325572">
        <ele>588.46000000000004</ele>
        <time>2018-07-01T06:02:31Z</time>
      </trkpt>
      <trkpt lat="50.328781027346849" lon="6.949329972267151">
        <ele>588.95000000000005</ele>
        <time>2018-07-01T06:02:32Z</time>
      </trkpt>
      <trkpt lat="50.329484017565846" lon="6.94773799739778">
        <ele>596.14999999999998</ele>
        <time>2018-07-01T06:02:41Z</time>
      </trkpt>
      <trkpt lat="50.330441985279322" lon="6.946180975064635">
        <ele>605.76999999999998</ele>
        <time>2018-07-01T06:02:53Z</time>
      </trkpt>
      <trkpt lat="50.330747002735734" lon="6.945694992318749">
        <ele>609.61000000000001</ele>
        <time>2018-07-01T06:02:59Z</time>
      </trkpt>
      <trkpt lat="50.33082696609199" lon="6.945562977343798">
        <ele>610.57000000000005</ele>
        <time>2018-07-01T06:03:01Z</time>
      </trkpt>
      <trkpt lat="50.331158973276615" lon="6.945056039839983">
        <ele>615.86000000000001</ele>
        <time>2018-07-01T06:03:10Z</time>
      </trkpt>
      <trkpt lat="50.33118998631835" lon="6.945009017363191">
        <ele>616.34000000000003</ele>
        <time>2018-07-01T06:03:11Z</time>
      </trkpt>
      <trkpt lat="50.331282019615173" lon="6.944850012660027">
        <ele>618.75</ele>
        <time>2018-07-01T06:03:14Z</time>
      </trkpt>
      <trkpt lat="50.331313032656908" lon="6.944796033203602">
        <ele>619.23000000000002</ele>
        <time>2018-07-01T06:03:15Z</time>
      </trkpt>
      <trkpt lat="50.3316830098629" lon="6.944463020190597">
        <ele>620.19000000000005</ele>
        <time>2018-07-01T06:03:27Z</time>
      </trkpt>
      <trkpt lat="50.331696001812816" lon="6.944364029914141">
        <ele>620.66999999999996</ele>
        <time>2018-07-01T06:03:28Z</time>
      </trkpt>
      <trkpt lat="50.331696001812816" lon="6.944282976910472">
        <ele>620.66999999999996</ele>
        <time>2018-07-01T06:03:29Z</time>
      </trkpt>
      <trkpt lat="50.331696001812816" lon="6.944195972755551">
        <ele>621.14999999999998</ele>
        <time>2018-07-01T06:03:30Z</time>
      </trkpt>
      <trkpt lat="50.331664988771081" lon="6.944173006340861">
        <ele>621.14999999999998</ele>
        <time>2018-07-01T06:03:31Z</time>
      </trkpt>
      <trkpt lat="50.331610003486276" lon="6.944132018834353">
        <ele>621.63</ele>
        <time>2018-07-01T06:03:32Z</time>
      </trkpt>
      <trkpt lat="50.331610003486276" lon="6.944132018834353">
        <ele>621.63</ele>
        <time>2018-07-01T06:03:33Z</time>
      </trkpt>
      <trkpt lat="50.331446975469589" lon="6.944076027721167">
        <ele>621.63</ele>
        <time>2018-07-01T06:03:34Z</time>
      </trkpt>
      <trkpt lat="50.331396013498306" lon="6.943995980545878">
        <ele>621.63</ele>
        <time>2018-07-01T06:03:35Z</time>
      </trkpt>
      <trkpt lat="50.331086972728372" lon="6.943514021113515">
        <ele>623.07000000000005</ele>
        <time>2018-07-01T06:03:40Z</time>
      </trkpt>
      <trkpt lat="50.330532006919384" lon="6.942545995116234">
        <ele>622.11000000000001</ele>
        <time>2018-07-01T06:03:50Z</time>
      </trkpt>
      <trkpt lat="50.330466963350773" lon="6.942406017333269">
        <ele>621.63</ele>
        <time>2018-07-01T06:03:51Z</time>
      </trkpt>
      <trkpt lat="50.330421030521393" lon="6.94223796017468">
        <ele>620.66999999999996</ele>
        <time>2018-07-01T06:03:52Z</time>
      </trkpt>
      <trkpt lat="50.330224977806211" lon="6.940773976966739">
        <ele>613.94000000000005</ele>
        <time>2018-07-01T06:04:00Z</time>
      </trkpt>
      <trkpt lat="50.330344000831246" lon="6.939690029248595">
        <ele>610.57000000000005</ele>
        <time>2018-07-01T06:04:05Z</time>
      </trkpt>
      <trkpt lat="50.330365039408207" lon="6.939503028988838">
        <ele>609.61000000000001</ele>
        <time>2018-07-01T06:04:06Z</time>
      </trkpt>
      <trkpt lat="50.330429999157786" lon="6.939240004867315">
        <ele>608.64999999999998</ele>
        <time>2018-07-01T06:04:07Z</time>
      </trkpt>
      <trkpt lat="50.330477021634579" lon="6.93903598934412">
        <ele>608.16999999999996</ele>
        <time>2018-07-01T06:04:08Z</time>
      </trkpt>
      <trkpt lat="50.330526977777481" lon="6.938816970214248">
        <ele>607.69000000000005</ele>
        <time>2018-07-01T06:04:09Z</time>
      </trkpt>
      <trkpt lat="50.330557990819216" lon="6.938682021573186">
        <ele>607.21000000000004</ele>
        <time>2018-07-01T06:04:10Z</time>
      </trkpt>
      <trkpt lat="50.33061096444726" lon="6.938404999673367">
        <ele>606.25</ele>
        <time>2018-07-01T06:04:11Z</time>
      </trkpt>
      <trkpt lat="50.330686988309026" lon="6.938081039115787">
        <ele>605.28999999999996</ele>
        <time>2018-07-01T06:04:12Z</time>
      </trkpt>
      <trkpt lat="50.330712972208858" lon="6.937966039404273">
        <ele>604.80999999999995</ele>
        <time>2018-07-01T06:04:13Z</time>
      </trkpt>
      <trkpt lat="50.33075999468565" lon="6.937755988910794">
        <ele>603.85000000000002</ele>
        <time>2018-07-01T06:04:14Z</time>
      </trkpt>
      <trkpt lat="50.33138201572001" lon="6.935887997969985">
        <ele>601.44000000000005</ele>
        <time>2018-07-01T06:04:24Z</time>
      </trkpt>
      <trkpt lat="50.331832962110639" lon="6.935289027169347">
        <ele>599.51999999999998</ele>
        <time>2018-07-01T06:04:30Z</time>
      </trkpt>
      <trkpt lat="50.331874033436179" lon="6.935245022177696">
        <ele>599.03999999999996</ele>
        <time>2018-07-01T06:04:32Z</time>
      </trkpt>
      <trkpt lat="50.331874033436179" lon="6.935245022177696">
        <ele>599.03999999999996</ele>
        <time>2018-07-01T06:04:33Z</time>
      </trkpt>
      <trkpt lat="50.331909991800785" lon="6.935205962508917">
        <ele>597.60000000000002</ele>
        <time>2018-07-01T06:04:40Z</time>
      </trkpt>
      <trkpt lat="50.331874033436179" lon="6.935142008587718">
        <ele>597.60000000000002</ele>
        <time>2018-07-01T06:04:41Z</time>
      </trkpt>
      <trkpt lat="50.331661971285939" lon="6.934751998633146">
        <ele>597.12</ele>
        <time>2018-07-01T06:04:50Z</time>
      </trkpt>
      <trkpt lat="50.331682004034519" lon="6.934791980311275">
        <ele>597.12</ele>
        <time>2018-07-01T06:04:52Z</time>
      </trkpt>
      <trkpt lat="50.331694995984435" lon="6.934816958382726">
        <ele>597.12</ele>
        <time>2018-07-01T06:04:53Z</time>
      </trkpt>
      <trkpt lat="50.331714022904634" lon="6.934856018051505">
        <ele>597.12</ele>
        <time>2018-07-01T06:04:54Z</time>
      </trkpt>
      <trkpt lat="50.331811001524329" lon="6.935032960027456">
        <ele>596.14999999999998</ele>
        <time>2018-07-01T06:05:03Z</time>
      </trkpt>
      <trkpt lat="50.331759033724666" lon="6.935368990525603">
        <ele>595.66999999999996</ele>
        <time>2018-07-01T06:05:12Z</time>
      </trkpt>
      <trkpt lat="50.331708993762732" lon="6.935421964153647">
        <ele>595.66999999999996</ele>
        <time>2018-07-01T06:05:13Z</time>
      </trkpt>
      <trkpt lat="50.33121102489531" lon="6.93620097823441">
        <ele>597.12</ele>
        <time>2018-07-01T06:05:20Z</time>
      </trkpt>
      <trkpt lat="50.330756977200508" lon="6.93776797503233">
        <ele>599.03999999999996</ele>
        <time>2018-07-01T06:05:28Z</time>
      </trkpt>
      <trkpt lat="50.330519014969468" lon="6.938853012397885">
        <ele>600.96000000000004</ele>
        <time>2018-07-01T06:05:33Z</time>
      </trkpt>
      <trkpt lat="50.330232018604875" lon="6.940684039145708">
        <ele>603.85000000000002</ele>
        <time>2018-07-01T06:05:41Z</time>
      </trkpt>
      <trkpt lat="50.330230006948113" lon="6.941111013293266">
        <ele>604.80999999999995</ele>
        <time>2018-07-01T06:05:43Z</time>
      </trkpt>
      <trkpt lat="50.330261019989848" lon="6.941526001319289">
        <ele>605.28999999999996</ele>
        <time>2018-07-01T06:05:45Z</time>
      </trkpt>
      <trkpt lat="50.330351963639259" lon="6.941933026537299">
        <ele>606.73000000000002</ele>
        <time>2018-07-01T06:05:47Z</time>
      </trkpt>
      <trkpt lat="50.330812968313694" lon="6.943105990067124">
        <ele>612.5</ele>
        <time>2018-07-01T06:05:54Z</time>
      </trkpt>
      <trkpt lat="50.33095302991569" lon="6.943308999761939">
        <ele>613.46000000000004</ele>
        <time>2018-07-01T06:05:57Z</time>
      </trkpt>
      <trkpt lat="50.330983959138393" lon="6.94335401058197">
        <ele>613.46000000000004</ele>
        <time>2018-07-01T06:05:58Z</time>
      </trkpt>
      <trkpt lat="50.331014972180128" lon="6.943402960896492">
        <ele>613.94000000000005</ele>
        <time>2018-07-01T06:05:59Z</time>
      </trkpt>
      <trkpt lat="50.331083033233881" lon="6.943507986143231">
        <ele>614.41999999999996</ele>
        <time>2018-07-01T06:06:01Z</time>
      </trkpt>
      <trkpt lat="50.331126032397151" lon="6.943575041368604">
        <ele>614.89999999999998</ele>
        <time>2018-07-01T06:06:02Z</time>
      </trkpt>
      <trkpt lat="50.331488968804479" lon="6.944140987470746">
        <ele>618.75</ele>
        <time>2018-07-01T06:06:12Z</time>
      </trkpt>
      <trkpt lat="50.331521993502975" lon="6.944193039089441">
        <ele>618.75</ele>
        <time>2018-07-01T06:06:13Z</time>
      </trkpt>
      <trkpt lat="50.331509001553059" lon="6.944254981353879">
        <ele>619.23000000000002</ele>
        <time>2018-07-01T06:06:14Z</time>
      </trkpt>
      <trkpt lat="50.331499027088284" lon="6.944404011592269">
        <ele>619.23000000000002</ele>
        <time>2018-07-01T06:06:15Z</time>
      </trkpt>
      <trkpt lat="50.331524005159736" lon="6.944453967735171">
        <ele>619.23000000000002</ele>
        <time>2018-07-01T06:06:16Z</time>
      </trkpt>
      <trkpt lat="50.331611009314656" lon="6.944489004090428">
        <ele>619.23000000000002</ele>
        <time>2018-07-01T06:06:17Z</time>
      </trkpt>
      <trkpt lat="50.331630958244205" lon="6.944496966898441">
        <ele>619.71000000000004</ele>
        <time>2018-07-01T06:06:18Z</time>
      </trkpt>
      <trkpt lat="50.331815024837852" lon="6.944639040157199">
        <ele>619.71000000000004</ele>
        <time>2018-07-01T06:06:20Z</time>
      </trkpt>
      <trkpt lat="50.33187503926456" lon="6.944730989634991">
        <ele>620.19000000000005</ele>
        <time>2018-07-01T06:06:21Z</time>
      </trkpt>
      <trkpt lat="50.33213303424418" lon="6.945131979882717">
        <ele>619.71000000000004</ele>
        <time>2018-07-01T06:06:25Z</time>
      </trkpt>
      <trkpt lat="50.332971978932619" lon="6.946443999186158">
        <ele>613.94000000000005</ele>
        <time>2018-07-01T06:06:36Z</time>
      </trkpt>
      <trkpt lat="50.333485035225749" lon="6.94737296551466">
        <ele>614.41999999999996</ele>
        <time>2018-07-01T06:06:45Z</time>
      </trkpt>
      <trkpt lat="50.333801032975316" lon="6.947568012401462">
        <ele>644.22000000000003</ele>
        <time>2018-07-01T06:13:32Z</time>
      </trkpt>
      <trkpt lat="50.333802038803697" lon="6.947639007121325">
        <ele>665.85000000000002</ele>
        <time>2018-07-01T06:14:18Z</time>
      </trkpt>
      <trkpt lat="50.333793992176652" lon="6.947361985221505">
        <ele>644.70000000000005</ele>
        <time>2018-07-01T06:15:04Z</time>
      </trkpt>
      <trkpt lat="50.333820981904864" lon="6.947290990501642">
        <ele>636.52999999999997</ele>
        <time>2018-07-01T06:15:53Z</time>
      </trkpt>
      <trkpt lat="50.333778988569975" lon="6.947293002158403">
        <ele>636.04999999999995</ele>
        <time>2018-07-01T06:15:56Z</time>
      </trkpt>
      <trkpt lat="50.333758033812046" lon="6.947328960523009">
        <ele>635.57000000000005</ele>
        <time>2018-07-01T06:15:57Z</time>
      </trkpt>
      <trkpt lat="50.333728026598692" lon="6.947380006313324">
        <ele>635.09000000000003</ele>
        <time>2018-07-01T06:15:58Z</time>
      </trkpt>
      <trkpt lat="50.333699025213718" lon="6.947429962456226">
        <ele>634.61000000000001</ele>
        <time>2018-07-01T06:15:59Z</time>
      </trkpt>
      <trkpt lat="50.333655020222068" lon="6.947474973276258">
        <ele>634.13</ele>
        <time>2018-07-01T06:16:00Z</time>
      </trkpt>
      <trkpt lat="50.333623001351953" lon="6.947466004639864">
        <ele>633.64999999999998</ele>
        <time>2018-07-01T06:16:01Z</time>
      </trkpt>
      <trkpt lat="50.33359500579536" lon="6.947458041831851">
        <ele>633.16999999999996</ele>
        <time>2018-07-01T06:16:02Z</time>
      </trkpt>
      <trkpt lat="50.333567010238767" lon="6.947449995204806">
        <ele>633.16999999999996</ele>
        <time>2018-07-01T06:16:03Z</time>
      </trkpt>
      <trkpt lat="50.33353297971189" lon="6.947440020740032">
        <ele>632.67999999999995</ele>
        <time>2018-07-01T06:16:04Z</time>
      </trkpt>
      <trkpt lat="50.333519987761974" lon="6.94743599742651">
        <ele>632.20000000000005</ele>
        <time>2018-07-01T06:16:05Z</time>
      </trkpt>
      <trkpt lat="50.333471959456801" lon="6.94734999909997">
        <ele>631.72000000000003</ele>
        <time>2018-07-01T06:16:06Z</time>
      </trkpt>
      <trkpt lat="50.333428960293531" lon="6.947271963581443">
        <ele>630.75999999999999</ele>
        <time>2018-07-01T06:16:07Z</time>
      </trkpt>
      <trkpt lat="50.333377998322248" lon="6.947180014103651">
        <ele>628.84000000000003</ele>
        <time>2018-07-01T06:16:08Z</time>
      </trkpt>
      <trkpt lat="50.333324018865824" lon="6.947082029655576">
        <ele>627.88</ele>
        <time>2018-07-01T06:16:09Z</time>
      </trkpt>
      <trkpt lat="50.33275899477303" lon="6.946083996444941">
        <ele>625.96000000000004</ele>
        <time>2018-07-01T06:16:17Z</time>
      </trkpt>
      <trkpt lat="50.331948967650533" lon="6.944846995174885">
        <ele>624.99000000000001</ele>
        <time>2018-07-01T06:16:27Z</time>
      </trkpt>
      <trkpt lat="50.331756016239524" lon="6.944548012688756">
        <ele>624.02999999999997</ele>
        <time>2018-07-01T06:16:30Z</time>
      </trkpt>
      <trkpt lat="50.331704970449209" lon="6.944467965513468">
        <ele>623.54999999999995</ele>
        <time>2018-07-01T06:16:31Z</time>
      </trkpt>
      <trkpt lat="50.331696001812816" lon="6.944275014102459">
        <ele>622.59000000000003</ele>
        <time>2018-07-01T06:16:32Z</time>
      </trkpt>
      <trkpt lat="50.331674963235855" lon="6.944180969148874">
        <ele>622.59000000000003</ele>
        <time>2018-07-01T06:16:33Z</time>
      </trkpt>
      <trkpt lat="50.331610003486276" lon="6.944132018834353">
        <ele>622.11000000000001</ele>
        <time>2018-07-01T06:16:34Z</time>
      </trkpt>
      <trkpt lat="50.331475976854563" lon="6.944121038541198">
        <ele>621.63</ele>
        <time>2018-07-01T06:16:35Z</time>
      </trkpt>
      <trkpt lat="50.331407999619842" lon="6.944015007466078">
        <ele>621.63</ele>
        <time>2018-07-01T06:16:36Z</time>
      </trkpt>
      <trkpt lat="50.330668967217207" lon="6.942839026451111">
        <ele>619.71000000000004</ele>
        <time>2018-07-01T06:16:44Z</time>
      </trkpt>
      <trkpt lat="50.330581041052938" lon="6.942651020362973">
        <ele>618.75</ele>
        <time>2018-07-01T06:16:45Z</time>
      </trkpt>
      <trkpt lat="50.330493031069636" lon="6.942461002618074">
        <ele>617.77999999999997</ele>
        <time>2018-07-01T06:16:46Z</time>
      </trkpt>
      <trkpt lat="50.330420024693012" lon="6.942232009023428">
        <ele>616.82000000000005</ele>
        <time>2018-07-01T06:16:47Z</time>
      </trkpt>
      <trkpt lat="50.330365961417556" lon="6.941992035135627">
        <ele>615.38</ele>
        <time>2018-07-01T06:16:48Z</time>
      </trkpt>
      <trkpt lat="50.33030997030437" lon="6.941747032105923">
        <ele>614.41999999999996</ele>
        <time>2018-07-01T06:16:49Z</time>
      </trkpt>
      <trkpt lat="50.330255990847945" lon="6.941490964964032">
        <ele>613.46000000000004</ele>
        <time>2018-07-01T06:16:50Z</time>
      </trkpt>
      <trkpt lat="50.330237969756126" lon="6.941218972206116">
        <ele>612.5</ele>
        <time>2018-07-01T06:16:51Z</time>
      </trkpt>
      <trkpt lat="50.330219026654959" lon="6.940942034125328">
        <ele>611.53999999999996</ele>
        <time>2018-07-01T06:16:52Z</time>
      </trkpt>
      <trkpt lat="50.330235036090016" lon="6.940650008618832">
        <ele>610.57000000000005</ele>
        <time>2018-07-01T06:16:53Z</time>
      </trkpt>
      <trkpt lat="50.330259008333087" lon="6.94036602973938">
        <ele>609.61000000000001</ele>
        <time>2018-07-01T06:16:54Z</time>
      </trkpt>
      <trkpt lat="50.330282980576158" lon="6.940080039203167">
        <ele>608.64999999999998</ele>
        <time>2018-07-01T06:16:55Z</time>
      </trkpt>
      <trkpt lat="50.330316005274653" lon="6.939801005646586">
        <ele>607.69000000000005</ele>
        <time>2018-07-01T06:16:56Z</time>
      </trkpt>
      <trkpt lat="50.330365039408207" lon="6.939496994018555">
        <ele>606.73000000000002</ele>
        <time>2018-07-01T06:16:57Z</time>
      </trkpt>
      <trkpt lat="50.330494036898017" lon="6.938961977139115">
        <ele>604.33000000000004</ele>
        <time>2018-07-01T06:16:59Z</time>
      </trkpt>
      <trkpt lat="50.330555979162455" lon="6.938689984381199">
        <ele>603.85000000000002</ele>
        <time>2018-07-01T06:17:00Z</time>
      </trkpt>
      <trkpt lat="50.33061197027564" lon="6.938400976359844">
        <ele>603.36000000000001</ele>
        <time>2018-07-01T06:17:01Z</time>
      </trkpt>
      <trkpt lat="50.33073702827096" lon="6.937860008329153">
        <ele>602.39999999999998</ele>
        <time>2018-07-01T06:17:03Z</time>
      </trkpt>
      <trkpt lat="50.331345973536372" lon="6.935953963547945">
        <ele>599.51999999999998</ele>
        <time>2018-07-01T06:17:11Z</time>
      </trkpt>
      <trkpt lat="50.331459967419505" lon="6.935753971338272">
        <ele>599.51999999999998</ele>
        <time>2018-07-01T06:17:12Z</time>
      </trkpt>
      <trkpt lat="50.331588964909315" lon="6.935566971078515">
        <ele>599.03999999999996</ele>
        <time>2018-07-01T06:17:13Z</time>
      </trkpt>
      <trkpt lat="50.333132995292544" lon="6.933810962364078">
        <ele>592.78999999999996</ele>
        <time>2018-07-01T06:17:23Z</time>
      </trkpt>
      <trkpt lat="50.333258975297213" lon="6.933574005961418">
        <ele>592.30999999999995</ele>
        <time>2018-07-01T06:17:24Z</time>
      </trkpt>
      <trkpt lat="50.333361988887191" lon="6.933324979618192">
        <ele>591.35000000000002</ele>
        <time>2018-07-01T06:17:25Z</time>
      </trkpt>
      <trkpt lat="50.333440024405718" lon="6.933054998517036">
        <ele>590.87</ele>
        <time>2018-07-01T06:17:26Z</time>
      </trkpt>
      <trkpt lat="50.333508001640439" lon="6.932769007980824">
        <ele>590.38999999999999</ele>
        <time>2018-07-01T06:17:27Z</time>
      </trkpt>
      <trkpt lat="50.333556029945612" lon="6.932470025494695">
        <ele>589.90999999999997</ele>
        <time>2018-07-01T06:17:28Z</time>
      </trkpt>
      <trkpt lat="50.333585031330585" lon="6.932156039401889">
        <ele>589.42999999999995</ele>
        <time>2018-07-01T06:17:29Z</time>
      </trkpt>
      <trkpt lat="50.333612021058798" lon="6.931829983368516">
        <ele>588.95000000000005</ele>
        <time>2018-07-01T06:17:30Z</time>
      </trkpt>
      <trkpt lat="50.333840008825064" lon="6.928966976702213">
        <ele>584.13999999999999</ele>
        <time>2018-07-01T06:17:39Z</time>
      </trkpt>
      <trkpt lat="50.334309982135892" lon="6.926447041332722">
        <ele>576.92999999999995</ele>
        <time>2018-07-01T06:17:48Z</time>
      </trkpt>
      <trkpt lat="50.334827983751893" lon="6.923168040812016">
        <ele>565.87</ele>
        <time>2018-07-01T06:17:58Z</time>
      </trkpt>
      <trkpt lat="50.335661983117461" lon="6.920309979468584">
        <ele>556.25999999999999</ele>
        <time>2018-07-01T06:18:07Z</time>
      </trkpt>
      <trkpt lat="50.336968973278999" lon="6.917669009417296">
        <ele>550.49000000000001</ele>
        <time>2018-07-01T06:18:16Z</time>
      </trkpt>
      <trkpt lat="50.33812902867794" lon="6.915460964664817">
        <ele>549.52999999999997</ele>
        <time>2018-07-01T06:18:24Z</time>
      </trkpt>
      <trkpt lat="50.338725987821817" lon="6.91402698867023">
        <ele>550.00999999999999</ele>
        <time>2018-07-01T06:18:29Z</time>
      </trkpt>
      <trkpt lat="50.338793965056539" lon="6.913696993142366">
        <ele>550.00999999999999</ele>
        <time>2018-07-01T06:18:30Z</time>
      </trkpt>
      <trkpt lat="50.338863031938672" lon="6.9133619684726">
        <ele>550.00999999999999</ele>
        <time>2018-07-01T06:18:31Z</time>
      </trkpt>
      <trkpt lat="50.338907958939672" lon="6.913033984601498">
        <ele>550.00999999999999</ele>
        <time>2018-07-01T06:18:32Z</time>
      </trkpt>
      <trkpt lat="50.338949030265212" lon="6.912689991295338">
        <ele>549.52999999999997</ele>
        <time>2018-07-01T06:18:33Z</time>
      </trkpt>
      <trkpt lat="50.338951963931322" lon="6.912338035181165">
        <ele>549.04999999999995</ele>
        <time>2018-07-01T06:18:34Z</time>
      </trkpt>
      <trkpt lat="50.33898901194334" lon="6.908713029697537">
        <ele>548.57000000000005</ele>
        <time>2018-07-01T06:18:44Z</time>
      </trkpt>
      <trkpt lat="50.339034022763371" lon="6.903919000178576">
        <ele>539.44000000000005</ele>
        <time>2018-07-01T06:18:57Z</time>
      </trkpt>
      <trkpt lat="50.338759012520313" lon="6.900316039100289">
        <ele>540.88</ele>
        <time>2018-07-01T06:19:07Z</time>
      </trkpt>
      <trkpt lat="50.338113019242883" lon="6.897898027673364">
        <ele>533.19000000000005</ele>
        <time>2018-07-01T06:19:14Z</time>
      </trkpt>
      <trkpt lat="50.337852006778121" lon="6.896012015640736">
        <ele>525.01999999999998</ele>
        <time>2018-07-01T06:19:20Z</time>
      </trkpt>
      <trkpt lat="50.337890982627869" lon="6.893361993134022">
        <ele>522.61000000000001</ele>
        <time>2018-07-01T06:19:29Z</time>
      </trkpt>
      <trkpt lat="50.338026015087962" lon="6.889871014282107">
        <ele>526.94000000000005</ele>
        <time>2018-07-01T06:19:40Z</time>
      </trkpt>
      <trkpt lat="50.338180996477604" lon="6.887945020571351">
        <ele>529.82000000000005</ele>
        <time>2018-07-01T06:19:46Z</time>
      </trkpt>
      <trkpt lat="50.338308988139033" lon="6.887336997315288">
        <ele>530.29999999999995</ele>
        <time>2018-07-01T06:19:48Z</time>
      </trkpt>
      <trkpt lat="50.338392974808812" lon="6.887038014829159">
        <ele>530.78999999999996</ele>
        <time>2018-07-01T06:19:49Z</time>
      </trkpt>
      <trkpt lat="50.338482996448874" lon="6.886751018464565">
        <ele>531.26999999999998</ele>
        <time>2018-07-01T06:19:50Z</time>
      </trkpt>
      <trkpt lat="50.338596990332007" lon="6.886480031535029">
        <ele>531.26999999999998</ele>
        <time>2018-07-01T06:19:51Z</time>
      </trkpt>
      <trkpt lat="50.33873101696372" lon="6.886229999363422">
        <ele>531.75</ele>
        <time>2018-07-01T06:19:52Z</time>
      </trkpt>
      <trkpt lat="50.338870994746685" lon="6.88598700799048">
        <ele>531.75</ele>
        <time>2018-07-01T06:19:53Z</time>
      </trkpt>
      <trkpt lat="50.339023964479566" lon="6.885758014395833">
        <ele>531.75</ele>
        <time>2018-07-01T06:19:54Z</time>
      </trkpt>
      <trkpt lat="50.339189004153013" lon="6.885547963902354">
        <ele>531.75</ele>
        <time>2018-07-01T06:19:55Z</time>
      </trkpt>
      <trkpt lat="50.339364018291235" lon="6.885358029976487">
        <ele>531.75</ele>
        <time>2018-07-01T06:19:56Z</time>
      </trkpt>
      <trkpt lat="50.339545989409089" lon="6.885187961161137">
        <ele>531.26999999999998</ele>
        <time>2018-07-01T06:19:57Z</time>
      </trkpt>
      <trkpt lat="50.339744975790381" lon="6.885066004469991">
        <ele>531.26999999999998</ele>
        <time>2018-07-01T06:19:58Z</time>
      </trkpt>
      <trkpt lat="50.339945973828435" lon="6.884961985051632">
        <ele>531.26999999999998</ele>
        <time>2018-07-01T06:19:59Z</time>
      </trkpt>
      <trkpt lat="50.340147977694869" lon="6.884857965633273">
        <ele>530.78999999999996</ele>
        <time>2018-07-01T06:20:00Z</time>
      </trkpt>
      <trkpt lat="50.340350987389684" lon="6.884759981185198">
        <ele>530.29999999999995</ele>
        <time>2018-07-01T06:20:01Z</time>
      </trkpt>
      <trkpt lat="50.342710996046662" lon="6.883763959631324">
        <ele>527.89999999999998</ele>
        <time>2018-07-01T06:20:12Z</time>
      </trkpt>
      <trkpt lat="50.344778979197145" lon="6.883448967710137">
        <ele>520.21000000000004</ele>
        <time>2018-07-01T06:20:21Z</time>
      </trkpt>
      <trkpt lat="50.347320036962628" lon="6.882857037708163">
        <ele>506.75</ele>
        <time>2018-07-01T06:20:32Z</time>
      </trkpt>
      <trkpt lat="50.349264973774552" lon="6.881751967594028">
        <ele>501.45999999999998</ele>
        <time>2018-07-01T06:20:41Z</time>
      </trkpt>
      <trkpt lat="50.35119398497045" lon="6.880425028502941">
        <ele>490.88999999999999</ele>
        <time>2018-07-01T06:20:50Z</time>
      </trkpt>
      <trkpt lat="50.351367993280292" lon="6.880211038514972">
        <ele>489.93000000000001</ele>
        <time>2018-07-01T06:20:51Z</time>
      </trkpt>
      <trkpt lat="50.351525992155075" lon="6.879961006343365">
        <ele>489.44999999999999</ele>
        <time>2018-07-01T06:20:52Z</time>
      </trkpt>
      <trkpt lat="50.351687008515" lon="6.879708962514997">
        <ele>488.97000000000003</ele>
        <time>2018-07-01T06:20:53Z</time>
      </trkpt>
      <trkpt lat="50.351824974641204" lon="6.879430012777448">
        <ele>489.44999999999999</ele>
        <time>2018-07-01T06:20:54Z</time>
      </trkpt>
      <trkpt lat="50.353009002283216" lon="6.876765992492437">
        <ele>494.74000000000001</ele>
        <time>2018-07-01T06:21:03Z</time>
      </trkpt>
      <trkpt lat="50.354244997724891" lon="6.874702032655478">
        <ele>496.66000000000003</ele>
        <time>2018-07-01T06:21:11Z</time>
      </trkpt>
      <trkpt lat="50.355795985087752" lon="6.872535981237888">
        <ele>493.29000000000002</ele>
        <time>2018-07-01T06:21:22Z</time>
      </trkpt>
      <trkpt lat="50.356804998591542" lon="6.8709069583565">
        <ele>484.63999999999999</ele>
        <time>2018-07-01T06:21:30Z</time>
      </trkpt>
      <trkpt lat="50.356899965554476" lon="6.870650975033641">
        <ele>482.72000000000003</ele>
        <time>2018-07-01T06:21:31Z</time>
      </trkpt>
      <trkpt lat="50.356985041871667" lon="6.870381999760866">
        <ele>481.27999999999997</ele>
        <time>2018-07-01T06:21:32Z</time>
      </trkpt>
      <trkpt lat="50.35705997608602" lon="6.870098020881414">
        <ele>479.83999999999997</ele>
        <time>2018-07-01T06:21:33Z</time>
      </trkpt>
      <trkpt lat="50.357134994119406" lon="6.869811024516821">
        <ele>478.38999999999999</ele>
        <time>2018-07-01T06:21:34Z</time>
      </trkpt>
      <trkpt lat="50.35718897357583" lon="6.86950902454555">
        <ele>476.94999999999999</ele>
        <time>2018-07-01T06:21:35Z</time>
      </trkpt>
      <trkpt lat="50.35722803324461" lon="6.869196966290474">
        <ele>475.99000000000001</ele>
        <time>2018-07-01T06:21:36Z</time>
      </trkpt>
      <trkpt lat="50.357238007709384" lon="6.868877029046416">
        <ele>475.02999999999997</ele>
        <time>2018-07-01T06:21:37Z</time>
      </trkpt>
      <trkpt lat="50.357245970517397" lon="6.868557007983327">
        <ele>474.55000000000001</ele>
        <time>2018-07-01T06:21:38Z</time>
      </trkpt>
      <trkpt lat="50.357242031022906" lon="6.86824101023376">
        <ele>474.06999999999999</ele>
        <time>2018-07-01T06:21:39Z</time>
      </trkpt>
      <trkpt lat="50.357214035466313" lon="6.867925012484193">
        <ele>473.58999999999997</ele>
        <time>2018-07-01T06:21:40Z</time>
      </trkpt>
      <trkpt lat="50.357171036303043" lon="6.867619995027781">
        <ele>473.58999999999997</ele>
        <time>2018-07-01T06:21:41Z</time>
      </trkpt>
      <trkpt lat="50.357125019654632" lon="6.867315983399749">
        <ele>473.11000000000001</ele>
        <time>2018-07-01T06:21:42Z</time>
      </trkpt>
      <trkpt lat="50.357063999399543" lon="6.86701700091362">
        <ele>473.11000000000001</ele>
        <time>2018-07-01T06:21:43Z</time>
      </trkpt>
      <trkpt lat="50.356300994753838" lon="6.863455027341843">
        <ele>471.18000000000001</ele>
        <time>2018-07-01T06:21:55Z</time>
      </trkpt>
      <trkpt lat="50.356293031945825" lon="6.863139029592276">
        <ele>470.69999999999999</ele>
        <time>2018-07-01T06:21:56Z</time>
      </trkpt>
      <trkpt lat="50.356288002803922" lon="6.862821020185947">
        <ele>470.22000000000003</ele>
        <time>2018-07-01T06:21:57Z</time>
      </trkpt>
      <trkpt lat="50.356309963390231" lon="6.862506028264761">
        <ele>470.22000000000003</ele>
        <time>2018-07-01T06:21:58Z</time>
      </trkpt>
      <trkpt lat="50.356339970603585" lon="6.862186007201672">
        <ele>469.74000000000001</ele>
        <time>2018-07-01T06:21:59Z</time>
      </trkpt>
      <trkpt lat="50.356392022222281" lon="6.861870009452105">
        <ele>469.25999999999999</ele>
        <time>2018-07-01T06:22:00Z</time>
      </trkpt>
      <trkpt lat="50.356452958658338" lon="6.861562980338931">
        <ele>468.77999999999997</ele>
        <time>2018-07-01T06:22:01Z</time>
      </trkpt>
      <trkpt lat="50.356522025540471" lon="6.861218987032771">
        <ele>468.30000000000001</ele>
        <time>2018-07-01T06:22:02Z</time>
      </trkpt>
      <trkpt lat="50.356594026088715" lon="6.860955040901899">
        <ele>467.81999999999999</ele>
        <time>2018-07-01T06:22:03Z</time>
      </trkpt>
      <trkpt lat="50.357139017432928" lon="6.858991999179125">
        <ele>464.44999999999999</ele>
        <time>2018-07-01T06:22:11Z</time>
      </trkpt>
      <trkpt lat="50.357850976288319" lon="6.857116967439652">
        <ele>459.64999999999998</ele>
        <time>2018-07-01T06:22:21Z</time>
      </trkpt>
      <trkpt lat="50.359139023348689" lon="6.854799035936594">
        <ele>445.70999999999998</ele>
        <time>2018-07-01T06:22:34Z</time>
      </trkpt>
      <trkpt lat="50.359976962208748" lon="6.853333963081241">
        <ele>437.54000000000002</ele>
        <time>2018-07-01T06:22:40Z</time>
      </trkpt>
      <trkpt lat="50.361185967922211" lon="6.85191398486495">
        <ele>424.56</ele>
        <time>2018-07-01T06:22:46Z</time>
      </trkpt>
      <trkpt lat="50.362926973029971" lon="6.84997801668942">
        <ele>405.32999999999998</ele>
        <time>2018-07-01T06:22:55Z</time>
      </trkpt>
      <trkpt lat="50.363071979954839" lon="6.849693031981587">
        <ele>403.88999999999999</ele>
        <time>2018-07-01T06:22:56Z</time>
      </trkpt>
      <trkpt lat="50.363205000758171" lon="6.849390026181936">
        <ele>401.97000000000003</ele>
        <time>2018-07-01T06:22:57Z</time>
      </trkpt>
      <trkpt lat="50.364442002028227" lon="6.846729023382068">
        <ele>384.18000000000001</ele>
        <time>2018-07-01T06:23:06Z</time>
      </trkpt>
      <trkpt lat="50.365515975281596" lon="6.845324970781803">
        <ele>369.27999999999997</ele>
        <time>2018-07-01T06:23:12Z</time>
      </trkpt>
      <trkpt lat="50.365682020783424" lon="6.845068987458944">
        <ele>366.88</ele>
        <time>2018-07-01T06:23:13Z</time>
      </trkpt>
      <trkpt lat="50.365828033536673" lon="6.844776039943099">
        <ele>364</ele>
        <time>2018-07-01T06:23:14Z</time>
      </trkpt>
      <trkpt lat="50.366236986592412" lon="6.843452034518123">
        <ele>353.42000000000002</ele>
        <time>2018-07-01T06:23:18Z</time>
      </trkpt>
      <trkpt lat="50.366329019889235" lon="6.843113992363215">
        <ele>351.01999999999998</ele>
        <time>2018-07-01T06:23:19Z</time>
      </trkpt>
      <trkpt lat="50.36651199683547" lon="6.842435980215669">
        <ele>345.73000000000002</ele>
        <time>2018-07-01T06:23:21Z</time>
      </trkpt>
      <trkpt lat="50.366648035123944" lon="6.842156024649739">
        <ele>343.32999999999998</ele>
        <time>2018-07-01T06:23:22Z</time>
      </trkpt>
      <trkpt lat="50.367760984227061" lon="6.840279987081885">
        <ele>325.06</ele>
        <time>2018-07-01T06:23:29Z</time>
      </trkpt>
      <trkpt lat="50.368418963626027" lon="6.839237026870251">
        <ele>315.93000000000001</ele>
        <time>2018-07-01T06:23:33Z</time>
      </trkpt>
      <trkpt lat="50.368607975542545" lon="6.839038962498307">
        <ele>314.00999999999999</ele>
        <time>2018-07-01T06:23:34Z</time>
      </trkpt>
      <trkpt lat="50.368782989680767" lon="6.838855985552073">
        <ele>312.56999999999999</ele>
        <time>2018-07-01T06:23:35Z</time>
      </trkpt>
      <trkpt lat="50.36896001547575" lon="6.838724976405501">
        <ele>311.12</ele>
        <time>2018-07-01T06:23:36Z</time>
      </trkpt>
      <trkpt lat="50.369134023785591" lon="6.838649958372116">
        <ele>309.68000000000001</ele>
        <time>2018-07-01T06:23:37Z</time>
      </trkpt>
      <trkpt lat="50.369299985468388" lon="6.838581981137395">
        <ele>307.75999999999999</ele>
        <time>2018-07-01T06:23:38Z</time>
      </trkpt>
      <trkpt lat="50.36945597268641" lon="6.838517021387816">
        <ele>306.80000000000001</ele>
        <time>2018-07-01T06:23:39Z</time>
      </trkpt>
      <trkpt lat="50.369859980419278" lon="6.838437980040908">
        <ele>303.43000000000001</ele>
        <time>2018-07-01T06:23:42Z</time>
      </trkpt>
      <trkpt lat="50.370049998164177" lon="6.83844099752605">
        <ele>302.47000000000003</ele>
        <time>2018-07-01T06:23:44Z</time>
      </trkpt>
      <trkpt lat="50.370117975398898" lon="6.838449966162443">
        <ele>302.47000000000003</ele>
        <time>2018-07-01T06:23:45Z</time>
      </trkpt>
      <trkpt lat="50.370263988152146" lon="6.838344018906355">
        <ele>302.47000000000003</ele>
        <time>2018-07-01T06:23:46Z</time>
      </trkpt>
      <trkpt lat="50.370247978717089" lon="6.838286016136408">
        <ele>302.47000000000003</ele>
        <time>2018-07-01T06:23:47Z</time>
      </trkpt>
      <trkpt lat="50.37022702395916" lon="6.83820303529501">
        <ele>302.94999999999999</ele>
        <time>2018-07-01T06:23:48Z</time>
      </trkpt>
      <trkpt lat="50.370196010917425" lon="6.838088035583496">
        <ele>303.43000000000001</ele>
        <time>2018-07-01T06:23:49Z</time>
      </trkpt>
      <trkpt lat="50.370172038674355" lon="6.837769020348787">
        <ele>304.88</ele>
        <time>2018-07-01T06:23:51Z</time>
      </trkpt>
      <trkpt lat="50.370153011754155" lon="6.837565004825592">
        <ele>305.83999999999997</ele>
        <time>2018-07-01T06:23:52Z</time>
      </trkpt>
      <trkpt lat="50.370053015649319" lon="6.836881041526794">
        <ele>308.24000000000001</ele>
        <time>2018-07-01T06:23:55Z</time>
      </trkpt>
      <trkpt lat="50.369998030364513" lon="6.836650036275387">
        <ele>309.19999999999999</ele>
        <time>2018-07-01T06:23:56Z</time>
      </trkpt>
      <trkpt lat="50.369900967925787" lon="6.836420958861709">
        <ele>310.63999999999999</ele>
        <time>2018-07-01T06:23:57Z</time>
      </trkpt>
      <trkpt lat="50.369589999318123" lon="6.835685027763248">
        <ele>314.97000000000003</ele>
        <time>2018-07-01T06:24:00Z</time>
      </trkpt>
      <trkpt lat="50.369467036798596" lon="6.835504984483123">
        <ele>316.88999999999999</ele>
        <time>2018-07-01T06:24:01Z</time>
      </trkpt>
      <trkpt lat="50.3693269751966" lon="6.835300968959928">
        <ele>318.32999999999998</ele>
        <time>2018-07-01T06:24:02Z</time>
      </trkpt>
      <trkpt lat="50.369167970493436" lon="6.835134001448751">
        <ele>320.25999999999999</ele>
        <time>2018-07-01T06:24:03Z</time>
      </trkpt>
      <trkpt lat="50.368996979668736" lon="6.834964016452432">
        <ele>321.69999999999999</ele>
        <time>2018-07-01T06:24:04Z</time>
      </trkpt>
      <trkpt lat="50.368825988844037" lon="6.834792019799352">
        <ele>323.13999999999999</ele>
        <time>2018-07-01T06:24:05Z</time>
      </trkpt>
      <trkpt lat="50.368488030508161" lon="6.834453977644444">
        <ele>326.01999999999998</ele>
        <time>2018-07-01T06:24:07Z</time>
      </trkpt>
      <trkpt lat="50.3683150280267" lon="6.8343819770962">
        <ele>326.99000000000001</ele>
        <time>2018-07-01T06:24:08Z</time>
      </trkpt>
      <trkpt lat="50.36764900200069" lon="6.834138985723257">
        <ele>332.75</ele>
        <time>2018-07-01T06:24:12Z</time>
      </trkpt>
      <trkpt lat="50.367483962327242" lon="6.834130017086864">
        <ele>334.19999999999999</ele>
        <time>2018-07-01T06:24:13Z</time>
      </trkpt>
      <trkpt lat="50.367294028401375" lon="6.834118030965328">
        <ele>335.63999999999999</ele>
        <time>2018-07-01T06:24:14Z</time>
      </trkpt>
      <trkpt lat="50.367168970406055" lon="6.834172010421753">
        <ele>338.04000000000002</ele>
        <time>2018-07-01T06:24:15Z</time>
      </trkpt>
      <trkpt lat="50.367008959874511" lon="6.834239987656474">
        <ele>339.48000000000002</ele>
        <time>2018-07-01T06:24:16Z</time>
      </trkpt>
      <trkpt lat="50.366357015445828" lon="6.834389017894864">
        <ele>347.17000000000002</ele>
        <time>2018-07-01T06:24:20Z</time>
      </trkpt>
      <trkpt lat="50.366203961893916" lon="6.834349958226085">
        <ele>348.62</ele>
        <time>2018-07-01T06:24:21Z</time>
      </trkpt>
      <trkpt lat="50.365580013021827" lon="6.834146026521921">
        <ele>354.38</ele>
        <time>2018-07-01T06:24:25Z</time>
      </trkpt>
      <trkpt lat="50.365460989996791" lon="6.834090035408735">
        <ele>355.33999999999997</ele>
        <time>2018-07-01T06:24:26Z</time>
      </trkpt>
      <trkpt lat="50.365337021648884" lon="6.834024991840124">
        <ele>356.31</ele>
        <time>2018-07-01T06:24:27Z</time>
      </trkpt>
      <trkpt lat="50.365262003615499" lon="6.833881996572018">
        <ele>357.75</ele>
        <time>2018-07-01T06:24:28Z</time>
      </trkpt>
      <trkpt lat="50.36517801694572" lon="6.833721986040473">
        <ele>358.70999999999998</ele>
        <time>2018-07-01T06:24:29Z</time>
      </trkpt>
      <trkpt lat="50.365086989477277" lon="6.833550995215774">
        <ele>359.67000000000002</ele>
        <time>2018-07-01T06:24:30Z</time>
      </trkpt>
      <trkpt lat="50.364992022514343" lon="6.833371035754681">
        <ele>360.63</ele>
        <time>2018-07-01T06:24:31Z</time>
      </trkpt>
      <trkpt lat="50.364903006702662" lon="6.833141958341003">
        <ele>361.11000000000001</ele>
        <time>2018-07-01T06:24:32Z</time>
      </trkpt>
      <trkpt lat="50.364838968962431" lon="6.832893015816808">
        <ele>362.06999999999999</ele>
        <time>2018-07-01T06:24:33Z</time>
      </trkpt>
      <trkpt lat="50.364774009212852" lon="6.83263803832233">
        <ele>362.55000000000001</ele>
        <time>2018-07-01T06:24:34Z</time>
      </trkpt>
      <trkpt lat="50.364717012271285" lon="6.832392029464245">
        <ele>363.51999999999998</ele>
        <time>2018-07-01T06:24:35Z</time>
      </trkpt>
      <trkpt lat="50.364672001451254" lon="6.83216798119247">
        <ele>364.95999999999998</ele>
        <time>2018-07-01T06:24:36Z</time>
      </trkpt>
      <trkpt lat="50.364631013944745" lon="6.831959020346403">
        <ele>365.44</ele>
        <time>2018-07-01T06:24:37Z</time>
      </trkpt>
      <trkpt lat="50.364659009501338" lon="6.831719968467951">
        <ele>366.39999999999998</ele>
        <time>2018-07-01T06:24:38Z</time>
      </trkpt>
      <trkpt lat="50.364721035584807" lon="6.831530034542084">
        <ele>366.88</ele>
        <time>2018-07-01T06:24:39Z</time>
      </trkpt>
      <trkpt lat="50.364787001162767" lon="6.831327024847269">
        <ele>367.83999999999997</ele>
        <time>2018-07-01T06:24:40Z</time>
      </trkpt>
      <trkpt lat="50.36485699005425" lon="6.831109011545777">
        <ele>368.80000000000001</ele>
        <time>2018-07-01T06:24:41Z</time>
      </trkpt>
      <trkpt lat="50.364905018359423" lon="6.830869037657976">
        <ele>369.75999999999999</ele>
        <time>2018-07-01T06:24:42Z</time>
      </trkpt>
      <trkpt lat="50.364933013916016" lon="6.830601990222931">
        <ele>370.24000000000001</ele>
        <time>2018-07-01T06:24:43Z</time>
      </trkpt>
      <trkpt lat="50.364962015300989" lon="6.830318011343479">
        <ele>371.69</ele>
        <time>2018-07-01T06:24:44Z</time>
      </trkpt>
      <trkpt lat="50.364993028342724" lon="6.830029003322125">
        <ele>372.17000000000002</ele>
        <time>2018-07-01T06:24:45Z</time>
      </trkpt>
      <trkpt lat="50.364967966452241" lon="6.829745024442673">
        <ele>373.61000000000001</ele>
        <time>2018-07-01T06:24:46Z</time>
      </trkpt>
      <trkpt lat="50.364935025572777" lon="6.829487029463053">
        <ele>374.56999999999999</ele>
        <time>2018-07-01T06:24:47Z</time>
      </trkpt>
      <trkpt lat="50.364905018359423" lon="6.829250995069742">
        <ele>375.05000000000001</ele>
        <time>2018-07-01T06:24:48Z</time>
      </trkpt>
      <trkpt lat="50.364879034459591" lon="6.829045973718166">
        <ele>376.00999999999999</ele>
        <time>2018-07-01T06:24:49Z</time>
      </trkpt>
      <trkpt lat="50.364893032237887" lon="6.828862996771932">
        <ele>376.97000000000003</ele>
        <time>2018-07-01T06:24:50Z</time>
      </trkpt>
      <trkpt lat="50.364950029179454" lon="6.828740034252405">
        <ele>377.94</ele>
        <time>2018-07-01T06:24:51Z</time>
      </trkpt>
      <trkpt lat="50.365024041384459" lon="6.828669961541891">
        <ele>378.42000000000002</ele>
        <time>2018-07-01T06:24:52Z</time>
      </trkpt>
      <trkpt lat="50.365096963942051" lon="6.828600978478789">
        <ele>378.89999999999998</ele>
        <time>2018-07-01T06:24:53Z</time>
      </trkpt>
      <trkpt lat="50.365176005288959" lon="6.828525960445404">
        <ele>379.86000000000001</ele>
        <time>2018-07-01T06:24:54Z</time>
      </trkpt>
      <trkpt lat="50.365949990227818" lon="6.827820036560297">
        <ele>384.18000000000001</ele>
        <time>2018-07-01T06:25:00Z</time>
      </trkpt>
      <trkpt lat="50.367279024794698" lon="6.826584963127971">
        <ele>390.43000000000001</ele>
        <time>2018-07-01T06:25:08Z</time>
      </trkpt>
      <trkpt lat="50.36741397343576" lon="6.826458983123303">
        <ele>390.91000000000003</ele>
        <time>2018-07-01T06:25:09Z</time>
      </trkpt>
      <trkpt lat="50.36754397675395" lon="6.826312970370054">
        <ele>391.38999999999999</ele>
        <time>2018-07-01T06:25:10Z</time>
      </trkpt>
      <trkpt lat="50.367621006444097" lon="6.82610803283751">
        <ele>392.36000000000001</ele>
        <time>2018-07-01T06:25:11Z</time>
      </trkpt>
      <trkpt lat="50.367698958143592" lon="6.825899994000793">
        <ele>392.83999999999997</ele>
        <time>2018-07-01T06:25:12Z</time>
      </trkpt>
      <trkpt lat="50.367741035297513" lon="6.825651973485947">
        <ele>393.31999999999999</ele>
        <time>2018-07-01T06:25:13Z</time>
      </trkpt>
      <trkpt lat="50.367725025862455" lon="6.825385009869933">
        <ele>393.80000000000001</ele>
        <time>2018-07-01T06:25:14Z</time>
      </trkpt>
      <trkpt lat="50.367701975628734" lon="6.825105976313353">
        <ele>394.27999999999997</ele>
        <time>2018-07-01T06:25:15Z</time>
      </trkpt>
      <trkpt lat="50.367641961202025" lon="6.824843036010861">
        <ele>395.24000000000001</ele>
        <time>2018-07-01T06:25:16Z</time>
      </trkpt>
      <trkpt lat="50.367575995624065" lon="6.824555033817887">
        <ele>395.72000000000003</ele>
        <time>2018-07-01T06:25:17Z</time>
      </trkpt>
      <trkpt lat="50.366885997354984" lon="6.821929989382625">
        <ele>404.37</ele>
        <time>2018-07-01T06:25:25Z</time>
      </trkpt>
      <trkpt lat="50.365670034661889" lon="6.81959898211062">
        <ele>417.35000000000002</ele>
        <time>2018-07-01T06:25:33Z</time>
      </trkpt>
      <trkpt lat="50.365241970866919" lon="6.818812005221844">
        <ele>420.23000000000002</ele>
        <time>2018-07-01T06:25:36Z</time>
      </trkpt>
      <trkpt lat="50.365121020004153" lon="6.818531965836883">
        <ele>420.70999999999998</ele>
        <time>2018-07-01T06:25:37Z</time>
      </trkpt>
      <trkpt lat="50.365018006414175" lon="6.818220997229219">
        <ele>421.19</ele>
        <time>2018-07-01T06:25:38Z</time>
      </trkpt>
      <trkpt lat="50.364956986159086" lon="6.817873986437917">
        <ele>422.16000000000003</ele>
        <time>2018-07-01T06:25:39Z</time>
      </trkpt>
      <trkpt lat="50.364893032237887" lon="6.817517001181841">
        <ele>423.12</ele>
        <time>2018-07-01T06:25:40Z</time>
      </trkpt>
      <trkpt lat="50.364408977329731" lon="6.814142027869821">
        <ele>436.10000000000002</ele>
        <time>2018-07-01T06:25:49Z</time>
      </trkpt>
      <trkpt lat="50.363731971010566" lon="6.810687007382512">
        <ele>442.81999999999999</ele>
        <time>2018-07-01T06:25:58Z</time>
      </trkpt>
      <trkpt lat="50.36305102519691" lon="6.807821989059448">
        <ele>440.42000000000002</ele>
        <time>2018-07-01T06:26:06Z</time>
      </trkpt>
      <trkpt lat="50.361676979809999" lon="6.803175983950496">
        <ele>440.42000000000002</ele>
        <time>2018-07-01T06:26:20Z</time>
      </trkpt>
      <trkpt lat="50.360514996573329" lon="6.799537986516953">
        <ele>441.38</ele>
        <time>2018-07-01T06:26:31Z</time>
      </trkpt>
      <trkpt lat="50.359725002199411" lon="6.797546027228236">
        <ele>443.79000000000002</ele>
        <time>2018-07-01T06:26:38Z</time>
      </trkpt>
      <trkpt lat="50.359617965295911" lon="6.797373024746776">
        <ele>444.26999999999998</ele>
        <time>2018-07-01T06:26:39Z</time>
      </trkpt>
      <trkpt lat="50.35946499556303" lon="6.797271016985178">
        <ele>444.75</ele>
        <time>2018-07-01T06:26:40Z</time>
      </trkpt>
      <trkpt lat="50.359305990859866" lon="6.797163980081677">
        <ele>445.23000000000002</ele>
        <time>2018-07-01T06:26:41Z</time>
      </trkpt>
      <trkpt lat="50.35914396867156" lon="6.797073958441615">
        <ele>445.70999999999998</ele>
        <time>2018-07-01T06:26:42Z</time>
      </trkpt>
      <trkpt lat="50.358963003382087" lon="6.797034982591867">
        <ele>446.19</ele>
        <time>2018-07-01T06:26:43Z</time>
      </trkpt>
      <trkpt lat="50.35877600312233" lon="6.797026013955474">
        <ele>446.67000000000002</ele>
        <time>2018-07-01T06:26:44Z</time>
      </trkpt>
      <trkpt lat="50.358585985377431" lon="6.79704001173377">
        <ele>447.14999999999998</ele>
        <time>2018-07-01T06:26:45Z</time>
      </trkpt>
      <trkpt lat="50.358009980991483" lon="6.79697697982192">
        <ele>448.58999999999997</ele>
        <time>2018-07-01T06:26:48Z</time>
      </trkpt>
      <trkpt lat="50.357815017923713" lon="6.79691101424396">
        <ele>449.06999999999999</ele>
        <time>2018-07-01T06:26:49Z</time>
      </trkpt>
      <trkpt lat="50.35761795938015" lon="6.796800959855318">
        <ele>449.06999999999999</ele>
        <time>2018-07-01T06:26:50Z</time>
      </trkpt>
      <trkpt lat="50.356117011979222" lon="6.7961370293051">
        <ele>451</ele>
        <time>2018-07-01T06:26:57Z</time>
      </trkpt>
      <trkpt lat="50.353896981105208" lon="6.795767974108458">
        <ele>451.48000000000002</ele>
        <time>2018-07-01T06:27:06Z</time>
      </trkpt>
      <trkpt lat="50.35129901021719" lon="6.794961970299482">
        <ele>448.11000000000001</ele>
        <time>2018-07-01T06:27:16Z</time>
      </trkpt>
      <trkpt lat="50.349696977064013" lon="6.794230984523892">
        <ele>449.55000000000001</ele>
        <time>2018-07-01T06:27:23Z</time>
      </trkpt>
      <trkpt lat="50.349481981247663" lon="6.794059993699193">
        <ele>450.02999999999997</ele>
        <time>2018-07-01T06:27:24Z</time>
      </trkpt>
      <trkpt lat="50.349287018179893" lon="6.793846003711224">
        <ele>450.02999999999997</ele>
        <time>2018-07-01T06:27:25Z</time>
      </trkpt>
      <trkpt lat="50.349100017920136" lon="6.793597983196378">
        <ele>450.02999999999997</ele>
        <time>2018-07-01T06:27:26Z</time>
      </trkpt>
      <trkpt lat="50.348907988518476" lon="6.793346023187041">
        <ele>450.02999999999997</ele>
        <time>2018-07-01T06:27:27Z</time>
      </trkpt>
      <trkpt lat="50.348727023229003" lon="6.793069001287222">
        <ele>450.02999999999997</ele>
        <time>2018-07-01T06:27:28Z</time>
      </trkpt>
      <trkpt lat="50.347102023661137" lon="6.790474969893694">
        <ele>443.79000000000002</ele>
        <time>2018-07-01T06:27:37Z</time>
      </trkpt>
      <trkpt lat="50.345482975244522" lon="6.788373040035367">
        <ele>437.06</ele>
        <time>2018-07-01T06:27:46Z</time>
      </trkpt>
      <trkpt lat="50.343084996566176" lon="6.786914002150297">
        <ele>435.13</ele>
        <time>2018-07-01T06:27:57Z</time>
      </trkpt>
      <trkpt lat="50.342857008799911" lon="6.786863040179014">
        <ele>434.64999999999998</ele>
        <time>2018-07-01T06:27:58Z</time>
      </trkpt>
      <trkpt lat="50.341915972530842" lon="6.786715015769005">
        <ele>433.20999999999998</ele>
        <time>2018-07-01T06:28:02Z</time>
      </trkpt>
      <trkpt lat="50.341685973107815" lon="6.786638991907239">
        <ele>432.25</ele>
        <time>2018-07-01T06:28:03Z</time>
      </trkpt>
      <trkpt lat="50.34145999699831" lon="6.786526003852487">
        <ele>431.29000000000002</ele>
        <time>2018-07-01T06:28:04Z</time>
      </trkpt>
      <trkpt lat="50.341238966211677" lon="6.786388037726283">
        <ele>430.32999999999998</ele>
        <time>2018-07-01T06:28:05Z</time>
      </trkpt>
      <trkpt lat="50.34103000536561" lon="6.786220986396074">
        <ele>429.37</ele>
        <time>2018-07-01T06:28:06Z</time>
      </trkpt>
      <trkpt lat="50.340852979570627" lon="6.786078996956348">
        <ele>428.39999999999998</ele>
        <time>2018-07-01T06:28:07Z</time>
      </trkpt>
      <trkpt lat="50.340645024552941" lon="6.785912029445171">
        <ele>426.48000000000002</ele>
        <time>2018-07-01T06:28:09Z</time>
      </trkpt>
      <trkpt lat="50.340580986812711" lon="6.785861989483237">
        <ele>426</ele>
        <time>2018-07-01T06:28:10Z</time>
      </trkpt>
      <trkpt lat="50.34049297682941" lon="6.785666020587087">
        <ele>426</ele>
        <time>2018-07-01T06:28:11Z</time>
      </trkpt>
      <trkpt lat="50.340518038719893" lon="6.785541968420148">
        <ele>426</ele>
        <time>2018-07-01T06:28:12Z</time>
      </trkpt>
      <trkpt lat="50.340558020398021" lon="6.785344993695617">
        <ele>426</ele>
        <time>2018-07-01T06:28:13Z</time>
      </trkpt>
      <trkpt lat="50.340528013184667" lon="6.785188000649214">
        <ele>425.51999999999998</ele>
        <time>2018-07-01T06:28:14Z</time>
      </trkpt>
      <trkpt lat="50.340239005163312" lon="6.783670959994197">
        <ele>420.23000000000002</ele>
        <time>2018-07-01T06:28:20Z</time>
      </trkpt>
      <trkpt lat="50.340038007125258" lon="6.781774973496795">
        <ele>414.94999999999999</ele>
        <time>2018-07-01T06:28:26Z</time>
      </trkpt>
      <trkpt lat="50.339996013790369" lon="6.781202992424369">
        <ele>413.5</ele>
        <time>2018-07-01T06:28:28Z</time>
      </trkpt>
      <trkpt lat="50.339586976915598" lon="6.778735024854541">
        <ele>407.74000000000001</ele>
        <time>2018-07-01T06:28:37Z</time>
      </trkpt>
      <trkpt lat="50.339550012722611" lon="6.778507037088275">
        <ele>406.76999999999998</ele>
        <time>2018-07-01T06:28:38Z</time>
      </trkpt>
      <trkpt lat="50.339578008279204" lon="6.7782829888165">
        <ele>406.29000000000002</ele>
        <time>2018-07-01T06:28:39Z</time>
      </trkpt>
      <trkpt lat="50.339626958593726" lon="6.77808802574873">
        <ele>405.32999999999998</ele>
        <time>2018-07-01T06:28:40Z</time>
      </trkpt>
      <trkpt lat="50.339702982455492" lon="6.777892978861928">
        <ele>404.37</ele>
        <time>2018-07-01T06:28:41Z</time>
      </trkpt>
      <trkpt lat="50.339794009923935" lon="6.777740009129047">
        <ele>403.41000000000003</ele>
        <time>2018-07-01T06:28:42Z</time>
      </trkpt>
      <trkpt lat="50.33989199437201" lon="6.777642024680972">
        <ele>402.44999999999999</ele>
        <time>2018-07-01T06:28:43Z</time>
      </trkpt>
      <trkpt lat="50.340014034882188" lon="6.777622997760773">
        <ele>401.49000000000001</ele>
        <time>2018-07-01T06:28:44Z</time>
      </trkpt>
      <trkpt lat="50.340171027928591" lon="6.777599025517702">
        <ele>400.52999999999997</ele>
        <time>2018-07-01T06:28:45Z</time>
      </trkpt>
      <trkpt lat="50.340243028476834" lon="6.777646970003843">
        <ele>399.56999999999999</ele>
        <time>2018-07-01T06:28:46Z</time>
      </trkpt>
      <trkpt lat="50.3403639793396" lon="6.777727017179132">
        <ele>398.60000000000002</ele>
        <time>2018-07-01T06:28:47Z</time>
      </trkpt>
      <trkpt lat="50.340491971001029" lon="6.777813015505672">
        <ele>398.12</ele>
        <time>2018-07-01T06:28:48Z</time>
      </trkpt>
      <trkpt lat="50.340633038431406" lon="6.777905970811844">
        <ele>397.16000000000003</ele>
        <time>2018-07-01T06:28:49Z</time>
      </trkpt>
      <trkpt lat="50.340785002335906" lon="6.777987023815513">
        <ele>396.68000000000001</ele>
        <time>2018-07-01T06:28:50Z</time>
      </trkpt>
      <trkpt lat="50.340949036180973" lon="6.778061036020517">
        <ele>396.19999999999999</ele>
        <time>2018-07-01T06:28:51Z</time>
      </trkpt>
      <trkpt lat="50.342075983062387" lon="6.778681967407465">
        <ele>391.87</ele>
        <time>2018-07-01T06:28:58Z</time>
      </trkpt>
      <trkpt lat="50.34221101552248" lon="6.778794033452869">
        <ele>390.91000000000003</ele>
        <time>2018-07-01T06:28:59Z</time>
      </trkpt>
      <trkpt lat="50.342560037970543" lon="6.779084969311953">
        <ele>388.99000000000001</ele>
        <time>2018-07-01T06:29:02Z</time>
      </trkpt>
      <trkpt lat="50.342681994661689" lon="6.77918697707355">
        <ele>388.50999999999999</ele>
        <time>2018-07-01T06:29:03Z</time>
      </trkpt>
      <trkpt lat="50.342735974118114" lon="6.77918697707355">
        <ele>388.02999999999997</ele>
        <time>2018-07-01T06:29:04Z</time>
      </trkpt>
      <trkpt lat="50.342825995758176" lon="6.779138026759028">
        <ele>387.55000000000001</ele>
        <time>2018-07-01T06:29:05Z</time>
      </trkpt>
      <trkpt lat="50.342853991314769" lon="6.779006011784077">
        <ele>387.55000000000001</ele>
        <time>2018-07-01T06:29:06Z</time>
      </trkpt>
      <trkpt lat="50.342839993536472" lon="6.778896963223815">
        <ele>387.55000000000001</ele>
        <time>2018-07-01T06:29:07Z</time>
      </trkpt>
      <trkpt lat="50.342794982716441" lon="6.778793027624488">
        <ele>387.06999999999999</ele>
        <time>2018-07-01T06:29:08Z</time>
      </trkpt>
      <trkpt lat="50.342715019360185" lon="6.778715997934341">
        <ele>387.06999999999999</ele>
        <time>2018-07-01T06:29:09Z</time>
      </trkpt>
      <trkpt lat="50.342617034912109" lon="6.778633017092943">
        <ele>387.06999999999999</ele>
        <time>2018-07-01T06:29:10Z</time>
      </trkpt>
      <trkpt lat="50.342500023543835" lon="6.778534026816487">
        <ele>386.58999999999997</ele>
        <time>2018-07-01T06:29:11Z</time>
      </trkpt>
      <trkpt lat="50.341538032516837" lon="6.777626015245915">
        <ele>382.74000000000001</ele>
        <time>2018-07-01T06:29:17Z</time>
      </trkpt>
      <trkpt lat="50.341011984273791" lon="6.77710197865963">
        <ele>378.89999999999998</ele>
        <time>2018-07-01T06:29:20Z</time>
      </trkpt>
      <trkpt lat="50.340475961565971" lon="6.776550030335784">
        <ele>374.08999999999997</ele>
        <time>2018-07-01T06:29:24Z</time>
      </trkpt>
      <trkpt lat="50.340351993218064" lon="6.776502002030611">
        <ele>373.13</ele>
        <time>2018-07-01T06:29:25Z</time>
      </trkpt>
      <trkpt lat="50.340231964364648" lon="6.776453973725438">
        <ele>371.69</ele>
        <time>2018-07-01T06:29:26Z</time>
      </trkpt>
      <trkpt lat="50.340119982138276" lon="6.776410974562168">
        <ele>370.73000000000002</ele>
        <time>2018-07-01T06:29:27Z</time>
      </trkpt>
      <trkpt lat="50.34001998603344" lon="6.776345008984208">
        <ele>369.75999999999999</ele>
        <time>2018-07-01T06:29:28Z</time>
      </trkpt>
      <trkpt lat="50.339944968000054" lon="6.776238977909088">
        <ele>368.80000000000001</ele>
        <time>2018-07-01T06:29:29Z</time>
      </trkpt>
      <trkpt lat="50.339889982715249" lon="6.776121966540813">
        <ele>367.83999999999997</ele>
        <time>2018-07-01T06:29:30Z</time>
      </trkpt>
      <trkpt lat="50.339838014915586" lon="6.776011995971203">
        <ele>366.88</ele>
        <time>2018-07-01T06:29:31Z</time>
      </trkpt>
      <trkpt lat="50.339828040450811" lon="6.775863971561194">
        <ele>365.92000000000002</ele>
        <time>2018-07-01T06:29:32Z</time>
      </trkpt>
      <trkpt lat="50.339820999652147" lon="6.775715025141835">
        <ele>365.44</ele>
        <time>2018-07-01T06:29:33Z</time>
      </trkpt>
      <trkpt lat="50.33980599604547" lon="6.775562977418304">
        <ele>364.95999999999998</ele>
        <time>2018-07-01T06:29:34Z</time>
      </trkpt>
      <trkpt lat="50.339755034074187" lon="6.775087974965572">
        <ele>364.48000000000002</ele>
        <time>2018-07-01T06:29:37Z</time>
      </trkpt>
      <trkpt lat="50.33969996497035" lon="6.774941962212324">
        <ele>364</ele>
        <time>2018-07-01T06:29:38Z</time>
      </trkpt>
      <trkpt lat="50.33952696248889" lon="6.774487998336554">
        <ele>362.06999999999999</ele>
        <time>2018-07-01T06:29:41Z</time>
      </trkpt>
      <trkpt lat="50.338976019993424" lon="6.77321202121675">
        <ele>360.63</ele>
        <time>2018-07-01T06:29:51Z</time>
      </trkpt>
      <trkpt lat="50.338153000921011" lon="6.771889021620154">
        <ele>362.06999999999999</ele>
        <time>2018-07-01T06:30:03Z</time>
      </trkpt>
      <trkpt lat="50.338112013414502" lon="6.771826995536685">
        <ele>362.06999999999999</ele>
        <time>2018-07-01T06:30:04Z</time>
      </trkpt>
      <trkpt lat="50.338099021464586" lon="6.771737979725003">
        <ele>362.55000000000001</ele>
        <time>2018-07-01T06:30:05Z</time>
      </trkpt>
      <trkpt lat="50.338092986494303" lon="6.771653993055224">
        <ele>362.55000000000001</ele>
        <time>2018-07-01T06:30:06Z</time>
      </trkpt>
      <trkpt lat="50.338154006749392" lon="6.771140014752746">
        <ele>364.95999999999998</ele>
        <time>2018-07-01T06:30:11Z</time>
      </trkpt>
      <trkpt lat="50.338139003142715" lon="6.771015040576458">
        <ele>365.44</ele>
        <time>2018-07-01T06:30:12Z</time>
      </trkpt>
      <trkpt lat="50.338106984272599" lon="6.770927030593157">
        <ele>365.92000000000002</ele>
        <time>2018-07-01T06:30:13Z</time>
      </trkpt>
      <trkpt lat="50.338049987331033" lon="6.770832985639572">
        <ele>366.39999999999998</ele>
        <time>2018-07-01T06:30:14Z</time>
      </trkpt>
      <trkpt lat="50.337988967075944" lon="6.770732989534736">
        <ele>366.88</ele>
        <time>2018-07-01T06:30:15Z</time>
      </trkpt>
      <trkpt lat="50.337921995669603" lon="6.770623018965125">
        <ele>366.88</ele>
        <time>2018-07-01T06:30:16Z</time>
      </trkpt>
      <trkpt lat="50.337840020656586" lon="6.770530985668302">
        <ele>366.39999999999998</ele>
        <time>2018-07-01T06:30:17Z</time>
      </trkpt>
      <trkpt lat="50.337757961824536" lon="6.770455967634916">
        <ele>366.39999999999998</ele>
        <time>2018-07-01T06:30:18Z</time>
      </trkpt>
      <trkpt lat="50.337437018752098" lon="6.770163020119071">
        <ele>367.36000000000001</ele>
        <time>2018-07-01T06:30:22Z</time>
      </trkpt>
      <trkpt lat="50.337369041517377" lon="6.770071992650628">
        <ele>367.83999999999997</ele>
        <time>2018-07-01T06:30:23Z</time>
      </trkpt>
      <trkpt lat="50.337308021262288" lon="6.769966967403889">
        <ele>368.80000000000001</ele>
        <time>2018-07-01T06:30:24Z</time>
      </trkpt>
      <trkpt lat="50.337245995178819" lon="6.7698610201478">
        <ele>369.75999999999999</ele>
        <time>2018-07-01T06:30:25Z</time>
      </trkpt>
      <trkpt lat="50.33718497492373" lon="6.769754989072681">
        <ele>370.24000000000001</ele>
        <time>2018-07-01T06:30:26Z</time>
      </trkpt>
      <trkpt lat="50.337011972442269" lon="6.769278980791569">
        <ele>373.13</ele>
        <time>2018-07-01T06:30:30Z</time>
      </trkpt>
      <trkpt lat="50.33692697994411" lon="6.769038001075387">
        <ele>375.05000000000001</ele>
        <time>2018-07-01T06:30:32Z</time>
      </trkpt>
      <trkpt lat="50.33688398078084" lon="6.768915960565209">
        <ele>375.52999999999997</ele>
        <time>2018-07-01T06:30:33Z</time>
      </trkpt>
      <trkpt lat="50.336870988830924" lon="6.768781011924148">
        <ele>375.52999999999997</ele>
        <time>2018-07-01T06:30:34Z</time>
      </trkpt>
      <trkpt lat="50.336878029629588" lon="6.768640028312802">
        <ele>376.00999999999999</ele>
        <time>2018-07-01T06:30:35Z</time>
      </trkpt>
      <trkpt lat="50.33688398078084" lon="6.768499966710806">
        <ele>376.49000000000001</ele>
        <time>2018-07-01T06:30:36Z</time>
      </trkpt>
      <trkpt lat="50.33690401352942" lon="6.768370969220996">
        <ele>376.97000000000003</ele>
        <time>2018-07-01T06:30:37Z</time>
      </trkpt>
      <trkpt lat="50.33694701269269" lon="6.768252030014992">
        <ele>377.44999999999999</ele>
        <time>2018-07-01T06:30:38Z</time>
      </trkpt>
      <trkpt lat="50.337029993534088" lon="6.768023036420345">
        <ele>378.89999999999998</ele>
        <time>2018-07-01T06:30:40Z</time>
      </trkpt>
      <trkpt lat="50.337081961333752" lon="6.767879035323858">
        <ele>379.38</ele>
        <time>2018-07-01T06:30:41Z</time>
      </trkpt>
      <trkpt lat="50.337096964940429" lon="6.767853973433375">
        <ele>380.33999999999997</ele>
        <time>2018-07-01T06:30:42Z</time>
      </trkpt>
      <trkpt lat="50.337161002680659" lon="6.767750959843397">
        <ele>381.30000000000001</ele>
        <time>2018-07-01T06:30:44Z</time>
      </trkpt>
      <trkpt lat="50.337156979367137" lon="6.767634032294154">
        <ele>381.77999999999997</ele>
        <time>2018-07-01T06:30:45Z</time>
      </trkpt>
      <trkpt lat="50.337125966325402" lon="6.76756395958364">
        <ele>382.25999999999999</ele>
        <time>2018-07-01T06:30:46Z</time>
      </trkpt>
      <trkpt lat="50.337093025445938" lon="6.767489025369287">
        <ele>382.74000000000001</ele>
        <time>2018-07-01T06:30:47Z</time>
      </trkpt>
      <trkpt lat="50.337067041546106" lon="6.767430016770959">
        <ele>383.69999999999999</ele>
        <time>2018-07-01T06:30:48Z</time>
      </trkpt>
      <trkpt lat="50.337043991312385" lon="6.767376959323883">
        <ele>384.18000000000001</ele>
        <time>2018-07-01T06:30:49Z</time>
      </trkpt>
      <trkpt lat="50.337014989927411" lon="6.767311999574304">
        <ele>384.66000000000003</ele>
        <time>2018-07-01T06:30:50Z</time>
      </trkpt>
      <trkpt lat="50.336977019906044" lon="6.767226001247764">
        <ele>384.66000000000003</ele>
        <time>2018-07-01T06:30:51Z</time>
      </trkpt>
      <trkpt lat="50.33694701269269" lon="6.767086023464799">
        <ele>385.14999999999998</ele>
        <time>2018-07-01T06:30:52Z</time>
      </trkpt>
      <trkpt lat="50.336937038227916" lon="6.766951996833086">
        <ele>386.11000000000001</ele>
        <time>2018-07-01T06:30:53Z</time>
      </trkpt>
      <trkpt lat="50.336946006864309" lon="6.766783017665148">
        <ele>387.06999999999999</ele>
        <time>2018-07-01T06:30:54Z</time>
      </trkpt>
      <trkpt lat="50.33697098493576" lon="6.766628958284855">
        <ele>387.55000000000001</ele>
        <time>2018-07-01T06:30:55Z</time>
      </trkpt>
      <trkpt lat="50.337015995755792" lon="6.766459979116917">
        <ele>388.02999999999997</ele>
        <time>2018-07-01T06:30:56Z</time>
      </trkpt>
      <trkpt lat="50.337065029889345" lon="6.766283037140966">
        <ele>388.99000000000001</ele>
        <time>2018-07-01T06:30:57Z</time>
      </trkpt>
      <trkpt lat="50.33737700432539" lon="6.764971017837524">
        <ele>392.83999999999997</ele>
        <time>2018-07-01T06:31:03Z</time>
      </trkpt>
      <trkpt lat="50.337387984618545" lon="6.764703970402479">
        <ele>393.80000000000001</ele>
        <time>2018-07-01T06:31:04Z</time>
      </trkpt>
      <trkpt lat="50.337396031245589" lon="6.764428038150072">
        <ele>395.24000000000001</ele>
        <time>2018-07-01T06:31:05Z</time>
      </trkpt>
      <trkpt lat="50.337402988225222" lon="6.764144981279969">
        <ele>396.19999999999999</ele>
        <time>2018-07-01T06:31:06Z</time>
      </trkpt>
      <trkpt lat="50.337358983233571" lon="6.763858990743756">
        <ele>397.63999999999999</ele>
        <time>2018-07-01T06:31:07Z</time>
      </trkpt>
      <trkpt lat="50.33731397241354" lon="6.76356797106564">
        <ele>399.07999999999998</ele>
        <time>2018-07-01T06:31:08Z</time>
      </trkpt>
      <trkpt lat="50.33726803958416" lon="6.763275023549795">
        <ele>400.52999999999997</ele>
        <time>2018-07-01T06:31:09Z</time>
      </trkpt>
      <trkpt lat="50.337195033207536" lon="6.762992972508073">
        <ele>401.97000000000003</ele>
        <time>2018-07-01T06:31:10Z</time>
      </trkpt>
      <trkpt lat="50.337110040709376" lon="6.762720979750156">
        <ele>403.88999999999999</ele>
        <time>2018-07-01T06:31:11Z</time>
      </trkpt>
      <trkpt lat="50.33701398409903" lon="6.762453010305762">
        <ele>405.32999999999998</ele>
        <time>2018-07-01T06:31:12Z</time>
      </trkpt>
      <trkpt lat="50.336881969124079" lon="6.762242959812284">
        <ele>406.76999999999998</ele>
        <time>2018-07-01T06:31:13Z</time>
      </trkpt>
      <trkpt lat="50.336749032139778" lon="6.762030981481075">
        <ele>408.69999999999999</ele>
        <time>2018-07-01T06:31:14Z</time>
      </trkpt>
      <trkpt lat="50.336612993851304" lon="6.761814979836345">
        <ele>410.13999999999999</ele>
        <time>2018-07-01T06:31:15Z</time>
      </trkpt>
      <trkpt lat="50.336459018290043" lon="6.761569976806641">
        <ele>412.06</ele>
        <time>2018-07-01T06:31:16Z</time>
      </trkpt>
      <trkpt lat="50.335243977606297" lon="6.759758982807398">
        <ele>424.56</ele>
        <time>2018-07-01T06:31:25Z</time>
      </trkpt>
      <trkpt lat="50.334492037072778" lon="6.757899960502982">
        <ele>433.69</ele>
        <time>2018-07-01T06:31:34Z</time>
      </trkpt>
      <trkpt lat="50.333720985800028" lon="6.756074968725443">
        <ele>438.5</ele>
        <time>2018-07-01T06:31:42Z</time>
      </trkpt>
      <trkpt lat="50.332442997023463" lon="6.753587974235416">
        <ele>440.42000000000002</ele>
        <time>2018-07-01T06:31:52Z</time>
      </trkpt>
      <trkpt lat="50.330988988280296" lon="6.750440988689661">
        <ele>447.63</ele>
        <time>2018-07-01T06:32:03Z</time>
      </trkpt>
      <trkpt lat="50.330131016671658" lon="6.747519979253411">
        <ele>456.75999999999999</ele>
        <time>2018-07-01T06:32:12Z</time>
      </trkpt>
      <trkpt lat="50.329289976507425" lon="6.744036041200161">
        <ele>464.44999999999999</ele>
        <time>2018-07-01T06:32:22Z</time>
      </trkpt>
      <trkpt lat="50.328136961907148" lon="6.740055978298187">
        <ele>473.11000000000001</ele>
        <time>2018-07-01T06:32:34Z</time>
      </trkpt>
      <trkpt lat="50.327439000830054" lon="6.738179018720985">
        <ele>478.38999999999999</ele>
        <time>2018-07-01T06:32:40Z</time>
      </trkpt>
      <trkpt lat="50.32729902304709" lon="6.737936027348042">
        <ele>478.87</ele>
        <time>2018-07-01T06:32:41Z</time>
      </trkpt>
      <trkpt lat="50.326157994568348" lon="6.736326031386852">
        <ele>475.99000000000001</ele>
        <time>2018-07-01T06:32:49Z</time>
      </trkpt>
      <trkpt lat="50.325299017131329" lon="6.735248034819961">
        <ele>472.63</ele>
        <time>2018-07-01T06:32:56Z</time>
      </trkpt>
      <trkpt lat="50.325169013813138" lon="6.735109984874725">
        <ele>471.66000000000003</ele>
        <time>2018-07-01T06:32:57Z</time>
      </trkpt>
      <trkpt lat="50.323663037270308" lon="6.734225023537874">
        <ele>470.22000000000003</ele>
        <time>2018-07-01T06:33:06Z</time>
      </trkpt>
      <trkpt lat="50.322588980197906" lon="6.733673997223377">
        <ele>473.11000000000001</ele>
        <time>2018-07-01T06:33:12Z</time>
      </trkpt>
      <trkpt lat="50.322455959394574" lon="6.733574001118541">
        <ele>474.06999999999999</ele>
        <time>2018-07-01T06:33:13Z</time>
      </trkpt>
      <trkpt lat="50.322344982996583" lon="6.733455983921886">
        <ele>474.55000000000001</ele>
        <time>2018-07-01T06:33:14Z</time>
      </trkpt>
      <trkpt lat="50.32225102186203" lon="6.73335699364543">
        <ele>475.02999999999997</ele>
        <time>2018-07-01T06:33:15Z</time>
      </trkpt>
      <trkpt lat="50.322182038798928" lon="6.733283987268806">
        <ele>475.50999999999999</ele>
        <time>2018-07-01T06:33:16Z</time>
      </trkpt>
      <trkpt lat="50.322142979130149" lon="6.733149038627744">
        <ele>475.99000000000001</ele>
        <time>2018-07-01T06:33:17Z</time>
      </trkpt>
      <trkpt lat="50.322166029363871" lon="6.733051976189017">
        <ele>475.99000000000001</ele>
        <time>2018-07-01T06:33:18Z</time>
      </trkpt>
      <trkpt lat="50.322193019092083" lon="6.732937982305884">
        <ele>476.47000000000003</ele>
        <time>2018-07-01T06:33:19Z</time>
      </trkpt>
      <trkpt lat="50.322225037962198" lon="6.732802027836442">
        <ele>476.47000000000003</ele>
        <time>2018-07-01T06:33:20Z</time>
      </trkpt>
      <trkpt lat="50.322263007983565" lon="6.732642017304897">
        <ele>476.94999999999999</ele>
        <time>2018-07-01T06:33:21Z</time>
      </trkpt>
      <trkpt lat="50.322585040703416" lon="6.731275012716651">
        <ele>478.38999999999999</ele>
        <time>2018-07-01T06:33:27Z</time>
      </trkpt>
      <trkpt lat="50.323141012340784" lon="6.729048024863005">
        <ele>484.16000000000003</ele>
        <time>2018-07-01T06:33:35Z</time>
      </trkpt>
      <trkpt lat="50.323587013408542" lon="6.727700969204307">
        <ele>488.00999999999999</ele>
        <time>2018-07-01T06:33:42Z</time>
      </trkpt>
      <trkpt lat="50.323683992028236" lon="6.727580018341541">
        <ele>488.97000000000003</ele>
        <time>2018-07-01T06:33:43Z</time>
      </trkpt>
      <trkpt lat="50.323780970647931" lon="6.727457977831364">
        <ele>489.44999999999999</ele>
        <time>2018-07-01T06:33:44Z</time>
      </trkpt>
      <trkpt lat="50.324497036635876" lon="6.726559018716216">
        <ele>494.25999999999999</ele>
        <time>2018-07-01T06:33:52Z</time>
      </trkpt>
      <trkpt lat="50.324571970850229" lon="6.726464973762631">
        <ele>494.74000000000001</ele>
        <time>2018-07-01T06:33:53Z</time>
      </trkpt>
      <trkpt lat="50.324670961126685" lon="6.726435972377658">
        <ele>495.69999999999999</ele>
        <time>2018-07-01T06:33:54Z</time>
      </trkpt>
      <trkpt lat="50.324867013841867" lon="6.726332036778331">
        <ele>496.66000000000003</ele>
        <time>2018-07-01T06:33:56Z</time>
      </trkpt>
      <trkpt lat="50.324968015775084" lon="6.726246038451791">
        <ele>496.66000000000003</ele>
        <time>2018-07-01T06:33:57Z</time>
      </trkpt>
      <trkpt lat="50.325906034559011" lon="6.725198971107602">
        <ele>496.18000000000001</ele>
        <time>2018-07-01T06:34:04Z</time>
      </trkpt>
      <trkpt lat="50.327476970851421" lon="6.723612025380135">
        <ele>506.26999999999998</ele>
        <time>2018-07-01T06:34:12Z</time>
      </trkpt>
      <trkpt lat="50.329155027866364" lon="6.722338981926441">
        <ele>520.69000000000005</ele>
        <time>2018-07-01T06:34:20Z</time>
      </trkpt>
      <trkpt lat="50.329327024519444" lon="6.722113005816937">
        <ele>522.13</ele>
        <time>2018-07-01T06:34:21Z</time>
      </trkpt>
      <trkpt lat="50.329473959282041" lon="6.721844030544162">
        <ele>524.05999999999995</ele>
        <time>2018-07-01T06:34:22Z</time>
      </trkpt>
      <trkpt lat="50.329611003398895" lon="6.721556028351188">
        <ele>525.98000000000002</ele>
        <time>2018-07-01T06:34:23Z</time>
      </trkpt>
      <trkpt lat="50.329748969525099" lon="6.721266014501452">
        <ele>527.89999999999998</ele>
        <time>2018-07-01T06:34:24Z</time>
      </trkpt>
      <trkpt lat="50.329859023913741" lon="6.720939036458731">
        <ele>529.82000000000005</ele>
        <time>2018-07-01T06:34:25Z</time>
      </trkpt>
      <trkpt lat="50.329946028068662" lon="6.720590014010668">
        <ele>531.75</ele>
        <time>2018-07-01T06:34:26Z</time>
      </trkpt>
      <trkpt lat="50.330034038051963" lon="6.720236968249083">
        <ele>534.14999999999998</ele>
        <time>2018-07-01T06:34:27Z</time>
      </trkpt>
      <trkpt lat="50.330120958387852" lon="6.719872020184994">
        <ele>536.07000000000005</ele>
        <time>2018-07-01T06:34:28Z</time>
      </trkpt>
      <trkpt lat="50.330813974142075" lon="6.716260006651282">
        <ele>552.89999999999998</ele>
        <time>2018-07-01T06:34:37Z</time>
      </trkpt>
      <trkpt lat="50.331087978556752" lon="6.713193990290165">
        <ele>557.70000000000005</ele>
        <time>2018-07-01T06:34:44Z</time>
      </trkpt>
      <trkpt lat="50.331305991858244" lon="6.709665963426232">
        <ele>554.34000000000003</ele>
        <time>2018-07-01T06:34:52Z</time>
      </trkpt>
      <trkpt lat="50.331501960754395" lon="6.708056973293424">
        <ele>552.40999999999997</ele>
        <time>2018-07-01T06:34:56Z</time>
      </trkpt>
      <trkpt lat="50.331544959917665" lon="6.707710968330503">
        <ele>551.45000000000005</ele>
        <time>2018-07-01T06:34:57Z</time>
      </trkpt>
      <trkpt lat="50.3316639829427" lon="6.707379966974258">
        <ele>550.97000000000003</ele>
        <time>2018-07-01T06:34:58Z</time>
      </trkpt>
      <trkpt lat="50.331778982654214" lon="6.707060029730201">
        <ele>550.49000000000001</ele>
        <time>2018-07-01T06:34:59Z</time>
      </trkpt>
      <trkpt lat="50.331912003457546" lon="6.706764986738563">
        <ele>549.52999999999997</ele>
        <time>2018-07-01T06:35:00Z</time>
      </trkpt>
      <trkpt lat="50.332076959311962" lon="6.706491988152266">
        <ele>548.57000000000005</ele>
        <time>2018-07-01T06:35:01Z</time>
      </trkpt>
      <trkpt lat="50.332246022298932" lon="6.706213960424066">
        <ele>548.09000000000003</ele>
        <time>2018-07-01T06:35:02Z</time>
      </trkpt>
      <trkpt lat="50.332417013123631" lon="6.705929981544614">
        <ele>547.13</ele>
        <time>2018-07-01T06:35:03Z</time>
      </trkpt>
      <trkpt lat="50.333533985540271" lon="6.703816987574101">
        <ele>541.84000000000003</ele>
        <time>2018-07-01T06:35:10Z</time>
      </trkpt>
      <trkpt lat="50.334525983780622" lon="6.700951969251037">
        <ele>535.11000000000001</ele>
        <time>2018-07-01T06:35:18Z</time>
      </trkpt>
      <trkpt lat="50.335884019732475" lon="6.696937037631869">
        <ele>531.26999999999998</ele>
        <time>2018-07-01T06:35:29Z</time>
      </trkpt>
      <trkpt lat="50.337128983810544" lon="6.6933090146631">
        <ele>530.29999999999995</ele>
        <time>2018-07-01T06:35:39Z</time>
      </trkpt>
      <trkpt lat="50.338246040046215" lon="6.6896359808743">
        <ele>523.58000000000004</ele>
        <time>2018-07-01T06:35:49Z</time>
      </trkpt>
      <trkpt lat="50.338636972010136" lon="6.686436021700501">
        <ele>515.39999999999998</ele>
        <time>2018-07-01T06:35:57Z</time>
      </trkpt>
      <trkpt lat="50.338703021407127" lon="6.686086999252439">
        <ele>514.91999999999996</ele>
        <time>2018-07-01T06:35:58Z</time>
      </trkpt>
      <trkpt lat="50.339378016069531" lon="6.684312969446182">
        <ele>513.96000000000004</ele>
        <time>2018-07-01T06:36:04Z</time>
      </trkpt>
      <trkpt lat="50.340423993766308" lon="6.682741027325392">
        <ele>511.56</ele>
        <time>2018-07-01T06:36:12Z</time>
      </trkpt>
      <trkpt lat="50.341537026688457" lon="6.681107981130481">
        <ele>505.79000000000002</ele>
        <time>2018-07-01T06:36:22Z</time>
      </trkpt>
      <trkpt lat="50.342263989150524" lon="6.679498990997672">
        <ele>500.5</ele>
        <time>2018-07-01T06:36:30Z</time>
      </trkpt>
      <trkpt lat="50.342370020225644" lon="6.679016025736928">
        <ele>499.54000000000002</ele>
        <time>2018-07-01T06:36:32Z</time>
      </trkpt>
      <trkpt lat="50.342456018552184" lon="6.67824799194932">
        <ele>499.06</ele>
        <time>2018-07-01T06:36:35Z</time>
      </trkpt>
      <trkpt lat="50.342466998845339" lon="6.677986979484558">
        <ele>498.57999999999998</ele>
        <time>2018-07-01T06:36:36Z</time>
      </trkpt>
      <trkpt lat="50.342349987477064" lon="6.675458997488022">
        <ele>497.13999999999999</ele>
        <time>2018-07-01T06:36:45Z</time>
      </trkpt>
      <trkpt lat="50.342363985255361" lon="6.675168983638287">
        <ele>496.18000000000001</ele>
        <time>2018-07-01T06:36:46Z</time>
      </trkpt>
      <trkpt lat="50.342480996623635" lon="6.672848034650087">
        <ele>487.52999999999997</ele>
        <time>2018-07-01T06:36:54Z</time>
      </trkpt>
      <trkpt lat="50.342496000230312" lon="6.672058962285519">
        <ele>487.05000000000001</ele>
        <time>2018-07-01T06:36:57Z</time>
      </trkpt>
      <trkpt lat="50.342528019100428" lon="6.671799039468169">
        <ele>486.56</ele>
        <time>2018-07-01T06:36:58Z</time>
      </trkpt>
      <trkpt lat="50.342579986900091" lon="6.671539032831788">
        <ele>486.07999999999998</ele>
        <time>2018-07-01T06:36:59Z</time>
      </trkpt>
      <trkpt lat="50.342660034075379" lon="6.671298975124955">
        <ele>485.60000000000002</ele>
        <time>2018-07-01T06:37:00Z</time>
      </trkpt>
      <trkpt lat="50.342741003260016" lon="6.671054977923632">
        <ele>485.12</ele>
        <time>2018-07-01T06:37:01Z</time>
      </trkpt>
      <trkpt lat="50.343094971030951" lon="6.669808002188802">
        <ele>480.80000000000001</ele>
        <time>2018-07-01T06:37:06Z</time>
      </trkpt>
      <trkpt lat="50.343144005164504" lon="6.669535003602505">
        <ele>479.35000000000002</ele>
        <time>2018-07-01T06:37:07Z</time>
      </trkpt>
      <trkpt lat="50.343453967943788" lon="6.666884981095791">
        <ele>469.25999999999999</ele>
        <time>2018-07-01T06:37:16Z</time>
      </trkpt>
      <trkpt lat="50.343520017340779" lon="6.666633021086454">
        <ele>468.30000000000001</ele>
        <time>2018-07-01T06:37:17Z</time>
      </trkpt>
      <trkpt lat="50.343600986525416" lon="6.666379971429706">
        <ele>467.81999999999999</ele>
        <time>2018-07-01T06:37:18Z</time>
      </trkpt>
      <trkpt lat="50.343700982630253" lon="6.666144020855427">
        <ele>467.33999999999997</ele>
        <time>2018-07-01T06:37:19Z</time>
      </trkpt>
      <trkpt lat="50.343828974291682" lon="6.665928019210696">
        <ele>466.86000000000001</ele>
        <time>2018-07-01T06:37:20Z</time>
      </trkpt>
      <trkpt lat="50.343961995095015" lon="6.665703970938921">
        <ele>466.86000000000001</ele>
        <time>2018-07-01T06:37:21Z</time>
      </trkpt>
      <trkpt lat="50.344099961221218" lon="6.665473971515894">
        <ele>466.86000000000001</ele>
        <time>2018-07-01T06:37:22Z</time>
      </trkpt>
      <trkpt lat="50.344258965924382" lon="6.665278002619743">
        <ele>467.33999999999997</ele>
        <time>2018-07-01T06:37:23Z</time>
      </trkpt>
      <trkpt lat="50.34442501142621" lon="6.665086979046464">
        <ele>467.81999999999999</ele>
        <time>2018-07-01T06:37:24Z</time>
      </trkpt>
      <trkpt lat="50.34528499469161" lon="6.663742018863559">
        <ele>473.11000000000001</ele>
        <time>2018-07-01T06:37:30Z</time>
      </trkpt>
      <trkpt lat="50.345389014109969" lon="6.663472959771752">
        <ele>474.06999999999999</ele>
        <time>2018-07-01T06:37:31Z</time>
      </trkpt>
      <trkpt lat="50.345465037971735" lon="6.663185963407159">
        <ele>474.55000000000001</ele>
        <time>2018-07-01T06:37:32Z</time>
      </trkpt>
      <trkpt lat="50.34549898467958" lon="6.66288698092103">
        <ele>475.02999999999997</ele>
        <time>2018-07-01T06:37:33Z</time>
      </trkpt>
      <trkpt lat="50.345536032691598" lon="6.662564026191831">
        <ele>475.50999999999999</ele>
        <time>2018-07-01T06:37:34Z</time>
      </trkpt>
      <trkpt lat="50.345536032691598" lon="6.66230401955545">
        <ele>475.99000000000001</ele>
        <time>2018-07-01T06:37:35Z</time>
      </trkpt>
      <trkpt lat="50.345489010214806" lon="6.66204703040421">
        <ele>476.47000000000003</ele>
        <time>2018-07-01T06:37:36Z</time>
      </trkpt>
      <trkpt lat="50.345421032980084" lon="6.661796998232603">
        <ele>476.94999999999999</ele>
        <time>2018-07-01T06:37:37Z</time>
      </trkpt>
      <trkpt lat="50.34535096026957" lon="6.661536991596222">
        <ele>477.43000000000001</ele>
        <time>2018-07-01T06:37:38Z</time>
      </trkpt>
      <trkpt lat="50.345296980813146" lon="6.661255024373531">
        <ele>477.43000000000001</ele>
        <time>2018-07-01T06:37:39Z</time>
      </trkpt>
      <trkpt lat="50.345256999135017" lon="6.660960987210274">
        <ele>477.91000000000003</ele>
        <time>2018-07-01T06:37:40Z</time>
      </trkpt>
      <trkpt lat="50.345213999971747" lon="6.660656975582242">
        <ele>478.38999999999999</ele>
        <time>2018-07-01T06:37:41Z</time>
      </trkpt>
      <trkpt lat="50.345224980264902" lon="6.660339972004294">
        <ele>479.35000000000002</ele>
        <time>2018-07-01T06:37:42Z</time>
      </trkpt>
      <trkpt lat="50.345239983871579" lon="6.660017017275095">
        <ele>479.83999999999997</ele>
        <time>2018-07-01T06:37:43Z</time>
      </trkpt>
      <trkpt lat="50.345278959721327" lon="6.659686015918851">
        <ele>480.80000000000001</ele>
        <time>2018-07-01T06:37:44Z</time>
      </trkpt>
      <trkpt lat="50.345318019390106" lon="6.659354008734226">
        <ele>482.24000000000001</ele>
        <time>2018-07-01T06:37:45Z</time>
      </trkpt>
      <trkpt lat="50.345382979139686" lon="6.658686976879835">
        <ele>484.16000000000003</ele>
        <time>2018-07-01T06:37:47Z</time>
      </trkpt>
      <trkpt lat="50.345376022160053" lon="6.65835396386683">
        <ele>485.60000000000002</ele>
        <time>2018-07-01T06:37:48Z</time>
      </trkpt>
      <trkpt lat="50.345367975533009" lon="6.658025979995728">
        <ele>487.05000000000001</ele>
        <time>2018-07-01T06:37:49Z</time>
      </trkpt>
      <trkpt lat="50.345331011340022" lon="6.657710988074541">
        <ele>488.00999999999999</ele>
        <time>2018-07-01T06:37:50Z</time>
      </trkpt>
      <trkpt lat="50.34526202827692" lon="6.657400019466877">
        <ele>488.97000000000003</ele>
        <time>2018-07-01T06:37:51Z</time>
      </trkpt>
      <trkpt lat="50.345192039385438" lon="6.657081004232168">
        <ele>489.93000000000001</ele>
        <time>2018-07-01T06:37:52Z</time>
      </trkpt>
      <trkpt lat="50.34511199221015" lon="6.656765006482601">
        <ele>490.88999999999999</ele>
        <time>2018-07-01T06:37:53Z</time>
      </trkpt>
      <trkpt lat="50.344292996451259" lon="6.653956985101104">
        <ele>499.54000000000002</ele>
        <time>2018-07-01T06:38:02Z</time>
      </trkpt>
      <trkpt lat="50.344156036153436" lon="6.653664037585259">
        <ele>500.5</ele>
        <time>2018-07-01T06:38:03Z</time>
      </trkpt>
      <trkpt lat="50.344014968723059" lon="6.653379974886775">
        <ele>500.98000000000002</ele>
        <time>2018-07-01T06:38:04Z</time>
      </trkpt>
      <trkpt lat="50.343830985948443" lon="6.653164979070425">
        <ele>501.94999999999999</ele>
        <time>2018-07-01T06:38:05Z</time>
      </trkpt>
      <trkpt lat="50.343640968203545" lon="6.652944032102823">
        <ele>502.91000000000003</ele>
        <time>2018-07-01T06:38:06Z</time>
      </trkpt>
      <trkpt lat="50.343441981822252" lon="6.652729958295822">
        <ele>503.87</ele>
        <time>2018-07-01T06:38:07Z</time>
      </trkpt>
      <trkpt lat="50.343228997662663" lon="6.652533989399672">
        <ele>504.35000000000002</ele>
        <time>2018-07-01T06:38:08Z</time>
      </trkpt>
      <trkpt lat="50.342410001903772" lon="6.651772996410728">
        <ele>507.23000000000002</ele>
        <time>2018-07-01T06:38:12Z</time>
      </trkpt>
      <trkpt lat="50.342238005250692" lon="6.651540985330939">
        <ele>507.70999999999998</ele>
        <time>2018-07-01T06:38:13Z</time>
      </trkpt>
      <trkpt lat="50.342062991112471" lon="6.651303023099899">
        <ele>508.67000000000002</ele>
        <time>2018-07-01T06:38:14Z</time>
      </trkpt>
      <trkpt lat="50.341931981965899" lon="6.650996999815106">
        <ele>509.63999999999999</ele>
        <time>2018-07-01T06:38:15Z</time>
      </trkpt>
      <trkpt lat="50.341806001961231" lon="6.650698017328978">
        <ele>510.12</ele>
        <time>2018-07-01T06:38:16Z</time>
      </trkpt>
      <trkpt lat="50.341683961451054" lon="6.650410015136004">
        <ele>511.07999999999998</ele>
        <time>2018-07-01T06:38:17Z</time>
      </trkpt>
      <trkpt lat="50.341613972559571" lon="6.650082031264901">
        <ele>511.56</ele>
        <time>2018-07-01T06:38:18Z</time>
      </trkpt>
      <trkpt lat="50.341563010588288" lon="6.649746000766754">
        <ele>512.03999999999996</ele>
        <time>2018-07-01T06:38:19Z</time>
      </trkpt>
      <trkpt lat="50.341510036960244" lon="6.649399995803833">
        <ele>512.51999999999998</ele>
        <time>2018-07-01T06:38:20Z</time>
      </trkpt>
      <trkpt lat="50.341485980898142" lon="6.649039993062615">
        <ele>513.48000000000002</ele>
        <time>2018-07-01T06:38:21Z</time>
      </trkpt>
      <trkpt lat="50.341466031968594" lon="6.648672027513385">
        <ele>513.96000000000004</ele>
        <time>2018-07-01T06:38:22Z</time>
      </trkpt>
      <trkpt lat="50.34139595925808" lon="6.646066009998322">
        <ele>516.37</ele>
        <time>2018-07-01T06:38:29Z</time>
      </trkpt>
      <trkpt lat="50.341450022533536" lon="6.645728973671794">
        <ele>516.37</ele>
        <time>2018-07-01T06:38:30Z</time>
      </trkpt>
      <trkpt lat="50.341531997546554" lon="6.645395960658789">
        <ele>516.37</ele>
        <time>2018-07-01T06:38:31Z</time>
      </trkpt>
      <trkpt lat="50.341613972559571" lon="6.645058002322912">
        <ele>516.85000000000002</ele>
        <time>2018-07-01T06:38:32Z</time>
      </trkpt>
      <trkpt lat="50.341746993362904" lon="6.644762037321925">
        <ele>517.33000000000004</ele>
        <time>2018-07-01T06:38:33Z</time>
      </trkpt>
      <trkpt lat="50.341893006116152" lon="6.644475040957332">
        <ele>517.33000000000004</ele>
        <time>2018-07-01T06:38:34Z</time>
      </trkpt>
      <trkpt lat="50.342036001384258" lon="6.644195001572371">
        <ele>517.80999999999995</ele>
        <time>2018-07-01T06:38:35Z</time>
      </trkpt>
      <trkpt lat="50.342172961682081" lon="6.643925020471215">
        <ele>518.28999999999996</ele>
        <time>2018-07-01T06:38:36Z</time>
      </trkpt>
      <trkpt lat="50.342277986928821" lon="6.643640035763383">
        <ele>518.76999999999998</ele>
        <time>2018-07-01T06:38:37Z</time>
      </trkpt>
      <trkpt lat="50.342371026054025" lon="6.643351027742028">
        <ele>518.76999999999998</ele>
        <time>2018-07-01T06:38:38Z</time>
      </trkpt>
      <trkpt lat="50.342415031045675" lon="6.643039975315332">
        <ele>518.76999999999998</ele>
        <time>2018-07-01T06:38:39Z</time>
      </trkpt>
      <trkpt lat="50.342455012723804" lon="6.642718026414514">
        <ele>518.28999999999996</ele>
        <time>2018-07-01T06:38:40Z</time>
      </trkpt>
      <trkpt lat="50.342862037941813" lon="6.639712024480104">
        <ele>510.12</ele>
        <time>2018-07-01T06:38:49Z</time>
      </trkpt>
      <trkpt lat="50.343557987362146" lon="6.636635027825832">
        <ele>498.10000000000002</ele>
        <time>2018-07-01T06:38:59Z</time>
      </trkpt>
      <trkpt lat="50.344434985890985" lon="6.6350859683007">
        <ele>490.88999999999999</ele>
        <time>2018-07-01T06:39:05Z</time>
      </trkpt>
      <trkpt lat="50.344583010300994" lon="6.634858986362815">
        <ele>489.93000000000001</ele>
        <time>2018-07-01T06:39:06Z</time>
      </trkpt>
      <trkpt lat="50.344719970598817" lon="6.634648013859987">
        <ele>488.97000000000003</ele>
        <time>2018-07-01T06:39:07Z</time>
      </trkpt>
      <trkpt lat="50.344814015552402" lon="6.634322963654995">
        <ele>488.49000000000001</ele>
        <time>2018-07-01T06:39:08Z</time>
      </trkpt>
      <trkpt lat="50.344904959201813" lon="6.634005960077047">
        <ele>487.52999999999997</ele>
        <time>2018-07-01T06:39:09Z</time>
      </trkpt>
      <trkpt lat="50.344999004155397" lon="6.633676970377564">
        <ele>487.05000000000001</ele>
        <time>2018-07-01T06:39:10Z</time>
      </trkpt>
      <trkpt lat="50.34584297798574" lon="6.631034994497895">
        <ele>489.93000000000001</ele>
        <time>2018-07-01T06:39:18Z</time>
      </trkpt>
      <trkpt lat="50.345917996019125" lon="6.630697036162019">
        <ele>490.88999999999999</ele>
        <time>2018-07-01T06:39:19Z</time>
      </trkpt>
      <trkpt lat="50.34597197547555" lon="6.630355976521969">
        <ele>491.85000000000002</ele>
        <time>2018-07-01T06:39:20Z</time>
      </trkpt>
      <trkpt lat="50.345988990738988" lon="6.630009971559048">
        <ele>492.81</ele>
        <time>2018-07-01T06:39:21Z</time>
      </trkpt>
      <trkpt lat="50.346007011830807" lon="6.62967000156641">
        <ele>493.29000000000002</ele>
        <time>2018-07-01T06:39:22Z</time>
      </trkpt>
      <trkpt lat="50.345954960212111" lon="6.629330031573772">
        <ele>494.25999999999999</ele>
        <time>2018-07-01T06:39:23Z</time>
      </trkpt>
      <trkpt lat="50.345898969098926" lon="6.628995006904006">
        <ele>494.74000000000001</ele>
        <time>2018-07-01T06:39:24Z</time>
      </trkpt>
      <trkpt lat="50.345827974379063" lon="6.628670040518045">
        <ele>495.69999999999999</ele>
        <time>2018-07-01T06:39:25Z</time>
      </trkpt>
      <trkpt lat="50.345750022679567" lon="6.628356976434588">
        <ele>496.18000000000001</ele>
        <time>2018-07-01T06:39:26Z</time>
      </trkpt>
      <trkpt lat="50.345614990219474" lon="6.627752976492047">
        <ele>497.13999999999999</ele>
        <time>2018-07-01T06:39:28Z</time>
      </trkpt>
      <trkpt lat="50.345594035461545" lon="6.627431027591229">
        <ele>497.62</ele>
        <time>2018-07-01T06:39:29Z</time>
      </trkpt>
      <trkpt lat="50.345593029633164" lon="6.627102959901094">
        <ele>498.10000000000002</ele>
        <time>2018-07-01T06:39:30Z</time>
      </trkpt>
      <trkpt lat="50.345638962462544" lon="6.626781011000276">
        <ele>498.57999999999998</ele>
        <time>2018-07-01T06:39:31Z</time>
      </trkpt>
      <trkpt lat="50.345710963010788" lon="6.626476999372244">
        <ele>499.06</ele>
        <time>2018-07-01T06:39:32Z</time>
      </trkpt>
      <trkpt lat="50.345817999914289" lon="6.62619000300765">
        <ele>499.54000000000002</ele>
        <time>2018-07-01T06:39:33Z</time>
      </trkpt>
      <trkpt lat="50.345926964655519" lon="6.625898983329535">
        <ele>500.01999999999998</ele>
        <time>2018-07-01T06:39:34Z</time>
      </trkpt>
      <trkpt lat="50.34603601321578" lon="6.625606035813689">
        <ele>500.98000000000002</ele>
        <time>2018-07-01T06:39:35Z</time>
      </trkpt>
      <trkpt lat="50.346142966300249" lon="6.625310992822051">
        <ele>501.45999999999998</ele>
        <time>2018-07-01T06:39:36Z</time>
      </trkpt>
      <trkpt lat="50.34622997045517" lon="6.624998012557626">
        <ele>502.43000000000001</ele>
        <time>2018-07-01T06:39:37Z</time>
      </trkpt>
      <trkpt lat="50.346296019852161" lon="6.624667011201382">
        <ele>503.87</ele>
        <time>2018-07-01T06:39:38Z</time>
      </trkpt>
      <trkpt lat="50.346355028450489" lon="6.624327963218093">
        <ele>504.82999999999998</ele>
        <time>2018-07-01T06:39:39Z</time>
      </trkpt>
      <trkpt lat="50.346387969329953" lon="6.62397600710392">
        <ele>505.79000000000002</ele>
        <time>2018-07-01T06:39:40Z</time>
      </trkpt>
      <trkpt lat="50.346745038405061" lon="6.621602000668645">
        <ele>513.96000000000004</ele>
        <time>2018-07-01T06:39:47Z</time>
      </trkpt>
      <trkpt lat="50.346856014803052" lon="6.621307963505387">
        <ele>514.91999999999996</ele>
        <time>2018-07-01T06:39:48Z</time>
      </trkpt>
      <trkpt lat="50.347774000838399" lon="6.619216008111835">
        <ele>520.69000000000005</ele>
        <time>2018-07-01T06:39:56Z</time>
      </trkpt>
      <trkpt lat="50.348068038001657" lon="6.618541013449431">
        <ele>520.69000000000005</ele>
        <time>2018-07-01T06:39:59Z</time>
      </trkpt>
      <trkpt lat="50.348244979977608" lon="6.617880016565323">
        <ele>520.21000000000004</ele>
        <time>2018-07-01T06:40:02Z</time>
      </trkpt>
      <trkpt lat="50.348437009379268" lon="6.616351995617151">
        <ele>518.76999999999998</ele>
        <time>2018-07-01T06:40:10Z</time>
      </trkpt>
      <trkpt lat="50.348472967743874" lon="6.616172958165407">
        <ele>518.28999999999996</ele>
        <time>2018-07-01T06:40:11Z</time>
      </trkpt>
      <trkpt lat="50.348540022969246" lon="6.616017976775765">
        <ele>518.28999999999996</ele>
        <time>2018-07-01T06:40:12Z</time>
      </trkpt>
      <trkpt lat="50.349417021498084" lon="6.614017970860004">
        <ele>516.37</ele>
        <time>2018-07-01T06:40:25Z</time>
      </trkpt>
      <trkpt lat="50.349825974553823" lon="6.613154970109463">
        <ele>519.73000000000002</ele>
        <time>2018-07-01T06:40:33Z</time>
      </trkpt>
      <trkpt lat="50.349842989817262" lon="6.613120017573237">
        <ele>519.73000000000002</ele>
        <time>2018-07-01T06:40:34Z</time>
      </trkpt>
      <trkpt lat="50.349861010909081" lon="6.613081963732839">
        <ele>519.73000000000002</ele>
        <time>2018-07-01T06:40:35Z</time>
      </trkpt>
      <trkpt lat="50.349849024787545" lon="6.61301901564002">
        <ele>520.21000000000004</ele>
        <time>2018-07-01T06:40:36Z</time>
      </trkpt>
      <trkpt lat="50.349818011745811" lon="6.612943997606635">
        <ele>520.21000000000004</ele>
        <time>2018-07-01T06:40:37Z</time>
      </trkpt>
      <trkpt lat="50.349775012582541" lon="6.612836038693786">
        <ele>520.69000000000005</ele>
        <time>2018-07-01T06:40:38Z</time>
      </trkpt>
      <trkpt lat="50.349722960963845" lon="6.612709974870086">
        <ele>520.69000000000005</ele>
        <time>2018-07-01T06:40:39Z</time>
      </trkpt>
      <trkpt lat="50.349664036184549" lon="6.612563962116838">
        <ele>520.69000000000005</ele>
        <time>2018-07-01T06:40:40Z</time>
      </trkpt>
      <trkpt lat="50.348969008773565" lon="6.610852964222431">
        <ele>521.64999999999998</ele>
        <time>2018-07-01T06:40:50Z</time>
      </trkpt>
      <trkpt lat="50.348628032952547" lon="6.610007984563708">
        <ele>524.05999999999995</ele>
        <time>2018-07-01T06:40:55Z</time>
      </trkpt>
      <trkpt lat="50.348557038232684" lon="6.609836993739009">
        <ele>525.01999999999998</ele>
        <time>2018-07-01T06:40:56Z</time>
      </trkpt>
      <trkpt lat="50.348022021353245" lon="6.609152024611831">
        <ele>527.89999999999998</ele>
        <time>2018-07-01T06:41:01Z</time>
      </trkpt>
      <trkpt lat="50.347886988893151" lon="6.609034007415175">
        <ele>528.38</ele>
        <time>2018-07-01T06:41:02Z</time>
      </trkpt>
      <trkpt lat="50.346734980121255" lon="6.608016025274992">
        <ele>531.26999999999998</ele>
        <time>2018-07-01T06:41:11Z</time>
      </trkpt>
      <trkpt lat="50.345761002972722" lon="6.60711295902729">
        <ele>531.26999999999998</ele>
        <time>2018-07-01T06:41:21Z</time>
      </trkpt>
      <trkpt lat="50.344584016129375" lon="6.605631038546562">
        <ele>529.34000000000003</ele>
        <time>2018-07-01T06:41:33Z</time>
      </trkpt>
      <trkpt lat="50.344377988949418" lon="6.605338007211685">
        <ele>528.86000000000001</ele>
        <time>2018-07-01T06:41:35Z</time>
      </trkpt>
      <trkpt lat="50.34427204169333" lon="6.605189982801676">
        <ele>528.38</ele>
        <time>2018-07-01T06:41:36Z</time>
      </trkpt>
      <trkpt lat="50.343106035143137" lon="6.603685012087226">
        <ele>525.01999999999998</ele>
        <time>2018-07-01T06:41:45Z</time>
      </trkpt>
      <trkpt lat="50.342688029631972" lon="6.603181008249521">
        <ele>522.61000000000001</ele>
        <time>2018-07-01T06:41:48Z</time>
      </trkpt>
      <trkpt lat="50.342557020485401" lon="6.603002976626158">
        <ele>521.64999999999998</ele>
        <time>2018-07-01T06:41:49Z</time>
      </trkpt>
      <trkpt lat="50.342347975820303" lon="6.602607015520334">
        <ele>519.73000000000002</ele>
        <time>2018-07-01T06:41:51Z</time>
      </trkpt>
      <trkpt lat="50.342264994978905" lon="6.602401994168758">
        <ele>518.28999999999996</ele>
        <time>2018-07-01T06:41:52Z</time>
      </trkpt>
      <trkpt lat="50.342195006087422" lon="6.602192027494311">
        <ele>517.33000000000004</ele>
        <time>2018-07-01T06:41:53Z</time>
      </trkpt>
      <trkpt lat="50.342103978618979" lon="6.601729011163116">
        <ele>514.91999999999996</ele>
        <time>2018-07-01T06:41:55Z</time>
      </trkpt>
      <trkpt lat="50.342016974464059" lon="6.601250991225243">
        <ele>512.03999999999996</ele>
        <time>2018-07-01T06:41:57Z</time>
      </trkpt>
      <trkpt lat="50.342016974464059" lon="6.600991990417242">
        <ele>510.12</ele>
        <time>2018-07-01T06:41:58Z</time>
      </trkpt>
      <trkpt lat="50.342016974464059" lon="6.600722009316087">
        <ele>508.19</ele>
        <time>2018-07-01T06:41:59Z</time>
      </trkpt>
      <trkpt lat="50.341930976137519" lon="6.599329020828009">
        <ele>499.54000000000002</ele>
        <time>2018-07-01T06:42:04Z</time>
      </trkpt>
      <trkpt lat="50.341873979195952" lon="6.599078988656402">
        <ele>497.62</ele>
        <time>2018-07-01T06:42:05Z</time>
      </trkpt>
      <trkpt lat="50.341802984476089" lon="6.598801966756582">
        <ele>495.22000000000003</ele>
        <time>2018-07-01T06:42:06Z</time>
      </trkpt>
      <trkpt lat="50.341154979541898" lon="6.597028020769358">
        <ele>480.31999999999999</ele>
        <time>2018-07-01T06:42:13Z</time>
      </trkpt>
      <trkpt lat="50.34096403978765" lon="6.596335005015135">
        <ele>475.02999999999997</ele>
        <time>2018-07-01T06:42:16Z</time>
      </trkpt>
      <trkpt lat="50.340911988168955" lon="6.596116991713643">
        <ele>473.11000000000001</ele>
        <time>2018-07-01T06:42:17Z</time>
      </trkpt>
      <trkpt lat="50.340865971520543" lon="6.595910964533687">
        <ele>471.66000000000003</ele>
        <time>2018-07-01T06:42:18Z</time>
      </trkpt>
      <trkpt lat="50.340631026774645" lon="6.594078009948134">
        <ele>460.61000000000001</ele>
        <time>2018-07-01T06:42:28Z</time>
      </trkpt>
      <trkpt lat="50.340614011511207" lon="6.593526983633637">
        <ele>457.72000000000003</ele>
        <time>2018-07-01T06:42:31Z</time>
      </trkpt>
      <trkpt lat="50.34062197431922" lon="6.593344006687403">
        <ele>456.75999999999999</ele>
        <time>2018-07-01T06:42:32Z</time>
      </trkpt>
      <trkpt lat="50.340647036209702" lon="6.593169998377562">
        <ele>455.80000000000001</ele>
        <time>2018-07-01T06:42:33Z</time>
      </trkpt>
      <trkpt lat="50.340723982080817" lon="6.592642022296786">
        <ele>452.92000000000002</ele>
        <time>2018-07-01T06:42:36Z</time>
      </trkpt>
      <trkpt lat="50.340748960152268" lon="6.592466002330184">
        <ele>451.48000000000002</ele>
        <time>2018-07-01T06:42:37Z</time>
      </trkpt>
      <trkpt lat="50.340897990390658" lon="6.591439973562956">
        <ele>447.14999999999998</ele>
        <time>2018-07-01T06:42:43Z</time>
      </trkpt>
      <trkpt lat="50.34092104062438" lon="6.591279041022062">
        <ele>446.19</ele>
        <time>2018-07-01T06:42:44Z</time>
      </trkpt>
      <trkpt lat="50.340967979282141" lon="6.590961031615734">
        <ele>445.23000000000002</ele>
        <time>2018-07-01T06:42:46Z</time>
      </trkpt>
      <trkpt lat="50.341164031997323" lon="6.590255023911595">
        <ele>443.79000000000002</ele>
        <time>2018-07-01T06:42:51Z</time>
      </trkpt>
      <trkpt lat="50.341227985918522" lon="6.590145975351334">
        <ele>443.79000000000002</ele>
        <time>2018-07-01T06:42:52Z</time>
      </trkpt>
      <trkpt lat="50.341297974810004" lon="6.590044973418117">
        <ele>443.79000000000002</ele>
        <time>2018-07-01T06:42:53Z</time>
      </trkpt>
      <trkpt lat="50.341382967308164" lon="6.589950006455183">
        <ele>443.31</ele>
        <time>2018-07-01T06:42:54Z</time>
      </trkpt>
      <trkpt lat="50.341471983119845" lon="6.589851016178727">
        <ele>442.33999999999997</ele>
        <time>2018-07-01T06:42:55Z</time>
      </trkpt>
      <trkpt lat="50.341721009463072" lon="6.589524038136005">
        <ele>439.94</ele>
        <time>2018-07-01T06:42:58Z</time>
      </trkpt>
      <trkpt lat="50.341801978647709" lon="6.589371990412474">
        <ele>439.45999999999998</ele>
        <time>2018-07-01T06:42:59Z</time>
      </trkpt>
      <trkpt lat="50.341936005279422" lon="6.588957002386451">
        <ele>437.54000000000002</ele>
        <time>2018-07-01T06:43:02Z</time>
      </trkpt>
      <trkpt lat="50.341959977522492" lon="6.58880302682519">
        <ele>437.06</ele>
        <time>2018-07-01T06:43:03Z</time>
      </trkpt>
      <trkpt lat="50.3420390188694" lon="6.588308997452259">
        <ele>435.13</ele>
        <time>2018-07-01T06:43:06Z</time>
      </trkpt>
      <trkpt lat="50.342096015810966" lon="6.587980007752776">
        <ele>434.17000000000002</ele>
        <time>2018-07-01T06:43:08Z</time>
      </trkpt>
      <trkpt lat="50.342134991660714" lon="6.587815973907709">
        <ele>433.69</ele>
        <time>2018-07-01T06:43:09Z</time>
      </trkpt>
      <trkpt lat="50.342174973338842" lon="6.587651018053293">
        <ele>433.20999999999998</ele>
        <time>2018-07-01T06:43:10Z</time>
      </trkpt>
      <trkpt lat="50.3427470382303" lon="6.586325000971556">
        <ele>432.73000000000002</ele>
        <time>2018-07-01T06:43:19Z</time>
      </trkpt>
      <trkpt lat="50.342950969934464" lon="6.585915964096785">
        <ele>432.73000000000002</ele>
        <time>2018-07-01T06:43:22Z</time>
      </trkpt>
      <trkpt lat="50.343635017052293" lon="6.584556000307202">
        <ele>431.76999999999998</ele>
        <time>2018-07-01T06:43:32Z</time>
      </trkpt>
      <trkpt lat="50.344454012811184" lon="6.582867968827486">
        <ele>431.76999999999998</ele>
        <time>2018-07-01T06:43:44Z</time>
      </trkpt>
      <trkpt lat="50.345375016331673" lon="6.581102991476655">
        <ele>430.81</ele>
        <time>2018-07-01T06:43:56Z</time>
      </trkpt>
      <trkpt lat="50.346063002943993" lon="6.579534988850355">
        <ele>433.69</ele>
        <time>2018-07-01T06:44:06Z</time>
      </trkpt>
      <trkpt lat="50.34696196205914" lon="6.577489972114563">
        <ele>433.20999999999998</ele>
        <time>2018-07-01T06:44:19Z</time>
      </trkpt>
      <trkpt lat="50.347972987219691" lon="6.575270025059581">
        <ele>437.06</ele>
        <time>2018-07-01T06:44:34Z</time>
      </trkpt>
      <trkpt lat="50.348799023777246" lon="6.573759019374847">
        <ele>440.89999999999998</ele>
        <time>2018-07-01T06:44:45Z</time>
      </trkpt>
      <trkpt lat="50.348837999626994" lon="6.573623986914754">
        <ele>441.38</ele>
        <time>2018-07-01T06:44:46Z</time>
      </trkpt>
      <trkpt lat="50.348883010447025" lon="6.573472023010254">
        <ele>441.86000000000001</ele>
        <time>2018-07-01T06:44:47Z</time>
      </trkpt>
      <trkpt lat="50.348873035982251" lon="6.573359034955502">
        <ele>441.86000000000001</ele>
        <time>2018-07-01T06:44:48Z</time>
      </trkpt>
      <trkpt lat="50.348845040425658" lon="6.573216961696744">
        <ele>442.33999999999997</ele>
        <time>2018-07-01T06:44:49Z</time>
      </trkpt>
      <trkpt lat="50.348769016563892" lon="6.573130041360855">
        <ele>442.33999999999997</ele>
        <time>2018-07-01T06:44:50Z</time>
      </trkpt>
      <trkpt lat="50.348688969388604" lon="6.573038008064032">
        <ele>442.81999999999999</ele>
        <time>2018-07-01T06:44:51Z</time>
      </trkpt>
      <trkpt lat="50.348604982718825" lon="6.572942035272718">
        <ele>443.31</ele>
        <time>2018-07-01T06:44:52Z</time>
      </trkpt>
      <trkpt lat="50.348515966907144" lon="6.5728410333395">
        <ele>443.79000000000002</ele>
        <time>2018-07-01T06:44:53Z</time>
      </trkpt>
      <trkpt lat="50.347605021670461" lon="6.57185398042202">
        <ele>442.81999999999999</ele>
        <time>2018-07-01T06:45:03Z</time>
      </trkpt>
      <trkpt lat="50.347274020314217" lon="6.571498000994325">
        <ele>440.89999999999998</ele>
        <time>2018-07-01T06:45:07Z</time>
      </trkpt>
      <trkpt lat="50.347234960645437" lon="6.571390964090824">
        <ele>440.42000000000002</ele>
        <time>2018-07-01T06:45:08Z</time>
      </trkpt>
      <trkpt lat="50.347207970917225" lon="6.571317035704851">
        <ele>440.42000000000002</ele>
        <time>2018-07-01T06:45:09Z</time>
      </trkpt>
      <trkpt lat="50.347208976745605" lon="6.571215027943254">
        <ele>439.94</ele>
        <time>2018-07-01T06:45:10Z</time>
      </trkpt>
      <trkpt lat="50.347237978130579" lon="6.571148978546262">
        <ele>439.94</ele>
        <time>2018-07-01T06:45:11Z</time>
      </trkpt>
      <trkpt lat="50.347245018929243" lon="6.570765003561974">
        <ele>439.94</ele>
        <time>2018-07-01T06:45:14Z</time>
      </trkpt>
      <trkpt lat="50.347294975072145" lon="6.570646986365318">
        <ele>440.42000000000002</ele>
        <time>2018-07-01T06:45:15Z</time>
      </trkpt>
      <trkpt lat="50.347350966185331" lon="6.570508014410734">
        <ele>440.89999999999998</ele>
        <time>2018-07-01T06:45:16Z</time>
      </trkpt>
      <trkpt lat="50.347408968955278" lon="6.570352027192712">
        <ele>441.38</ele>
        <time>2018-07-01T06:45:17Z</time>
      </trkpt>
      <trkpt lat="50.347470995038748" lon="6.570188999176025">
        <ele>441.86000000000001</ele>
        <time>2018-07-01T06:45:18Z</time>
      </trkpt>
      <trkpt lat="50.347612984478474" lon="6.569814998656511">
        <ele>441.86000000000001</ele>
        <time>2018-07-01T06:45:20Z</time>
      </trkpt>
      <trkpt lat="50.347893023863435" lon="6.568206008523703">
        <ele>444.26999999999998</ele>
        <time>2018-07-01T06:45:26Z</time>
      </trkpt>
      <trkpt lat="50.348131991922855" lon="6.566327037289739">
        <ele>447.14999999999998</ele>
        <time>2018-07-01T06:45:32Z</time>
      </trkpt>
      <trkpt lat="50.34883095882833" lon="6.563985971733928">
        <ele>452.92000000000002</ele>
        <time>2018-07-01T06:45:41Z</time>
      </trkpt>
      <trkpt lat="50.349553981795907" lon="6.561867026612163">
        <ele>459.64999999999998</ele>
        <time>2018-07-01T06:45:50Z</time>
      </trkpt>
      <trkpt lat="50.350085981190205" lon="6.559832990169525">
        <ele>462.05000000000001</ele>
        <time>2018-07-01T06:45:57Z</time>
      </trkpt>
      <trkpt lat="50.350522007793188" lon="6.556460028514266">
        <ele>460.13</ele>
        <time>2018-07-01T06:46:06Z</time>
      </trkpt>
      <trkpt lat="50.350705990567803" lon="6.553499959409237">
        <ele>453.39999999999998</ele>
        <time>2018-07-01T06:46:13Z</time>
      </trkpt>
      <trkpt lat="50.351190967485309" lon="6.549874031916261">
        <ele>446.19</ele>
        <time>2018-07-01T06:46:22Z</time>
      </trkpt>
      <trkpt lat="50.351389031857252" lon="6.54697397723794">
        <ele>444.75</ele>
        <time>2018-07-01T06:46:30Z</time>
      </trkpt>
      <trkpt lat="50.351510988548398" lon="6.544064031913877">
        <ele>445.70999999999998</ele>
        <time>2018-07-01T06:46:40Z</time>
      </trkpt>
      <trkpt lat="50.351712992414832" lon="6.540225958451629">
        <ele>447.63</ele>
        <time>2018-07-01T06:46:53Z</time>
      </trkpt>
      <trkpt lat="50.352224037051201" lon="6.536937989294529">
        <ele>450.02999999999997</ele>
        <time>2018-07-01T06:47:03Z</time>
      </trkpt>
      <trkpt lat="50.352242980152369" lon="6.536669014021754">
        <ele>450.51999999999998</ele>
        <time>2018-07-01T06:47:04Z</time>
      </trkpt>
      <trkpt lat="50.352259995415807" lon="6.536432979628444">
        <ele>450.51999999999998</ele>
        <time>2018-07-01T06:47:05Z</time>
      </trkpt>
      <trkpt lat="50.352175002917647" lon="6.535398988053203">
        <ele>451.95999999999998</ele>
        <time>2018-07-01T06:47:11Z</time>
      </trkpt>
      <trkpt lat="50.352138038724661" lon="6.535269990563393">
        <ele>451.95999999999998</ele>
        <time>2018-07-01T06:47:12Z</time>
      </trkpt>
      <trkpt lat="50.352100990712643" lon="6.53513596393168">
        <ele>451.95999999999998</ele>
        <time>2018-07-01T06:47:13Z</time>
      </trkpt>
      <trkpt lat="50.351390959694982" lon="6.533584976568818">
        <ele>453.39999999999998</ele>
        <time>2018-07-01T06:47:24Z</time>
      </trkpt>
      <trkpt lat="50.351241007447243" lon="6.533303009346128">
        <ele>453.88</ele>
        <time>2018-07-01T06:47:26Z</time>
      </trkpt>
      <trkpt lat="50.351151991635561" lon="6.533176023513079">
        <ele>453.88</ele>
        <time>2018-07-01T06:47:27Z</time>
      </trkpt>
      <trkpt lat="50.351051995530725" lon="6.533083990216255">
        <ele>454.36000000000001</ele>
        <time>2018-07-01T06:47:28Z</time>
      </trkpt>
      <trkpt lat="50.350944958627224" lon="6.532995980232954">
        <ele>454.36000000000001</ele>
        <time>2018-07-01T06:47:29Z</time>
      </trkpt>
      <trkpt lat="50.350835993885994" lon="6.532905958592892">
        <ele>454.36000000000001</ele>
        <time>2018-07-01T06:47:30Z</time>
      </trkpt>
      <trkpt lat="50.350106013938785" lon="6.532269017770886">
        <ele>456.27999999999997</ele>
        <time>2018-07-01T06:47:37Z</time>
      </trkpt>
      <trkpt lat="50.350019009783864" lon="6.532142031937838">
        <ele>456.27999999999997</ele>
        <time>2018-07-01T06:47:38Z</time>
      </trkpt>
      <trkpt lat="50.349948015064001" lon="6.531999036669731">
        <ele>456.75999999999999</ele>
        <time>2018-07-01T06:47:39Z</time>
      </trkpt>
      <trkpt lat="50.349666969850659" lon="6.53143803589046">
        <ele>457.24000000000001</ele>
        <time>2018-07-01T06:47:43Z</time>
      </trkpt>
      <trkpt lat="50.349412998184562" lon="6.53085901401937">
        <ele>457.72000000000003</ele>
        <time>2018-07-01T06:47:47Z</time>
      </trkpt>
      <trkpt lat="50.349365975707769" lon="6.530700009316206">
        <ele>457.72000000000003</ele>
        <time>2018-07-01T06:47:48Z</time>
      </trkpt>
      <trkpt lat="50.349346026778221" lon="6.530524995177984">
        <ele>457.24000000000001</ele>
        <time>2018-07-01T06:47:49Z</time>
      </trkpt>
      <trkpt lat="50.349334040656686" lon="6.53034201823175">
        <ele>457.24000000000001</ele>
        <time>2018-07-01T06:47:50Z</time>
      </trkpt>
      <trkpt lat="50.34936698153615" lon="6.530175972729921">
        <ele>457.72000000000003</ele>
        <time>2018-07-01T06:47:51Z</time>
      </trkpt>
      <trkpt lat="50.349401012063026" lon="6.530012022703886">
        <ele>457.24000000000001</ele>
        <time>2018-07-01T06:47:52Z</time>
      </trkpt>
      <trkpt lat="50.34945297986269" lon="6.529851006343961">
        <ele>457.24000000000001</ele>
        <time>2018-07-01T06:47:53Z</time>
      </trkpt>
      <trkpt lat="50.349514000117779" lon="6.529751010239124">
        <ele>457.72000000000003</ele>
        <time>2018-07-01T06:47:54Z</time>
      </trkpt>
      <trkpt lat="50.349563034251332" lon="6.529671968892217">
        <ele>458.69</ele>
        <time>2018-07-01T06:47:55Z</time>
      </trkpt>
      <trkpt lat="50.349630005657673" lon="6.529585970565677">
        <ele>459.64999999999998</ele>
        <time>2018-07-01T06:47:56Z</time>
      </trkpt>
      <trkpt lat="50.349687002599239" lon="6.529569961130619">
        <ele>460.61000000000001</ele>
        <time>2018-07-01T06:47:57Z</time>
      </trkpt>
      <trkpt lat="50.349748022854328" lon="6.529553029686213">
        <ele>462.05000000000001</ele>
        <time>2018-07-01T06:47:58Z</time>
      </trkpt>
      <trkpt lat="50.349808959290385" lon="6.529541965574026">
        <ele>462.52999999999997</ele>
        <time>2018-07-01T06:47:59Z</time>
      </trkpt>
      <trkpt lat="50.349870985373855" lon="6.529532996937633">
        <ele>463.97000000000003</ele>
        <time>2018-07-01T06:48:00Z</time>
      </trkpt>
      <trkpt lat="50.349938962608576" lon="6.52952503412962">
        <ele>464.93000000000001</ele>
        <time>2018-07-01T06:48:01Z</time>
      </trkpt>
      <trkpt lat="50.350007023662329" lon="6.529517993330956">
        <ele>465.89999999999998</ele>
        <time>2018-07-01T06:48:02Z</time>
      </trkpt>
      <trkpt lat="50.350080030038953" lon="6.529511958360672">
        <ele>467.33999999999997</ele>
        <time>2018-07-01T06:48:03Z</time>
      </trkpt>
      <trkpt lat="50.350149013102055" lon="6.52950500138104">
        <ele>468.30000000000001</ele>
        <time>2018-07-01T06:48:04Z</time>
      </trkpt>
      <trkpt lat="50.350232999771833" lon="6.529473988339305">
        <ele>469.25999999999999</ele>
        <time>2018-07-01T06:48:05Z</time>
      </trkpt>
      <trkpt lat="50.350496023893356" lon="6.529374998062849">
        <ele>472.13999999999999</ele>
        <time>2018-07-01T06:48:08Z</time>
      </trkpt>
      <trkpt lat="50.350581016391516" lon="6.529331998899579">
        <ele>472.63</ele>
        <time>2018-07-01T06:48:09Z</time>
      </trkpt>
      <trkpt lat="50.350660979747772" lon="6.529292017221451">
        <ele>473.11000000000001</ele>
        <time>2018-07-01T06:48:10Z</time>
      </trkpt>
      <trkpt lat="50.35074002109468" lon="6.529253041371703">
        <ele>473.11000000000001</ele>
        <time>2018-07-01T06:48:11Z</time>
      </trkpt>
      <trkpt lat="50.350813027471304" lon="6.529215993359685">
        <ele>473.11000000000001</ele>
        <time>2018-07-01T06:48:12Z</time>
      </trkpt>
      <trkpt lat="50.350881004706025" lon="6.529181962832809">
        <ele>473.11000000000001</ele>
        <time>2018-07-01T06:48:13Z</time>
      </trkpt>
      <trkpt lat="50.350946970283985" lon="6.529150027781725">
        <ele>473.11000000000001</ele>
        <time>2018-07-01T06:48:14Z</time>
      </trkpt>
      <trkpt lat="50.350992986932397" lon="6.52909797616303">
        <ele>472.63</ele>
        <time>2018-07-01T06:48:15Z</time>
      </trkpt>
      <trkpt lat="50.35112801939249" lon="6.528894966468215">
        <ele>472.63</ele>
        <time>2018-07-01T06:48:18Z</time>
      </trkpt>
      <trkpt lat="50.351148974150419" lon="6.528829000890255">
        <ele>472.63</ele>
        <time>2018-07-01T06:48:19Z</time>
      </trkpt>
      <trkpt lat="50.351176969707012" lon="6.528712995350361">
        <ele>472.13999999999999</ele>
        <time>2018-07-01T06:48:20Z</time>
      </trkpt>
      <trkpt lat="50.351616013795137" lon="6.527569033205509">
        <ele>468.30000000000001</ele>
        <time>2018-07-01T06:48:28Z</time>
      </trkpt>
      <trkpt lat="50.35183603875339" lon="6.527090007439256">
        <ele>467.81999999999999</ele>
        <time>2018-07-01T06:48:31Z</time>
      </trkpt>
      <trkpt lat="50.352134015411139" lon="6.526440996676683">
        <ele>466.38</ele>
        <time>2018-07-01T06:48:35Z</time>
      </trkpt>
      <trkpt lat="50.352198975160718" lon="6.526298001408577">
        <ele>466.86000000000001</ele>
        <time>2018-07-01T06:48:36Z</time>
      </trkpt>
      <trkpt lat="50.35226603038609" lon="6.52615400031209">
        <ele>467.33999999999997</ele>
        <time>2018-07-01T06:48:37Z</time>
      </trkpt>
      <trkpt lat="50.352339036762714" lon="6.526012010872364">
        <ele>467.33999999999997</ele>
        <time>2018-07-01T06:48:38Z</time>
      </trkpt>
      <trkpt lat="50.352414976805449" lon="6.525868009775877">
        <ele>467.33999999999997</ele>
        <time>2018-07-01T06:48:39Z</time>
      </trkpt>
      <trkpt lat="50.353110004216433" lon="6.524549033492804">
        <ele>466.86000000000001</ele>
        <time>2018-07-01T06:48:49Z</time>
      </trkpt>
      <trkpt lat="50.353203965350986" lon="6.52447896078229">
        <ele>466.38</ele>
        <time>2018-07-01T06:48:50Z</time>
      </trkpt>
      <trkpt lat="50.353282000869513" lon="6.524420036002994">
        <ele>465.89999999999998</ele>
        <time>2018-07-01T06:48:51Z</time>
      </trkpt>
      <trkpt lat="50.353453997522593" lon="6.524291038513184">
        <ele>465.42000000000002</ele>
        <time>2018-07-01T06:48:53Z</time>
      </trkpt>
      <trkpt lat="50.354388998821378" lon="6.523909997195005">
        <ele>463.97000000000003</ele>
        <time>2018-07-01T06:49:03Z</time>
      </trkpt>
      <trkpt lat="50.355486022308469" lon="6.523270038887858">
        <ele>463.49000000000001</ele>
        <time>2018-07-01T06:49:14Z</time>
      </trkpt>
      <trkpt lat="50.355572020635009" lon="6.52318898588419">
        <ele>463.97000000000003</ele>
        <time>2018-07-01T06:49:15Z</time>
      </trkpt>
      <trkpt lat="50.355649972334504" lon="6.523082032799721">
        <ele>464.44999999999999</ele>
        <time>2018-07-01T06:49:16Z</time>
      </trkpt>
      <trkpt lat="50.355719961225986" lon="6.522962003946304">
        <ele>464.93000000000001</ele>
        <time>2018-07-01T06:49:17Z</time>
      </trkpt>
      <trkpt lat="50.355771007016301" lon="6.522798975929618">
        <ele>465.89999999999998</ele>
        <time>2018-07-01T06:49:18Z</time>
      </trkpt>
      <trkpt lat="50.355821968987584" lon="6.522625973448157">
        <ele>466.38</ele>
        <time>2018-07-01T06:49:19Z</time>
      </trkpt>
      <trkpt lat="50.356344999745488" lon="6.520484983921051">
        <ele>469.74000000000001</ele>
        <time>2018-07-01T06:49:29Z</time>
      </trkpt>
      <trkpt lat="50.356393028050661" lon="6.520279040560126">
        <ele>469.74000000000001</ele>
        <time>2018-07-01T06:49:30Z</time>
      </trkpt>
      <trkpt lat="50.356501992791891" lon="6.520077958703041">
        <ele>469.74000000000001</ele>
        <time>2018-07-01T06:49:31Z</time>
      </trkpt>
      <trkpt lat="50.356613975018263" lon="6.519871009513736">
        <ele>470.22000000000003</ele>
        <time>2018-07-01T06:49:32Z</time>
      </trkpt>
      <trkpt lat="50.357628017663956" lon="6.518169986084104">
        <ele>468.77999999999997</ele>
        <time>2018-07-01T06:49:40Z</time>
      </trkpt>
      <trkpt lat="50.35776799544692" lon="6.518064960837364">
        <ele>468.30000000000001</ele>
        <time>2018-07-01T06:49:41Z</time>
      </trkpt>
      <trkpt lat="50.357913002371788" lon="6.517965970560908">
        <ele>467.81999999999999</ele>
        <time>2018-07-01T06:49:42Z</time>
      </trkpt>
      <trkpt lat="50.358058009296656" lon="6.517869997769594">
        <ele>466.86000000000001</ele>
        <time>2018-07-01T06:49:43Z</time>
      </trkpt>
      <trkpt lat="50.358724035322666" lon="6.517526004463434">
        <ele>463.97000000000003</ele>
        <time>2018-07-01T06:49:47Z</time>
      </trkpt>
      <trkpt lat="50.358879016712308" lon="6.51734696701169">
        <ele>463.49000000000001</ele>
        <time>2018-07-01T06:49:48Z</time>
      </trkpt>
      <trkpt lat="50.359023017808795" lon="6.517147980630398">
        <ele>463.00999999999999</ele>
        <time>2018-07-01T06:49:49Z</time>
      </trkpt>
      <trkpt lat="50.360075030475855" lon="6.515805032104254">
        <ele>462.52999999999997</ele>
        <time>2018-07-01T06:49:56Z</time>
      </trkpt>
      <trkpt lat="50.361078009009361" lon="6.514007030054927">
        <ele>466.86000000000001</ele>
        <time>2018-07-01T06:50:04Z</time>
      </trkpt>
      <trkpt lat="50.36182701587677" lon="6.511762021109462">
        <ele>474.06999999999999</ele>
        <time>2018-07-01T06:50:12Z</time>
      </trkpt>
      <trkpt lat="50.362318027764559" lon="6.508985012769699">
        <ele>478.87</ele>
        <time>2018-07-01T06:50:21Z</time>
      </trkpt>
      <trkpt lat="50.362374018877745" lon="6.505873985588551">
        <ele>480.31999999999999</ele>
        <time>2018-07-01T06:50:30Z</time>
      </trkpt>
      <trkpt lat="50.362147958949208" lon="6.502224002033472">
        <ele>481.75999999999999</ele>
        <time>2018-07-01T06:50:40Z</time>
      </trkpt>
      <trkpt lat="50.361862974241376" lon="6.49794202297926">
        <ele>486.07999999999998</ele>
        <time>2018-07-01T06:50:52Z</time>
      </trkpt>
      <trkpt lat="50.361638003960252" lon="6.496142009273171">
        <ele>492.81</ele>
        <time>2018-07-01T06:50:59Z</time>
      </trkpt>
      <trkpt lat="50.361412027850747" lon="6.494949012994766">
        <ele>494.74000000000001</ele>
        <time>2018-07-01T06:51:05Z</time>
      </trkpt>
      <trkpt lat="50.361366011202335" lon="6.494738962501288">
        <ele>494.25999999999999</ele>
        <time>2018-07-01T06:51:06Z</time>
      </trkpt>
      <trkpt lat="50.360944988206029" lon="6.492788996547461">
        <ele>492.32999999999998</ele>
        <time>2018-07-01T06:51:14Z</time>
      </trkpt>
      <trkpt lat="50.360718006268144" lon="6.491574039682746">
        <ele>491.37</ele>
        <time>2018-07-01T06:51:19Z</time>
      </trkpt>
      <trkpt lat="50.36071197129786" lon="6.491319984197617">
        <ele>490.88999999999999</ele>
        <time>2018-07-01T06:51:20Z</time>
      </trkpt>
      <trkpt lat="50.360722029581666" lon="6.491056960076094">
        <ele>490.41000000000003</ele>
        <time>2018-07-01T06:51:21Z</time>
      </trkpt>
      <trkpt lat="50.360792018473148" lon="6.489787017926574">
        <ele>488.97000000000003</ele>
        <time>2018-07-01T06:51:26Z</time>
      </trkpt>
      <trkpt lat="50.360839040949941" lon="6.489546038210392">
        <ele>488.97000000000003</ele>
        <time>2018-07-01T06:51:27Z</time>
      </trkpt>
      <trkpt lat="50.361309014260769" lon="6.487375963479281">
        <ele>489.93000000000001</ele>
        <time>2018-07-01T06:51:35Z</time>
      </trkpt>
      <trkpt lat="50.361585030332208" lon="6.485969983041287">
        <ele>490.41000000000003</ele>
        <time>2018-07-01T06:51:40Z</time>
      </trkpt>
      <trkpt lat="50.361607996746898" lon="6.485691033303738">
        <ele>490.41000000000003</ele>
        <time>2018-07-01T06:51:41Z</time>
      </trkpt>
      <trkpt lat="50.361759960651398" lon="6.48350696079433">
        <ele>487.52999999999997</ele>
        <time>2018-07-01T06:51:49Z</time>
      </trkpt>
      <trkpt lat="50.361850988119841" lon="6.482013976201415">
        <ele>490.88999999999999</ele>
        <time>2018-07-01T06:51:56Z</time>
      </trkpt>
      <trkpt lat="50.361863980069757" lon="6.481849020346999">
        <ele>491.37</ele>
        <time>2018-07-01T06:51:57Z</time>
      </trkpt>
      <trkpt lat="50.361877977848053" lon="6.481683980673552">
        <ele>492.32999999999998</ele>
        <time>2018-07-01T06:51:58Z</time>
      </trkpt>
      <trkpt lat="50.361918965354562" lon="6.480230977758765">
        <ele>496.66000000000003</ele>
        <time>2018-07-01T06:52:06Z</time>
      </trkpt>
      <trkpt lat="50.361778987571597" lon="6.479121968150139">
        <ele>496.18000000000001</ele>
        <time>2018-07-01T06:52:12Z</time>
      </trkpt>
      <trkpt lat="50.361305996775627" lon="6.477443994954228">
        <ele>490.88999999999999</ele>
        <time>2018-07-01T06:52:22Z</time>
      </trkpt>
      <trkpt lat="50.360912969335914" lon="6.47628603503108">
        <ele>487.05000000000001</ele>
        <time>2018-07-01T06:52:29Z</time>
      </trkpt>
      <trkpt lat="50.360878016799688" lon="6.476118983700872">
        <ele>486.56</ele>
        <time>2018-07-01T06:52:30Z</time>
      </trkpt>
      <trkpt lat="50.36083803512156" lon="6.475936006754637">
        <ele>486.07999999999998</ele>
        <time>2018-07-01T06:52:31Z</time>
      </trkpt>
      <trkpt lat="50.360798975452781" lon="6.475760992616415">
        <ele>486.07999999999998</ele>
        <time>2018-07-01T06:52:32Z</time>
      </trkpt>
      <trkpt lat="50.360785983502865" lon="6.475558988749981">
        <ele>485.60000000000002</ele>
        <time>2018-07-01T06:52:33Z</time>
      </trkpt>
      <trkpt lat="50.360770979896188" lon="6.475175013765693">
        <ele>486.07999999999998</ele>
        <time>2018-07-01T06:52:35Z</time>
      </trkpt>
      <trkpt lat="50.360738039016724" lon="6.474777041003108">
        <ele>486.56</ele>
        <time>2018-07-01T06:52:37Z</time>
      </trkpt>
      <trkpt lat="50.360722029581666" lon="6.474574031308293">
        <ele>487.05000000000001</ele>
        <time>2018-07-01T06:52:38Z</time>
      </trkpt>
      <trkpt lat="50.36053997464478" lon="6.472620964050293">
        <ele>491.37</ele>
        <time>2018-07-01T06:52:46Z</time>
      </trkpt>
      <trkpt lat="50.36051600240171" lon="6.470289034768939">
        <ele>495.22000000000003</ele>
        <time>2018-07-01T06:52:54Z</time>
      </trkpt>
      <trkpt lat="50.360513990744948" lon="6.470000026747584">
        <ele>495.69999999999999</ele>
        <time>2018-07-01T06:52:55Z</time>
      </trkpt>
      <trkpt lat="50.36055900156498" lon="6.46971495822072">
        <ele>495.69999999999999</ele>
        <time>2018-07-01T06:52:56Z</time>
      </trkpt>
      <trkpt lat="50.361003996804357" lon="6.467011962085962">
        <ele>493.76999999999998</ele>
        <time>2018-07-01T06:53:05Z</time>
      </trkpt>
      <trkpt lat="50.361082032322884" lon="6.466727983206511">
        <ele>493.29000000000002</ele>
        <time>2018-07-01T06:53:06Z</time>
      </trkpt>
      <trkpt lat="50.361185967922211" lon="6.466454984620214">
        <ele>492.81</ele>
        <time>2018-07-01T06:53:07Z</time>
      </trkpt>
      <trkpt lat="50.36169801838696" lon="6.465102983638644">
        <ele>489.44999999999999</ele>
        <time>2018-07-01T06:53:12Z</time>
      </trkpt>
      <trkpt lat="50.362084005028009" lon="6.464182985946536">
        <ele>487.05000000000001</ele>
        <time>2018-07-01T06:53:16Z</time>
      </trkpt>
      <trkpt lat="50.362219037488103" lon="6.464002020657063">
        <ele>486.56</ele>
        <time>2018-07-01T06:53:17Z</time>
      </trkpt>
      <trkpt lat="50.362362032756209" lon="6.463810997083783">
        <ele>486.07999999999998</ele>
        <time>2018-07-01T06:53:18Z</time>
      </trkpt>
      <trkpt lat="50.362486001104116" lon="6.463588960468769">
        <ele>485.60000000000002</ele>
        <time>2018-07-01T06:53:19Z</time>
      </trkpt>
      <trkpt lat="50.36260100081563" lon="6.463360972702503">
        <ele>486.07999999999998</ele>
        <time>2018-07-01T06:53:20Z</time>
      </trkpt>
      <trkpt lat="50.362694039940834" lon="6.463090991601348">
        <ele>486.56</ele>
        <time>2018-07-01T06:53:21Z</time>
      </trkpt>
      <trkpt lat="50.36277299746871" lon="6.46281598135829">
        <ele>487.52999999999997</ele>
        <time>2018-07-01T06:53:22Z</time>
      </trkpt>
      <trkpt lat="50.362851032987237" lon="6.462544994428754">
        <ele>488.49000000000001</ele>
        <time>2018-07-01T06:53:23Z</time>
      </trkpt>
      <trkpt lat="50.363496020436287" lon="6.460304008796811">
        <ele>496.66000000000003</ele>
        <time>2018-07-01T06:53:31Z</time>
      </trkpt>
      <trkpt lat="50.363608002662659" lon="6.459658015519381">
        <ele>498.57999999999998</ele>
        <time>2018-07-01T06:53:33Z</time>
      </trkpt>
      <trkpt lat="50.363659970462322" lon="6.459355009719729">
        <ele>499.54000000000002</ele>
        <time>2018-07-01T06:53:34Z</time>
      </trkpt>
      <trkpt lat="50.363764995709062" lon="6.458751009777188">
        <ele>501.94999999999999</ele>
        <time>2018-07-01T06:53:36Z</time>
      </trkpt>
      <trkpt lat="50.363862980157137" lon="6.458481028676033">
        <ele>503.38999999999999</ele>
        <time>2018-07-01T06:53:37Z</time>
      </trkpt>
      <trkpt lat="50.364339994266629" lon="6.457188036292791">
        <ele>510.12</ele>
        <time>2018-07-01T06:53:42Z</time>
      </trkpt>
      <trkpt lat="50.36438500508666" lon="6.456905985251069">
        <ele>511.07999999999998</ele>
        <time>2018-07-01T06:53:43Z</time>
      </trkpt>
      <trkpt lat="50.364462034776807" lon="6.454727025702596">
        <ele>511.56</ele>
        <time>2018-07-01T06:53:50Z</time>
      </trkpt>
      <trkpt lat="50.36440403200686" lon="6.453551966696978">
        <ele>510.12</ele>
        <time>2018-07-01T06:53:54Z</time>
      </trkpt>
      <trkpt lat="50.364357009530067" lon="6.453262958675623">
        <ele>509.63999999999999</ele>
        <time>2018-07-01T06:53:55Z</time>
      </trkpt>
      <trkpt lat="50.36427897401154" lon="6.452981997281313">
        <ele>508.67000000000002</ele>
        <time>2018-07-01T06:53:56Z</time>
      </trkpt>
      <trkpt lat="50.363896004855633" lon="6.451668972149491">
        <ele>505.31</ele>
        <time>2018-07-01T06:54:01Z</time>
      </trkpt>
      <trkpt lat="50.363829033449292" lon="6.451509967446327">
        <ele>504.35000000000002</ele>
        <time>2018-07-01T06:54:02Z</time>
      </trkpt>
      <trkpt lat="50.363753009587526" lon="6.45140502601862">
        <ele>503.87</ele>
        <time>2018-07-01T06:54:03Z</time>
      </trkpt>
      <trkpt lat="50.363666005432606" lon="6.451296983286738">
        <ele>503.38999999999999</ele>
        <time>2018-07-01T06:54:04Z</time>
      </trkpt>
      <trkpt lat="50.363576989620924" lon="6.451186006888747">
        <ele>502.91000000000003</ele>
        <time>2018-07-01T06:54:05Z</time>
      </trkpt>
      <trkpt lat="50.363110033795238" lon="6.450604973360896">
        <ele>500.01999999999998</ele>
        <time>2018-07-01T06:54:10Z</time>
      </trkpt>
      <trkpt lat="50.36301095969975" lon="6.450506988912821">
        <ele>499.54000000000002</ele>
        <time>2018-07-01T06:54:11Z</time>
      </trkpt>
      <trkpt lat="50.36272999830544" lon="6.45024798810482">
        <ele>497.13999999999999</ele>
        <time>2018-07-01T06:54:14Z</time>
      </trkpt>
      <trkpt lat="50.362553978338838" lon="6.450141035020351">
        <ele>496.18000000000001</ele>
        <time>2018-07-01T06:54:16Z</time>
      </trkpt>
      <trkpt lat="50.362486001104116" lon="6.450099041685462">
        <ele>495.69999999999999</ele>
        <time>2018-07-01T06:54:17Z</time>
      </trkpt>
      <trkpt lat="50.362444007769227" lon="6.449944982305169">
        <ele>495.69999999999999</ele>
        <time>2018-07-01T06:54:18Z</time>
      </trkpt>
      <trkpt lat="50.362473009154201" lon="6.449877005070448">
        <ele>495.22000000000003</ele>
        <time>2018-07-01T06:54:19Z</time>
      </trkpt>
      <trkpt lat="50.362508967518806" lon="6.449792012572289">
        <ele>495.22000000000003</ele>
        <time>2018-07-01T06:54:20Z</time>
      </trkpt>
      <trkpt lat="50.362551966682076" lon="6.449690004810691">
        <ele>495.22000000000003</ele>
        <time>2018-07-01T06:54:21Z</time>
      </trkpt>
      <trkpt lat="50.362602006644011" lon="6.449568970128894">
        <ele>495.22000000000003</ele>
        <time>2018-07-01T06:54:22Z</time>
      </trkpt>
      <trkpt lat="50.363272977992892" lon="6.448487034067512">
        <ele>495.69999999999999</ele>
        <time>2018-07-01T06:54:29Z</time>
      </trkpt>
      <trkpt lat="50.364454993978143" lon="6.447464022785425">
        <ele>496.18000000000001</ele>
        <time>2018-07-01T06:54:36Z</time>
      </trkpt>
      <trkpt lat="50.36616800352931" lon="6.446690959855914">
        <ele>496.18000000000001</ele>
        <time>2018-07-01T06:54:44Z</time>
      </trkpt>
      <trkpt lat="50.368430027738214" lon="6.446290975436568">
        <ele>499.06</ele>
        <time>2018-07-01T06:54:54Z</time>
      </trkpt>
      <trkpt lat="50.369726959615946" lon="6.446742005646229">
        <ele>501.45999999999998</ele>
        <time>2018-07-01T06:55:00Z</time>
      </trkpt>
      <trkpt lat="50.370580991730094" lon="6.447248021140695">
        <ele>502.43000000000001</ele>
        <time>2018-07-01T06:55:05Z</time>
      </trkpt>
      <trkpt lat="50.370745025575161" lon="6.447264030575752">
        <ele>502.43000000000001</ele>
        <time>2018-07-01T06:55:06Z</time>
      </trkpt>
      <trkpt lat="50.370921967551112" lon="6.447269981727004">
        <ele>501.94999999999999</ele>
        <time>2018-07-01T06:55:07Z</time>
      </trkpt>
      <trkpt lat="50.371099999174476" lon="6.447277022525668">
        <ele>501.94999999999999</ele>
        <time>2018-07-01T06:55:08Z</time>
      </trkpt>
      <trkpt lat="50.371275013312697" lon="6.447247015312314">
        <ele>501.45999999999998</ele>
        <time>2018-07-01T06:55:09Z</time>
      </trkpt>
      <trkpt lat="50.371446004137397" lon="6.447200998663902">
        <ele>501.45999999999998</ele>
        <time>2018-07-01T06:55:10Z</time>
      </trkpt>
      <trkpt lat="50.372237004339695" lon="6.447008969262242">
        <ele>501.45999999999998</ele>
        <time>2018-07-01T06:55:16Z</time>
      </trkpt>
      <trkpt lat="50.372315961867571" lon="6.446990026161075">
        <ele>501.94999999999999</ele>
        <time>2018-07-01T06:55:17Z</time>
      </trkpt>
      <trkpt lat="50.372381005436182" lon="6.446843007579446">
        <ele>502.43000000000001</ele>
        <time>2018-07-01T06:55:18Z</time>
      </trkpt>
      <trkpt lat="50.372404977679253" lon="6.446694983169437">
        <ele>502.91000000000003</ele>
        <time>2018-07-01T06:55:19Z</time>
      </trkpt>
      <trkpt lat="50.372431967407465" lon="6.446532038971782">
        <ele>502.91000000000003</ele>
        <time>2018-07-01T06:55:20Z</time>
      </trkpt>
      <trkpt lat="50.372535986825824" lon="6.445912029594183">
        <ele>503.87</ele>
        <time>2018-07-01T06:55:23Z</time>
      </trkpt>
      <trkpt lat="50.372577980160713" lon="6.445659985765815">
        <ele>503.87</ele>
        <time>2018-07-01T06:55:24Z</time>
      </trkpt>
      <trkpt lat="50.37297897040844" lon="6.443578004837036">
        <ele>504.82999999999998</ele>
        <time>2018-07-01T06:55:31Z</time>
      </trkpt>
      <trkpt lat="50.373309971764684" lon="6.441724011674523">
        <ele>506.26999999999998</ele>
        <time>2018-07-01T06:55:37Z</time>
      </trkpt>
      <trkpt lat="50.373416002839804" lon="6.44053403288126">
        <ele>506.75</ele>
        <time>2018-07-01T06:55:42Z</time>
      </trkpt>
      <trkpt lat="50.373420026153326" lon="6.440322976559401">
        <ele>506.75</ele>
        <time>2018-07-01T06:55:43Z</time>
      </trkpt>
      <trkpt lat="50.373370992019773" lon="6.440117033198476">
        <ele>506.75</ele>
        <time>2018-07-01T06:55:44Z</time>
      </trkpt>
      <trkpt lat="50.37332103587687" lon="6.439913017675281">
        <ele>507.23000000000002</ele>
        <time>2018-07-01T06:55:45Z</time>
      </trkpt>
      <trkpt lat="50.373238977044821" lon="6.439722999930382">
        <ele>507.23000000000002</ele>
        <time>2018-07-01T06:55:46Z</time>
      </trkpt>
      <trkpt lat="50.373154990375042" lon="6.439526025205851">
        <ele>507.23000000000002</ele>
        <time>2018-07-01T06:55:47Z</time>
      </trkpt>
      <trkpt lat="50.373068992048502" lon="6.439325027167797">
        <ele>507.23000000000002</ele>
        <time>2018-07-01T06:55:48Z</time>
      </trkpt>
      <trkpt lat="50.372988022863865" lon="6.439115982502699">
        <ele>507.23000000000002</ele>
        <time>2018-07-01T06:55:49Z</time>
      </trkpt>
      <trkpt lat="50.372932031750679" lon="6.438900986686349">
        <ele>507.23000000000002</ele>
        <time>2018-07-01T06:55:50Z</time>
      </trkpt>
      <trkpt lat="50.372542021796107" lon="6.437429040670395">
        <ele>507.70999999999998</ele>
        <time>2018-07-01T06:55:58Z</time>
      </trkpt>
      <trkpt lat="50.372356027364731" lon="6.436762008816004">
        <ele>508.19</ele>
        <time>2018-07-01T06:56:02Z</time>
      </trkpt>
      <trkpt lat="50.372300036251545" lon="6.436584983021021">
        <ele>508.19</ele>
        <time>2018-07-01T06:56:03Z</time>
      </trkpt>
      <trkpt lat="50.371498977765441" lon="6.43503600731492">
        <ele>508.19</ele>
        <time>2018-07-01T06:56:13Z</time>
      </trkpt>
      <trkpt lat="50.371119026094675" lon="6.434228997677565">
        <ele>506.75</ele>
        <time>2018-07-01T06:56:18Z</time>
      </trkpt>
      <trkpt lat="50.371073009446263" lon="6.434047026559711">
        <ele>506.26999999999998</ele>
        <time>2018-07-01T06:56:19Z</time>
      </trkpt>
      <trkpt lat="50.371041996404529" lon="6.43385399132967">
        <ele>506.26999999999998</ele>
        <time>2018-07-01T06:56:20Z</time>
      </trkpt>
      <trkpt lat="50.371012995019555" lon="6.433661039918661">
        <ele>506.26999999999998</ele>
        <time>2018-07-01T06:56:21Z</time>
      </trkpt>
      <trkpt lat="50.370983993634582" lon="6.433469010517001">
        <ele>506.26999999999998</ele>
        <time>2018-07-01T06:56:22Z</time>
      </trkpt>
      <trkpt lat="50.370971001684666" lon="6.433270024135709">
        <ele>506.26999999999998</ele>
        <time>2018-07-01T06:56:23Z</time>
      </trkpt>
      <trkpt lat="50.370995979756117" lon="6.433079000562429">
        <ele>506.75</ele>
        <time>2018-07-01T06:56:24Z</time>
      </trkpt>
      <trkpt lat="50.3710210416466" lon="6.432888982817531">
        <ele>506.75</ele>
        <time>2018-07-01T06:56:25Z</time>
      </trkpt>
      <trkpt lat="50.371047025546432" lon="6.432697959244251">
        <ele>506.75</ele>
        <time>2018-07-01T06:56:26Z</time>
      </trkpt>
      <trkpt lat="50.371069991961122" lon="6.432516993954778">
        <ele>506.75</ele>
        <time>2018-07-01T06:56:27Z</time>
      </trkpt>
      <trkpt lat="50.371364029124379" lon="6.430915966629982">
        <ele>506.75</ele>
        <time>2018-07-01T06:56:37Z</time>
      </trkpt>
      <trkpt lat="50.371353970840573" lon="6.430768026039004">
        <ele>507.23000000000002</ele>
        <time>2018-07-01T06:56:38Z</time>
      </trkpt>
      <trkpt lat="50.371327986940742" lon="6.430658977478743">
        <ele>507.23000000000002</ele>
        <time>2018-07-01T06:56:39Z</time>
      </trkpt>
      <trkpt lat="50.371266966685653" lon="6.430559987202287">
        <ele>507.70999999999998</ele>
        <time>2018-07-01T06:56:40Z</time>
      </trkpt>
      <trkpt lat="50.37119697779417" lon="6.430493015795946">
        <ele>508.19</ele>
        <time>2018-07-01T06:56:41Z</time>
      </trkpt>
      <trkpt lat="50.371106034144759" lon="6.430435013025999">
        <ele>508.19</ele>
        <time>2018-07-01T06:56:42Z</time>
      </trkpt>
      <trkpt lat="50.371008971706033" lon="6.43037399277091">
        <ele>508.19</ele>
        <time>2018-07-01T06:56:43Z</time>
      </trkpt>
      <trkpt lat="50.369962994009256" lon="6.42987996339798">
        <ele>508.19</ele>
        <time>2018-07-01T06:56:52Z</time>
      </trkpt>
      <trkpt lat="50.369861992076039" lon="6.42979497089982">
        <ele>509.16000000000003</ele>
        <time>2018-07-01T06:56:53Z</time>
      </trkpt>
      <trkpt lat="50.369771970435977" lon="6.42966597341001">
        <ele>510.12</ele>
        <time>2018-07-01T06:56:54Z</time>
      </trkpt>
      <trkpt lat="50.36971103399992" lon="6.429495988413692">
        <ele>511.56</ele>
        <time>2018-07-01T06:56:55Z</time>
      </trkpt>
      <trkpt lat="50.369666023179889" lon="6.429304964840412">
        <ele>513</ele>
        <time>2018-07-01T06:56:56Z</time>
      </trkpt>
      <trkpt lat="50.369620006531477" lon="6.429108995944262">
        <ele>514.44000000000005</ele>
        <time>2018-07-01T06:56:57Z</time>
      </trkpt>
      <trkpt lat="50.369573989883065" lon="6.428914032876492">
        <ele>515.88</ele>
        <time>2018-07-01T06:56:58Z</time>
      </trkpt>
      <trkpt lat="50.369501989334822" lon="6.428736001253128">
        <ele>517.80999999999995</ele>
        <time>2018-07-01T06:56:59Z</time>
      </trkpt>
      <trkpt lat="50.369424959644675" lon="6.428555035963655">
        <ele>519.25</ele>
        <time>2018-07-01T06:57:00Z</time>
      </trkpt>
      <trkpt lat="50.369339967146516" lon="6.428394019603729">
        <ele>521.16999999999996</ele>
        <time>2018-07-01T06:57:01Z</time>
      </trkpt>
      <trkpt lat="50.369233014062047" lon="6.428254963830113">
        <ele>522.61000000000001</ele>
        <time>2018-07-01T06:57:02Z</time>
      </trkpt>
      <trkpt lat="50.369121031835675" lon="6.428138958290219">
        <ele>524.05999999999995</ele>
        <time>2018-07-01T06:57:03Z</time>
      </trkpt>
      <trkpt lat="50.368991028517485" lon="6.428064024075866">
        <ele>525.98000000000002</ele>
        <time>2018-07-01T06:57:04Z</time>
      </trkpt>
      <trkpt lat="50.368860019370914" lon="6.427990011870861">
        <ele>527.41999999999996</ele>
        <time>2018-07-01T06:57:05Z</time>
      </trkpt>
      <trkpt lat="50.367788979783654" lon="6.427287021651864">
        <ele>540.88</ele>
        <time>2018-07-01T06:57:13Z</time>
      </trkpt>
      <trkpt lat="50.366889014840126" lon="6.426590988412499">
        <ele>552.89999999999998</ele>
        <time>2018-07-01T06:57:19Z</time>
      </trkpt>
      <trkpt lat="50.366755994036794" lon="6.426423015072942">
        <ele>554.82000000000005</ele>
        <time>2018-07-01T06:57:20Z</time>
      </trkpt>
      <trkpt lat="50.366631019860506" lon="6.426239032298327">
        <ele>556.25999999999999</ele>
        <time>2018-07-01T06:57:21Z</time>
      </trkpt>
      <trkpt lat="50.365429976955056" lon="6.423893021419644">
        <ele>575.97000000000003</ele>
        <time>2018-07-01T06:57:31Z</time>
      </trkpt>
      <trkpt lat="50.365155972540379" lon="6.423311987891793">
        <ele>580.76999999999998</ele>
        <time>2018-07-01T06:57:34Z</time>
      </trkpt>
      <trkpt lat="50.364939970895648" lon="6.422776971012354">
        <ele>583.65999999999997</ele>
        <time>2018-07-01T06:57:37Z</time>
      </trkpt>
      <trkpt lat="50.364865036681294" lon="6.422597011551261">
        <ele>584.62</ele>
        <time>2018-07-01T06:57:38Z</time>
      </trkpt>
      <trkpt lat="50.36453596316278" lon="6.42210298217833">
        <ele>586.53999999999996</ele>
        <time>2018-07-01T06:57:41Z</time>
      </trkpt>
      <trkpt lat="50.364411994814873" lon="6.421932997182012">
        <ele>586.53999999999996</ele>
        <time>2018-07-01T06:57:42Z</time>
      </trkpt>
      <trkpt lat="50.364282997325063" lon="6.421767035499215">
        <ele>586.53999999999996</ele>
        <time>2018-07-01T06:57:43Z</time>
      </trkpt>
      <trkpt lat="50.36292496137321" lon="6.419859984889627">
        <ele>595.19000000000005</ele>
        <time>2018-07-01T06:57:53Z</time>
      </trkpt>
      <trkpt lat="50.362810967490077" lon="6.419625040143728">
        <ele>595.66999999999996</ele>
        <time>2018-07-01T06:57:54Z</time>
      </trkpt>
      <trkpt lat="50.362521037459373" lon="6.418901011347771">
        <ele>596.63999999999999</ele>
        <time>2018-07-01T06:57:57Z</time>
      </trkpt>
      <trkpt lat="50.362415006384254" lon="6.418695989996195">
        <ele>596.63999999999999</ele>
        <time>2018-07-01T06:57:58Z</time>
      </trkpt>
      <trkpt lat="50.362291038036346" lon="6.41853597946465">
        <ele>596.63999999999999</ele>
        <time>2018-07-01T06:57:59Z</time>
      </trkpt>
      <trkpt lat="50.361511018127203" lon="6.417780015617609">
        <ele>593.75</ele>
        <time>2018-07-01T06:58:06Z</time>
      </trkpt>
      <trkpt lat="50.361418984830379" lon="6.417764006182551">
        <ele>593.26999999999998</ele>
        <time>2018-07-01T06:58:07Z</time>
      </trkpt>
      <trkpt lat="50.361309014260769" lon="6.41778202727437">
        <ele>593.26999999999998</ele>
        <time>2018-07-01T06:58:08Z</time>
      </trkpt>
      <trkpt lat="50.361221004277468" lon="6.417797030881047">
        <ele>592.78999999999996</ele>
        <time>2018-07-01T06:58:09Z</time>
      </trkpt>
      <trkpt lat="50.361094018444419" lon="6.417894009500742">
        <ele>592.30999999999995</ele>
        <time>2018-07-01T06:58:10Z</time>
      </trkpt>
      <trkpt lat="50.360974995419383" lon="6.417985036969185">
        <ele>591.83000000000004</ele>
        <time>2018-07-01T06:58:11Z</time>
      </trkpt>
      <trkpt lat="50.360025996342301" lon="6.418666988611221">
        <ele>588.95000000000005</ele>
        <time>2018-07-01T06:58:19Z</time>
      </trkpt>
      <trkpt lat="50.359963970258832" lon="6.418688027188182">
        <ele>588.95000000000005</ele>
        <time>2018-07-01T06:58:20Z</time>
      </trkpt>
      <trkpt lat="50.359870009124279" lon="6.418667994439602">
        <ele>588.95000000000005</ele>
        <time>2018-07-01T06:58:21Z</time>
      </trkpt>
      <trkpt lat="50.359870009124279" lon="6.4186180382967">
        <ele>588.46000000000004</ele>
        <time>2018-07-01T06:58:22Z</time>
      </trkpt>
      <trkpt lat="50.359870009124279" lon="6.418543020263314">
        <ele>588.46000000000004</ele>
        <time>2018-07-01T06:58:23Z</time>
      </trkpt>
      <trkpt lat="50.359870009124279" lon="6.41844604164362">
        <ele>588.46000000000004</ele>
        <time>2018-07-01T06:58:24Z</time>
      </trkpt>
      <trkpt lat="50.359870009124279" lon="6.41831997781992">
        <ele>588.46000000000004</ele>
        <time>2018-07-01T06:58:25Z</time>
      </trkpt>
      <trkpt lat="50.359870009124279" lon="6.418166002258658">
        <ele>587.98000000000002</ele>
        <time>2018-07-01T06:58:26Z</time>
      </trkpt>
      <trkpt lat="50.359852993860841" lon="6.417985958978534">
        <ele>587.98000000000002</ele>
        <time>2018-07-01T06:58:27Z</time>
      </trkpt>
      <trkpt lat="50.359823992475867" lon="6.417790995910764">
        <ele>587.98000000000002</ele>
        <time>2018-07-01T06:58:28Z</time>
      </trkpt>
      <trkpt lat="50.359791973605752" lon="6.417576000094414">
        <ele>588.46000000000004</ele>
        <time>2018-07-01T06:58:29Z</time>
      </trkpt>
      <trkpt lat="50.359735982492566" lon="6.4173539634794">
        <ele>588.46000000000004</ele>
        <time>2018-07-01T06:58:30Z</time>
      </trkpt>
      <trkpt lat="50.359670016914606" lon="6.417128993198276">
        <ele>588.46000000000004</ele>
        <time>2018-07-01T06:58:31Z</time>
      </trkpt>
      <trkpt lat="50.359185039997101" lon="6.415280029177666">
        <ele>587.5</ele>
        <time>2018-07-01T06:58:39Z</time>
      </trkpt>
      <trkpt lat="50.359102981165051" lon="6.41509504057467">
        <ele>587.5</ele>
        <time>2018-07-01T06:58:40Z</time>
      </trkpt>
      <trkpt lat="50.358985969796777" lon="6.414943998679519">
        <ele>587.5</ele>
        <time>2018-07-01T06:58:41Z</time>
      </trkpt>
      <trkpt lat="50.35883903503418" lon="6.414823969826102">
        <ele>587.5</ele>
        <time>2018-07-01T06:58:42Z</time>
      </trkpt>
      <trkpt lat="50.358680030331016" lon="6.414694972336292">
        <ele>587.01999999999998</ele>
        <time>2018-07-01T06:58:43Z</time>
      </trkpt>
      <trkpt lat="50.35736097022891" lon="6.413598032668233">
        <ele>582.22000000000003</ele>
        <time>2018-07-01T06:58:51Z</time>
      </trkpt>
      <trkpt lat="50.357229961082339" lon="6.413412038236857">
        <ele>581.73000000000002</ele>
        <time>2018-07-01T06:58:52Z</time>
      </trkpt>
      <trkpt lat="50.356506016105413" lon="6.412156010046601">
        <ele>576.92999999999995</ele>
        <time>2018-07-01T06:58:59Z</time>
      </trkpt>
      <trkpt lat="50.356357991695404" lon="6.411885023117065">
        <ele>575.00999999999999</ele>
        <time>2018-07-01T06:59:01Z</time>
      </trkpt>
      <trkpt lat="50.356067977845669" lon="6.411549998447299">
        <ele>573.55999999999995</ele>
        <time>2018-07-01T06:59:07Z</time>
      </trkpt>
      <trkpt lat="50.356063032522798" lon="6.411476992070675">
        <ele>573.55999999999995</ele>
        <time>2018-07-01T06:59:08Z</time>
      </trkpt>
      <trkpt lat="50.356056997552514" lon="6.411371966823936">
        <ele>573.55999999999995</ele>
        <time>2018-07-01T06:59:09Z</time>
      </trkpt>
      <trkpt lat="50.356039982289076" lon="6.411099974066019">
        <ele>574.03999999999996</ele>
        <time>2018-07-01T06:59:11Z</time>
      </trkpt>
      <trkpt lat="50.355866979807615" lon="6.409814022481442">
        <ele>577.88999999999999</ele>
        <time>2018-07-01T06:59:17Z</time>
      </trkpt>
      <trkpt lat="50.355566991493106" lon="6.407929016277194">
        <ele>580.28999999999996</ele>
        <time>2018-07-01T06:59:23Z</time>
      </trkpt>
      <trkpt lat="50.354884034022689" lon="6.404645992442966">
        <ele>580.28999999999996</ele>
        <time>2018-07-01T06:59:31Z</time>
      </trkpt>
      <trkpt lat="50.353794973343611" lon="6.400132002308965">
        <ele>578.85000000000002</ele>
        <time>2018-07-01T06:59:42Z</time>
      </trkpt>
      <trkpt lat="50.352256977930665" lon="6.395263038575649">
        <ele>573.08000000000004</ele>
        <time>2018-07-01T06:59:55Z</time>
      </trkpt>
      <trkpt lat="50.352027984336019" lon="6.394127039238811">
        <ele>571.63999999999999</ele>
        <time>2018-07-01T06:59:58Z</time>
      </trkpt>
      <trkpt lat="50.35200702957809" lon="6.393735017627478">
        <ele>570.67999999999995</ele>
        <time>2018-07-01T06:59:59Z</time>
      </trkpt>
      <trkpt lat="50.35198699682951" lon="6.39335498213768">
        <ele>570.20000000000005</ele>
        <time>2018-07-01T07:00:00Z</time>
      </trkpt>
      <trkpt lat="50.351983979344368" lon="6.392995985224843">
        <ele>569.24000000000001</ele>
        <time>2018-07-01T07:00:01Z</time>
      </trkpt>
      <trkpt lat="50.352020021528006" lon="6.392649980261922">
        <ele>568.27999999999997</ele>
        <time>2018-07-01T07:00:02Z</time>
      </trkpt>
      <trkpt lat="50.352055979892612" lon="6.392305986955762">
        <ele>567.79999999999995</ele>
        <time>2018-07-01T07:00:03Z</time>
      </trkpt>
      <trkpt lat="50.352097973227501" lon="6.391964005306363">
        <ele>566.83000000000004</ele>
        <time>2018-07-01T07:00:04Z</time>
      </trkpt>
      <trkpt lat="50.352156981825829" lon="6.391622023656964">
        <ele>565.87</ele>
        <time>2018-07-01T07:00:05Z</time>
      </trkpt>
      <trkpt lat="50.352690992876887" lon="6.388320978730917">
        <ele>564.90999999999997</ele>
        <time>2018-07-01T07:00:15Z</time>
      </trkpt>
      <trkpt lat="50.352810015901923" lon="6.38753199018538">
        <ele>566.83000000000004</ele>
        <time>2018-07-01T07:00:18Z</time>
      </trkpt>
      <trkpt lat="50.352830970659852" lon="6.387307019904256">
        <ele>567.32000000000005</ele>
        <time>2018-07-01T07:00:19Z</time>
      </trkpt>
      <trkpt lat="50.352791994810104" lon="6.387114990502596">
        <ele>568.27999999999997</ele>
        <time>2018-07-01T07:00:20Z</time>
      </trkpt>
      <trkpt lat="50.352741032838821" lon="6.386948022991419">
        <ele>569.24000000000001</ele>
        <time>2018-07-01T07:00:21Z</time>
      </trkpt>
      <trkpt lat="50.35269602201879" lon="6.386803016066551">
        <ele>569.72000000000003</ele>
        <time>2018-07-01T07:00:22Z</time>
      </trkpt>
      <trkpt lat="50.352657968178391" lon="6.386680975556374">
        <ele>570.20000000000005</ele>
        <time>2018-07-01T07:00:23Z</time>
      </trkpt>
      <trkpt lat="50.352584039792418" lon="6.386546026915312">
        <ele>571.15999999999997</ele>
        <time>2018-07-01T07:00:25Z</time>
      </trkpt>
      <trkpt lat="50.352574987336993" lon="6.386332958936691">
        <ele>571.63999999999999</ele>
        <time>2018-07-01T07:00:26Z</time>
      </trkpt>
      <trkpt lat="50.352619998157024" lon="6.386256013065577">
        <ele>571.63999999999999</ele>
        <time>2018-07-01T07:00:27Z</time>
      </trkpt>
      <trkpt lat="50.352676995098591" lon="6.386157022789121">
        <ele>572.12</ele>
        <time>2018-07-01T07:00:28Z</time>
      </trkpt>
      <trkpt lat="50.352745978161693" lon="6.386039005592465">
        <ele>572.12</ele>
        <time>2018-07-01T07:00:29Z</time>
      </trkpt>
      <trkpt lat="50.352897020056844" lon="6.385763995349407">
        <ele>572.60000000000002</ele>
        <time>2018-07-01T07:00:31Z</time>
      </trkpt>
      <trkpt lat="50.352982012555003" lon="6.385610019788146">
        <ele>573.08000000000004</ele>
        <time>2018-07-01T07:00:32Z</time>
      </trkpt>
      <trkpt lat="50.353873008862138" lon="6.383993988856673">
        <ele>575.49000000000001</ele>
        <time>2018-07-01T07:00:41Z</time>
      </trkpt>
      <trkpt lat="50.35413796082139" lon="6.383528038859367">
        <ele>573.55999999999995</ele>
        <time>2018-07-01T07:00:45Z</time>
      </trkpt>
      <trkpt lat="50.354188000783324" lon="6.383440028876066">
        <ele>573.08000000000004</ele>
        <time>2018-07-01T07:00:46Z</time>
      </trkpt>
      <trkpt lat="50.354236029088497" lon="6.383355036377907">
        <ele>573.08000000000004</ele>
        <time>2018-07-01T07:00:47Z</time>
      </trkpt>
      <trkpt lat="50.354472985491157" lon="6.382938958704472">
        <ele>572.12</ele>
        <time>2018-07-01T07:00:52Z</time>
      </trkpt>
      <trkpt lat="50.354612041264772" lon="6.382688004523516">
        <ele>571.15999999999997</ele>
        <time>2018-07-01T07:00:57Z</time>
      </trkpt>
      <trkpt lat="50.354556972160935" lon="6.382704013958573">
        <ele>570.67999999999995</ele>
        <time>2018-07-01T07:01:02Z</time>
      </trkpt>
      <trkpt lat="50.353904021903872" lon="6.383935986086726">
        <ele>569.72000000000003</ele>
        <time>2018-07-01T07:01:11Z</time>
      </trkpt>
      <trkpt lat="50.353779969736934" lon="6.384165985509753">
        <ele>569.72000000000003</ele>
        <time>2018-07-01T07:01:17Z</time>
      </trkpt>
      <trkpt lat="50.353730013594031" lon="6.384261958301067">
        <ele>569.72000000000003</ele>
        <time>2018-07-01T07:01:20Z</time>
      </trkpt>
      <trkpt lat="50.353721966966987" lon="6.384276039898396">
        <ele>569.72000000000003</ele>
        <time>2018-07-01T07:01:21Z</time>
      </trkpt>
      <trkpt lat="50.353789022192359" lon="6.384303029626608">
        <ele>570.67999999999995</ele>
        <time>2018-07-01T07:01:31Z</time>
      </trkpt>
      <trkpt lat="50.353798996657133" lon="6.384296994656324">
        <ele>570.67999999999995</ele>
        <time>2018-07-01T07:01:45Z</time>
      </trkpt>
      <trkpt lat="50.353776030242443" lon="6.384175037965179">
        <ele>572.60000000000002</ele>
        <time>2018-07-01T07:01:47Z</time>
      </trkpt>
      <trkpt lat="50.353792039677501" lon="6.384145030751824">
        <ele>573.08000000000004</ele>
        <time>2018-07-01T07:01:48Z</time>
      </trkpt>
      <trkpt lat="50.353858005255461" lon="6.384022990241647">
        <ele>574.52999999999997</ele>
        <time>2018-07-01T07:01:54Z</time>
      </trkpt>
      <trkpt lat="50.353901004418731" lon="6.38394202105701">
        <ele>575.00999999999999</ele>
        <time>2018-07-01T07:01:55Z</time>
      </trkpt>
      <trkpt lat="50.353954983875155" lon="6.383847976103425">
        <ele>575.00999999999999</ele>
        <time>2018-07-01T07:01:56Z</time>
      </trkpt>
      <trkpt lat="50.354521013796329" lon="6.382852960377932">
        <ele>575.49000000000001</ele>
        <time>2018-07-01T07:02:03Z</time>
      </trkpt>
      <trkpt lat="50.355635974556208" lon="6.380839962512255">
        <ele>579.80999999999995</ele>
        <time>2018-07-01T07:02:13Z</time>
      </trkpt>
      <trkpt lat="50.357111021876335" lon="6.378168985247612">
        <ele>594.71000000000004</ele>
        <time>2018-07-01T07:02:25Z</time>
      </trkpt>
      <trkpt lat="50.358319021761417" lon="6.376035958528519">
        <ele>603.85000000000002</ele>
        <time>2018-07-01T07:02:35Z</time>
      </trkpt>
      <trkpt lat="50.359532972797751" lon="6.373812993988395">
        <ele>610.57000000000005</ele>
        <time>2018-07-01T07:02:45Z</time>
      </trkpt>
      <trkpt lat="50.360142001882195" lon="6.372982012107968">
        <ele>611.05999999999995</ele>
        <time>2018-07-01T07:02:50Z</time>
      </trkpt>
      <trkpt lat="50.360263958573341" lon="6.372848991304636">
        <ele>611.05999999999995</ele>
        <time>2018-07-01T07:02:51Z</time>
      </trkpt>
      <trkpt lat="50.36135695874691" lon="6.371615007519722">
        <ele>607.21000000000004</ele>
        <time>2018-07-01T07:02:59Z</time>
      </trkpt>
      <trkpt lat="50.362825971096754" lon="6.369952959939838">
        <ele>602.39999999999998</ele>
        <time>2018-07-01T07:03:08Z</time>
      </trkpt>
      <trkpt lat="50.364488018676639" lon="6.368072982877493">
        <ele>600.96000000000004</ele>
        <time>2018-07-01T07:03:16Z</time>
      </trkpt>
      <trkpt lat="50.367243988439441" lon="6.364956004545093">
        <ele>611.53999999999996</ele>
        <time>2018-07-01T07:03:29Z</time>
      </trkpt>
      <trkpt lat="50.368730016052723" lon="6.363288005813956">
        <ele>619.71000000000004</ele>
        <time>2018-07-01T07:03:37Z</time>
      </trkpt>
      <trkpt lat="50.37020699121058" lon="6.361999958753586">
        <ele>628.36000000000001</ele>
        <time>2018-07-01T07:03:44Z</time>
      </trkpt>
      <trkpt lat="50.371331004425883" lon="6.360972002148628">
        <ele>634.61000000000001</ele>
        <time>2018-07-01T07:03:49Z</time>
      </trkpt>
      <trkpt lat="50.371498977765441" lon="6.36071995832026">
        <ele>636.04999999999995</ele>
        <time>2018-07-01T07:03:50Z</time>
      </trkpt>
      <trkpt lat="50.37164599634707" lon="6.36041795834899">
        <ele>637.00999999999999</ele>
        <time>2018-07-01T07:03:51Z</time>
      </trkpt>
      <trkpt lat="50.372813008725643" lon="6.357915038242936">
        <ele>643.74000000000001</ele>
        <time>2018-07-01T07:03:58Z</time>
      </trkpt>
      <trkpt lat="50.373424971476197" lon="6.3565060403198">
        <ele>647.10000000000002</ele>
        <time>2018-07-01T07:04:02Z</time>
      </trkpt>
      <trkpt lat="50.373510969802737" lon="6.356171015650034">
        <ele>647.59000000000003</ele>
        <time>2018-07-01T07:04:03Z</time>
      </trkpt>
      <trkpt lat="50.373568972572684" lon="6.355830961838365">
        <ele>648.54999999999995</ele>
        <time>2018-07-01T07:04:04Z</time>
      </trkpt>
      <trkpt lat="50.37358095869422" lon="6.355474982410669">
        <ele>649.50999999999999</ele>
        <time>2018-07-01T07:04:05Z</time>
      </trkpt>
      <trkpt lat="50.37358095869422" lon="6.355103999376297">
        <ele>649.99000000000001</ele>
        <time>2018-07-01T07:04:06Z</time>
      </trkpt>
      <trkpt lat="50.37358095869422" lon="6.35474500246346">
        <ele>650.95000000000005</ele>
        <time>2018-07-01T07:04:07Z</time>
      </trkpt>
      <trkpt lat="50.373611971735954" lon="6.354075958952308">
        <ele>652.38999999999999</ele>
        <time>2018-07-01T07:04:09Z</time>
      </trkpt>
      <trkpt lat="50.373675003647804" lon="6.35377898812294">
        <ele>653.35000000000002</ele>
        <time>2018-07-01T07:04:10Z</time>
      </trkpt>
      <trkpt lat="50.373763013631105" lon="6.35350096039474">
        <ele>653.83000000000004</ele>
        <time>2018-07-01T07:04:11Z</time>
      </trkpt>
      <trkpt lat="50.373849011957645" lon="6.353227961808443">
        <ele>654.79999999999995</ele>
        <time>2018-07-01T07:04:12Z</time>
      </trkpt>
      <trkpt lat="50.373977003619075" lon="6.353010032325983">
        <ele>655.75999999999999</ele>
        <time>2018-07-01T07:04:13Z</time>
      </trkpt>
      <trkpt lat="50.374133996665478" lon="6.352823032066226">
        <ele>656.72000000000003</ele>
        <time>2018-07-01T07:04:14Z</time>
      </trkpt>
      <trkpt lat="50.374299036338925" lon="6.352626979351044">
        <ele>657.20000000000005</ele>
        <time>2018-07-01T07:04:15Z</time>
      </trkpt>
      <trkpt lat="50.374477989971638" lon="6.35246797464788">
        <ele>658.15999999999997</ele>
        <time>2018-07-01T07:04:16Z</time>
      </trkpt>
      <trkpt lat="50.375876007601619" lon="6.351326024159789">
        <ele>659.12</ele>
        <time>2018-07-01T07:04:23Z</time>
      </trkpt>
      <trkpt lat="50.376259982585907" lon="6.350955041125417">
        <ele>657.67999999999995</ele>
        <time>2018-07-01T07:04:25Z</time>
      </trkpt>
      <trkpt lat="50.376439020037651" lon="6.35072504170239">
        <ele>657.20000000000005</ele>
        <time>2018-07-01T07:04:26Z</time>
      </trkpt>
      <trkpt lat="50.377706028521061" lon="6.348872976377606">
        <ele>654.79999999999995</ele>
        <time>2018-07-01T07:04:33Z</time>
      </trkpt>
      <trkpt lat="50.378588978201151" lon="6.347321989014745">
        <ele>657.20000000000005</ele>
        <time>2018-07-01T07:04:39Z</time>
      </trkpt>
      <trkpt lat="50.378687968477607" lon="6.34707204066217">
        <ele>657.67999999999995</ele>
        <time>2018-07-01T07:04:40Z</time>
      </trkpt>
      <trkpt lat="50.378760974854231" lon="6.346833994612098">
        <ele>658.63999999999999</ele>
        <time>2018-07-01T07:04:41Z</time>
      </trkpt>
      <trkpt lat="50.379130030050874" lon="6.345386020839214">
        <ele>663.92999999999995</ele>
        <time>2018-07-01T07:04:48Z</time>
      </trkpt>
      <trkpt lat="50.379490032792091" lon="6.344253038987517">
        <ele>667.76999999999998</ele>
        <time>2018-07-01T07:04:56Z</time>
      </trkpt>
      <trkpt lat="50.379506964236498" lon="6.344139967113733">
        <ele>668.25</ele>
        <time>2018-07-01T07:04:57Z</time>
      </trkpt>
      <trkpt lat="50.379523979499936" lon="6.344031002372503">
        <ele>668.73000000000002</ele>
        <time>2018-07-01T07:04:58Z</time>
      </trkpt>
      <trkpt lat="50.379569996148348" lon="6.343738976866007">
        <ele>670.17999999999995</ele>
        <time>2018-07-01T07:05:01Z</time>
      </trkpt>
      <trkpt lat="50.379720032215118" lon="6.343123996630311">
        <ele>672.58000000000004</ele>
        <time>2018-07-01T07:05:11Z</time>
      </trkpt>
      <trkpt lat="50.379742998629808" lon="6.342973960563541">
        <ele>673.05999999999995</ele>
        <time>2018-07-01T07:05:13Z</time>
      </trkpt>
      <trkpt lat="50.379752973094583" lon="6.342905983328819">
        <ele>673.53999999999996</ele>
        <time>2018-07-01T07:05:14Z</time>
      </trkpt>
      <trkpt lat="50.379888005554676" lon="6.342686964198947">
        <ele>674.01999999999998</ele>
        <time>2018-07-01T07:05:19Z</time>
      </trkpt>
      <trkpt lat="50.379921030253172" lon="6.342636002227664">
        <ele>674.01999999999998</ele>
        <time>2018-07-01T07:05:20Z</time>
      </trkpt>
      <trkpt lat="50.379953971132636" lon="6.342587973922491">
        <ele>674.5</ele>
        <time>2018-07-01T07:05:21Z</time>
      </trkpt>
      <trkpt lat="50.379947014153004" lon="6.342495018616319">
        <ele>674.5</ele>
        <time>2018-07-01T07:05:22Z</time>
      </trkpt>
      <trkpt lat="50.37993997335434" lon="6.342404996976256">
        <ele>674.5</ele>
        <time>2018-07-01T07:05:23Z</time>
      </trkpt>
      <trkpt lat="50.380011973902583" lon="6.342177009209991">
        <ele>674.5</ele>
        <time>2018-07-01T07:05:25Z</time>
      </trkpt>
      <trkpt lat="50.380064025521278" lon="6.342091010883451">
        <ele>674.98000000000002</ele>
        <time>2018-07-01T07:05:26Z</time>
      </trkpt>
      <trkpt lat="50.380257982760668" lon="6.3417689781636">
        <ele>675.46000000000004</ele>
        <time>2018-07-01T07:05:29Z</time>
      </trkpt>
      <trkpt lat="50.38101302459836" lon="6.340540023520589">
        <ele>674.5</ele>
        <time>2018-07-01T07:05:37Z</time>
      </trkpt>
      <trkpt lat="50.382023965939879" lon="6.338950982317329">
        <ele>675.46000000000004</ele>
        <time>2018-07-01T07:05:46Z</time>
      </trkpt>
      <trkpt lat="50.382774984464049" lon="6.337810037657619">
        <ele>674.5</ele>
        <time>2018-07-01T07:05:56Z</time>
      </trkpt>
      <trkpt lat="50.38301202468574" lon="6.337446011602879">
        <ele>673.53999999999996</ele>
        <time>2018-07-01T07:06:04Z</time>
      </trkpt>
      <trkpt lat="50.383088970556855" lon="6.33732195943594">
        <ele>672.58000000000004</ele>
        <time>2018-07-01T07:06:13Z</time>
      </trkpt>
      <trkpt lat="50.383088970556855" lon="6.33732195943594">
        <ele>672.58000000000004</ele>
        <time>2018-07-01T07:06:15Z</time>
      </trkpt>
      <trkpt lat="50.382805997505784" lon="6.337765026837587">
        <ele>671.62</ele>
        <time>2018-07-01T07:06:22Z</time>
      </trkpt>
      <trkpt lat="50.382728967815638" lon="6.337881032377482">
        <ele>671.62</ele>
        <time>2018-07-01T07:06:23Z</time>
      </trkpt>
      <trkpt lat="50.382011979818344" lon="6.338971015065908">
        <ele>671.62</ele>
        <time>2018-07-01T07:06:32Z</time>
      </trkpt>
      <trkpt lat="50.381763959303498" lon="6.3393600191921">
        <ele>672.58000000000004</ele>
        <time>2018-07-01T07:06:35Z</time>
      </trkpt>
      <trkpt lat="50.381678966805339" lon="6.339493039995432">
        <ele>672.58000000000004</ele>
        <time>2018-07-01T07:06:36Z</time>
      </trkpt>
      <trkpt lat="50.381596991792321" lon="6.339622037485242">
        <ele>672.10000000000002</ele>
        <time>2018-07-01T07:06:37Z</time>
      </trkpt>
      <trkpt lat="50.381519962102175" lon="6.339742988348007">
        <ele>672.10000000000002</ele>
        <time>2018-07-01T07:06:38Z</time>
      </trkpt>
      <trkpt lat="50.381446033716202" lon="6.339859999716282">
        <ele>671.62</ele>
        <time>2018-07-01T07:06:39Z</time>
      </trkpt>
      <trkpt lat="50.381050994619727" lon="6.340480009093881">
        <ele>670.65999999999997</ele>
        <time>2018-07-01T07:06:46Z</time>
      </trkpt>
      <trkpt lat="50.380960972979665" lon="6.340621998533607">
        <ele>670.65999999999997</ele>
        <time>2018-07-01T07:06:48Z</time>
      </trkpt>
      <trkpt lat="50.380924008786678" lon="6.340680001303554">
        <ele>670.17999999999995</ele>
        <time>2018-07-01T07:06:49Z</time>
      </trkpt>
      <trkpt lat="50.380892995744944" lon="6.340729035437107">
        <ele>670.17999999999995</ele>
        <time>2018-07-01T07:06:50Z</time>
      </trkpt>
      <trkpt lat="50.380867011845112" lon="6.340770022943616">
        <ele>669.70000000000005</ele>
        <time>2018-07-01T07:06:51Z</time>
      </trkpt>
      <trkpt lat="50.380851002410054" lon="6.340793995186687">
        <ele>670.17999999999995</ele>
        <time>2018-07-01T07:06:52Z</time>
      </trkpt>
      <trkpt lat="50.380851002410054" lon="6.340793995186687">
        <ele>670.17999999999995</ele>
        <time>2018-07-01T07:06:55Z</time>
      </trkpt>
      <trkpt lat="50.380865000188351" lon="6.340772034600377">
        <ele>670.17999999999995</ele>
        <time>2018-07-01T07:06:57Z</time>
      </trkpt>
      <trkpt lat="50.380894001573324" lon="6.340728029608727">
        <ele>669.70000000000005</ele>
        <time>2018-07-01T07:06:58Z</time>
      </trkpt>
      <trkpt lat="50.381279988214374" lon="6.340121012181044">
        <ele>669.22000000000003</ele>
        <time>2018-07-01T07:07:04Z</time>
      </trkpt>
      <trkpt lat="50.381434969604015" lon="6.339878020808101">
        <ele>669.22000000000003</ele>
        <time>2018-07-01T07:07:06Z</time>
      </trkpt>
      <trkpt lat="50.381681984290481" lon="6.33948901668191">
        <ele>668.73000000000002</ele>
        <time>2018-07-01T07:07:10Z</time>
      </trkpt>
      <trkpt lat="50.381740992888808" lon="6.339396983385086">
        <ele>668.73000000000002</ele>
        <time>2018-07-01T07:07:11Z</time>
      </trkpt>
      <trkpt lat="50.382412970066071" lon="6.338358968496323">
        <ele>671.13999999999999</ele>
        <time>2018-07-01T07:07:19Z</time>
      </trkpt>
      <trkpt lat="50.383474035188556" lon="6.336704967543483">
        <ele>670.65999999999997</ele>
        <time>2018-07-01T07:07:28Z</time>
      </trkpt>
      <trkpt lat="50.384897030889988" lon="6.334453001618385">
        <ele>666.80999999999995</ele>
        <time>2018-07-01T07:07:38Z</time>
      </trkpt>
      <trkpt lat="50.386318014934659" lon="6.332230037078261">
        <ele>664.88999999999999</ele>
        <time>2018-07-01T07:07:48Z</time>
      </trkpt>
      <trkpt lat="50.388253983110189" lon="6.329201990738511">
        <ele>668.73000000000002</ele>
        <time>2018-07-01T07:08:01Z</time>
      </trkpt>
      <trkpt lat="50.389190996065736" lon="6.327474983409047">
        <ele>671.62</ele>
        <time>2018-07-01T07:08:08Z</time>
      </trkpt>
      <trkpt lat="50.390079980716109" lon="6.324894027784467">
        <ele>664.88999999999999</ele>
        <time>2018-07-01T07:08:17Z</time>
      </trkpt>
      <trkpt lat="50.390373012050986" lon="6.324095986783505">
        <ele>663.45000000000005</ele>
        <time>2018-07-01T07:08:20Z</time>
      </trkpt>
      <trkpt lat="50.390512989833951" lon="6.323874033987522">
        <ele>662.97000000000003</ele>
        <time>2018-07-01T07:08:21Z</time>
      </trkpt>
      <trkpt lat="50.390659002587199" lon="6.32365501485765">
        <ele>662.49000000000001</ele>
        <time>2018-07-01T07:08:22Z</time>
      </trkpt>
      <trkpt lat="50.39081297814846" lon="6.323452005162835">
        <ele>662.00999999999999</ele>
        <time>2018-07-01T07:08:23Z</time>
      </trkpt>
      <trkpt lat="50.390999978408217" lon="6.32329098880291">
        <ele>661.51999999999998</ele>
        <time>2018-07-01T07:08:24Z</time>
      </trkpt>
      <trkpt lat="50.391197958961129" lon="6.323122009634972">
        <ele>661.03999999999996</ele>
        <time>2018-07-01T07:08:25Z</time>
      </trkpt>
      <trkpt lat="50.391402980312705" lon="6.322944983839989">
        <ele>661.03999999999996</ele>
        <time>2018-07-01T07:08:26Z</time>
      </trkpt>
      <trkpt lat="50.393864996731281" lon="6.320875994861126">
        <ele>661.51999999999998</ele>
        <time>2018-07-01T07:08:37Z</time>
      </trkpt>
      <trkpt lat="50.395786967128515" lon="6.319276979193091">
        <ele>659.12</ele>
        <time>2018-07-01T07:08:46Z</time>
      </trkpt>
      <trkpt lat="50.397014999762177" lon="6.318208035081625">
        <ele>653.83000000000004</ele>
        <time>2018-07-01T07:08:52Z</time>
      </trkpt>
      <trkpt lat="50.397153971716762" lon="6.318022962659597">
        <ele>652.87</ele>
        <time>2018-07-01T07:08:53Z</time>
      </trkpt>
      <trkpt lat="50.397252039983869" lon="6.317817019298673">
        <ele>651.90999999999997</ele>
        <time>2018-07-01T07:08:54Z</time>
      </trkpt>
      <trkpt lat="50.397333009168506" lon="6.317572016268969">
        <ele>651.42999999999995</ele>
        <time>2018-07-01T07:08:55Z</time>
      </trkpt>
      <trkpt lat="50.397418001666665" lon="6.31731703877449">
        <ele>650.95000000000005</ele>
        <time>2018-07-01T07:08:56Z</time>
      </trkpt>
      <trkpt lat="50.397474998608232" lon="6.317035993561149">
        <ele>650.47000000000003</ele>
        <time>2018-07-01T07:08:57Z</time>
      </trkpt>
      <trkpt lat="50.397524032741785" lon="6.316731981933117">
        <ele>649.99000000000001</ele>
        <time>2018-07-01T07:08:58Z</time>
      </trkpt>
      <trkpt lat="50.398010015487671" lon="6.313872998580337">
        <ele>648.54999999999995</ele>
        <time>2018-07-01T07:09:06Z</time>
      </trkpt>
      <trkpt lat="50.398490969091654" lon="6.311029018834233">
        <ele>646.13999999999999</ele>
        <time>2018-07-01T07:09:14Z</time>
      </trkpt>
      <trkpt lat="50.399183984845877" lon="6.306989025324583">
        <ele>637.00999999999999</ele>
        <time>2018-07-01T07:09:25Z</time>
      </trkpt>
      <trkpt lat="50.399909019470215" lon="6.302749961614609">
        <ele>632.20000000000005</ele>
        <time>2018-07-01T07:09:37Z</time>
      </trkpt>
      <trkpt lat="50.400821976363659" lon="6.297360984608531">
        <ele>624.50999999999999</ele>
        <time>2018-07-01T07:09:52Z</time>
      </trkpt>
      <trkpt lat="50.400961032137275" lon="6.296276031062007">
        <ele>622.59000000000003</ele>
        <time>2018-07-01T07:09:55Z</time>
      </trkpt>
      <trkpt lat="50.400960026308894" lon="6.295912005007267">
        <ele>621.63</ele>
        <time>2018-07-01T07:09:56Z</time>
      </trkpt>
      <trkpt lat="50.400913003832102" lon="6.295555019751191">
        <ele>620.66999999999996</ele>
        <time>2018-07-01T07:09:57Z</time>
      </trkpt>
      <trkpt lat="50.400568004697561" lon="6.29295302554965">
        <ele>612.98000000000002</ele>
        <time>2018-07-01T07:10:05Z</time>
      </trkpt>
      <trkpt lat="50.400541014969349" lon="6.292457990348339">
        <ele>611.05999999999995</ele>
        <time>2018-07-01T07:10:07Z</time>
      </trkpt>
      <trkpt lat="50.400534979999065" lon="6.292211981490254">
        <ele>610.57000000000005</ele>
        <time>2018-07-01T07:10:08Z</time>
      </trkpt>
      <trkpt lat="50.40054596029222" lon="6.291959015652537">
        <ele>609.61000000000001</ele>
        <time>2018-07-01T07:10:09Z</time>
      </trkpt>
      <trkpt lat="50.400576973333955" lon="6.291698003187776">
        <ele>608.64999999999998</ele>
        <time>2018-07-01T07:10:10Z</time>
      </trkpt>
      <trkpt lat="50.400636987760663" lon="6.29144998267293">
        <ele>608.16999999999996</ele>
        <time>2018-07-01T07:10:11Z</time>
      </trkpt>
      <trkpt lat="50.400699013844132" lon="6.291196011006832">
        <ele>607.21000000000004</ele>
        <time>2018-07-01T07:10:12Z</time>
      </trkpt>
      <trkpt lat="50.400775037705898" lon="6.290948996320367">
        <ele>606.73000000000002</ele>
        <time>2018-07-01T07:10:13Z</time>
      </trkpt>
      <trkpt lat="50.400874027982354" lon="6.290716985240579">
        <ele>605.76999999999998</ele>
        <time>2018-07-01T07:10:14Z</time>
      </trkpt>
      <trkpt lat="50.400997996330261" lon="6.290498971939087">
        <ele>605.28999999999996</ele>
        <time>2018-07-01T07:10:15Z</time>
      </trkpt>
      <trkpt lat="50.401125987991691" lon="6.290276013314724">
        <ele>604.80999999999995</ele>
        <time>2018-07-01T07:10:16Z</time>
      </trkpt>
      <trkpt lat="50.402554012835026" lon="6.287778960540891">
        <ele>596.63999999999999</ele>
        <time>2018-07-01T07:10:26Z</time>
      </trkpt>
      <trkpt lat="50.404530968517065" lon="6.284356964752078">
        <ele>589.90999999999997</ele>
        <time>2018-07-01T07:10:39Z</time>
      </trkpt>
      <trkpt lat="50.406217994168401" lon="6.281229006126523">
        <ele>582.22000000000003</ele>
        <time>2018-07-01T07:10:50Z</time>
      </trkpt>
      <trkpt lat="50.406340034678578" lon="6.280918037518859">
        <ele>581.73000000000002</ele>
        <time>2018-07-01T07:10:51Z</time>
      </trkpt>
      <trkpt lat="50.406413963064551" lon="6.28055602312088">
        <ele>581.25</ele>
        <time>2018-07-01T07:10:52Z</time>
      </trkpt>
      <trkpt lat="50.406427960842848" lon="6.280197026208043">
        <ele>580.76999999999998</ele>
        <time>2018-07-01T07:10:53Z</time>
      </trkpt>
      <trkpt lat="50.406416980549693" lon="6.279842974618077">
        <ele>579.80999999999995</ele>
        <time>2018-07-01T07:10:54Z</time>
      </trkpt>
      <trkpt lat="50.406384961679578" lon="6.27948397770524">
        <ele>579.33000000000004</ele>
        <time>2018-07-01T07:10:55Z</time>
      </trkpt>
      <trkpt lat="50.406321007758379" lon="6.279134033247829">
        <ele>578.85000000000002</ele>
        <time>2018-07-01T07:10:56Z</time>
      </trkpt>
      <trkpt lat="50.406256970018148" lon="6.278784004971385">
        <ele>578.37</ele>
        <time>2018-07-01T07:10:57Z</time>
      </trkpt>
      <trkpt lat="50.406191004440188" lon="6.278433976694942">
        <ele>577.88999999999999</ele>
        <time>2018-07-01T07:10:58Z</time>
      </trkpt>
      <trkpt lat="50.406085979193449" lon="6.2781080044806">
        <ele>577.88999999999999</ele>
        <time>2018-07-01T07:10:59Z</time>
      </trkpt>
      <trkpt lat="50.405981037765741" lon="6.27778303809464">
        <ele>577.40999999999997</ele>
        <time>2018-07-01T07:11:00Z</time>
      </trkpt>
      <trkpt lat="50.405106972903013" lon="6.275814967229962">
        <ele>573.08000000000004</ele>
        <time>2018-07-01T07:11:07Z</time>
      </trkpt>
      <trkpt lat="50.404928019270301" lon="6.275137038901448">
        <ele>571.15999999999997</ele>
        <time>2018-07-01T07:11:10Z</time>
      </trkpt>
      <trkpt lat="50.404871022328734" lon="6.274748034775257">
        <ele>570.20000000000005</ele>
        <time>2018-07-01T07:11:12Z</time>
      </trkpt>
      <trkpt lat="50.404607998207211" lon="6.272615008056164">
        <ele>566.83000000000004</ele>
        <time>2018-07-01T07:11:22Z</time>
      </trkpt>
      <trkpt lat="50.404297029599547" lon="6.269778991118074">
        <ele>563.47000000000003</ele>
        <time>2018-07-01T07:11:34Z</time>
      </trkpt>
      <trkpt lat="50.404289988800883" lon="6.269563995301724">
        <ele>562.99000000000001</ele>
        <time>2018-07-01T07:11:35Z</time>
      </trkpt>
      <trkpt lat="50.404316978529096" lon="6.269345982000232">
        <ele>562.50999999999999</ele>
        <time>2018-07-01T07:11:36Z</time>
      </trkpt>
      <trkpt lat="50.404370035976171" lon="6.269143978133798">
        <ele>562.50999999999999</ele>
        <time>2018-07-01T07:11:37Z</time>
      </trkpt>
      <trkpt lat="50.404447987675667" lon="6.268944991752505">
        <ele>562.50999999999999</ele>
        <time>2018-07-01T07:11:38Z</time>
      </trkpt>
      <trkpt lat="50.404529040679336" lon="6.268737958744168">
        <ele>562.50999999999999</ele>
        <time>2018-07-01T07:11:39Z</time>
      </trkpt>
      <trkpt lat="50.404618978500366" lon="6.268533021211624">
        <ele>562.99000000000001</ele>
        <time>2018-07-01T07:11:40Z</time>
      </trkpt>
      <trkpt lat="50.404908992350101" lon="6.267935978248715">
        <ele>563.95000000000005</ele>
        <time>2018-07-01T07:11:43Z</time>
      </trkpt>
      <trkpt lat="50.405052993446589" lon="6.267745960503817">
        <ele>565.38999999999999</ele>
        <time>2018-07-01T07:11:44Z</time>
      </trkpt>
      <trkpt lat="50.405189031735063" lon="6.267571030184627">
        <ele>566.35000000000002</ele>
        <time>2018-07-01T07:11:45Z</time>
      </trkpt>
      <trkpt lat="50.406478000804782" lon="6.266044015064836">
        <ele>570.20000000000005</ele>
        <time>2018-07-01T07:11:54Z</time>
      </trkpt>
      <trkpt lat="50.406574979424477" lon="6.265849974006414">
        <ele>570.67999999999995</ele>
        <time>2018-07-01T07:11:55Z</time>
      </trkpt>
      <trkpt lat="50.406656032428145" lon="6.265662973746657">
        <ele>571.63999999999999</ele>
        <time>2018-07-01T07:11:56Z</time>
      </trkpt>
      <trkpt lat="50.406723003834486" lon="6.26547203399241">
        <ele>572.60000000000002</ele>
        <time>2018-07-01T07:11:57Z</time>
      </trkpt>
      <trkpt lat="50.406776983290911" lon="6.265284027904272">
        <ele>573.08000000000004</ele>
        <time>2018-07-01T07:11:58Z</time>
      </trkpt>
      <trkpt lat="50.406819982454181" lon="6.265090992674232">
        <ele>573.08000000000004</ele>
        <time>2018-07-01T07:11:59Z</time>
      </trkpt>
      <trkpt lat="50.406862981617451" lon="6.264902986586094">
        <ele>573.55999999999995</ele>
        <time>2018-07-01T07:12:00Z</time>
      </trkpt>
      <trkpt lat="50.40690396912396" lon="6.26472202129662">
        <ele>574.03999999999996</ele>
        <time>2018-07-01T07:12:01Z</time>
      </trkpt>
      <trkpt lat="50.406929031014442" lon="6.264360006898642">
        <ele>574.52999999999997</ele>
        <time>2018-07-01T07:12:03Z</time>
      </trkpt>
      <trkpt lat="50.406961971893907" lon="6.263238005340099">
        <ele>575.97000000000003</ele>
        <time>2018-07-01T07:12:10Z</time>
      </trkpt>
      <trkpt lat="50.406949985772371" lon="6.263088975101709">
        <ele>576.45000000000005</ele>
        <time>2018-07-01T07:12:11Z</time>
      </trkpt>
      <trkpt lat="50.406936993822455" lon="6.262941034510732">
        <ele>576.92999999999995</ele>
        <time>2018-07-01T07:12:12Z</time>
      </trkpt>
      <trkpt lat="50.406930958852172" lon="6.262646997347474">
        <ele>577.40999999999997</ele>
        <time>2018-07-01T07:12:14Z</time>
      </trkpt>
      <trkpt lat="50.406934982165694" lon="6.262501990422607">
        <ele>577.88999999999999</ele>
        <time>2018-07-01T07:12:15Z</time>
      </trkpt>
      <trkpt lat="50.406939005479217" lon="6.2623589951545">
        <ele>577.88999999999999</ele>
        <time>2018-07-01T07:12:16Z</time>
      </trkpt>
      <trkpt lat="50.406942022964358" lon="6.262227986007929">
        <ele>578.37</ele>
        <time>2018-07-01T07:12:17Z</time>
      </trkpt>
      <trkpt lat="50.406945962458849" lon="6.262107035145164">
        <ele>578.37</ele>
        <time>2018-07-01T07:12:18Z</time>
      </trkpt>
      <trkpt lat="50.407055011019111" lon="6.261993041262031">
        <ele>578.85000000000002</ele>
        <time>2018-07-01T07:12:19Z</time>
      </trkpt>
      <trkpt lat="50.407084012404084" lon="6.261924980208278">
        <ele>578.85000000000002</ele>
        <time>2018-07-01T07:12:20Z</time>
      </trkpt>
      <trkpt lat="50.407055011019111" lon="6.26162800937891">
        <ele>579.33000000000004</ele>
        <time>2018-07-01T07:12:21Z</time>
      </trkpt>
      <trkpt lat="50.407057022675872" lon="6.261603031307459">
        <ele>579.80999999999995</ele>
        <time>2018-07-01T07:12:22Z</time>
      </trkpt>
      <trkpt lat="50.407121982425451" lon="6.260069981217384">
        <ele>581.73000000000002</ele>
        <time>2018-07-01T07:12:31Z</time>
      </trkpt>
      <trkpt lat="50.407169004902244" lon="6.25795497559011">
        <ele>587.98000000000002</ele>
        <time>2018-07-01T07:12:43Z</time>
      </trkpt>
      <trkpt lat="50.407155007123947" lon="6.25778398476541">
        <ele>587.98000000000002</ele>
        <time>2018-07-01T07:12:44Z</time>
      </trkpt>
      <trkpt lat="50.407106978818774" lon="6.257623974233866">
        <ele>587.98000000000002</ele>
        <time>2018-07-01T07:12:45Z</time>
      </trkpt>
      <trkpt lat="50.407058028504252" lon="6.257461030036211">
        <ele>587.5</ele>
        <time>2018-07-01T07:12:46Z</time>
      </trkpt>
      <trkpt lat="50.406998014077544" lon="6.257307976484299">
        <ele>587.5</ele>
        <time>2018-07-01T07:12:47Z</time>
      </trkpt>
      <trkpt lat="50.406929031014442" lon="6.257170010358095">
        <ele>587.5</ele>
        <time>2018-07-01T07:12:48Z</time>
      </trkpt>
      <trkpt lat="50.406589983031154" lon="6.256526028737426">
        <ele>585.58000000000004</ele>
        <time>2018-07-01T07:12:53Z</time>
      </trkpt>
      <trkpt lat="50.406393008306623" lon="6.256154039874673">
        <ele>586.05999999999995</ele>
        <time>2018-07-01T07:12:56Z</time>
      </trkpt>
      <trkpt lat="50.406005010008812" lon="6.255401009693742">
        <ele>587.98000000000002</ele>
        <time>2018-07-01T07:13:03Z</time>
      </trkpt>
      <trkpt lat="50.405968967825174" lon="6.255323980003595">
        <ele>588.46000000000004</ele>
        <time>2018-07-01T07:13:04Z</time>
      </trkpt>
      <trkpt lat="50.405939966440201" lon="6.255259020254016">
        <ele>588.95000000000005</ele>
        <time>2018-07-01T07:13:05Z</time>
      </trkpt>
      <trkpt lat="50.405918005853891" lon="6.255211997777224">
        <ele>589.42999999999995</ele>
        <time>2018-07-01T07:13:06Z</time>
      </trkpt>
      <trkpt lat="50.40589596144855" lon="6.255147960036993">
        <ele>589.42999999999995</ele>
        <time>2018-07-01T07:13:07Z</time>
      </trkpt>
      <trkpt lat="50.405881963670254" lon="6.255107978358865">
        <ele>589.42999999999995</ele>
        <time>2018-07-01T07:13:08Z</time>
      </trkpt>
      <trkpt lat="50.405856985598803" lon="6.255035977810621">
        <ele>590.87</ele>
        <time>2018-07-01T07:13:16Z</time>
      </trkpt>
      <trkpt lat="50.405749026685953" lon="6.254727020859718">
        <ele>590.38999999999999</ele>
        <time>2018-07-01T07:13:22Z</time>
      </trkpt>
      <trkpt lat="50.40574299171567" lon="6.254571033641696">
        <ele>589.90999999999997</ele>
        <time>2018-07-01T07:13:23Z</time>
      </trkpt>
      <trkpt lat="50.405739974230528" lon="6.254443963989615">
        <ele>589.90999999999997</ele>
        <time>2018-07-01T07:13:24Z</time>
      </trkpt>
      <trkpt lat="50.405716001987457" lon="6.253251973539591">
        <ele>587.98000000000002</ele>
        <time>2018-07-01T07:13:32Z</time>
      </trkpt>
      <trkpt lat="50.405681971460581" lon="6.251646000891924">
        <ele>583.17999999999995</ele>
        <time>2018-07-01T07:13:43Z</time>
      </trkpt>
      <trkpt lat="50.405674008652568" lon="6.249346006661654">
        <ele>580.28999999999996</ele>
        <time>2018-07-01T07:13:55Z</time>
      </trkpt>
      <trkpt lat="50.405795965343714" lon="6.246254006400704">
        <ele>581.25</ele>
        <time>2018-07-01T07:14:08Z</time>
      </trkpt>
      <trkpt lat="50.405934015288949" lon="6.243082964792848">
        <ele>593.26999999999998</ele>
        <time>2018-07-01T07:14:20Z</time>
      </trkpt>
      <trkpt lat="50.40608698502183" lon="6.239632973447442">
        <ele>605.28999999999996</ele>
        <time>2018-07-01T07:14:33Z</time>
      </trkpt>
      <trkpt lat="50.406249007210135" lon="6.236203014850617">
        <ele>606.73000000000002</ele>
        <time>2018-07-01T07:14:44Z</time>
      </trkpt>
      <trkpt lat="50.406384961679578" lon="6.234452035278082">
        <ele>600</ele>
        <time>2018-07-01T07:14:49Z</time>
      </trkpt>
      <trkpt lat="50.406454028561711" lon="6.234139977023006">
        <ele>598.55999999999995</ele>
        <time>2018-07-01T07:14:50Z</time>
      </trkpt>
      <trkpt lat="50.406579002737999" lon="6.233864966779947">
        <ele>597.60000000000002</ele>
        <time>2018-07-01T07:14:51Z</time>
      </trkpt>
      <trkpt lat="50.406700037419796" lon="6.233595991507173">
        <ele>596.63999999999999</ele>
        <time>2018-07-01T07:14:52Z</time>
      </trkpt>
      <trkpt lat="50.406832974404097" lon="6.233347970992327">
        <ele>596.14999999999998</ele>
        <time>2018-07-01T07:14:53Z</time>
      </trkpt>
      <trkpt lat="50.406978987157345" lon="6.233114032074809">
        <ele>595.66999999999996</ele>
        <time>2018-07-01T07:14:54Z</time>
      </trkpt>
      <trkpt lat="50.408248007297516" lon="6.230954015627503">
        <ele>599.51999999999998</ele>
        <time>2018-07-01T07:15:04Z</time>
      </trkpt>
      <trkpt lat="50.408443976193666" lon="6.230625025928021">
        <ele>600</ele>
        <time>2018-07-01T07:15:06Z</time>
      </trkpt>
      <trkpt lat="50.408657966181636" lon="6.230387985706329">
        <ele>599.51999999999998</ele>
        <time>2018-07-01T07:15:08Z</time>
      </trkpt>
      <trkpt lat="50.408822000026703" lon="6.230066958814859">
        <ele>599.03999999999996</ele>
        <time>2018-07-01T07:15:10Z</time>
      </trkpt>
      <trkpt lat="50.409720037132502" lon="6.228670030832291">
        <ele>599.03999999999996</ele>
        <time>2018-07-01T07:15:18Z</time>
      </trkpt>
      <trkpt lat="50.410102000460029" lon="6.227847011759877">
        <ele>599.03999999999996</ele>
        <time>2018-07-01T07:15:22Z</time>
      </trkpt>
      <trkpt lat="50.410162014886737" lon="6.227602008730173">
        <ele>599.03999999999996</ele>
        <time>2018-07-01T07:15:23Z</time>
      </trkpt>
      <trkpt lat="50.410223035141826" lon="6.227351976558566">
        <ele>599.03999999999996</ele>
        <time>2018-07-01T07:15:24Z</time>
      </trkpt>
      <trkpt lat="50.410250024870038" lon="6.22710102237761">
        <ele>599.03999999999996</ele>
        <time>2018-07-01T07:15:25Z</time>
      </trkpt>
      <trkpt lat="50.410243989899755" lon="6.226833974942565">
        <ele>598.55999999999995</ele>
        <time>2018-07-01T07:15:26Z</time>
      </trkpt>
      <trkpt lat="50.410238960757852" lon="6.226567011326551">
        <ele>598.08000000000004</ele>
        <time>2018-07-01T07:15:27Z</time>
      </trkpt>
      <trkpt lat="50.410251030698419" lon="6.225373009219766">
        <ele>596.14999999999998</ele>
        <time>2018-07-01T07:15:32Z</time>
      </trkpt>
      <trkpt lat="50.410293024033308" lon="6.225144015625119">
        <ele>595.19000000000005</ele>
        <time>2018-07-01T07:15:33Z</time>
      </trkpt>
      <trkpt lat="50.41034197434783" lon="6.22491099871695">
        <ele>594.71000000000004</ele>
        <time>2018-07-01T07:15:34Z</time>
      </trkpt>
      <trkpt lat="50.411184020340443" lon="6.222363989800215">
        <ele>587.98000000000002</ele>
        <time>2018-07-01T07:15:45Z</time>
      </trkpt>
      <trkpt lat="50.412079961970448" lon="6.220049997791648">
        <ele>583.65999999999997</ele>
        <time>2018-07-01T07:15:55Z</time>
      </trkpt>
      <trkpt lat="50.413227025419474" lon="6.217373991385102">
        <ele>578.37</ele>
        <time>2018-07-01T07:16:07Z</time>
      </trkpt>
      <trkpt lat="50.413324004039168" lon="6.217166036367416">
        <ele>577.88999999999999</ele>
        <time>2018-07-01T07:16:08Z</time>
      </trkpt>
      <trkpt lat="50.413449984043837" lon="6.21700300835073">
        <ele>577.88999999999999</ele>
        <time>2018-07-01T07:16:09Z</time>
      </trkpt>
      <trkpt lat="50.41360697709024" lon="6.216859007254243">
        <ele>577.40999999999997</ele>
        <time>2018-07-01T07:16:10Z</time>
      </trkpt>
      <trkpt lat="50.413787020370364" lon="6.216762028634548">
        <ele>576.92999999999995</ele>
        <time>2018-07-01T07:16:11Z</time>
      </trkpt>
      <trkpt lat="50.413982989266515" lon="6.216664966195822">
        <ele>576.45000000000005</ele>
        <time>2018-07-01T07:16:12Z</time>
      </trkpt>
      <trkpt lat="50.415963968262076" lon="6.215730970725417">
        <ele>568.75999999999999</ele>
        <time>2018-07-01T07:16:21Z</time>
      </trkpt>
      <trkpt lat="50.417411020025611" lon="6.215548999607563">
        <ele>566.83000000000004</ele>
        <time>2018-07-01T07:16:28Z</time>
      </trkpt>
      <trkpt lat="50.418229009956121" lon="6.215608008205891">
        <ele>566.83000000000004</ele>
        <time>2018-07-01T07:16:32Z</time>
      </trkpt>
      <trkpt lat="50.418424978852272" lon="6.215531984344125">
        <ele>566.83000000000004</ele>
        <time>2018-07-01T07:16:33Z</time>
      </trkpt>
      <trkpt lat="50.41861298494041" lon="6.21543399989605">
        <ele>566.83000000000004</ele>
        <time>2018-07-01T07:16:34Z</time>
      </trkpt>
      <trkpt lat="50.418780036270618" lon="6.215255968272686">
        <ele>567.32000000000005</ele>
        <time>2018-07-01T07:16:35Z</time>
      </trkpt>
      <trkpt lat="50.418927976861596" lon="6.215051030740142">
        <ele>567.32000000000005</ele>
        <time>2018-07-01T07:16:36Z</time>
      </trkpt>
      <trkpt lat="50.419053034856915" lon="6.214800998568535">
        <ele>567.32000000000005</ele>
        <time>2018-07-01T07:16:37Z</time>
      </trkpt>
      <trkpt lat="50.419179014861584" lon="6.214549038559198">
        <ele>567.32000000000005</ele>
        <time>2018-07-01T07:16:38Z</time>
      </trkpt>
      <trkpt lat="50.419988036155701" lon="6.212638970464468">
        <ele>567.79999999999995</ele>
        <time>2018-07-01T07:16:45Z</time>
      </trkpt>
      <trkpt lat="50.420066993683577" lon="6.212339987978339">
        <ele>567.79999999999995</ele>
        <time>2018-07-01T07:16:46Z</time>
      </trkpt>
      <trkpt lat="50.420109992846847" lon="6.212024996057153">
        <ele>567.79999999999995</ele>
        <time>2018-07-01T07:16:47Z</time>
      </trkpt>
      <trkpt lat="50.420629000291228" lon="6.208285996690393">
        <ele>567.32000000000005</ele>
        <time>2018-07-01T07:16:59Z</time>
      </trkpt>
      <trkpt lat="50.421012975275517" lon="6.206794017925859">
        <ele>572.12</ele>
        <time>2018-07-01T07:17:06Z</time>
      </trkpt>
      <trkpt lat="50.421163011342287" lon="6.206447007134557">
        <ele>573.55999999999995</ele>
        <time>2018-07-01T07:17:08Z</time>
      </trkpt>
      <trkpt lat="50.421236017718911" lon="6.206278027966619">
        <ele>574.03999999999996</ele>
        <time>2018-07-01T07:17:09Z</time>
      </trkpt>
      <trkpt lat="50.421327967196703" lon="6.206147018820047">
        <ele>574.52999999999997</ele>
        <time>2018-07-01T07:17:10Z</time>
      </trkpt>
      <trkpt lat="50.421410026028752" lon="6.206051968038082">
        <ele>575.00999999999999</ele>
        <time>2018-07-01T07:17:11Z</time>
      </trkpt>
      <trkpt lat="50.421545980498195" lon="6.205975022166967">
        <ele>575.49000000000001</ele>
        <time>2018-07-01T07:17:12Z</time>
      </trkpt>
      <trkpt lat="50.421666009351611" lon="6.205906039103866">
        <ele>575.97000000000003</ele>
        <time>2018-07-01T07:17:13Z</time>
      </trkpt>
      <trkpt lat="50.421787966042757" lon="6.20585398748517">
        <ele>576.45000000000005</ele>
        <time>2018-07-01T07:17:14Z</time>
      </trkpt>
      <trkpt lat="50.423499969765544" lon="6.205278988927603">
        <ele>582.22000000000003</ele>
        <time>2018-07-01T07:17:27Z</time>
      </trkpt>
      <trkpt lat="50.424610991030931" lon="6.20488696731627">
        <ele>585.58000000000004</ele>
        <time>2018-07-01T07:17:37Z</time>
      </trkpt>
      <trkpt lat="50.42514399625361" lon="6.204700972884893">
        <ele>587.01999999999998</ele>
        <time>2018-07-01T07:17:45Z</time>
      </trkpt>
      <trkpt lat="50.425262013450265" lon="6.204731985926628">
        <ele>587.01999999999998</ele>
        <time>2018-07-01T07:17:46Z</time>
      </trkpt>
      <trkpt lat="50.425291014835238" lon="6.204664008691907">
        <ele>587.01999999999998</ele>
        <time>2018-07-01T07:17:47Z</time>
      </trkpt>
      <trkpt lat="50.42520803399384" lon="6.204550014808774">
        <ele>587.01999999999998</ele>
        <time>2018-07-01T07:17:48Z</time>
      </trkpt>
      <trkpt lat="50.425206022337079" lon="6.204537022858858">
        <ele>587.01999999999998</ele>
        <time>2018-07-01T07:17:49Z</time>
      </trkpt>
      <trkpt lat="50.425193030387163" lon="6.204453036189079">
        <ele>587.01999999999998</ele>
        <time>2018-07-01T07:17:50Z</time>
      </trkpt>
      <trkpt lat="50.425178026780486" lon="6.204356979578733">
        <ele>587.01999999999998</ele>
        <time>2018-07-01T07:17:51Z</time>
      </trkpt>
      <trkpt lat="50.425161011517048" lon="6.204246003180742">
        <ele>586.53999999999996</ele>
        <time>2018-07-01T07:17:52Z</time>
      </trkpt>
      <trkpt lat="50.425140978768468" lon="6.204119017347693">
        <ele>586.53999999999996</ele>
        <time>2018-07-01T07:17:53Z</time>
      </trkpt>
      <trkpt lat="50.425120024010539" lon="6.203980967402458">
        <ele>586.53999999999996</ele>
        <time>2018-07-01T07:17:54Z</time>
      </trkpt>
      <trkpt lat="50.42505799792707" lon="6.20336196385324">
        <ele>587.98000000000002</ele>
        <time>2018-07-01T07:17:58Z</time>
      </trkpt>
      <trkpt lat="50.42505799792707" lon="6.203197007998824">
        <ele>588.95000000000005</ele>
        <time>2018-07-01T07:17:59Z</time>
      </trkpt>
      <trkpt lat="50.425065960735083" lon="6.203030962496996">
        <ele>589.90999999999997</ele>
        <time>2018-07-01T07:18:00Z</time>
      </trkpt>
      <trkpt lat="50.425088005140424" lon="6.202862989157438">
        <ele>590.87</ele>
        <time>2018-07-01T07:18:01Z</time>
      </trkpt>
      <trkpt lat="50.425110971555114" lon="6.202690992504358">
        <ele>591.35000000000002</ele>
        <time>2018-07-01T07:18:02Z</time>
      </trkpt>
      <trkpt lat="50.425310963764787" lon="6.200989969074726">
        <ele>595.66999999999996</ele>
        <time>2018-07-01T07:18:11Z</time>
      </trkpt>
      <trkpt lat="50.425326973199844" lon="6.200786037370563">
        <ele>596.14999999999998</ele>
        <time>2018-07-01T07:18:12Z</time>
      </trkpt>
      <trkpt lat="50.425322027876973" lon="6.200597025454044">
        <ele>596.14999999999998</ele>
        <time>2018-07-01T07:18:13Z</time>
      </trkpt>
      <trkpt lat="50.425280034542084" lon="6.200390998274088">
        <ele>596.14999999999998</ele>
        <time>2018-07-01T07:18:14Z</time>
      </trkpt>
      <trkpt lat="50.425235023722053" lon="6.200172984972596">
        <ele>596.63999999999999</ele>
        <time>2018-07-01T07:18:15Z</time>
      </trkpt>
      <trkpt lat="50.42518699541688" lon="6.199946003034711">
        <ele>596.63999999999999</ele>
        <time>2018-07-01T07:18:16Z</time>
      </trkpt>
      <trkpt lat="50.424355007708073" lon="6.196697009727359">
        <ele>590.87</ele>
        <time>2018-07-01T07:18:29Z</time>
      </trkpt>
      <trkpt lat="50.423693004995584" lon="6.194162992760539">
        <ele>581.25</ele>
        <time>2018-07-01T07:18:40Z</time>
      </trkpt>
      <trkpt lat="50.423431992530823" lon="6.192299025133252">
        <ele>576.92999999999995</ele>
        <time>2018-07-01T07:18:48Z</time>
      </trkpt>
      <trkpt lat="50.423239963129163" lon="6.189381033182144">
        <ele>573.55999999999995</ele>
        <time>2018-07-01T07:18:59Z</time>
      </trkpt>
      <trkpt lat="50.423004012554884" lon="6.18585099466145">
        <ele>570.67999999999995</ele>
        <time>2018-07-01T07:19:10Z</time>
      </trkpt>
      <trkpt lat="50.422590030357242" lon="6.182812973856926">
        <ele>575.97000000000003</ele>
        <time>2018-07-01T07:19:20Z</time>
      </trkpt>
      <trkpt lat="50.422271015122533" lon="6.180425975471735">
        <ele>581.73000000000002</ele>
        <time>2018-07-01T07:19:29Z</time>
      </trkpt>
      <trkpt lat="50.421997010707855" lon="6.178424963727593">
        <ele>585.10000000000002</ele>
        <time>2018-07-01T07:19:39Z</time>
      </trkpt>
      <trkpt lat="50.421902965754271" lon="6.177591970190406">
        <ele>584.62</ele>
        <time>2018-07-01T07:19:43Z</time>
      </trkpt>
      <trkpt lat="50.421884022653103" lon="6.177382003515959">
        <ele>584.13999999999999</ele>
        <time>2018-07-01T07:19:44Z</time>
      </trkpt>
      <trkpt lat="50.421900032088161" lon="6.177172958850861">
        <ele>584.13999999999999</ele>
        <time>2018-07-01T07:19:45Z</time>
      </trkpt>
      <trkpt lat="50.422119973227382" lon="6.174508016556501">
        <ele>580.76999999999998</ele>
        <time>2018-07-01T07:19:57Z</time>
      </trkpt>
      <trkpt lat="50.422320971265435" lon="6.171885989606381">
        <ele>573.55999999999995</ele>
        <time>2018-07-01T07:20:09Z</time>
      </trkpt>
      <trkpt lat="50.422557005658746" lon="6.168988030403853">
        <ele>571.63999999999999</ele>
        <time>2018-07-01T07:20:24Z</time>
      </trkpt>
      <trkpt lat="50.422628000378609" lon="6.167936017736793">
        <ele>569.72000000000003</ele>
        <time>2018-07-01T07:20:30Z</time>
      </trkpt>
      <trkpt lat="50.422633029520512" lon="6.167857982218266">
        <ele>569.72000000000003</ele>
        <time>2018-07-01T07:20:31Z</time>
      </trkpt>
      <trkpt lat="50.422740988433361" lon="6.16771599277854">
        <ele>569.24000000000001</ele>
        <time>2018-07-01T07:20:32Z</time>
      </trkpt>
      <trkpt lat="50.422740988433361" lon="6.167622031643987">
        <ele>569.24000000000001</ele>
        <time>2018-07-01T07:20:33Z</time>
      </trkpt>
      <trkpt lat="50.422661025077105" lon="6.167461015284061">
        <ele>568.75999999999999</ele>
        <time>2018-07-01T07:20:34Z</time>
      </trkpt>
      <trkpt lat="50.42267301119864" lon="6.167317014187574">
        <ele>568.75999999999999</ele>
        <time>2018-07-01T07:20:35Z</time>
      </trkpt>
      <trkpt lat="50.422686003148556" lon="6.167154991999269">
        <ele>568.27999999999997</ele>
        <time>2018-07-01T07:20:36Z</time>
      </trkpt>
      <trkpt lat="50.422700000926852" lon="6.166975032538176">
        <ele>568.27999999999997</ele>
        <time>2018-07-01T07:20:37Z</time>
      </trkpt>
      <trkpt lat="50.42271701619029" lon="6.166773028671742">
        <ele>567.79999999999995</ele>
        <time>2018-07-01T07:20:38Z</time>
      </trkpt>
      <trkpt lat="50.422916002571583" lon="6.164394998922944">
        <ele>568.75999999999999</ele>
        <time>2018-07-01T07:20:48Z</time>
      </trkpt>
      <trkpt lat="50.423216996714473" lon="6.160810980945826">
        <ele>570.20000000000005</ele>
        <time>2018-07-01T07:21:00Z</time>
      </trkpt>
      <trkpt lat="50.423457976430655" lon="6.157625019550324">
        <ele>576.92999999999995</ele>
        <time>2018-07-01T07:21:11Z</time>
      </trkpt>
      <trkpt lat="50.423753019422293" lon="6.153990961611271">
        <ele>579.33000000000004</ele>
        <time>2018-07-01T07:21:23Z</time>
      </trkpt>
      <trkpt lat="50.424039009958506" lon="6.150409039109945">
        <ele>578.37</ele>
        <time>2018-07-01T07:21:34Z</time>
      </trkpt>
      <trkpt lat="50.424270015209913" lon="6.146862991154194">
        <ele>578.85000000000002</ele>
        <time>2018-07-01T07:21:45Z</time>
      </trkpt>
      <trkpt lat="50.424227016046643" lon="6.146550010889769">
        <ele>578.37</ele>
        <time>2018-07-01T07:21:46Z</time>
      </trkpt>
      <trkpt lat="50.423736004158854" lon="6.143047967925668">
        <ele>577.40999999999997</ele>
        <time>2018-07-01T07:21:57Z</time>
      </trkpt>
      <trkpt lat="50.423136027529836" lon="6.138907978311181">
        <ele>569.72000000000003</ele>
        <time>2018-07-01T07:22:10Z</time>
      </trkpt>
      <trkpt lat="50.42263001203537" lon="6.135406019166112">
        <ele>566.35000000000002</ele>
        <time>2018-07-01T07:22:21Z</time>
      </trkpt>
      <trkpt lat="50.422084014862776" lon="6.131619997322559">
        <ele>565.87</ele>
        <time>2018-07-01T07:22:33Z</time>
      </trkpt>
      <trkpt lat="50.421388987451792" lon="6.126804007217288">
        <ele>564.42999999999995</ele>
        <time>2018-07-01T07:22:48Z</time>
      </trkpt>
      <trkpt lat="50.421069972217083" lon="6.124613983556628">
        <ele>557.22000000000003</ele>
        <time>2018-07-01T07:22:56Z</time>
      </trkpt>
      <trkpt lat="50.420803008601069" lon="6.122734006494284">
        <ele>550.97000000000003</ele>
        <time>2018-07-01T07:23:06Z</time>
      </trkpt>
      <trkpt lat="50.42078398168087" lon="6.122612971812487">
        <ele>550.00999999999999</ele>
        <time>2018-07-01T07:23:07Z</time>
      </trkpt>
      <trkpt lat="50.420794039964676" lon="6.12244701012969">
        <ele>549.52999999999997</ele>
        <time>2018-07-01T07:23:08Z</time>
      </trkpt>
      <trkpt lat="50.420841984450817" lon="6.122265961021185">
        <ele>549.04999999999995</ele>
        <time>2018-07-01T07:23:10Z</time>
      </trkpt>
      <trkpt lat="50.420831004157662" lon="6.122174011543393">
        <ele>549.04999999999995</ele>
        <time>2018-07-01T07:23:11Z</time>
      </trkpt>
      <trkpt lat="50.420784987509251" lon="6.122159007936716">
        <ele>548.57000000000005</ele>
        <time>2018-07-01T07:23:12Z</time>
      </trkpt>
      <trkpt lat="50.420680968090892" lon="6.121831024065614">
        <ele>547.61000000000001</ele>
        <time>2018-07-01T07:23:14Z</time>
      </trkpt>
      <trkpt lat="50.420668981969357" lon="6.121749971061945">
        <ele>547.13</ele>
        <time>2018-07-01T07:23:15Z</time>
      </trkpt>
      <trkpt lat="50.420648027211428" lon="6.121594989672303">
        <ele>546.64999999999998</ele>
        <time>2018-07-01T07:23:16Z</time>
      </trkpt>
      <trkpt lat="50.420416016131639" lon="6.120010977610946">
        <ele>539.44000000000005</ele>
        <time>2018-07-01T07:23:24Z</time>
      </trkpt>
      <trkpt lat="50.420046960934997" lon="6.117518031969667">
        <ele>527.89999999999998</ele>
        <time>2018-07-01T07:23:36Z</time>
      </trkpt>
      <trkpt lat="50.419787960126996" lon="6.115669989958406">
        <ele>521.16999999999996</ele>
        <time>2018-07-01T07:23:46Z</time>
      </trkpt>
      <trkpt lat="50.419635996222496" lon="6.114838002249599">
        <ele>517.33000000000004</ele>
        <time>2018-07-01T07:23:51Z</time>
      </trkpt>
      <trkpt lat="50.41947296820581" lon="6.114246994256973">
        <ele>513.96000000000004</ele>
        <time>2018-07-01T07:23:55Z</time>
      </trkpt>
      <trkpt lat="50.419200975447893" lon="6.113604018464685">
        <ele>510.12</ele>
        <time>2018-07-01T07:24:00Z</time>
      </trkpt>
      <trkpt lat="50.419137021526694" lon="6.113492036238313">
        <ele>509.16000000000003</ele>
        <time>2018-07-01T07:24:01Z</time>
      </trkpt>
      <trkpt lat="50.419073989614844" lon="6.11338198184967">
        <ele>508.19</ele>
        <time>2018-07-01T07:24:02Z</time>
      </trkpt>
      <trkpt lat="50.418938035145402" lon="6.113182995468378">
        <ele>507.70999999999998</ele>
        <time>2018-07-01T07:24:04Z</time>
      </trkpt>
      <trkpt lat="50.41884801350534" lon="6.11310102045536">
        <ele>507.70999999999998</ele>
        <time>2018-07-01T07:24:05Z</time>
      </trkpt>
      <trkpt lat="50.418755980208516" lon="6.113016027957201">
        <ele>507.23000000000002</ele>
        <time>2018-07-01T07:24:06Z</time>
      </trkpt>
      <trkpt lat="50.418662019073963" lon="6.112958025187254">
        <ele>506.75</ele>
        <time>2018-07-01T07:24:07Z</time>
      </trkpt>
      <trkpt lat="50.418557999655604" lon="6.112905973568559">
        <ele>506.26999999999998</ele>
        <time>2018-07-01T07:24:08Z</time>
      </trkpt>
      <trkpt lat="50.418454986065626" lon="6.112854005768895">
        <ele>505.79000000000002</ele>
        <time>2018-07-01T07:24:09Z</time>
      </trkpt>
      <trkpt lat="50.41835498996079" lon="6.112815029919148">
        <ele>505.31</ele>
        <time>2018-07-01T07:24:10Z</time>
      </trkpt>
      <trkpt lat="50.417150007560849" lon="6.112350001931191">
        <ele>497.62</ele>
        <time>2018-07-01T07:24:22Z</time>
      </trkpt>
      <trkpt lat="50.416048038750887" lon="6.11191900447011">
        <ele>488.00999999999999</ele>
        <time>2018-07-01T07:24:32Z</time>
      </trkpt>
      <trkpt lat="50.415251003578305" lon="6.111454982310534">
        <ele>489.93000000000001</ele>
        <time>2018-07-01T07:24:42Z</time>
      </trkpt>
      <trkpt lat="50.415057968348265" lon="6.111214002594352">
        <ele>491.37</ele>
        <time>2018-07-01T07:24:45Z</time>
      </trkpt>
      <trkpt lat="50.414806008338928" lon="6.110833967104554">
        <ele>493.29000000000002</ele>
        <time>2018-07-01T07:24:49Z</time>
      </trkpt>
      <trkpt lat="50.414522029459476" lon="6.109999967738986">
        <ele>495.69999999999999</ele>
        <time>2018-07-01T07:24:56Z</time>
      </trkpt>
      <trkpt lat="50.414494033902884" lon="6.109907012432814">
        <ele>495.69999999999999</ele>
        <time>2018-07-01T07:24:57Z</time>
      </trkpt>
      <trkpt lat="50.414565028622746" lon="6.109707020223141">
        <ele>496.18000000000001</ele>
        <time>2018-07-01T07:24:58Z</time>
      </trkpt>
      <trkpt lat="50.414566034451127" lon="6.109701991081238">
        <ele>496.66000000000003</ele>
        <time>2018-07-01T07:24:59Z</time>
      </trkpt>
      <trkpt lat="50.414567040279508" lon="6.10955597832799">
        <ele>497.13999999999999</ele>
        <time>2018-07-01T07:25:00Z</time>
      </trkpt>
      <trkpt lat="50.414529992267489" lon="6.109474003314972">
        <ele>497.13999999999999</ele>
        <time>2018-07-01T07:25:01Z</time>
      </trkpt>
      <trkpt lat="50.414518006145954" lon="6.109336959198117">
        <ele>497.62</ele>
        <time>2018-07-01T07:25:02Z</time>
      </trkpt>
      <trkpt lat="50.41455103084445" lon="6.109203016385436">
        <ele>498.10000000000002</ele>
        <time>2018-07-01T07:25:03Z</time>
      </trkpt>
      <trkpt lat="50.414913967251778" lon="6.107714977115393">
        <ele>504.82999999999998</ele>
        <time>2018-07-01T07:25:12Z</time>
      </trkpt>
      <trkpt lat="50.415144972503185" lon="6.106587024405599">
        <ele>507.70999999999998</ele>
        <time>2018-07-01T07:25:19Z</time>
      </trkpt>
      <trkpt lat="50.415161987766623" lon="6.106408992782235">
        <ele>508.19</ele>
        <time>2018-07-01T07:25:20Z</time>
      </trkpt>
      <trkpt lat="50.415166011080146" lon="6.106230039149523">
        <ele>508.67000000000002</ele>
        <time>2018-07-01T07:25:21Z</time>
      </trkpt>
      <trkpt lat="50.415166011080146" lon="6.105672977864742">
        <ele>510.60000000000002</ele>
        <time>2018-07-01T07:25:24Z</time>
      </trkpt>
      <trkpt lat="50.415186965838075" lon="6.105439960956574">
        <ele>511.56</ele>
        <time>2018-07-01T07:25:25Z</time>
      </trkpt>
      <trkpt lat="50.415199035778642" lon="6.105235023424029">
        <ele>512.51999999999998</ele>
        <time>2018-07-01T07:25:26Z</time>
      </trkpt>
      <trkpt lat="50.415230970829725" lon="6.105031007900834">
        <ele>513</ele>
        <time>2018-07-01T07:25:27Z</time>
      </trkpt>
      <trkpt lat="50.415262989699841" lon="6.104825986549258">
        <ele>513.48000000000002</ele>
        <time>2018-07-01T07:25:28Z</time>
      </trkpt>
      <trkpt lat="50.415299031883478" lon="6.104609984904528">
        <ele>513.96000000000004</ele>
        <time>2018-07-01T07:25:29Z</time>
      </trkpt>
      <trkpt lat="50.415369020774961" lon="6.104423990473151">
        <ele>514.44000000000005</ele>
        <time>2018-07-01T07:25:30Z</time>
      </trkpt>
      <trkpt lat="50.415442027151585" lon="6.104229027405381">
        <ele>514.91999999999996</ele>
        <time>2018-07-01T07:25:31Z</time>
      </trkpt>
      <trkpt lat="50.415848968550563" lon="6.102955983951688">
        <ele>517.33000000000004</ele>
        <time>2018-07-01T07:25:37Z</time>
      </trkpt>
      <trkpt lat="50.41588400490582" lon="6.102703018113971">
        <ele>518.28999999999996</ele>
        <time>2018-07-01T07:25:38Z</time>
      </trkpt>
      <trkpt lat="50.415903031826019" lon="6.102434964850545">
        <ele>518.76999999999998</ele>
        <time>2018-07-01T07:25:39Z</time>
      </trkpt>
      <trkpt lat="50.41590797714889" lon="6.102166995406151">
        <ele>519.25</ele>
        <time>2018-07-01T07:25:40Z</time>
      </trkpt>
      <trkpt lat="50.415875036269426" lon="6.101893996819854">
        <ele>519.73000000000002</ele>
        <time>2018-07-01T07:25:41Z</time>
      </trkpt>
      <trkpt lat="50.41584201157093" lon="6.10162602737546">
        <ele>519.73000000000002</ele>
        <time>2018-07-01T07:25:42Z</time>
      </trkpt>
      <trkpt lat="50.415809992700815" lon="6.101359985768795">
        <ele>520.21000000000004</ele>
        <time>2018-07-01T07:25:43Z</time>
      </trkpt>
      <trkpt lat="50.415547974407673" lon="6.100514000281692">
        <ele>521.64999999999998</ele>
        <time>2018-07-01T07:25:47Z</time>
      </trkpt>
      <trkpt lat="50.415459964424372" lon="6.100334040820599">
        <ele>522.13</ele>
        <time>2018-07-01T07:25:48Z</time>
      </trkpt>
      <trkpt lat="50.415015975013375" lon="6.099451007321477">
        <ele>524.53999999999996</ele>
        <time>2018-07-01T07:25:53Z</time>
      </trkpt>
      <trkpt lat="50.414937017485499" lon="6.099275993183255">
        <ele>525.01999999999998</ele>
        <time>2018-07-01T07:25:54Z</time>
      </trkpt>
      <trkpt lat="50.414858981966972" lon="6.099101984873414">
        <ele>525.5</ele>
        <time>2018-07-01T07:25:55Z</time>
      </trkpt>
      <trkpt lat="50.414801985025406" lon="6.098896963521838">
        <ele>525.98000000000002</ele>
        <time>2018-07-01T07:25:56Z</time>
      </trkpt>
      <trkpt lat="50.414767032489181" lon="6.098688002675772">
        <ele>525.98000000000002</ele>
        <time>2018-07-01T07:25:57Z</time>
      </trkpt>
      <trkpt lat="50.414757980033755" lon="6.098474012687802">
        <ele>526.46000000000004</ele>
        <time>2018-07-01T07:25:58Z</time>
      </trkpt>
      <trkpt lat="50.414787987247109" lon="6.098272008821368">
        <ele>526.46000000000004</ele>
        <time>2018-07-01T07:25:59Z</time>
      </trkpt>
      <trkpt lat="50.414828974753618" lon="6.098067993298173">
        <ele>526.94000000000005</ele>
        <time>2018-07-01T07:26:00Z</time>
      </trkpt>
      <trkpt lat="50.414873985573649" lon="6.0978680010885">
        <ele>527.41999999999996</ele>
        <time>2018-07-01T07:26:01Z</time>
      </trkpt>
      <trkpt lat="50.414959983900189" lon="6.097698016092181">
        <ele>527.89999999999998</ele>
        <time>2018-07-01T07:26:02Z</time>
      </trkpt>
      <trkpt lat="50.41504698805511" lon="6.097526019439101">
        <ele>528.38</ele>
        <time>2018-07-01T07:26:03Z</time>
      </trkpt>
      <trkpt lat="50.415223008021712" lon="6.0971790086478">
        <ele>529.82000000000005</ele>
        <time>2018-07-01T07:26:05Z</time>
      </trkpt>
      <trkpt lat="50.41635699570179" lon="6.094821011647582">
        <ele>536.07000000000005</ele>
        <time>2018-07-01T07:26:17Z</time>
      </trkpt>
      <trkpt lat="50.416839038953185" lon="6.093530030921102">
        <ele>538.48000000000002</ele>
        <time>2018-07-01T07:26:23Z</time>
      </trkpt>
      <trkpt lat="50.416856976225972" lon="6.093329032883048">
        <ele>538.48000000000002</ele>
        <time>2018-07-01T07:26:24Z</time>
      </trkpt>
      <trkpt lat="50.41687298566103" lon="6.093144966289401">
        <ele>538.96000000000004</ele>
        <time>2018-07-01T07:26:25Z</time>
      </trkpt>
      <trkpt lat="50.416886983439326" lon="6.092985961586237">
        <ele>538.96000000000004</ele>
        <time>2018-07-01T07:26:26Z</time>
      </trkpt>
      <trkpt lat="50.416899975389242" lon="6.092847995460033">
        <ele>539.44000000000005</ele>
        <time>2018-07-01T07:26:27Z</time>
      </trkpt>
      <trkpt lat="50.416900981217623" lon="6.092724027112126">
        <ele>539.44000000000005</ele>
        <time>2018-07-01T07:26:28Z</time>
      </trkpt>
      <trkpt lat="50.416896035894752" lon="6.092605004087091">
        <ele>539.44000000000005</ele>
        <time>2018-07-01T07:26:29Z</time>
      </trkpt>
      <trkpt lat="50.416886983439326" lon="6.092412974685431">
        <ele>540.39999999999998</ele>
        <time>2018-07-01T07:26:31Z</time>
      </trkpt>
      <trkpt lat="50.416883965954185" lon="6.092329993844032">
        <ele>540.88</ele>
        <time>2018-07-01T07:26:32Z</time>
      </trkpt>
      <trkpt lat="50.416882960125804" lon="6.092305015772581">
        <ele>540.88</ele>
        <time>2018-07-01T07:26:33Z</time>
      </trkpt>
      <trkpt lat="50.416903998702765" lon="6.092111980542541">
        <ele>541.36000000000001</ele>
        <time>2018-07-01T07:26:34Z</time>
      </trkpt>
      <trkpt lat="50.416903998702765" lon="6.092026988044381">
        <ele>542.32000000000005</ele>
        <time>2018-07-01T07:26:35Z</time>
      </trkpt>
      <trkpt lat="50.416903998702765" lon="6.091905031353235">
        <ele>543.27999999999997</ele>
        <time>2018-07-01T07:26:36Z</time>
      </trkpt>
      <trkpt lat="50.416816994547844" lon="6.091834958642721">
        <ele>543.75999999999999</ele>
        <time>2018-07-01T07:26:37Z</time>
      </trkpt>
      <trkpt lat="50.416728984564543" lon="6.091672014445067">
        <ele>544.24000000000001</ele>
        <time>2018-07-01T07:26:38Z</time>
      </trkpt>
      <trkpt lat="50.416694032028317" lon="6.091506974771619">
        <ele>544.72000000000003</ele>
        <time>2018-07-01T07:26:39Z</time>
      </trkpt>
      <trkpt lat="50.416655978187919" lon="6.091326009482145">
        <ele>544.72000000000003</ele>
        <time>2018-07-01T07:26:40Z</time>
      </trkpt>
      <trkpt lat="50.416231015697122" lon="6.089310999959707">
        <ele>547.61000000000001</ele>
        <time>2018-07-01T07:26:49Z</time>
      </trkpt>
      <trkpt lat="50.415702033787966" lon="6.086800033226609">
        <ele>547.13</ele>
        <time>2018-07-01T07:26:59Z</time>
      </trkpt>
      <trkpt lat="50.415189983323216" lon="6.084698019549251">
        <ele>546.64999999999998</ele>
        <time>2018-07-01T07:27:09Z</time>
      </trkpt>
      <trkpt lat="50.415107002481818" lon="6.084539014846087">
        <ele>546.64999999999998</ele>
        <time>2018-07-01T07:27:10Z</time>
      </trkpt>
      <trkpt lat="50.415026033297181" lon="6.084383027628064">
        <ele>546.16999999999996</ele>
        <time>2018-07-01T07:27:11Z</time>
      </trkpt>
      <trkpt lat="50.414294963702559" lon="6.08332397416234">
        <ele>545.20000000000005</ele>
        <time>2018-07-01T07:27:20Z</time>
      </trkpt>
      <trkpt lat="50.414249030873179" lon="6.083182990550995">
        <ele>544.72000000000003</ele>
        <time>2018-07-01T07:27:21Z</time>
      </trkpt>
      <trkpt lat="50.414257999509573" lon="6.083091041073203">
        <ele>544.72000000000003</ele>
        <time>2018-07-01T07:27:22Z</time>
      </trkpt>
      <trkpt lat="50.414213994517922" lon="6.082974029704928">
        <ele>544.24000000000001</ele>
        <time>2018-07-01T07:27:23Z</time>
      </trkpt>
      <trkpt lat="50.414158003404737" lon="6.082928013056517">
        <ele>544.24000000000001</ele>
        <time>2018-07-01T07:27:24Z</time>
      </trkpt>
      <trkpt lat="50.414055995643139" lon="6.082947961986065">
        <ele>544.24000000000001</ele>
        <time>2018-07-01T07:27:25Z</time>
      </trkpt>
      <trkpt lat="50.413930015638471" lon="6.08276397921145">
        <ele>543.27999999999997</ele>
        <time>2018-07-01T07:27:27Z</time>
      </trkpt>
      <trkpt lat="50.413844017311931" lon="6.082637999206781">
        <ele>543.75999999999999</ele>
        <time>2018-07-01T07:27:28Z</time>
      </trkpt>
      <trkpt lat="50.413275975733995" lon="6.081806011497974">
        <ele>543.75999999999999</ele>
        <time>2018-07-01T07:27:32Z</time>
      </trkpt>
      <trkpt lat="50.4120600130409" lon="6.080021001398563">
        <ele>540.88</ele>
        <time>2018-07-01T07:27:40Z</time>
      </trkpt>
      <trkpt lat="50.411055022850633" lon="6.078545032069087">
        <ele>537.99000000000001</ele>
        <time>2018-07-01T07:27:47Z</time>
      </trkpt>
      <trkpt lat="50.409694975242019" lon="6.076549971476197">
        <ele>529.34000000000003</ele>
        <time>2018-07-01T07:27:57Z</time>
      </trkpt>
      <trkpt lat="50.408219005912542" lon="6.074377968907356">
        <ele>518.28999999999996</ele>
        <time>2018-07-01T07:28:09Z</time>
      </trkpt>
      <trkpt lat="50.406723003834486" lon="6.072180988267064">
        <ele>507.70999999999998</ele>
        <time>2018-07-01T07:28:21Z</time>
      </trkpt>
      <trkpt lat="50.405320040881634" lon="6.070101018995047">
        <ele>500.5</ele>
        <time>2018-07-01T07:28:34Z</time>
      </trkpt>
      <trkpt lat="50.404173983260989" lon="6.068387003615499">
        <ele>496.18000000000001</ele>
        <time>2018-07-01T07:28:47Z</time>
      </trkpt>
      <trkpt lat="50.40411002933979" lon="6.06823998503387">
        <ele>496.66000000000003</ele>
        <time>2018-07-01T07:28:48Z</time>
      </trkpt>
      <trkpt lat="50.403893021866679" lon="6.067436998710036">
        <ele>496.66000000000003</ele>
        <time>2018-07-01T07:28:53Z</time>
      </trkpt>
      <trkpt lat="50.403883969411254" lon="6.067268019542098">
        <ele>496.66000000000003</ele>
        <time>2018-07-01T07:28:54Z</time>
      </trkpt>
      <trkpt lat="50.40387500077486" lon="6.067100968211889">
        <ele>496.18000000000001</ele>
        <time>2018-07-01T07:28:55Z</time>
      </trkpt>
      <trkpt lat="50.403866032138467" lon="6.066941041499376">
        <ele>496.18000000000001</ele>
        <time>2018-07-01T07:28:56Z</time>
      </trkpt>
      <trkpt lat="50.403857985511422" lon="6.066792011260986">
        <ele>496.18000000000001</ele>
        <time>2018-07-01T07:28:57Z</time>
      </trkpt>
      <trkpt lat="50.403864020481706" lon="6.066673994064331">
        <ele>495.69999999999999</ele>
        <time>2018-07-01T07:28:58Z</time>
      </trkpt>
      <trkpt lat="50.403876006603241" lon="6.066469978541136">
        <ele>495.22000000000003</ele>
        <time>2018-07-01T07:29:00Z</time>
      </trkpt>
      <trkpt lat="50.403883969411254" lon="6.066365959122777">
        <ele>495.22000000000003</ele>
        <time>2018-07-01T07:29:01Z</time>
      </trkpt>
      <trkpt lat="50.403896039351821" lon="6.066258000209928">
        <ele>494.74000000000001</ele>
        <time>2018-07-01T07:29:02Z</time>
      </trkpt>
      <trkpt lat="50.403910959139466" lon="6.066138977184892">
        <ele>494.74000000000001</ele>
        <time>2018-07-01T07:29:03Z</time>
      </trkpt>
      <trkpt lat="50.403928980231285" lon="6.066011991351843">
        <ele>494.74000000000001</ele>
        <time>2018-07-01T07:29:04Z</time>
      </trkpt>
      <trkpt lat="50.403950018808246" lon="6.065874025225639">
        <ele>494.25999999999999</ele>
        <time>2018-07-01T07:29:05Z</time>
      </trkpt>
      <trkpt lat="50.404266016557813" lon="6.064097983762622">
        <ele>489.93000000000001</ele>
        <time>2018-07-01T07:29:15Z</time>
      </trkpt>
      <trkpt lat="50.404681004583836" lon="6.062304005026817">
        <ele>482.72000000000003</ele>
        <time>2018-07-01T07:29:23Z</time>
      </trkpt>
      <trkpt lat="50.404765997081995" lon="6.062104012817144">
        <ele>481.75999999999999</ele>
        <time>2018-07-01T07:29:24Z</time>
      </trkpt>
      <trkpt lat="50.404854007065296" lon="6.061905026435852">
        <ele>480.80000000000001</ele>
        <time>2018-07-01T07:29:25Z</time>
      </trkpt>
      <trkpt lat="50.406168038025498" lon="6.059601008892059">
        <ele>468.30000000000001</ele>
        <time>2018-07-01T07:29:38Z</time>
      </trkpt>
      <trkpt lat="50.40670900605619" lon="6.058856025338173">
        <ele>463.00999999999999</ele>
        <time>2018-07-01T07:29:43Z</time>
      </trkpt>
      <trkpt lat="50.406832974404097" lon="6.058751000091434">
        <ele>462.05000000000001</ele>
        <time>2018-07-01T07:29:44Z</time>
      </trkpt>
      <trkpt lat="50.408179024234414" lon="6.057757996022701">
        <ele>453.39999999999998</ele>
        <time>2018-07-01T07:29:54Z</time>
      </trkpt>
      <trkpt lat="50.409705033525825" lon="6.056864988058806">
        <ele>444.26999999999998</ele>
        <time>2018-07-01T07:30:04Z</time>
      </trkpt>
      <trkpt lat="50.410923007875681" lon="6.056274985894561">
        <ele>434.64999999999998</ele>
        <time>2018-07-01T07:30:15Z</time>
      </trkpt>
      <trkpt lat="50.412101000547409" lon="6.055708033964038">
        <ele>427.44</ele>
        <time>2018-07-01T07:30:25Z</time>
      </trkpt>
      <trkpt lat="50.412612967193127" lon="6.055440986528993">
        <ele>423.60000000000002</ele>
        <time>2018-07-01T07:30:29Z</time>
      </trkpt>
      <trkpt lat="50.412739031016827" lon="6.055344007909298">
        <ele>422.63999999999999</ele>
        <time>2018-07-01T07:30:30Z</time>
      </trkpt>
      <trkpt lat="50.414212988689542" lon="6.053978009149432">
        <ele>411.10000000000002</ele>
        <time>2018-07-01T07:30:41Z</time>
      </trkpt>
      <trkpt lat="50.414371993392706" lon="6.053874995559454">
        <ele>409.66000000000003</ele>
        <time>2018-07-01T07:30:42Z</time>
      </trkpt>
      <trkpt lat="50.414503002539277" lon="6.053834008052945">
        <ele>408.69999999999999</ele>
        <time>2018-07-01T07:30:43Z</time>
      </trkpt>
      <trkpt lat="50.414647003635764" lon="6.053790003061295">
        <ele>407.25999999999999</ele>
        <time>2018-07-01T07:30:44Z</time>
      </trkpt>
      <trkpt lat="50.414802990853786" lon="6.053794026374817">
        <ele>406.29000000000002</ele>
        <time>2018-07-01T07:30:45Z</time>
      </trkpt>
      <trkpt lat="50.415921974927187" lon="6.053879018872976">
        <ele>398.12</ele>
        <time>2018-07-01T07:30:52Z</time>
      </trkpt>
      <trkpt lat="50.416375016793609" lon="6.053901985287666">
        <ele>395.24000000000001</ele>
        <time>2018-07-01T07:30:55Z</time>
      </trkpt>
      <trkpt lat="50.416521029546857" lon="6.053869966417551">
        <ele>394.27999999999997</ele>
        <time>2018-07-01T07:30:56Z</time>
      </trkpt>
      <trkpt lat="50.416809031739831" lon="6.053805006667972">
        <ele>391.87</ele>
        <time>2018-07-01T07:30:58Z</time>
      </trkpt>
      <trkpt lat="50.416946997866035" lon="6.053739963099361">
        <ele>390.91000000000003</ele>
        <time>2018-07-01T07:30:59Z</time>
      </trkpt>
      <trkpt lat="50.417187977582216" lon="6.053627980872989">
        <ele>388.02999999999997</ele>
        <time>2018-07-01T07:31:01Z</time>
      </trkpt>
      <trkpt lat="50.417267018929124" lon="6.053591016680002">
        <ele>386.58999999999997</ele>
        <time>2018-07-01T07:31:02Z</time>
      </trkpt>
      <trkpt lat="50.417333990335464" lon="6.053558997809887">
        <ele>385.14999999999998</ele>
        <time>2018-07-01T07:31:03Z</time>
      </trkpt>
      <trkpt lat="50.417413031682372" lon="6.053523039445281">
        <ele>383.69999999999999</ele>
        <time>2018-07-01T07:31:04Z</time>
      </trkpt>
      <trkpt lat="50.417507998645306" lon="6.053462019190192">
        <ele>382.74000000000001</ele>
        <time>2018-07-01T07:31:05Z</time>
      </trkpt>
      <trkpt lat="50.417741015553474" lon="6.053294967859983">
        <ele>380.33999999999997</ele>
        <time>2018-07-01T07:31:07Z</time>
      </trkpt>
      <trkpt lat="50.417844029143453" lon="6.053207963705063">
        <ele>378.89999999999998</ele>
        <time>2018-07-01T07:31:08Z</time>
      </trkpt>
      <trkpt lat="50.417975038290024" lon="6.053097993135452">
        <ele>377.44999999999999</ele>
        <time>2018-07-01T07:31:09Z</time>
      </trkpt>
      <trkpt lat="50.418910961598158" lon="6.051972974091768">
        <ele>369.75999999999999</ele>
        <time>2018-07-01T07:31:16Z</time>
      </trkpt>
      <trkpt lat="50.419457964599133" lon="6.051235031336546">
        <ele>366.88</ele>
        <time>2018-07-01T07:31:22Z</time>
      </trkpt>
      <trkpt lat="50.419505992904305" lon="6.051046019420028">
        <ele>365.92000000000002</ele>
        <time>2018-07-01T07:31:23Z</time>
      </trkpt>
      <trkpt lat="50.419548992067575" lon="6.050877962261438">
        <ele>365.44</ele>
        <time>2018-07-01T07:31:24Z</time>
      </trkpt>
      <trkpt lat="50.419594002887607" lon="6.050705965608358">
        <ele>364.48000000000002</ele>
        <time>2018-07-01T07:31:25Z</time>
      </trkpt>
      <trkpt lat="50.419634990394115" lon="6.050545033067465">
        <ele>364.48000000000002</ele>
        <time>2018-07-01T07:31:26Z</time>
      </trkpt>
      <trkpt lat="50.419657034799457" lon="6.050386028364301">
        <ele>364</ele>
        <time>2018-07-01T07:31:27Z</time>
      </trkpt>
      <trkpt lat="50.419667009264231" lon="6.050206990912557">
        <ele>363.51999999999998</ele>
        <time>2018-07-01T07:31:28Z</time>
      </trkpt>
      <trkpt lat="50.41975099593401" lon="6.048274040222168">
        <ele>359.19</ele>
        <time>2018-07-01T07:31:37Z</time>
      </trkpt>
      <trkpt lat="50.419877981767058" lon="6.045535001903772">
        <ele>353.89999999999998</ele>
        <time>2018-07-01T07:31:49Z</time>
      </trkpt>
      <trkpt lat="50.42018199339509" lon="6.04411200620234">
        <ele>350.54000000000002</ele>
        <time>2018-07-01T07:31:56Z</time>
      </trkpt>
      <trkpt lat="50.420434037223458" lon="6.043312959372997">
        <ele>348.13</ele>
        <time>2018-07-01T07:32:00Z</time>
      </trkpt>
      <trkpt lat="50.421180026605725" lon="6.04097499512136">
        <ele>350.54000000000002</ele>
        <time>2018-07-01T07:32:11Z</time>
      </trkpt>
      <trkpt lat="50.422031041234732" lon="6.038336036726832">
        <ele>351.5</ele>
        <time>2018-07-01T07:32:24Z</time>
      </trkpt>
      <trkpt lat="50.422559017315507" lon="6.036669965833426">
        <ele>350.54000000000002</ele>
        <time>2018-07-01T07:32:34Z</time>
      </trkpt>
      <trkpt lat="50.423029996454716" lon="6.0352189745754">
        <ele>347.64999999999998</ele>
        <time>2018-07-01T07:32:44Z</time>
      </trkpt>
      <trkpt lat="50.42304097674787" lon="6.034907000139356">
        <ele>347.17000000000002</ele>
        <time>2018-07-01T07:32:47Z</time>
      </trkpt>
      <trkpt lat="50.42304097674787" lon="6.034842040389776">
        <ele>346.69</ele>
        <time>2018-07-01T07:32:48Z</time>
      </trkpt>
      <trkpt lat="50.423098979517817" lon="6.034674989059568">
        <ele>346.20999999999998</ele>
        <time>2018-07-01T07:32:49Z</time>
      </trkpt>
      <trkpt lat="50.423066960647702" lon="6.034588990733028">
        <ele>346.20999999999998</ele>
        <time>2018-07-01T07:32:50Z</time>
      </trkpt>
      <trkpt lat="50.42304097674787" lon="6.034520007669926">
        <ele>345.73000000000002</ele>
        <time>2018-07-01T07:32:51Z</time>
      </trkpt>
      <trkpt lat="50.422900998964906" lon="6.034468039870262">
        <ele>345.73000000000002</ele>
        <time>2018-07-01T07:32:52Z</time>
      </trkpt>
      <trkpt lat="50.422883983701468" lon="6.034354967996478">
        <ele>345.25</ele>
        <time>2018-07-01T07:32:53Z</time>
      </trkpt>
      <trkpt lat="50.42286898009479" lon="6.034262012690306">
        <ele>344.76999999999998</ele>
        <time>2018-07-01T07:32:54Z</time>
      </trkpt>
      <trkpt lat="50.42286898009479" lon="6.034076018258929">
        <ele>344.76999999999998</ele>
        <time>2018-07-01T07:32:55Z</time>
      </trkpt>
      <trkpt lat="50.422828998416662" lon="6.032667020335794">
        <ele>344.76999999999998</ele>
        <time>2018-07-01T07:33:03Z</time>
      </trkpt>
      <trkpt lat="50.422891024500132" lon="6.031399006024003">
        <ele>346.20999999999998</ele>
        <time>2018-07-01T07:33:11Z</time>
      </trkpt>
      <trkpt lat="50.422891024500132" lon="6.031280988827348">
        <ele>346.20999999999998</ele>
        <time>2018-07-01T07:33:12Z</time>
      </trkpt>
      <trkpt lat="50.422990014776587" lon="6.030482025817037">
        <ele>346.20999999999998</ele>
        <time>2018-07-01T07:33:19Z</time>
      </trkpt>
      <trkpt lat="50.422988003119826" lon="6.029490027576685">
        <ele>346.69</ele>
        <time>2018-07-01T07:33:26Z</time>
      </trkpt>
      <trkpt lat="50.422980962321162" lon="6.029336974024773">
        <ele>346.69</ele>
        <time>2018-07-01T07:33:27Z</time>
      </trkpt>
      <trkpt lat="50.422965036705136" lon="6.029187021777034">
        <ele>347.17000000000002</ele>
        <time>2018-07-01T07:33:28Z</time>
      </trkpt>
      <trkpt lat="50.422934023663402" lon="6.029046038165689">
        <ele>347.17000000000002</ele>
        <time>2018-07-01T07:33:29Z</time>
      </trkpt>
      <trkpt lat="50.422904016450047" lon="6.028908994048834">
        <ele>347.17000000000002</ele>
        <time>2018-07-01T07:33:30Z</time>
      </trkpt>
      <trkpt lat="50.422808965668082" lon="6.028475984930992">
        <ele>346.69</ele>
        <time>2018-07-01T07:33:34Z</time>
      </trkpt>
      <trkpt lat="50.422810977324843" lon="6.028266018256545">
        <ele>345.73000000000002</ele>
        <time>2018-07-01T07:33:39Z</time>
      </trkpt>
      <trkpt lat="50.422865962609649" lon="6.027947003021836">
        <ele>343.81</ele>
        <time>2018-07-01T07:33:49Z</time>
      </trkpt>
      <trkpt lat="50.4228650406003" lon="6.027884976938367">
        <ele>343.81</ele>
        <time>2018-07-01T07:33:50Z</time>
      </trkpt>
      <trkpt lat="50.422851964831352" lon="6.027382984757423">
        <ele>343.32999999999998</ele>
        <time>2018-07-01T07:33:59Z</time>
      </trkpt>
      <trkpt lat="50.422850036993623" lon="6.027321964502335">
        <ele>343.32999999999998</ele>
        <time>2018-07-01T07:34:00Z</time>
      </trkpt>
      <trkpt lat="50.422834027558565" lon="6.027206964790821">
        <ele>343.32999999999998</ele>
        <time>2018-07-01T07:34:01Z</time>
      </trkpt>
      <trkpt lat="50.422793040052056" lon="6.027153991162777">
        <ele>343.32999999999998</ele>
        <time>2018-07-01T07:34:02Z</time>
      </trkpt>
      <trkpt lat="50.422747023403645" lon="6.027094982564449">
        <ele>343.81</ele>
        <time>2018-07-01T07:34:03Z</time>
      </trkpt>
      <trkpt lat="50.422682985663414" lon="6.027028011158109">
        <ele>343.81</ele>
        <time>2018-07-01T07:34:04Z</time>
      </trkpt>
      <trkpt lat="50.422632023692131" lon="6.027018036693335">
        <ele>343.81</ele>
        <time>2018-07-01T07:34:05Z</time>
      </trkpt>
      <trkpt lat="50.422551976516843" lon="6.027055000886321">
        <ele>343.81</ele>
        <time>2018-07-01T07:34:06Z</time>
      </trkpt>
      <trkpt lat="50.422482993453741" lon="6.027137981727719">
        <ele>343.81</ele>
        <time>2018-07-01T07:34:07Z</time>
      </trkpt>
      <trkpt lat="50.422451980412006" lon="6.027161031961441">
        <ele>343.81</ele>
        <time>2018-07-01T07:34:08Z</time>
      </trkpt>
      <trkpt lat="50.422379979863763" lon="6.027216017246246">
        <ele>343.32999999999998</ele>
        <time>2018-07-01T07:34:10Z</time>
      </trkpt>
      <trkpt lat="50.422285012900829" lon="6.027136975899339">
        <ele>343.32999999999998</ele>
        <time>2018-07-01T07:34:11Z</time>
      </trkpt>
      <trkpt lat="50.422267997637391" lon="6.027050977572799">
        <ele>343.32999999999998</ele>
        <time>2018-07-01T07:34:12Z</time>
      </trkpt>
      <trkpt lat="50.422245031222701" lon="6.026935977861285">
        <ele>343.81</ele>
        <time>2018-07-01T07:34:13Z</time>
      </trkpt>
      <trkpt lat="50.422219969332218" lon="6.026809997856617">
        <ele>344.29000000000002</ele>
        <time>2018-07-01T07:34:14Z</time>
      </trkpt>
      <trkpt lat="50.422151992097497" lon="6.026543034240603">
        <ele>344.76999999999998</ele>
        <time>2018-07-01T07:34:16Z</time>
      </trkpt>
      <trkpt lat="50.42211402207613" lon="6.026400960981846">
        <ele>344.76999999999998</ele>
        <time>2018-07-01T07:34:17Z</time>
      </trkpt>
      <trkpt lat="50.421527037397027" lon="6.024764981120825">
        <ele>347.64999999999998</ele>
        <time>2018-07-01T07:34:28Z</time>
      </trkpt>
      <trkpt lat="50.420942986384034" lon="6.023296974599361">
        <ele>346.69</ele>
        <time>2018-07-01T07:34:39Z</time>
      </trkpt>
      <trkpt lat="50.420104041695595" lon="6.021567033603787">
        <ele>346.20999999999998</ele>
        <time>2018-07-01T07:34:53Z</time>
      </trkpt>
      <trkpt lat="50.419851997867227" lon="6.021113991737366">
        <ele>345.73000000000002</ele>
        <time>2018-07-01T07:34:57Z</time>
      </trkpt>
      <trkpt lat="50.419802041724324" lon="6.021023970097303">
        <ele>345.73000000000002</ele>
        <time>2018-07-01T07:34:58Z</time>
      </trkpt>
      <trkpt lat="50.419754013419151" lon="6.020937971770763">
        <ele>345.73000000000002</ele>
        <time>2018-07-01T07:34:59Z</time>
      </trkpt>
      <trkpt lat="50.419585034251213" lon="6.020633960142732">
        <ele>346.20999999999998</ele>
        <time>2018-07-01T07:35:03Z</time>
      </trkpt>
      <trkpt lat="50.419544968754053" lon="6.020578974857926">
        <ele>346.20999999999998</ele>
        <time>2018-07-01T07:35:04Z</time>
      </trkpt>
      <trkpt lat="50.419393004849553" lon="6.020302958786488">
        <ele>346.69</ele>
        <time>2018-07-01T07:35:10Z</time>
      </trkpt>
      <trkpt lat="50.41938403621316" lon="6.020261971279979">
        <ele>346.69</ele>
        <time>2018-07-01T07:35:11Z</time>
      </trkpt>
      <trkpt lat="50.419376995414495" lon="6.020231964066625">
        <ele>346.69</ele>
        <time>2018-07-01T07:35:12Z</time>
      </trkpt>
      <trkpt lat="50.419382024556398" lon="6.020217966288328">
        <ele>346.69</ele>
        <time>2018-07-01T07:35:13Z</time>
      </trkpt>
      <trkpt lat="50.419402979314327" lon="6.020239004865289">
        <ele>346.20999999999998</ele>
        <time>2018-07-01T07:35:14Z</time>
      </trkpt>
      <trkpt lat="50.419437009841204" lon="6.020272029563785">
        <ele>346.20999999999998</ele>
        <time>2018-07-01T07:35:15Z</time>
      </trkpt>
      <trkpt lat="50.419471962377429" lon="6.020307987928391">
        <ele>345.73000000000002</ele>
        <time>2018-07-01T07:35:16Z</time>
      </trkpt>
      <trkpt lat="50.419672038406134" lon="6.020507980138063">
        <ele>343.32999999999998</ele>
        <time>2018-07-01T07:35:21Z</time>
      </trkpt>
      <trkpt lat="50.419749990105629" lon="6.020547039806843">
        <ele>342.85000000000002</ele>
        <time>2018-07-01T07:35:22Z</time>
      </trkpt>
      <trkpt lat="50.419844035059214" lon="6.020593978464603">
        <ele>341.88999999999999</ele>
        <time>2018-07-01T07:35:24Z</time>
      </trkpt>
      <trkpt lat="50.419863983988762" lon="6.020586015656591">
        <ele>341.41000000000003</ele>
        <time>2018-07-01T07:35:25Z</time>
      </trkpt>
      <trkpt lat="50.419950988143682" lon="6.020550979301333">
        <ele>340.92000000000002</ele>
        <time>2018-07-01T07:35:26Z</time>
      </trkpt>
      <trkpt lat="50.419950988143682" lon="6.020550979301333">
        <ele>340.44</ele>
        <time>2018-07-01T07:35:27Z</time>
      </trkpt>
      <trkpt lat="50.419993987306952" lon="6.020506974309683">
        <ele>339.95999999999998</ele>
        <time>2018-07-01T07:35:28Z</time>
      </trkpt>
      <trkpt lat="50.420186016708612" lon="6.020307987928391">
        <ele>338.51999999999998</ele>
        <time>2018-07-01T07:35:31Z</time>
      </trkpt>
      <trkpt lat="50.420722961425781" lon="6.019740030169487">
        <ele>335.63999999999999</ele>
        <time>2018-07-01T07:35:39Z</time>
      </trkpt>
      <trkpt lat="50.420792028307915" lon="6.019663000479341">
        <ele>335.16000000000003</ele>
        <time>2018-07-01T07:35:40Z</time>
      </trkpt>
      <trkpt lat="50.420864028856158" lon="6.019580019637942">
        <ele>335.16000000000003</ele>
        <time>2018-07-01T07:35:41Z</time>
      </trkpt>
      <trkpt lat="50.420935023576021" lon="6.019479017704725">
        <ele>335.16000000000003</ele>
        <time>2018-07-01T07:35:42Z</time>
      </trkpt>
      <trkpt lat="50.420986991375685" lon="6.01936100050807">
        <ele>335.63999999999999</ele>
        <time>2018-07-01T07:35:43Z</time>
      </trkpt>
      <trkpt lat="50.421038037165999" lon="6.019244994968176">
        <ele>336.12</ele>
        <time>2018-07-01T07:35:44Z</time>
      </trkpt>
      <trkpt lat="50.421088999137282" lon="6.019129995256662">
        <ele>336.60000000000002</ele>
        <time>2018-07-01T07:35:45Z</time>
      </trkpt>
      <trkpt lat="50.421137027442455" lon="6.019020024687052">
        <ele>337.07999999999998</ele>
        <time>2018-07-01T07:35:46Z</time>
      </trkpt>
      <trkpt lat="50.421186983585358" lon="6.01891097612679">
        <ele>337.56</ele>
        <time>2018-07-01T07:35:47Z</time>
      </trkpt>
      <trkpt lat="50.421236017718911" lon="6.018803017213941">
        <ele>338.51999999999998</ele>
        <time>2018-07-01T07:35:48Z</time>
      </trkpt>
      <trkpt lat="50.421389993280172" lon="6.018468998372555">
        <ele>341.88999999999999</ele>
        <time>2018-07-01T07:35:51Z</time>
      </trkpt>
      <trkpt lat="50.421441961079836" lon="6.018358021974564">
        <ele>342.85000000000002</ele>
        <time>2018-07-01T07:35:52Z</time>
      </trkpt>
      <trkpt lat="50.421538017690182" lon="6.018149983137846">
        <ele>343.81</ele>
        <time>2018-07-01T07:35:54Z</time>
      </trkpt>
      <trkpt lat="50.421596020460129" lon="6.018072031438351">
        <ele>344.29000000000002</ele>
        <time>2018-07-01T07:35:55Z</time>
      </trkpt>
      <trkpt lat="50.421654023230076" lon="6.017993995919824">
        <ele>344.29000000000002</ele>
        <time>2018-07-01T07:35:56Z</time>
      </trkpt>
      <trkpt lat="50.421713031828403" lon="6.017915038391948">
        <ele>344.29000000000002</ele>
        <time>2018-07-01T07:35:57Z</time>
      </trkpt>
      <trkpt lat="50.421796012669802" lon="6.017803978174925">
        <ele>344.76999999999998</ele>
        <time>2018-07-01T07:35:58Z</time>
      </trkpt>
      <trkpt lat="50.421844040974975" lon="6.017776988446713">
        <ele>344.76999999999998</ele>
        <time>2018-07-01T07:35:59Z</time>
      </trkpt>
      <trkpt lat="50.421916963532567" lon="6.017733989283443">
        <ele>344.76999999999998</ele>
        <time>2018-07-01T07:36:00Z</time>
      </trkpt>
      <trkpt lat="50.42217998765409" lon="6.017582025378943">
        <ele>343.32999999999998</ele>
        <time>2018-07-01T07:36:05Z</time>
      </trkpt>
      <trkpt lat="50.422203959897161" lon="6.017568027600646">
        <ele>343.32999999999998</ele>
        <time>2018-07-01T07:36:06Z</time>
      </trkpt>
      <trkpt lat="50.422171019017696" lon="6.017475994303823">
        <ele>342.85000000000002</ele>
        <time>2018-07-01T07:36:07Z</time>
      </trkpt>
      <trkpt lat="50.422147968783975" lon="6.017412962391973">
        <ele>342.85000000000002</ele>
        <time>2018-07-01T07:36:08Z</time>
      </trkpt>
      <trkpt lat="50.422118967399001" lon="6.017332999035716">
        <ele>342.85000000000002</ele>
        <time>2018-07-01T07:36:09Z</time>
      </trkpt>
      <trkpt lat="50.422087032347918" lon="6.017245994880796">
        <ele>342.85000000000002</ele>
        <time>2018-07-01T07:36:10Z</time>
      </trkpt>
      <trkpt lat="50.422051995992661" lon="6.01714801043272">
        <ele>342.37</ele>
        <time>2018-07-01T07:36:11Z</time>
      </trkpt>
      <trkpt lat="50.421977983787656" lon="6.016907030716538">
        <ele>342.37</ele>
        <time>2018-07-01T07:36:13Z</time>
      </trkpt>
      <trkpt lat="50.42194495908916" lon="6.016793958842754">
        <ele>341.88999999999999</ele>
        <time>2018-07-01T07:36:14Z</time>
      </trkpt>
      <trkpt lat="50.421527959406376" lon="6.015534996986389">
        <ele>339</ele>
        <time>2018-07-01T07:36:24Z</time>
      </trkpt>
      <trkpt lat="50.421038959175348" lon="6.014180984348059">
        <ele>337.56</ele>
        <time>2018-07-01T07:36:35Z</time>
      </trkpt>
      <trkpt lat="50.420591030269861" lon="6.012802999466658">
        <ele>335.63999999999999</ele>
        <time>2018-07-01T07:36:46Z</time>
      </trkpt>
      <trkpt lat="50.420488016679883" lon="6.012482978403568">
        <ele>335.63999999999999</ele>
        <time>2018-07-01T07:36:49Z</time>
      </trkpt>
      <trkpt lat="50.420507965609431" lon="6.01242195814848">
        <ele>335.63999999999999</ele>
        <time>2018-07-01T07:36:50Z</time>
      </trkpt>
      <trkpt lat="50.420541996136308" lon="6.012320034205914">
        <ele>335.63999999999999</ele>
        <time>2018-07-01T07:36:51Z</time>
      </trkpt>
      <trkpt lat="50.420910967513919" lon="6.011479999870062">
        <ele>333.70999999999998</ele>
        <time>2018-07-01T07:37:00Z</time>
      </trkpt>
      <trkpt lat="50.420952960848808" lon="6.011314038187265">
        <ele>333.23000000000002</ele>
        <time>2018-07-01T07:37:04Z</time>
      </trkpt>
      <trkpt lat="50.420926976948977" lon="6.011244971305132">
        <ele>333.23000000000002</ele>
        <time>2018-07-01T07:37:05Z</time>
      </trkpt>
      <trkpt lat="50.420895041897893" lon="6.011157967150211">
        <ele>332.75</ele>
        <time>2018-07-01T07:37:06Z</time>
      </trkpt>
      <trkpt lat="50.420530010014772" lon="6.01010100916028">
        <ele>330.82999999999998</ele>
        <time>2018-07-01T07:37:14Z</time>
      </trkpt>
      <trkpt lat="50.420380979776382" lon="6.009773025289178">
        <ele>330.35000000000002</ele>
        <time>2018-07-01T07:37:16Z</time>
      </trkpt>
      <trkpt lat="50.420323982834816" lon="6.009613014757633">
        <ele>330.35000000000002</ele>
        <time>2018-07-01T07:37:17Z</time>
      </trkpt>
      <trkpt lat="50.419659968465567" lon="6.007717028260231">
        <ele>328.43000000000001</ele>
        <time>2018-07-01T07:37:28Z</time>
      </trkpt>
      <trkpt lat="50.418717004358768" lon="6.005044039338827">
        <ele>325.06</ele>
        <time>2018-07-01T07:37:41Z</time>
      </trkpt>
      <trkpt lat="50.417768005281687" lon="6.002400973811746">
        <ele>322.18000000000001</ele>
        <time>2018-07-01T07:37:55Z</time>
      </trkpt>
      <trkpt lat="50.417425017803907" lon="6.00133303552866">
        <ele>321.22000000000003</ele>
        <time>2018-07-01T07:38:01Z</time>
      </trkpt>
      <trkpt lat="50.417386963963509" lon="6.001143017783761">
        <ele>320.74000000000001</ele>
        <time>2018-07-01T07:38:02Z</time>
      </trkpt>
      <trkpt lat="50.417353017255664" lon="6.000951994210482">
        <ele>320.74000000000001</ele>
        <time>2018-07-01T07:38:03Z</time>
      </trkpt>
      <trkpt lat="50.417344970628619" lon="6.000749990344048">
        <ele>320.74000000000001</ele>
        <time>2018-07-01T07:38:04Z</time>
      </trkpt>
      <trkpt lat="50.417332984507084" lon="6.000487972050905">
        <ele>320.74000000000001</ele>
        <time>2018-07-01T07:38:05Z</time>
      </trkpt>
      <trkpt lat="50.417344970628619" lon="6.000337013974786">
        <ele>321.69999999999999</ele>
        <time>2018-07-01T07:38:06Z</time>
      </trkpt>
      <trkpt lat="50.417411020025611" lon="5.99925197660923">
        <ele>323.62</ele>
        <time>2018-07-01T07:38:11Z</time>
      </trkpt>
      <trkpt lat="50.417400961741805" lon="5.999027006328106">
        <ele>323.62</ele>
        <time>2018-07-01T07:38:12Z</time>
      </trkpt>
      <trkpt lat="50.41734698228538" lon="5.998818967491388">
        <ele>323.62</ele>
        <time>2018-07-01T07:38:13Z</time>
      </trkpt>
      <trkpt lat="50.417266013100743" lon="5.998620986938477">
        <ele>323.13999999999999</ele>
        <time>2018-07-01T07:38:14Z</time>
      </trkpt>
      <trkpt lat="50.417183032259345" lon="5.998415965586901">
        <ele>323.62</ele>
        <time>2018-07-01T07:38:15Z</time>
      </trkpt>
      <trkpt lat="50.417067026719451" lon="5.998256038874388">
        <ele>323.62</ele>
        <time>2018-07-01T07:38:16Z</time>
      </trkpt>
      <trkpt lat="50.416942974552512" lon="5.998115977272391">
        <ele>324.10000000000002</ele>
        <time>2018-07-01T07:38:17Z</time>
      </trkpt>
      <trkpt lat="50.416821017861366" lon="5.997980022802949">
        <ele>324.57999999999998</ele>
        <time>2018-07-01T07:38:18Z</time>
      </trkpt>
      <trkpt lat="50.416195979341865" lon="5.997147029265761">
        <ele>327.94999999999999</ele>
        <time>2018-07-01T07:38:24Z</time>
      </trkpt>
      <trkpt lat="50.416040997952223" lon="5.99680102430284">
        <ele>329.87</ele>
        <time>2018-07-01T07:38:26Z</time>
      </trkpt>
      <trkpt lat="50.415976038202643" lon="5.996623998507857">
        <ele>330.35000000000002</ele>
        <time>2018-07-01T07:38:27Z</time>
      </trkpt>
      <trkpt lat="50.415555015206337" lon="5.995601993054152">
        <ele>334.68000000000001</ele>
        <time>2018-07-01T07:38:33Z</time>
      </trkpt>
      <trkpt lat="50.415464993566275" lon="5.995436031371355">
        <ele>335.16000000000003</ele>
        <time>2018-07-01T07:38:34Z</time>
      </trkpt>
      <trkpt lat="50.415372960269451" lon="5.995267974212766">
        <ele>335.63999999999999</ele>
        <time>2018-07-01T07:38:35Z</time>
      </trkpt>
      <trkpt lat="50.415278999134898" lon="5.995095977559686">
        <ele>336.60000000000002</ele>
        <time>2018-07-01T07:38:36Z</time>
      </trkpt>
      <trkpt lat="50.415181014686823" lon="5.994919035583735">
        <ele>337.07999999999998</ele>
        <time>2018-07-01T07:38:37Z</time>
      </trkpt>
      <trkpt lat="50.414870968088508" lon="5.994353005662561">
        <ele>339.48000000000002</ele>
        <time>2018-07-01T07:38:41Z</time>
      </trkpt>
      <trkpt lat="50.414823023602366" lon="5.994264995679259">
        <ele>340.44</ele>
        <time>2018-07-01T07:38:42Z</time>
      </trkpt>
      <trkpt lat="50.414848001673818" lon="5.994133986532688">
        <ele>340.92000000000002</ele>
        <time>2018-07-01T07:38:43Z</time>
      </trkpt>
      <trkpt lat="50.414868034422398" lon="5.9940280392766">
        <ele>341.88999999999999</ele>
        <time>2018-07-01T07:38:44Z</time>
      </trkpt>
      <trkpt lat="50.414889995008707" lon="5.993913961574435">
        <ele>342.37</ele>
        <time>2018-07-01T07:38:45Z</time>
      </trkpt>
      <trkpt lat="50.414910027757287" lon="5.993811031803489">
        <ele>342.85000000000002</ele>
        <time>2018-07-01T07:38:46Z</time>
      </trkpt>
      <trkpt lat="50.414956966415048" lon="5.993709024041891">
        <ele>343.32999999999998</ele>
        <time>2018-07-01T07:38:47Z</time>
      </trkpt>
      <trkpt lat="50.415479997172952" lon="5.992560032755137">
        <ele>351.5</ele>
        <time>2018-07-01T07:38:55Z</time>
      </trkpt>
      <trkpt lat="50.415601031854749" lon="5.992320980876684">
        <ele>352.94</ele>
        <time>2018-07-01T07:38:57Z</time>
      </trkpt>
      <trkpt lat="50.415788032114506" lon="5.992227019742131">
        <ele>353.89999999999998</ele>
        <time>2018-07-01T07:38:58Z</time>
      </trkpt>
      <trkpt lat="50.415788032114506" lon="5.992227019742131">
        <ele>354.38</ele>
        <time>2018-07-01T07:38:59Z</time>
      </trkpt>
      <trkpt lat="50.415832959115505" lon="5.992189971730113">
        <ele>355.33999999999997</ele>
        <time>2018-07-01T07:39:00Z</time>
      </trkpt>
      <trkpt lat="50.415894985198975" lon="5.99213800393045">
        <ele>355.82999999999998</ele>
        <time>2018-07-01T07:39:01Z</time>
      </trkpt>
      <trkpt lat="50.415925998240709" lon="5.992045970633626">
        <ele>356.79000000000002</ele>
        <time>2018-07-01T07:39:02Z</time>
      </trkpt>
      <trkpt lat="50.415942007675767" lon="5.9919230081141">
        <ele>357.26999999999998</ele>
        <time>2018-07-01T07:39:03Z</time>
      </trkpt>
      <trkpt lat="50.416086008772254" lon="5.991668030619621">
        <ele>358.23000000000002</ele>
        <time>2018-07-01T07:39:05Z</time>
      </trkpt>
      <trkpt lat="50.41616496630013" lon="5.991599969565868">
        <ele>358.70999999999998</ele>
        <time>2018-07-01T07:39:06Z</time>
      </trkpt>
      <trkpt lat="50.416322965174913" lon="5.991477007046342">
        <ele>359.19</ele>
        <time>2018-07-01T07:39:08Z</time>
      </trkpt>
      <trkpt lat="50.416402006521821" lon="5.991424033418298">
        <ele>359.19</ele>
        <time>2018-07-01T07:39:09Z</time>
      </trkpt>
      <trkpt lat="50.41648699901998" lon="5.991396037861705">
        <ele>359.19</ele>
        <time>2018-07-01T07:39:10Z</time>
      </trkpt>
      <trkpt lat="50.416574003174901" lon="5.991411041468382">
        <ele>359.19</ele>
        <time>2018-07-01T07:39:11Z</time>
      </trkpt>
      <trkpt lat="50.416696965694427" lon="5.991452028974891">
        <ele>358.70999999999998</ele>
        <time>2018-07-01T07:39:12Z</time>
      </trkpt>
      <trkpt lat="50.4167449939996" lon="5.991575997322798">
        <ele>358.70999999999998</ele>
        <time>2018-07-01T07:39:13Z</time>
      </trkpt>
      <trkpt lat="50.416798973456025" lon="5.991718992590904">
        <ele>358.70999999999998</ele>
        <time>2018-07-01T07:39:14Z</time>
      </trkpt>
      <trkpt lat="50.416857982054353" lon="5.991872968152165">
        <ele>359.19</ele>
        <time>2018-07-01T07:39:15Z</time>
      </trkpt>
      <trkpt lat="50.417482014745474" lon="5.993253970518708">
        <ele>361.58999999999997</ele>
        <time>2018-07-01T07:39:22Z</time>
      </trkpt>
      <trkpt lat="50.418707029893994" lon="5.995385991409421">
        <ele>366.39999999999998</ele>
        <time>2018-07-01T07:39:31Z</time>
      </trkpt>
      <trkpt lat="50.420182999223471" lon="5.997857982292771">
        <ele>373.13</ele>
        <time>2018-07-01T07:39:41Z</time>
      </trkpt>
      <trkpt lat="50.420375028625131" lon="5.998038025572896">
        <ele>374.56999999999999</ele>
        <time>2018-07-01T07:39:42Z</time>
      </trkpt>
      <trkpt lat="50.420572003349662" lon="5.998202981427312">
        <ele>375.52999999999997</ele>
        <time>2018-07-01T07:39:43Z</time>
      </trkpt>
      <trkpt lat="50.420788004994392" lon="5.998385036364198">
        <ele>376.97000000000003</ele>
        <time>2018-07-01T07:39:44Z</time>
      </trkpt>
      <trkpt lat="50.420986991375685" lon="5.998492995277047">
        <ele>377.94</ele>
        <time>2018-07-01T07:39:45Z</time>
      </trkpt>
      <trkpt lat="50.421200981363654" lon="5.998610006645322">
        <ele>378.89999999999998</ele>
        <time>2018-07-01T07:39:46Z</time>
      </trkpt>
      <trkpt lat="50.422479975968599" lon="5.999540984630585">
        <ele>384.66000000000003</ele>
        <time>2018-07-01T07:39:52Z</time>
      </trkpt>
      <trkpt lat="50.424062982201576" lon="6.000993987545371">
        <ele>387.06999999999999</ele>
        <time>2018-07-01T07:40:00Z</time>
      </trkpt>
      <trkpt lat="50.424274038523436" lon="6.001071017235518">
        <ele>387.55000000000001</ele>
        <time>2018-07-01T07:40:01Z</time>
      </trkpt>
      <trkpt lat="50.424485011026263" lon="6.001147041097283">
        <ele>388.02999999999997</ele>
        <time>2018-07-01T07:40:02Z</time>
      </trkpt>
      <trkpt lat="50.424690032377839" lon="6.001180987805128">
        <ele>388.02999999999997</ele>
        <time>2018-07-01T07:40:03Z</time>
      </trkpt>
      <trkpt lat="50.424880972132087" lon="6.001209989190102">
        <ele>388.02999999999997</ele>
        <time>2018-07-01T07:40:04Z</time>
      </trkpt>
      <trkpt lat="50.42503796517849" lon="6.001192973926663">
        <ele>388.50999999999999</ele>
        <time>2018-07-01T07:40:05Z</time>
      </trkpt>
      <trkpt lat="50.425184983760118" lon="6.001160033047199">
        <ele>388.99000000000001</ele>
        <time>2018-07-01T07:40:06Z</time>
      </trkpt>
      <trkpt lat="50.425334013998508" lon="6.001127008348703">
        <ele>389.47000000000003</ele>
        <time>2018-07-01T07:40:07Z</time>
      </trkpt>
      <trkpt lat="50.426628012210131" lon="6.000543963164091">
        <ele>394.75999999999999</ele>
        <time>2018-07-01T07:40:16Z</time>
      </trkpt>
      <trkpt lat="50.426748963072896" lon="6.000404991209507">
        <ele>395.72000000000003</ele>
        <time>2018-07-01T07:40:17Z</time>
      </trkpt>
      <trkpt lat="50.426868991926312" lon="6.000265013426542">
        <ele>396.19999999999999</ele>
        <time>2018-07-01T07:40:18Z</time>
      </trkpt>
      <trkpt lat="50.426984997466207" lon="6.000129980966449">
        <ele>397.16000000000003</ele>
        <time>2018-07-01T07:40:19Z</time>
      </trkpt>
      <trkpt lat="50.427102008834481" lon="5.999995032325387">
        <ele>398.12</ele>
        <time>2018-07-01T07:40:20Z</time>
      </trkpt>
      <trkpt lat="50.427844980731606" lon="5.998332984745503">
        <ele>406.29000000000002</ele>
        <time>2018-07-01T07:40:29Z</time>
      </trkpt>
      <trkpt lat="50.428183022886515" lon="5.996465999633074">
        <ele>413.01999999999998</ele>
        <time>2018-07-01T07:40:39Z</time>
      </trkpt>
      <trkpt lat="50.428304979577661" lon="5.994163993746042">
        <ele>422.16000000000003</ele>
        <time>2018-07-01T07:40:50Z</time>
      </trkpt>
      <trkpt lat="50.428460966795683" lon="5.99125899374485">
        <ele>432.25</ele>
        <time>2018-07-01T07:41:02Z</time>
      </trkpt>
      <trkpt lat="50.428504971787333" lon="5.989296035841107">
        <ele>438.5</ele>
        <time>2018-07-01T07:41:10Z</time>
      </trkpt>
      <trkpt lat="50.428101969882846" lon="5.986770987510681">
        <ele>446.19</ele>
        <time>2018-07-01T07:41:20Z</time>
      </trkpt>
      <trkpt lat="50.427946988493204" lon="5.985878985375166">
        <ele>448.58999999999997</ele>
        <time>2018-07-01T07:41:24Z</time>
      </trkpt>
      <trkpt lat="50.427926033735275" lon="5.985462991520762">
        <ele>449.55000000000001</ele>
        <time>2018-07-01T07:41:26Z</time>
      </trkpt>
      <trkpt lat="50.427919998764992" lon="5.985247995704413">
        <ele>450.02999999999997</ele>
        <time>2018-07-01T07:41:27Z</time>
      </trkpt>
      <trkpt lat="50.428041033446789" lon="5.982850017026067">
        <ele>457.24000000000001</ele>
        <time>2018-07-01T07:41:37Z</time>
      </trkpt>
      <trkpt lat="50.428128037601709" lon="5.982437962666154">
        <ele>459.17000000000002</ele>
        <time>2018-07-01T07:41:39Z</time>
      </trkpt>
      <trkpt lat="50.428168019279838" lon="5.982250962406397">
        <ele>459.64999999999998</ele>
        <time>2018-07-01T07:41:40Z</time>
      </trkpt>
      <trkpt lat="50.428218981251121" lon="5.982077037915587">
        <ele>460.13</ele>
        <time>2018-07-01T07:41:41Z</time>
      </trkpt>
      <trkpt lat="50.428291987627745" lon="5.981914009898901">
        <ele>461.08999999999997</ele>
        <time>2018-07-01T07:41:42Z</time>
      </trkpt>
      <trkpt lat="50.428369017317891" lon="5.981743019074202">
        <ele>462.05000000000001</ele>
        <time>2018-07-01T07:41:43Z</time>
      </trkpt>
      <trkpt lat="50.429349029436707" lon="5.979921966791153">
        <ele>474.55000000000001</ele>
        <time>2018-07-01T07:41:53Z</time>
      </trkpt>
      <trkpt lat="50.429478026926517" lon="5.979717029258609">
        <ele>475.99000000000001</ele>
        <time>2018-07-01T07:41:54Z</time>
      </trkpt>
      <trkpt lat="50.429612975567579" lon="5.979609992355108">
        <ele>477.43000000000001</ele>
        <time>2018-07-01T07:41:55Z</time>
      </trkpt>
      <trkpt lat="50.429765023291111" lon="5.979489963501692">
        <ele>478.87</ele>
        <time>2018-07-01T07:41:56Z</time>
      </trkpt>
      <trkpt lat="50.429924027994275" lon="5.979387033730745">
        <ele>479.83999999999997</ele>
        <time>2018-07-01T07:41:57Z</time>
      </trkpt>
      <trkpt lat="50.430098958313465" lon="5.979351997375488">
        <ele>480.80000000000001</ele>
        <time>2018-07-01T07:41:58Z</time>
      </trkpt>
      <trkpt lat="50.43027900159359" lon="5.979330958798528">
        <ele>481.75999999999999</ele>
        <time>2018-07-01T07:41:59Z</time>
      </trkpt>
      <trkpt lat="50.430469019338489" lon="5.979342022910714">
        <ele>482.72000000000003</ele>
        <time>2018-07-01T07:42:00Z</time>
      </trkpt>
      <trkpt lat="50.430663982406259" lon="5.979367000982165">
        <ele>483.68000000000001</ele>
        <time>2018-07-01T07:42:01Z</time>
      </trkpt>
      <trkpt lat="50.432336004450917" lon="5.979578979313374">
        <ele>486.56</ele>
        <time>2018-07-01T07:42:09Z</time>
      </trkpt>
      <trkpt lat="50.434493003413081" lon="5.979738989844918">
        <ele>489.44999999999999</ele>
        <time>2018-07-01T07:42:18Z</time>
      </trkpt>
      <trkpt lat="50.434857029467821" lon="5.97974200733006">
        <ele>489.93000000000001</ele>
        <time>2018-07-01T07:42:20Z</time>
      </trkpt>
      <trkpt lat="50.435012010857463" lon="5.979704037308693">
        <ele>490.41000000000003</ele>
        <time>2018-07-01T07:42:21Z</time>
      </trkpt>
      <trkpt lat="50.435165986418724" lon="5.979602029547095">
        <ele>489.93000000000001</ele>
        <time>2018-07-01T07:42:22Z</time>
      </trkpt>
      <trkpt lat="50.435315016657114" lon="5.979474037885666">
        <ele>489.93000000000001</ele>
        <time>2018-07-01T07:42:23Z</time>
      </trkpt>
      <trkpt lat="50.435459017753601" lon="5.979302041232586">
        <ele>488.97000000000003</ele>
        <time>2018-07-01T07:42:24Z</time>
      </trkpt>
      <trkpt lat="50.43558600358665" lon="5.979068018496037">
        <ele>488.00999999999999</ele>
        <time>2018-07-01T07:42:25Z</time>
      </trkpt>
      <trkpt lat="50.435717012733221" lon="5.978827038779855">
        <ele>487.52999999999997</ele>
        <time>2018-07-01T07:42:26Z</time>
      </trkpt>
      <trkpt lat="50.435851039364934" lon="5.97858102992177">
        <ele>486.07999999999998</ele>
        <time>2018-07-01T07:42:27Z</time>
      </trkpt>
      <trkpt lat="50.436622006818652" lon="5.977241015061736">
        <ele>477.91000000000003</ele>
        <time>2018-07-01T07:42:33Z</time>
      </trkpt>
      <trkpt lat="50.436773970723152" lon="5.977090978994966">
        <ele>476.94999999999999</ele>
        <time>2018-07-01T07:42:34Z</time>
      </trkpt>
      <trkpt lat="50.436938004568219" lon="5.976976985111833">
        <ele>475.50999999999999</ele>
        <time>2018-07-01T07:42:35Z</time>
      </trkpt>
      <trkpt lat="50.437121987342834" lon="5.976891992613673">
        <ele>474.55000000000001</ele>
        <time>2018-07-01T07:42:36Z</time>
      </trkpt>
      <trkpt lat="50.437318962067366" lon="5.976842036470771">
        <ele>473.58999999999997</ele>
        <time>2018-07-01T07:42:37Z</time>
      </trkpt>
      <trkpt lat="50.437528006732464" lon="5.976791996508837">
        <ele>472.63</ele>
        <time>2018-07-01T07:42:38Z</time>
      </trkpt>
      <trkpt lat="50.439037000760436" lon="5.976377008482814">
        <ele>467.81999999999999</ele>
        <time>2018-07-01T07:42:45Z</time>
      </trkpt>
      <trkpt lat="50.439212014898658" lon="5.976232001557946">
        <ele>466.86000000000001</ele>
        <time>2018-07-01T07:42:46Z</time>
      </trkpt>
      <trkpt lat="50.43938803486526" lon="5.976063022390008">
        <ele>465.89999999999998</ele>
        <time>2018-07-01T07:42:47Z</time>
      </trkpt>
      <trkpt lat="50.440670968964696" lon="5.974829960614443">
        <ele>453.39999999999998</ele>
        <time>2018-07-01T07:42:54Z</time>
      </trkpt>
      <trkpt lat="50.440983027219772" lon="5.974613958969712">
        <ele>450.02999999999997</ele>
        <time>2018-07-01T07:42:56Z</time>
      </trkpt>
      <trkpt lat="50.441132979467511" lon="5.974524021148682">
        <ele>448.11000000000001</ele>
        <time>2018-07-01T07:42:57Z</time>
      </trkpt>
      <trkpt lat="50.44130003079772" lon="5.974507005885243">
        <ele>446.67000000000002</ele>
        <time>2018-07-01T07:42:58Z</time>
      </trkpt>
      <trkpt lat="50.441453000530601" lon="5.974554028362036">
        <ele>444.75</ele>
        <time>2018-07-01T07:42:59Z</time>
      </trkpt>
      <trkpt lat="50.441621979698539" lon="5.974634997546673">
        <ele>443.31</ele>
        <time>2018-07-01T07:43:00Z</time>
      </trkpt>
      <trkpt lat="50.44179598800838" lon="5.974718984216452">
        <ele>441.86000000000001</ele>
        <time>2018-07-01T07:43:01Z</time>
      </trkpt>
      <trkpt lat="50.441949963569641" lon="5.974839013069868">
        <ele>439.94</ele>
        <time>2018-07-01T07:43:02Z</time>
      </trkpt>
      <trkpt lat="50.442089019343257" lon="5.974998017773032">
        <ele>438.01999999999998</ele>
        <time>2018-07-01T07:43:03Z</time>
      </trkpt>
      <trkpt lat="50.442198989912868" lon="5.975198009982705">
        <ele>436.57999999999998</ele>
        <time>2018-07-01T07:43:04Z</time>
      </trkpt>
      <trkpt lat="50.44228901155293" lon="5.97536196000874">
        <ele>434.64999999999998</ele>
        <time>2018-07-01T07:43:05Z</time>
      </trkpt>
      <trkpt lat="50.4423320107162" lon="5.975507972761989">
        <ele>433.20999999999998</ele>
        <time>2018-07-01T07:43:06Z</time>
      </trkpt>
      <trkpt lat="50.442364029586315" lon="5.975618027150631">
        <ele>431.76999999999998</ele>
        <time>2018-07-01T07:43:07Z</time>
      </trkpt>
      <trkpt lat="50.442384984344244" lon="5.975690027698875">
        <ele>430.32999999999998</ele>
        <time>2018-07-01T07:43:08Z</time>
      </trkpt>
      <trkpt lat="50.442399987950921" lon="5.975738978013396">
        <ele>428.88999999999999</ele>
        <time>2018-07-01T07:43:09Z</time>
      </trkpt>
      <trkpt lat="50.442412979900837" lon="5.975781977176666">
        <ele>427.44</ele>
        <time>2018-07-01T07:43:10Z</time>
      </trkpt>
      <trkpt lat="50.442412979900837" lon="5.975781977176666">
        <ele>426.48000000000002</ele>
        <time>2018-07-01T07:43:18Z</time>
      </trkpt>
      <trkpt lat="50.442412979900837" lon="5.975781977176666">
        <ele>426.48000000000002</ele>
        <time>2018-07-01T07:43:30Z</time>
      </trkpt>
      <trkpt lat="50.44246201403439" lon="5.975807961076498">
        <ele>421.19</ele>
        <time>2018-07-01T07:43:35Z</time>
      </trkpt>
      <trkpt lat="50.442412979900837" lon="5.975781977176666">
        <ele>421.68000000000001</ele>
        <time>2018-07-01T07:43:37Z</time>
      </trkpt>
      <trkpt lat="50.442401999607682" lon="5.97574501298368">
        <ele>422.63999999999999</ele>
        <time>2018-07-01T07:43:38Z</time>
      </trkpt>
      <trkpt lat="50.442390013486147" lon="5.975706037133932">
        <ele>423.12</ele>
        <time>2018-07-01T07:43:39Z</time>
      </trkpt>
      <trkpt lat="50.442460002377629" lon="5.975630013272166">
        <ele>423.60000000000002</ele>
        <time>2018-07-01T07:43:40Z</time>
      </trkpt>
      <trkpt lat="50.442460002377629" lon="5.975630013272166">
        <ele>425.51999999999998</ele>
        <time>2018-07-01T07:43:50Z</time>
      </trkpt>
      <trkpt lat="50.442607020959258" lon="5.975408982485533">
        <ele>426</ele>
        <time>2018-07-01T07:44:00Z</time>
      </trkpt>
      <trkpt lat="50.442800978198647" lon="5.975117962807417">
        <ele>417.82999999999998</ele>
        <time>2018-07-01T07:44:13Z</time>
      </trkpt>
      <trkpt lat="50.44291103258729" lon="5.974953006953001">
        <ele>411.10000000000002</ele>
        <time>2018-07-01T07:44:25Z</time>
      </trkpt>
      <trkpt lat="50.442837020382285" lon="5.974167035892606">
        <ele>404.85000000000002</ele>
        <time>2018-07-01T07:44:40Z</time>
      </trkpt>
      <trkpt lat="50.442754039540887" lon="5.973910968750715">
        <ele>400.05000000000001</ele>
        <time>2018-07-01T07:44:56Z</time>
      </trkpt>
      <trkpt lat="50.442745992913842" lon="5.973914992064238">
        <ele>401.00999999999999</ele>
        <time>2018-07-01T07:45:14Z</time>
      </trkpt>
      <trkpt lat="50.442745992913842" lon="5.973914992064238">
        <ele>401.00999999999999</ele>
        <time>2018-07-01T07:45:17Z</time>
      </trkpt>
      <trkpt lat="50.442767031490803" lon="5.973932007327676">
        <ele>397.63999999999999</ele>
        <time>2018-07-01T07:45:35Z</time>
      </trkpt>
      <trkpt lat="50.442758984863758" lon="5.973907029256225">
        <ele>397.16000000000003</ele>
        <time>2018-07-01T07:46:03Z</time>
      </trkpt>
      <trkpt lat="50.442829979583621" lon="5.974073996767402">
        <ele>400.05000000000001</ele>
        <time>2018-07-01T07:46:13Z</time>
      </trkpt>
      <trkpt lat="50.442843977361917" lon="5.974121019244194">
        <ele>401.00999999999999</ele>
        <time>2018-07-01T07:46:14Z</time>
      </trkpt>
      <trkpt lat="50.442865015938878" lon="5.974252028390765">
        <ele>401.49000000000001</ele>
        <time>2018-07-01T07:46:16Z</time>
      </trkpt>
      <trkpt lat="50.44291103258729" lon="5.974953006953001">
        <ele>401.00999999999999</ele>
        <time>2018-07-01T07:46:21Z</time>
      </trkpt>
      <trkpt lat="50.44291103258729" lon="5.974953006953001">
        <ele>401.00999999999999</ele>
        <time>2018-07-01T07:46:22Z</time>
      </trkpt>
      <trkpt lat="50.44291103258729" lon="5.974953006953001">
        <ele>401.00999999999999</ele>
        <time>2018-07-01T07:46:23Z</time>
      </trkpt>
      <trkpt lat="50.442882031202316" lon="5.974997011944652">
        <ele>401.00999999999999</ele>
        <time>2018-07-01T07:46:24Z</time>
      </trkpt>
      <trkpt lat="50.442845989018679" lon="5.975049985572696">
        <ele>401.49000000000001</ele>
        <time>2018-07-01T07:46:25Z</time>
      </trkpt>
      <trkpt lat="50.44280600734055" lon="5.975111005827785">
        <ele>401.49000000000001</ele>
        <time>2018-07-01T07:46:26Z</time>
      </trkpt>
      <trkpt lat="50.442758984863758" lon="5.975180994719267">
        <ele>401.49000000000001</ele>
        <time>2018-07-01T07:46:27Z</time>
      </trkpt>
      <trkpt lat="50.44271900318563" lon="5.975241009145975">
        <ele>401.97000000000003</ele>
        <time>2018-07-01T07:46:28Z</time>
      </trkpt>
      <trkpt lat="50.442681033164263" lon="5.975297000259161">
        <ele>401.97000000000003</ele>
        <time>2018-07-01T07:46:29Z</time>
      </trkpt>
      <trkpt lat="50.442637028172612" lon="5.975363971665502">
        <ele>402.44999999999999</ele>
        <time>2018-07-01T07:46:30Z</time>
      </trkpt>
      <trkpt lat="50.442593023180962" lon="5.975430021062493">
        <ele>402.93000000000001</ele>
        <time>2018-07-01T07:46:31Z</time>
      </trkpt>
      <trkpt lat="50.442482968792319" lon="5.975594976916909">
        <ele>404.85000000000002</ele>
        <time>2018-07-01T07:46:35Z</time>
      </trkpt>
      <trkpt lat="50.44246201403439" lon="5.975625989958644">
        <ele>405.81</ele>
        <time>2018-07-01T07:46:39Z</time>
      </trkpt>
      <trkpt lat="50.442426977679133" lon="5.975830005481839">
        <ele>406.29000000000002</ele>
        <time>2018-07-01T07:46:40Z</time>
      </trkpt>
      <trkpt lat="50.442452961578965" lon="5.97591801546514">
        <ele>406.76999999999998</ele>
        <time>2018-07-01T07:46:41Z</time>
      </trkpt>
      <trkpt lat="50.442485986277461" lon="5.976032009348273">
        <ele>407.74000000000001</ele>
        <time>2018-07-01T07:46:42Z</time>
      </trkpt>
      <trkpt lat="50.442524962127209" lon="5.976172992959619">
        <ele>408.22000000000003</ele>
        <time>2018-07-01T07:46:43Z</time>
      </trkpt>
      <trkpt lat="50.442568967118859" lon="5.976330991834402">
        <ele>408.22000000000003</ele>
        <time>2018-07-01T07:46:44Z</time>
      </trkpt>
      <trkpt lat="50.44274004176259" lon="5.976869026198983">
        <ele>407.74000000000001</ele>
        <time>2018-07-01T07:46:47Z</time>
      </trkpt>
      <trkpt lat="50.442831991240382" lon="5.977023001760244">
        <ele>407.74000000000001</ele>
        <time>2018-07-01T07:46:48Z</time>
      </trkpt>
      <trkpt lat="50.4430400300771" lon="5.977243026718497">
        <ele>406.76999999999998</ele>
        <time>2018-07-01T07:46:50Z</time>
      </trkpt>
      <trkpt lat="50.443139020353556" lon="5.977347968146205">
        <ele>406.29000000000002</ele>
        <time>2018-07-01T07:46:51Z</time>
      </trkpt>
      <trkpt lat="50.443251002579927" lon="5.977398008108139">
        <ele>405.32999999999998</ele>
        <time>2018-07-01T07:46:52Z</time>
      </trkpt>
      <trkpt lat="50.443369019776583" lon="5.977416029199958">
        <ele>404.85000000000002</ele>
        <time>2018-07-01T07:46:53Z</time>
      </trkpt>
      <trkpt lat="50.443487036973238" lon="5.977417035028338">
        <ele>403.88999999999999</ele>
        <time>2018-07-01T07:46:54Z</time>
      </trkpt>
      <trkpt lat="50.443613016977906" lon="5.977409994229674">
        <ele>403.41000000000003</ele>
        <time>2018-07-01T07:46:55Z</time>
      </trkpt>
      <trkpt lat="50.444169994443655" lon="5.977325001731515">
        <ele>399.56999999999999</ele>
        <time>2018-07-01T07:46:59Z</time>
      </trkpt>
      <trkpt lat="50.444283988326788" lon="5.977240009233356">
        <ele>398.60000000000002</ele>
        <time>2018-07-01T07:47:00Z</time>
      </trkpt>
      <trkpt lat="50.444393958896399" lon="5.977114029228687">
        <ele>398.12</ele>
        <time>2018-07-01T07:47:01Z</time>
      </trkpt>
      <trkpt lat="50.444520022720098" lon="5.9769700281322">
        <ele>397.63999999999999</ele>
        <time>2018-07-01T07:47:02Z</time>
      </trkpt>
      <trkpt lat="50.4445890057832" lon="5.976811023429036">
        <ele>397.16000000000003</ele>
        <time>2018-07-01T07:47:03Z</time>
      </trkpt>
      <trkpt lat="50.444669974967837" lon="5.976623017340899">
        <ele>397.16000000000003</ele>
        <time>2018-07-01T07:47:04Z</time>
      </trkpt>
      <trkpt lat="50.445323009043932" lon="5.975240003317595">
        <ele>399.56999999999999</ele>
        <time>2018-07-01T07:47:11Z</time>
      </trkpt>
      <trkpt lat="50.445567006245255" lon="5.974940015003085">
        <ele>400.05000000000001</ele>
        <time>2018-07-01T07:47:13Z</time>
      </trkpt>
      <trkpt lat="50.445698015391827" lon="5.974790984764695">
        <ele>400.52999999999997</ele>
        <time>2018-07-01T07:47:14Z</time>
      </trkpt>
      <trkpt lat="50.445846961811185" lon="5.974696017801762">
        <ele>401.00999999999999</ele>
        <time>2018-07-01T07:47:15Z</time>
      </trkpt>
      <trkpt lat="50.446002027019858" lon="5.974602978676558">
        <ele>401.49000000000001</ele>
        <time>2018-07-01T07:47:16Z</time>
      </trkpt>
      <trkpt lat="50.446162037551403" lon="5.974512035027146">
        <ele>401.49000000000001</ele>
        <time>2018-07-01T07:47:17Z</time>
      </trkpt>
      <trkpt lat="50.447355033829808" lon="5.973827987909317">
        <ele>404.37</ele>
        <time>2018-07-01T07:47:24Z</time>
      </trkpt>
      <trkpt lat="50.447888961061835" lon="5.973493969067931">
        <ele>405.81</ele>
        <time>2018-07-01T07:47:28Z</time>
      </trkpt>
      <trkpt lat="50.447965990751982" lon="5.973394978791475">
        <ele>406.29000000000002</ele>
        <time>2018-07-01T07:47:29Z</time>
      </trkpt>
      <trkpt lat="50.448179980739951" lon="5.973121980205178">
        <ele>408.69999999999999</ele>
        <time>2018-07-01T07:47:33Z</time>
      </trkpt>
      <trkpt lat="50.448215017095208" lon="5.973077975213528">
        <ele>409.18000000000001</ele>
        <time>2018-07-01T07:47:34Z</time>
      </trkpt>
      <trkpt lat="50.448252987116575" lon="5.973030030727387">
        <ele>409.66000000000003</ele>
        <time>2018-07-01T07:47:35Z</time>
      </trkpt>
      <trkpt lat="50.448361029848456" lon="5.973044028505683">
        <ele>410.13999999999999</ele>
        <time>2018-07-01T07:47:36Z</time>
      </trkpt>
      <trkpt lat="50.448377961292863" lon="5.973015027120709">
        <ele>410.62</ele>
        <time>2018-07-01T07:47:37Z</time>
      </trkpt>
      <trkpt lat="50.448407968506217" lon="5.972964987158775">
        <ele>411.57999999999998</ele>
        <time>2018-07-01T07:47:38Z</time>
      </trkpt>
      <trkpt lat="50.448424983769655" lon="5.972935985773802">
        <ele>412.06</ele>
        <time>2018-07-01T07:47:39Z</time>
      </trkpt>
      <trkpt lat="50.448415009304881" lon="5.972842024639249">
        <ele>412.54000000000002</ele>
        <time>2018-07-01T07:47:40Z</time>
      </trkpt>
      <trkpt lat="50.448408974334598" lon="5.972788967192173">
        <ele>413.5</ele>
        <time>2018-07-01T07:47:41Z</time>
      </trkpt>
      <trkpt lat="50.448404029011726" lon="5.972743034362793">
        <ele>413.5</ele>
        <time>2018-07-01T07:47:42Z</time>
      </trkpt>
      <trkpt lat="50.448404029011726" lon="5.972743034362793">
        <ele>413.98000000000002</ele>
        <time>2018-07-01T07:47:43Z</time>
      </trkpt>
      <trkpt lat="50.448383996263146" lon="5.972732976078987">
        <ele>413.98000000000002</ele>
        <time>2018-07-01T07:47:44Z</time>
      </trkpt>
      <trkpt lat="50.448363963514566" lon="5.972723001614213">
        <ele>414.47000000000003</ele>
        <time>2018-07-01T07:47:45Z</time>
      </trkpt>
      <trkpt lat="50.44834803789854" lon="5.9727150388062">
        <ele>414.47000000000003</ele>
        <time>2018-07-01T07:47:46Z</time>
      </trkpt>
      <trkpt lat="50.448329010978341" lon="5.972704980522394">
        <ele>414.94999999999999</ele>
        <time>2018-07-01T07:47:47Z</time>
      </trkpt>
      <trkpt lat="50.448318030685186" lon="5.972700035199523">
        <ele>414.94999999999999</ele>
        <time>2018-07-01T07:47:48Z</time>
      </trkpt>
      <trkpt lat="50.448318030685186" lon="5.972700035199523">
        <ele>414.94999999999999</ele>
        <time>2018-07-01T07:47:49Z</time>
      </trkpt>
      <trkpt lat="50.448318030685186" lon="5.972700035199523">
        <ele>415.43000000000001</ele>
        <time>2018-07-01T07:48:04Z</time>
      </trkpt>
      <trkpt lat="50.448256004601717" lon="5.972915031015873">
        <ele>413.01999999999998</ele>
        <time>2018-07-01T07:48:19Z</time>
      </trkpt>
      <trkpt lat="50.448275031521916" lon="5.973001029342413">
        <ele>413.01999999999998</ele>
        <time>2018-07-01T07:48:20Z</time>
      </trkpt>
      <trkpt lat="50.44830403290689" lon="5.973015027120709">
        <ele>413.5</ele>
        <time>2018-07-01T07:48:21Z</time>
      </trkpt>
      <trkpt lat="50.448358012363315" lon="5.973042016848922">
        <ele>413.98000000000002</ele>
        <time>2018-07-01T07:48:22Z</time>
      </trkpt>
      <trkpt lat="50.448405034840107" lon="5.972970016300678">
        <ele>414.47000000000003</ele>
        <time>2018-07-01T07:48:23Z</time>
      </trkpt>
      <trkpt lat="50.448421966284513" lon="5.972906984388828">
        <ele>414.94999999999999</ele>
        <time>2018-07-01T07:48:24Z</time>
      </trkpt>
      <trkpt lat="50.448411991819739" lon="5.972812017425895">
        <ele>414.94999999999999</ele>
        <time>2018-07-01T07:48:25Z</time>
      </trkpt>
      <trkpt lat="50.448460020124912" lon="5.972653012722731">
        <ele>415.43000000000001</ele>
        <time>2018-07-01T07:48:26Z</time>
      </trkpt>
      <trkpt lat="50.448512993752956" lon="5.972569026052952">
        <ele>415.91000000000003</ele>
        <time>2018-07-01T07:48:27Z</time>
      </trkpt>
      <trkpt lat="50.448570996522903" lon="5.972461989149451">
        <ele>416.38999999999999</ele>
        <time>2018-07-01T07:48:28Z</time>
      </trkpt>
      <trkpt lat="50.448636962100863" lon="5.972341038286686">
        <ele>416.87</ele>
        <time>2018-07-01T07:48:29Z</time>
      </trkpt>
      <trkpt lat="50.449097966775298" lon="5.97144803032279">
        <ele>420.23000000000002</ele>
        <time>2018-07-01T07:48:35Z</time>
      </trkpt>
      <trkpt lat="50.449141971766949" lon="5.971277039498091">
        <ele>420.70999999999998</ele>
        <time>2018-07-01T07:48:36Z</time>
      </trkpt>
      <trkpt lat="50.449181031435728" lon="5.971094984561205">
        <ele>421.68000000000001</ele>
        <time>2018-07-01T07:48:37Z</time>
      </trkpt>
      <trkpt lat="50.449220007285476" lon="5.970916030928493">
        <ele>422.16000000000003</ele>
        <time>2018-07-01T07:48:38Z</time>
      </trkpt>
      <trkpt lat="50.44923098757863" lon="5.970703968778253">
        <ele>423.12</ele>
        <time>2018-07-01T07:48:39Z</time>
      </trkpt>
      <trkpt lat="50.449280021712184" lon="5.969786988571286">
        <ele>427.44</ele>
        <time>2018-07-01T07:48:43Z</time>
      </trkpt>
      <trkpt lat="50.449258983135223" lon="5.969582973048091">
        <ele>428.39999999999998</ele>
        <time>2018-07-01T07:48:44Z</time>
      </trkpt>
      <trkpt lat="50.449225036427379" lon="5.969405025243759">
        <ele>429.85000000000002</ele>
        <time>2018-07-01T07:48:45Z</time>
      </trkpt>
      <trkpt lat="50.449181031435728" lon="5.969275021925569">
        <ele>431.29000000000002</ele>
        <time>2018-07-01T07:48:46Z</time>
      </trkpt>
      <trkpt lat="50.449138032272458" lon="5.969163039699197">
        <ele>432.25</ele>
        <time>2018-07-01T07:48:47Z</time>
      </trkpt>
      <trkpt lat="50.449102995917201" lon="5.969068994745612">
        <ele>433.20999999999998</ele>
        <time>2018-07-01T07:48:48Z</time>
      </trkpt>
      <trkpt lat="50.449071982875466" lon="5.968989031389356">
        <ele>434.17000000000002</ele>
        <time>2018-07-01T07:48:49Z</time>
      </trkpt>
      <trkpt lat="50.449044993147254" lon="5.968918036669493">
        <ele>435.13</ele>
        <time>2018-07-01T07:48:50Z</time>
      </trkpt>
      <trkpt lat="50.449025966227055" lon="5.968866990879178">
        <ele>436.10000000000002</ele>
        <time>2018-07-01T07:48:51Z</time>
      </trkpt>
      <trkpt lat="50.449010040611029" lon="5.96882801502943">
        <ele>437.06</ele>
        <time>2018-07-01T07:48:52Z</time>
      </trkpt>
      <trkpt lat="50.448998976498842" lon="5.968799013644457">
        <ele>437.54000000000002</ele>
        <time>2018-07-01T07:48:53Z</time>
      </trkpt>
      <trkpt lat="50.448998976498842" lon="5.968799013644457">
        <ele>438.01999999999998</ele>
        <time>2018-07-01T07:48:54Z</time>
      </trkpt>
      <trkpt lat="50.448981961235404" lon="5.968752996996045">
        <ele>438.98000000000002</ele>
        <time>2018-07-01T07:48:56Z</time>
      </trkpt>
      <trkpt lat="50.448970980942249" lon="5.968725001439452">
        <ele>439.45999999999998</ele>
        <time>2018-07-01T07:48:57Z</time>
      </trkpt>
      <trkpt lat="50.448954971507192" lon="5.968683008104563">
        <ele>439.94</ele>
        <time>2018-07-01T07:48:58Z</time>
      </trkpt>
      <trkpt lat="50.448939967900515" lon="5.968645038083196">
        <ele>439.94</ele>
        <time>2018-07-01T07:48:59Z</time>
      </trkpt>
      <trkpt lat="50.448870984837413" lon="5.968582006171346">
        <ele>439.94</ele>
        <time>2018-07-01T07:49:00Z</time>
      </trkpt>
      <trkpt lat="50.448849024251103" lon="5.968637997284532">
        <ele>440.42000000000002</ele>
        <time>2018-07-01T07:49:01Z</time>
      </trkpt>
      <trkpt lat="50.448818011209369" lon="5.968717038631439">
        <ele>440.89999999999998</ele>
        <time>2018-07-01T07:49:02Z</time>
      </trkpt>
      <trkpt lat="50.448781969025731" lon="5.96880697645247">
        <ele>440.89999999999998</ele>
        <time>2018-07-01T07:49:03Z</time>
      </trkpt>
      <trkpt lat="50.448742993175983" lon="5.968906972557306">
        <ele>441.38</ele>
        <time>2018-07-01T07:49:04Z</time>
      </trkpt>
      <trkpt lat="50.448537971824408" lon="5.969424974173307">
        <ele>439.45999999999998</ele>
        <time>2018-07-01T07:49:08Z</time>
      </trkpt>
      <trkpt lat="50.448490027338266" lon="5.969546008855104">
        <ele>438.01999999999998</ele>
        <time>2018-07-01T07:49:09Z</time>
      </trkpt>
      <trkpt lat="50.448406962677836" lon="5.969680035486817">
        <ele>436.57999999999998</ele>
        <time>2018-07-01T07:49:10Z</time>
      </trkpt>
      <trkpt lat="50.448333034291863" lon="5.969797968864441">
        <ele>435.13</ele>
        <time>2018-07-01T07:49:11Z</time>
      </trkpt>
      <trkpt lat="50.448262039572001" lon="5.969912968575954">
        <ele>433.20999999999998</ele>
        <time>2018-07-01T07:49:12Z</time>
      </trkpt>
      <trkpt lat="50.448187021538615" lon="5.970020005479455">
        <ele>431.76999999999998</ele>
        <time>2018-07-01T07:49:13Z</time>
      </trkpt>
      <trkpt lat="50.447845961898565" lon="5.970360981300473">
        <ele>425.04000000000002</ele>
        <time>2018-07-01T07:49:18Z</time>
      </trkpt>
      <trkpt lat="50.447736997157335" lon="5.97037497907877">
        <ele>424.07999999999998</ele>
        <time>2018-07-01T07:49:19Z</time>
      </trkpt>
      <trkpt lat="50.447673965245485" lon="5.970383025705814">
        <ele>423.12</ele>
        <time>2018-07-01T07:49:20Z</time>
      </trkpt>
      <trkpt lat="50.447587966918945" lon="5.970340026542544">
        <ele>422.63999999999999</ele>
        <time>2018-07-01T07:49:21Z</time>
      </trkpt>
      <trkpt lat="50.447506997734308" lon="5.970299039036036">
        <ele>422.16000000000003</ele>
        <time>2018-07-01T07:49:22Z</time>
      </trkpt>
      <trkpt lat="50.44742401689291" lon="5.970256961882114">
        <ele>421.19</ele>
        <time>2018-07-01T07:49:23Z</time>
      </trkpt>
      <trkpt lat="50.447247996926308" lon="5.970169035717845">
        <ele>419.75</ele>
        <time>2018-07-01T07:49:25Z</time>
      </trkpt>
      <trkpt lat="50.447057979181409" lon="5.97007499076426">
        <ele>418.31</ele>
        <time>2018-07-01T07:49:27Z</time>
      </trkpt>
      <trkpt lat="50.446963012218475" lon="5.970070967450738">
        <ele>417.82999999999998</ele>
        <time>2018-07-01T07:49:28Z</time>
      </trkpt>
      <trkpt lat="50.44686796143651" lon="5.970084965229034">
        <ele>417.35000000000002</ele>
        <time>2018-07-01T07:49:29Z</time>
      </trkpt>
      <trkpt lat="50.446765031665564" lon="5.970099968835712">
        <ele>417.82999999999998</ele>
        <time>2018-07-01T07:49:30Z</time>
      </trkpt>
      <trkpt lat="50.44665296562016" lon="5.97011698409915">
        <ele>417.35000000000002</ele>
        <time>2018-07-01T07:49:31Z</time>
      </trkpt>
      <trkpt lat="50.445585027337074" lon="5.970343966037035">
        <ele>409.66000000000003</ele>
        <time>2018-07-01T07:49:42Z</time>
      </trkpt>
      <trkpt lat="50.445467010140419" lon="5.970389982685447">
        <ele>408.22000000000003</ele>
        <time>2018-07-01T07:49:44Z</time>
      </trkpt>
      <trkpt lat="50.445371959358454" lon="5.970427030697465">
        <ele>406.29000000000002</ele>
        <time>2018-07-01T07:49:46Z</time>
      </trkpt>
      <trkpt lat="50.445328960195184" lon="5.970443962141872">
        <ele>405.32999999999998</ele>
        <time>2018-07-01T07:49:47Z</time>
      </trkpt>
      <trkpt lat="50.445289984345436" lon="5.970458965748549">
        <ele>404.37</ele>
        <time>2018-07-01T07:49:48Z</time>
      </trkpt>
      <trkpt lat="50.445165010169148" lon="5.970506994053721">
        <ele>401.97000000000003</ele>
        <time>2018-07-01T07:49:51Z</time>
      </trkpt>
      <trkpt lat="50.445130979642272" lon="5.970519986003637">
        <ele>401.00999999999999</ele>
        <time>2018-07-01T07:49:52Z</time>
      </trkpt>
      <trkpt lat="50.445098960772157" lon="5.970532977953553">
        <ele>397.16000000000003</ele>
        <time>2018-07-01T07:49:59Z</time>
      </trkpt>
      <trkpt lat="50.444895029067993" lon="5.970802959054709">
        <ele>394.27999999999997</ele>
        <time>2018-07-01T07:50:09Z</time>
      </trkpt>
      <trkpt lat="50.444895029067993" lon="5.970802959054709">
        <ele>394.27999999999997</ele>
        <time>2018-07-01T07:50:33Z</time>
      </trkpt>
      <trkpt lat="50.44488899409771" lon="5.97080597653985">
        <ele>393.80000000000001</ele>
        <time>2018-07-01T07:51:12Z</time>
      </trkpt>
      <trkpt lat="50.444879019632936" lon="5.970806982368231">
        <ele>393.31999999999999</ele>
        <time>2018-07-01T07:52:11Z</time>
      </trkpt>
      <trkpt lat="50.444872984662652" lon="5.970813017338514">
        <ele>393.31999999999999</ele>
        <time>2018-07-01T07:53:04Z</time>
      </trkpt>
      <trkpt lat="50.44486996717751" lon="5.970811005681753">
        <ele>393.80000000000001</ele>
        <time>2018-07-01T07:53:52Z</time>
      </trkpt>
      <trkpt lat="50.444870973005891" lon="5.970819974318147">
        <ele>393.80000000000001</ele>
        <time>2018-07-01T07:54:34Z</time>
      </trkpt>
      <trkpt lat="50.444966023787856" lon="5.970845958217979">
        <ele>394.27999999999997</ele>
        <time>2018-07-01T07:54:40Z</time>
      </trkpt>
      <trkpt lat="50.44521002098918" lon="5.970644038170576">
        <ele>398.12</ele>
        <time>2018-07-01T07:54:47Z</time>
      </trkpt>
      <trkpt lat="50.44523298740387" lon="5.970665998756886">
        <ele>398.60000000000002</ele>
        <time>2018-07-01T07:54:48Z</time>
      </trkpt>
      <trkpt lat="50.445248996838927" lon="5.970682008191943">
        <ele>399.07999999999998</ele>
        <time>2018-07-01T07:54:49Z</time>
      </trkpt>
      <trkpt lat="50.445261988788843" lon="5.970695000141859">
        <ele>399.07999999999998</ele>
        <time>2018-07-01T07:54:50Z</time>
      </trkpt>
      <trkpt lat="50.445279004052281" lon="5.970712015405297">
        <ele>399.56999999999999</ele>
        <time>2018-07-01T07:54:51Z</time>
      </trkpt>
      <trkpt lat="50.445516966283321" lon="5.970949977636337">
        <ele>401.00999999999999</ele>
        <time>2018-07-01T07:55:00Z</time>
      </trkpt>
      <trkpt lat="50.445868000388145" lon="5.971274022012949">
        <ele>403.41000000000003</ele>
        <time>2018-07-01T07:55:10Z</time>
      </trkpt>
      <trkpt lat="50.446009989827871" lon="5.971368988975883">
        <ele>404.85000000000002</ele>
        <time>2018-07-01T07:55:14Z</time>
      </trkpt>
      <trkpt lat="50.446203025057912" lon="5.971496980637312">
        <ele>406.76999999999998</ele>
        <time>2018-07-01T07:55:18Z</time>
      </trkpt>
      <trkpt lat="50.446482980623841" lon="5.971683980897069">
        <ele>408.22000000000003</ele>
        <time>2018-07-01T07:55:23Z</time>
      </trkpt>
      <trkpt lat="50.447131991386414" lon="5.972116990014911">
        <ele>411.57999999999998</ele>
        <time>2018-07-01T07:55:33Z</time>
      </trkpt>
      <trkpt lat="50.447939001023769" lon="5.972633985802531">
        <ele>413.98000000000002</ele>
        <time>2018-07-01T07:55:46Z</time>
      </trkpt>
      <trkpt lat="50.448204958811402" lon="5.972789973020554">
        <ele>414.94999999999999</ele>
        <time>2018-07-01T07:55:53Z</time>
      </trkpt>
      <trkpt lat="50.448235971853137" lon="5.972826015204191">
        <ele>414.94999999999999</ele>
        <time>2018-07-01T07:55:54Z</time>
      </trkpt>
      <trkpt lat="50.448246030136943" lon="5.972868008539081">
        <ele>414.94999999999999</ele>
        <time>2018-07-01T07:55:55Z</time>
      </trkpt>
      <trkpt lat="50.448257010430098" lon="5.972917964681983">
        <ele>414.94999999999999</ele>
        <time>2018-07-01T07:55:56Z</time>
      </trkpt>
      <trkpt lat="50.448275031521916" lon="5.973001029342413">
        <ele>414.94999999999999</ele>
        <time>2018-07-01T07:55:57Z</time>
      </trkpt>
      <trkpt lat="50.448308978229761" lon="5.973017038777471">
        <ele>414.94999999999999</ele>
        <time>2018-07-01T07:55:58Z</time>
      </trkpt>
      <trkpt lat="50.448351977393031" lon="5.97303899936378">
        <ele>414.94999999999999</ele>
        <time>2018-07-01T07:55:59Z</time>
      </trkpt>
      <trkpt lat="50.448388019576669" lon="5.972999017685652">
        <ele>414.94999999999999</ele>
        <time>2018-07-01T07:56:00Z</time>
      </trkpt>
      <trkpt lat="50.448420960456133" lon="5.972944032400847">
        <ele>414.94999999999999</ele>
        <time>2018-07-01T07:56:01Z</time>
      </trkpt>
      <trkpt lat="50.448424983769655" lon="5.972935985773802">
        <ele>414.94999999999999</ele>
        <time>2018-07-01T07:56:02Z</time>
      </trkpt>
      <trkpt lat="50.448414003476501" lon="5.972830960527062">
        <ele>414.94999999999999</ele>
        <time>2018-07-01T07:56:03Z</time>
      </trkpt>
      <trkpt lat="50.448460020124912" lon="5.972653012722731">
        <ele>414.94999999999999</ele>
        <time>2018-07-01T07:56:04Z</time>
      </trkpt>
      <trkpt lat="50.448512993752956" lon="5.972568020224571">
        <ele>414.94999999999999</ele>
        <time>2018-07-01T07:56:05Z</time>
      </trkpt>
      <trkpt lat="50.448574014008045" lon="5.972456960007548">
        <ele>414.94999999999999</ele>
        <time>2018-07-01T07:56:06Z</time>
      </trkpt>
      <trkpt lat="50.448640985414386" lon="5.972333997488022">
        <ele>414.94999999999999</ele>
        <time>2018-07-01T07:56:07Z</time>
      </trkpt>
      <trkpt lat="50.448716003447771" lon="5.972195025533438">
        <ele>415.43000000000001</ele>
        <time>2018-07-01T07:56:08Z</time>
      </trkpt>
      <trkpt lat="50.449126968160272" lon="5.971345016732812">
        <ele>418.31</ele>
        <time>2018-07-01T07:56:13Z</time>
      </trkpt>
      <trkpt lat="50.449168039485812" lon="5.971156004816294">
        <ele>419.26999999999998</ele>
        <time>2018-07-01T07:56:14Z</time>
      </trkpt>
      <trkpt lat="50.449219001457095" lon="5.970918964594603">
        <ele>420.23000000000002</ele>
        <time>2018-07-01T07:56:15Z</time>
      </trkpt>
      <trkpt lat="50.449226964265108" lon="5.970772029832006">
        <ele>421.19</ele>
        <time>2018-07-01T07:56:16Z</time>
      </trkpt>
      <trkpt lat="50.449238028377295" lon="5.970566002652049">
        <ele>422.63999999999999</ele>
        <time>2018-07-01T07:56:17Z</time>
      </trkpt>
      <trkpt lat="50.449269963428378" lon="5.96996602602303">
        <ele>426</ele>
        <time>2018-07-01T07:56:20Z</time>
      </trkpt>
      <trkpt lat="50.449257977306843" lon="5.969580039381981">
        <ele>428.39999999999998</ele>
        <time>2018-07-01T07:56:22Z</time>
      </trkpt>
      <trkpt lat="50.449219001457095" lon="5.969374012202025">
        <ele>429.37</ele>
        <time>2018-07-01T07:56:23Z</time>
      </trkpt>
      <trkpt lat="50.44916502200067" lon="5.969232022762299">
        <ele>430.81</ele>
        <time>2018-07-01T07:56:24Z</time>
      </trkpt>
      <trkpt lat="50.448912978172302" lon="5.968561973422766">
        <ele>436.10000000000002</ele>
        <time>2018-07-01T07:56:30Z</time>
      </trkpt>
      <trkpt lat="50.448558004572988" lon="5.967581039294601">
        <ele>442.33999999999997</ele>
        <time>2018-07-01T07:56:37Z</time>
      </trkpt>
      <trkpt lat="50.448521040380001" lon="5.967402001842856">
        <ele>443.31</ele>
        <time>2018-07-01T07:56:38Z</time>
      </trkpt>
      <trkpt lat="50.448501007631421" lon="5.967219024896622">
        <ele>443.79000000000002</ele>
        <time>2018-07-01T07:56:39Z</time>
      </trkpt>
      <trkpt lat="50.448503019288182" lon="5.967030012980104">
        <ele>444.75</ele>
        <time>2018-07-01T07:56:40Z</time>
      </trkpt>
      <trkpt lat="50.448531014844775" lon="5.966846030205488">
        <ele>445.70999999999998</ele>
        <time>2018-07-01T07:56:41Z</time>
      </trkpt>
      <trkpt lat="50.448564039543271" lon="5.966660035774112">
        <ele>447.14999999999998</ele>
        <time>2018-07-01T07:56:42Z</time>
      </trkpt>
      <trkpt lat="50.448622964322567" lon="5.966475969180465">
        <ele>448.11000000000001</ele>
        <time>2018-07-01T07:56:43Z</time>
      </trkpt>
      <trkpt lat="50.448683984577656" lon="5.966287041082978">
        <ele>449.06999999999999</ele>
        <time>2018-07-01T07:56:44Z</time>
      </trkpt>
      <trkpt lat="50.449032001197338" lon="5.965194962918758">
        <ele>454.36000000000001</ele>
        <time>2018-07-01T07:56:51Z</time>
      </trkpt>
      <trkpt lat="50.449084974825382" lon="5.965034030377865">
        <ele>454.83999999999997</ele>
        <time>2018-07-01T07:56:52Z</time>
      </trkpt>
      <trkpt lat="50.449476996436715" lon="5.963730979710817">
        <ele>456.75999999999999</ele>
        <time>2018-07-01T07:56:59Z</time>
      </trkpt>
      <trkpt lat="50.449476996436715" lon="5.96354297362268">
        <ele>456.75999999999999</ele>
        <time>2018-07-01T07:57:00Z</time>
      </trkpt>
      <trkpt lat="50.449476996436715" lon="5.96334801055491">
        <ele>456.27999999999997</ele>
        <time>2018-07-01T07:57:01Z</time>
      </trkpt>
      <trkpt lat="50.449484037235379" lon="5.961541039869189">
        <ele>455.80000000000001</ele>
        <time>2018-07-01T07:57:11Z</time>
      </trkpt>
      <trkpt lat="50.449519995599985" lon="5.959843033924699">
        <ele>451.95999999999998</ele>
        <time>2018-07-01T07:57:21Z</time>
      </trkpt>
      <trkpt lat="50.449484037235379" lon="5.959375994279981">
        <ele>450.02999999999997</ele>
        <time>2018-07-01T07:57:24Z</time>
      </trkpt>
      <trkpt lat="50.449424022808671" lon="5.958946002647281">
        <ele>448.11000000000001</ele>
        <time>2018-07-01T07:57:28Z</time>
      </trkpt>
      <trkpt lat="50.449410025030375" lon="5.958880037069321">
        <ele>448.11000000000001</ele>
        <time>2018-07-01T07:57:29Z</time>
      </trkpt>
      <trkpt lat="50.449398038908839" lon="5.958827985450625">
        <ele>448.11000000000001</ele>
        <time>2018-07-01T07:57:30Z</time>
      </trkpt>
      <trkpt lat="50.449498035013676" lon="5.9586669690907">
        <ele>448.11000000000001</ele>
        <time>2018-07-01T07:57:31Z</time>
      </trkpt>
      <trkpt lat="50.449470961466432" lon="5.958698987960815">
        <ele>448.11000000000001</ele>
        <time>2018-07-01T07:57:32Z</time>
      </trkpt>
      <trkpt lat="50.449498035013676" lon="5.958637967705727">
        <ele>447.63</ele>
        <time>2018-07-01T07:57:33Z</time>
      </trkpt>
      <trkpt lat="50.449498035013676" lon="5.958569990471005">
        <ele>447.63</ele>
        <time>2018-07-01T07:57:34Z</time>
      </trkpt>
      <trkpt lat="50.449498035013676" lon="5.958495978266001">
        <ele>447.63</ele>
        <time>2018-07-01T07:57:35Z</time>
      </trkpt>
      <trkpt lat="50.449498035013676" lon="5.958474017679691">
        <ele>447.63</ele>
        <time>2018-07-01T07:57:36Z</time>
      </trkpt>
      <trkpt lat="50.449446989223361" lon="5.958401011303067">
        <ele>447.14999999999998</ele>
        <time>2018-07-01T07:57:37Z</time>
      </trkpt>
      <trkpt lat="50.449414970353246" lon="5.958358012139797">
        <ele>447.63</ele>
        <time>2018-07-01T07:57:38Z</time>
      </trkpt>
      <trkpt lat="50.449384963139892" lon="5.958324987441301">
        <ele>447.14999999999998</ele>
        <time>2018-07-01T07:57:39Z</time>
      </trkpt>
      <trkpt lat="50.449356967583299" lon="5.958330016583204">
        <ele>447.14999999999998</ele>
        <time>2018-07-01T07:57:40Z</time>
      </trkpt>
      <trkpt lat="50.449322015047073" lon="5.958336973562837">
        <ele>446.67000000000002</ele>
        <time>2018-07-01T07:57:41Z</time>
      </trkpt>
      <trkpt lat="50.449283961206675" lon="5.958345020189881">
        <ele>446.19</ele>
        <time>2018-07-01T07:57:42Z</time>
      </trkpt>
      <trkpt lat="50.449256971478462" lon="5.958397993817926">
        <ele>445.70999999999998</ele>
        <time>2018-07-01T07:57:43Z</time>
      </trkpt>
      <trkpt lat="50.449226964265108" lon="5.958458008244634">
        <ele>444.75</ele>
        <time>2018-07-01T07:57:44Z</time>
      </trkpt>
      <trkpt lat="50.449219001457095" lon="5.958474017679691">
        <ele>444.26999999999998</ele>
        <time>2018-07-01T07:57:45Z</time>
      </trkpt>
      <trkpt lat="50.449219001457095" lon="5.958474017679691">
        <ele>443.79000000000002</ele>
        <time>2018-07-01T07:57:46Z</time>
      </trkpt>
      <trkpt lat="50.449219001457095" lon="5.958474017679691">
        <ele>443.31</ele>
        <time>2018-07-01T07:57:47Z</time>
      </trkpt>
      <trkpt lat="50.449134008958936" lon="5.958817005157471">
        <ele>442.81999999999999</ele>
        <time>2018-07-01T07:57:48Z</time>
      </trkpt>
      <trkpt lat="50.449085980653763" lon="5.958864027634263">
        <ele>442.33999999999997</ele>
        <time>2018-07-01T07:57:49Z</time>
      </trkpt>
      <trkpt lat="50.449032001197338" lon="5.958919012919068">
        <ele>441.86000000000001</ele>
        <time>2018-07-01T07:57:50Z</time>
      </trkpt>
      <trkpt lat="50.44897198677063" lon="5.958979027345777">
        <ele>441.38</ele>
        <time>2018-07-01T07:57:51Z</time>
      </trkpt>
      <trkpt lat="50.448276959359646" lon="5.959754018113017">
        <ele>440.42000000000002</ele>
        <time>2018-07-01T07:58:01Z</time>
      </trkpt>
      <trkpt lat="50.447829030454159" lon="5.960393976420164">
        <ele>437.54000000000002</ele>
        <time>2018-07-01T07:58:11Z</time>
      </trkpt>
      <trkpt lat="50.447801034897566" lon="5.960436975583434">
        <ele>437.54000000000002</ele>
        <time>2018-07-01T07:58:12Z</time>
      </trkpt>
      <trkpt lat="50.447655022144318" lon="5.960658006370068">
        <ele>435.61000000000001</ele>
        <time>2018-07-01T07:58:18Z</time>
      </trkpt>
      <trkpt lat="50.447640018537641" lon="5.960679966956377">
        <ele>435.61000000000001</ele>
        <time>2018-07-01T07:58:19Z</time>
      </trkpt>
      <trkpt lat="50.447629038244486" lon="5.960696982219815">
        <ele>435.13</ele>
        <time>2018-07-01T07:58:20Z</time>
      </trkpt>
      <trkpt lat="50.447629038244486" lon="5.960696982219815">
        <ele>435.13</ele>
        <time>2018-07-01T07:58:34Z</time>
      </trkpt>
      <trkpt lat="50.447629038244486" lon="5.960696982219815">
        <ele>435.13</ele>
        <time>2018-07-01T07:58:42Z</time>
      </trkpt>
      <trkpt lat="50.447472967207432" lon="5.960413003340364">
        <ele>457.72000000000003</ele>
        <time>2018-07-01T08:00:09Z</time>
      </trkpt>
      <trkpt lat="50.447543039917946" lon="5.960668986663222">
        <ele>449.06999999999999</ele>
        <time>2018-07-01T08:00:44Z</time>
      </trkpt>
      <trkpt lat="50.447558965533972" lon="5.960707040503621">
        <ele>445.70999999999998</ele>
        <time>2018-07-01T08:01:01Z</time>
      </trkpt>
      <trkpt lat="50.447615962475538" lon="5.960718020796776">
        <ele>445.70999999999998</ele>
        <time>2018-07-01T08:01:03Z</time>
      </trkpt>
      <trkpt lat="50.447641024366021" lon="5.960678039118648">
        <ele>445.70999999999998</ele>
        <time>2018-07-01T08:01:04Z</time>
      </trkpt>
      <trkpt lat="50.448061963543296" lon="5.96004000864923">
        <ele>443.31</ele>
        <time>2018-07-01T08:01:13Z</time>
      </trkpt>
      <trkpt lat="50.448560016229749" lon="5.959411030635238">
        <ele>444.75</ele>
        <time>2018-07-01T08:01:22Z</time>
      </trkpt>
      <trkpt lat="50.449134008958936" lon="5.958817005157471">
        <ele>447.63</ele>
        <time>2018-07-01T08:01:33Z</time>
      </trkpt>
      <trkpt lat="50.449178013950586" lon="5.958780962973833">
        <ele>447.63</ele>
        <time>2018-07-01T08:01:34Z</time>
      </trkpt>
      <trkpt lat="50.449264012277126" lon="5.958740981295705">
        <ele>447.63</ele>
        <time>2018-07-01T08:01:35Z</time>
      </trkpt>
      <trkpt lat="50.449390998110175" lon="5.95879496075213">
        <ele>448.58999999999997</ele>
        <time>2018-07-01T08:01:37Z</time>
      </trkpt>
      <trkpt lat="50.4494449775666" lon="5.958731006830931">
        <ele>448.58999999999997</ele>
        <time>2018-07-01T08:01:38Z</time>
      </trkpt>
      <trkpt lat="50.449498035013676" lon="5.9586669690907">
        <ele>449.06999999999999</ele>
        <time>2018-07-01T08:01:39Z</time>
      </trkpt>
      <trkpt lat="50.449498035013676" lon="5.9586669690907">
        <ele>449.55000000000001</ele>
        <time>2018-07-01T08:01:40Z</time>
      </trkpt>
      <trkpt lat="50.449590990319848" lon="5.958416014909744">
        <ele>450.02999999999997</ele>
        <time>2018-07-01T08:01:41Z</time>
      </trkpt>
      <trkpt lat="50.449670031666756" lon="5.95836597494781">
        <ele>450.51999999999998</ele>
        <time>2018-07-01T08:01:42Z</time>
      </trkpt>
      <trkpt lat="50.449756029993296" lon="5.958314007148147">
        <ele>451</ele>
        <time>2018-07-01T08:01:43Z</time>
      </trkpt>
      <trkpt lat="50.449846973642707" lon="5.95825701020658">
        <ele>451.48000000000002</ele>
        <time>2018-07-01T08:01:44Z</time>
      </trkpt>
      <trkpt lat="50.449944958090782" lon="5.958196995779872">
        <ele>451.95999999999998</ele>
        <time>2018-07-01T08:01:45Z</time>
      </trkpt>
      <trkpt lat="50.45004797168076" lon="5.958133963868022">
        <ele>451.95999999999998</ele>
        <time>2018-07-01T08:01:46Z</time>
      </trkpt>
      <trkpt lat="50.451243985444307" lon="5.95763398334384">
        <ele>459.17000000000002</ele>
        <time>2018-07-01T08:01:57Z</time>
      </trkpt>
      <trkpt lat="50.452266996726394" lon="5.95731102861464">
        <ele>462.52999999999997</ele>
        <time>2018-07-01T08:02:07Z</time>
      </trkpt>
      <trkpt lat="50.452649965882301" lon="5.957169961184263">
        <ele>466.38</ele>
        <time>2018-07-01T08:02:11Z</time>
      </trkpt>
      <trkpt lat="50.452749039977789" lon="5.957134002819657">
        <ele>467.33999999999997</ele>
        <time>2018-07-01T08:02:12Z</time>
      </trkpt>
      <trkpt lat="50.452826991677284" lon="5.957072982564569">
        <ele>467.81999999999999</ele>
        <time>2018-07-01T08:02:13Z</time>
      </trkpt>
      <trkpt lat="50.452913995832205" lon="5.956980027258396">
        <ele>468.77999999999997</ele>
        <time>2018-07-01T08:02:14Z</time>
      </trkpt>
      <trkpt lat="50.453003011643887" lon="5.956884976476431">
        <ele>469.74000000000001</ele>
        <time>2018-07-01T08:02:15Z</time>
      </trkpt>
      <trkpt lat="50.453082975000143" lon="5.95679797232151">
        <ele>470.22000000000003</ele>
        <time>2018-07-01T08:02:16Z</time>
      </trkpt>
      <trkpt lat="50.453149024397135" lon="5.95666503533721">
        <ele>470.69999999999999</ele>
        <time>2018-07-01T08:02:17Z</time>
      </trkpt>
      <trkpt lat="50.453215995803475" lon="5.956531008705497">
        <ele>471.18000000000001</ele>
        <time>2018-07-01T08:02:18Z</time>
      </trkpt>
      <trkpt lat="50.453282967209816" lon="5.956397987902165">
        <ele>471.66000000000003</ele>
        <time>2018-07-01T08:02:19Z</time>
      </trkpt>
      <trkpt lat="50.453348010778427" lon="5.956266978755593">
        <ele>472.13999999999999</ele>
        <time>2018-07-01T08:02:20Z</time>
      </trkpt>
      <trkpt lat="50.453884033486247" lon="5.954804001376033">
        <ele>476.47000000000003</ele>
        <time>2018-07-01T08:02:30Z</time>
      </trkpt>
      <trkpt lat="50.453920997679234" lon="5.954634016379714">
        <ele>476.94999999999999</ele>
        <time>2018-07-01T08:02:31Z</time>
      </trkpt>
      <trkpt lat="50.453997021540999" lon="5.954283988103271">
        <ele>477.91000000000003</ele>
        <time>2018-07-01T08:02:33Z</time>
      </trkpt>
      <trkpt lat="50.454164994880557" lon="5.952941961586475">
        <ele>484.16000000000003</ele>
        <time>2018-07-01T08:02:42Z</time>
      </trkpt>
      <trkpt lat="50.454224003478885" lon="5.952500989660621">
        <ele>486.07999999999998</ele>
        <time>2018-07-01T08:02:46Z</time>
      </trkpt>
      <trkpt lat="50.454234983772039" lon="5.952417002990842">
        <ele>486.07999999999998</ele>
        <time>2018-07-01T08:02:47Z</time>
      </trkpt>
      <trkpt lat="50.454303966835141" lon="5.95236998051405">
        <ele>486.56</ele>
        <time>2018-07-01T08:02:48Z</time>
      </trkpt>
      <trkpt lat="50.454370016232133" lon="5.952360006049275">
        <ele>486.56</ele>
        <time>2018-07-01T08:02:49Z</time>
      </trkpt>
      <trkpt lat="50.454436987638474" lon="5.952350031584501">
        <ele>487.05000000000001</ele>
        <time>2018-07-01T08:02:50Z</time>
      </trkpt>
      <trkpt lat="50.454518962651491" lon="5.952337039634585">
        <ele>487.05000000000001</ele>
        <time>2018-07-01T08:02:51Z</time>
      </trkpt>
      <trkpt lat="50.454599009826779" lon="5.952341984957457">
        <ele>487.05000000000001</ele>
        <time>2018-07-01T08:02:52Z</time>
      </trkpt>
      <trkpt lat="50.455587990581989" lon="5.952386995777488">
        <ele>485.12</ele>
        <time>2018-07-01T08:03:02Z</time>
      </trkpt>
      <trkpt lat="50.457026995718479" lon="5.952500989660621">
        <ele>487.05000000000001</ele>
        <time>2018-07-01T08:03:15Z</time>
      </trkpt>
      <trkpt lat="50.457811038941145" lon="5.952554969117045">
        <ele>485.60000000000002</ele>
        <time>2018-07-01T08:03:23Z</time>
      </trkpt>
      <trkpt lat="50.459120962768793" lon="5.952644990757108">
        <ele>483.68000000000001</ele>
        <time>2018-07-01T08:03:34Z</time>
      </trkpt>
      <trkpt lat="50.459201009944081" lon="5.952651025727391">
        <ele>483.68000000000001</ele>
        <time>2018-07-01T08:03:35Z</time>
      </trkpt>
      <trkpt lat="50.460098963230848" lon="5.95271497964859">
        <ele>481.27999999999997</ele>
        <time>2018-07-01T08:03:46Z</time>
      </trkpt>
      <trkpt lat="50.461361026391387" lon="5.952668963000178">
        <ele>481.75999999999999</ele>
        <time>2018-07-01T08:03:58Z</time>
      </trkpt>
      <trkpt lat="50.462051024660468" lon="5.952620012685657">
        <ele>483.19999999999999</ele>
        <time>2018-07-01T08:04:05Z</time>
      </trkpt>
      <trkpt lat="50.462130988016725" lon="5.952652031555772">
        <ele>483.68000000000001</ele>
        <time>2018-07-01T08:04:06Z</time>
      </trkpt>
      <trkpt lat="50.46289499849081" lon="5.953176990151405">
        <ele>489.44999999999999</ele>
        <time>2018-07-01T08:04:14Z</time>
      </trkpt>
      <trkpt lat="50.464207017794251" lon="5.954172005876899">
        <ele>497.13999999999999</ele>
        <time>2018-07-01T08:04:24Z</time>
      </trkpt>
      <trkpt lat="50.465700002387166" lon="5.955298030748963">
        <ele>505.79000000000002</ele>
        <time>2018-07-01T08:04:34Z</time>
      </trkpt>
      <trkpt lat="50.467063989490271" lon="5.956351971253753">
        <ele>510.60000000000002</ele>
        <time>2018-07-01T08:04:42Z</time>
      </trkpt>
      <trkpt lat="50.468732994049788" lon="5.957648986950517">
        <ele>516.37</ele>
        <time>2018-07-01T08:04:51Z</time>
      </trkpt>
      <trkpt lat="50.471190987154841" lon="5.959513960406184">
        <ele>524.53999999999996</ele>
        <time>2018-07-01T08:05:04Z</time>
      </trkpt>
      <trkpt lat="50.473455023020506" lon="5.961226969957352">
        <ele>535.11000000000001</ele>
        <time>2018-07-01T08:05:16Z</time>
      </trkpt>
      <trkpt lat="50.475309016183019" lon="5.962635967880487">
        <ele>546.64999999999998</ele>
        <time>2018-07-01T08:05:26Z</time>
      </trkpt>
      <trkpt lat="50.476144021376967" lon="5.963269975036383">
        <ele>550.97000000000003</ele>
        <time>2018-07-01T08:05:32Z</time>
      </trkpt>
      <trkpt lat="50.477007022127509" lon="5.963902976363897">
        <ele>555.29999999999995</ele>
        <time>2018-07-01T08:05:39Z</time>
      </trkpt>
      <trkpt lat="50.477812020108104" lon="5.964517034590244">
        <ele>558.17999999999995</ele>
        <time>2018-07-01T08:05:46Z</time>
      </trkpt>
      <trkpt lat="50.477927019819617" lon="5.964588029310107">
        <ele>558.17999999999995</ele>
        <time>2018-07-01T08:05:47Z</time>
      </trkpt>
      <trkpt lat="50.478692958131433" lon="5.965163027867675">
        <ele>558.65999999999997</ele>
        <time>2018-07-01T08:05:54Z</time>
      </trkpt>
      <trkpt lat="50.478782979771495" lon="5.965250032022595">
        <ele>558.65999999999997</ele>
        <time>2018-07-01T08:05:55Z</time>
      </trkpt>
      <trkpt lat="50.478849029168487" lon="5.965370982885361">
        <ele>558.17999999999995</ele>
        <time>2018-07-01T08:05:56Z</time>
      </trkpt>
      <trkpt lat="50.478912983089685" lon="5.965524958446622">
        <ele>557.70000000000005</ele>
        <time>2018-07-01T08:05:58Z</time>
      </trkpt>
      <trkpt lat="50.478977020829916" lon="5.96588596701622">
        <ele>556.74000000000001</ele>
        <time>2018-07-01T08:05:59Z</time>
      </trkpt>
      <trkpt lat="50.478966040536761" lon="5.966093000024557">
        <ele>556.25999999999999</ele>
        <time>2018-07-01T08:06:00Z</time>
      </trkpt>
      <trkpt lat="50.478934021666646" lon="5.966296009719372">
        <ele>555.77999999999997</ele>
        <time>2018-07-01T08:06:01Z</time>
      </trkpt>
      <trkpt lat="50.478873001411557" lon="5.966480998322368">
        <ele>555.29999999999995</ele>
        <time>2018-07-01T08:06:02Z</time>
      </trkpt>
      <trkpt lat="50.478777028620243" lon="5.966629022732377">
        <ele>554.34000000000003</ele>
        <time>2018-07-01T08:06:03Z</time>
      </trkpt>
      <trkpt lat="50.47866202890873" lon="5.966761959716678">
        <ele>553.86000000000001</ele>
        <time>2018-07-01T08:06:04Z</time>
      </trkpt>
      <trkpt lat="50.478537976741791" lon="5.966876959428191">
        <ele>553.38</ele>
        <time>2018-07-01T08:06:05Z</time>
      </trkpt>
      <trkpt lat="50.478389030322433" lon="5.966925993561745">
        <ele>552.40999999999997</ele>
        <time>2018-07-01T08:06:06Z</time>
      </trkpt>
      <trkpt lat="50.478236982598901" lon="5.966901015490294">
        <ele>551.45000000000005</ele>
        <time>2018-07-01T08:06:07Z</time>
      </trkpt>
      <trkpt lat="50.478091975674033" lon="5.966833038255572">
        <ele>550.49000000000001</ele>
        <time>2018-07-01T08:06:08Z</time>
      </trkpt>
      <trkpt lat="50.477965995669365" lon="5.966705968603492">
        <ele>549.52999999999997</ele>
        <time>2018-07-01T08:06:09Z</time>
      </trkpt>
      <trkpt lat="50.477840015664697" lon="5.966580994427204">
        <ele>549.04999999999995</ele>
        <time>2018-07-01T08:06:10Z</time>
      </trkpt>
      <trkpt lat="50.477772960439324" lon="5.966367004439235">
        <ele>548.09000000000003</ele>
        <time>2018-07-01T08:06:11Z</time>
      </trkpt>
      <trkpt lat="50.4777189809829" lon="5.966151002794504">
        <ele>547.13</ele>
        <time>2018-07-01T08:06:12Z</time>
      </trkpt>
      <trkpt lat="50.477704983204603" lon="5.965937012806535">
        <ele>547.13</ele>
        <time>2018-07-01T08:06:13Z</time>
      </trkpt>
      <trkpt lat="50.477729039266706" lon="5.965708019211888">
        <ele>547.13</ele>
        <time>2018-07-01T08:06:14Z</time>
      </trkpt>
      <trkpt lat="50.477753011509776" lon="5.965473996475339">
        <ele>547.13</ele>
        <time>2018-07-01T08:06:15Z</time>
      </trkpt>
      <trkpt lat="50.477777989581227" lon="5.965242991223931">
        <ele>547.13</ele>
        <time>2018-07-01T08:06:16Z</time>
      </trkpt>
      <trkpt lat="50.477807996794581" lon="5.964994970709086">
        <ele>547.13</ele>
        <time>2018-07-01T08:06:17Z</time>
      </trkpt>
      <trkpt lat="50.47834200784564" lon="5.963426968082786">
        <ele>548.57000000000005</ele>
        <time>2018-07-01T08:06:23Z</time>
      </trkpt>
      <trkpt lat="50.479494016617537" lon="5.960602015256882">
        <ele>548.57000000000005</ele>
        <time>2018-07-01T08:06:32Z</time>
      </trkpt>
      <trkpt lat="50.480831013992429" lon="5.958050983026624">
        <ele>544.24000000000001</ele>
        <time>2018-07-01T08:06:41Z</time>
      </trkpt>
      <trkpt lat="50.48197103664279" lon="5.956232026219368">
        <ele>537.99000000000001</ele>
        <time>2018-07-01T08:06:50Z</time>
      </trkpt>
      <trkpt lat="50.483662001788616" lon="5.954108973965049">
        <ele>527.41999999999996</ele>
        <time>2018-07-01T08:07:01Z</time>
      </trkpt>
      <trkpt lat="50.485558994114399" lon="5.952278031036258">
        <ele>513.96000000000004</ele>
        <time>2018-07-01T08:07:10Z</time>
      </trkpt>
      <trkpt lat="50.487655978649855" lon="5.950753027573228">
        <ele>499.54000000000002</ele>
        <time>2018-07-01T08:07:19Z</time>
      </trkpt>
      <trkpt lat="50.489827981218696" lon="5.94968500547111">
        <ele>485.60000000000002</ele>
        <time>2018-07-01T08:07:28Z</time>
      </trkpt>
      <trkpt lat="50.491799991577864" lon="5.949092991650105">
        <ele>474.55000000000001</ele>
        <time>2018-07-01T08:07:36Z</time>
      </trkpt>
      <trkpt lat="50.494187995791435" lon="5.948813036084175">
        <ele>459.64999999999998</ele>
        <time>2018-07-01T08:07:44Z</time>
      </trkpt>
      <trkpt lat="50.496899038553238" lon="5.948594016954303">
        <ele>441.86000000000001</ele>
        <time>2018-07-01T08:07:54Z</time>
      </trkpt>
      <trkpt lat="50.49984997138381" lon="5.948354965075851">
        <ele>426.48000000000002</ele>
        <time>2018-07-01T08:08:05Z</time>
      </trkpt>
      <trkpt lat="50.501994984224439" lon="5.948189003393054">
        <ele>417.35000000000002</ele>
        <time>2018-07-01T08:08:13Z</time>
      </trkpt>
      <trkpt lat="50.50474600866437" lon="5.947991022840142">
        <ele>404.85000000000002</ele>
        <time>2018-07-01T08:08:24Z</time>
      </trkpt>
      <trkpt lat="50.507411034777761" lon="5.947773009538651">
        <ele>393.80000000000001</ele>
        <time>2018-07-01T08:08:35Z</time>
      </trkpt>
      <trkpt lat="50.510861026123166" lon="5.947490036487579">
        <ele>384.66000000000003</ele>
        <time>2018-07-01T08:08:49Z</time>
      </trkpt>
      <trkpt lat="50.513406023383141" lon="5.947131039574742">
        <ele>377.94</ele>
        <time>2018-07-01T08:08:59Z</time>
      </trkpt>
      <trkpt lat="50.51561800763011" lon="5.946220010519028">
        <ele>369.75999999999999</ele>
        <time>2018-07-01T08:09:07Z</time>
      </trkpt>
      <trkpt lat="50.517790010198951" lon="5.944675980135799">
        <ele>364</ele>
        <time>2018-07-01T08:09:15Z</time>
      </trkpt>
      <trkpt lat="50.520038036629558" lon="5.942147998139262">
        <ele>355.82999999999998</ele>
        <time>2018-07-01T08:09:24Z</time>
      </trkpt>
      <trkpt lat="50.521705029532313" lon="5.939381970092654">
        <ele>350.06</ele>
        <time>2018-07-01T08:09:32Z</time>
      </trkpt>
      <trkpt lat="50.523104975000024" lon="5.93595796264708">
        <ele>344.29000000000002</ele>
        <time>2018-07-01T08:09:41Z</time>
      </trkpt>
      <trkpt lat="50.524688987061381" lon="5.930786998942494">
        <ele>338.51999999999998</ele>
        <time>2018-07-01T08:09:54Z</time>
      </trkpt>
      <trkpt lat="50.526524037122726" lon="5.92460903339088">
        <ele>344.29000000000002</ele>
        <time>2018-07-01T08:10:10Z</time>
      </trkpt>
      <trkpt lat="50.527686020359397" lon="5.920526962727308">
        <ele>348.62</ele>
        <time>2018-07-01T08:10:21Z</time>
      </trkpt>
      <trkpt lat="50.528135038912296" lon="5.918646985664964">
        <ele>350.54000000000002</ele>
        <time>2018-07-01T08:10:28Z</time>
      </trkpt>
      <trkpt lat="50.528293959796429" lon="5.917841987684369">
        <ele>351.5</ele>
        <time>2018-07-01T08:10:32Z</time>
      </trkpt>
      <trkpt lat="50.528521025553346" lon="5.917813992127776">
        <ele>351.98000000000002</ele>
        <time>2018-07-01T08:10:33Z</time>
      </trkpt>
      <trkpt lat="50.528615992516279" lon="5.917675020173192">
        <ele>351.98000000000002</ele>
        <time>2018-07-01T08:10:34Z</time>
      </trkpt>
      <trkpt lat="50.528705008327961" lon="5.917548034340143">
        <ele>352.45999999999998</ele>
        <time>2018-07-01T08:10:35Z</time>
      </trkpt>
      <trkpt lat="50.528826965019107" lon="5.917447032406926">
        <ele>352.45999999999998</ele>
        <time>2018-07-01T08:10:36Z</time>
      </trkpt>
      <trkpt lat="50.528952023014426" lon="5.917421970516443">
        <ele>352.94</ele>
        <time>2018-07-01T08:10:37Z</time>
      </trkpt>
      <trkpt lat="50.529094012454152" lon="5.91739296913147">
        <ele>353.42000000000002</ele>
        <time>2018-07-01T08:10:38Z</time>
      </trkpt>
      <trkpt lat="50.529234996065497" lon="5.91741300188005">
        <ele>353.42000000000002</ele>
        <time>2018-07-01T08:10:39Z</time>
      </trkpt>
      <trkpt lat="50.529386037960649" lon="5.917466981336474">
        <ele>353.89999999999998</ele>
        <time>2018-07-01T08:10:40Z</time>
      </trkpt>
      <trkpt lat="50.529524004086852" lon="5.917568989098072">
        <ele>353.89999999999998</ele>
        <time>2018-07-01T08:10:41Z</time>
      </trkpt>
      <trkpt lat="50.529653001576662" lon="5.917707039043307">
        <ele>353.89999999999998</ele>
        <time>2018-07-01T08:10:42Z</time>
      </trkpt>
      <trkpt lat="50.529769007116556" lon="5.91786696575582">
        <ele>354.38</ele>
        <time>2018-07-01T08:10:43Z</time>
      </trkpt>
      <trkpt lat="50.529843019321561" lon="5.91807802207768">
        <ele>354.38</ele>
        <time>2018-07-01T08:10:44Z</time>
      </trkpt>
      <trkpt lat="50.529921976849437" lon="5.918305004015565">
        <ele>354.38</ele>
        <time>2018-07-01T08:10:45Z</time>
      </trkpt>
      <trkpt lat="50.529941003769636" lon="5.918532991781831">
        <ele>354.38</ele>
        <time>2018-07-01T08:10:46Z</time>
      </trkpt>
      <trkpt lat="50.529961036518216" lon="5.918771959841251">
        <ele>354.86000000000001</ele>
        <time>2018-07-01T08:10:47Z</time>
      </trkpt>
      <trkpt lat="50.529930023476481" lon="5.919007994234562">
        <ele>355.33999999999997</ele>
        <time>2018-07-01T08:10:48Z</time>
      </trkpt>
      <trkpt lat="50.529887024313211" lon="5.91923899948597">
        <ele>355.33999999999997</ele>
        <time>2018-07-01T08:10:49Z</time>
      </trkpt>
      <trkpt lat="50.529824998229742" lon="5.919460030272603">
        <ele>355.33999999999997</ele>
        <time>2018-07-01T08:10:50Z</time>
      </trkpt>
      <trkpt lat="50.529725002124906" lon="5.919648036360741">
        <ele>355.82999999999998</ele>
        <time>2018-07-01T08:10:51Z</time>
      </trkpt>
      <trkpt lat="50.529601033776999" lon="5.919806035235524">
        <ele>356.31</ele>
        <time>2018-07-01T08:10:52Z</time>
      </trkpt>
      <trkpt lat="50.529471030458808" lon="5.919936038553715">
        <ele>356.79000000000002</ele>
        <time>2018-07-01T08:10:53Z</time>
      </trkpt>
      <trkpt lat="50.52930498495698" lon="5.920008039101958">
        <ele>357.26999999999998</ele>
        <time>2018-07-01T08:10:54Z</time>
      </trkpt>
      <trkpt lat="50.529127959161997" lon="5.920085990801454">
        <ele>357.26999999999998</ele>
        <time>2018-07-01T08:10:55Z</time>
      </trkpt>
      <trkpt lat="50.528964009135962" lon="5.920091019943357">
        <ele>357.26999999999998</ele>
        <time>2018-07-01T08:10:56Z</time>
      </trkpt>
      <trkpt lat="50.528786983340979" lon="5.920096971094608">
        <ele>357.26999999999998</ele>
        <time>2018-07-01T08:10:57Z</time>
      </trkpt>
      <trkpt lat="50.526588996872306" lon="5.920197973027825">
        <ele>359.19</ele>
        <time>2018-07-01T08:11:08Z</time>
      </trkpt>
      <trkpt lat="50.523765971884131" lon="5.920198978856206">
        <ele>357.26999999999998</ele>
        <time>2018-07-01T08:11:21Z</time>
      </trkpt>
      <trkpt lat="50.522226970642805" lon="5.919531024992466">
        <ele>357.75</ele>
        <time>2018-07-01T08:11:28Z</time>
      </trkpt>
      <trkpt lat="50.520935989916325" lon="5.918210037052631">
        <ele>363.04000000000002</ele>
        <time>2018-07-01T08:11:35Z</time>
      </trkpt>
      <trkpt lat="50.519805019721389" lon="5.916470037773252">
        <ele>370.24000000000001</ele>
        <time>2018-07-01T08:11:43Z</time>
      </trkpt>
      <trkpt lat="50.518974037840962" lon="5.91511401347816">
        <ele>376.00999999999999</ele>
        <time>2018-07-01T08:11:51Z</time>
      </trkpt>
      <trkpt lat="50.51882098428905" lon="5.914864987134934">
        <ele>376.97000000000003</ele>
        <time>2018-07-01T08:11:54Z</time>
      </trkpt>
      <trkpt lat="50.518828025087714" lon="5.914678992703557">
        <ele>377.44999999999999</ele>
        <time>2018-07-01T08:11:55Z</time>
      </trkpt>
      <trkpt lat="50.518799023702741" lon="5.914589976891875">
        <ele>377.94</ele>
        <time>2018-07-01T08:11:57Z</time>
      </trkpt>
      <trkpt lat="50.518764993175864" lon="5.914509007707238">
        <ele>377.94</ele>
        <time>2018-07-01T08:11:58Z</time>
      </trkpt>
      <trkpt lat="50.518728028982878" lon="5.914434995502234">
        <ele>378.42000000000002</ele>
        <time>2018-07-01T08:11:59Z</time>
      </trkpt>
      <trkpt lat="50.518638007342815" lon="5.914438012987375">
        <ele>378.89999999999998</ele>
        <time>2018-07-01T08:12:00Z</time>
      </trkpt>
      <trkpt lat="50.518584027886391" lon="5.914484029635787">
        <ele>378.89999999999998</ele>
        <time>2018-07-01T08:12:01Z</time>
      </trkpt>
      <trkpt lat="50.518532982096076" lon="5.91455502435565">
        <ele>378.89999999999998</ele>
        <time>2018-07-01T08:12:02Z</time>
      </trkpt>
      <trkpt lat="50.518505992367864" lon="5.914592994377017">
        <ele>378.89999999999998</ele>
        <time>2018-07-01T08:12:03Z</time>
      </trkpt>
      <trkpt lat="50.518525019288063" lon="5.914707994088531">
        <ele>378.42000000000002</ele>
        <time>2018-07-01T08:12:04Z</time>
      </trkpt>
      <trkpt lat="50.51847598515451" lon="5.914937993511558">
        <ele>377.94</ele>
        <time>2018-07-01T08:12:05Z</time>
      </trkpt>
      <trkpt lat="50.518423011526465" lon="5.915001025423408">
        <ele>377.44999999999999</ele>
        <time>2018-07-01T08:12:06Z</time>
      </trkpt>
      <trkpt lat="50.518316980451345" lon="5.915129017084837">
        <ele>376.49000000000001</ele>
        <time>2018-07-01T08:12:08Z</time>
      </trkpt>
      <trkpt lat="50.517927976325154" lon="5.915668979287148">
        <ele>372.17000000000002</ele>
        <time>2018-07-01T08:12:15Z</time>
      </trkpt>
      <trkpt lat="50.517889000475407" lon="5.915750032290816">
        <ele>371.69</ele>
        <time>2018-07-01T08:12:16Z</time>
      </trkpt>
      <trkpt lat="50.517852958291769" lon="5.915823960676789">
        <ele>371.20999999999998</ele>
        <time>2018-07-01T08:12:17Z</time>
      </trkpt>
      <trkpt lat="50.517823034897447" lon="5.915886992588639">
        <ele>371.20999999999998</ele>
        <time>2018-07-01T08:12:18Z</time>
      </trkpt>
      <trkpt lat="50.517805013805628" lon="5.915924040600658">
        <ele>370.73000000000002</ele>
        <time>2018-07-01T08:12:19Z</time>
      </trkpt>
      <trkpt lat="50.517867961898446" lon="5.91601699590683">
        <ele>369.75999999999999</ele>
        <time>2018-07-01T08:12:21Z</time>
      </trkpt>
      <trkpt lat="50.517887994647026" lon="5.916000986471772">
        <ele>369.27999999999997</ele>
        <time>2018-07-01T08:12:22Z</time>
      </trkpt>
      <trkpt lat="50.517912972718477" lon="5.915981037542224">
        <ele>368.80000000000001</ele>
        <time>2018-07-01T08:12:23Z</time>
      </trkpt>
      <trkpt lat="50.517943985760212" lon="5.915956981480122">
        <ele>368.80000000000001</ele>
        <time>2018-07-01T08:12:24Z</time>
      </trkpt>
      <trkpt lat="50.517976004630327" lon="5.91593099758029">
        <ele>368.31999999999999</ele>
        <time>2018-07-01T08:12:25Z</time>
      </trkpt>
      <trkpt lat="50.517996959388256" lon="5.915913982316852">
        <ele>367.83999999999997</ele>
        <time>2018-07-01T08:12:26Z</time>
      </trkpt>
      <trkpt lat="50.517996959388256" lon="5.915913982316852">
        <ele>367.83999999999997</ele>
        <time>2018-07-01T08:12:27Z</time>
      </trkpt>
      <trkpt lat="50.517996959388256" lon="5.915913982316852">
        <ele>366.39999999999998</ele>
        <time>2018-07-01T08:12:45Z</time>
      </trkpt>
      <trkpt lat="50.517996959388256" lon="5.915913982316852">
        <ele>365.92000000000002</ele>
        <time>2018-07-01T08:13:30Z</time>
      </trkpt>
      <trkpt lat="50.517996959388256" lon="5.915913982316852">
        <ele>365.92000000000002</ele>
        <time>2018-07-01T08:14:24Z</time>
      </trkpt>
      <trkpt lat="50.517996959388256" lon="5.915913982316852">
        <ele>365.92000000000002</ele>
        <time>2018-07-01T08:15:26Z</time>
      </trkpt>
      <trkpt lat="50.517996959388256" lon="5.915913982316852">
        <ele>365.92000000000002</ele>
        <time>2018-07-01T08:16:20Z</time>
      </trkpt>
      <trkpt lat="50.517996959388256" lon="5.915913982316852">
        <ele>366.39999999999998</ele>
        <time>2018-07-01T08:17:20Z</time>
      </trkpt>
      <trkpt lat="50.517996959388256" lon="5.915913982316852">
        <ele>366.88</ele>
        <time>2018-07-01T08:18:21Z</time>
      </trkpt>
      <trkpt lat="50.517996959388256" lon="5.915913982316852">
        <ele>366.88</ele>
        <time>2018-07-01T08:19:25Z</time>
      </trkpt>
    </trkseg>
  </trk>

  <trk>
    <name>Track vom: 2018-07-01 10:29</name>
    <extensions>
      <gpxx:TrackExtension>
        <gpxx:DisplayColor>DarkGray</gpxx:DisplayColor>
      </gpxx:TrackExtension>
    </extensions>
    <trkseg>
      <trkpt lat="50.518209021538496" lon="5.915809962898493">
        <ele>356.31</ele>
        <time>2018-07-01T08:29:09Z</time>
      </trkpt>
      <trkpt lat="50.518233999609947" lon="5.915720025077462">
        <ele>364.95999999999998</ele>
        <time>2018-07-01T08:29:33Z</time>
      </trkpt>
      <trkpt lat="50.518216984346509" lon="5.915702003985643">
        <ele>357.26999999999998</ele>
        <time>2018-07-01T08:30:14Z</time>
      </trkpt>
      <trkpt lat="50.51826199516654" lon="5.915753971785307">
        <ele>359.67000000000002</ele>
        <time>2018-07-01T08:31:01Z</time>
      </trkpt>
      <trkpt lat="50.518267024308443" lon="5.915746008977294">
        <ele>359.67000000000002</ele>
        <time>2018-07-01T08:31:47Z</time>
      </trkpt>
      <trkpt lat="50.518266018480062" lon="5.91573896817863">
        <ele>359.67000000000002</ele>
        <time>2018-07-01T08:32:21Z</time>
      </trkpt>
      <trkpt lat="50.518266018480062" lon="5.915741985663772">
        <ele>359.67000000000002</ele>
        <time>2018-07-01T08:32:59Z</time>
      </trkpt>
      <trkpt lat="50.518266018480062" lon="5.915741985663772">
        <ele>359.67000000000002</ele>
        <time>2018-07-01T08:33:31Z</time>
      </trkpt>
      <trkpt lat="50.518241040408611" lon="5.915685994550586">
        <ele>362.55000000000001</ele>
        <time>2018-07-01T08:33:53Z</time>
      </trkpt>
      <trkpt lat="50.517968041822314" lon="5.915937032550573">
        <ele>367.83999999999997</ele>
        <time>2018-07-01T08:34:00Z</time>
      </trkpt>
      <trkpt lat="50.517836026847363" lon="5.916010960936546">
        <ele>369.27999999999997</ele>
        <time>2018-07-01T08:34:08Z</time>
      </trkpt>
      <trkpt lat="50.517836026847363" lon="5.916010960936546">
        <ele>369.27999999999997</ele>
        <time>2018-07-01T08:34:12Z</time>
      </trkpt>
      <trkpt lat="50.517803002148867" lon="5.915926974266768">
        <ele>370.24000000000001</ele>
        <time>2018-07-01T08:34:14Z</time>
      </trkpt>
      <trkpt lat="50.517823034897447" lon="5.915885986760259">
        <ele>370.73000000000002</ele>
        <time>2018-07-01T08:34:15Z</time>
      </trkpt>
      <trkpt lat="50.51785203628242" lon="5.91582496650517">
        <ele>370.24000000000001</ele>
        <time>2018-07-01T08:34:16Z</time>
      </trkpt>
      <trkpt lat="50.517889000475407" lon="5.915750032290816">
        <ele>370.24000000000001</ele>
        <time>2018-07-01T08:34:17Z</time>
      </trkpt>
      <trkpt lat="50.517928982153535" lon="5.915666967630386">
        <ele>370.24000000000001</ele>
        <time>2018-07-01T08:34:18Z</time>
      </trkpt>
      <trkpt lat="50.517969969660044" lon="5.915582980960608">
        <ele>370.73000000000002</ele>
        <time>2018-07-01T08:34:20Z</time>
      </trkpt>
      <trkpt lat="50.518012968823314" lon="5.915493965148926">
        <ele>371.20999999999998</ele>
        <time>2018-07-01T08:34:22Z</time>
      </trkpt>
      <trkpt lat="50.518001988530159" lon="5.915432022884488">
        <ele>371.20999999999998</ele>
        <time>2018-07-01T08:34:23Z</time>
      </trkpt>
      <trkpt lat="50.517979022115469" lon="5.915304031223059">
        <ele>371.20999999999998</ele>
        <time>2018-07-01T08:34:24Z</time>
      </trkpt>
      <trkpt lat="50.517952032387257" lon="5.915147960186005">
        <ele>371.69</ele>
        <time>2018-07-01T08:34:26Z</time>
      </trkpt>
      <trkpt lat="50.51793702878058" lon="5.915061039850116">
        <ele>372.17000000000002</ele>
        <time>2018-07-01T08:34:27Z</time>
      </trkpt>
      <trkpt lat="50.517919007688761" lon="5.914959032088518">
        <ele>372.17000000000002</ele>
        <time>2018-07-01T08:34:28Z</time>
      </trkpt>
      <trkpt lat="50.517879026010633" lon="5.914729032665491">
        <ele>372.64999999999998</ele>
        <time>2018-07-01T08:34:30Z</time>
      </trkpt>
      <trkpt lat="50.517856981605291" lon="5.914621995761991">
        <ele>373.13</ele>
        <time>2018-07-01T08:34:31Z</time>
      </trkpt>
      <trkpt lat="50.517814988270402" lon="5.914517976343632">
        <ele>373.13</ele>
        <time>2018-07-01T08:34:32Z</time>
      </trkpt>
      <trkpt lat="50.517777018249035" lon="5.914420997723937">
        <ele>373.61000000000001</ele>
        <time>2018-07-01T08:34:34Z</time>
      </trkpt>
      <trkpt lat="50.517619019374251" lon="5.914309015497565">
        <ele>373.61000000000001</ele>
        <time>2018-07-01T08:34:35Z</time>
      </trkpt>
      <trkpt lat="50.517427995800972" lon="5.914174988865852">
        <ele>373.13</ele>
        <time>2018-07-01T08:34:37Z</time>
      </trkpt>
      <trkpt lat="50.516621991991997" lon="5.913605019450188">
        <ele>370.73000000000002</ele>
        <time>2018-07-01T08:34:44Z</time>
      </trkpt>
      <trkpt lat="50.515262028202415" lon="5.912668006494641">
        <ele>363.04000000000002</ele>
        <time>2018-07-01T08:34:55Z</time>
      </trkpt>
      <trkpt lat="50.515139987692237" lon="5.912584019824863">
        <ele>362.55000000000001</ele>
        <time>2018-07-01T08:34:56Z</time>
      </trkpt>
      <trkpt lat="50.514358039945364" lon="5.911924028769136">
        <ele>357.75</ele>
        <time>2018-07-01T08:35:02Z</time>
      </trkpt>
      <trkpt lat="50.513409962877631" lon="5.911281974986196">
        <ele>353.42000000000002</ele>
        <time>2018-07-01T08:35:09Z</time>
      </trkpt>
      <trkpt lat="50.513303009793162" lon="5.91124702244997">
        <ele>352.45999999999998</ele>
        <time>2018-07-01T08:35:10Z</time>
      </trkpt>
      <trkpt lat="50.513214999809861" lon="5.911219026893377">
        <ele>351.98000000000002</ele>
        <time>2018-07-01T08:35:11Z</time>
      </trkpt>
      <trkpt lat="50.513066975399852" lon="5.911164963617921">
        <ele>350.06</ele>
        <time>2018-07-01T08:35:13Z</time>
      </trkpt>
      <trkpt lat="50.513001009821892" lon="5.911132022738457">
        <ele>349.10000000000002</ele>
        <time>2018-07-01T08:35:14Z</time>
      </trkpt>
      <trkpt lat="50.512937977910042" lon="5.911093968898058">
        <ele>347.64999999999998</ele>
        <time>2018-07-01T08:35:15Z</time>
      </trkpt>
      <trkpt lat="50.512773022055626" lon="5.910978969186544">
        <ele>344.76999999999998</ele>
        <time>2018-07-01T08:35:18Z</time>
      </trkpt>
      <trkpt lat="50.512721976265311" lon="5.910920966416597">
        <ele>343.81</ele>
        <time>2018-07-01T08:35:19Z</time>
      </trkpt>
      <trkpt lat="50.512623991817236" lon="5.910787023603916">
        <ele>341.88999999999999</ele>
        <time>2018-07-01T08:35:21Z</time>
      </trkpt>
      <trkpt lat="50.512566994875669" lon="5.91070999391377">
        <ele>340.92000000000002</ele>
        <time>2018-07-01T08:35:22Z</time>
      </trkpt>
      <trkpt lat="50.512453000992537" lon="5.910529028624296">
        <ele>338.04000000000002</ele>
        <time>2018-07-01T08:35:24Z</time>
      </trkpt>
      <trkpt lat="50.512243034318089" lon="5.910166008397937">
        <ele>334.19999999999999</ele>
        <time>2018-07-01T08:35:27Z</time>
      </trkpt>
      <trkpt lat="50.511531997472048" lon="5.90886396355927">
        <ele>327.47000000000003</ele>
        <time>2018-07-01T08:35:35Z</time>
      </trkpt>
      <trkpt lat="50.511463014408946" lon="5.908724991604686">
        <ele>326.99000000000001</ele>
        <time>2018-07-01T08:35:36Z</time>
      </trkpt>
      <trkpt lat="50.511404005810618" lon="5.908606974408031">
        <ele>326.5</ele>
        <time>2018-07-01T08:35:37Z</time>
      </trkpt>
      <trkpt lat="50.511361006647348" lon="5.90851997025311">
        <ele>326.01999999999998</ele>
        <time>2018-07-01T08:35:38Z</time>
      </trkpt>
      <trkpt lat="50.51134399138391" lon="5.908489963039756">
        <ele>325.54000000000002</ele>
        <time>2018-07-01T08:35:39Z</time>
      </trkpt>
      <trkpt lat="50.511332005262375" lon="5.908465990796685">
        <ele>325.06</ele>
        <time>2018-07-01T08:35:40Z</time>
      </trkpt>
      <trkpt lat="50.51132001914084" lon="5.908445036038756">
        <ele>324.10000000000002</ele>
        <time>2018-07-01T08:35:41Z</time>
      </trkpt>
      <trkpt lat="50.511309038847685" lon="5.908425003290176">
        <ele>323.62</ele>
        <time>2018-07-01T08:35:42Z</time>
      </trkpt>
      <trkpt lat="50.511309038847685" lon="5.908425003290176">
        <ele>322.18000000000001</ele>
        <time>2018-07-01T08:35:51Z</time>
      </trkpt>
      <trkpt lat="50.511309038847685" lon="5.908425003290176">
        <ele>321.69999999999999</ele>
        <time>2018-07-01T08:36:25Z</time>
      </trkpt>
      <trkpt lat="50.511238966137171" lon="5.908294999971986">
        <ele>318.32999999999998</ele>
        <time>2018-07-01T08:36:51Z</time>
      </trkpt>
      <trkpt lat="50.511180041357875" lon="5.908186035230756">
        <ele>317.37</ele>
        <time>2018-07-01T08:36:52Z</time>
      </trkpt>
      <trkpt lat="50.511117009446025" lon="5.908070029690862">
        <ele>316.88999999999999</ele>
        <time>2018-07-01T08:36:53Z</time>
      </trkpt>
      <trkpt lat="50.510372025892138" lon="5.907059004530311">
        <ele>311.60000000000002</ele>
        <time>2018-07-01T08:37:00Z</time>
      </trkpt>
      <trkpt lat="50.509374998509884" lon="5.905729969963431">
        <ele>303.91000000000003</ele>
        <time>2018-07-01T08:37:08Z</time>
      </trkpt>
      <trkpt lat="50.508110001683235" lon="5.904106982052326">
        <ele>300.55000000000001</ele>
        <time>2018-07-01T08:37:17Z</time>
      </trkpt>
      <trkpt lat="50.507640028372407" lon="5.903579005971551">
        <ele>301.50999999999999</ele>
        <time>2018-07-01T08:37:20Z</time>
      </trkpt>
      <trkpt lat="50.50614302046597" lon="5.901991976425052">
        <ele>307.75999999999999</ele>
        <time>2018-07-01T08:37:30Z</time>
      </trkpt>
      <trkpt lat="50.505639016628265" lon="5.901457965373993">
        <ele>309.68000000000001</ele>
        <time>2018-07-01T08:37:35Z</time>
      </trkpt>
      <trkpt lat="50.505441036075354" lon="5.901249004527926">
        <ele>311.12</ele>
        <time>2018-07-01T08:37:38Z</time>
      </trkpt>
      <trkpt lat="50.505421003326774" lon="5.90125503949821">
        <ele>311.12</ele>
        <time>2018-07-01T08:37:39Z</time>
      </trkpt>
      <trkpt lat="50.505373980849981" lon="5.901279011741281">
        <ele>312.08999999999997</ele>
        <time>2018-07-01T08:37:41Z</time>
      </trkpt>
      <trkpt lat="50.505179017782211" lon="5.901381019502878">
        <ele>313.05000000000001</ele>
        <time>2018-07-01T08:37:43Z</time>
      </trkpt>
      <trkpt lat="50.505084972828627" lon="5.9014299698174">
        <ele>313.52999999999997</ele>
        <time>2018-07-01T08:37:44Z</time>
      </trkpt>
      <trkpt lat="50.5049810372293" lon="5.901484033092856">
        <ele>314.00999999999999</ele>
        <time>2018-07-01T08:37:45Z</time>
      </trkpt>
      <trkpt lat="50.504879029467702" lon="5.901529965922236">
        <ele>314.49000000000001</ele>
        <time>2018-07-01T08:37:46Z</time>
      </trkpt>
      <trkpt lat="50.504764029756188" lon="5.901557039469481">
        <ele>314.97000000000003</ele>
        <time>2018-07-01T08:37:47Z</time>
      </trkpt>
      <trkpt lat="50.504622962325811" lon="5.901588974520564">
        <ele>315.93000000000001</ele>
        <time>2018-07-01T08:37:48Z</time>
      </trkpt>
      <trkpt lat="50.504523972049356" lon="5.901534995064139">
        <ele>316.41000000000003</ele>
        <time>2018-07-01T08:37:49Z</time>
      </trkpt>
      <trkpt lat="50.503529040142894" lon="5.900988997891545">
        <ele>320.25999999999999</ele>
        <time>2018-07-01T08:37:58Z</time>
      </trkpt>
      <trkpt lat="50.502455988898873" lon="5.900469990447164">
        <ele>323.62</ele>
        <time>2018-07-01T08:38:08Z</time>
      </trkpt>
      <trkpt lat="50.501629030331969" lon="5.900107976049185">
        <ele>326.5</ele>
        <time>2018-07-01T08:38:16Z</time>
      </trkpt>
      <trkpt lat="50.501559963449836" lon="5.900076040998101">
        <ele>326.99000000000001</ele>
        <time>2018-07-01T08:38:17Z</time>
      </trkpt>
      <trkpt lat="50.501501960679889" lon="5.900047961622477">
        <ele>327.47000000000003</ele>
        <time>2018-07-01T08:38:18Z</time>
      </trkpt>
      <trkpt lat="50.500896032899618" lon="5.899921981617808">
        <ele>329.87</ele>
        <time>2018-07-01T08:38:27Z</time>
      </trkpt>
      <trkpt lat="50.499851983040571" lon="5.899621993303299">
        <ele>329.87</ele>
        <time>2018-07-01T08:38:36Z</time>
      </trkpt>
      <trkpt lat="50.499226022511721" lon="5.899417977780104">
        <ele>327.47000000000003</ele>
        <time>2018-07-01T08:38:42Z</time>
      </trkpt>
      <trkpt lat="50.499108005315065" lon="5.899379001930356">
        <ele>326.99000000000001</ele>
        <time>2018-07-01T08:38:43Z</time>
      </trkpt>
      <trkpt lat="50.499026030302048" lon="5.899415966123343">
        <ele>326.99000000000001</ele>
        <time>2018-07-01T08:38:44Z</time>
      </trkpt>
      <trkpt lat="50.498867025598884" lon="5.899454019963741">
        <ele>326.5</ele>
        <time>2018-07-01T08:38:46Z</time>
      </trkpt>
      <trkpt lat="50.49879502505064" lon="5.899437004700303">
        <ele>326.01999999999998</ele>
        <time>2018-07-01T08:38:47Z</time>
      </trkpt>
      <trkpt lat="50.498719001188874" lon="5.899419989436865">
        <ele>326.01999999999998</ele>
        <time>2018-07-01T08:38:48Z</time>
      </trkpt>
      <trkpt lat="50.498636020347476" lon="5.899400962516666">
        <ele>325.54000000000002</ele>
        <time>2018-07-01T08:38:49Z</time>
      </trkpt>
      <trkpt lat="50.498556979000568" lon="5.899400962516666">
        <ele>325.54000000000002</ele>
        <time>2018-07-01T08:38:50Z</time>
      </trkpt>
      <trkpt lat="50.498480033129454" lon="5.899400962516666">
        <ele>325.06</ele>
        <time>2018-07-01T08:38:51Z</time>
      </trkpt>
      <trkpt lat="50.498398980125785" lon="5.899400962516666">
        <ele>324.57999999999998</ele>
        <time>2018-07-01T08:38:52Z</time>
      </trkpt>
      <trkpt lat="50.498315999284387" lon="5.899400962516666">
        <ele>324.57999999999998</ele>
        <time>2018-07-01T08:38:53Z</time>
      </trkpt>
      <trkpt lat="50.49767897464335" lon="5.899371039122343">
        <ele>324.57999999999998</ele>
        <time>2018-07-01T08:39:01Z</time>
      </trkpt>
      <trkpt lat="50.497604962438345" lon="5.899375984445214">
        <ele>325.06</ele>
        <time>2018-07-01T08:39:02Z</time>
      </trkpt>
      <trkpt lat="50.497545031830668" lon="5.899397023022175">
        <ele>325.54000000000002</ele>
        <time>2018-07-01T08:39:03Z</time>
      </trkpt>
      <trkpt lat="50.49748401157558" lon="5.899458965286613">
        <ele>326.01999999999998</ele>
        <time>2018-07-01T08:39:04Z</time>
      </trkpt>
      <trkpt lat="50.497422991320491" lon="5.899520991370082">
        <ele>326.5</ele>
        <time>2018-07-01T08:39:05Z</time>
      </trkpt>
      <trkpt lat="50.496780015528202" lon="5.900277039036155">
        <ele>331.79000000000002</ele>
        <time>2018-07-01T08:39:15Z</time>
      </trkpt>
      <trkpt lat="50.496576000005007" lon="5.900516007095575">
        <ele>334.19999999999999</ele>
        <time>2018-07-01T08:39:18Z</time>
      </trkpt>
      <trkpt lat="50.496509028598666" lon="5.900594964623451">
        <ele>334.68000000000001</ele>
        <time>2018-07-01T08:39:19Z</time>
      </trkpt>
      <trkpt lat="50.49636896699667" lon="5.90071901679039">
        <ele>335.63999999999999</ele>
        <time>2018-07-01T08:39:21Z</time>
      </trkpt>
      <trkpt lat="50.496294032782316" lon="5.900753969326615">
        <ele>336.12</ele>
        <time>2018-07-01T08:39:22Z</time>
      </trkpt>
      <trkpt lat="50.496222032234073" lon="5.900758998468518">
        <ele>336.60000000000002</ele>
        <time>2018-07-01T08:39:23Z</time>
      </trkpt>
      <trkpt lat="50.496156988665462" lon="5.900764027610421">
        <ele>337.07999999999998</ele>
        <time>2018-07-01T08:39:24Z</time>
      </trkpt>
      <trkpt lat="50.496097980067134" lon="5.900767967104912">
        <ele>337.56</ele>
        <time>2018-07-01T08:39:25Z</time>
      </trkpt>
      <trkpt lat="50.496006030589342" lon="5.900694960728288">
        <ele>338.04000000000002</ele>
        <time>2018-07-01T08:39:27Z</time>
      </trkpt>
      <trkpt lat="50.495949033647776" lon="5.900348033756018">
        <ele>339</ele>
        <time>2018-07-01T08:39:29Z</time>
      </trkpt>
      <trkpt lat="50.495806038379669" lon="5.899496013298631">
        <ele>341.41000000000003</ele>
        <time>2018-07-01T08:39:35Z</time>
      </trkpt>
      <trkpt lat="50.495786005631089" lon="5.899377996101975">
        <ele>341.88999999999999</ele>
        <time>2018-07-01T08:39:36Z</time>
      </trkpt>
      <trkpt lat="50.495636975392699" lon="5.898797968402505">
        <ele>343.32999999999998</ele>
        <time>2018-07-01T08:39:41Z</time>
      </trkpt>
      <trkpt lat="50.495481994003057" lon="5.898198997601867">
        <ele>342.85000000000002</ele>
        <time>2018-07-01T08:39:47Z</time>
      </trkpt>
      <trkpt lat="50.495327012613416" lon="5.897300960496068">
        <ele>340.92000000000002</ele>
        <time>2018-07-01T08:39:56Z</time>
      </trkpt>
      <trkpt lat="50.495287030935287" lon="5.897070039063692">
        <ele>339.95999999999998</ele>
        <time>2018-07-01T08:39:58Z</time>
      </trkpt>
      <trkpt lat="50.49518502317369" lon="5.896475007757545">
        <ele>335.63999999999999</ele>
        <time>2018-07-01T08:40:03Z</time>
      </trkpt>
      <trkpt lat="50.49516499042511" lon="5.896362019702792">
        <ele>335.16000000000003</ele>
        <time>2018-07-01T08:40:04Z</time>
      </trkpt>
      <trkpt lat="50.495140012353659" lon="5.896246014162898">
        <ele>334.68000000000001</ele>
        <time>2018-07-01T08:40:05Z</time>
      </trkpt>
      <trkpt lat="50.494871959090233" lon="5.895200036466122">
        <ele>332.75</ele>
        <time>2018-07-01T08:40:15Z</time>
      </trkpt>
      <trkpt lat="50.494831977412105" lon="5.895050000399351">
        <ele>332.26999999999998</ele>
        <time>2018-07-01T08:40:17Z</time>
      </trkpt>
      <trkpt lat="50.494815967977047" lon="5.894993003457785">
        <ele>332.26999999999998</ele>
        <time>2018-07-01T08:40:18Z</time>
      </trkpt>
      <trkpt lat="50.49480197019875" lon="5.894940029829741">
        <ele>331.79000000000002</ele>
        <time>2018-07-01T08:40:19Z</time>
      </trkpt>
      <trkpt lat="50.494795013219118" lon="5.894915973767638">
        <ele>331.79000000000002</ele>
        <time>2018-07-01T08:40:20Z</time>
      </trkpt>
      <trkpt lat="50.494752014055848" lon="5.894940029829741">
        <ele>331.31</ele>
        <time>2018-07-01T08:40:21Z</time>
      </trkpt>
      <trkpt lat="50.494698034599423" lon="5.894969031214714">
        <ele>331.31</ele>
        <time>2018-07-01T08:40:22Z</time>
      </trkpt>
      <trkpt lat="50.494633996859193" lon="5.895003983750939">
        <ele>331.31</ele>
        <time>2018-07-01T08:40:23Z</time>
      </trkpt>
      <trkpt lat="50.494467029348016" lon="5.895094005391002">
        <ele>331.79000000000002</ele>
        <time>2018-07-01T08:40:25Z</time>
      </trkpt>
      <trkpt lat="50.494368961080909" lon="5.895146979019046">
        <ele>331.79000000000002</ele>
        <time>2018-07-01T08:40:26Z</time>
      </trkpt>
      <trkpt lat="50.493136988952756" lon="5.895747961476445">
        <ele>338.51999999999998</ele>
        <time>2018-07-01T08:40:37Z</time>
      </trkpt>
      <trkpt lat="50.49252100288868" lon="5.895860027521849">
        <ele>343.81</ele>
        <time>2018-07-01T08:40:42Z</time>
      </trkpt>
      <trkpt lat="50.491309985518456" lon="5.895891040563583">
        <ele>352.45999999999998</ele>
        <time>2018-07-01T08:40:51Z</time>
      </trkpt>
      <trkpt lat="50.490146996453404" lon="5.895705968141556">
        <ele>357.75</ele>
        <time>2018-07-01T08:40:58Z</time>
      </trkpt>
      <trkpt lat="50.488705979660153" lon="5.895476974546909">
        <ele>367.83999999999997</ele>
        <time>2018-07-01T08:41:05Z</time>
      </trkpt>
      <trkpt lat="50.48833298496902" lon="5.895530031993985">
        <ele>372.64999999999998</ele>
        <time>2018-07-01T08:41:07Z</time>
      </trkpt>
      <trkpt lat="50.488155037164688" lon="5.895646037533879">
        <ele>375.05000000000001</ele>
        <time>2018-07-01T08:41:08Z</time>
      </trkpt>
      <trkpt lat="50.488003995269537" lon="5.895781992003322">
        <ele>376.97000000000003</ele>
        <time>2018-07-01T08:41:09Z</time>
      </trkpt>
      <trkpt lat="50.486792977899313" lon="5.896869963034987">
        <ele>392.36000000000001</ele>
        <time>2018-07-01T08:41:17Z</time>
      </trkpt>
      <trkpt lat="50.48605696298182" lon="5.897456025704742">
        <ele>401.49000000000001</ele>
        <time>2018-07-01T08:41:23Z</time>
      </trkpt>
      <trkpt lat="50.485679022967815" lon="5.897694993764162">
        <ele>405.81</ele>
        <time>2018-07-01T08:41:27Z</time>
      </trkpt>
      <trkpt lat="50.48560400493443" lon="5.897742016240954">
        <ele>405.81</ele>
        <time>2018-07-01T08:41:28Z</time>
      </trkpt>
      <trkpt lat="50.485514989122748" lon="5.897789960727096">
        <ele>406.29000000000002</ele>
        <time>2018-07-01T08:41:29Z</time>
      </trkpt>
      <trkpt lat="50.48545103520155" lon="5.89777696877718">
        <ele>406.76999999999998</ele>
        <time>2018-07-01T08:41:30Z</time>
      </trkpt>
      <trkpt lat="50.485398983582854" lon="5.897768000140786">
        <ele>406.76999999999998</ele>
        <time>2018-07-01T08:41:31Z</time>
      </trkpt>
      <trkpt lat="50.485361013561487" lon="5.897760959342122">
        <ele>406.76999999999998</ele>
        <time>2018-07-01T08:41:32Z</time>
      </trkpt>
      <trkpt lat="50.485338969156146" lon="5.897756014019251">
        <ele>407.25999999999999</ele>
        <time>2018-07-01T08:41:33Z</time>
      </trkpt>
      <trkpt lat="50.485322959721088" lon="5.89775400236249">
        <ele>407.25999999999999</ele>
        <time>2018-07-01T08:41:34Z</time>
      </trkpt>
      <trkpt lat="50.485285995528102" lon="5.897746961563826">
        <ele>408.22000000000003</ele>
        <time>2018-07-01T08:41:43Z</time>
      </trkpt>
      <trkpt lat="50.485245008021593" lon="5.897738998755813">
        <ele>408.69999999999999</ele>
        <time>2018-07-01T08:41:44Z</time>
      </trkpt>
      <trkpt lat="50.485217012465" lon="5.897632967680693">
        <ele>408.69999999999999</ele>
        <time>2018-07-01T08:41:45Z</time>
      </trkpt>
      <trkpt lat="50.485181976109743" lon="5.897727012634277">
        <ele>409.18000000000001</ele>
        <time>2018-07-01T08:41:47Z</time>
      </trkpt>
      <trkpt lat="50.485181976109743" lon="5.897727012634277">
        <ele>409.18000000000001</ele>
        <time>2018-07-01T08:41:48Z</time>
      </trkpt>
      <trkpt lat="50.485072005540133" lon="5.897576976567507">
        <ele>409.18000000000001</ele>
        <time>2018-07-01T08:41:49Z</time>
      </trkpt>
      <trkpt lat="50.485015008598566" lon="5.897499024868012">
        <ele>409.18000000000001</ele>
        <time>2018-07-01T08:41:50Z</time>
      </trkpt>
      <trkpt lat="50.484430035576224" lon="5.896705007180572">
        <ele>411.10000000000002</ele>
        <time>2018-07-01T08:41:56Z</time>
      </trkpt>
      <trkpt lat="50.483275009319186" lon="5.895134992897511">
        <ele>417.82999999999998</ele>
        <time>2018-07-01T08:42:04Z</time>
      </trkpt>
      <trkpt lat="50.48175897449255" lon="5.893073966726661">
        <ele>432.73000000000002</ele>
        <time>2018-07-01T08:42:13Z</time>
      </trkpt>
      <trkpt lat="50.480091981589794" lon="5.890808003023267">
        <ele>438.5</ele>
        <time>2018-07-01T08:42:23Z</time>
      </trkpt>
      <trkpt lat="50.479095038026571" lon="5.889446027576923">
        <ele>436.57999999999998</ele>
        <time>2018-07-01T08:42:30Z</time>
      </trkpt>
      <trkpt lat="50.477648992091417" lon="5.887465970590711">
        <ele>426.95999999999998</ele>
        <time>2018-07-01T08:42:39Z</time>
      </trkpt>
      <trkpt lat="50.476296991109848" lon="5.88561499491334">
        <ele>408.69999999999999</ele>
        <time>2018-07-01T08:42:48Z</time>
      </trkpt>
      <trkpt lat="50.475045992061496" lon="5.88394096121192">
        <ele>409.66000000000003</ele>
        <time>2018-07-01T08:42:56Z</time>
      </trkpt>
      <trkpt lat="50.474740974605083" lon="5.883534019812942">
        <ele>412.06</ele>
        <time>2018-07-01T08:42:58Z</time>
      </trkpt>
      <trkpt lat="50.473634982481599" lon="5.882058972492814">
        <ele>422.16000000000003</ele>
        <time>2018-07-01T08:43:05Z</time>
      </trkpt>
      <trkpt lat="50.472388006746769" lon="5.880391979590058">
        <ele>430.32999999999998</ele>
        <time>2018-07-01T08:43:13Z</time>
      </trkpt>
      <trkpt lat="50.471071964129806" lon="5.878603029996157">
        <ele>428.39999999999998</ele>
        <time>2018-07-01T08:43:21Z</time>
      </trkpt>
      <trkpt lat="50.469842003658414" lon="5.876930002123117">
        <ele>428.88999999999999</ele>
        <time>2018-07-01T08:43:28Z</time>
      </trkpt>
      <trkpt lat="50.4683299921453" lon="5.874944999814034">
        <ele>433.20999999999998</ele>
        <time>2018-07-01T08:43:37Z</time>
      </trkpt>
      <trkpt lat="50.466980002820492" lon="5.873322011902928">
        <ele>433.20999999999998</ele>
        <time>2018-07-01T08:43:46Z</time>
      </trkpt>
      <trkpt lat="50.466408021748066" lon="5.872564036399126">
        <ele>427.44</ele>
        <time>2018-07-01T08:43:53Z</time>
      </trkpt>
      <trkpt lat="50.466256979852915" lon="5.872363960370421">
        <ele>424.07999999999998</ele>
        <time>2018-07-01T08:43:57Z</time>
      </trkpt>
      <trkpt lat="50.466229990124702" lon="5.872390028089285">
        <ele>423.60000000000002</ele>
        <time>2018-07-01T08:43:58Z</time>
      </trkpt>
      <trkpt lat="50.46615899540484" lon="5.872460016980767">
        <ele>423.12</ele>
        <time>2018-07-01T08:43:59Z</time>
      </trkpt>
      <trkpt lat="50.465717017650604" lon="5.872803004458547">
        <ele>422.16000000000003</ele>
        <time>2018-07-01T08:44:03Z</time>
      </trkpt>
      <trkpt lat="50.465569999068975" lon="5.87285396642983">
        <ele>421.68000000000001</ele>
        <time>2018-07-01T08:44:05Z</time>
      </trkpt>
      <trkpt lat="50.465262969955802" lon="5.872924961149693">
        <ele>421.68000000000001</ele>
        <time>2018-07-01T08:44:06Z</time>
      </trkpt>
      <trkpt lat="50.46510698273778" lon="5.872865030542016">
        <ele>421.68000000000001</ele>
        <time>2018-07-01T08:44:07Z</time>
      </trkpt>
      <trkpt lat="50.463702008128166" lon="5.872182995080948">
        <ele>424.07999999999998</ele>
        <time>2018-07-01T08:44:16Z</time>
      </trkpt>
      <trkpt lat="50.46351601369679" lon="5.872088028118014">
        <ele>425.04000000000002</ele>
        <time>2018-07-01T08:44:18Z</time>
      </trkpt>
      <trkpt lat="50.463380981236696" lon="5.871848976239562">
        <ele>425.51999999999998</ele>
        <time>2018-07-01T08:44:19Z</time>
      </trkpt>
      <trkpt lat="50.463364971801639" lon="5.871728025376797">
        <ele>426.48000000000002</ele>
        <time>2018-07-01T08:44:21Z</time>
      </trkpt>
      <trkpt lat="50.463342005386949" lon="5.871558962389827">
        <ele>427.44</ele>
        <time>2018-07-01T08:44:22Z</time>
      </trkpt>
      <trkpt lat="50.46317595988512" lon="5.87033998221159">
        <ele>427.92000000000002</ele>
        <time>2018-07-01T08:44:27Z</time>
      </trkpt>
      <trkpt lat="50.462943026795983" lon="5.868086004629731">
        <ele>427.92000000000002</ele>
        <time>2018-07-01T08:44:34Z</time>
      </trkpt>
      <trkpt lat="50.462863985449076" lon="5.865795984864235">
        <ele>422.16000000000003</ele>
        <time>2018-07-01T08:44:42Z</time>
      </trkpt>
      <trkpt lat="50.462798019871116" lon="5.862806998193264">
        <ele>413.5</ele>
        <time>2018-07-01T08:44:52Z</time>
      </trkpt>
      <trkpt lat="50.462744040414691" lon="5.861278977245092">
        <ele>409.18000000000001</ele>
        <time>2018-07-01T08:44:57Z</time>
      </trkpt>
      <trkpt lat="50.462711015716195" lon="5.860363002866507">
        <ele>405.32999999999998</ele>
        <time>2018-07-01T08:45:00Z</time>
      </trkpt>
      <trkpt lat="50.46270003542304" lon="5.860063014551997">
        <ele>403.88999999999999</ele>
        <time>2018-07-01T08:45:01Z</time>
      </trkpt>
      <trkpt lat="50.462689977139235" lon="5.859771994873881">
        <ele>402.93000000000001</ele>
        <time>2018-07-01T08:45:02Z</time>
      </trkpt>
      <trkpt lat="50.462707998231053" lon="5.857680039480329">
        <ele>392.36000000000001</ele>
        <time>2018-07-01T08:45:09Z</time>
      </trkpt>
      <trkpt lat="50.462835989892483" lon="5.856562983244658">
        <ele>386.58999999999997</ele>
        <time>2018-07-01T08:45:13Z</time>
      </trkpt>
      <trkpt lat="50.462865997105837" lon="5.856299959123135">
        <ele>385.14999999999998</ele>
        <time>2018-07-01T08:45:14Z</time>
      </trkpt>
      <trkpt lat="50.462896004319191" lon="5.856034001335502">
        <ele>383.69999999999999</ele>
        <time>2018-07-01T08:45:15Z</time>
      </trkpt>
      <trkpt lat="50.462931040674448" lon="5.855734013020992">
        <ele>382.74000000000001</ele>
        <time>2018-07-01T08:45:16Z</time>
      </trkpt>
      <trkpt lat="50.462945038452744" lon="5.855500996112824">
        <ele>381.30000000000001</ele>
        <time>2018-07-01T08:45:17Z</time>
      </trkpt>
      <trkpt lat="50.46296096406877" lon="5.855240989476442">
        <ele>380.33999999999997</ele>
        <time>2018-07-01T08:45:18Z</time>
      </trkpt>
      <trkpt lat="50.462968004867435" lon="5.854948963969946">
        <ele>379.38</ele>
        <time>2018-07-01T08:45:19Z</time>
      </trkpt>
      <trkpt lat="50.462835989892483" lon="5.853154985234141">
        <ele>374.08999999999997</ele>
        <time>2018-07-01T08:45:26Z</time>
      </trkpt>
      <trkpt lat="50.46276499517262" lon="5.852198023349047">
        <ele>374.56999999999999</ele>
        <time>2018-07-01T08:45:30Z</time>
      </trkpt>
      <trkpt lat="50.462727025151253" lon="5.851685972884297">
        <ele>375.05000000000001</ele>
        <time>2018-07-01T08:45:32Z</time>
      </trkpt>
      <trkpt lat="50.462531978264451" lon="5.849041985347867">
        <ele>380.81999999999999</ele>
        <time>2018-07-01T08:45:42Z</time>
      </trkpt>
      <trkpt lat="50.462462995201349" lon="5.847429977729917">
        <ele>378.89999999999998</ele>
        <time>2018-07-01T08:45:49Z</time>
      </trkpt>
      <trkpt lat="50.462471041828394" lon="5.847239959985018">
        <ele>378.42000000000002</ele>
        <time>2018-07-01T08:45:50Z</time>
      </trkpt>
      <trkpt lat="50.462507000193" lon="5.847057988867164">
        <ele>378.42000000000002</ele>
        <time>2018-07-01T08:45:51Z</time>
      </trkpt>
      <trkpt lat="50.462561985477805" lon="5.846884986385703">
        <ele>377.94</ele>
        <time>2018-07-01T08:45:52Z</time>
      </trkpt>
      <trkpt lat="50.462630968540907" lon="5.846716007217765">
        <ele>377.94</ele>
        <time>2018-07-01T08:45:53Z</time>
      </trkpt>
      <trkpt lat="50.46270296908915" lon="5.846536969766021">
        <ele>377.94</ele>
        <time>2018-07-01T08:45:54Z</time>
      </trkpt>
      <trkpt lat="50.4627850279212" lon="5.846350975334644">
        <ele>377.44999999999999</ele>
        <time>2018-07-01T08:45:55Z</time>
      </trkpt>
      <trkpt lat="50.463435966521502" lon="5.845090001821518">
        <ele>377.44999999999999</ele>
        <time>2018-07-01T08:46:04Z</time>
      </trkpt>
      <trkpt lat="50.463446024805307" lon="5.845069969072938">
        <ele>377.94</ele>
        <time>2018-07-01T08:46:05Z</time>
      </trkpt>
      <trkpt lat="50.463493969291449" lon="5.844947006553412">
        <ele>377.44999999999999</ele>
        <time>2018-07-01T08:46:06Z</time>
      </trkpt>
      <trkpt lat="50.46345398761332" lon="5.844906019046903">
        <ele>377.94</ele>
        <time>2018-07-01T08:46:07Z</time>
      </trkpt>
      <trkpt lat="50.463397996500134" lon="5.844851033762097">
        <ele>377.94</ele>
        <time>2018-07-01T08:46:08Z</time>
      </trkpt>
      <trkpt lat="50.463309986516833" lon="5.844751037657261">
        <ele>377.44999999999999</ele>
        <time>2018-07-01T08:46:09Z</time>
      </trkpt>
      <trkpt lat="50.463252989575267" lon="5.844609970226884">
        <ele>377.44999999999999</ele>
        <time>2018-07-01T08:46:10Z</time>
      </trkpt>
      <trkpt lat="50.463225999847054" lon="5.844366978853941">
        <ele>376.97000000000003</ele>
        <time>2018-07-01T08:46:11Z</time>
      </trkpt>
      <trkpt lat="50.463220970705152" lon="5.844162963330746">
        <ele>376.49000000000001</ele>
        <time>2018-07-01T08:46:12Z</time>
      </trkpt>
      <trkpt lat="50.4632150195539" lon="5.843936987221241">
        <ele>375.52999999999997</ele>
        <time>2018-07-01T08:46:13Z</time>
      </trkpt>
      <trkpt lat="50.463231028988957" lon="5.843086978420615">
        <ele>372.64999999999998</ele>
        <time>2018-07-01T08:46:17Z</time>
      </trkpt>
      <trkpt lat="50.463284002617002" lon="5.842929985374212">
        <ele>372.17000000000002</ele>
        <time>2018-07-01T08:46:18Z</time>
      </trkpt>
      <trkpt lat="50.463335970416665" lon="5.842785984277725">
        <ele>372.17000000000002</ele>
        <time>2018-07-01T08:46:19Z</time>
      </trkpt>
      <trkpt lat="50.463403025642037" lon="5.84260200150311">
        <ele>372.17000000000002</ele>
        <time>2018-07-01T08:46:20Z</time>
      </trkpt>
      <trkpt lat="50.463463040068746" lon="5.842511979863048">
        <ele>372.17000000000002</ele>
        <time>2018-07-01T08:46:22Z</time>
      </trkpt>
      <trkpt lat="50.463804015889764" lon="5.842001019045711">
        <ele>373.13</ele>
        <time>2018-07-01T08:46:26Z</time>
      </trkpt>
      <trkpt lat="50.463846009224653" lon="5.84195701405406">
        <ele>373.61000000000001</ele>
        <time>2018-07-01T08:46:27Z</time>
      </trkpt>
      <trkpt lat="50.463922033086419" lon="5.841946033760905">
        <ele>374.08999999999997</ele>
        <time>2018-07-01T08:46:28Z</time>
      </trkpt>
      <trkpt lat="50.464000990614295" lon="5.841941004619002">
        <ele>374.56999999999999</ele>
        <time>2018-07-01T08:46:29Z</time>
      </trkpt>
      <trkpt lat="50.46409796923399" lon="5.841962965205312">
        <ele>375.05000000000001</ele>
        <time>2018-07-01T08:46:30Z</time>
      </trkpt>
      <trkpt lat="50.464207017794251" lon="5.841987021267414">
        <ele>375.52999999999997</ele>
        <time>2018-07-01T08:46:31Z</time>
      </trkpt>
      <trkpt lat="50.464326962828636" lon="5.842014010995626">
        <ele>376.49000000000001</ele>
        <time>2018-07-01T08:46:32Z</time>
      </trkpt>
      <trkpt lat="50.464471969753504" lon="5.841987021267414">
        <ele>377.44999999999999</ele>
        <time>2018-07-01T08:46:33Z</time>
      </trkpt>
      <trkpt lat="50.46461395919323" lon="5.841937987133861">
        <ele>378.42000000000002</ele>
        <time>2018-07-01T08:46:34Z</time>
      </trkpt>
      <trkpt lat="50.464924005791545" lon="5.841856012120843">
        <ele>380.81999999999999</ele>
        <time>2018-07-01T08:46:36Z</time>
      </trkpt>
      <trkpt lat="50.465093990787864" lon="5.841870009899139">
        <ele>381.77999999999997</ele>
        <time>2018-07-01T08:46:37Z</time>
      </trkpt>
      <trkpt lat="50.465402025729418" lon="5.841883001849055">
        <ele>384.18000000000001</ele>
        <time>2018-07-01T08:46:39Z</time>
      </trkpt>
      <trkpt lat="50.465547032654285" lon="5.841814018785954">
        <ele>385.14999999999998</ele>
        <time>2018-07-01T08:46:40Z</time>
      </trkpt>
      <trkpt lat="50.465698996558785" lon="5.841743024066091">
        <ele>386.11000000000001</ele>
        <time>2018-07-01T08:46:41Z</time>
      </trkpt>
      <trkpt lat="50.466785961762071" lon="5.841253018006682">
        <ele>387.06999999999999</ele>
        <time>2018-07-01T08:46:48Z</time>
      </trkpt>
      <trkpt lat="50.467262975871563" lon="5.841199038550258">
        <ele>385.63</ele>
        <time>2018-07-01T08:46:51Z</time>
      </trkpt>
      <trkpt lat="50.467390967532992" lon="5.841191997751594">
        <ele>384.66000000000003</ele>
        <time>2018-07-01T08:46:52Z</time>
      </trkpt>
      <trkpt lat="50.467495992779732" lon="5.841227034106851">
        <ele>383.69999999999999</ele>
        <time>2018-07-01T08:46:53Z</time>
      </trkpt>
      <trkpt lat="50.467575034126639" lon="5.841253018006682">
        <ele>383.22000000000003</ele>
        <time>2018-07-01T08:46:54Z</time>
      </trkpt>
      <trkpt lat="50.467630019411445" lon="5.84127196110785">
        <ele>382.25999999999999</ele>
        <time>2018-07-01T08:46:55Z</time>
      </trkpt>
      <trkpt lat="50.467674024403095" lon="5.841285958886147">
        <ele>382.25999999999999</ele>
        <time>2018-07-01T08:46:56Z</time>
      </trkpt>
      <trkpt lat="50.467711994424462" lon="5.841267015784979">
        <ele>381.77999999999997</ele>
        <time>2018-07-01T08:46:57Z</time>
      </trkpt>
      <trkpt lat="50.467749964445829" lon="5.841210018843412">
        <ele>381.30000000000001</ele>
        <time>2018-07-01T08:46:58Z</time>
      </trkpt>
      <trkpt lat="50.467800004407763" lon="5.841136006638408">
        <ele>380.33999999999997</ele>
        <time>2018-07-01T08:46:59Z</time>
      </trkpt>
      <trkpt lat="50.467872004956007" lon="5.840998962521553">
        <ele>379.86000000000001</ele>
        <time>2018-07-01T08:47:00Z</time>
      </trkpt>
      <trkpt lat="50.468060011044145" lon="5.839855000376701">
        <ele>380.81999999999999</ele>
        <time>2018-07-01T08:47:05Z</time>
      </trkpt>
      <trkpt lat="50.46818096190691" lon="5.838135033845902">
        <ele>383.22000000000003</ele>
        <time>2018-07-01T08:47:12Z</time>
      </trkpt>
      <trkpt lat="50.468153972178698" lon="5.837776036933065">
        <ele>383.22000000000003</ele>
        <time>2018-07-01T08:47:15Z</time>
      </trkpt>
      <trkpt lat="50.468106027692556" lon="5.837545031681657">
        <ele>382.74000000000001</ele>
        <time>2018-07-01T08:47:17Z</time>
      </trkpt>
      <trkpt lat="50.468052970245481" lon="5.837283013388515">
        <ele>382.74000000000001</ele>
        <time>2018-07-01T08:47:19Z</time>
      </trkpt>
      <trkpt lat="50.468030003830791" lon="5.837172036990523">
        <ele>383.22000000000003</ele>
        <time>2018-07-01T08:47:20Z</time>
      </trkpt>
      <trkpt lat="50.468007959425449" lon="5.837065000087023">
        <ele>383.22000000000003</ele>
        <time>2018-07-01T08:47:21Z</time>
      </trkpt>
      <trkpt lat="50.468065962195396" lon="5.836819997057319">
        <ele>383.22000000000003</ele>
        <time>2018-07-01T08:47:22Z</time>
      </trkpt>
      <trkpt lat="50.468188002705574" lon="5.836723018437624">
        <ele>383.69999999999999</ele>
        <time>2018-07-01T08:47:23Z</time>
      </trkpt>
      <trkpt lat="50.468217004090548" lon="5.836635008454323">
        <ele>383.69999999999999</ele>
        <time>2018-07-01T08:47:24Z</time>
      </trkpt>
      <trkpt lat="50.468304008245468" lon="5.836319010704756">
        <ele>384.18000000000001</ele>
        <time>2018-07-01T08:47:26Z</time>
      </trkpt>
      <trkpt lat="50.468337032943964" lon="5.836160006001592">
        <ele>384.66000000000003</ele>
        <time>2018-07-01T08:47:27Z</time>
      </trkpt>
      <trkpt lat="50.468574995175004" lon="5.835420973598957">
        <ele>386.11000000000001</ele>
        <time>2018-07-01T08:47:32Z</time>
      </trkpt>
      <trkpt lat="50.468616988509893" lon="5.835306979715824">
        <ele>386.58999999999997</ele>
        <time>2018-07-01T08:47:33Z</time>
      </trkpt>
      <trkpt lat="50.468665016815066" lon="5.835245959460735">
        <ele>386.11000000000001</ele>
        <time>2018-07-01T08:47:34Z</time>
      </trkpt>
      <trkpt lat="50.468703992664814" lon="5.835196003317833">
        <ele>386.11000000000001</ele>
        <time>2018-07-01T08:47:35Z</time>
      </trkpt>
      <trkpt lat="50.468740034848452" lon="5.835149986669421">
        <ele>386.11000000000001</ele>
        <time>2018-07-01T08:47:36Z</time>
      </trkpt>
      <trkpt lat="50.469037005677819" lon="5.834857961162925">
        <ele>385.14999999999998</ele>
        <time>2018-07-01T08:47:46Z</time>
      </trkpt>
      <trkpt lat="50.469113029539585" lon="5.834796018898487">
        <ele>384.66000000000003</ele>
        <time>2018-07-01T08:47:48Z</time>
      </trkpt>
      <trkpt lat="50.469264993444085" lon="5.834672972559929">
        <ele>383.69999999999999</ele>
        <time>2018-07-01T08:47:51Z</time>
      </trkpt>
      <trkpt lat="50.469371024519205" lon="5.83458798006177">
        <ele>383.22000000000003</ele>
        <time>2018-07-01T08:47:53Z</time>
      </trkpt>
      <trkpt lat="50.469422992318869" lon="5.834550010040402">
        <ele>383.22000000000003</ele>
        <time>2018-07-01T08:47:54Z</time>
      </trkpt>
      <trkpt lat="50.469472026452422" lon="5.834525031968951">
        <ele>382.74000000000001</ele>
        <time>2018-07-01T08:47:55Z</time>
      </trkpt>
      <trkpt lat="50.469756005331874" lon="5.834382958710194">
        <ele>381.77999999999997</ele>
        <time>2018-07-01T08:48:02Z</time>
      </trkpt>
      <trkpt lat="50.469882991164923" lon="5.834320010617375">
        <ele>381.30000000000001</ele>
        <time>2018-07-01T08:48:04Z</time>
      </trkpt>
      <trkpt lat="50.469894977286458" lon="5.834320010617375">
        <ele>381.30000000000001</ele>
        <time>2018-07-01T08:48:05Z</time>
      </trkpt>
      <trkpt lat="50.469931019470096" lon="5.834323028102517">
        <ele>380.81999999999999</ele>
        <time>2018-07-01T08:48:06Z</time>
      </trkpt>
      <trkpt lat="50.469966977834702" lon="5.834325961768627">
        <ele>380.81999999999999</ele>
        <time>2018-07-01T08:48:07Z</time>
      </trkpt>
      <trkpt lat="50.470008971169591" lon="5.834327973425388">
        <ele>380.33999999999997</ele>
        <time>2018-07-01T08:48:08Z</time>
      </trkpt>
      <trkpt lat="50.470415996387601" lon="5.834406008943915">
        <ele>377.44999999999999</ele>
        <time>2018-07-01T08:48:15Z</time>
      </trkpt>
      <trkpt lat="50.470485985279083" lon="5.834426041692495">
        <ele>376.97000000000003</ele>
        <time>2018-07-01T08:48:16Z</time>
      </trkpt>
      <trkpt lat="50.470557985827327" lon="5.834445990622044">
        <ele>376.00999999999999</ele>
        <time>2018-07-01T08:48:17Z</time>
      </trkpt>
      <trkpt lat="50.470668962225318" lon="5.834477003663778">
        <ele>375.05000000000001</ele>
        <time>2018-07-01T08:48:19Z</time>
      </trkpt>
      <trkpt lat="50.470710033550858" lon="5.834487983956933">
        <ele>374.56999999999999</ele>
        <time>2018-07-01T08:48:20Z</time>
      </trkpt>
      <trkpt lat="50.470757978037" lon="5.834500975906849">
        <ele>374.08999999999997</ele>
        <time>2018-07-01T08:48:21Z</time>
      </trkpt>
      <trkpt lat="50.470811035484076" lon="5.834515979513526">
        <ele>373.61000000000001</ele>
        <time>2018-07-01T08:48:22Z</time>
      </trkpt>
      <trkpt lat="50.470866020768881" lon="5.834530983120203">
        <ele>373.61000000000001</ele>
        <time>2018-07-01T08:48:23Z</time>
      </trkpt>
      <trkpt lat="50.470903990790248" lon="5.834541963413358">
        <ele>373.13</ele>
        <time>2018-07-01T08:48:24Z</time>
      </trkpt>
      <trkpt lat="50.470935003831983" lon="5.834551015868783">
        <ele>372.64999999999998</ele>
        <time>2018-07-01T08:48:25Z</time>
      </trkpt>
      <trkpt lat="50.470967022702098" lon="5.834559984505177">
        <ele>372.17000000000002</ele>
        <time>2018-07-01T08:48:26Z</time>
      </trkpt>
      <trkpt lat="50.470999041572213" lon="5.834569036960602">
        <ele>371.20999999999998</ele>
        <time>2018-07-01T08:48:27Z</time>
      </trkpt>
      <trkpt lat="50.471249995753169" lon="5.834690993651748">
        <ele>368.31999999999999</ele>
        <time>2018-07-01T08:48:34Z</time>
      </trkpt>
      <trkpt lat="50.471384022384882" lon="5.834657968953252">
        <ele>368.80000000000001</ele>
        <time>2018-07-01T08:48:35Z</time>
      </trkpt>
      <trkpt lat="50.471374969929457" lon="5.834601977840066">
        <ele>369.27999999999997</ele>
        <time>2018-07-01T08:48:36Z</time>
      </trkpt>
      <trkpt lat="50.471342029049993" lon="5.834405003115535">
        <ele>369.27999999999997</ele>
        <time>2018-07-01T08:48:39Z</time>
      </trkpt>
      <trkpt lat="50.471395002678037" lon="5.834096968173981">
        <ele>369.27999999999997</ele>
        <time>2018-07-01T08:48:40Z</time>
      </trkpt>
      <trkpt lat="50.471427021548152" lon="5.833908040076494">
        <ele>368.80000000000001</ele>
        <time>2018-07-01T08:48:41Z</time>
      </trkpt>
      <trkpt lat="50.471471026539803" lon="5.833653984591365">
        <ele>368.31999999999999</ele>
        <time>2018-07-01T08:48:42Z</time>
      </trkpt>
      <trkpt lat="50.471458034589887" lon="5.833466984331608">
        <ele>368.31999999999999</ele>
        <time>2018-07-01T08:48:43Z</time>
      </trkpt>
      <trkpt lat="50.471448982134461" lon="5.833333041518927">
        <ele>367.83999999999997</ele>
        <time>2018-07-01T08:48:44Z</time>
      </trkpt>
      <trkpt lat="50.471347980201244" lon="5.833103964105249">
        <ele>367.36000000000001</ele>
        <time>2018-07-01T08:48:45Z</time>
      </trkpt>
      <trkpt lat="50.471275979653001" lon="5.832941019907594">
        <ele>367.36000000000001</ele>
        <time>2018-07-01T08:48:46Z</time>
      </trkpt>
      <trkpt lat="50.471192998811603" lon="5.832753013819456">
        <ele>366.39999999999998</ele>
        <time>2018-07-01T08:48:47Z</time>
      </trkpt>
      <trkpt lat="50.471108006313443" lon="5.832558972761035">
        <ele>365.44</ele>
        <time>2018-07-01T08:48:48Z</time>
      </trkpt>
      <trkpt lat="50.470836013555527" lon="5.831296993419528">
        <ele>359.67000000000002</ele>
        <time>2018-07-01T08:48:54Z</time>
      </trkpt>
      <trkpt lat="50.47069301828742" lon="5.829939041286707">
        <ele>354.38</ele>
        <time>2018-07-01T08:49:00Z</time>
      </trkpt>
      <trkpt lat="50.470713973045349" lon="5.829738965258002">
        <ele>354.38</ele>
        <time>2018-07-01T08:49:01Z</time>
      </trkpt>
      <trkpt lat="50.470732999965549" lon="5.829553976655006">
        <ele>353.89999999999998</ele>
        <time>2018-07-01T08:49:02Z</time>
      </trkpt>
      <trkpt lat="50.470760995522141" lon="5.829416010528803">
        <ele>353.42000000000002</ele>
        <time>2018-07-01T08:49:03Z</time>
      </trkpt>
      <trkpt lat="50.470825033262372" lon="5.829244013875723">
        <ele>353.42000000000002</ele>
        <time>2018-07-01T08:49:04Z</time>
      </trkpt>
      <trkpt lat="50.470957970246673" lon="5.828880993649364">
        <ele>353.42000000000002</ele>
        <time>2018-07-01T08:49:06Z</time>
      </trkpt>
      <trkpt lat="50.471296012401581" lon="5.827830992639065">
        <ele>353.89999999999998</ele>
        <time>2018-07-01T08:49:12Z</time>
      </trkpt>
      <trkpt lat="50.471320990473032" lon="5.827732002362609">
        <ele>353.42000000000002</ele>
        <time>2018-07-01T08:49:13Z</time>
      </trkpt>
      <trkpt lat="50.471320990473032" lon="5.827624965459108">
        <ele>352.94</ele>
        <time>2018-07-01T08:49:14Z</time>
      </trkpt>
      <trkpt lat="50.471269022673368" lon="5.827430002391338">
        <ele>351.98000000000002</ele>
        <time>2018-07-01T08:49:15Z</time>
      </trkpt>
      <trkpt lat="50.47123096883297" lon="5.827290024608374">
        <ele>351.01999999999998</ele>
        <time>2018-07-01T08:49:16Z</time>
      </trkpt>
      <trkpt lat="50.471191992983222" lon="5.827142000198364">
        <ele>350.06</ele>
        <time>2018-07-01T08:49:17Z</time>
      </trkpt>
      <trkpt lat="50.471155028790236" lon="5.827005039900541">
        <ele>349.10000000000002</ele>
        <time>2018-07-01T08:49:18Z</time>
      </trkpt>
      <trkpt lat="50.471195010468364" lon="5.826835976913571">
        <ele>348.13</ele>
        <time>2018-07-01T08:49:19Z</time>
      </trkpt>
      <trkpt lat="50.471239015460014" lon="5.826700022444129">
        <ele>347.64999999999998</ele>
        <time>2018-07-01T08:49:20Z</time>
      </trkpt>
      <trkpt lat="50.471286959946156" lon="5.826548980548978">
        <ele>346.20999999999998</ele>
        <time>2018-07-01T08:49:21Z</time>
      </trkpt>
      <trkpt lat="50.471335994079709" lon="5.826388970017433">
        <ele>345.25</ele>
        <time>2018-07-01T08:49:22Z</time>
      </trkpt>
      <trkpt lat="50.471391985192895" lon="5.82620901055634">
        <ele>344.29000000000002</ele>
        <time>2018-07-01T08:49:23Z</time>
      </trkpt>
      <trkpt lat="50.471635982394218" lon="5.825624037533999">
        <ele>340.44</ele>
        <time>2018-07-01T08:49:26Z</time>
      </trkpt>
      <trkpt lat="50.472316006198525" lon="5.824330039322376">
        <ele>328.91000000000003</ele>
        <time>2018-07-01T08:49:34Z</time>
      </trkpt>
      <trkpt lat="50.472375014796853" lon="5.824166005477309">
        <ele>327.94999999999999</ele>
        <time>2018-07-01T08:49:35Z</time>
      </trkpt>
      <trkpt lat="50.472438968718052" lon="5.823989985510707">
        <ele>327.47000000000003</ele>
        <time>2018-07-01T08:49:36Z</time>
      </trkpt>
      <trkpt lat="50.472509041428566" lon="5.823796028271318">
        <ele>326.5</ele>
        <time>2018-07-01T08:49:37Z</time>
      </trkpt>
      <trkpt lat="50.4725849814713" lon="5.823586983606219">
        <ele>326.01999999999998</ele>
        <time>2018-07-01T08:49:38Z</time>
      </trkpt>
      <trkpt lat="50.472662011161447" lon="5.82337299361825">
        <ele>325.06</ele>
        <time>2018-07-01T08:49:39Z</time>
      </trkpt>
      <trkpt lat="50.473080016672611" lon="5.822454001754522">
        <ele>317.37</ele>
        <time>2018-07-01T08:49:45Z</time>
      </trkpt>
      <trkpt lat="50.473194010555744" lon="5.822343025356531">
        <ele>315.93000000000001</ele>
        <time>2018-07-01T08:49:46Z</time>
      </trkpt>
      <trkpt lat="50.473306998610497" lon="5.82223498262465">
        <ele>314.49000000000001</ele>
        <time>2018-07-01T08:49:47Z</time>
      </trkpt>
      <trkpt lat="50.473640011623502" lon="5.821912027895451">
        <ele>310.16000000000003</ele>
        <time>2018-07-01T08:49:50Z</time>
      </trkpt>
      <trkpt lat="50.473745036870241" lon="5.821810020133853">
        <ele>308.72000000000003</ele>
        <time>2018-07-01T08:49:51Z</time>
      </trkpt>
      <trkpt lat="50.473926002159715" lon="5.82182502374053">
        <ele>305.36000000000001</ele>
        <time>2018-07-01T08:49:53Z</time>
      </trkpt>
      <trkpt lat="50.474003031849861" lon="5.821830974891782">
        <ele>303.43000000000001</ele>
        <time>2018-07-01T08:49:54Z</time>
      </trkpt>
      <trkpt lat="50.47404401935637" lon="5.821874979883432">
        <ele>302.47000000000003</ele>
        <time>2018-07-01T08:49:55Z</time>
      </trkpt>
      <trkpt lat="50.474110990762711" lon="5.821943962946534">
        <ele>301.02999999999997</ele>
        <time>2018-07-01T08:49:56Z</time>
      </trkpt>
      <trkpt lat="50.474172011017799" lon="5.822008000686765">
        <ele>300.55000000000001</ele>
        <time>2018-07-01T08:49:57Z</time>
      </trkpt>
      <trkpt lat="50.474230013787746" lon="5.822069020941854">
        <ele>299.58999999999997</ele>
        <time>2018-07-01T08:49:58Z</time>
      </trkpt>
      <trkpt lat="50.474284999072552" lon="5.822127023711801">
        <ele>299.11000000000001</ele>
        <time>2018-07-01T08:49:59Z</time>
      </trkpt>
      <trkpt lat="50.474340990185738" lon="5.822185026481748">
        <ele>298.14999999999998</ele>
        <time>2018-07-01T08:50:00Z</time>
      </trkpt>
      <trkpt lat="50.474397987127304" lon="5.822245040908456">
        <ele>297.67000000000002</ele>
        <time>2018-07-01T08:50:01Z</time>
      </trkpt>
      <trkpt lat="50.475041968747973" lon="5.822886005043984">
        <ele>293.33999999999997</ele>
        <time>2018-07-01T08:50:09Z</time>
      </trkpt>
      <trkpt lat="50.475760968402028" lon="5.823422027751803">
        <ele>286.13</ele>
        <time>2018-07-01T08:50:16Z</time>
      </trkpt>
      <trkpt lat="50.475874962285161" lon="5.823454968631268">
        <ele>285.17000000000002</ele>
        <time>2018-07-01T08:50:17Z</time>
      </trkpt>
      <trkpt lat="50.476865032687783" lon="5.823720004409552">
        <ele>277</ele>
        <time>2018-07-01T08:50:25Z</time>
      </trkpt>
      <trkpt lat="50.47694499604404" lon="5.823720004409552">
        <ele>276.51999999999998</ele>
        <time>2018-07-01T08:50:26Z</time>
      </trkpt>
      <trkpt lat="50.477020014077425" lon="5.823709024116397">
        <ele>275.56</ele>
        <time>2018-07-01T08:50:27Z</time>
      </trkpt>
      <trkpt lat="50.477091008797288" lon="5.823654038831592">
        <ele>275.06999999999999</ele>
        <time>2018-07-01T08:50:28Z</time>
      </trkpt>
      <trkpt lat="50.477618984878063" lon="5.823269980028272">
        <ele>270.26999999999998</ele>
        <time>2018-07-01T08:50:35Z</time>
      </trkpt>
      <trkpt lat="50.477672964334488" lon="5.823240978643298">
        <ele>269.31</ele>
        <time>2018-07-01T08:50:36Z</time>
      </trkpt>
      <trkpt lat="50.477729039266706" lon="5.823211977258325">
        <ele>268.82999999999998</ele>
        <time>2018-07-01T08:50:37Z</time>
      </trkpt>
      <trkpt lat="50.477821994572878" lon="5.823162021115422">
        <ele>267.86000000000001</ele>
        <time>2018-07-01T08:50:38Z</time>
      </trkpt>
      <trkpt lat="50.477854013442993" lon="5.823078034445643">
        <ele>267.38</ele>
        <time>2018-07-01T08:50:39Z</time>
      </trkpt>
      <trkpt lat="50.477889971807599" lon="5.822979966178536">
        <ele>266.42000000000002</ele>
        <time>2018-07-01T08:50:40Z</time>
      </trkpt>
      <trkpt lat="50.477927019819617" lon="5.822881981730461">
        <ele>265.45999999999998</ele>
        <time>2018-07-01T08:50:41Z</time>
      </trkpt>
      <trkpt lat="50.477950992062688" lon="5.822818027809262">
        <ele>264.5</ele>
        <time>2018-07-01T08:50:42Z</time>
      </trkpt>
      <trkpt lat="50.47801704145968" lon="5.822762036696076">
        <ele>263.54000000000002</ele>
        <time>2018-07-01T08:50:43Z</time>
      </trkpt>
      <trkpt lat="50.478066997602582" lon="5.822719037532806">
        <ele>262.10000000000002</ele>
        <time>2018-07-01T08:50:44Z</time>
      </trkpt>
      <trkpt lat="50.478217033669353" lon="5.822590040042996">
        <ele>257.29000000000002</ele>
        <time>2018-07-01T08:50:49Z</time>
      </trkpt>
      <trkpt lat="50.478251986205578" lon="5.822500018402934">
        <ele>256.32999999999998</ele>
        <time>2018-07-01T08:50:50Z</time>
      </trkpt>
      <trkpt lat="50.478251986205578" lon="5.82240697927773">
        <ele>255.84999999999999</ele>
        <time>2018-07-01T08:50:51Z</time>
      </trkpt>
      <trkpt lat="50.478251986205578" lon="5.822288040071726">
        <ele>254.88999999999999</ele>
        <time>2018-07-01T08:50:52Z</time>
      </trkpt>
      <trkpt lat="50.478251986205578" lon="5.822153007611632">
        <ele>254.88999999999999</ele>
        <time>2018-07-01T08:50:53Z</time>
      </trkpt>
      <trkpt lat="50.47823497094214" lon="5.822033984586597">
        <ele>253.93000000000001</ele>
        <time>2018-07-01T08:50:54Z</time>
      </trkpt>
      <trkpt lat="50.47819297760725" lon="5.821941029280424">
        <ele>253.44</ele>
        <time>2018-07-01T08:50:55Z</time>
      </trkpt>
      <trkpt lat="50.478140003979206" lon="5.821853019297123">
        <ele>252.96000000000001</ele>
        <time>2018-07-01T08:50:56Z</time>
      </trkpt>
      <trkpt lat="50.478092981502414" lon="5.821781018748879">
        <ele>252</ele>
        <time>2018-07-01T08:50:57Z</time>
      </trkpt>
      <trkpt lat="50.478035984560847" lon="5.821727961301804">
        <ele>251.52000000000001</ele>
        <time>2018-07-01T08:50:58Z</time>
      </trkpt>
      <trkpt lat="50.477980999276042" lon="5.821676999330521">
        <ele>251.03999999999999</ele>
        <time>2018-07-01T08:50:59Z</time>
      </trkpt>
      <trkpt lat="50.477928025647998" lon="5.821626959368587">
        <ele>250.56</ele>
        <time>2018-07-01T08:51:00Z</time>
      </trkpt>
      <trkpt lat="50.477874968200922" lon="5.821578009054065">
        <ele>250.08000000000001</ele>
        <time>2018-07-01T08:51:01Z</time>
      </trkpt>
      <trkpt lat="50.477823000401258" lon="5.821529980748892">
        <ele>249.59999999999999</ele>
        <time>2018-07-01T08:51:02Z</time>
      </trkpt>
      <trkpt lat="50.477781007066369" lon="5.821454040706158">
        <ele>248.63999999999999</ele>
        <time>2018-07-01T08:51:03Z</time>
      </trkpt>
      <trkpt lat="50.477750999853015" lon="5.821371981874108">
        <ele>248.16</ele>
        <time>2018-07-01T08:51:04Z</time>
      </trkpt>
      <trkpt lat="50.4777189809829" lon="5.821282966062427">
        <ele>247.68000000000001</ele>
        <time>2018-07-01T08:51:05Z</time>
      </trkpt>
      <trkpt lat="50.477585960179567" lon="5.820832019671798">
        <ele>245.75</ele>
        <time>2018-07-01T08:51:09Z</time>
      </trkpt>
      <trkpt lat="50.477560982108116" lon="5.820717019960284">
        <ele>245.75</ele>
        <time>2018-07-01T08:51:10Z</time>
      </trkpt>
      <trkpt lat="50.477538015693426" lon="5.820606965571642">
        <ele>245.75</ele>
        <time>2018-07-01T08:51:11Z</time>
      </trkpt>
      <trkpt lat="50.477515971288085" lon="5.820502024143934">
        <ele>245.27000000000001</ele>
        <time>2018-07-01T08:51:12Z</time>
      </trkpt>
      <trkpt lat="50.477495016530156" lon="5.820403033867478">
        <ele>245.27000000000001</ele>
        <time>2018-07-01T08:51:13Z</time>
      </trkpt>
      <trkpt lat="50.477479007095098" lon="5.820314018055797">
        <ele>245.27000000000001</ele>
        <time>2018-07-01T08:51:14Z</time>
      </trkpt>
      <trkpt lat="50.477479007095098" lon="5.820255009457469">
        <ele>245.27000000000001</ele>
        <time>2018-07-01T08:51:15Z</time>
      </trkpt>
      <trkpt lat="50.477479007095098" lon="5.820212010294199">
        <ele>245.27000000000001</ele>
        <time>2018-07-01T08:51:16Z</time>
      </trkpt>
      <trkpt lat="50.477531980723143" lon="5.820158030837774">
        <ele>244.78999999999999</ele>
        <time>2018-07-01T08:51:17Z</time>
      </trkpt>
      <trkpt lat="50.477571040391922" lon="5.820158030837774">
        <ele>244.78999999999999</ele>
        <time>2018-07-01T08:51:18Z</time>
      </trkpt>
      <trkpt lat="50.477628959342837" lon="5.820158030837774">
        <ele>244.31</ele>
        <time>2018-07-01T08:51:19Z</time>
      </trkpt>
      <trkpt lat="50.477700959891081" lon="5.820158030837774">
        <ele>244.31</ele>
        <time>2018-07-01T08:51:20Z</time>
      </trkpt>
      <trkpt lat="50.477786958217621" lon="5.820158030837774">
        <ele>244.31</ele>
        <time>2018-07-01T08:51:21Z</time>
      </trkpt>
      <trkpt lat="50.477886032313108" lon="5.820140009745956">
        <ele>244.31</ele>
        <time>2018-07-01T08:51:22Z</time>
      </trkpt>
      <trkpt lat="50.477991979569197" lon="5.820096004754305">
        <ele>244.31</ele>
        <time>2018-07-01T08:51:23Z</time>
      </trkpt>
      <trkpt lat="50.478107985109091" lon="5.820050993934274">
        <ele>244.78999999999999</ele>
        <time>2018-07-01T08:51:24Z</time>
      </trkpt>
      <trkpt lat="50.478241005912423" lon="5.820062980055809">
        <ele>244.78999999999999</ele>
        <time>2018-07-01T08:51:25Z</time>
      </trkpt>
      <trkpt lat="50.478390036150813" lon="5.820100028067827">
        <ele>244.78999999999999</ele>
        <time>2018-07-01T08:51:26Z</time>
      </trkpt>
      <trkpt lat="50.478539988398552" lon="5.820182003080845">
        <ele>244.31</ele>
        <time>2018-07-01T08:51:27Z</time>
      </trkpt>
      <trkpt lat="50.478678960353136" lon="5.820315023884177">
        <ele>243.83000000000001</ele>
        <time>2018-07-01T08:51:28Z</time>
      </trkpt>
      <trkpt lat="50.478831008076668" lon="5.820478973910213">
        <ele>243.83000000000001</ele>
        <time>2018-07-01T08:51:29Z</time>
      </trkpt>
      <trkpt lat="50.478935027495027" lon="5.820642001926899">
        <ele>243.83000000000001</ele>
        <time>2018-07-01T08:51:30Z</time>
      </trkpt>
      <trkpt lat="50.479729967191815" lon="5.821984028443694">
        <ele>242.87</ele>
        <time>2018-07-01T08:51:38Z</time>
      </trkpt>
      <trkpt lat="50.480676032602787" lon="5.823782030493021">
        <ele>243.83000000000001</ele>
        <time>2018-07-01T08:51:47Z</time>
      </trkpt>
      <trkpt lat="50.480789020657539" lon="5.824003983289003">
        <ele>243.83000000000001</ele>
        <time>2018-07-01T08:51:48Z</time>
      </trkpt>
      <trkpt lat="50.481971958652139" lon="5.826331973075867">
        <ele>243.34999999999999</ele>
        <time>2018-07-01T08:51:58Z</time>
      </trkpt>
      <trkpt lat="50.482902014628053" lon="5.828083958476782">
        <ele>241.91</ele>
        <time>2018-07-01T08:52:06Z</time>
      </trkpt>
      <trkpt lat="50.48362503759563" lon="5.828855009749532">
        <ele>239.50999999999999</ele>
        <time>2018-07-01T08:52:11Z</time>
      </trkpt>
      <trkpt lat="50.483753029257059" lon="5.828936984762549">
        <ele>239.99000000000001</ele>
        <time>2018-07-01T08:52:12Z</time>
      </trkpt>
      <trkpt lat="50.483921002596617" lon="5.828957017511129">
        <ele>240.47</ele>
        <time>2018-07-01T08:52:13Z</time>
      </trkpt>
      <trkpt lat="50.484116971492767" lon="5.828979983925819">
        <ele>240.94999999999999</ele>
        <time>2018-07-01T08:52:14Z</time>
      </trkpt>
      <trkpt lat="50.484318975359201" lon="5.829004961997271">
        <ele>241.43000000000001</ele>
        <time>2018-07-01T08:52:15Z</time>
      </trkpt>
      <trkpt lat="50.484522990882397" lon="5.829029018059373">
        <ele>241.91</ele>
        <time>2018-07-01T08:52:16Z</time>
      </trkpt>
      <trkpt lat="50.48568899743259" lon="5.828918963670731">
        <ele>239.99000000000001</ele>
        <time>2018-07-01T08:52:22Z</time>
      </trkpt>
      <trkpt lat="50.48605696298182" lon="5.828843023627996">
        <ele>238.53999999999999</ele>
        <time>2018-07-01T08:52:25Z</time>
      </trkpt>
      <trkpt lat="50.486390981823206" lon="5.828774962574244">
        <ele>236.13999999999999</ele>
        <time>2018-07-01T08:52:30Z</time>
      </trkpt>
      <trkpt lat="50.486449990421534" lon="5.828764988109469">
        <ele>235.66</ele>
        <time>2018-07-01T08:52:31Z</time>
      </trkpt>
      <trkpt lat="50.486502964049578" lon="5.828613024204969">
        <ele>235.66</ele>
        <time>2018-07-01T08:52:32Z</time>
      </trkpt>
      <trkpt lat="50.48657001927495" lon="5.828532977029681">
        <ele>235.18000000000001</ele>
        <time>2018-07-01T08:52:33Z</time>
      </trkpt>
      <trkpt lat="50.486666997894645" lon="5.828472040593624">
        <ele>235.66</ele>
        <time>2018-07-01T08:52:34Z</time>
      </trkpt>
      <trkpt lat="50.486779985949397" lon="5.82840196788311">
        <ele>235.66</ele>
        <time>2018-07-01T08:52:35Z</time>
      </trkpt>
      <trkpt lat="50.486905965954065" lon="5.828319992870092">
        <ele>236.13999999999999</ele>
        <time>2018-07-01T08:52:36Z</time>
      </trkpt>
      <trkpt lat="50.487948004156351" lon="5.827668970450759">
        <ele>240.47</ele>
        <time>2018-07-01T08:52:43Z</time>
      </trkpt>
      <trkpt lat="50.488104997202754" lon="5.827651033177972">
        <ele>241.43000000000001</ele>
        <time>2018-07-01T08:52:44Z</time>
      </trkpt>
      <trkpt lat="50.488270036876202" lon="5.827678022906184">
        <ele>242.38999999999999</ele>
        <time>2018-07-01T08:52:45Z</time>
      </trkpt>
      <trkpt lat="50.488437004387379" lon="5.827720016241074">
        <ele>243.34999999999999</ele>
        <time>2018-07-01T08:52:46Z</time>
      </trkpt>
      <trkpt lat="50.48859198577702" lon="5.827757986262441">
        <ele>243.83000000000001</ele>
        <time>2018-07-01T08:52:47Z</time>
      </trkpt>
      <trkpt lat="50.488715032115579" lon="5.827788999304175">
        <ele>244.78999999999999</ele>
        <time>2018-07-01T08:52:48Z</time>
      </trkpt>
      <trkpt lat="50.48880597576499" lon="5.827811965718865">
        <ele>245.27000000000001</ele>
        <time>2018-07-01T08:52:49Z</time>
      </trkpt>
      <trkpt lat="50.488860039040446" lon="5.827732002362609">
        <ele>246.22999999999999</ele>
        <time>2018-07-01T08:52:50Z</time>
      </trkpt>
      <trkpt lat="50.48889297991991" lon="5.827637035399675">
        <ele>246.22999999999999</ele>
        <time>2018-07-01T08:52:51Z</time>
      </trkpt>
      <trkpt lat="50.488930027931929" lon="5.827529998496175">
        <ele>246.72</ele>
        <time>2018-07-01T08:52:52Z</time>
      </trkpt>
      <trkpt lat="50.488975960761309" lon="5.827396977692843">
        <ele>246.72</ele>
        <time>2018-07-01T08:52:53Z</time>
      </trkpt>
      <trkpt lat="50.489022983238101" lon="5.82726001739502">
        <ele>246.72</ele>
        <time>2018-07-01T08:52:54Z</time>
      </trkpt>
      <trkpt lat="50.489086015149951" lon="5.827165972441435">
        <ele>246.22999999999999</ele>
        <time>2018-07-01T08:52:55Z</time>
      </trkpt>
      <trkpt lat="50.489151980727911" lon="5.827066982164979">
        <ele>246.22999999999999</ele>
        <time>2018-07-01T08:52:56Z</time>
      </trkpt>
      <trkpt lat="50.489178970456123" lon="5.827077040448785">
        <ele>246.22999999999999</ele>
        <time>2018-07-01T08:52:57Z</time>
      </trkpt>
      <trkpt lat="50.489259017631412" lon="5.827109981328249">
        <ele>246.22999999999999</ele>
        <time>2018-07-01T08:52:58Z</time>
      </trkpt>
      <trkpt lat="50.489305034279823" lon="5.827169995754957">
        <ele>245.75</ele>
        <time>2018-07-01T08:52:59Z</time>
      </trkpt>
      <trkpt lat="50.489368988201022" lon="5.827255994081497">
        <ele>246.22999999999999</ele>
        <time>2018-07-01T08:53:00Z</time>
      </trkpt>
      <trkpt lat="50.489440988749266" lon="5.827352972701192">
        <ele>246.72</ele>
        <time>2018-07-01T08:53:01Z</time>
      </trkpt>
      <trkpt lat="50.489546013996005" lon="5.827446011826396">
        <ele>248.16</ele>
        <time>2018-07-01T08:53:02Z</time>
      </trkpt>
      <trkpt lat="50.489693032577634" lon="5.827405024319887">
        <ele>249.59999999999999</ele>
        <time>2018-07-01T08:53:03Z</time>
      </trkpt>
      <trkpt lat="50.489780036732554" lon="5.827289018779993">
        <ele>251.03999999999999</ele>
        <time>2018-07-01T08:53:04Z</time>
      </trkpt>
      <trkpt lat="50.489828987047076" lon="5.827082991600037">
        <ele>252.47999999999999</ele>
        <time>2018-07-01T08:53:05Z</time>
      </trkpt>
      <trkpt lat="50.489833010360599" lon="5.826904959976673">
        <ele>253.44</ele>
        <time>2018-07-01T08:53:06Z</time>
      </trkpt>
      <trkpt lat="50.489811971783638" lon="5.82670396193862">
        <ele>254.88999999999999</ele>
        <time>2018-07-01T08:53:07Z</time>
      </trkpt>
      <trkpt lat="50.489786993712187" lon="5.826470023021102">
        <ele>255.84999999999999</ele>
        <time>2018-07-01T08:53:08Z</time>
      </trkpt>
      <trkpt lat="50.489540984854102" lon="5.824891962110996">
        <ele>262.57999999999998</ele>
        <time>2018-07-01T08:53:14Z</time>
      </trkpt>
      <trkpt lat="50.489459009841084" lon="5.824673026800156">
        <ele>264.01999999999998</ele>
        <time>2018-07-01T08:53:15Z</time>
      </trkpt>
      <trkpt lat="50.489337975159287" lon="5.824515027925372">
        <ele>264.98000000000002</ele>
        <time>2018-07-01T08:53:16Z</time>
      </trkpt>
      <trkpt lat="50.489188022911549" lon="5.824379995465279">
        <ele>265.94</ele>
        <time>2018-07-01T08:53:17Z</time>
      </trkpt>
      <trkpt lat="50.489007979631424" lon="5.824272036552429">
        <ele>267.38</ele>
        <time>2018-07-01T08:53:18Z</time>
      </trkpt>
      <trkpt lat="50.488823996856809" lon="5.824159970507026">
        <ele>268.35000000000002</ele>
        <time>2018-07-01T08:53:19Z</time>
      </trkpt>
      <trkpt lat="50.487934006378055" lon="5.823620008304715">
        <ele>274.58999999999997</ele>
        <time>2018-07-01T08:53:24Z</time>
      </trkpt>
      <trkpt lat="50.487799979746342" lon="5.823483970016241">
        <ele>275.56</ele>
        <time>2018-07-01T08:53:25Z</time>
      </trkpt>
      <trkpt lat="50.487722028046846" lon="5.823288001120091">
        <ele>276.51999999999998</ele>
        <time>2018-07-01T08:53:26Z</time>
      </trkpt>
      <trkpt lat="50.487692020833492" lon="5.823079962283373">
        <ele>277.48000000000002</ele>
        <time>2018-07-01T08:53:27Z</time>
      </trkpt>
      <trkpt lat="50.487671988084912" lon="5.822875024750829">
        <ele>278.44</ele>
        <time>2018-07-01T08:53:28Z</time>
      </trkpt>
      <trkpt lat="50.487673999741673" lon="5.822657011449337">
        <ele>279.39999999999998</ele>
        <time>2018-07-01T08:53:29Z</time>
      </trkpt>
      <trkpt lat="50.487691015005112" lon="5.820822967216373">
        <ele>288.52999999999997</ele>
        <time>2018-07-01T08:53:36Z</time>
      </trkpt>
      <trkpt lat="50.487693026661873" lon="5.82060000859201">
        <ele>289.97000000000003</ele>
        <time>2018-07-01T08:53:37Z</time>
      </trkpt>
      <trkpt lat="50.487768966704607" lon="5.820405967533588">
        <ele>291.42000000000002</ele>
        <time>2018-07-01T08:53:38Z</time>
      </trkpt>
      <trkpt lat="50.487853037193418" lon="5.820226008072496">
        <ele>292.38</ele>
        <time>2018-07-01T08:53:39Z</time>
      </trkpt>
      <trkpt lat="50.487963007763028" lon="5.820081001147628">
        <ele>293.33999999999997</ele>
        <time>2018-07-01T08:53:40Z</time>
      </trkpt>
      <trkpt lat="50.48809502273798" lon="5.819948986172676">
        <ele>294.30000000000001</ele>
        <time>2018-07-01T08:53:41Z</time>
      </trkpt>
      <trkpt lat="50.488232988864183" lon="5.819811020046473">
        <ele>295.25999999999999</ele>
        <time>2018-07-01T08:53:42Z</time>
      </trkpt>
      <trkpt lat="50.489502009004354" lon="5.818606959655881">
        <ele>303.91000000000003</ele>
        <time>2018-07-01T08:53:50Z</time>
      </trkpt>
      <trkpt lat="50.489899981766939" lon="5.818265983834863">
        <ele>306.80000000000001</ele>
        <time>2018-07-01T08:53:53Z</time>
      </trkpt>
      <trkpt lat="50.49003099091351" lon="5.818212004378438">
        <ele>307.27999999999997</ele>
        <time>2018-07-01T08:53:54Z</time>
      </trkpt>
      <trkpt lat="50.490169962868094" lon="5.818189037963748">
        <ele>307.75999999999999</ele>
        <time>2018-07-01T08:53:55Z</time>
      </trkpt>
      <trkpt lat="50.490313963964581" lon="5.818210998550057">
        <ele>308.72000000000003</ele>
        <time>2018-07-01T08:53:56Z</time>
      </trkpt>
      <trkpt lat="50.490453019738197" lon="5.818300014361739">
        <ele>309.19999999999999</ele>
        <time>2018-07-01T08:53:57Z</time>
      </trkpt>
      <trkpt lat="50.490612024441361" lon="5.818449966609478">
        <ele>309.68000000000001</ele>
        <time>2018-07-01T08:53:58Z</time>
      </trkpt>
      <trkpt lat="50.490785026922822" lon="5.818614000454545">
        <ele>310.16000000000003</ele>
        <time>2018-07-01T08:53:59Z</time>
      </trkpt>
      <trkpt lat="50.49151299521327" lon="5.819300981238484">
        <ele>314.00999999999999</ele>
        <time>2018-07-01T08:54:04Z</time>
      </trkpt>
      <trkpt lat="50.491534033790231" lon="5.819321013987064">
        <ele>314.49000000000001</ele>
        <time>2018-07-01T08:54:05Z</time>
      </trkpt>
      <trkpt lat="50.491592958569527" lon="5.81929100677371">
        <ele>314.97000000000003</ele>
        <time>2018-07-01T08:54:06Z</time>
      </trkpt>
      <trkpt lat="50.491620032116771" lon="5.819278014823794">
        <ele>315.44999999999999</ele>
        <time>2018-07-01T08:54:07Z</time>
      </trkpt>
      <trkpt lat="50.491620032116771" lon="5.819231998175383">
        <ele>315.93000000000001</ele>
        <time>2018-07-01T08:54:08Z</time>
      </trkpt>
      <trkpt lat="50.491599999368191" lon="5.819124961271882">
        <ele>316.41000000000003</ele>
        <time>2018-07-01T08:54:09Z</time>
      </trkpt>
      <trkpt lat="50.491544008255005" lon="5.818998981267214">
        <ele>316.88999999999999</ele>
        <time>2018-07-01T08:54:10Z</time>
      </trkpt>
      <trkpt lat="50.491416016593575" lon="5.818708967417479">
        <ele>317.37</ele>
        <time>2018-07-01T08:54:12Z</time>
      </trkpt>
      <trkpt lat="50.491286013275385" lon="5.818396992981434">
        <ele>318.81</ele>
        <time>2018-07-01T08:54:14Z</time>
      </trkpt>
      <trkpt lat="50.490701962262392" lon="5.816855980083346">
        <ele>322.66000000000003</ele>
        <time>2018-07-01T08:54:23Z</time>
      </trkpt>
      <trkpt lat="50.490606995299459" lon="5.816709967330098">
        <ele>323.13999999999999</ele>
        <time>2018-07-01T08:54:24Z</time>
      </trkpt>
      <trkpt lat="50.489789005368948" lon="5.815653009340167">
        <ele>328.43000000000001</ele>
        <time>2018-07-01T08:54:31Z</time>
      </trkpt>
      <trkpt lat="50.489379968494177" lon="5.815183036029339">
        <ele>332.26999999999998</ele>
        <time>2018-07-01T08:54:34Z</time>
      </trkpt>
      <trkpt lat="50.489269997924566" lon="5.81501497887075">
        <ele>333.70999999999998</ele>
        <time>2018-07-01T08:54:35Z</time>
      </trkpt>
      <trkpt lat="50.489180982112885" lon="5.814796965569258">
        <ele>335.16000000000003</ele>
        <time>2018-07-01T08:54:36Z</time>
      </trkpt>
      <trkpt lat="50.489087020978332" lon="5.814565038308501">
        <ele>337.07999999999998</ele>
        <time>2018-07-01T08:54:37Z</time>
      </trkpt>
      <trkpt lat="50.489002028480172" lon="5.81430796533823">
        <ele>338.51999999999998</ele>
        <time>2018-07-01T08:54:38Z</time>
      </trkpt>
      <trkpt lat="50.48826701939106" lon="5.811890959739685">
        <ele>351.5</ele>
        <time>2018-07-01T08:54:46Z</time>
      </trkpt>
      <trkpt lat="50.488208010792732" lon="5.81157797947526">
        <ele>352.94</ele>
        <time>2018-07-01T08:54:47Z</time>
      </trkpt>
      <trkpt lat="50.488170040771365" lon="5.811281008645892">
        <ele>354.38</ele>
        <time>2018-07-01T08:54:48Z</time>
      </trkpt>
      <trkpt lat="50.488192001357675" lon="5.810985965654254">
        <ele>355.82999999999998</ele>
        <time>2018-07-01T08:54:49Z</time>
      </trkpt>
      <trkpt lat="50.488237012177706" lon="5.810705004259944">
        <ele>357.26999999999998</ele>
        <time>2018-07-01T08:54:50Z</time>
      </trkpt>
      <trkpt lat="50.488295014947653" lon="5.810425970703363">
        <ele>358.70999999999998</ele>
        <time>2018-07-01T08:54:51Z</time>
      </trkpt>
      <trkpt lat="50.488383024930954" lon="5.810150038450956">
        <ele>360.63</ele>
        <time>2018-07-01T08:54:52Z</time>
      </trkpt>
      <trkpt lat="50.488484026864171" lon="5.809878967702389">
        <ele>362.06999999999999</ele>
        <time>2018-07-01T08:54:53Z</time>
      </trkpt>
      <trkpt lat="50.488884011283517" lon="5.808916976675391">
        <ele>367.83999999999997</ele>
        <time>2018-07-01T08:54:57Z</time>
      </trkpt>
      <trkpt lat="50.48897797241807" lon="5.808787979185581">
        <ele>368.80000000000001</ele>
        <time>2018-07-01T08:54:58Z</time>
      </trkpt>
      <trkpt lat="50.489075034856796" lon="5.808707010000944">
        <ele>369.27999999999997</ele>
        <time>2018-07-01T08:54:59Z</time>
      </trkpt>
      <trkpt lat="50.489173019304872" lon="5.808639032766223">
        <ele>369.75999999999999</ele>
        <time>2018-07-01T08:55:00Z</time>
      </trkpt>
      <trkpt lat="50.489280978217721" lon="5.808565020561218">
        <ele>369.75999999999999</ele>
        <time>2018-07-01T08:55:01Z</time>
      </trkpt>
      <trkpt lat="50.489387009292841" lon="5.808465024456382">
        <ele>369.75999999999999</ele>
        <time>2018-07-01T08:55:02Z</time>
      </trkpt>
      <trkpt lat="50.489467978477478" lon="5.808301996439695">
        <ele>369.75999999999999</ele>
        <time>2018-07-01T08:55:03Z</time>
      </trkpt>
      <trkpt lat="50.489523969590664" lon="5.808108039200306">
        <ele>369.27999999999997</ele>
        <time>2018-07-01T08:55:04Z</time>
      </trkpt>
      <trkpt lat="50.48953796736896" lon="5.807883990928531">
        <ele>368.31999999999999</ele>
        <time>2018-07-01T08:55:05Z</time>
      </trkpt>
      <trkpt lat="50.48953796736896" lon="5.807625995948911">
        <ele>367.83999999999997</ele>
        <time>2018-07-01T08:55:06Z</time>
      </trkpt>
      <trkpt lat="50.48949496820569" lon="5.807375041767955">
        <ele>367.36000000000001</ele>
        <time>2018-07-01T08:55:07Z</time>
      </trkpt>
      <trkpt lat="50.489446017891169" lon="5.807096008211374">
        <ele>366.39999999999998</ele>
        <time>2018-07-01T08:55:08Z</time>
      </trkpt>
      <trkpt lat="50.489094983786345" lon="5.80474697984755">
        <ele>359.19</ele>
        <time>2018-07-01T08:55:17Z</time>
      </trkpt>
      <trkpt lat="50.488940002396703" lon="5.802614958956838">
        <ele>352.45999999999998</ele>
        <time>2018-07-01T08:55:25Z</time>
      </trkpt>
      <trkpt lat="50.488990964367986" lon="5.802342966198921">
        <ele>351.5</ele>
        <time>2018-07-01T08:55:26Z</time>
      </trkpt>
      <trkpt lat="50.489420033991337" lon="5.800053030252457">
        <ele>338.51999999999998</ele>
        <time>2018-07-01T08:55:34Z</time>
      </trkpt>
      <trkpt lat="50.489517012611032" lon="5.799537040293217">
        <ele>335.16000000000003</ele>
        <time>2018-07-01T08:55:36Z</time>
      </trkpt>
      <trkpt lat="50.489488011226058" lon="5.799263035878539">
        <ele>333.70999999999998</ele>
        <time>2018-07-01T08:55:37Z</time>
      </trkpt>
      <trkpt lat="50.489459009841084" lon="5.798991965129972">
        <ele>332.26999999999998</ele>
        <time>2018-07-01T08:55:38Z</time>
      </trkpt>
      <trkpt lat="50.48942900262773" lon="5.798715027049184">
        <ele>331.31</ele>
        <time>2018-07-01T08:55:39Z</time>
      </trkpt>
      <trkpt lat="50.489393966272473" lon="5.7984499912709">
        <ele>329.87</ele>
        <time>2018-07-01T08:55:40Z</time>
      </trkpt>
      <trkpt lat="50.488971015438437" lon="5.796264996752143">
        <ele>320.25999999999999</ele>
        <time>2018-07-01T08:55:49Z</time>
      </trkpt>
      <trkpt lat="50.488744033500552" lon="5.794792966917157">
        <ele>311.12</ele>
        <time>2018-07-01T08:55:56Z</time>
      </trkpt>
      <trkpt lat="50.488744033500552" lon="5.794370016083121">
        <ele>308.24000000000001</ele>
        <time>2018-07-01T08:55:58Z</time>
      </trkpt>
      <trkpt lat="50.488792983815074" lon="5.793914962559938">
        <ele>305.36000000000001</ele>
        <time>2018-07-01T08:56:00Z</time>
      </trkpt>
      <trkpt lat="50.488894991576672" lon="5.792911984026432">
        <ele>299.58999999999997</ele>
        <time>2018-07-01T08:56:04Z</time>
      </trkpt>
      <trkpt lat="50.488894991576672" lon="5.792665975168347">
        <ele>298.14999999999998</ele>
        <time>2018-07-01T08:56:05Z</time>
      </trkpt>
      <trkpt lat="50.488883005455136" lon="5.792428012937307">
        <ele>296.69999999999999</ele>
        <time>2018-07-01T08:56:06Z</time>
      </trkpt>
      <trkpt lat="50.488817039877176" lon="5.791812026873231">
        <ele>292.86000000000001</ele>
        <time>2018-07-01T08:56:09Z</time>
      </trkpt>
      <trkpt lat="50.488787032663822" lon="5.79166199080646">
        <ele>291.42000000000002</ele>
        <time>2018-07-01T08:56:10Z</time>
      </trkpt>
      <trkpt lat="50.488687958568335" lon="5.791312968358398">
        <ele>289.97000000000003</ele>
        <time>2018-07-01T08:56:12Z</time>
      </trkpt>
      <trkpt lat="50.488640014082193" lon="5.79114499501884">
        <ele>290.45999999999998</ele>
        <time>2018-07-01T08:56:13Z</time>
      </trkpt>
      <trkpt lat="50.488454019650817" lon="5.790458014234901">
        <ele>289.97000000000003</ele>
        <time>2018-07-01T08:56:18Z</time>
      </trkpt>
      <trkpt lat="50.488424012437463" lon="5.790343014523387">
        <ele>289.97000000000003</ele>
        <time>2018-07-01T08:56:19Z</time>
      </trkpt>
      <trkpt lat="50.488394005224109" lon="5.790234971791506">
        <ele>289.97000000000003</ele>
        <time>2018-07-01T08:56:20Z</time>
      </trkpt>
      <trkpt lat="50.488315969705582" lon="5.789738008752465">
        <ele>290.45999999999998</ele>
        <time>2018-07-01T08:56:24Z</time>
      </trkpt>
      <trkpt lat="50.488252015784383" lon="5.789462998509407">
        <ele>290.45999999999998</ele>
        <time>2018-07-01T08:56:26Z</time>
      </trkpt>
      <trkpt lat="50.488200969994068" lon="5.789323020726442">
        <ele>290.45999999999998</ele>
        <time>2018-07-01T08:56:27Z</time>
      </trkpt>
      <trkpt lat="50.488149002194405" lon="5.789177007973194">
        <ele>290.45999999999998</ele>
        <time>2018-07-01T08:56:28Z</time>
      </trkpt>
      <trkpt lat="50.488094016909599" lon="5.789035018533468">
        <ele>290.45999999999998</ele>
        <time>2018-07-01T08:56:29Z</time>
      </trkpt>
      <trkpt lat="50.488005001097918" lon="5.788925969973207">
        <ele>290.45999999999998</ele>
        <time>2018-07-01T08:56:30Z</time>
      </trkpt>
      <trkpt lat="50.487912967801094" lon="5.788812981918454">
        <ele>290.45999999999998</ele>
        <time>2018-07-01T08:56:31Z</time>
      </trkpt>
      <trkpt lat="50.487815989181399" lon="5.78869597055018">
        <ele>290.45999999999998</ele>
        <time>2018-07-01T08:56:32Z</time>
      </trkpt>
      <trkpt lat="50.486333984881639" lon="5.78731999732554">
        <ele>290.45999999999998</ele>
        <time>2018-07-01T08:56:45Z</time>
      </trkpt>
      <trkpt lat="50.48510704189539" lon="5.786091964691877">
        <ele>293.33999999999997</ele>
        <time>2018-07-01T08:56:54Z</time>
      </trkpt>
      <trkpt lat="50.484971003606915" lon="5.785891972482204">
        <ele>293.81999999999999</ele>
        <time>2018-07-01T08:56:55Z</time>
      </trkpt>
      <trkpt lat="50.484856003895402" lon="5.785679994150996">
        <ele>293.81999999999999</ele>
        <time>2018-07-01T08:56:56Z</time>
      </trkpt>
      <trkpt lat="50.484779980033636" lon="5.785439014434815">
        <ele>294.77999999999997</ele>
        <time>2018-07-01T08:56:57Z</time>
      </trkpt>
      <trkpt lat="50.48472398892045" lon="5.785180013626814">
        <ele>295.25999999999999</ele>
        <time>2018-07-01T08:56:58Z</time>
      </trkpt>
      <trkpt lat="50.484704039990902" lon="5.784907015040517">
        <ele>295.74000000000001</ele>
        <time>2018-07-01T08:56:59Z</time>
      </trkpt>
      <trkpt lat="50.484694987535477" lon="5.784625969827175">
        <ele>296.69999999999999</ele>
        <time>2018-07-01T08:57:00Z</time>
      </trkpt>
      <trkpt lat="50.484716026112437" lon="5.784327993169427">
        <ele>297.18000000000001</ele>
        <time>2018-07-01T08:57:01Z</time>
      </trkpt>
      <trkpt lat="50.484746033325791" lon="5.784017024561763">
        <ele>297.67000000000002</ele>
        <time>2018-07-01T08:57:02Z</time>
      </trkpt>
      <trkpt lat="50.484793977811933" lon="5.783699015155435">
        <ele>298.14999999999998</ele>
        <time>2018-07-01T08:57:03Z</time>
      </trkpt>
      <trkpt lat="50.485225981101394" lon="5.780798960477114">
        <ele>303.43000000000001</ele>
        <time>2018-07-01T08:57:11Z</time>
      </trkpt>
      <trkpt lat="50.485901981592178" lon="5.776036027818918">
        <ele>319.77999999999997</ele>
        <time>2018-07-01T08:57:23Z</time>
      </trkpt>
      <trkpt lat="50.486172968521714" lon="5.773983970284462">
        <ele>328.91000000000003</ele>
        <time>2018-07-01T08:57:30Z</time>
      </trkpt>
      <trkpt lat="50.486522996798158" lon="5.771405026316643">
        <ele>338.51999999999998</ele>
        <time>2018-07-01T08:57:40Z</time>
      </trkpt>
      <trkpt lat="50.486720977351069" lon="5.770495003089309">
        <ele>341.41000000000003</ele>
        <time>2018-07-01T08:57:44Z</time>
      </trkpt>
      <trkpt lat="50.487133031710982" lon="5.768968993797898">
        <ele>346.69</ele>
        <time>2018-07-01T08:57:50Z</time>
      </trkpt>
      <trkpt lat="50.487885978072882" lon="5.766634969040752">
        <ele>357.26999999999998</ele>
        <time>2018-07-01T08:57:59Z</time>
      </trkpt>
      <trkpt lat="50.488000977784395" lon="5.766162984073162">
        <ele>361.11000000000001</ele>
        <time>2018-07-01T08:58:02Z</time>
      </trkpt>
      <trkpt lat="50.488016987219453" lon="5.766098024323583">
        <ele>361.58999999999997</ele>
        <time>2018-07-01T08:58:03Z</time>
      </trkpt>
      <trkpt lat="50.488112038001418" lon="5.766067011281848">
        <ele>362.55000000000001</ele>
        <time>2018-07-01T08:58:04Z</time>
      </trkpt>
      <trkpt lat="50.488146990537643" lon="5.766087966039777">
        <ele>363.04000000000002</ele>
        <time>2018-07-01T08:58:05Z</time>
      </trkpt>
      <trkpt lat="50.488197030499578" lon="5.766118979081512">
        <ele>364</ele>
        <time>2018-07-01T08:58:06Z</time>
      </trkpt>
      <trkpt lat="50.488262996077538" lon="5.76615996658802">
        <ele>364</ele>
        <time>2018-07-01T08:58:07Z</time>
      </trkpt>
      <trkpt lat="50.488342037424445" lon="5.766207994893193">
        <ele>364.95999999999998</ele>
        <time>2018-07-01T08:58:08Z</time>
      </trkpt>
      <trkpt lat="50.489014014601707" lon="5.766622982919216">
        <ele>364.48000000000002</ele>
        <time>2018-07-01T08:58:13Z</time>
      </trkpt>
      <trkpt lat="50.49035201780498" lon="5.767449019476771">
        <ele>362.55000000000001</ele>
        <time>2018-07-01T08:58:20Z</time>
      </trkpt>
      <trkpt lat="50.491980034857988" lon="5.768453003838658">
        <ele>360.14999999999998</ele>
        <time>2018-07-01T08:58:30Z</time>
      </trkpt>
      <trkpt lat="50.493352990597486" lon="5.769423963502049">
        <ele>360.14999999999998</ele>
        <time>2018-07-01T08:58:39Z</time>
      </trkpt>
      <trkpt lat="50.494054974988103" lon="5.770092001184821">
        <ele>361.11000000000001</ele>
        <time>2018-07-01T08:58:46Z</time>
      </trkpt>
      <trkpt lat="50.494208028540015" lon="5.770240025594831">
        <ele>361.58999999999997</ele>
        <time>2018-07-01T08:58:49Z</time>
      </trkpt>
      <trkpt lat="50.494253039360046" lon="5.770284030586481">
        <ele>362.06999999999999</ele>
        <time>2018-07-01T08:58:50Z</time>
      </trkpt>
      <trkpt lat="50.494302995502949" lon="5.770314959809184">
        <ele>362.06999999999999</ele>
        <time>2018-07-01T08:58:51Z</time>
      </trkpt>
      <trkpt lat="50.494386982172728" lon="5.770327029749751">
        <ele>362.06999999999999</ele>
        <time>2018-07-01T08:58:52Z</time>
      </trkpt>
      <trkpt lat="50.494496030732989" lon="5.770343039184809">
        <ele>361.58999999999997</ele>
        <time>2018-07-01T08:58:53Z</time>
      </trkpt>
      <trkpt lat="50.494753019884229" lon="5.770381009206176">
        <ele>360.63</ele>
        <time>2018-07-01T08:58:55Z</time>
      </trkpt>
      <trkpt lat="50.494894003495574" lon="5.770397018641233">
        <ele>360.14999999999998</ele>
        <time>2018-07-01T08:58:56Z</time>
      </trkpt>
      <trkpt lat="50.496027991175652" lon="5.770340021699667">
        <ele>361.58999999999997</ele>
        <time>2018-07-01T08:59:03Z</time>
      </trkpt>
      <trkpt lat="50.497695989906788" lon="5.769908018410206">
        <ele>358.23000000000002</ele>
        <time>2018-07-01T08:59:13Z</time>
      </trkpt>
      <trkpt lat="50.497976029291749" lon="5.769772985950112">
        <ele>357.75</ele>
        <time>2018-07-01T08:59:15Z</time>
      </trkpt>
      <trkpt lat="50.498101003468037" lon="5.769679024815559">
        <ele>357.26999999999998</ele>
        <time>2018-07-01T08:59:16Z</time>
      </trkpt>
      <trkpt lat="50.498221032321453" lon="5.769576011225581">
        <ele>356.79000000000002</ele>
        <time>2018-07-01T08:59:17Z</time>
      </trkpt>
      <trkpt lat="50.498339971527457" lon="5.769464028999209">
        <ele>356.79000000000002</ele>
        <time>2018-07-01T08:59:18Z</time>
      </trkpt>
      <trkpt lat="50.49845396541059" lon="5.769322961568832">
        <ele>356.79000000000002</ele>
        <time>2018-07-01T08:59:19Z</time>
      </trkpt>
      <trkpt lat="50.498573994264007" lon="5.769173009321094">
        <ele>356.31</ele>
        <time>2018-07-01T08:59:20Z</time>
      </trkpt>
      <trkpt lat="50.499786017462611" lon="5.767665021121502">
        <ele>349.57999999999998</ele>
        <time>2018-07-01T08:59:29Z</time>
      </trkpt>
      <trkpt lat="50.500967027619481" lon="5.766469007357955">
        <ele>346.69</ele>
        <time>2018-07-01T08:59:37Z</time>
      </trkpt>
      <trkpt lat="50.503126960247755" lon="5.764909973368049">
        <ele>346.69</ele>
        <time>2018-07-01T08:59:48Z</time>
      </trkpt>
      <trkpt lat="50.504112001508474" lon="5.76433296315372">
        <ele>346.20999999999998</ele>
        <time>2018-07-01T08:59:53Z</time>
      </trkpt>
      <trkpt lat="50.504318028688431" lon="5.764288958162069">
        <ele>345.73000000000002</ele>
        <time>2018-07-01T08:59:54Z</time>
      </trkpt>
      <trkpt lat="50.506591033190489" lon="5.7642010319978">
        <ele>347.17000000000002</ele>
        <time>2018-07-01T09:00:04Z</time>
      </trkpt>
      <trkpt lat="50.507165025919676" lon="5.764232967048883">
        <ele>347.17000000000002</ele>
        <time>2018-07-01T09:00:07Z</time>
      </trkpt>
      <trkpt lat="50.50732696428895" lon="5.764314020052552">
        <ele>347.17000000000002</ele>
        <time>2018-07-01T09:00:08Z</time>
      </trkpt>
      <trkpt lat="50.507492003962398" lon="5.764404041692615">
        <ele>347.17000000000002</ele>
        <time>2018-07-01T09:00:09Z</time>
      </trkpt>
      <trkpt lat="50.507784029468894" lon="5.764736970886588">
        <ele>347.64999999999998</ele>
        <time>2018-07-01T09:00:11Z</time>
      </trkpt>
      <trkpt lat="50.507924007251859" lon="5.764939980581403">
        <ele>347.64999999999998</ele>
        <time>2018-07-01T09:00:12Z</time>
      </trkpt>
      <trkpt lat="50.508068008348346" lon="5.76514701358974">
        <ele>347.64999999999998</ele>
        <time>2018-07-01T09:00:13Z</time>
      </trkpt>
      <trkpt lat="50.509179029613733" lon="5.766792967915535">
        <ele>346.20999999999998</ele>
        <time>2018-07-01T09:00:20Z</time>
      </trkpt>
      <trkpt lat="50.509339040145278" lon="5.767032019793987">
        <ele>346.20999999999998</ele>
        <time>2018-07-01T09:00:21Z</time>
      </trkpt>
      <trkpt lat="50.509926024824381" lon="5.767750013619661">
        <ele>346.20999999999998</ele>
        <time>2018-07-01T09:00:25Z</time>
      </trkpt>
      <trkpt lat="50.510091986507177" lon="5.767839029431343">
        <ele>346.20999999999998</ele>
        <time>2018-07-01T09:00:26Z</time>
      </trkpt>
      <trkpt lat="50.510265994817019" lon="5.767924021929503">
        <ele>346.20999999999998</ele>
        <time>2018-07-01T09:00:27Z</time>
      </trkpt>
      <trkpt lat="50.510450983420014" lon="5.767995016649365">
        <ele>346.69</ele>
        <time>2018-07-01T09:00:28Z</time>
      </trkpt>
      <trkpt lat="50.510644018650055" lon="5.76806802302599">
        <ele>346.69</ele>
        <time>2018-07-01T09:00:29Z</time>
      </trkpt>
      <trkpt lat="50.510841999202967" lon="5.768145974725485">
        <ele>346.69</ele>
        <time>2018-07-01T09:00:30Z</time>
      </trkpt>
      <trkpt lat="50.511045008897781" lon="5.768226021900773">
        <ele>346.69</ele>
        <time>2018-07-01T09:00:31Z</time>
      </trkpt>
      <trkpt lat="50.512614017352462" lon="5.76886598020792">
        <ele>344.76999999999998</ele>
        <time>2018-07-01T09:00:39Z</time>
      </trkpt>
      <trkpt lat="50.514488965272903" lon="5.769640970975161">
        <ele>339.95999999999998</ele>
        <time>2018-07-01T09:00:48Z</time>
      </trkpt>
      <trkpt lat="50.515091959387064" lon="5.76983199454844">
        <ele>338.51999999999998</ele>
        <time>2018-07-01T09:00:51Z</time>
      </trkpt>
      <trkpt lat="50.515278959646821" lon="5.769828977063298">
        <ele>338.51999999999998</ele>
        <time>2018-07-01T09:00:52Z</time>
      </trkpt>
      <trkpt lat="50.51546897739172" lon="5.769752031192184">
        <ele>338.04000000000002</ele>
        <time>2018-07-01T09:00:53Z</time>
      </trkpt>
      <trkpt lat="50.51727301441133" lon="5.769018027931452">
        <ele>338.04000000000002</ele>
        <time>2018-07-01T09:01:02Z</time>
      </trkpt>
      <trkpt lat="50.520099978893995" lon="5.76785403303802">
        <ele>340.44</ele>
        <time>2018-07-01T09:01:16Z</time>
      </trkpt>
      <trkpt lat="50.52210702560842" lon="5.766906961798668">
        <ele>339.95999999999998</ele>
        <time>2018-07-01T09:01:26Z</time>
      </trkpt>
      <trkpt lat="50.523896981030703" lon="5.766015965491533">
        <ele>336.60000000000002</ele>
        <time>2018-07-01T09:01:35Z</time>
      </trkpt>
      <trkpt lat="50.524477008730173" lon="5.76572997495532">
        <ele>335.63999999999999</ele>
        <time>2018-07-01T09:01:38Z</time>
      </trkpt>
      <trkpt lat="50.524650011211634" lon="5.765644982457161">
        <ele>335.16000000000003</ele>
        <time>2018-07-01T09:01:39Z</time>
      </trkpt>
      <trkpt lat="50.525449980050325" lon="5.765250027179718">
        <ele>334.19999999999999</ele>
        <time>2018-07-01T09:01:45Z</time>
      </trkpt>
      <trkpt lat="50.526306023821235" lon="5.76491299085319">
        <ele>333.70999999999998</ele>
        <time>2018-07-01T09:01:51Z</time>
      </trkpt>
      <trkpt lat="50.527730025351048" lon="5.764388032257557">
        <ele>332.26999999999998</ele>
        <time>2018-07-01T09:01:58Z</time>
      </trkpt>
      <trkpt lat="50.529978973791003" lon="5.76355897821486">
        <ele>328.91000000000003</ele>
        <time>2018-07-01T09:02:09Z</time>
      </trkpt>
      <trkpt lat="50.531808994710445" lon="5.762884989380837">
        <ele>326.5</ele>
        <time>2018-07-01T09:02:19Z</time>
      </trkpt>
      <trkpt lat="50.532008986920118" lon="5.762810977175832">
        <ele>326.01999999999998</ele>
        <time>2018-07-01T09:02:21Z</time>
      </trkpt>
      <trkpt lat="50.532215014100075" lon="5.762732019647956">
        <ele>324.57999999999998</ele>
        <time>2018-07-01T09:02:27Z</time>
      </trkpt>
      <trkpt lat="50.532303024083376" lon="5.762689020484686">
        <ele>324.10000000000002</ele>
        <time>2018-07-01T09:02:29Z</time>
      </trkpt>
      <trkpt lat="50.532301012426615" lon="5.762622971087694">
        <ele>323.62</ele>
        <time>2018-07-01T09:02:30Z</time>
      </trkpt>
      <trkpt lat="50.532295983284712" lon="5.7625069655478">
        <ele>323.13999999999999</ele>
        <time>2018-07-01T09:02:32Z</time>
      </trkpt>
      <trkpt lat="50.532229011878371" lon="5.761070977896452">
        <ele>321.22000000000003</ele>
        <time>2018-07-01T09:02:38Z</time>
      </trkpt>
      <trkpt lat="50.532199004665017" lon="5.760524980723858">
        <ele>320.74000000000001</ele>
        <time>2018-07-01T09:02:40Z</time>
      </trkpt>
      <trkpt lat="50.532056009396911" lon="5.757662979885936">
        <ele>315.93000000000001</ele>
        <time>2018-07-01T09:02:49Z</time>
      </trkpt>
      <trkpt lat="50.532026002183557" lon="5.757011035457254">
        <ele>314.49000000000001</ele>
        <time>2018-07-01T09:02:51Z</time>
      </trkpt>
      <trkpt lat="50.53201200440526" lon="5.756682967767119">
        <ele>314.00999999999999</ele>
        <time>2018-07-01T09:02:52Z</time>
      </trkpt>
      <trkpt lat="50.531980991363525" lon="5.756034962832928">
        <ele>312.56999999999999</ele>
        <time>2018-07-01T09:02:54Z</time>
      </trkpt>
      <trkpt lat="50.531832966953516" lon="5.752799967303872">
        <ele>314.49000000000001</ele>
        <time>2018-07-01T09:03:04Z</time>
      </trkpt>
      <trkpt lat="50.531714027747512" lon="5.750469965860248">
        <ele>318.32999999999998</ele>
        <time>2018-07-01T09:03:12Z</time>
      </trkpt>
      <trkpt lat="50.53162400610745" lon="5.748644974082708">
        <ele>317.37</ele>
        <time>2018-07-01T09:03:21Z</time>
      </trkpt>
      <trkpt lat="50.531504983082414" lon="5.746634993702173">
        <ele>311.60000000000002</ele>
        <time>2018-07-01T09:03:30Z</time>
      </trkpt>
      <trkpt lat="50.531358970329165" lon="5.743732005357742">
        <ele>302.94999999999999</ele>
        <time>2018-07-01T09:03:41Z</time>
      </trkpt>
      <trkpt lat="50.531218992546201" lon="5.740737989544869">
        <ele>289.97000000000003</ele>
        <time>2018-07-01T09:03:52Z</time>
      </trkpt>
      <trkpt lat="50.53095898590982" lon="5.738520976155996">
        <ele>279.39999999999998</ele>
        <time>2018-07-01T09:03:59Z</time>
      </trkpt>
      <trkpt lat="50.530508039519191" lon="5.736426003277302">
        <ele>270.26999999999998</ele>
        <time>2018-07-01T09:04:06Z</time>
      </trkpt>
      <trkpt lat="50.529776969924569" lon="5.733427964150906">
        <ele>267.38</ele>
        <time>2018-07-01T09:04:18Z</time>
      </trkpt>
      <trkpt lat="50.529316971078515" lon="5.731701962649822">
        <ele>268.82999999999998</ele>
        <time>2018-07-01T09:04:26Z</time>
      </trkpt>
      <trkpt lat="50.529271038249135" lon="5.731544969603419">
        <ele>268.82999999999998</ele>
        <time>2018-07-01T09:04:27Z</time>
      </trkpt>
      <trkpt lat="50.529385032132268" lon="5.731215979903936">
        <ele>269.31</ele>
        <time>2018-07-01T09:04:28Z</time>
      </trkpt>
      <trkpt lat="50.529385032132268" lon="5.731171974912286">
        <ele>269.31</ele>
        <time>2018-07-01T09:04:29Z</time>
      </trkpt>
      <trkpt lat="50.529385032132268" lon="5.730997966602445">
        <ele>270.26999999999998</ele>
        <time>2018-07-01T09:04:30Z</time>
      </trkpt>
      <trkpt lat="50.529385032132268" lon="5.730800991877914">
        <ele>270.75</ele>
        <time>2018-07-01T09:04:31Z</time>
      </trkpt>
      <trkpt lat="50.529382014647126" lon="5.730580966919661">
        <ele>271.70999999999998</ele>
        <time>2018-07-01T09:04:32Z</time>
      </trkpt>
      <trkpt lat="50.529227033257484" lon="5.728855971246958">
        <ele>276.04000000000002</ele>
        <time>2018-07-01T09:04:38Z</time>
      </trkpt>
      <trkpt lat="50.529057970270514" lon="5.726743983104825">
        <ele>277.95999999999998</ele>
        <time>2018-07-01T09:04:46Z</time>
      </trkpt>
      <trkpt lat="50.528854038566351" lon="5.724119022488594">
        <ele>278.92000000000002</ele>
        <time>2018-07-01T09:04:56Z</time>
      </trkpt>
      <trkpt lat="50.52883299998939" lon="5.723838983103633">
        <ele>278.44</ele>
        <time>2018-07-01T09:04:57Z</time>
      </trkpt>
      <trkpt lat="50.528851021081209" lon="5.723557015880942">
        <ele>278.44</ele>
        <time>2018-07-01T09:04:58Z</time>
      </trkpt>
      <trkpt lat="50.529066016897559" lon="5.721723977476358">
        <ele>274.58999999999997</ele>
        <time>2018-07-01T09:05:06Z</time>
      </trkpt>
      <trkpt lat="50.529099041596055" lon="5.721537983044982">
        <ele>274.11000000000001</ele>
        <time>2018-07-01T09:05:07Z</time>
      </trkpt>
      <trkpt lat="50.529357958585024" lon="5.72007198818028">
        <ele>268.82999999999998</ele>
        <time>2018-07-01T09:05:16Z</time>
      </trkpt>
      <trkpt lat="50.529377991333604" lon="5.71996402926743">
        <ele>267.86000000000001</ele>
        <time>2018-07-01T09:05:17Z</time>
      </trkpt>
      <trkpt lat="50.529551999643445" lon="5.719723971560597">
        <ele>265.45999999999998</ele>
        <time>2018-07-01T09:05:20Z</time>
      </trkpt>
      <trkpt lat="50.529594998806715" lon="5.719636967405677">
        <ele>264.98000000000002</ele>
        <time>2018-07-01T09:05:21Z</time>
      </trkpt>
      <trkpt lat="50.529577983543277" lon="5.719500007107854">
        <ele>264.5</ele>
        <time>2018-07-01T09:05:22Z</time>
      </trkpt>
      <trkpt lat="50.529556022956967" lon="5.719166994094849">
        <ele>263.54000000000002</ele>
        <time>2018-07-01T09:05:24Z</time>
      </trkpt>
      <trkpt lat="50.529599022120237" lon="5.719015030190349">
        <ele>263.54000000000002</ele>
        <time>2018-07-01T09:05:25Z</time>
      </trkpt>
      <trkpt lat="50.530044017359614" lon="5.717361029237509">
        <ele>260.64999999999998</ele>
        <time>2018-07-01T09:05:35Z</time>
      </trkpt>
      <trkpt lat="50.530149964615703" lon="5.716531975194812">
        <ele>257.29000000000002</ele>
        <time>2018-07-01T09:05:40Z</time>
      </trkpt>
      <trkpt lat="50.530257001519203" lon="5.715735023841262">
        <ele>253.93000000000001</ele>
        <time>2018-07-01T09:05:45Z</time>
      </trkpt>
      <trkpt lat="50.530369989573956" lon="5.714948968961835">
        <ele>251.52000000000001</ele>
        <time>2018-07-01T09:05:50Z</time>
      </trkpt>
      <trkpt lat="50.530425980687141" lon="5.714346980676055">
        <ele>250.08000000000001</ele>
        <time>2018-07-01T09:05:54Z</time>
      </trkpt>
      <trkpt lat="50.530436960980296" lon="5.714194010943174">
        <ele>249.59999999999999</ele>
        <time>2018-07-01T09:05:55Z</time>
      </trkpt>
      <trkpt lat="50.530436960980296" lon="5.71403400041163">
        <ele>249.12</ele>
        <time>2018-07-01T09:05:56Z</time>
      </trkpt>
      <trkpt lat="50.530436960980296" lon="5.713876001536846">
        <ele>249.12</ele>
        <time>2018-07-01T09:05:57Z</time>
      </trkpt>
      <trkpt lat="50.530428998172283" lon="5.713706016540527">
        <ele>248.63999999999999</ele>
        <time>2018-07-01T09:05:58Z</time>
      </trkpt>
      <trkpt lat="50.53040100261569" lon="5.713550029322505">
        <ele>248.63999999999999</ele>
        <time>2018-07-01T09:05:59Z</time>
      </trkpt>
      <trkpt lat="50.530378958210349" lon="5.713396975770593">
        <ele>248.16</ele>
        <time>2018-07-01T09:06:00Z</time>
      </trkpt>
      <trkpt lat="50.530360015109181" lon="5.713245011866093">
        <ele>248.63999999999999</ele>
        <time>2018-07-01T09:06:01Z</time>
      </trkpt>
      <trkpt lat="50.530353980138898" lon="5.713095981627703">
        <ele>249.12</ele>
        <time>2018-07-01T09:06:02Z</time>
      </trkpt>
      <trkpt lat="50.530360015109181" lon="5.712930019944906">
        <ele>249.59999999999999</ele>
        <time>2018-07-01T09:06:03Z</time>
      </trkpt>
      <trkpt lat="50.53042103536427" lon="5.711581036448479">
        <ele>250.08000000000001</ele>
        <time>2018-07-01T09:06:11Z</time>
      </trkpt>
      <trkpt lat="50.53046596236527" lon="5.711125982925296">
        <ele>249.59999999999999</ele>
        <time>2018-07-01T09:06:14Z</time>
      </trkpt>
      <trkpt lat="50.530495969578624" lon="5.71098399348557">
        <ele>250.08000000000001</ele>
        <time>2018-07-01T09:06:15Z</time>
      </trkpt>
      <trkpt lat="50.530551038682461" lon="5.710865976288915">
        <ele>250.08000000000001</ele>
        <time>2018-07-01T09:06:16Z</time>
      </trkpt>
      <trkpt lat="50.530611975118518" lon="5.710753994062543">
        <ele>250.08000000000001</ele>
        <time>2018-07-01T09:06:17Z</time>
      </trkpt>
      <trkpt lat="50.53068196401" lon="5.710657015442848">
        <ele>250.56</ele>
        <time>2018-07-01T09:06:18Z</time>
      </trkpt>
      <trkpt lat="50.530761005356908" lon="5.710595995187759">
        <ele>250.56</ele>
        <time>2018-07-01T09:06:19Z</time>
      </trkpt>
      <trkpt lat="50.530841974541545" lon="5.71053396910429">
        <ele>250.56</ele>
        <time>2018-07-01T09:06:20Z</time>
      </trkpt>
      <trkpt lat="50.530929984524846" lon="5.710465991869569">
        <ele>250.08000000000001</ele>
        <time>2018-07-01T09:06:21Z</time>
      </trkpt>
      <trkpt lat="50.531756021082401" lon="5.709764007478952">
        <ele>246.22999999999999</ele>
        <time>2018-07-01T09:06:29Z</time>
      </trkpt>
      <trkpt lat="50.531850988045335" lon="5.709621012210846">
        <ele>245.75</ele>
        <time>2018-07-01T09:06:30Z</time>
      </trkpt>
      <trkpt lat="50.53194897249341" lon="5.709473993629217">
        <ele>245.27000000000001</ele>
        <time>2018-07-01T09:06:31Z</time>
      </trkpt>
      <trkpt lat="50.532015021890402" lon="5.709269978106022">
        <ele>244.31</ele>
        <time>2018-07-01T09:06:32Z</time>
      </trkpt>
      <trkpt lat="50.532070007175207" lon="5.709069985896349">
        <ele>243.83000000000001</ele>
        <time>2018-07-01T09:06:33Z</time>
      </trkpt>
      <trkpt lat="50.532090961933136" lon="5.708866976201534">
        <ele>242.87</ele>
        <time>2018-07-01T09:06:34Z</time>
      </trkpt>
      <trkpt lat="50.532103031873703" lon="5.708637982606888">
        <ele>242.38999999999999</ele>
        <time>2018-07-01T09:06:35Z</time>
      </trkpt>
      <trkpt lat="50.532073024660349" lon="5.708432961255312">
        <ele>241.91</ele>
        <time>2018-07-01T09:06:36Z</time>
      </trkpt>
      <trkpt lat="50.532043017446995" lon="5.708230035379529">
        <ele>240.94999999999999</ele>
        <time>2018-07-01T09:06:37Z</time>
      </trkpt>
      <trkpt lat="50.531874038279057" lon="5.707089006900787">
        <ele>236.13999999999999</ele>
        <time>2018-07-01T09:06:43Z</time>
      </trkpt>
      <trkpt lat="50.531874038279057" lon="5.706911981105804">
        <ele>235.66</ele>
        <time>2018-07-01T09:06:44Z</time>
      </trkpt>
      <trkpt lat="50.531897004693747" lon="5.70674903690815">
        <ele>235.18000000000001</ele>
        <time>2018-07-01T09:06:45Z</time>
      </trkpt>
      <trkpt lat="50.531956013292074" lon="5.706606963649392">
        <ele>234.22</ele>
        <time>2018-07-01T09:06:46Z</time>
      </trkpt>
      <trkpt lat="50.53203497081995" lon="5.706482995301485">
        <ele>233.74000000000001</ele>
        <time>2018-07-01T09:06:47Z</time>
      </trkpt>
      <trkpt lat="50.532136978581548" lon="5.706406971439719">
        <ele>233.25999999999999</ele>
        <time>2018-07-01T09:06:48Z</time>
      </trkpt>
      <trkpt lat="50.53224896080792" lon="5.70636598393321">
        <ele>232.30000000000001</ele>
        <time>2018-07-01T09:06:49Z</time>
      </trkpt>
      <trkpt lat="50.53235599771142" lon="5.706363972276449">
        <ele>231.81</ele>
        <time>2018-07-01T09:06:50Z</time>
      </trkpt>
      <trkpt lat="50.532474014908075" lon="5.706403031945229">
        <ele>231.33000000000001</ele>
        <time>2018-07-01T09:06:51Z</time>
      </trkpt>
      <trkpt lat="50.532594965770841" lon="5.706465980038047">
        <ele>231.33000000000001</ele>
        <time>2018-07-01T09:06:52Z</time>
      </trkpt>
      <trkpt lat="50.532706025987864" lon="5.70657704025507">
        <ele>230.84999999999999</ele>
        <time>2018-07-01T09:06:53Z</time>
      </trkpt>
      <trkpt lat="50.532821025699377" lon="5.706692039966583">
        <ele>230.37</ele>
        <time>2018-07-01T09:06:54Z</time>
      </trkpt>
      <trkpt lat="50.534079987555742" lon="5.707995006814599">
        <ele>227.97</ele>
        <time>2018-07-01T09:07:03Z</time>
      </trkpt>
      <trkpt lat="50.535156978294253" lon="5.709093036130071">
        <ele>224.61000000000001</ele>
        <time>2018-07-01T09:07:10Z</time>
      </trkpt>
      <trkpt lat="50.535292010754347" lon="5.709128994494677">
        <ele>223.63999999999999</ele>
        <time>2018-07-01T09:07:11Z</time>
      </trkpt>
      <trkpt lat="50.535393012687564" lon="5.70915699005127">
        <ele>223.16</ele>
        <time>2018-07-01T09:07:12Z</time>
      </trkpt>
      <trkpt lat="50.535460989922285" lon="5.709080966189504">
        <ele>221.24000000000001</ele>
        <time>2018-07-01T09:07:14Z</time>
      </trkpt>
      <trkpt lat="50.535571966320276" lon="5.708863036707044">
        <ele>220.75999999999999</ele>
        <time>2018-07-01T09:07:15Z</time>
      </trkpt>
      <trkpt lat="50.535584958270192" lon="5.708680981770158">
        <ele>219.80000000000001</ele>
        <time>2018-07-01T09:07:16Z</time>
      </trkpt>
      <trkpt lat="50.535564003512263" lon="5.708488030359149">
        <ele>218.84</ele>
        <time>2018-07-01T09:07:17Z</time>
      </trkpt>
      <trkpt lat="50.53553600795567" lon="5.708263982087374">
        <ele>218.36000000000001</ele>
        <time>2018-07-01T09:07:18Z</time>
      </trkpt>
      <trkpt lat="50.535503989085555" lon="5.708017973229289">
        <ele>217.40000000000001</ele>
        <time>2018-07-01T09:07:19Z</time>
      </trkpt>
      <trkpt lat="50.535470964387059" lon="5.707754027098417">
        <ele>216.43000000000001</ele>
        <time>2018-07-01T09:07:20Z</time>
      </trkpt>
      <trkpt lat="50.535437017679214" lon="5.707477005198598">
        <ele>215.47</ele>
        <time>2018-07-01T09:07:21Z</time>
      </trkpt>
      <trkpt lat="50.535459984093904" lon="5.707186991348863">
        <ele>214.03</ele>
        <time>2018-07-01T09:07:22Z</time>
      </trkpt>
      <trkpt lat="50.535647990182042" lon="5.704840980470181">
        <ele>206.34</ele>
        <time>2018-07-01T09:07:29Z</time>
      </trkpt>
      <trkpt lat="50.535905985161662" lon="5.70161403156817">
        <ele>199.61000000000001</ele>
        <time>2018-07-01T09:07:39Z</time>
      </trkpt>
      <trkpt lat="50.536187030375004" lon="5.697216968983412">
        <ele>194.80000000000001</ele>
        <time>2018-07-01T09:07:53Z</time>
      </trkpt>
      <trkpt lat="50.536199016496539" lon="5.696387998759747">
        <ele>194.31999999999999</ele>
        <time>2018-07-01T09:07:56Z</time>
      </trkpt>
      <trkpt lat="50.536232963204384" lon="5.696120029315352">
        <ele>194.31999999999999</ele>
        <time>2018-07-01T09:07:57Z</time>
      </trkpt>
      <trkpt lat="50.536269005388021" lon="5.695845019072294">
        <ele>193.84</ele>
        <time>2018-07-01T09:07:58Z</time>
      </trkpt>
      <trkpt lat="50.536318039521575" lon="5.695562968030572">
        <ele>193.84</ele>
        <time>2018-07-01T09:07:59Z</time>
      </trkpt>
      <trkpt lat="50.536367995664477" lon="5.695288963615894">
        <ele>193.36000000000001</ele>
        <time>2018-07-01T09:08:00Z</time>
      </trkpt>
      <trkpt lat="50.536743002012372" lon="5.693586012348533">
        <ele>190.47999999999999</ele>
        <time>2018-07-01T09:08:06Z</time>
      </trkpt>
      <trkpt lat="50.537032010033727" lon="5.692818984389305">
        <ele>189.52000000000001</ele>
        <time>2018-07-01T09:08:09Z</time>
      </trkpt>
      <trkpt lat="50.537142986431718" lon="5.692585967481136">
        <ele>189.52000000000001</ele>
        <time>2018-07-01T09:08:10Z</time>
      </trkpt>
      <trkpt lat="50.537270978093147" lon="5.692393016070128">
        <ele>189.03999999999999</ele>
        <time>2018-07-01T09:08:11Z</time>
      </trkpt>
      <trkpt lat="50.537528973072767" lon="5.692074000835419">
        <ele>188.08000000000001</ele>
        <time>2018-07-01T09:08:13Z</time>
      </trkpt>
      <trkpt lat="50.537657970562577" lon="5.691940980032086">
        <ele>188.08000000000001</ele>
        <time>2018-07-01T09:08:14Z</time>
      </trkpt>
      <trkpt lat="50.537799960002303" lon="5.691850958392024">
        <ele>187.59</ele>
        <time>2018-07-01T09:08:15Z</time>
      </trkpt>
      <trkpt lat="50.537938009947538" lon="5.691762026399374">
        <ele>187.59</ele>
        <time>2018-07-01T09:08:16Z</time>
      </trkpt>
      <trkpt lat="50.538066001608968" lon="5.691680973395705">
        <ele>187.11000000000001</ele>
        <time>2018-07-01T09:08:17Z</time>
      </trkpt>
      <trkpt lat="50.538197010755539" lon="5.691653983667493">
        <ele>186.63</ele>
        <time>2018-07-01T09:08:18Z</time>
      </trkpt>
      <trkpt lat="50.538331959396601" lon="5.691664963960648">
        <ele>186.63</ele>
        <time>2018-07-01T09:08:19Z</time>
      </trkpt>
      <trkpt lat="50.538463974371552" lon="5.691707963123918">
        <ele>186.15000000000001</ele>
        <time>2018-07-01T09:08:20Z</time>
      </trkpt>
      <trkpt lat="50.538605041801929" lon="5.691772000864148">
        <ele>186.15000000000001</ele>
        <time>2018-07-01T09:08:21Z</time>
      </trkpt>
      <trkpt lat="50.538749964907765" lon="5.691836960613728">
        <ele>186.15000000000001</ele>
        <time>2018-07-01T09:08:22Z</time>
      </trkpt>
      <trkpt lat="50.538896983489394" lon="5.691903010010719">
        <ele>186.15000000000001</ele>
        <time>2018-07-01T09:08:23Z</time>
      </trkpt>
      <trkpt lat="50.539044002071023" lon="5.691972998902202">
        <ele>186.63</ele>
        <time>2018-07-01T09:08:24Z</time>
      </trkpt>
      <trkpt lat="50.540392985567451" lon="5.69261304102838">
        <ele>184.71000000000001</ele>
        <time>2018-07-01T09:08:32Z</time>
      </trkpt>
      <trkpt lat="50.54189502261579" lon="5.69299902766943">
        <ele>180.38</ele>
        <time>2018-07-01T09:08:40Z</time>
      </trkpt>
      <trkpt lat="50.542041035369039" lon="5.692954016849399">
        <ele>179.90000000000001</ele>
        <time>2018-07-01T09:08:41Z</time>
      </trkpt>
      <trkpt lat="50.542214037850499" lon="5.692900037392974">
        <ele>179.90000000000001</ele>
        <time>2018-07-01T09:08:42Z</time>
      </trkpt>
      <trkpt lat="50.543451961129904" lon="5.692140972241759">
        <ele>178.94</ele>
        <time>2018-07-01T09:08:50Z</time>
      </trkpt>
      <trkpt lat="50.543668968603015" lon="5.691860010847449">
        <ele>178.46000000000001</ele>
        <time>2018-07-01T09:08:52Z</time>
      </trkpt>
      <trkpt lat="50.543755972757936" lon="5.691695977002382">
        <ele>178.46000000000001</ele>
        <time>2018-07-01T09:08:53Z</time>
      </trkpt>
      <trkpt lat="50.543837025761604" lon="5.691533032804728">
        <ele>177.97999999999999</ele>
        <time>2018-07-01T09:08:54Z</time>
      </trkpt>
      <trkpt lat="50.543902991339564" lon="5.691360030323267">
        <ele>177.97999999999999</ele>
        <time>2018-07-01T09:08:55Z</time>
      </trkpt>
      <trkpt lat="50.543967029079795" lon="5.691190967336297">
        <ele>177.97999999999999</ele>
        <time>2018-07-01T09:08:56Z</time>
      </trkpt>
      <trkpt lat="50.544007010757923" lon="5.69100103341043">
        <ele>177.5</ele>
        <time>2018-07-01T09:08:57Z</time>
      </trkpt>
      <trkpt lat="50.544023020192981" lon="5.69080900400877">
        <ele>177.5</ele>
        <time>2018-07-01T09:08:58Z</time>
      </trkpt>
      <trkpt lat="50.544040035456419" lon="5.690607000142336">
        <ele>177.5</ele>
        <time>2018-07-01T09:08:59Z</time>
      </trkpt>
      <trkpt lat="50.544056966900826" lon="5.690397033467889">
        <ele>177.97999999999999</ele>
        <time>2018-07-01T09:09:00Z</time>
      </trkpt>
      <trkpt lat="50.544061996042728" lon="5.690178014338017">
        <ele>178.46000000000001</ele>
        <time>2018-07-01T09:09:01Z</time>
      </trkpt>
      <trkpt lat="50.544053027406335" lon="5.689952038228512">
        <ele>179.41999999999999</ele>
        <time>2018-07-01T09:09:02Z</time>
      </trkpt>
      <trkpt lat="50.544038023799658" lon="5.68971399217844">
        <ele>180.38</ele>
        <time>2018-07-01T09:09:03Z</time>
      </trkpt>
      <trkpt lat="50.5440220143646" lon="5.689463960006833">
        <ele>181.83000000000001</ele>
        <time>2018-07-01T09:09:04Z</time>
      </trkpt>
      <trkpt lat="50.544006004929543" lon="5.689204037189484">
        <ele>183.27000000000001</ele>
        <time>2018-07-01T09:09:05Z</time>
      </trkpt>
      <trkpt lat="50.543833002448082" lon="5.687095988541842">
        <ele>196.72999999999999</ele>
        <time>2018-07-01T09:09:12Z</time>
      </trkpt>
      <trkpt lat="50.543519016355276" lon="5.684950975701213">
        <ele>210.66999999999999</ele>
        <time>2018-07-01T09:09:19Z</time>
      </trkpt>
      <trkpt lat="50.543482974171638" lon="5.684737991541624">
        <ele>212.11000000000001</ele>
        <time>2018-07-01T09:09:20Z</time>
      </trkpt>
      <trkpt lat="50.543529996648431" lon="5.684567000716925">
        <ele>213.55000000000001</ele>
        <time>2018-07-01T09:09:21Z</time>
      </trkpt>
      <trkpt lat="50.54357098415494" lon="5.684421993792057">
        <ele>214.99000000000001</ele>
        <time>2018-07-01T09:09:22Z</time>
      </trkpt>
      <trkpt lat="50.543623035773635" lon="5.684284027665854">
        <ele>216.43000000000001</ele>
        <time>2018-07-01T09:09:23Z</time>
      </trkpt>
      <trkpt lat="50.543698975816369" lon="5.684127034619451">
        <ele>217.40000000000001</ele>
        <time>2018-07-01T09:09:24Z</time>
      </trkpt>
      <trkpt lat="50.54402100853622" lon="5.683361012488604">
        <ele>224.12</ele>
        <time>2018-07-01T09:09:28Z</time>
      </trkpt>
      <trkpt lat="50.544088985770941" lon="5.683124978095293">
        <ele>225.56999999999999</ele>
        <time>2018-07-01T09:09:29Z</time>
      </trkpt>
      <trkpt lat="50.544147994369268" lon="5.682877963408828">
        <ele>227.49000000000001</ele>
        <time>2018-07-01T09:09:30Z</time>
      </trkpt>
      <trkpt lat="50.544298030436039" lon="5.68210800178349">
        <ele>233.25999999999999</ele>
        <time>2018-07-01T09:09:33Z</time>
      </trkpt>
      <trkpt lat="50.544298030436039" lon="5.681823017075658">
        <ele>234.69999999999999</ele>
        <time>2018-07-01T09:09:34Z</time>
      </trkpt>
      <trkpt lat="50.544298030436039" lon="5.680534970015287">
        <ele>242.38999999999999</ele>
        <time>2018-07-01T09:09:38Z</time>
      </trkpt>
      <trkpt lat="50.544298030436039" lon="5.677986033260822">
        <ele>259.20999999999998</ele>
        <time>2018-07-01T09:09:45Z</time>
      </trkpt>
      <trkpt lat="50.544310016557574" lon="5.677063018083572">
        <ele>265.94</ele>
        <time>2018-07-01T09:09:48Z</time>
      </trkpt>
      <trkpt lat="50.544355027377605" lon="5.676816003397107">
        <ele>267.38</ele>
        <time>2018-07-01T09:09:49Z</time>
      </trkpt>
      <trkpt lat="50.544448988512158" lon="5.676635960116983">
        <ele>269.31</ele>
        <time>2018-07-01T09:09:50Z</time>
      </trkpt>
      <trkpt lat="50.544544961303473" lon="5.676453988999128">
        <ele>270.75</ele>
        <time>2018-07-01T09:09:51Z</time>
      </trkpt>
      <trkpt lat="50.544657027348876" lon="5.676280986517668">
        <ele>272.67000000000002</ele>
        <time>2018-07-01T09:09:52Z</time>
      </trkpt>
      <trkpt lat="50.544782001525164" lon="5.676106978207827">
        <ele>273.63</ele>
        <time>2018-07-01T09:09:53Z</time>
      </trkpt>
      <trkpt lat="50.545933004468679" lon="5.674242004752159">
        <ele>282.76999999999998</ele>
        <time>2018-07-01T09:10:02Z</time>
      </trkpt>
      <trkpt lat="50.546901030465961" lon="5.671834973618388">
        <ele>287.56999999999999</ele>
        <time>2018-07-01T09:10:11Z</time>
      </trkpt>
      <trkpt lat="50.547324987128377" lon="5.670768041163683">
        <ele>292.38</ele>
        <time>2018-07-01T09:10:17Z</time>
      </trkpt>
      <trkpt lat="50.547358011826873" lon="5.670683970674872">
        <ele>293.33999999999997</ele>
        <time>2018-07-01T09:10:18Z</time>
      </trkpt>
      <trkpt lat="50.5473099835217" lon="5.670606018975377">
        <ele>293.81999999999999</ele>
        <time>2018-07-01T09:10:19Z</time>
      </trkpt>
      <trkpt lat="50.547257009893656" lon="5.670552039518952">
        <ele>294.30000000000001</ele>
        <time>2018-07-01T09:10:20Z</time>
      </trkpt>
      <trkpt lat="50.547188026830554" lon="5.670482972636819">
        <ele>294.77999999999997</ele>
        <time>2018-07-01T09:10:21Z</time>
      </trkpt>
      <trkpt lat="50.547103034332395" lon="5.67039898596704">
        <ele>294.77999999999997</ele>
        <time>2018-07-01T09:10:22Z</time>
      </trkpt>
      <trkpt lat="50.546992979943752" lon="5.670295972377062">
        <ele>294.77999999999997</ele>
        <time>2018-07-01T09:10:23Z</time>
      </trkpt>
      <trkpt lat="50.546864988282323" lon="5.670176027342677">
        <ele>294.77999999999997</ele>
        <time>2018-07-01T09:10:24Z</time>
      </trkpt>
      <trkpt lat="50.545790009200573" lon="5.669144969433546">
        <ele>289.49000000000001</ele>
        <time>2018-07-01T09:10:30Z</time>
      </trkpt>
      <trkpt lat="50.545588005334139" lon="5.668926034122706">
        <ele>286.61000000000001</ele>
        <time>2018-07-01T09:10:32Z</time>
      </trkpt>
      <trkpt lat="50.544147994369268" lon="5.666891997680068">
        <ele>272.67000000000002</ele>
        <time>2018-07-01T09:10:40Z</time>
      </trkpt>
      <trkpt lat="50.542769003659487" lon="5.664702979847789">
        <ele>258.25</ele>
        <time>2018-07-01T09:10:50Z</time>
      </trkpt>
      <trkpt lat="50.541452039033175" lon="5.66229896619916">
        <ele>249.59999999999999</ele>
        <time>2018-07-01T09:10:58Z</time>
      </trkpt>
      <trkpt lat="50.541095975786448" lon="5.661334041506052">
        <ele>247.68000000000001</ele>
        <time>2018-07-01T09:11:02Z</time>
      </trkpt>
      <trkpt lat="50.540602030232549" lon="5.658526020124555">
        <ele>250.56</ele>
        <time>2018-07-01T09:11:09Z</time>
      </trkpt>
      <trkpt lat="50.540082016959786" lon="5.655832998454571">
        <ele>257.76999999999998</ele>
        <time>2018-07-01T09:11:17Z</time>
      </trkpt>
      <trkpt lat="50.539680020883679" lon="5.65389703027904">
        <ele>264.01999999999998</ele>
        <time>2018-07-01T09:11:24Z</time>
      </trkpt>
      <trkpt lat="50.539539037272334" lon="5.653236033394933">
        <ele>264.98000000000002</ele>
        <time>2018-07-01T09:11:28Z</time>
      </trkpt>
      <trkpt lat="50.539482962340117" lon="5.652976026758552">
        <ele>265.45999999999998</ele>
        <time>2018-07-01T09:11:35Z</time>
      </trkpt>
      <trkpt lat="50.539456978440285" lon="5.652832025662065">
        <ele>265.94</ele>
        <time>2018-07-01T09:12:14Z</time>
      </trkpt>
      <trkpt lat="50.539441974833608" lon="5.652734963223338">
        <ele>265.94</ele>
        <time>2018-07-01T09:12:15Z</time>
      </trkpt>
      <trkpt lat="50.539410039782524" lon="5.651499973610044">
        <ele>265.45999999999998</ele>
        <time>2018-07-01T09:12:22Z</time>
      </trkpt>
      <trkpt lat="50.539371985942125" lon="5.648951958864927">
        <ele>264.5</ele>
        <time>2018-07-01T09:12:32Z</time>
      </trkpt>
      <trkpt lat="50.539329992607236" lon="5.646137986332178">
        <ele>260.17000000000002</ele>
        <time>2018-07-01T09:12:41Z</time>
      </trkpt>
      <trkpt lat="50.539135029539466" lon="5.643527023494244">
        <ele>256.32999999999998</ele>
        <time>2018-07-01T09:12:49Z</time>
      </trkpt>
      <trkpt lat="50.538687016814947" lon="5.64014702104032">
        <ele>258.73000000000002</ele>
        <time>2018-07-01T09:13:00Z</time>
      </trkpt>
      <trkpt lat="50.538167003542185" lon="5.638455972075462">
        <ele>259.20999999999998</ele>
        <time>2018-07-01T09:13:09Z</time>
      </trkpt>
      <trkpt lat="50.537622012197971" lon="5.637457016855478">
        <ele>256.81</ele>
        <time>2018-07-01T09:13:15Z</time>
      </trkpt>
      <trkpt lat="50.536977024748921" lon="5.635779965668917">
        <ele>253.93000000000001</ele>
        <time>2018-07-01T09:13:24Z</time>
      </trkpt>
      <trkpt lat="50.536310998722911" lon="5.633843997493386">
        <ele>252.96000000000001</ele>
        <time>2018-07-01T09:13:35Z</time>
      </trkpt>
      <trkpt lat="50.535875977948308" lon="5.632207011803985">
        <ele>256.81</ele>
        <time>2018-07-01T09:13:45Z</time>
      </trkpt>
      <trkpt lat="50.535831972956657" lon="5.632030991837382">
        <ele>256.81</ele>
        <time>2018-07-01T09:13:46Z</time>
      </trkpt>
      <trkpt lat="50.535412961617112" lon="5.630560973659158">
        <ele>255.84999999999999</ele>
        <time>2018-07-01T09:13:55Z</time>
      </trkpt>
      <trkpt lat="50.535310031846166" lon="5.630227960646153">
        <ele>254.88999999999999</ele>
        <time>2018-07-01T09:13:58Z</time>
      </trkpt>
      <trkpt lat="50.535228978842497" lon="5.629957979544997">
        <ele>255.37</ele>
        <time>2018-07-01T09:14:00Z</time>
      </trkpt>
      <trkpt lat="50.535022029653192" lon="5.629238979890943">
        <ele>256.81</ele>
        <time>2018-07-01T09:14:05Z</time>
      </trkpt>
      <trkpt lat="50.534991016611457" lon="5.629101013764739">
        <ele>257.29000000000002</ele>
        <time>2018-07-01T09:14:06Z</time>
      </trkpt>
      <trkpt lat="50.534961009398103" lon="5.628963969647884">
        <ele>257.76999999999998</ele>
        <time>2018-07-01T09:14:07Z</time>
      </trkpt>
      <trkpt lat="50.53469899110496" lon="5.627724034711719">
        <ele>262.10000000000002</ele>
        <time>2018-07-01T09:14:16Z</time>
      </trkpt>
      <trkpt lat="50.534641994163394" lon="5.62759998254478">
        <ele>262.10000000000002</ele>
        <time>2018-07-01T09:14:17Z</time>
      </trkpt>
      <trkpt lat="50.534581979736686" lon="5.62747199088335">
        <ele>262.10000000000002</ele>
        <time>2018-07-01T09:14:18Z</time>
      </trkpt>
      <trkpt lat="50.533785028383136" lon="5.626058969646692">
        <ele>259.69</ele>
        <time>2018-07-01T09:14:28Z</time>
      </trkpt>
      <trkpt lat="50.532925967127085" lon="5.624553998932242">
        <ele>253.93000000000001</ele>
        <time>2018-07-01T09:14:37Z</time>
      </trkpt>
      <trkpt lat="50.532069001346827" lon="5.623108958825469">
        <ele>246.72</ele>
        <time>2018-07-01T09:14:46Z</time>
      </trkpt>
      <trkpt lat="50.53198903799057" lon="5.622992031276226">
        <ele>246.22999999999999</ele>
        <time>2018-07-01T09:14:47Z</time>
      </trkpt>
      <trkpt lat="50.531911002472043" lon="5.622893963009119">
        <ele>246.22999999999999</ele>
        <time>2018-07-01T09:14:48Z</time>
      </trkpt>
      <trkpt lat="50.531750991940498" lon="5.622747028246522">
        <ele>245.27000000000001</ele>
        <time>2018-07-01T09:14:50Z</time>
      </trkpt>
      <trkpt lat="50.531679997220635" lon="5.622666981071234">
        <ele>245.27000000000001</ele>
        <time>2018-07-01T09:14:51Z</time>
      </trkpt>
      <trkpt lat="50.53166700527072" lon="5.622537983581424">
        <ele>245.27000000000001</ele>
        <time>2018-07-01T09:14:52Z</time>
      </trkpt>
      <trkpt lat="50.531659964472055" lon="5.622390964999795">
        <ele>245.27000000000001</ele>
        <time>2018-07-01T09:14:53Z</time>
      </trkpt>
      <trkpt lat="50.531659964472055" lon="5.622221985831857">
        <ele>245.27000000000001</ele>
        <time>2018-07-01T09:14:54Z</time>
      </trkpt>
      <trkpt lat="50.531659964472055" lon="5.622036997228861">
        <ele>245.75</ele>
        <time>2018-07-01T09:14:55Z</time>
      </trkpt>
      <trkpt lat="50.531659964472055" lon="5.620108991861343">
        <ele>245.75</ele>
        <time>2018-07-01T09:15:03Z</time>
      </trkpt>
      <trkpt lat="50.531609002500772" lon="5.617365008220077">
        <ele>246.72</ele>
        <time>2018-07-01T09:15:12Z</time>
      </trkpt>
      <trkpt lat="50.531543958932161" lon="5.616535032168031">
        <ele>248.16</ele>
        <time>2018-07-01T09:15:16Z</time>
      </trkpt>
      <trkpt lat="50.531529961153865" lon="5.616375021636486">
        <ele>248.63999999999999</ele>
        <time>2018-07-01T09:15:17Z</time>
      </trkpt>
      <trkpt lat="50.531433988362551" lon="5.615447983145714">
        <ele>251.03999999999999</ele>
        <time>2018-07-01T09:15:23Z</time>
      </trkpt>
      <trkpt lat="50.531400963664055" lon="5.613261982798576">
        <ele>250.56</ele>
        <time>2018-07-01T09:15:36Z</time>
      </trkpt>
      <trkpt lat="50.531424013897777" lon="5.61157101765275">
        <ele>249.12</ele>
        <time>2018-07-01T09:15:45Z</time>
      </trkpt>
      <trkpt lat="50.531354025006294" lon="5.611216966062784">
        <ele>249.12</ele>
        <time>2018-07-01T09:15:47Z</time>
      </trkpt>
      <trkpt lat="50.531317982822657" lon="5.611036000773311">
        <ele>249.12</ele>
        <time>2018-07-01T09:15:48Z</time>
      </trkpt>
      <trkpt lat="50.530972983688116" lon="5.609273035079241">
        <ele>247.68000000000001</ele>
        <time>2018-07-01T09:15:58Z</time>
      </trkpt>
      <trkpt lat="50.530627984553576" lon="5.607765968888998">
        <ele>247.68000000000001</ele>
        <time>2018-07-01T09:16:07Z</time>
      </trkpt>
      <trkpt lat="50.530376024544239" lon="5.606331992894411">
        <ele>247.68000000000001</ele>
        <time>2018-07-01T09:16:15Z</time>
      </trkpt>
      <trkpt lat="50.530225988477468" lon="5.604433994740248">
        <ele>246.22999999999999</ele>
        <time>2018-07-01T09:16:22Z</time>
      </trkpt>
      <trkpt lat="50.530144013464451" lon="5.60342900454998">
        <ele>246.22999999999999</ele>
        <time>2018-07-01T09:16:27Z</time>
      </trkpt>
      <trkpt lat="50.530148958787322" lon="5.603262959048152">
        <ele>246.22999999999999</ele>
        <time>2018-07-01T09:16:28Z</time>
      </trkpt>
      <trkpt lat="50.530176032334566" lon="5.602295016869903">
        <ele>243.83000000000001</ele>
        <time>2018-07-01T09:16:34Z</time>
      </trkpt>
      <trkpt lat="50.530043011531234" lon="5.600961036980152">
        <ele>241.43000000000001</ele>
        <time>2018-07-01T09:16:39Z</time>
      </trkpt>
      <trkpt lat="50.529900016263127" lon="5.599576011300087">
        <ele>238.53999999999999</ele>
        <time>2018-07-01T09:16:45Z</time>
      </trkpt>
      <trkpt lat="50.529915019869804" lon="5.598874026909471">
        <ele>237.58000000000001</ele>
        <time>2018-07-01T09:16:50Z</time>
      </trkpt>
      <trkpt lat="50.529934968799353" lon="5.5987239908427">
        <ele>237.58000000000001</ele>
        <time>2018-07-01T09:16:51Z</time>
      </trkpt>
      <trkpt lat="50.52997101098299" lon="5.598578983917832">
        <ele>237.58000000000001</ele>
        <time>2018-07-01T09:16:52Z</time>
      </trkpt>
      <trkpt lat="50.530145019292831" lon="5.597865013405681">
        <ele>236.62</ele>
        <time>2018-07-01T09:16:57Z</time>
      </trkpt>
      <trkpt lat="50.530191035941243" lon="5.597739033401012">
        <ele>237.09999999999999</ele>
        <time>2018-07-01T09:16:58Z</time>
      </trkpt>
      <trkpt lat="50.530247027054429" lon="5.597614981234074">
        <ele>236.62</ele>
        <time>2018-07-01T09:16:59Z</time>
      </trkpt>
      <trkpt lat="50.530725969001651" lon="5.596559029072523">
        <ele>234.22</ele>
        <time>2018-07-01T09:17:07Z</time>
      </trkpt>
      <trkpt lat="50.530781960114837" lon="5.596427014097571">
        <ele>233.74000000000001</ele>
        <time>2018-07-01T09:17:08Z</time>
      </trkpt>
      <trkpt lat="50.530812973156571" lon="5.59627496637404">
        <ele>233.25999999999999</ele>
        <time>2018-07-01T09:17:09Z</time>
      </trkpt>
      <trkpt lat="50.531048001721501" lon="5.595324961468577">
        <ele>229.41</ele>
        <time>2018-07-01T09:17:16Z</time>
      </trkpt>
      <trkpt lat="50.531082032248378" lon="5.595201998949051">
        <ele>228.44999999999999</ele>
        <time>2018-07-01T09:17:17Z</time>
      </trkpt>
      <trkpt lat="50.531132994219661" lon="5.595088005065918">
        <ele>227.97</ele>
        <time>2018-07-01T09:17:18Z</time>
      </trkpt>
      <trkpt lat="50.531209018081427" lon="5.594980968162417">
        <ele>227.00999999999999</ele>
        <time>2018-07-01T09:17:19Z</time>
      </trkpt>
      <trkpt lat="50.531265009194613" lon="5.594907039776444">
        <ele>226.53</ele>
        <time>2018-07-01T09:17:20Z</time>
      </trkpt>
      <trkpt lat="50.531338015571237" lon="5.594808971509337">
        <ele>226.05000000000001</ele>
        <time>2018-07-01T09:17:21Z</time>
      </trkpt>
      <trkpt lat="50.532219037413597" lon="5.59391001239419">
        <ele>218.36000000000001</ele>
        <time>2018-07-01T09:17:30Z</time>
      </trkpt>
      <trkpt lat="50.532309981063008" lon="5.593843040987849">
        <ele>217.40000000000001</ele>
        <time>2018-07-01T09:17:31Z</time>
      </trkpt>
      <trkpt lat="50.532409977167845" lon="5.593798030167818">
        <ele>216.43000000000001</ele>
        <time>2018-07-01T09:17:32Z</time>
      </trkpt>
      <trkpt lat="50.532518019899726" lon="5.593789983540773">
        <ele>215.94999999999999</ele>
        <time>2018-07-01T09:17:33Z</time>
      </trkpt>
      <trkpt lat="50.532628996297717" lon="5.59378202073276">
        <ele>214.99000000000001</ele>
        <time>2018-07-01T09:17:34Z</time>
      </trkpt>
      <trkpt lat="50.532735027372837" lon="5.593773974105716">
        <ele>214.03</ele>
        <time>2018-07-01T09:17:35Z</time>
      </trkpt>
      <trkpt lat="50.533103998750448" lon="5.593683030456305">
        <ele>211.15000000000001</ele>
        <time>2018-07-01T09:17:39Z</time>
      </trkpt>
      <trkpt lat="50.533183962106705" lon="5.593638019636273">
        <ele>210.66999999999999</ele>
        <time>2018-07-01T09:17:40Z</time>
      </trkpt>
      <trkpt lat="50.533266020938754" lon="5.593592002987862">
        <ele>210.19</ele>
        <time>2018-07-01T09:17:41Z</time>
      </trkpt>
      <trkpt lat="50.533355036750436" lon="5.593542968854308">
        <ele>209.22</ele>
        <time>2018-07-01T09:17:42Z</time>
      </trkpt>
      <trkpt lat="50.533417984843254" lon="5.593435009941459">
        <ele>209.22</ele>
        <time>2018-07-01T09:17:43Z</time>
      </trkpt>
      <trkpt lat="50.533488979563117" lon="5.593312969431281">
        <ele>208.74000000000001</ele>
        <time>2018-07-01T09:17:44Z</time>
      </trkpt>
      <trkpt lat="50.533538013696671" lon="5.593149019405246">
        <ele>207.78</ele>
        <time>2018-07-01T09:17:45Z</time>
      </trkpt>
      <trkpt lat="50.533581012859941" lon="5.592970987781882">
        <ele>206.81999999999999</ele>
        <time>2018-07-01T09:17:46Z</time>
      </trkpt>
      <trkpt lat="50.53362300619483" lon="5.592797985300422">
        <ele>206.34</ele>
        <time>2018-07-01T09:17:47Z</time>
      </trkpt>
      <trkpt lat="50.5336660053581" lon="5.592621965333819">
        <ele>204.90000000000001</ele>
        <time>2018-07-01T09:17:48Z</time>
      </trkpt>
      <trkpt lat="50.533912014216185" lon="5.590693959966302">
        <ele>194.31999999999999</ele>
        <time>2018-07-01T09:17:59Z</time>
      </trkpt>
      <trkpt lat="50.534080993384123" lon="5.589384958148003">
        <ele>184.71000000000001</ele>
        <time>2018-07-01T09:18:08Z</time>
      </trkpt>
      <trkpt lat="50.534260030835867" lon="5.588045027107">
        <ele>177.5</ele>
        <time>2018-07-01T09:18:16Z</time>
      </trkpt>
      <trkpt lat="50.534462034702301" lon="5.586508959531784">
        <ele>169.81</ele>
        <time>2018-07-01T09:18:28Z</time>
      </trkpt>
      <trkpt lat="50.534457005560398" lon="5.586194973438978">
        <ele>168.84999999999999</ele>
        <time>2018-07-01T09:18:31Z</time>
      </trkpt>
      <trkpt lat="50.534464968368411" lon="5.586082991212606">
        <ele>168.84999999999999</ele>
        <time>2018-07-01T09:18:32Z</time>
      </trkpt>
      <trkpt lat="50.534473014995456" lon="5.58596002869308">
        <ele>168.37</ele>
        <time>2018-07-01T09:18:33Z</time>
      </trkpt>
      <trkpt lat="50.534481983631849" lon="5.58583396486938">
        <ele>167.88999999999999</ele>
        <time>2018-07-01T09:18:34Z</time>
      </trkpt>
      <trkpt lat="50.534491958096623" lon="5.585689963772893">
        <ele>167.41</ele>
        <time>2018-07-01T09:18:35Z</time>
      </trkpt>
      <trkpt lat="50.534485001116991" lon="5.585572030395269">
        <ele>166.93000000000001</ele>
        <time>2018-07-01T09:18:36Z</time>
      </trkpt>
      <trkpt lat="50.534476032480597" lon="5.585433980450034">
        <ele>166.93000000000001</ele>
        <time>2018-07-01T09:18:37Z</time>
      </trkpt>
      <trkpt lat="50.534466980025172" lon="5.585287967696786">
        <ele>166.44999999999999</ele>
        <time>2018-07-01T09:18:38Z</time>
      </trkpt>
      <trkpt lat="50.534457005560398" lon="5.585138015449047">
        <ele>165.96000000000001</ele>
        <time>2018-07-01T09:18:39Z</time>
      </trkpt>
      <trkpt lat="50.534447031095624" lon="5.584986973553896">
        <ele>165.47999999999999</ele>
        <time>2018-07-01T09:18:40Z</time>
      </trkpt>
      <trkpt lat="50.534350974485278" lon="5.584075022488833">
        <ele>163.08000000000001</ele>
        <time>2018-07-01T09:18:46Z</time>
      </trkpt>
      <trkpt lat="50.53433395922184" lon="5.583936972543597">
        <ele>163.08000000000001</ele>
        <time>2018-07-01T09:18:47Z</time>
      </trkpt>
      <trkpt lat="50.534301018342376" lon="5.583680989220738">
        <ele>162.59999999999999</ele>
        <time>2018-07-01T09:18:49Z</time>
      </trkpt>
      <trkpt lat="50.534286014735699" lon="5.583560038357973">
        <ele>162.12</ele>
        <time>2018-07-01T09:18:50Z</time>
      </trkpt>
      <trkpt lat="50.534229017794132" lon="5.583110013976693">
        <ele>161.63999999999999</ele>
        <time>2018-07-01T09:18:54Z</time>
      </trkpt>
      <trkpt lat="50.534216025844216" lon="5.583003982901573">
        <ele>161.63999999999999</ele>
        <time>2018-07-01T09:18:55Z</time>
      </trkpt>
      <trkpt lat="50.534201022237539" lon="5.582884037867189">
        <ele>161.63999999999999</ele>
        <time>2018-07-01T09:18:56Z</time>
      </trkpt>
      <trkpt lat="50.534185012802482" lon="5.582763003185391">
        <ele>162.12</ele>
        <time>2018-07-01T09:18:57Z</time>
      </trkpt>
      <trkpt lat="50.534170009195805" lon="5.582640040665865">
        <ele>162.59999999999999</ele>
        <time>2018-07-01T09:18:58Z</time>
      </trkpt>
      <trkpt lat="50.534148970618844" lon="5.582470977678895">
        <ele>162.59999999999999</ele>
        <time>2018-07-01T09:18:59Z</time>
      </trkpt>
      <trkpt lat="50.534158023074269" lon="5.58235396631062">
        <ele>162.12</ele>
        <time>2018-07-01T09:19:00Z</time>
      </trkpt>
      <trkpt lat="50.534170009195805" lon="5.582208037376404">
        <ele>162.12</ele>
        <time>2018-07-01T09:19:01Z</time>
      </trkpt>
      <trkpt lat="50.534194987267256" lon="5.581898996606469">
        <ele>162.12</ele>
        <time>2018-07-01T09:19:03Z</time>
      </trkpt>
      <trkpt lat="50.53420596756041" lon="5.581759018823504">
        <ele>161.63999999999999</ele>
        <time>2018-07-01T09:19:04Z</time>
      </trkpt>
      <trkpt lat="50.534217031672597" lon="5.581628009676933">
        <ele>161.63999999999999</ele>
        <time>2018-07-01T09:19:05Z</time>
      </trkpt>
      <trkpt lat="50.534229017794132" lon="5.581481996923685">
        <ele>161.63999999999999</ele>
        <time>2018-07-01T09:19:06Z</time>
      </trkpt>
      <trkpt lat="50.534241003915668" lon="5.581330033019185">
        <ele>161.63999999999999</ele>
        <time>2018-07-01T09:19:07Z</time>
      </trkpt>
      <trkpt lat="50.534252990037203" lon="5.581182008609176">
        <ele>161.63999999999999</ele>
        <time>2018-07-01T09:19:08Z</time>
      </trkpt>
      <trkpt lat="50.534264976158738" lon="5.581043036654592">
        <ele>161.63999999999999</ele>
        <time>2018-07-01T09:19:09Z</time>
      </trkpt>
      <trkpt lat="50.534276040270925" lon="5.580901969224215">
        <ele>161.16</ele>
        <time>2018-07-01T09:19:10Z</time>
      </trkpt>
      <trkpt lat="50.534336976706982" lon="5.580149022862315">
        <ele>159.72</ele>
        <time>2018-07-01T09:19:15Z</time>
      </trkpt>
      <trkpt lat="50.534368995577097" lon="5.580014996230602">
        <ele>159.72</ele>
        <time>2018-07-01T09:19:16Z</time>
      </trkpt>
      <trkpt lat="50.534413000568748" lon="5.579893039539456">
        <ele>159.24000000000001</ele>
        <time>2018-07-01T09:19:17Z</time>
      </trkpt>
      <trkpt lat="50.534480977803469" lon="5.579807963222265">
        <ele>158.75</ele>
        <time>2018-07-01T09:19:18Z</time>
      </trkpt>
      <trkpt lat="50.534578040242195" lon="5.579723976552486">
        <ele>158.27000000000001</ele>
        <time>2018-07-01T09:19:19Z</time>
      </trkpt>
      <trkpt lat="50.534646017476916" lon="5.579664967954159">
        <ele>157.78999999999999</ele>
        <time>2018-07-01T09:19:20Z</time>
      </trkpt>
      <trkpt lat="50.534810973331332" lon="5.579449972137809">
        <ele>157.78999999999999</ele>
        <time>2018-07-01T09:19:22Z</time>
      </trkpt>
      <trkpt lat="50.534875011071563" lon="5.579323992133141">
        <ele>157.31</ele>
        <time>2018-07-01T09:19:23Z</time>
      </trkpt>
      <trkpt lat="50.534986993297935" lon="5.579053005203605">
        <ele>157.31</ele>
        <time>2018-07-01T09:19:25Z</time>
      </trkpt>
      <trkpt lat="50.535035021603107" lon="5.578923001885414">
        <ele>157.31</ele>
        <time>2018-07-01T09:19:26Z</time>
      </trkpt>
      <trkpt lat="50.535078020766377" lon="5.578773971647024">
        <ele>156.83000000000001</ele>
        <time>2018-07-01T09:19:27Z</time>
      </trkpt>
      <trkpt lat="50.535097969695926" lon="5.578633993864059">
        <ele>156.34999999999999</ele>
        <time>2018-07-01T09:19:28Z</time>
      </trkpt>
      <trkpt lat="50.535115990787745" lon="5.578502984717488">
        <ele>156.34999999999999</ele>
        <time>2018-07-01T09:19:29Z</time>
      </trkpt>
      <trkpt lat="50.535132000222802" lon="5.578383039683104">
        <ele>156.34999999999999</ele>
        <time>2018-07-01T09:19:30Z</time>
      </trkpt>
      <trkpt lat="50.53514800965786" lon="5.578268961980939">
        <ele>155.87</ele>
        <time>2018-07-01T09:19:31Z</time>
      </trkpt>
      <trkpt lat="50.535161001607776" lon="5.578152034431696">
        <ele>155.87</ele>
        <time>2018-07-01T09:19:32Z</time>
      </trkpt>
      <trkpt lat="50.535169970244169" lon="5.578040974214673">
        <ele>155.38999999999999</ele>
        <time>2018-07-01T09:19:33Z</time>
      </trkpt>
      <trkpt lat="50.535201989114285" lon="5.577639983966947">
        <ele>153.94999999999999</ele>
        <time>2018-07-01T09:19:37Z</time>
      </trkpt>
      <trkpt lat="50.535208024084568" lon="5.577564965933561">
        <ele>153.47</ele>
        <time>2018-07-01T09:19:38Z</time>
      </trkpt>
      <trkpt lat="50.535211963579059" lon="5.577506963163614">
        <ele>152.99000000000001</ele>
        <time>2018-07-01T09:19:39Z</time>
      </trkpt>
      <trkpt lat="50.535258986055851" lon="5.577376959845424">
        <ele>152.50999999999999</ele>
        <time>2018-07-01T09:19:40Z</time>
      </trkpt>
      <trkpt lat="50.535313971340656" lon="5.577364973723888">
        <ele>152.03</ele>
        <time>2018-07-01T09:19:41Z</time>
      </trkpt>
      <trkpt lat="50.5353859718889" lon="5.577349970117211">
        <ele>151.53999999999999</ele>
        <time>2018-07-01T09:19:42Z</time>
      </trkpt>
      <trkpt lat="50.535468030720949" lon="5.577332032844424">
        <ele>150.58000000000001</ele>
        <time>2018-07-01T09:19:43Z</time>
      </trkpt>
      <trkpt lat="50.536015033721924" lon="5.57717202231288">
        <ele>144.34</ele>
        <time>2018-07-01T09:19:50Z</time>
      </trkpt>
      <trkpt lat="50.536062978208065" lon="5.577123994007707">
        <ele>143.37</ele>
        <time>2018-07-01T09:19:51Z</time>
      </trkpt>
      <trkpt lat="50.536079993471503" lon="5.577106978744268">
        <ele>142.88999999999999</ele>
        <time>2018-07-01T09:19:52Z</time>
      </trkpt>
      <trkpt lat="50.536075970157981" lon="5.577056016772986">
        <ele>141.93000000000001</ele>
        <time>2018-07-01T09:19:53Z</time>
      </trkpt>
      <trkpt lat="50.536068007349968" lon="5.576971024274826">
        <ele>141.44999999999999</ele>
        <time>2018-07-01T09:19:54Z</time>
      </trkpt>
      <trkpt lat="50.536059038713574" lon="5.576873039826751">
        <ele>140.97</ele>
        <time>2018-07-01T09:19:55Z</time>
      </trkpt>
      <trkpt lat="50.536049986258149" lon="5.576768014580011">
        <ele>140.00999999999999</ele>
        <time>2018-07-01T09:19:56Z</time>
      </trkpt>
      <trkpt lat="50.536041017621756" lon="5.576663995161653">
        <ele>139.53</ele>
        <time>2018-07-01T09:19:57Z</time>
      </trkpt>
      <trkpt lat="50.536004975438118" lon="5.576268034055829">
        <ele>137.61000000000001</ele>
        <time>2018-07-01T09:20:01Z</time>
      </trkpt>
      <trkpt lat="50.535993995144963" lon="5.576140964403749">
        <ele>137.13</ele>
        <time>2018-07-01T09:20:02Z</time>
      </trkpt>
      <trkpt lat="50.536015033721924" lon="5.576064018532634">
        <ele>136.63999999999999</ele>
        <time>2018-07-01T09:20:03Z</time>
      </trkpt>
      <trkpt lat="50.536033976823092" lon="5.575990006327629">
        <ele>136.16</ele>
        <time>2018-07-01T09:20:04Z</time>
      </trkpt>
      <trkpt lat="50.536054009571671" lon="5.575914988294244">
        <ele>135.68000000000001</ele>
        <time>2018-07-01T09:20:05Z</time>
      </trkpt>
      <trkpt lat="50.536118969321251" lon="5.575800994411111">
        <ele>135.19999999999999</ele>
        <time>2018-07-01T09:20:06Z</time>
      </trkpt>
      <trkpt lat="50.536155011504889" lon="5.575783979147673">
        <ele>134.24000000000001</ele>
        <time>2018-07-01T09:20:07Z</time>
      </trkpt>
      <trkpt lat="50.536198010668159" lon="5.575763024389744">
        <ele>133.75999999999999</ele>
        <time>2018-07-01T09:20:08Z</time>
      </trkpt>
      <trkpt lat="50.536283003166318" lon="5.575722036883235">
        <ele>132.31999999999999</ele>
        <time>2018-07-01T09:20:10Z</time>
      </trkpt>
      <trkpt lat="50.53632901981473" lon="5.575700998306274">
        <ele>131.84</ele>
        <time>2018-07-01T09:20:11Z</time>
      </trkpt>
      <trkpt lat="50.536361960694194" lon="5.575684988871217">
        <ele>130.88</ele>
        <time>2018-07-01T09:20:12Z</time>
      </trkpt>
      <trkpt lat="50.536389034241438" lon="5.575671996921301">
        <ele>130.40000000000001</ele>
        <time>2018-07-01T09:20:13Z</time>
      </trkpt>
      <trkpt lat="50.536405965685844" lon="5.575664034113288">
        <ele>129.91999999999999</ele>
        <time>2018-07-01T09:20:14Z</time>
      </trkpt>
      <trkpt lat="50.536424992606044" lon="5.575654981657863">
        <ele>128.94999999999999</ele>
        <time>2018-07-01T09:20:15Z</time>
      </trkpt>
      <trkpt lat="50.536546027287841" lon="5.575667973607779">
        <ele>127.98999999999999</ele>
        <time>2018-07-01T09:20:16Z</time>
      </trkpt>
      <trkpt lat="50.536557007580996" lon="5.575714996084571">
        <ele>127.51000000000001</ele>
        <time>2018-07-01T09:20:17Z</time>
      </trkpt>
      <trkpt lat="50.536573017016053" lon="5.575781967490912">
        <ele>126.55</ele>
        <time>2018-07-01T09:20:18Z</time>
      </trkpt>
      <trkpt lat="50.536591038107872" lon="5.575858997181058">
        <ele>126.06999999999999</ele>
        <time>2018-07-01T09:20:19Z</time>
      </trkpt>
      <trkpt lat="50.536614004522562" lon="5.575953964143992">
        <ele>125.11</ele>
        <time>2018-07-01T09:20:20Z</time>
      </trkpt>
      <trkpt lat="50.536634037271142" lon="5.576038034632802">
        <ele>125.11</ele>
        <time>2018-07-01T09:20:21Z</time>
      </trkpt>
      <trkpt lat="50.536647029221058" lon="5.576092014089227">
        <ele>124.15000000000001</ele>
        <time>2018-07-01T09:20:22Z</time>
      </trkpt>
      <trkpt lat="50.536658009514213" lon="5.576138030737639">
        <ele>123.67</ele>
        <time>2018-07-01T09:20:23Z</time>
      </trkpt>
      <trkpt lat="50.536667983978987" lon="5.576178012415767">
        <ele>122.70999999999999</ele>
        <time>2018-07-01T09:20:24Z</time>
      </trkpt>
      <trkpt lat="50.536677036434412" lon="5.576217994093895">
        <ele>122.22</ele>
        <time>2018-07-01T09:20:25Z</time>
      </trkpt>
      <trkpt lat="50.536686005070806" lon="5.576255964115262">
        <ele>121.73999999999999</ele>
        <time>2018-07-01T09:20:26Z</time>
      </trkpt>
      <trkpt lat="50.536693967878819" lon="5.576288988813758">
        <ele>121.26000000000001</ele>
        <time>2018-07-01T09:20:27Z</time>
      </trkpt>
      <trkpt lat="50.536698997020721" lon="5.576309021562338">
        <ele>120.78</ele>
        <time>2018-07-01T09:20:28Z</time>
      </trkpt>
      <trkpt lat="50.536698997020721" lon="5.576309021562338">
        <ele>120.3</ele>
        <time>2018-07-01T09:20:36Z</time>
      </trkpt>
      <trkpt lat="50.536891026422381" lon="5.57633601129055">
        <ele>120.78</ele>
        <time>2018-07-01T09:20:41Z</time>
      </trkpt>
      <trkpt lat="50.536884991452098" lon="5.576285971328616">
        <ele>121.26000000000001</ele>
        <time>2018-07-01T09:20:42Z</time>
      </trkpt>
      <trkpt lat="50.536874011158943" lon="5.576197961345315">
        <ele>121.73999999999999</ele>
        <time>2018-07-01T09:20:43Z</time>
      </trkpt>
      <trkpt lat="50.536860013380647" lon="5.576081033796072">
        <ele>122.22</ele>
        <time>2018-07-01T09:20:44Z</time>
      </trkpt>
      <trkpt lat="50.536844003945589" lon="5.57594801299274">
        <ele>122.70999999999999</ele>
        <time>2018-07-01T09:20:45Z</time>
      </trkpt>
      <trkpt lat="50.53682598285377" lon="5.57579998858273">
        <ele>123.19</ele>
        <time>2018-07-01T09:20:46Z</time>
      </trkpt>
      <trkpt lat="50.536559019237757" lon="5.573585992679">
        <ele>127.03</ele>
        <time>2018-07-01T09:20:58Z</time>
      </trkpt>
      <trkpt lat="50.536371013149619" lon="5.5716070253402">
        <ele>121.26000000000001</ele>
        <time>2018-07-01T09:21:08Z</time>
      </trkpt>
      <trkpt lat="50.536166997626424" lon="5.569380037486553">
        <ele>118.86</ele>
        <time>2018-07-01T09:21:19Z</time>
      </trkpt>
      <trkpt lat="50.536140007898211" lon="5.569185996428132">
        <ele>118.38</ele>
        <time>2018-07-01T09:21:20Z</time>
      </trkpt>
      <trkpt lat="50.536110000684857" lon="5.568990027531982">
        <ele>117.90000000000001</ele>
        <time>2018-07-01T09:21:21Z</time>
      </trkpt>
      <trkpt lat="50.536073036491871" lon="5.568789029493928">
        <ele>117.42</ele>
        <time>2018-07-01T09:21:22Z</time>
      </trkpt>
      <trkpt lat="50.536034982651472" lon="5.56857998482883">
        <ele>116.94</ele>
        <time>2018-07-01T09:21:23Z</time>
      </trkpt>
      <trkpt lat="50.535808000713587" lon="5.567372990772128">
        <ele>112.13</ele>
        <time>2018-07-01T09:21:29Z</time>
      </trkpt>
      <trkpt lat="50.53545000962913" lon="5.566446036100388">
        <ele>107.31999999999999</ele>
        <time>2018-07-01T09:21:35Z</time>
      </trkpt>
      <trkpt lat="50.535346996039152" lon="5.56636699475348">
        <ele>106.36</ele>
        <time>2018-07-01T09:21:36Z</time>
      </trkpt>
      <trkpt lat="50.535222021862864" lon="5.566270016133785">
        <ele>105.40000000000001</ele>
        <time>2018-07-01T09:21:37Z</time>
      </trkpt>
      <trkpt lat="50.534610981121659" lon="5.565948989242315">
        <ele>100.11</ele>
        <time>2018-07-01T09:21:42Z</time>
      </trkpt>
      <trkpt lat="50.534191969782114" lon="5.565690994262695">
        <ele>96.75</ele>
        <time>2018-07-01T09:21:46Z</time>
      </trkpt>
      <trkpt lat="50.534093985334039" lon="5.565690994262695">
        <ele>96.269999999999996</ele>
        <time>2018-07-01T09:21:47Z</time>
      </trkpt>
      <trkpt lat="50.534014021977782" lon="5.565709015354514">
        <ele>95.310000000000002</ele>
        <time>2018-07-01T09:21:48Z</time>
      </trkpt>
      <trkpt lat="50.533934980630875" lon="5.565761988982558">
        <ele>94.349999999999994</ele>
        <time>2018-07-01T09:21:49Z</time>
      </trkpt>
      <trkpt lat="50.533847976475954" lon="5.565819991752505">
        <ele>93.390000000000001</ele>
        <time>2018-07-01T09:21:50Z</time>
      </trkpt>
      <trkpt lat="50.533797014504671" lon="5.565875982865691">
        <ele>92.420000000000002</ele>
        <time>2018-07-01T09:21:51Z</time>
      </trkpt>
      <trkpt lat="50.533728031441569" lon="5.565952006727457">
        <ele>91.939999999999998</ele>
        <time>2018-07-01T09:21:52Z</time>
      </trkpt>
      <trkpt lat="50.533658964559436" lon="5.566028030589223">
        <ele>91.459999999999994</ele>
        <time>2018-07-01T09:21:53Z</time>
      </trkpt>
      <trkpt lat="50.533587969839573" lon="5.566106988117099">
        <ele>90.980000000000004</ele>
        <time>2018-07-01T09:21:54Z</time>
      </trkpt>
      <trkpt lat="50.533515969291329" lon="5.566188041120768">
        <ele>90.5</ele>
        <time>2018-07-01T09:21:55Z</time>
      </trkpt>
      <trkpt lat="50.533442962914705" lon="5.566270016133785">
        <ele>89.540000000000006</ele>
        <time>2018-07-01T09:21:56Z</time>
      </trkpt>
      <trkpt lat="50.532822031527758" lon="5.566866975277662">
        <ele>87.140000000000001</ele>
        <time>2018-07-01T09:22:04Z</time>
      </trkpt>
      <trkpt lat="50.532774003222585" lon="5.566889019683003">
        <ele>87.140000000000001</ele>
        <time>2018-07-01T09:22:05Z</time>
      </trkpt>
      <trkpt lat="50.532727986574173" lon="5.566910980269313">
        <ele>86.659999999999997</ele>
        <time>2018-07-01T09:22:06Z</time>
      </trkpt>
      <trkpt lat="50.532681969925761" lon="5.566932018846273">
        <ele>86.659999999999997</ele>
        <time>2018-07-01T09:22:07Z</time>
      </trkpt>
      <trkpt lat="50.532631007954478" lon="5.566955991089344">
        <ele>86.659999999999997</ele>
        <time>2018-07-01T09:22:08Z</time>
      </trkpt>
      <trkpt lat="50.532354991883039" lon="5.566979041323066">
        <ele>86.659999999999997</ele>
        <time>2018-07-01T09:22:12Z</time>
      </trkpt>
      <trkpt lat="50.531859034672379" lon="5.566933024674654">
        <ele>87.620000000000005</ele>
        <time>2018-07-01T09:22:19Z</time>
      </trkpt>
      <trkpt lat="50.531810000538826" lon="5.566924978047609">
        <ele>88.099999999999994</ele>
        <time>2018-07-01T09:22:20Z</time>
      </trkpt>
      <trkpt lat="50.531759038567543" lon="5.566789023578167">
        <ele>88.099999999999994</ele>
        <time>2018-07-01T09:22:21Z</time>
      </trkpt>
      <trkpt lat="50.531769013032317" lon="5.566691039130092">
        <ele>88.099999999999994</ele>
        <time>2018-07-01T09:22:22Z</time>
      </trkpt>
      <trkpt lat="50.531782004982233" lon="5.566571010276675">
        <ele>88.099999999999994</ele>
        <time>2018-07-01T09:22:23Z</time>
      </trkpt>
      <trkpt lat="50.53179700858891" lon="5.566433966159821">
        <ele>88.099999999999994</ele>
        <time>2018-07-01T09:22:24Z</time>
      </trkpt>
      <trkpt lat="50.53177303634584" lon="5.565136028453708">
        <ele>88.099999999999994</ele>
        <time>2018-07-01T09:22:31Z</time>
      </trkpt>
      <trkpt lat="50.531620988622308" lon="5.563298966735601">
        <ele>89.060000000000002</ele>
        <time>2018-07-01T09:22:40Z</time>
      </trkpt>
      <trkpt lat="50.531515963375568" lon="5.561845963820815">
        <ele>91.939999999999998</ele>
        <time>2018-07-01T09:22:47Z</time>
      </trkpt>
      <trkpt lat="50.531491991132498" lon="5.56142795830965">
        <ele>92.900000000000006</ele>
        <time>2018-07-01T09:22:49Z</time>
      </trkpt>
      <trkpt lat="50.531649990007281" lon="5.559498025104404">
        <ele>98.670000000000002</ele>
        <time>2018-07-01T09:22:58Z</time>
      </trkpt>
      <trkpt lat="50.531860962510109" lon="5.557333985343576">
        <ele>99.629999999999995</ele>
        <time>2018-07-01T09:23:08Z</time>
      </trkpt>
      <trkpt lat="50.532060032710433" lon="5.555940996855497">
        <ele>98.670000000000002</ele>
        <time>2018-07-01T09:23:15Z</time>
      </trkpt>
      <trkpt lat="50.532106971368194" lon="5.555749973282218">
        <ele>98.189999999999998</ele>
        <time>2018-07-01T09:23:16Z</time>
      </trkpt>
      <trkpt lat="50.532186012715101" lon="5.555579988285899">
        <ele>98.189999999999998</ele>
        <time>2018-07-01T09:23:17Z</time>
      </trkpt>
      <trkpt lat="50.532266981899738" lon="5.555415032431483">
        <ele>98.189999999999998</ele>
        <time>2018-07-01T09:23:18Z</time>
      </trkpt>
      <trkpt lat="50.532349040731788" lon="5.555248986929655">
        <ele>97.709999999999994</ele>
        <time>2018-07-01T09:23:19Z</time>
      </trkpt>
      <trkpt lat="50.532679958269" lon="5.554574998095632">
        <ele>95.790000000000006</ele>
        <time>2018-07-01T09:23:23Z</time>
      </trkpt>
      <trkpt lat="50.532813984900713" lon="5.554202003404498">
        <ele>95.310000000000002</ele>
        <time>2018-07-01T09:23:25Z</time>
      </trkpt>
      <trkpt lat="50.532882967963815" lon="5.553996982052922">
        <ele>94.829999999999998</ele>
        <time>2018-07-01T09:23:26Z</time>
      </trkpt>
      <trkpt lat="50.532912975177169" lon="5.553790032863617">
        <ele>94.829999999999998</ele>
        <time>2018-07-01T09:23:27Z</time>
      </trkpt>
      <trkpt lat="50.533119002357125" lon="5.551985995844007">
        <ele>90.980000000000004</ele>
        <time>2018-07-01T09:23:36Z</time>
      </trkpt>
      <trkpt lat="50.533099975436926" lon="5.551772005856037">
        <ele>90.980000000000004</ele>
        <time>2018-07-01T09:23:37Z</time>
      </trkpt>
      <trkpt lat="50.532970977947116" lon="5.551313012838364">
        <ele>90.980000000000004</ele>
        <time>2018-07-01T09:23:39Z</time>
      </trkpt>
      <trkpt lat="50.532153993844986" lon="5.549175040796399">
        <ele>91.459999999999994</ele>
        <time>2018-07-01T09:23:48Z</time>
      </trkpt>
      <trkpt lat="50.531530966982245" lon="5.547005971893668">
        <ele>93.390000000000001</ele>
        <time>2018-07-01T09:23:55Z</time>
      </trkpt>
      <trkpt lat="50.53091598674655" lon="5.544447982683778">
        <ele>95.790000000000006</ele>
        <time>2018-07-01T09:24:03Z</time>
      </trkpt>
      <trkpt lat="50.530709037557244" lon="5.543468976393342">
        <ele>96.269999999999996</ele>
        <time>2018-07-01T09:24:07Z</time>
      </trkpt>
      <trkpt lat="50.530694033950567" lon="5.543332016095519">
        <ele>96.269999999999996</ele>
        <time>2018-07-01T09:24:08Z</time>
      </trkpt>
      <trkpt lat="50.530748013406992" lon="5.543213998898864">
        <ele>96.269999999999996</ele>
        <time>2018-07-01T09:24:09Z</time>
      </trkpt>
      <trkpt lat="50.530800987035036" lon="5.543095981702209">
        <ele>96.269999999999996</ele>
        <time>2018-07-01T09:24:10Z</time>
      </trkpt>
      <trkpt lat="50.530890002846718" lon="5.543007971718907">
        <ele>96.269999999999996</ele>
        <time>2018-07-01T09:24:11Z</time>
      </trkpt>
      <trkpt lat="50.531006008386612" lon="5.542942006140947">
        <ele>96.269999999999996</ele>
        <time>2018-07-01T09:24:12Z</time>
      </trkpt>
      <trkpt lat="50.531143974512815" lon="5.542933037504554">
        <ele>96.269999999999996</ele>
        <time>2018-07-01T09:24:13Z</time>
      </trkpt>
      <trkpt lat="50.531290993094444" lon="5.542922979220748">
        <ele>96.269999999999996</ele>
        <time>2018-07-01T09:24:14Z</time>
      </trkpt>
      <trkpt lat="50.531457038596272" lon="5.542910993099213">
        <ele>96.75</ele>
        <time>2018-07-01T09:24:15Z</time>
      </trkpt>
      <trkpt lat="50.531628029420972" lon="5.54286397062242">
        <ele>96.75</ele>
        <time>2018-07-01T09:24:16Z</time>
      </trkpt>
      <trkpt lat="50.531772030517459" lon="5.542761040851474">
        <ele>97.230000000000004</ele>
        <time>2018-07-01T09:24:17Z</time>
      </trkpt>
      <trkpt lat="50.531901028007269" lon="5.54262600839138">
        <ele>97.230000000000004</ele>
        <time>2018-07-01T09:24:18Z</time>
      </trkpt>
      <trkpt lat="50.53198903799057" lon="5.542427022010088">
        <ele>97.709999999999994</ele>
        <time>2018-07-01T09:24:19Z</time>
      </trkpt>
      <trkpt lat="50.532035976648331" lon="5.542189981788397">
        <ele>98.189999999999998</ele>
        <time>2018-07-01T09:24:20Z</time>
      </trkpt>
      <trkpt lat="50.532053997740149" lon="5.541955959051848">
        <ele>98.670000000000002</ele>
        <time>2018-07-01T09:24:21Z</time>
      </trkpt>
      <trkpt lat="50.532053997740149" lon="5.541715985164046">
        <ele>99.150000000000006</ele>
        <time>2018-07-01T09:24:22Z</time>
      </trkpt>
      <trkpt lat="50.532006975263357" lon="5.54146402515471">
        <ele>99.150000000000006</ele>
        <time>2018-07-01T09:24:23Z</time>
      </trkpt>
      <trkpt lat="50.531823998317122" lon="5.54054100997746">
        <ele>99.629999999999995</ele>
        <time>2018-07-01T09:24:26Z</time>
      </trkpt>
      <trkpt lat="50.531749986112118" lon="5.540205985307694">
        <ele>99.629999999999995</ele>
        <time>2018-07-01T09:24:27Z</time>
      </trkpt>
      <trkpt lat="50.531328041106462" lon="5.538430027663708">
        <ele>100.59999999999999</ele>
        <time>2018-07-01T09:24:33Z</time>
      </trkpt>
      <trkpt lat="50.531221004202962" lon="5.538179995492101">
        <ele>101.08</ele>
        <time>2018-07-01T09:24:34Z</time>
      </trkpt>
      <trkpt lat="50.531104998663068" lon="5.537966005504131">
        <ele>101.56</ele>
        <time>2018-07-01T09:24:35Z</time>
      </trkpt>
      <trkpt lat="50.5309790186584" lon="5.537815969437361">
        <ele>101.56</ele>
        <time>2018-07-01T09:24:36Z</time>
      </trkpt>
      <trkpt lat="50.53082998842001" lon="5.537721002474427">
        <ele>102.04000000000001</ele>
        <time>2018-07-01T09:24:37Z</time>
      </trkpt>
      <trkpt lat="50.530666960403323" lon="5.537617988884449">
        <ele>102.52</ele>
        <time>2018-07-01T09:24:38Z</time>
      </trkpt>
      <trkpt lat="50.530494963750243" lon="5.537508018314838">
        <ele>102.52</ele>
        <time>2018-07-01T09:24:39Z</time>
      </trkpt>
      <trkpt lat="50.530320033431053" lon="5.537396958097816">
        <ele>102.04000000000001</ele>
        <time>2018-07-01T09:24:40Z</time>
      </trkpt>
      <trkpt lat="50.530138984322548" lon="5.537281958386302">
        <ele>102.52</ele>
        <time>2018-07-01T09:24:41Z</time>
      </trkpt>
      <trkpt lat="50.529033998027444" lon="5.536535969004035">
        <ele>103.95999999999999</ele>
        <time>2018-07-01T09:24:48Z</time>
      </trkpt>
      <trkpt lat="50.528909023851156" lon="5.536403032019734">
        <ele>103.95999999999999</ele>
        <time>2018-07-01T09:24:49Z</time>
      </trkpt>
      <trkpt lat="50.528793018311262" lon="5.536217959597707">
        <ele>104.44</ele>
        <time>2018-07-01T09:24:50Z</time>
      </trkpt>
      <trkpt lat="50.528696039691567" lon="5.536024002358317">
        <ele>104.92</ele>
        <time>2018-07-01T09:24:51Z</time>
      </trkpt>
      <trkpt lat="50.528619010001421" lon="5.535782016813755">
        <ele>104.92</ele>
        <time>2018-07-01T09:24:52Z</time>
      </trkpt>
      <trkpt lat="50.528540974482894" lon="5.53553500212729">
        <ele>105.40000000000001</ele>
        <time>2018-07-01T09:24:53Z</time>
      </trkpt>
      <trkpt lat="50.528462016955018" lon="5.535287987440825">
        <ele>105.40000000000001</ele>
        <time>2018-07-01T09:24:54Z</time>
      </trkpt>
      <trkpt lat="50.528178038075566" lon="5.533627029508352">
        <ele>105.40000000000001</ele>
        <time>2018-07-01T09:25:00Z</time>
      </trkpt>
      <trkpt lat="50.528036970645189" lon="5.532630002126098">
        <ele>105.88</ele>
        <time>2018-07-01T09:25:04Z</time>
      </trkpt>
      <trkpt lat="50.527999000623822" lon="5.532101020216942">
        <ele>105.40000000000001</ele>
        <time>2018-07-01T09:25:06Z</time>
      </trkpt>
      <trkpt lat="50.527938986197114" lon="5.530682969838381">
        <ele>104.44</ele>
        <time>2018-07-01T09:25:13Z</time>
      </trkpt>
      <trkpt lat="50.527932029217482" lon="5.530445007607341">
        <ele>103.95999999999999</ele>
        <time>2018-07-01T09:25:17Z</time>
      </trkpt>
      <trkpt lat="50.527931023389101" lon="5.530392033979297">
        <ele>103.95999999999999</ele>
        <time>2018-07-01T09:25:18Z</time>
      </trkpt>
      <trkpt lat="50.527899004518986" lon="5.530240992084146">
        <ele>103.95999999999999</ele>
        <time>2018-07-01T09:25:19Z</time>
      </trkpt>
      <trkpt lat="50.5278239864856" lon="5.530235040932894">
        <ele>104.44</ele>
        <time>2018-07-01T09:25:20Z</time>
      </trkpt>
      <trkpt lat="50.527739999815822" lon="5.53022900596261">
        <ele>104.92</ele>
        <time>2018-07-01T09:25:21Z</time>
      </trkpt>
      <trkpt lat="50.527635980397463" lon="5.53020897321403">
        <ele>104.92</ele>
        <time>2018-07-01T09:25:22Z</time>
      </trkpt>
      <trkpt lat="50.527540007606149" lon="5.530092967674136">
        <ele>105.40000000000001</ele>
        <time>2018-07-01T09:25:23Z</time>
      </trkpt>
      <trkpt lat="50.527447974309325" lon="5.529923988506198">
        <ele>106.36</ele>
        <time>2018-07-01T09:25:24Z</time>
      </trkpt>
      <trkpt lat="50.527307996526361" lon="5.529450997710228">
        <ele>106.84</ele>
        <time>2018-07-01T09:25:26Z</time>
      </trkpt>
      <trkpt lat="50.527250999584794" lon="5.529165007174015">
        <ele>107.31999999999999</ele>
        <time>2018-07-01T09:25:27Z</time>
      </trkpt>
      <trkpt lat="50.526887979358435" lon="5.527213029563427">
        <ele>109.25</ele>
        <time>2018-07-01T09:25:33Z</time>
      </trkpt>
      <trkpt lat="50.526855038478971" lon="5.526888985186815">
        <ele>109.25</ele>
        <time>2018-07-01T09:25:34Z</time>
      </trkpt>
      <trkpt lat="50.526867024600506" lon="5.526567036285996">
        <ele>109.25</ele>
        <time>2018-07-01T09:25:35Z</time>
      </trkpt>
      <trkpt lat="50.526872975751758" lon="5.524153970181942">
        <ele>110.20999999999999</ele>
        <time>2018-07-01T09:25:42Z</time>
      </trkpt>
      <trkpt lat="50.526713971048594" lon="5.521842995658517">
        <ele>113.09</ele>
        <time>2018-07-01T09:25:49Z</time>
      </trkpt>
      <trkpt lat="50.526462011039257" lon="5.519289029762149">
        <ele>115.5</ele>
        <time>2018-07-01T09:25:57Z</time>
      </trkpt>
      <trkpt lat="50.526389004662633" lon="5.519020976498723">
        <ele>115.98</ele>
        <time>2018-07-01T09:25:58Z</time>
      </trkpt>
      <trkpt lat="50.526289008557796" lon="5.518787037581205">
        <ele>115.98</ele>
        <time>2018-07-01T09:25:59Z</time>
      </trkpt>
      <trkpt lat="50.526150958612561" lon="5.518586039543152">
        <ele>116.45999999999999</ele>
        <time>2018-07-01T09:26:00Z</time>
      </trkpt>
      <trkpt lat="50.526003018021584" lon="5.518370037898421">
        <ele>116.45999999999999</ele>
        <time>2018-07-01T09:26:01Z</time>
      </trkpt>
      <trkpt lat="50.525847030803561" lon="5.518141966313124">
        <ele>116.94</ele>
        <time>2018-07-01T09:26:02Z</time>
      </trkpt>
      <trkpt lat="50.525696994736791" lon="5.517871985211968">
        <ele>117.42</ele>
        <time>2018-07-01T09:26:03Z</time>
      </trkpt>
      <trkpt lat="50.525545030832291" lon="5.517577026039362">
        <ele>117.42</ele>
        <time>2018-07-01T09:26:04Z</time>
      </trkpt>
      <trkpt lat="50.525095006451011" lon="5.516611011698842">
        <ele>117.90000000000001</ele>
        <time>2018-07-01T09:26:07Z</time>
      </trkpt>
      <trkpt lat="50.52494103088975" lon="5.516269030049443">
        <ele>118.38</ele>
        <time>2018-07-01T09:26:08Z</time>
      </trkpt>
      <trkpt lat="50.524785965681076" lon="5.515923025086522">
        <ele>118.86</ele>
        <time>2018-07-01T09:26:09Z</time>
      </trkpt>
      <trkpt lat="50.524026984348893" lon="5.514141032472253">
        <ele>121.26000000000001</ele>
        <time>2018-07-01T09:26:15Z</time>
      </trkpt>
      <trkpt lat="50.523634040728211" lon="5.513070998713374">
        <ele>123.67</ele>
        <time>2018-07-01T09:26:19Z</time>
      </trkpt>
      <trkpt lat="50.523597998544574" lon="5.51258702762425">
        <ele>124.15000000000001</ele>
        <time>2018-07-01T09:26:21Z</time>
      </trkpt>
      <trkpt lat="50.523609984666109" lon="5.512401033192873">
        <ele>124.15000000000001</ele>
        <time>2018-07-01T09:26:22Z</time>
      </trkpt>
      <trkpt lat="50.523651978000998" lon="5.512258037924767">
        <ele>124.15000000000001</ele>
        <time>2018-07-01T09:26:23Z</time>
      </trkpt>
      <trkpt lat="50.523706963285804" lon="5.512131974101067">
        <ele>124.15000000000001</ele>
        <time>2018-07-01T09:26:24Z</time>
      </trkpt>
      <trkpt lat="50.523763038218021" lon="5.512002976611257">
        <ele>124.63</ele>
        <time>2018-07-01T09:26:25Z</time>
      </trkpt>
      <trkpt lat="50.523827997967601" lon="5.511854030191898">
        <ele>124.63</ele>
        <time>2018-07-01T09:26:26Z</time>
      </trkpt>
      <trkpt lat="50.523898992687464" lon="5.511725032702088">
        <ele>124.63</ele>
        <time>2018-07-01T09:26:27Z</time>
      </trkpt>
      <trkpt lat="50.523980967700481" lon="5.511577008292079">
        <ele>124.63</ele>
        <time>2018-07-01T09:26:28Z</time>
      </trkpt>
      <trkpt lat="50.524258995428681" lon="5.511074010282755">
        <ele>124.63</ele>
        <time>2018-07-01T09:26:31Z</time>
      </trkpt>
      <trkpt lat="50.524315992370248" lon="5.510863037779927">
        <ele>124.63</ele>
        <time>2018-07-01T09:26:32Z</time>
      </trkpt>
      <trkpt lat="50.524321021512151" lon="5.510616023093462">
        <ele>125.11</ele>
        <time>2018-07-01T09:26:33Z</time>
      </trkpt>
      <trkpt lat="50.524278022348881" lon="5.510380994528532">
        <ele>125.11</ele>
        <time>2018-07-01T09:26:34Z</time>
      </trkpt>
      <trkpt lat="50.524214990437031" lon="5.510138003155589">
        <ele>125.59</ele>
        <time>2018-07-01T09:26:35Z</time>
      </trkpt>
      <trkpt lat="50.524132009595633" lon="5.509894005954266">
        <ele>125.59</ele>
        <time>2018-07-01T09:26:36Z</time>
      </trkpt>
      <trkpt lat="50.523691959679127" lon="5.508902007713914">
        <ele>127.98999999999999</ele>
        <time>2018-07-01T09:26:40Z</time>
      </trkpt>
      <trkpt lat="50.523533038794994" lon="5.508708972483873">
        <ele>128.47</ele>
        <time>2018-07-01T09:26:41Z</time>
      </trkpt>
      <trkpt lat="50.523227015510201" lon="5.508338995277882">
        <ele>129.91999999999999</ele>
        <time>2018-07-01T09:26:43Z</time>
      </trkpt>
      <trkpt lat="50.523120984435081" lon="5.508114024996758">
        <ele>130.40000000000001</ele>
        <time>2018-07-01T09:26:44Z</time>
      </trkpt>
      <trkpt lat="50.5230319686234" lon="5.507888970896602">
        <ele>130.88</ele>
        <time>2018-07-01T09:26:45Z</time>
      </trkpt>
      <trkpt lat="50.522999027743936" lon="5.50764799118042">
        <ele>131.36000000000001</ele>
        <time>2018-07-01T09:26:46Z</time>
      </trkpt>
      <trkpt lat="50.523003973066807" lon="5.507413968443871">
        <ele>131.84</ele>
        <time>2018-07-01T09:26:47Z</time>
      </trkpt>
      <trkpt lat="50.523022999987006" lon="5.507162008434534">
        <ele>132.31999999999999</ele>
        <time>2018-07-01T09:26:48Z</time>
      </trkpt>
      <trkpt lat="50.523069016635418" lon="5.506915999576449">
        <ele>132.80000000000001</ele>
        <time>2018-07-01T09:26:49Z</time>
      </trkpt>
      <trkpt lat="50.523153003305197" lon="5.506654987111688">
        <ele>133.28</ele>
        <time>2018-07-01T09:26:50Z</time>
      </trkpt>
      <trkpt lat="50.523241013288498" lon="5.506381988525391">
        <ele>133.75999999999999</ele>
        <time>2018-07-01T09:26:51Z</time>
      </trkpt>
      <trkpt lat="50.523322988301516" lon="5.506126005202532">
        <ele>134.24000000000001</ele>
        <time>2018-07-01T09:26:52Z</time>
      </trkpt>
      <trkpt lat="50.523484004661441" lon="5.505443969741464">
        <ele>135.68000000000001</ele>
        <time>2018-07-01T09:26:55Z</time>
      </trkpt>
      <trkpt lat="50.52350596524775" lon="5.505235008895397">
        <ele>135.68000000000001</ele>
        <time>2018-07-01T09:26:56Z</time>
      </trkpt>
      <trkpt lat="50.52350596524775" lon="5.504998974502087">
        <ele>135.68000000000001</ele>
        <time>2018-07-01T09:26:57Z</time>
      </trkpt>
      <trkpt lat="50.523480987176299" lon="5.504751959815621">
        <ele>135.68000000000001</ele>
        <time>2018-07-01T09:26:58Z</time>
      </trkpt>
      <trkpt lat="50.52341996692121" lon="5.50448901951313">
        <ele>135.68000000000001</ele>
        <time>2018-07-01T09:26:59Z</time>
      </trkpt>
      <trkpt lat="50.523356013000011" lon="5.504215015098453">
        <ele>136.16</ele>
        <time>2018-07-01T09:27:00Z</time>
      </trkpt>
      <trkpt lat="50.522630978375673" lon="5.502358004450798">
        <ele>137.61000000000001</ele>
        <time>2018-07-01T09:27:06Z</time>
      </trkpt>
      <trkpt lat="50.521373022347689" lon="5.500102015212178">
        <ele>139.53</ele>
        <time>2018-07-01T09:27:14Z</time>
      </trkpt>
      <trkpt lat="50.520479008555412" lon="5.498663010075688">
        <ele>141.44999999999999</ele>
        <time>2018-07-01T09:27:20Z</time>
      </trkpt>
      <trkpt lat="50.520349005237222" lon="5.498521020635963">
        <ele>141.93000000000001</ele>
        <time>2018-07-01T09:27:21Z</time>
      </trkpt>
      <trkpt lat="50.520223025232553" lon="5.498439967632294">
        <ele>142.88999999999999</ele>
        <time>2018-07-01T09:27:22Z</time>
      </trkpt>
      <trkpt lat="50.520094027742743" lon="5.498421024531126">
        <ele>143.37</ele>
        <time>2018-07-01T09:27:23Z</time>
      </trkpt>
      <trkpt lat="50.519954971969128" lon="5.498484978452325">
        <ele>143.84999999999999</ele>
        <time>2018-07-01T09:27:24Z</time>
      </trkpt>
      <trkpt lat="50.519800996407866" lon="5.498555973172188">
        <ele>143.84999999999999</ele>
        <time>2018-07-01T09:27:25Z</time>
      </trkpt>
      <trkpt lat="50.519468989223242" lon="5.4987090267241">
        <ele>144.34</ele>
        <time>2018-07-01T09:27:27Z</time>
      </trkpt>
      <trkpt lat="50.519305961206555" lon="5.498783038929105">
        <ele>144.81999999999999</ele>
        <time>2018-07-01T09:27:28Z</time>
      </trkpt>
      <trkpt lat="50.519139999523759" lon="5.498745990917087">
        <ele>144.81999999999999</ele>
        <time>2018-07-01T09:27:29Z</time>
      </trkpt>
      <trkpt lat="50.518962973728776" lon="5.498701985925436">
        <ele>144.81999999999999</ele>
        <time>2018-07-01T09:27:30Z</time>
      </trkpt>
      <trkpt lat="50.518785025924444" lon="5.498656975105405">
        <ele>145.30000000000001</ele>
        <time>2018-07-01T09:27:31Z</time>
      </trkpt>
      <trkpt lat="50.518620992079377" lon="5.498585980385542">
        <ele>145.30000000000001</ele>
        <time>2018-07-01T09:27:32Z</time>
      </trkpt>
      <trkpt lat="50.518462993204594" lon="5.498485984280706">
        <ele>145.78</ele>
        <time>2018-07-01T09:27:33Z</time>
      </trkpt>
      <trkpt lat="50.518370037898421" lon="5.498352041468024">
        <ele>146.25999999999999</ele>
        <time>2018-07-01T09:27:34Z</time>
      </trkpt>
      <trkpt lat="50.518278004601598" lon="5.49817300401628">
        <ele>146.74000000000001</ele>
        <time>2018-07-01T09:27:35Z</time>
      </trkpt>
      <trkpt lat="50.518203992396593" lon="5.497965971007943">
        <ele>147.22</ele>
        <time>2018-07-01T09:27:36Z</time>
      </trkpt>
      <trkpt lat="50.518127968534827" lon="5.497753992676735">
        <ele>148.18000000000001</ele>
        <time>2018-07-01T09:27:37Z</time>
      </trkpt>
      <trkpt lat="50.518049011006951" lon="5.497535979375243">
        <ele>148.66</ele>
        <time>2018-07-01T09:27:38Z</time>
      </trkpt>
      <trkpt lat="50.517969969660044" lon="5.497310003265739">
        <ele>149.13999999999999</ele>
        <time>2018-07-01T09:27:39Z</time>
      </trkpt>
      <trkpt lat="50.517312996089458" lon="5.495644016191363">
        <ele>152.99000000000001</ele>
        <time>2018-07-01T09:27:47Z</time>
      </trkpt>
      <trkpt lat="50.516259977594018" lon="5.494168968871236">
        <ele>159.72</ele>
        <time>2018-07-01T09:27:55Z</time>
      </trkpt>
      <trkpt lat="50.516138020902872" lon="5.493997978046536">
        <ele>160.19999999999999</ele>
        <time>2018-07-01T09:27:56Z</time>
      </trkpt>
      <trkpt lat="50.515960995107889" lon="5.493572009727359">
        <ele>162.12</ele>
        <time>2018-07-01T09:27:58Z</time>
      </trkpt>
      <trkpt lat="50.51587600260973" lon="5.493357013911009">
        <ele>163.08000000000001</ele>
        <time>2018-07-01T09:27:59Z</time>
      </trkpt>
      <trkpt lat="50.515535026788712" lon="5.492537012323737">
        <ele>167.41</ele>
        <time>2018-07-01T09:28:03Z</time>
      </trkpt>
      <trkpt lat="50.515433019027114" lon="5.492383958771825">
        <ele>168.37</ele>
        <time>2018-07-01T09:28:04Z</time>
      </trkpt>
      <trkpt lat="50.515351966023445" lon="5.49226300790906">
        <ele>169.33000000000001</ele>
        <time>2018-07-01T09:28:05Z</time>
      </trkpt>
      <trkpt lat="50.515235960483551" lon="5.492205005139113">
        <ele>170.28999999999999</ele>
        <time>2018-07-01T09:28:06Z</time>
      </trkpt>
      <trkpt lat="50.515129007399082" lon="5.492152031511068">
        <ele>170.77000000000001</ele>
        <time>2018-07-01T09:28:07Z</time>
      </trkpt>
      <trkpt lat="50.515042003244162" lon="5.492165023460984">
        <ele>171.72999999999999</ele>
        <time>2018-07-01T09:28:08Z</time>
      </trkpt>
      <trkpt lat="50.514937983825803" lon="5.492225959897041">
        <ele>172.69</ele>
        <time>2018-07-01T09:28:09Z</time>
      </trkpt>
      <trkpt lat="50.514826001599431" lon="5.492292009294033">
        <ele>173.16999999999999</ele>
        <time>2018-07-01T09:28:10Z</time>
      </trkpt>
      <trkpt lat="50.514343036338687" lon="5.492596020922065">
        <ele>173.16999999999999</ele>
        <time>2018-07-01T09:28:14Z</time>
      </trkpt>
      <trkpt lat="50.514208003878593" lon="5.492683025076985">
        <ele>173.66</ele>
        <time>2018-07-01T09:28:15Z</time>
      </trkpt>
      <trkpt lat="50.514055034145713" lon="5.492682019248605">
        <ele>173.66</ele>
        <time>2018-07-01T09:28:16Z</time>
      </trkpt>
      <trkpt lat="50.513906003907323" lon="5.492671960964799">
        <ele>174.13999999999999</ele>
        <time>2018-07-01T09:28:17Z</time>
      </trkpt>
      <trkpt lat="50.513773988932371" lon="5.492568025365472">
        <ele>174.62</ele>
        <time>2018-07-01T09:28:18Z</time>
      </trkpt>
      <trkpt lat="50.513644991442561" lon="5.492455959320068">
        <ele>175.09999999999999</ele>
        <time>2018-07-01T09:28:19Z</time>
      </trkpt>
      <trkpt lat="50.513524040579796" lon="5.49235001206398">
        <ele>175.09999999999999</ele>
        <time>2018-07-01T09:28:20Z</time>
      </trkpt>
      <trkpt lat="50.513398982584476" lon="5.492240963503718">
        <ele>175.58000000000001</ele>
        <time>2018-07-01T09:28:21Z</time>
      </trkpt>
      <trkpt lat="50.513304015621543" lon="5.492090005427599">
        <ele>176.06</ele>
        <time>2018-07-01T09:28:22Z</time>
      </trkpt>
      <trkpt lat="50.513211982324719" lon="5.49194198101759">
        <ele>176.53999999999999</ele>
        <time>2018-07-01T09:28:23Z</time>
      </trkpt>
      <trkpt lat="50.512831024825573" lon="5.491185011342168">
        <ele>179.90000000000001</ele>
        <time>2018-07-01T09:28:28Z</time>
      </trkpt>
      <trkpt lat="50.512802023440599" lon="5.490994993597269">
        <ele>180.87</ele>
        <time>2018-07-01T09:28:29Z</time>
      </trkpt>
      <trkpt lat="50.512777967378497" lon="5.490805981680751">
        <ele>181.83000000000001</ele>
        <time>2018-07-01T09:28:30Z</time>
      </trkpt>
      <trkpt lat="50.512833958491683" lon="5.489713987335563">
        <ele>187.11000000000001</ele>
        <time>2018-07-01T09:28:35Z</time>
      </trkpt>
      <trkpt lat="50.512834964320064" lon="5.489499997347593">
        <ele>188.08000000000001</ele>
        <time>2018-07-01T09:28:36Z</time>
      </trkpt>
      <trkpt lat="50.51280596293509" lon="5.489282989874482">
        <ele>189.03999999999999</ele>
        <time>2018-07-01T09:28:37Z</time>
      </trkpt>
      <trkpt lat="50.512736979871988" lon="5.489075034856796">
        <ele>189.03999999999999</ele>
        <time>2018-07-01T09:28:38Z</time>
      </trkpt>
      <trkpt lat="50.512650981545448" lon="5.488874958828092">
        <ele>189.03999999999999</ele>
        <time>2018-07-01T09:28:39Z</time>
      </trkpt>
      <trkpt lat="50.512537993490696" lon="5.488699022680521">
        <ele>188.56</ele>
        <time>2018-07-01T09:28:40Z</time>
      </trkpt>
      <trkpt lat="50.51241796463728" lon="5.488514034077525">
        <ele>188.08000000000001</ele>
        <time>2018-07-01T09:28:41Z</time>
      </trkpt>
      <trkpt lat="50.512290978804231" lon="5.488316975533962">
        <ele>187.11000000000001</ele>
        <time>2018-07-01T09:28:42Z</time>
      </trkpt>
      <trkpt lat="50.510932020843029" lon="5.486587034538388">
        <ele>179.41999999999999</ele>
        <time>2018-07-01T09:28:51Z</time>
      </trkpt>
      <trkpt lat="50.510230036452413" lon="5.48547500744462">
        <ele>177.02000000000001</ele>
        <time>2018-07-01T09:28:56Z</time>
      </trkpt>
      <trkpt lat="50.509103005751967" lon="5.482834037393332">
        <ele>175.09999999999999</ele>
        <time>2018-07-01T09:29:06Z</time>
      </trkpt>
      <trkpt lat="50.508104972541332" lon="5.480979038402438">
        <ele>176.53999999999999</ele>
        <time>2018-07-01T09:29:14Z</time>
      </trkpt>
      <trkpt lat="50.506958998739719" lon="5.479185981675983">
        <ele>177.02000000000001</ele>
        <time>2018-07-01T09:29:23Z</time>
      </trkpt>
      <trkpt lat="50.506664961576462" lon="5.478725982829928">
        <ele>177.97999999999999</ele>
        <time>2018-07-01T09:29:27Z</time>
      </trkpt>
      <trkpt lat="50.506623974069953" lon="5.478660017251968">
        <ele>178.46000000000001</ele>
        <time>2018-07-01T09:29:28Z</time>
      </trkpt>
      <trkpt lat="50.506637971848249" lon="5.478452984243631">
        <ele>178.94</ele>
        <time>2018-07-01T09:29:29Z</time>
      </trkpt>
      <trkpt lat="50.506683988496661" lon="5.478399004787207">
        <ele>178.94</ele>
        <time>2018-07-01T09:29:30Z</time>
      </trkpt>
      <trkpt lat="50.506752971559763" lon="5.47831803560257">
        <ele>179.41999999999999</ele>
        <time>2018-07-01T09:29:31Z</time>
      </trkpt>
      <trkpt lat="50.506850033998489" lon="5.478204041719437">
        <ele>179.41999999999999</ele>
        <time>2018-07-01T09:29:32Z</time>
      </trkpt>
      <trkpt lat="50.506966961547732" lon="5.478065991774201">
        <ele>179.90000000000001</ele>
        <time>2018-07-01T09:29:33Z</time>
      </trkpt>
      <trkpt lat="50.507848989218473" lon="5.477028982713819">
        <ele>180.38</ele>
        <time>2018-07-01T09:29:38Z</time>
      </trkpt>
      <trkpt lat="50.509014995768666" lon="5.475658038631082">
        <ele>181.83000000000001</ele>
        <time>2018-07-01T09:29:44Z</time>
      </trkpt>
      <trkpt lat="50.511467037722468" lon="5.472790002822876">
        <ele>187.59</ele>
        <time>2018-07-01T09:29:57Z</time>
      </trkpt>
      <trkpt lat="50.51254796795547" lon="5.471524000167847">
        <ele>194.31999999999999</ele>
        <time>2018-07-01T09:30:03Z</time>
      </trkpt>
      <trkpt lat="50.51267696544528" lon="5.471324007958174">
        <ele>195.28</ele>
        <time>2018-07-01T09:30:04Z</time>
      </trkpt>
      <trkpt lat="50.512791965156794" lon="5.471088979393244">
        <ele>196.72999999999999</ele>
        <time>2018-07-01T09:30:05Z</time>
      </trkpt>
      <trkpt lat="50.512839993461967" lon="5.470827966928482">
        <ele>197.69</ele>
        <time>2018-07-01T09:30:06Z</time>
      </trkpt>
      <trkpt lat="50.512891039252281" lon="5.470551028847694">
        <ele>198.65000000000001</ele>
        <time>2018-07-01T09:30:07Z</time>
      </trkpt>
      <trkpt lat="50.512936972081661" lon="5.470259003341198">
        <ele>199.13</ele>
        <time>2018-07-01T09:30:08Z</time>
      </trkpt>
      <trkpt lat="50.51331901922822" lon="5.467512002214789">
        <ele>209.69999999999999</ele>
        <time>2018-07-01T09:30:16Z</time>
      </trkpt>
      <trkpt lat="50.51344801671803" lon="5.46650399453938">
        <ele>214.03</ele>
        <time>2018-07-01T09:30:19Z</time>
      </trkpt>
      <trkpt lat="50.513463020324707" lon="5.466219009831548">
        <ele>214.99000000000001</ele>
        <time>2018-07-01T09:30:20Z</time>
      </trkpt>
      <trkpt lat="50.513402000069618" lon="5.465942993760109">
        <ele>215.47</ele>
        <time>2018-07-01T09:30:21Z</time>
      </trkpt>
      <trkpt lat="50.513336034491658" lon="5.465675024315715">
        <ele>216.43000000000001</ele>
        <time>2018-07-01T09:30:22Z</time>
      </trkpt>
      <trkpt lat="50.513251964002848" lon="5.465395990759134">
        <ele>217.40000000000001</ele>
        <time>2018-07-01T09:30:23Z</time>
      </trkpt>
      <trkpt lat="50.512440009042621" lon="5.462725013494492">
        <ele>222.19999999999999</ele>
        <time>2018-07-01T09:30:31Z</time>
      </trkpt>
      <trkpt lat="50.511365029960871" lon="5.459194974973798">
        <ele>221.24000000000001</ele>
        <time>2018-07-01T09:30:41Z</time>
      </trkpt>
      <trkpt lat="50.511210970580578" lon="5.458529032766819">
        <ele>220.28</ele>
        <time>2018-07-01T09:30:43Z</time>
      </trkpt>
      <trkpt lat="50.511173000559211" lon="5.458171041682363">
        <ele>219.80000000000001</ele>
        <time>2018-07-01T09:30:44Z</time>
      </trkpt>
      <trkpt lat="50.510930009186268" lon="5.454914001747966">
        <ele>212.59</ele>
        <time>2018-07-01T09:30:53Z</time>
      </trkpt>
      <trkpt lat="50.510739991441369" lon="5.452372021973133">
        <ele>204.90000000000001</ele>
        <time>2018-07-01T09:31:02Z</time>
      </trkpt>
      <trkpt lat="50.510573023930192" lon="5.450146039947867">
        <ele>197.69</ele>
        <time>2018-07-01T09:31:11Z</time>
      </trkpt>
      <trkpt lat="50.510366996750236" lon="5.447426028549671">
        <ele>202.97999999999999</ele>
        <time>2018-07-01T09:31:23Z</time>
      </trkpt>
      <trkpt lat="50.510344030335546" lon="5.44682102277875">
        <ele>203.46000000000001</ele>
        <time>2018-07-01T09:31:26Z</time>
      </trkpt>
      <trkpt lat="50.510369008406997" lon="5.44660703279078">
        <ele>203.46000000000001</ele>
        <time>2018-07-01T09:31:27Z</time>
      </trkpt>
      <trkpt lat="50.510631026700139" lon="5.444734012708068">
        <ele>205.38</ele>
        <time>2018-07-01T09:31:35Z</time>
      </trkpt>
      <trkpt lat="50.511373998597264" lon="5.442618001252413">
        <ele>201.53</ele>
        <time>2018-07-01T09:31:44Z</time>
      </trkpt>
      <trkpt lat="50.511830979958177" lon="5.441373037174344">
        <ele>199.61000000000001</ele>
        <time>2018-07-01T09:31:50Z</time>
      </trkpt>
      <trkpt lat="50.511856963858008" lon="5.44130296446383">
        <ele>199.13</ele>
        <time>2018-07-01T09:31:51Z</time>
      </trkpt>
      <trkpt lat="50.511927958577871" lon="5.441205985844135">
        <ele>199.13</ele>
        <time>2018-07-01T09:31:52Z</time>
      </trkpt>
      <trkpt lat="50.51198797300458" lon="5.441230041906238">
        <ele>198.65000000000001</ele>
        <time>2018-07-01T09:31:53Z</time>
      </trkpt>
      <trkpt lat="50.512061985209584" lon="5.441258959472179">
        <ele>198.65000000000001</ele>
        <time>2018-07-01T09:31:54Z</time>
      </trkpt>
      <trkpt lat="50.512142032384872" lon="5.441270023584366">
        <ele>198.65000000000001</ele>
        <time>2018-07-01T09:31:55Z</time>
      </trkpt>
      <trkpt lat="50.512301959097385" lon="5.441215960308909">
        <ele>198.16999999999999</ele>
        <time>2018-07-01T09:31:57Z</time>
      </trkpt>
      <trkpt lat="50.512388963252306" lon="5.441186958923936">
        <ele>197.21000000000001</ele>
        <time>2018-07-01T09:31:58Z</time>
      </trkpt>
      <trkpt lat="50.51248200237751" lon="5.441156029701233">
        <ele>196.25</ele>
        <time>2018-07-01T09:31:59Z</time>
      </trkpt>
      <trkpt lat="50.512704961001873" lon="5.441082017496228">
        <ele>194.80000000000001</ele>
        <time>2018-07-01T09:32:01Z</time>
      </trkpt>
      <trkpt lat="50.51282599568367" lon="5.441041029989719">
        <ele>193.84</ele>
        <time>2018-07-01T09:32:02Z</time>
      </trkpt>
      <trkpt lat="50.512947030365467" lon="5.441000964492559">
        <ele>191.91999999999999</ele>
        <time>2018-07-01T09:32:03Z</time>
      </trkpt>
      <trkpt lat="50.513087008148432" lon="5.440985038876534">
        <ele>190</ele>
        <time>2018-07-01T09:32:04Z</time>
      </trkpt>
      <trkpt lat="50.513219023123384" lon="5.440997024998069">
        <ele>188.56</ele>
        <time>2018-07-01T09:32:05Z</time>
      </trkpt>
      <trkpt lat="50.513345003128052" lon="5.441008005291224">
        <ele>187.11000000000001</ele>
        <time>2018-07-01T09:32:06Z</time>
      </trkpt>
      <trkpt lat="50.513456985354424" lon="5.441017979755998">
        <ele>185.66999999999999</ele>
        <time>2018-07-01T09:32:07Z</time>
      </trkpt>
      <trkpt lat="50.513550024479628" lon="5.441041029989719">
        <ele>184.71000000000001</ele>
        <time>2018-07-01T09:32:08Z</time>
      </trkpt>
      <trkpt lat="50.513621019199491" lon="5.441071037203074">
        <ele>183.75</ele>
        <time>2018-07-01T09:32:09Z</time>
      </trkpt>
      <trkpt lat="50.513683967292309" lon="5.441098026931286">
        <ele>182.78999999999999</ele>
        <time>2018-07-01T09:32:10Z</time>
      </trkpt>
      <trkpt lat="50.513838026672602" lon="5.441043963655829">
        <ele>182.78999999999999</ele>
        <time>2018-07-01T09:32:11Z</time>
      </trkpt>
      <trkpt lat="50.513867028057575" lon="5.440943967550993">
        <ele>182.31</ele>
        <time>2018-07-01T09:32:12Z</time>
      </trkpt>
      <trkpt lat="50.513901980593801" lon="5.440823016688228">
        <ele>182.31</ele>
        <time>2018-07-01T09:32:13Z</time>
      </trkpt>
      <trkpt lat="50.51394397392869" lon="5.440680021420121">
        <ele>182.31</ele>
        <time>2018-07-01T09:32:14Z</time>
      </trkpt>
      <trkpt lat="50.513992002233863" lon="5.440516993403435">
        <ele>182.31</ele>
        <time>2018-07-01T09:32:15Z</time>
      </trkpt>
      <trkpt lat="50.514042964205146" lon="5.440341979265213">
        <ele>182.31</ele>
        <time>2018-07-01T09:32:16Z</time>
      </trkpt>
      <trkpt lat="50.514094009995461" lon="5.440166965126991">
        <ele>181.83000000000001</ele>
        <time>2018-07-01T09:32:17Z</time>
      </trkpt>
      <trkpt lat="50.514171961694956" lon="5.440044002607465">
        <ele>181.83000000000001</ele>
        <time>2018-07-01T09:32:18Z</time>
      </trkpt>
      <trkpt lat="50.514292996376753" lon="5.439898995682597">
        <ele>181.83000000000001</ele>
        <time>2018-07-01T09:32:19Z</time>
      </trkpt>
      <trkpt lat="50.51441696472466" lon="5.439751977100968">
        <ele>181.83000000000001</ele>
        <time>2018-07-01T09:32:20Z</time>
      </trkpt>
      <trkpt lat="50.5146290268749" lon="5.439499011263251">
        <ele>182.31</ele>
        <time>2018-07-01T09:32:22Z</time>
      </trkpt>
      <trkpt lat="50.514697004109621" lon="5.439355010166764">
        <ele>182.78999999999999</ele>
        <time>2018-07-01T09:32:23Z</time>
      </trkpt>
      <trkpt lat="50.514742014929652" lon="5.4392150323838">
        <ele>183.75</ele>
        <time>2018-07-01T09:32:24Z</time>
      </trkpt>
      <trkpt lat="50.514962039887905" lon="5.438522016629577">
        <ele>186.63</ele>
        <time>2018-07-01T09:32:28Z</time>
      </trkpt>
      <trkpt lat="50.515043009072542" lon="5.43837902136147">
        <ele>186.63</ele>
        <time>2018-07-01T09:32:29Z</time>
      </trkpt>
      <trkpt lat="50.515134958550334" lon="5.438230996951461">
        <ele>187.11000000000001</ele>
        <time>2018-07-01T09:32:30Z</time>
      </trkpt>
      <trkpt lat="50.515252975746989" lon="5.438090013340116">
        <ele>188.08000000000001</ele>
        <time>2018-07-01T09:32:31Z</time>
      </trkpt>
      <trkpt lat="50.515378033742309" lon="5.437938971444964">
        <ele>188.56</ele>
        <time>2018-07-01T09:32:32Z</time>
      </trkpt>
      <trkpt lat="50.516015980392694" lon="5.4373499751091">
        <ele>193.36000000000001</ele>
        <time>2018-07-01T09:32:37Z</time>
      </trkpt>
      <trkpt lat="50.516125028952956" lon="5.43732600286603">
        <ele>194.80000000000001</ele>
        <time>2018-07-01T09:32:38Z</time>
      </trkpt>
      <trkpt lat="50.516227958723903" lon="5.437319967895746">
        <ele>195.77000000000001</ele>
        <time>2018-07-01T09:32:39Z</time>
      </trkpt>
      <trkpt lat="50.516382018104196" lon="5.437309993430972">
        <ele>197.21000000000001</ele>
        <time>2018-07-01T09:32:40Z</time>
      </trkpt>
      <trkpt lat="50.516431974247098" lon="5.437366990372539">
        <ele>198.16999999999999</ele>
        <time>2018-07-01T09:32:41Z</time>
      </trkpt>
      <trkpt lat="50.516507998108864" lon="5.437453994527459">
        <ele>199.13</ele>
        <time>2018-07-01T09:32:42Z</time>
      </trkpt>
      <trkpt lat="50.516593996435404" lon="5.437552984803915">
        <ele>200.09</ele>
        <time>2018-07-01T09:32:43Z</time>
      </trkpt>
      <trkpt lat="50.516682006418705" lon="5.437652980908752">
        <ele>200.56999999999999</ele>
        <time>2018-07-01T09:32:44Z</time>
      </trkpt>
      <trkpt lat="50.516797006130219" lon="5.437716012820602">
        <ele>201.05000000000001</ele>
        <time>2018-07-01T09:32:45Z</time>
      </trkpt>
      <trkpt lat="50.517161032184958" lon="5.437893960624933">
        <ele>203.46000000000001</ele>
        <time>2018-07-01T09:32:48Z</time>
      </trkpt>
      <trkpt lat="50.51727301441133" lon="5.43790502473712">
        <ele>204.41999999999999</ele>
        <time>2018-07-01T09:32:49Z</time>
      </trkpt>
      <trkpt lat="50.517379967495799" lon="5.437899995595217">
        <ele>205.38</ele>
        <time>2018-07-01T09:32:50Z</time>
      </trkpt>
      <trkpt lat="50.51748801022768" lon="5.437878035008907">
        <ele>206.34</ele>
        <time>2018-07-01T09:32:51Z</time>
      </trkpt>
      <trkpt lat="50.517597980797291" lon="5.437855990603566">
        <ele>207.30000000000001</ele>
        <time>2018-07-01T09:32:52Z</time>
      </trkpt>
      <trkpt lat="50.517704011872411" lon="5.43786495923996">
        <ele>208.25999999999999</ele>
        <time>2018-07-01T09:32:53Z</time>
      </trkpt>
      <trkpt lat="50.517799984663725" lon="5.43790896423161">
        <ele>209.22</ele>
        <time>2018-07-01T09:32:54Z</time>
      </trkpt>
      <trkpt lat="50.517887994647026" lon="5.437988005578518">
        <ele>210.66999999999999</ele>
        <time>2018-07-01T09:32:55Z</time>
      </trkpt>
      <trkpt lat="50.51798002794385" lon="5.438069980591536">
        <ele>212.59</ele>
        <time>2018-07-01T09:32:56Z</time>
      </trkpt>
      <trkpt lat="50.519062969833612" lon="5.438769031316042">
        <ele>224.61000000000001</ele>
        <time>2018-07-01T09:33:06Z</time>
      </trkpt>
      <trkpt lat="50.520293014124036" lon="5.439128028228879">
        <ele>236.62</ele>
        <time>2018-07-01T09:33:16Z</time>
      </trkpt>
      <trkpt lat="50.520419999957085" lon="5.439116964116693">
        <ele>237.58000000000001</ele>
        <time>2018-07-01T09:33:17Z</time>
      </trkpt>
      <trkpt lat="50.520542962476611" lon="5.439105983823538">
        <ele>239.02000000000001</ele>
        <time>2018-07-01T09:33:18Z</time>
      </trkpt>
      <trkpt lat="50.520657040178776" lon="5.439096009358764">
        <ele>239.99000000000001</ele>
        <time>2018-07-01T09:33:19Z</time>
      </trkpt>
      <trkpt lat="50.520760975778103" lon="5.439103972166777">
        <ele>240.94999999999999</ele>
        <time>2018-07-01T09:33:20Z</time>
      </trkpt>
      <trkpt lat="50.520845968276262" lon="5.43913003988564">
        <ele>241.91</ele>
        <time>2018-07-01T09:33:21Z</time>
      </trkpt>
      <trkpt lat="50.520930960774422" lon="5.439155017957091">
        <ele>242.87</ele>
        <time>2018-07-01T09:33:22Z</time>
      </trkpt>
      <trkpt lat="50.520971026271582" lon="5.439171027392149">
        <ele>243.83000000000001</ele>
        <time>2018-07-01T09:33:23Z</time>
      </trkpt>
      <trkpt lat="50.521013019606471" lon="5.439187958836556">
        <ele>244.31</ele>
        <time>2018-07-01T09:33:24Z</time>
      </trkpt>
      <trkpt lat="50.521037997677922" lon="5.439198017120361">
        <ele>245.27000000000001</ele>
        <time>2018-07-01T09:33:25Z</time>
      </trkpt>
      <trkpt lat="50.520951999351382" lon="5.439047981053591">
        <ele>245.75</ele>
        <time>2018-07-01T09:33:26Z</time>
      </trkpt>
      <trkpt lat="50.520994998514652" lon="5.439122999086976">
        <ele>246.72</ele>
        <time>2018-07-01T09:33:27Z</time>
      </trkpt>
      <trkpt lat="50.520960967987776" lon="5.439063990488648">
        <ele>247.19999999999999</ele>
        <time>2018-07-01T09:33:28Z</time>
      </trkpt>
      <trkpt lat="50.520936995744705" lon="5.438923006877303">
        <ele>247.68000000000001</ele>
        <time>2018-07-01T09:33:29Z</time>
      </trkpt>
      <trkpt lat="50.520922997966409" lon="5.438810018822551">
        <ele>248.16</ele>
        <time>2018-07-01T09:33:30Z</time>
      </trkpt>
      <trkpt lat="50.520909000188112" lon="5.438704993575811">
        <ele>249.12</ele>
        <time>2018-07-01T09:33:31Z</time>
      </trkpt>
      <trkpt lat="50.520949987694621" lon="5.438549006357789">
        <ele>249.59999999999999</ele>
        <time>2018-07-01T09:33:32Z</time>
      </trkpt>
      <trkpt lat="50.520987035706639" lon="5.438405005261302">
        <ele>249.59999999999999</ele>
        <time>2018-07-01T09:33:33Z</time>
      </trkpt>
      <trkpt lat="50.521027017384768" lon="5.43825002387166">
        <ele>250.56</ele>
        <time>2018-07-01T09:33:34Z</time>
      </trkpt>
      <trkpt lat="50.521059958264232" lon="5.438124965876341">
        <ele>251.52000000000001</ele>
        <time>2018-07-01T09:33:35Z</time>
      </trkpt>
      <trkpt lat="50.521059958264232" lon="5.437951041385531">
        <ele>252.47999999999999</ele>
        <time>2018-07-01T09:33:36Z</time>
      </trkpt>
      <trkpt lat="50.521030034869909" lon="5.437847021967173">
        <ele>253.44</ele>
        <time>2018-07-01T09:33:37Z</time>
      </trkpt>
      <trkpt lat="50.520986029878259" lon="5.437722969800234">
        <ele>253.93000000000001</ele>
        <time>2018-07-01T09:33:38Z</time>
      </trkpt>
      <trkpt lat="50.520939007401466" lon="5.437588021159172">
        <ele>254.41</ele>
        <time>2018-07-01T09:33:39Z</time>
      </trkpt>
      <trkpt lat="50.520889973267913" lon="5.437447959557176">
        <ele>254.41</ele>
        <time>2018-07-01T09:33:40Z</time>
      </trkpt>
      <trkpt lat="50.52073298022151" lon="5.437043029814959">
        <ele>254.41</ele>
        <time>2018-07-01T09:33:43Z</time>
      </trkpt>
      <trkpt lat="50.520654022693634" lon="5.436947979032993">
        <ele>253.93000000000001</ele>
        <time>2018-07-01T09:33:44Z</time>
      </trkpt>
      <trkpt lat="50.519906021654606" lon="5.436050025746226">
        <ele>249.12</ele>
        <time>2018-07-01T09:33:52Z</time>
      </trkpt>
      <trkpt lat="50.519822034984827" lon="5.436004009097815">
        <ele>248.63999999999999</ele>
        <time>2018-07-01T09:33:53Z</time>
      </trkpt>
      <trkpt lat="50.5197439994663" lon="5.435982970520854">
        <ele>248.16</ele>
        <time>2018-07-01T09:33:54Z</time>
      </trkpt>
      <trkpt lat="50.51965800113976" lon="5.43599596247077">
        <ele>247.68000000000001</ele>
        <time>2018-07-01T09:33:55Z</time>
      </trkpt>
      <trkpt lat="50.519558005034924" lon="5.436009960249066">
        <ele>247.19999999999999</ele>
        <time>2018-07-01T09:33:56Z</time>
      </trkpt>
      <trkpt lat="50.519448034465313" lon="5.436025969684124">
        <ele>246.72</ele>
        <time>2018-07-01T09:33:57Z</time>
      </trkpt>
      <trkpt lat="50.519321970641613" lon="5.436043990775943">
        <ele>246.22999999999999</ele>
        <time>2018-07-01T09:33:58Z</time>
      </trkpt>
      <trkpt lat="50.519223986193538" lon="5.435995040461421">
        <ele>245.75</ele>
        <time>2018-07-01T09:33:59Z</time>
      </trkpt>
      <trkpt lat="50.519105968996882" lon="5.435936031863093">
        <ele>244.78999999999999</ele>
        <time>2018-07-01T09:34:00Z</time>
      </trkpt>
      <trkpt lat="50.51899298094213" lon="5.435828994959593">
        <ele>244.31</ele>
        <time>2018-07-01T09:34:01Z</time>
      </trkpt>
      <trkpt lat="50.518887033686042" lon="5.435699997469783">
        <ele>243.83000000000001</ele>
        <time>2018-07-01T09:34:02Z</time>
      </trkpt>
      <trkpt lat="50.517958989366889" lon="5.434287982061505">
        <ele>244.78999999999999</ele>
        <time>2018-07-01T09:34:11Z</time>
      </trkpt>
      <trkpt lat="50.517614996060729" lon="5.433092974126339">
        <ele>246.72</ele>
        <time>2018-07-01T09:34:17Z</time>
      </trkpt>
      <trkpt lat="50.517569985240698" lon="5.432908991351724">
        <ele>247.19999999999999</ele>
        <time>2018-07-01T09:34:18Z</time>
      </trkpt>
      <trkpt lat="50.517519023269415" lon="5.432696007192135">
        <ele>247.68000000000001</ele>
        <time>2018-07-01T09:34:19Z</time>
      </trkpt>
      <trkpt lat="50.516861965879798" lon="5.431391028687358">
        <ele>247.68000000000001</ele>
        <time>2018-07-01T09:34:27Z</time>
      </trkpt>
      <trkpt lat="50.516015980392694" lon="5.430027963593602">
        <ele>244.31</ele>
        <time>2018-07-01T09:34:36Z</time>
      </trkpt>
      <trkpt lat="50.515187010169029" lon="5.428790962323546">
        <ele>245.75</ele>
        <time>2018-07-01T09:34:46Z</time>
      </trkpt>
      <trkpt lat="50.515106040984392" lon="5.42862500064075">
        <ele>245.27000000000001</ele>
        <time>2018-07-01T09:34:48Z</time>
      </trkpt>
      <trkpt lat="50.515094976872206" lon="5.428560962900519">
        <ele>245.27000000000001</ele>
        <time>2018-07-01T09:34:49Z</time>
      </trkpt>
      <trkpt lat="50.515119032934308" lon="5.428412016481161">
        <ele>245.27000000000001</ele>
        <time>2018-07-01T09:34:50Z</time>
      </trkpt>
      <trkpt lat="50.515144011005759" lon="5.428403969854116">
        <ele>245.27000000000001</ele>
        <time>2018-07-01T09:34:51Z</time>
      </trkpt>
      <trkpt lat="50.515179969370365" lon="5.428391983732581">
        <ele>245.27000000000001</ele>
        <time>2018-07-01T09:34:52Z</time>
      </trkpt>
      <trkpt lat="50.51523202098906" lon="5.428375974297524">
        <ele>244.78999999999999</ele>
        <time>2018-07-01T09:34:53Z</time>
      </trkpt>
      <trkpt lat="50.515301004052162" lon="5.428354013711214">
        <ele>244.78999999999999</ele>
        <time>2018-07-01T09:34:54Z</time>
      </trkpt>
      <trkpt lat="50.515968035906553" lon="5.428194003179669">
        <ele>246.22999999999999</ele>
        <time>2018-07-01T09:35:00Z</time>
      </trkpt>
      <trkpt lat="50.517162038013339" lon="5.427960986271501">
        <ele>251.03999999999999</ele>
        <time>2018-07-01T09:35:07Z</time>
      </trkpt>
      <trkpt lat="50.517349038273096" lon="5.427970960736275">
        <ele>252</ele>
        <time>2018-07-01T09:35:08Z</time>
      </trkpt>
      <trkpt lat="50.519104963168502" lon="5.428166007623076">
        <ele>259.20999999999998</ele>
        <time>2018-07-01T09:35:16Z</time>
      </trkpt>
      <trkpt lat="50.520328972488642" lon="5.428326018154621">
        <ele>264.01999999999998</ele>
        <time>2018-07-01T09:35:22Z</time>
      </trkpt>
      <trkpt lat="50.520446989685297" lon="5.428342027589679">
        <ele>264.5</ele>
        <time>2018-07-01T09:35:23Z</time>
      </trkpt>
      <trkpt lat="50.520587973296642" lon="5.428361976519227">
        <ele>264.98000000000002</ele>
        <time>2018-07-01T09:35:24Z</time>
      </trkpt>
      <trkpt lat="50.520676989108324" lon="5.428244965150952">
        <ele>265.45999999999998</ele>
        <time>2018-07-01T09:35:25Z</time>
      </trkpt>
      <trkpt lat="50.52075401879847" lon="5.428085960447788">
        <ele>265.94</ele>
        <time>2018-07-01T09:35:26Z</time>
      </trkpt>
      <trkpt lat="50.520844040438533" lon="5.427900971844792">
        <ele>266.89999999999998</ele>
        <time>2018-07-01T09:35:27Z</time>
      </trkpt>
      <trkpt lat="50.521467989310622" lon="5.426612002775073">
        <ele>266.89999999999998</ele>
        <time>2018-07-01T09:35:32Z</time>
      </trkpt>
      <trkpt lat="50.522758970037103" lon="5.423950999975205">
        <ele>268.35000000000002</ele>
        <time>2018-07-01T09:35:40Z</time>
      </trkpt>
      <trkpt lat="50.523303961381316" lon="5.422826986759901">
        <ele>266.89999999999998</ele>
        <time>2018-07-01T09:35:45Z</time>
      </trkpt>
      <trkpt lat="50.523508982732892" lon="5.422404035925865">
        <ele>265.94</ele>
        <time>2018-07-01T09:35:48Z</time>
      </trkpt>
      <trkpt lat="50.523559022694826" lon="5.422299010679126">
        <ele>265.45999999999998</ele>
        <time>2018-07-01T09:35:49Z</time>
      </trkpt>
      <trkpt lat="50.523601016029716" lon="5.422214018180966">
        <ele>264.98000000000002</ele>
        <time>2018-07-01T09:35:50Z</time>
      </trkpt>
      <trkpt lat="50.523635968565941" lon="5.422141011804342">
        <ele>264.98000000000002</ele>
        <time>2018-07-01T09:35:51Z</time>
      </trkpt>
      <trkpt lat="50.523671004921198" lon="5.422069011256099">
        <ele>264.5</ele>
        <time>2018-07-01T09:35:52Z</time>
      </trkpt>
      <trkpt lat="50.523808971047401" lon="5.422020982950926">
        <ele>264.5</ele>
        <time>2018-07-01T09:35:53Z</time>
      </trkpt>
      <trkpt lat="50.523835038766265" lon="5.422016959637404">
        <ele>264.5</ele>
        <time>2018-07-01T09:35:54Z</time>
      </trkpt>
      <trkpt lat="50.523875020444393" lon="5.421935990452766">
        <ele>264.5</ele>
        <time>2018-07-01T09:35:55Z</time>
      </trkpt>
      <trkpt lat="50.52391299046576" lon="5.421859966591001">
        <ele>264.5</ele>
        <time>2018-07-01T09:35:56Z</time>
      </trkpt>
      <trkpt lat="50.523903016000986" lon="5.421776985749602">
        <ele>264.5</ele>
        <time>2018-07-01T09:35:57Z</time>
      </trkpt>
      <trkpt lat="50.523887006565928" lon="5.421680007129908">
        <ele>264.01999999999998</ele>
        <time>2018-07-01T09:35:58Z</time>
      </trkpt>
      <trkpt lat="50.523837972432375" lon="5.421599037945271">
        <ele>264.01999999999998</ele>
        <time>2018-07-01T09:35:59Z</time>
      </trkpt>
      <trkpt lat="50.523753985762596" lon="5.421568024903536">
        <ele>264.01999999999998</ele>
        <time>2018-07-01T09:36:00Z</time>
      </trkpt>
      <trkpt lat="50.523686008527875" lon="5.421465011313558">
        <ele>263.54000000000002</ele>
        <time>2018-07-01T09:36:01Z</time>
      </trkpt>
      <trkpt lat="50.523599004372954" lon="5.421335007995367">
        <ele>263.54000000000002</ele>
        <time>2018-07-01T09:36:02Z</time>
      </trkpt>
      <trkpt lat="50.52350495941937" lon="5.421194024384022">
        <ele>263.54000000000002</ele>
        <time>2018-07-01T09:36:03Z</time>
      </trkpt>
      <trkpt lat="50.522569958120584" lon="5.419926010072231">
        <ele>263.06</ele>
        <time>2018-07-01T09:36:10Z</time>
      </trkpt>
      <trkpt lat="50.521298004314303" lon="5.417906977236271">
        <ele>264.01999999999998</ele>
        <time>2018-07-01T09:36:19Z</time>
      </trkpt>
      <trkpt lat="50.519688008353114" lon="5.415323004126549">
        <ele>267.86000000000001</ele>
        <time>2018-07-01T09:36:32Z</time>
      </trkpt>
      <trkpt lat="50.518431980162859" lon="5.413279999047518">
        <ele>268.82999999999998</ele>
        <time>2018-07-01T09:36:43Z</time>
      </trkpt>
      <trkpt lat="50.517000015825033" lon="5.410951003432274">
        <ele>269.79000000000002</ele>
        <time>2018-07-01T09:36:55Z</time>
      </trkpt>
      <trkpt lat="50.515703000128269" lon="5.408747987821698">
        <ele>270.26999999999998</ele>
        <time>2018-07-01T09:37:05Z</time>
      </trkpt>
      <trkpt lat="50.514456024393439" lon="5.406343974173069">
        <ele>269.31</ele>
        <time>2018-07-01T09:37:15Z</time>
      </trkpt>
      <trkpt lat="50.513589000329375" lon="5.404159985482693">
        <ele>267.38</ele>
        <time>2018-07-01T09:37:25Z</time>
      </trkpt>
      <trkpt lat="50.513205025345087" lon="5.403195982798934">
        <ele>266.89999999999998</ele>
        <time>2018-07-01T09:37:30Z</time>
      </trkpt>
      <trkpt lat="50.512886010110378" lon="5.402409005910158">
        <ele>265.94</ele>
        <time>2018-07-01T09:37:35Z</time>
      </trkpt>
      <trkpt lat="50.512750977650285" lon="5.401684977114201">
        <ele>264.5</ele>
        <time>2018-07-01T09:37:40Z</time>
      </trkpt>
      <trkpt lat="50.512692974880338" lon="5.401627980172634">
        <ele>264.5</ele>
        <time>2018-07-01T09:37:41Z</time>
      </trkpt>
      <trkpt lat="50.512541010975838" lon="5.401647007092834">
        <ele>264.01999999999998</ele>
        <time>2018-07-01T09:37:42Z</time>
      </trkpt>
      <trkpt lat="50.512505974620581" lon="5.401603002101183">
        <ele>263.54000000000002</ele>
        <time>2018-07-01T09:37:43Z</time>
      </trkpt>
      <trkpt lat="50.512423999607563" lon="5.401494959369302">
        <ele>263.54000000000002</ele>
        <time>2018-07-01T09:37:44Z</time>
      </trkpt>
      <trkpt lat="50.512333977967501" lon="5.401364034041762">
        <ele>263.06</ele>
        <time>2018-07-01T09:37:45Z</time>
      </trkpt>
      <trkpt lat="50.511840032413602" lon="5.400890037417412">
        <ele>261.13999999999999</ele>
        <time>2018-07-01T09:37:49Z</time>
      </trkpt>
      <trkpt lat="50.511697037145495" lon="5.400767996907234">
        <ele>260.64999999999998</ele>
        <time>2018-07-01T09:37:50Z</time>
      </trkpt>
      <trkpt lat="50.5100960098207" lon="5.399625962600112">
        <ele>255.37</ele>
        <time>2018-07-01T09:37:59Z</time>
      </trkpt>
      <trkpt lat="50.50797002390027" lon="5.398163991048932">
        <ele>256.81</ele>
        <time>2018-07-01T09:38:11Z</time>
      </trkpt>
      <trkpt lat="50.506885992363095" lon="5.397408027201891">
        <ele>260.64999999999998</ele>
        <time>2018-07-01T09:38:19Z</time>
      </trkpt>
      <trkpt lat="50.506520960479975" lon="5.397155983373523">
        <ele>263.06</ele>
        <time>2018-07-01T09:38:24Z</time>
      </trkpt>
      <trkpt lat="50.506407972425222" lon="5.397048024460673">
        <ele>263.54000000000002</ele>
        <time>2018-07-01T09:38:26Z</time>
      </trkpt>
      <trkpt lat="50.506339995190501" lon="5.396797992289066">
        <ele>264.5</ele>
        <time>2018-07-01T09:38:28Z</time>
      </trkpt>
      <trkpt lat="50.506290961056948" lon="5.396748958155513">
        <ele>264.5</ele>
        <time>2018-07-01T09:38:29Z</time>
      </trkpt>
      <trkpt lat="50.506192976608872" lon="5.396748958155513">
        <ele>264.98000000000002</ele>
        <time>2018-07-01T09:38:30Z</time>
      </trkpt>
      <trkpt lat="50.505990972742438" lon="5.396682992577553">
        <ele>265.94</ele>
        <time>2018-07-01T09:38:32Z</time>
      </trkpt>
      <trkpt lat="50.505878990516067" lon="5.396616021171212">
        <ele>265.94</ele>
        <time>2018-07-01T09:38:33Z</time>
      </trkpt>
      <trkpt lat="50.504881041124463" lon="5.395854022353888">
        <ele>267.86000000000001</ele>
        <time>2018-07-01T09:38:40Z</time>
      </trkpt>
      <trkpt lat="50.503687039017677" lon="5.394968977198005">
        <ele>266.42000000000002</ele>
        <time>2018-07-01T09:38:48Z</time>
      </trkpt>
      <trkpt lat="50.50191099755466" lon="5.393730970099568">
        <ele>265.45999999999998</ele>
        <time>2018-07-01T09:39:00Z</time>
      </trkpt>
      <trkpt lat="50.499262986704707" lon="5.391898015514016">
        <ele>265.94</ele>
        <time>2018-07-01T09:39:16Z</time>
      </trkpt>
      <trkpt lat="50.497112022712827" lon="5.390415005385876">
        <ele>268.82999999999998</ele>
        <time>2018-07-01T09:39:27Z</time>
      </trkpt>
      <trkpt lat="50.494053969159722" lon="5.38829798810184">
        <ele>268.35000000000002</ele>
        <time>2018-07-01T09:39:43Z</time>
      </trkpt>
      <trkpt lat="50.490618981420994" lon="5.385923981666565">
        <ele>268.82999999999998</ele>
        <time>2018-07-01T09:40:01Z</time>
      </trkpt>
      <trkpt lat="50.488701034337282" lon="5.384597964584827">
        <ele>271.70999999999998</ele>
        <time>2018-07-01T09:40:11Z</time>
      </trkpt>
      <trkpt lat="50.485461009666324" lon="5.382305011153221">
        <ele>271.70999999999998</ele>
        <time>2018-07-01T09:40:28Z</time>
      </trkpt>
      <trkpt lat="50.483718998730183" lon="5.380527963861823">
        <ele>277.48000000000002</ele>
        <time>2018-07-01T09:40:38Z</time>
      </trkpt>
      <trkpt lat="50.482327016070485" lon="5.378055972978473">
        <ele>280.36000000000001</ele>
        <time>2018-07-01T09:40:48Z</time>
      </trkpt>
      <trkpt lat="50.480739986523986" lon="5.374596007168293">
        <ele>280.83999999999997</ele>
        <time>2018-07-01T09:41:01Z</time>
      </trkpt>
      <trkpt lat="50.48010497353971" lon="5.37329999729991">
        <ele>279.88</ele>
        <time>2018-07-01T09:41:06Z</time>
      </trkpt>
      <trkpt lat="50.480019981041551" lon="5.373014006763697">
        <ele>279.88</ele>
        <time>2018-07-01T09:41:07Z</time>
      </trkpt>
      <trkpt lat="50.479934988543391" lon="5.37271804176271">
        <ele>279.88</ele>
        <time>2018-07-01T09:41:08Z</time>
      </trkpt>
      <trkpt lat="50.479604993015528" lon="5.371569972485304">
        <ele>282.27999999999997</ele>
        <time>2018-07-01T09:41:13Z</time>
      </trkpt>
      <trkpt lat="50.479543972760439" lon="5.37147399969399">
        <ele>282.76999999999998</ele>
        <time>2018-07-01T09:41:14Z</time>
      </trkpt>
      <trkpt lat="50.479517988860607" lon="5.371435023844242">
        <ele>283.25</ele>
        <time>2018-07-01T09:41:15Z</time>
      </trkpt>
      <trkpt lat="50.479439031332731" lon="5.371440974995494">
        <ele>283.25</ele>
        <time>2018-07-01T09:41:16Z</time>
      </trkpt>
      <trkpt lat="50.479392008855939" lon="5.371444998309016">
        <ele>283.73000000000002</ele>
        <time>2018-07-01T09:41:17Z</time>
      </trkpt>
      <trkpt lat="50.479319002479315" lon="5.3714510332793">
        <ele>284.20999999999998</ele>
        <time>2018-07-01T09:41:24Z</time>
      </trkpt>
      <trkpt lat="50.47924398444593" lon="5.371295968070626">
        <ele>284.20999999999998</ele>
        <time>2018-07-01T09:41:30Z</time>
      </trkpt>
      <trkpt lat="50.479239039123058" lon="5.371249029412866">
        <ele>284.20999999999998</ele>
        <time>2018-07-01T09:41:31Z</time>
      </trkpt>
      <trkpt lat="50.479239039123058" lon="5.371161019429565">
        <ele>284.20999999999998</ele>
        <time>2018-07-01T09:41:32Z</time>
      </trkpt>
      <trkpt lat="50.479239039123058" lon="5.371043002232909">
        <ele>284.20999999999998</ele>
        <time>2018-07-01T09:41:33Z</time>
      </trkpt>
      <trkpt lat="50.479239039123058" lon="5.370891038328409">
        <ele>284.20999999999998</ele>
        <time>2018-07-01T09:41:34Z</time>
      </trkpt>
      <trkpt lat="50.479190004989505" lon="5.369426971301436">
        <ele>283.73000000000002</ele>
        <time>2018-07-01T09:41:40Z</time>
      </trkpt>
      <trkpt lat="50.479121021926403" lon="5.367179028689861">
        <ele>282.76999999999998</ele>
        <time>2018-07-01T09:41:46Z</time>
      </trkpt>
      <trkpt lat="50.479034017771482" lon="5.364366983994842">
        <ele>279.39999999999998</ele>
        <time>2018-07-01T09:41:54Z</time>
      </trkpt>
      <trkpt lat="50.478951036930084" lon="5.361703969538212">
        <ele>272.67000000000002</ele>
        <time>2018-07-01T09:42:01Z</time>
      </trkpt>
      <trkpt lat="50.478933015838265" lon="5.358774997293949">
        <ele>265.94</ele>
        <time>2018-07-01T09:42:08Z</time>
      </trkpt>
      <trkpt lat="50.478994036093354" lon="5.358367972075939">
        <ele>264.5</ele>
        <time>2018-07-01T09:42:09Z</time>
      </trkpt>
      <trkpt lat="50.479804985225201" lon="5.354084987193346">
        <ele>250.56</ele>
        <time>2018-07-01T09:42:19Z</time>
      </trkpt>
      <trkpt lat="50.480991024523973" lon="5.348552009090781">
        <ele>247.19999999999999</ele>
        <time>2018-07-01T09:42:32Z</time>
      </trkpt>
      <trkpt lat="50.482026021927595" lon="5.345893017947674">
        <ele>258.25</ele>
        <time>2018-07-01T09:42:40Z</time>
      </trkpt>
      <trkpt lat="50.483372993767262" lon="5.343033028766513">
        <ele>259.69</ele>
        <time>2018-07-01T09:42:49Z</time>
      </trkpt>
      <trkpt lat="50.484071038663387" lon="5.3416090272367">
        <ele>261.13999999999999</ele>
        <time>2018-07-01T09:42:55Z</time>
      </trkpt>
      <trkpt lat="50.484358035027981" lon="5.341012990102172">
        <ele>259.69</ele>
        <time>2018-07-01T09:43:00Z</time>
      </trkpt>
      <trkpt lat="50.48440002836287" lon="5.340921962633729">
        <ele>259.20999999999998</ele>
        <time>2018-07-01T09:43:01Z</time>
      </trkpt>
      <trkpt lat="50.484410002827644" lon="5.34090000204742">
        <ele>259.20999999999998</ele>
        <time>2018-07-01T09:43:02Z</time>
      </trkpt>
      <trkpt lat="50.484511004760861" lon="5.340937972068787">
        <ele>259.20999999999998</ele>
        <time>2018-07-01T09:43:03Z</time>
      </trkpt>
      <trkpt lat="50.484599014744163" lon="5.340954987332225">
        <ele>259.20999999999998</ele>
        <time>2018-07-01T09:43:04Z</time>
      </trkpt>
      <trkpt lat="50.484661040827632" lon="5.34092104062438">
        <ele>258.73000000000002</ele>
        <time>2018-07-01T09:43:05Z</time>
      </trkpt>
      <trkpt lat="50.48472398892045" lon="5.340884998440743">
        <ele>258.73000000000002</ele>
        <time>2018-07-01T09:43:06Z</time>
      </trkpt>
      <trkpt lat="50.484801018610597" lon="5.340734040364623">
        <ele>258.73000000000002</ele>
        <time>2018-07-01T09:43:07Z</time>
      </trkpt>
      <trkpt lat="50.484824990853667" lon="5.34061904065311">
        <ele>258.25</ele>
        <time>2018-07-01T09:43:08Z</time>
      </trkpt>
      <trkpt lat="50.484849968925118" lon="5.340501023456454">
        <ele>258.25</ele>
        <time>2018-07-01T09:43:09Z</time>
      </trkpt>
      <trkpt lat="50.484776962548494" lon="5.340291978791356">
        <ele>257.76999999999998</ele>
        <time>2018-07-01T09:43:10Z</time>
      </trkpt>
      <trkpt lat="50.484716026112437" lon="5.340178990736604">
        <ele>257.29000000000002</ele>
        <time>2018-07-01T09:43:11Z</time>
      </trkpt>
      <trkpt lat="50.484718959778547" lon="5.339982016012073">
        <ele>256.81</ele>
        <time>2018-07-01T09:43:12Z</time>
      </trkpt>
      <trkpt lat="50.484757013618946" lon="5.339797027409077">
        <ele>255.84999999999999</ele>
        <time>2018-07-01T09:43:13Z</time>
      </trkpt>
      <trkpt lat="50.484802024438977" lon="5.339583037421107">
        <ele>255.37</ele>
        <time>2018-07-01T09:43:14Z</time>
      </trkpt>
      <trkpt lat="50.485151968896389" lon="5.337881008163095">
        <ele>250.56</ele>
        <time>2018-07-01T09:43:20Z</time>
      </trkpt>
      <trkpt lat="50.485766027122736" lon="5.334865031763911">
        <ele>245.27000000000001</ele>
        <time>2018-07-01T09:43:30Z</time>
      </trkpt>
      <trkpt lat="50.48624899238348" lon="5.33252103254199">
        <ele>245.27000000000001</ele>
        <time>2018-07-01T09:43:37Z</time>
      </trkpt>
      <trkpt lat="50.487101012840867" lon="5.328441979363561">
        <ele>245.75</ele>
        <time>2018-07-01T09:43:50Z</time>
      </trkpt>
      <trkpt lat="50.487588001415133" lon="5.326292021200061">
        <ele>249.59999999999999</ele>
        <time>2018-07-01T09:43:59Z</time>
      </trkpt>
      <trkpt lat="50.488302977755666" lon="5.324968015775085">
        <ele>258.25</ele>
        <time>2018-07-01T09:44:07Z</time>
      </trkpt>
      <trkpt lat="50.488403979688883" lon="5.324806999415159">
        <ele>259.20999999999998</ele>
        <time>2018-07-01T09:44:08Z</time>
      </trkpt>
      <trkpt lat="50.488669015467167" lon="5.324386982247233">
        <ele>261.62</ele>
        <time>2018-07-01T09:44:11Z</time>
      </trkpt>
      <trkpt lat="50.488734981045127" lon="5.324259996414185">
        <ele>262.57999999999998</ele>
        <time>2018-07-01T09:44:12Z</time>
      </trkpt>
      <trkpt lat="50.489047039300203" lon="5.323617020621896">
        <ele>266.42000000000002</ele>
        <time>2018-07-01T09:44:17Z</time>
      </trkpt>
      <trkpt lat="50.489229010418057" lon="5.323452986776829">
        <ele>268.35000000000002</ele>
        <time>2018-07-01T09:44:19Z</time>
      </trkpt>
      <trkpt lat="50.489347027614713" lon="5.323442006483674">
        <ele>269.31</ele>
        <time>2018-07-01T09:44:20Z</time>
      </trkpt>
      <trkpt lat="50.490187983959913" lon="5.323347961530089">
        <ele>274.11000000000001</ele>
        <time>2018-07-01T09:44:27Z</time>
      </trkpt>
      <trkpt lat="50.490272976458073" lon="5.323280990123749">
        <ele>274.11000000000001</ele>
        <time>2018-07-01T09:44:28Z</time>
      </trkpt>
      <trkpt lat="50.490358974784613" lon="5.323213012889028">
        <ele>274.58999999999997</ele>
        <time>2018-07-01T09:44:29Z</time>
      </trkpt>
      <trkpt lat="50.490447990596294" lon="5.323142018169165">
        <ele>275.06999999999999</ele>
        <time>2018-07-01T09:44:30Z</time>
      </trkpt>
      <trkpt lat="50.490568019449711" lon="5.32304797321558">
        <ele>275.06999999999999</ele>
        <time>2018-07-01T09:44:31Z</time>
      </trkpt>
      <trkpt lat="50.490602971985936" lon="5.322930039837956">
        <ele>275.56</ele>
        <time>2018-07-01T09:44:32Z</time>
      </trkpt>
      <trkpt lat="50.490651000291109" lon="5.32276701182127">
        <ele>275.56</ele>
        <time>2018-07-01T09:44:33Z</time>
      </trkpt>
      <trkpt lat="50.490701040253043" lon="5.322597026824951">
        <ele>275.56</ele>
        <time>2018-07-01T09:44:34Z</time>
      </trkpt>
      <trkpt lat="50.490752002224326" lon="5.32242301851511">
        <ele>275.06999999999999</ele>
        <time>2018-07-01T09:44:35Z</time>
      </trkpt>
      <trkpt lat="50.490800030529499" lon="5.322248004376888">
        <ele>274.58999999999997</ele>
        <time>2018-07-01T09:44:36Z</time>
      </trkpt>
      <trkpt lat="50.4908880405128" lon="5.321896970272064">
        <ele>273.63</ele>
        <time>2018-07-01T09:44:38Z</time>
      </trkpt>
      <trkpt lat="50.490958029404283" lon="5.321723967790604">
        <ele>272.67000000000002</ele>
        <time>2018-07-01T09:44:39Z</time>
      </trkpt>
      <trkpt lat="50.491046961396933" lon="5.321576027199626">
        <ele>271.70999999999998</ele>
        <time>2018-07-01T09:44:40Z</time>
      </trkpt>
      <trkpt lat="50.491138994693756" lon="5.321420039981604">
        <ele>270.75</ele>
        <time>2018-07-01T09:44:41Z</time>
      </trkpt>
      <trkpt lat="50.491236979141831" lon="5.321256006136537">
        <ele>269.79000000000002</ele>
        <time>2018-07-01T09:44:42Z</time>
      </trkpt>
      <trkpt lat="50.491336975246668" lon="5.321088032796979">
        <ele>269.31</ele>
        <time>2018-07-01T09:44:43Z</time>
      </trkpt>
      <trkpt lat="50.492854015901685" lon="5.319189028814435">
        <ele>260.17000000000002</ele>
        <time>2018-07-01T09:44:56Z</time>
      </trkpt>
      <trkpt lat="50.49415597692132" lon="5.317830992862582">
        <ele>259.69</ele>
        <time>2018-07-01T09:45:07Z</time>
      </trkpt>
      <trkpt lat="50.495312009006739" lon="5.316929016262293">
        <ele>259.20999999999998</ele>
        <time>2018-07-01T09:45:15Z</time>
      </trkpt>
      <trkpt lat="50.496683036908507" lon="5.314962035045028">
        <ele>252.47999999999999</ele>
        <time>2018-07-01T09:45:26Z</time>
      </trkpt>
      <trkpt lat="50.497754998505116" lon="5.313306022435427">
        <ele>251.03999999999999</ele>
        <time>2018-07-01T09:45:35Z</time>
      </trkpt>
      <trkpt lat="50.498508028686047" lon="5.311972964555025">
        <ele>253.93000000000001</ele>
        <time>2018-07-01T09:45:42Z</time>
      </trkpt>
      <trkpt lat="50.498600983992219" lon="5.311799040064216">
        <ele>253.93000000000001</ele>
        <time>2018-07-01T09:45:43Z</time>
      </trkpt>
      <trkpt lat="50.499270027503371" lon="5.310237994417548">
        <ele>252.96000000000001</ele>
        <time>2018-07-01T09:45:52Z</time>
      </trkpt>
      <trkpt lat="50.499714016914368" lon="5.308574018999934">
        <ele>247.68000000000001</ele>
        <time>2018-07-01T09:45:59Z</time>
      </trkpt>
      <trkpt lat="50.50019396468997" lon="5.306419031694531">
        <ele>240.47</ele>
        <time>2018-07-01T09:46:09Z</time>
      </trkpt>
      <trkpt lat="50.500407032668591" lon="5.305503979325295">
        <ele>239.50999999999999</ele>
        <time>2018-07-01T09:46:14Z</time>
      </trkpt>
      <trkpt lat="50.500441985204816" lon="5.305354027077556">
        <ele>239.99000000000001</ele>
        <time>2018-07-01T09:46:15Z</time>
      </trkpt>
      <trkpt lat="50.500546004623175" lon="5.304958987981081">
        <ele>240.47</ele>
        <time>2018-07-01T09:46:18Z</time>
      </trkpt>
      <trkpt lat="50.500576011836529" lon="5.304890004917979">
        <ele>240.94999999999999</ele>
        <time>2018-07-01T09:46:19Z</time>
      </trkpt>
      <trkpt lat="50.500608030706644" lon="5.304814986884594">
        <ele>240.94999999999999</ele>
        <time>2018-07-01T09:46:20Z</time>
      </trkpt>
      <trkpt lat="50.500636026263237" lon="5.304750027135015">
        <ele>241.43000000000001</ele>
        <time>2018-07-01T09:46:21Z</time>
      </trkpt>
      <trkpt lat="50.500782039016485" lon="5.304723037406802">
        <ele>241.43000000000001</ele>
        <time>2018-07-01T09:46:22Z</time>
      </trkpt>
      <trkpt lat="50.500782039016485" lon="5.304723037406802">
        <ele>241.43000000000001</ele>
        <time>2018-07-01T09:46:23Z</time>
      </trkpt>
      <trkpt lat="50.500812968239188" lon="5.304708033800125">
        <ele>241.43000000000001</ele>
        <time>2018-07-01T09:46:24Z</time>
      </trkpt>
      <trkpt lat="50.500864014029503" lon="5.304681966081262">
        <ele>241.91</ele>
        <time>2018-07-01T09:46:25Z</time>
      </trkpt>
      <trkpt lat="50.500918999314308" lon="5.304593034088612">
        <ele>241.91</ele>
        <time>2018-07-01T09:46:26Z</time>
      </trkpt>
      <trkpt lat="50.500928973779082" lon="5.304513992741704">
        <ele>242.38999999999999</ele>
        <time>2018-07-01T09:46:27Z</time>
      </trkpt>
      <trkpt lat="50.500918999314308" lon="5.30441902577877">
        <ele>242.38999999999999</ele>
        <time>2018-07-01T09:46:28Z</time>
      </trkpt>
      <trkpt lat="50.500911036506295" lon="5.304379966109991">
        <ele>242.38999999999999</ele>
        <time>2018-07-01T09:46:29Z</time>
      </trkpt>
      <trkpt lat="50.500911036506295" lon="5.304379966109991">
        <ele>242.38999999999999</ele>
        <time>2018-07-01T09:46:30Z</time>
      </trkpt>
      <trkpt lat="50.500785978510976" lon="5.304154995828867">
        <ele>242.38999999999999</ele>
        <time>2018-07-01T09:46:31Z</time>
      </trkpt>
      <trkpt lat="50.500791007652879" lon="5.30403396114707">
        <ele>242.38999999999999</ele>
        <time>2018-07-01T09:46:32Z</time>
      </trkpt>
      <trkpt lat="50.500796958804131" lon="5.303889960050583">
        <ele>242.38999999999999</ele>
        <time>2018-07-01T09:46:33Z</time>
      </trkpt>
      <trkpt lat="50.500803999602795" lon="5.303735984489322">
        <ele>241.91</ele>
        <time>2018-07-01T09:46:34Z</time>
      </trkpt>
      <trkpt lat="50.500843981280923" lon="5.303549990057945">
        <ele>242.38999999999999</ele>
        <time>2018-07-01T09:46:35Z</time>
      </trkpt>
      <trkpt lat="50.500887986272573" lon="5.30334597453475">
        <ele>242.87</ele>
        <time>2018-07-01T09:46:36Z</time>
      </trkpt>
      <trkpt lat="50.500939032062888" lon="5.303113041445613">
        <ele>243.34999999999999</ele>
        <time>2018-07-01T09:46:37Z</time>
      </trkpt>
      <trkpt lat="50.501329964026809" lon="5.301356026902795">
        <ele>246.72</ele>
        <time>2018-07-01T09:46:43Z</time>
      </trkpt>
      <trkpt lat="50.501870010048151" lon="5.298947989940643">
        <ele>250.56</ele>
        <time>2018-07-01T09:46:49Z</time>
      </trkpt>
      <trkpt lat="50.50262002274394" lon="5.295810978859663">
        <ele>254.41</ele>
        <time>2018-07-01T09:46:58Z</time>
      </trkpt>
      <trkpt lat="50.503245983272791" lon="5.293529005721211">
        <ele>256.81</ele>
        <time>2018-07-01T09:47:06Z</time>
      </trkpt>
      <trkpt lat="50.503775971010327" lon="5.291519025340676">
        <ele>257.76999999999998</ele>
        <time>2018-07-01T09:47:18Z</time>
      </trkpt>
      <trkpt lat="50.503981998190284" lon="5.290508000180125">
        <ele>256.32999999999998</ele>
        <time>2018-07-01T09:47:27Z</time>
      </trkpt>
      <trkpt lat="50.504162041470408" lon="5.289333024993539">
        <ele>254.88999999999999</ele>
        <time>2018-07-01T09:47:40Z</time>
      </trkpt>
      <trkpt lat="50.504322974011302" lon="5.288158971816301">
        <ele>255.84999999999999</ele>
        <time>2018-07-01T09:47:50Z</time>
      </trkpt>
      <trkpt lat="50.504322974011302" lon="5.288017988204956">
        <ele>255.84999999999999</ele>
        <time>2018-07-01T09:47:51Z</time>
      </trkpt>
      <trkpt lat="50.504311993718147" lon="5.287893014028668">
        <ele>255.84999999999999</ele>
        <time>2018-07-01T09:47:52Z</time>
      </trkpt>
      <trkpt lat="50.50429598428309" lon="5.287776002660394">
        <ele>255.84999999999999</ele>
        <time>2018-07-01T09:47:53Z</time>
      </trkpt>
      <trkpt lat="50.504280980676413" lon="5.287671983242035">
        <ele>255.37</ele>
        <time>2018-07-01T09:47:54Z</time>
      </trkpt>
      <trkpt lat="50.504245022311807" lon="5.287461010739207">
        <ele>254.88999999999999</ele>
        <time>2018-07-01T09:47:56Z</time>
      </trkpt>
      <trkpt lat="50.504213003441691" lon="5.287332013249397">
        <ele>254.41</ele>
        <time>2018-07-01T09:47:57Z</time>
      </trkpt>
      <trkpt lat="50.503891976550221" lon="5.286056036129594">
        <ele>254.41</ele>
        <time>2018-07-01T09:48:03Z</time>
      </trkpt>
      <trkpt lat="50.503314966335893" lon="5.283919991925359">
        <ele>255.84999999999999</ele>
        <time>2018-07-01T09:48:11Z</time>
      </trkpt>
      <trkpt lat="50.503211030736566" lon="5.283694015815854">
        <ele>255.84999999999999</ele>
        <time>2018-07-01T09:48:12Z</time>
      </trkpt>
      <trkpt lat="50.503099970519543" lon="5.283465022221208">
        <ele>255.84999999999999</ele>
        <time>2018-07-01T09:48:13Z</time>
      </trkpt>
      <trkpt lat="50.502205034717917" lon="5.2818370051682">
        <ele>257.76999999999998</ele>
        <time>2018-07-01T09:48:21Z</time>
      </trkpt>
      <trkpt lat="50.502134962007403" lon="5.281598037108779">
        <ele>258.25</ele>
        <time>2018-07-01T09:48:22Z</time>
      </trkpt>
      <trkpt lat="50.50208400003612" lon="5.281366026028991">
        <ele>258.25</ele>
        <time>2018-07-01T09:48:23Z</time>
      </trkpt>
      <trkpt lat="50.502049969509244" lon="5.281126974150538">
        <ele>258.25</ele>
        <time>2018-07-01T09:48:24Z</time>
      </trkpt>
      <trkpt lat="50.502057010307908" lon="5.280867973342538">
        <ele>258.25</ele>
        <time>2018-07-01T09:48:25Z</time>
      </trkpt>
      <trkpt lat="50.50206396728754" lon="5.280596986413002">
        <ele>258.25</ele>
        <time>2018-07-01T09:48:26Z</time>
      </trkpt>
      <trkpt lat="50.502074025571346" lon="5.280321976169944">
        <ele>258.25</ele>
        <time>2018-07-01T09:48:27Z</time>
      </trkpt>
      <trkpt lat="50.502381976693869" lon="5.277244979515672">
        <ele>257.29000000000002</ele>
        <time>2018-07-01T09:48:38Z</time>
      </trkpt>
      <trkpt lat="50.502528995275497" lon="5.275895996019244">
        <ele>255.37</ele>
        <time>2018-07-01T09:48:43Z</time>
      </trkpt>
      <trkpt lat="50.502560008317232" lon="5.27565099298954">
        <ele>255.37</ele>
        <time>2018-07-01T09:48:44Z</time>
      </trkpt>
      <trkpt lat="50.502643994987011" lon="5.275208009406924">
        <ele>254.88999999999999</ele>
        <time>2018-07-01T09:48:46Z</time>
      </trkpt>
      <trkpt lat="50.502697974443436" lon="5.274983961135149">
        <ele>254.88999999999999</ele>
        <time>2018-07-01T09:48:47Z</time>
      </trkpt>
      <trkpt lat="50.502775004133582" lon="5.274779023602605">
        <ele>254.41</ele>
        <time>2018-07-01T09:48:48Z</time>
      </trkpt>
      <trkpt lat="50.502866031602025" lon="5.274572996422648">
        <ele>254.41</ele>
        <time>2018-07-01T09:48:49Z</time>
      </trkpt>
      <trkpt lat="50.502957981079817" lon="5.274365963414311">
        <ele>254.41</ele>
        <time>2018-07-01T09:48:50Z</time>
      </trkpt>
      <trkpt lat="50.503619983792305" lon="5.273099038749933">
        <ele>252.96000000000001</ele>
        <time>2018-07-01T09:48:56Z</time>
      </trkpt>
      <trkpt lat="50.503751998767257" lon="5.272907009348273">
        <ele>252.96000000000001</ele>
        <time>2018-07-01T09:48:57Z</time>
      </trkpt>
      <trkpt lat="50.504957986995578" lon="5.271476972848177">
        <ele>251.03999999999999</ele>
        <time>2018-07-01T09:49:06Z</time>
      </trkpt>
      <trkpt lat="50.505194021388888" lon="5.271143959835172">
        <ele>251.03999999999999</ele>
        <time>2018-07-01T09:49:08Z</time>
      </trkpt>
      <trkpt lat="50.505410023033619" lon="5.270793009549379">
        <ele>251.03999999999999</ele>
        <time>2018-07-01T09:49:10Z</time>
      </trkpt>
      <trkpt lat="50.505516976118088" lon="5.270617995411158">
        <ele>250.56</ele>
        <time>2018-07-01T09:49:11Z</time>
      </trkpt>
      <trkpt lat="50.505630970001221" lon="5.270432000979781">
        <ele>250.56</ele>
        <time>2018-07-01T09:49:12Z</time>
      </trkpt>
      <trkpt lat="50.506780967116356" lon="5.268568033352494">
        <ele>250.08000000000001</ele>
        <time>2018-07-01T09:49:22Z</time>
      </trkpt>
      <trkpt lat="50.506885992363095" lon="5.268396958708763">
        <ele>249.59999999999999</ele>
        <time>2018-07-01T09:49:23Z</time>
      </trkpt>
      <trkpt lat="50.507163014262915" lon="5.267804022878408">
        <ele>247.68000000000001</ele>
        <time>2018-07-01T09:49:26Z</time>
      </trkpt>
      <trkpt lat="50.507529973983765" lon="5.266971029341221">
        <ele>244.78999999999999</ele>
        <time>2018-07-01T09:49:30Z</time>
      </trkpt>
      <trkpt lat="50.507619995623827" lon="5.266765002161264">
        <ele>243.83000000000001</ele>
        <time>2018-07-01T09:49:31Z</time>
      </trkpt>
      <trkpt lat="50.508453994989395" lon="5.264865998178721">
        <ele>239.50999999999999</ele>
        <time>2018-07-01T09:49:40Z</time>
      </trkpt>
      <trkpt lat="50.509465020149946" lon="5.262710005044937">
        <ele>233.74000000000001</ele>
        <time>2018-07-01T09:49:50Z</time>
      </trkpt>
      <trkpt lat="50.510302959010005" lon="5.261637037619948">
        <ele>231.33000000000001</ele>
        <time>2018-07-01T09:49:57Z</time>
      </trkpt>
      <trkpt lat="50.511841960251331" lon="5.259830988943577">
        <ele>226.53</ele>
        <time>2018-07-01T09:50:10Z</time>
      </trkpt>
      <trkpt lat="50.512918028980494" lon="5.258649978786707">
        <ele>221.24000000000001</ele>
        <time>2018-07-01T09:50:19Z</time>
      </trkpt>
      <trkpt lat="50.513048032298684" lon="5.258560040965676">
        <ele>220.28</ele>
        <time>2018-07-01T09:50:20Z</time>
      </trkpt>
      <trkpt lat="50.513188010081649" lon="5.258501032367349">
        <ele>219.80000000000001</ele>
        <time>2018-07-01T09:50:21Z</time>
      </trkpt>
      <trkpt lat="50.513343997299671" lon="5.258459039032459">
        <ele>218.84</ele>
        <time>2018-07-01T09:50:22Z</time>
      </trkpt>
      <trkpt lat="50.513501996174455" lon="5.258436994627118">
        <ele>217.88</ele>
        <time>2018-07-01T09:50:23Z</time>
      </trkpt>
      <trkpt lat="50.513656977564096" lon="5.258433977141976">
        <ele>216.43000000000001</ele>
        <time>2018-07-01T09:50:24Z</time>
      </trkpt>
      <trkpt lat="50.513811036944389" lon="5.258430959656835">
        <ele>215.47</ele>
        <time>2018-07-01T09:50:25Z</time>
      </trkpt>
      <trkpt lat="50.515221040695906" lon="5.258401036262512">
        <ele>204.41999999999999</ele>
        <time>2018-07-01T09:50:34Z</time>
      </trkpt>
      <trkpt lat="50.5156409740448" lon="5.258326018229127">
        <ele>200.09</ele>
        <time>2018-07-01T09:50:37Z</time>
      </trkpt>
      <trkpt lat="50.515779023990035" lon="5.258266003802419">
        <ele>198.16999999999999</ele>
        <time>2018-07-01T09:50:38Z</time>
      </trkpt>
      <trkpt lat="50.515919001773" lon="5.25820498354733">
        <ele>196.72999999999999</ele>
        <time>2018-07-01T09:50:39Z</time>
      </trkpt>
      <trkpt lat="50.517160026356578" lon="5.257366038858891">
        <ele>182.78999999999999</ele>
        <time>2018-07-01T09:50:48Z</time>
      </trkpt>
      <trkpt lat="50.517538972198963" lon="5.257016010582447">
        <ele>179.41999999999999</ele>
        <time>2018-07-01T09:50:51Z</time>
      </trkpt>
      <trkpt lat="50.517652966082096" lon="5.256879972293973">
        <ele>177.97999999999999</ele>
        <time>2018-07-01T09:50:52Z</time>
      </trkpt>
      <trkpt lat="50.518096033483744" lon="5.256350990384817">
        <ele>172.21000000000001</ele>
        <time>2018-07-01T09:50:56Z</time>
      </trkpt>
      <trkpt lat="50.518201980739832" lon="5.256222998723388">
        <ele>170.28999999999999</ele>
        <time>2018-07-01T09:50:57Z</time>
      </trkpt>
      <trkpt lat="50.519309984520078" lon="5.254855994135141">
        <ele>154.43000000000001</ele>
        <time>2018-07-01T09:51:08Z</time>
      </trkpt>
      <trkpt lat="50.51998196169734" lon="5.253411959856749">
        <ele>144.34</ele>
        <time>2018-07-01T09:51:17Z</time>
      </trkpt>
      <trkpt lat="50.520096961408854" lon="5.253000995144248">
        <ele>141.93000000000001</ele>
        <time>2018-07-01T09:51:19Z</time>
      </trkpt>
      <trkpt lat="50.520144989714026" lon="5.252792034298182">
        <ele>139.53</ele>
        <time>2018-07-01T09:51:21Z</time>
      </trkpt>
      <trkpt lat="50.520202992483974" lon="5.252349972724915">
        <ele>138.09</ele>
        <time>2018-07-01T09:51:22Z</time>
      </trkpt>
      <trkpt lat="50.520221013575792" lon="5.25212500244379">
        <ele>136.63999999999999</ele>
        <time>2018-07-01T09:51:23Z</time>
      </trkpt>
      <trkpt lat="50.520192012190819" lon="5.251911012455821">
        <ele>135.19999999999999</ele>
        <time>2018-07-01T09:51:24Z</time>
      </trkpt>
      <trkpt lat="50.520056979730725" lon="5.251063015311956">
        <ele>129.43000000000001</ele>
        <time>2018-07-01T09:51:28Z</time>
      </trkpt>
      <trkpt lat="50.520024038851261" lon="5.250854976475239">
        <ele>127.98999999999999</ele>
        <time>2018-07-01T09:51:29Z</time>
      </trkpt>
      <trkpt lat="50.519562028348446" lon="5.248478036373854">
        <ele>112.13</ele>
        <time>2018-07-01T09:51:42Z</time>
      </trkpt>
      <trkpt lat="50.519251981750131" lon="5.247024027630687">
        <ele>103.95999999999999</ele>
        <time>2018-07-01T09:51:51Z</time>
      </trkpt>
      <trkpt lat="50.518959034234285" lon="5.245905965566635">
        <ele>102.04000000000001</ele>
        <time>2018-07-01T09:51:59Z</time>
      </trkpt>
      <trkpt lat="50.518921986222267" lon="5.245775962248445">
        <ele>101.56</ele>
        <time>2018-07-01T09:52:00Z</time>
      </trkpt>
      <trkpt lat="50.518765999004245" lon="5.245258966460824">
        <ele>100.11</ele>
        <time>2018-07-01T09:52:04Z</time>
      </trkpt>
      <trkpt lat="50.518726017326117" lon="5.245133992284536">
        <ele>99.629999999999995</ele>
        <time>2018-07-01T09:52:05Z</time>
      </trkpt>
      <trkpt lat="50.518677989020944" lon="5.244984962046146">
        <ele>99.150000000000006</ele>
        <time>2018-07-01T09:52:06Z</time>
      </trkpt>
      <trkpt lat="50.518624009564519" lon="5.244903992861509">
        <ele>98.189999999999998</ele>
        <time>2018-07-01T09:52:07Z</time>
      </trkpt>
      <trkpt lat="50.518557038158178" lon="5.244803996756673">
        <ele>97.230000000000004</ele>
        <time>2018-07-01T09:52:08Z</time>
      </trkpt>
      <trkpt lat="50.518483025953174" lon="5.244707018136978">
        <ele>96.269999999999996</ele>
        <time>2018-07-01T09:52:09Z</time>
      </trkpt>
      <trkpt lat="50.518402978777885" lon="5.244607022032142">
        <ele>95.310000000000002</ele>
        <time>2018-07-01T09:52:10Z</time>
      </trkpt>
      <trkpt lat="50.517640979960561" lon="5.243526007980108">
        <ele>87.620000000000005</ele>
        <time>2018-07-01T09:52:20Z</time>
      </trkpt>
      <trkpt lat="50.516801029443741" lon="5.242165038362145">
        <ele>82.810000000000002</ele>
        <time>2018-07-01T09:52:32Z</time>
      </trkpt>
      <trkpt lat="50.51673598587513" lon="5.242038974538446">
        <ele>82.329999999999998</ele>
        <time>2018-07-01T09:52:33Z</time>
      </trkpt>
      <trkpt lat="50.516609000042081" lon="5.241773016750813">
        <ele>80.890000000000001</ele>
        <time>2018-07-01T09:52:35Z</time>
      </trkpt>
      <trkpt lat="50.516572035849094" lon="5.241627003997564">
        <ele>79.930000000000007</ele>
        <time>2018-07-01T09:52:36Z</time>
      </trkpt>
      <trkpt lat="50.516531970351934" lon="5.241465987637639">
        <ele>79.450000000000003</ele>
        <time>2018-07-01T09:52:37Z</time>
      </trkpt>
      <trkpt lat="50.516525013372302" lon="5.241333972662687">
        <ele>78.480000000000004</ele>
        <time>2018-07-01T09:52:38Z</time>
      </trkpt>
      <trkpt lat="50.516516966745257" lon="5.241200029850006">
        <ele>77.519999999999996</ele>
        <time>2018-07-01T09:52:39Z</time>
      </trkpt>
      <trkpt lat="50.516512021422386" lon="5.241063991561532">
        <ele>76.560000000000002</ele>
        <time>2018-07-01T09:52:40Z</time>
      </trkpt>
      <trkpt lat="50.516547979786992" lon="5.240663001313806">
        <ele>74.640000000000001</ele>
        <time>2018-07-01T09:52:44Z</time>
      </trkpt>
      <trkpt lat="50.516654010862112" lon="5.240356978029013">
        <ele>72.719999999999999</ele>
        <time>2018-07-01T09:52:50Z</time>
      </trkpt>
      <trkpt lat="50.516745960339904" lon="5.240244995802641">
        <ele>71.760000000000005</ele>
        <time>2018-07-01T09:52:52Z</time>
      </trkpt>
      <trkpt lat="50.516857020556927" lon="5.240249019116163">
        <ele>70.310000000000002</ele>
        <time>2018-07-01T09:52:54Z</time>
      </trkpt>
      <trkpt lat="50.517182992771268" lon="5.240261005237699">
        <ele>69.349999999999994</ele>
        <time>2018-07-01T09:52:58Z</time>
      </trkpt>
      <trkpt lat="50.517879026010633" lon="5.239991024136543">
        <ele>68.390000000000001</ele>
        <time>2018-07-01T09:53:07Z</time>
      </trkpt>
      <trkpt lat="50.518242968246341" lon="5.239794971421361">
        <ele>68.870000000000005</ele>
        <time>2018-07-01T09:53:13Z</time>
      </trkpt>
      <trkpt lat="50.518297031521797" lon="5.239768987521529">
        <ele>68.870000000000005</ele>
        <time>2018-07-01T09:53:14Z</time>
      </trkpt>
      <trkpt lat="50.518934978172183" lon="5.239487020298839">
        <ele>70.310000000000002</ele>
        <time>2018-07-01T09:53:24Z</time>
      </trkpt>
      <trkpt lat="50.518977977335453" lon="5.2394700050354">
        <ele>70.310000000000002</ele>
        <time>2018-07-01T09:53:25Z</time>
      </trkpt>
      <trkpt lat="50.519026005640626" lon="5.239436980336905">
        <ele>70.310000000000002</ele>
        <time>2018-07-01T09:53:26Z</time>
      </trkpt>
      <trkpt lat="50.519069004803896" lon="5.23940697312355">
        <ele>70.310000000000002</ele>
        <time>2018-07-01T09:53:27Z</time>
      </trkpt>
      <trkpt lat="50.519257010892034" lon="5.23927696980536">
        <ele>70.790000000000006</ele>
        <time>2018-07-01T09:53:30Z</time>
      </trkpt>
      <trkpt lat="50.519285006448627" lon="5.239220978692174">
        <ele>71.269999999999996</ele>
        <time>2018-07-01T09:53:31Z</time>
      </trkpt>
      <trkpt lat="50.519388020038605" lon="5.239015035331249">
        <ele>72.239999999999995</ele>
        <time>2018-07-01T09:53:34Z</time>
      </trkpt>
      <trkpt lat="50.519417021423578" lon="5.238958038389683">
        <ele>72.719999999999999</ele>
        <time>2018-07-01T09:53:35Z</time>
      </trkpt>
      <trkpt lat="50.519440993666649" lon="5.23891001008451">
        <ele>73.200000000000003</ele>
        <time>2018-07-01T09:53:36Z</time>
      </trkpt>
      <trkpt lat="50.519541995599866" lon="5.238680010661483">
        <ele>76.079999999999998</ele>
        <time>2018-07-01T09:53:41Z</time>
      </trkpt>
      <trkpt lat="50.519559010863304" lon="5.238629970699549">
        <ele>76.079999999999998</ele>
        <time>2018-07-01T09:53:42Z</time>
      </trkpt>
      <trkpt lat="50.519664958119392" lon="5.238589989021421">
        <ele>76.560000000000002</ele>
        <time>2018-07-01T09:53:43Z</time>
      </trkpt>
      <trkpt lat="50.519667975604534" lon="5.238583032041788">
        <ele>77.040000000000006</ele>
        <time>2018-07-01T09:53:44Z</time>
      </trkpt>
      <trkpt lat="50.519691025838256" lon="5.238526035100222">
        <ele>77.519999999999996</ele>
        <time>2018-07-01T09:53:45Z</time>
      </trkpt>
      <trkpt lat="50.519694965332747" lon="5.23843701928854">
        <ele>78</ele>
        <time>2018-07-01T09:53:46Z</time>
      </trkpt>
      <trkpt lat="50.519677028059959" lon="5.23837398737669">
        <ele>78</ele>
        <time>2018-07-01T09:53:47Z</time>
      </trkpt>
      <trkpt lat="50.519578959792852" lon="5.238375999033451">
        <ele>78.480000000000004</ele>
        <time>2018-07-01T09:53:48Z</time>
      </trkpt>
      <trkpt lat="50.519553981721401" lon="5.238336017355323">
        <ele>78</ele>
        <time>2018-07-01T09:53:49Z</time>
      </trkpt>
      <trkpt lat="50.519515005871654" lon="5.238271979615092">
        <ele>78</ele>
        <time>2018-07-01T09:53:50Z</time>
      </trkpt>
      <trkpt lat="50.519458008930087" lon="5.238190004602075">
        <ele>77.040000000000006</ele>
        <time>2018-07-01T09:53:51Z</time>
      </trkpt>
      <trkpt lat="50.519389025866985" lon="5.238122027367353">
        <ele>76.560000000000002</ele>
        <time>2018-07-01T09:53:52Z</time>
      </trkpt>
      <trkpt lat="50.518644964322448" lon="5.237183002755046">
        <ele>74.640000000000001</ele>
        <time>2018-07-01T09:54:03Z</time>
      </trkpt>
      <trkpt lat="50.518505992367864" lon="5.236988039687276">
        <ele>74.640000000000001</ele>
        <time>2018-07-01T09:54:05Z</time>
      </trkpt>
      <trkpt lat="50.51843399181962" lon="5.236887037754059">
        <ele>74.640000000000001</ele>
        <time>2018-07-01T09:54:06Z</time>
      </trkpt>
      <trkpt lat="50.517864022403955" lon="5.236086985096335">
        <ele>74.640000000000001</ele>
        <time>2018-07-01T09:54:13Z</time>
      </trkpt>
      <trkpt lat="50.516835981979966" lon="5.23517101071775">
        <ele>74.640000000000001</ele>
        <time>2018-07-01T09:54:23Z</time>
      </trkpt>
      <trkpt lat="50.516725005581975" lon="5.235071014612913">
        <ele>74.640000000000001</ele>
        <time>2018-07-01T09:54:24Z</time>
      </trkpt>
      <trkpt lat="50.516658034175634" lon="5.23493598215282">
        <ele>74.640000000000001</ele>
        <time>2018-07-01T09:54:25Z</time>
      </trkpt>
      <trkpt lat="50.516587039455771" lon="5.234796004369855">
        <ele>74.640000000000001</ele>
        <time>2018-07-01T09:54:26Z</time>
      </trkpt>
      <trkpt lat="50.516517972573638" lon="5.23465602658689">
        <ele>74.640000000000001</ele>
        <time>2018-07-01T09:54:27Z</time>
      </trkpt>
      <trkpt lat="50.516448989510536" lon="5.234518982470036">
        <ele>75.120000000000005</ele>
        <time>2018-07-01T09:54:28Z</time>
      </trkpt>
      <trkpt lat="50.516297025606036" lon="5.234065018594265">
        <ele>75.599999999999994</ele>
        <time>2018-07-01T09:54:31Z</time>
      </trkpt>
      <trkpt lat="50.516217984259129" lon="5.233737034723163">
        <ele>76.079999999999998</ele>
        <time>2018-07-01T09:54:33Z</time>
      </trkpt>
      <trkpt lat="50.516085969284177" lon="5.232633976265788">
        <ele>76.560000000000002</ele>
        <time>2018-07-01T09:54:39Z</time>
      </trkpt>
      <trkpt lat="50.516040036454797" lon="5.230721980333328">
        <ele>79.450000000000003</ele>
        <time>2018-07-01T09:54:48Z</time>
      </trkpt>
      <trkpt lat="50.515897963196039" lon="5.22885600104928">
        <ele>83.290000000000006</ele>
        <time>2018-07-01T09:54:56Z</time>
      </trkpt>
      <trkpt lat="50.51596200093627" lon="5.227464018389583">
        <ele>85.689999999999998</ele>
        <time>2018-07-01T09:55:02Z</time>
      </trkpt>
      <trkpt lat="50.516421999782324" lon="5.225713960826397">
        <ele>84.25</ele>
        <time>2018-07-01T09:55:11Z</time>
      </trkpt>
      <trkpt lat="50.516509003937244" lon="5.22541799582541">
        <ele>84.25</ele>
        <time>2018-07-01T09:55:13Z</time>
      </trkpt>
      <trkpt lat="50.516554014757276" lon="5.225263014435768">
        <ele>84.25</ele>
        <time>2018-07-01T09:55:14Z</time>
      </trkpt>
      <trkpt lat="50.516701033338904" lon="5.224789017811418">
        <ele>83.769999999999996</ele>
        <time>2018-07-01T09:55:17Z</time>
      </trkpt>
      <trkpt lat="50.51725197583437" lon="5.223656035959721">
        <ele>81.849999999999994</ele>
        <time>2018-07-01T09:55:25Z</time>
      </trkpt>
      <trkpt lat="50.517427995800972" lon="5.223410027101636">
        <ele>81.849999999999994</ele>
        <time>2018-07-01T09:55:27Z</time>
      </trkpt>
      <trkpt lat="50.517497984692454" lon="5.223311958834529">
        <ele>81.849999999999994</ele>
        <time>2018-07-01T09:55:28Z</time>
      </trkpt>
      <trkpt lat="50.517611978575587" lon="5.223211040720344">
        <ele>81.849999999999994</ele>
        <time>2018-07-01T09:55:29Z</time>
      </trkpt>
      <trkpt lat="50.517720021307468" lon="5.223115989938378">
        <ele>81.849999999999994</ele>
        <time>2018-07-01T09:55:30Z</time>
      </trkpt>
      <trkpt lat="50.517825968563557" lon="5.223023034632206">
        <ele>82.329999999999998</ele>
        <time>2018-07-01T09:55:31Z</time>
      </trkpt>
      <trkpt lat="50.517933005467057" lon="5.222935024648905">
        <ele>82.329999999999998</ele>
        <time>2018-07-01T09:55:32Z</time>
      </trkpt>
      <trkpt lat="50.518044987693429" lon="5.222847014665604">
        <ele>82.810000000000002</ele>
        <time>2018-07-01T09:55:33Z</time>
      </trkpt>
      <trkpt lat="50.518263000994921" lon="5.222676023840904">
        <ele>83.769999999999996</ele>
        <time>2018-07-01T09:55:35Z</time>
      </trkpt>
      <trkpt lat="50.518488977104425" lon="5.222497992217541">
        <ele>84.25</ele>
        <time>2018-07-01T09:55:37Z</time>
      </trkpt>
      <trkpt lat="50.518600959330797" lon="5.22240998223424">
        <ele>84.730000000000004</ele>
        <time>2018-07-01T09:55:38Z</time>
      </trkpt>
      <trkpt lat="50.51916497759521" lon="5.221965992823243">
        <ele>86.659999999999997</ele>
        <time>2018-07-01T09:55:43Z</time>
      </trkpt>
      <trkpt lat="50.519277965649962" lon="5.221876977011561">
        <ele>86.659999999999997</ele>
        <time>2018-07-01T09:55:44Z</time>
      </trkpt>
      <trkpt lat="50.51972396671772" lon="5.221533989533782">
        <ele>88.579999999999998</ele>
        <time>2018-07-01T09:55:48Z</time>
      </trkpt>
      <trkpt lat="50.519832009449601" lon="5.221451008692384">
        <ele>89.060000000000002</ele>
        <time>2018-07-01T09:55:49Z</time>
      </trkpt>
      <trkpt lat="50.520959962159395" lon="5.220566969364882">
        <ele>89.540000000000006</ele>
        <time>2018-07-01T09:56:00Z</time>
      </trkpt>
      <trkpt lat="50.521274032071233" lon="5.220319032669067">
        <ele>89.060000000000002</ele>
        <time>2018-07-01T09:56:03Z</time>
      </trkpt>
      <trkpt lat="50.52137603983283" lon="5.220237979665399">
        <ele>89.060000000000002</ele>
        <time>2018-07-01T09:56:04Z</time>
      </trkpt>
      <trkpt lat="50.522412965074182" lon="5.219417978078127">
        <ele>89.060000000000002</ele>
        <time>2018-07-01T09:56:14Z</time>
      </trkpt>
      <trkpt lat="50.522828958928585" lon="5.219087982550263">
        <ele>88.099999999999994</ele>
        <time>2018-07-01T09:56:18Z</time>
      </trkpt>
      <trkpt lat="50.523227015510201" lon="5.218827975913882">
        <ele>88.579999999999998</ele>
        <time>2018-07-01T09:56:22Z</time>
      </trkpt>
      <trkpt lat="50.523256016895175" lon="5.218822024762631">
        <ele>88.579999999999998</ele>
        <time>2018-07-01T09:56:23Z</time>
      </trkpt>
      <trkpt lat="50.523329023271799" lon="5.218808026984334">
        <ele>89.060000000000002</ele>
        <time>2018-07-01T09:56:24Z</time>
      </trkpt>
      <trkpt lat="50.523444022983313" lon="5.218537040054798">
        <ele>89.060000000000002</ele>
        <time>2018-07-01T09:56:26Z</time>
      </trkpt>
      <trkpt lat="50.523700006306171" lon="5.218373006209731">
        <ele>89.060000000000002</ele>
        <time>2018-07-01T09:56:29Z</time>
      </trkpt>
      <trkpt lat="50.523789022117853" lon="5.218298994004726">
        <ele>89.060000000000002</ele>
        <time>2018-07-01T09:56:30Z</time>
      </trkpt>
      <trkpt lat="50.52386898547411" lon="5.218218024820089">
        <ele>89.060000000000002</ele>
        <time>2018-07-01T09:56:31Z</time>
      </trkpt>
      <trkpt lat="50.523935034871101" lon="5.218120040372014">
        <ele>89.060000000000002</ele>
        <time>2018-07-01T09:56:32Z</time>
      </trkpt>
      <trkpt lat="50.52399798296392" lon="5.218024989590049">
        <ele>89.060000000000002</ele>
        <time>2018-07-01T09:56:33Z</time>
      </trkpt>
      <trkpt lat="50.524056991562247" lon="5.217936979606748">
        <ele>89.060000000000002</ele>
        <time>2018-07-01T09:56:34Z</time>
      </trkpt>
      <trkpt lat="50.524108037352562" lon="5.217860033735633">
        <ele>89.060000000000002</ele>
        <time>2018-07-01T09:56:35Z</time>
      </trkpt>
      <trkpt lat="50.524156987667084" lon="5.217787027359009">
        <ele>88.579999999999998</ele>
        <time>2018-07-01T09:56:36Z</time>
      </trkpt>
      <trkpt lat="50.52434197627008" lon="5.217756014317274">
        <ele>87.620000000000005</ele>
        <time>2018-07-01T09:56:38Z</time>
      </trkpt>
      <trkpt lat="50.524400984868407" lon="5.2176199760288">
        <ele>87.620000000000005</ele>
        <time>2018-07-01T09:56:39Z</time>
      </trkpt>
      <trkpt lat="50.524381035938859" lon="5.217478992417455">
        <ele>87.620000000000005</ele>
        <time>2018-07-01T09:56:40Z</time>
      </trkpt>
      <trkpt lat="50.524414982646704" lon="5.217205993831158">
        <ele>87.620000000000005</ele>
        <time>2018-07-01T09:56:42Z</time>
      </trkpt>
      <trkpt lat="50.524452030658722" lon="5.217061992734671">
        <ele>87.620000000000005</ele>
        <time>2018-07-01T09:56:43Z</time>
      </trkpt>
      <trkpt lat="50.524490000680089" lon="5.21690902300179">
        <ele>87.620000000000005</ele>
        <time>2018-07-01T09:56:44Z</time>
      </trkpt>
      <trkpt lat="50.524539034813643" lon="5.216770973056555">
        <ele>87.140000000000001</ele>
        <time>2018-07-01T09:56:45Z</time>
      </trkpt>
      <trkpt lat="50.52462000399828" lon="5.216640969738364">
        <ele>87.620000000000005</ele>
        <time>2018-07-01T09:56:46Z</time>
      </trkpt>
      <trkpt lat="50.524704996496439" lon="5.216505015268922">
        <ele>87.620000000000005</ele>
        <time>2018-07-01T09:56:47Z</time>
      </trkpt>
      <trkpt lat="50.525364987552166" lon="5.215489966794848">
        <ele>89.540000000000006</ele>
        <time>2018-07-01T09:56:54Z</time>
      </trkpt>
      <trkpt lat="50.52547998726368" lon="5.215376978740096">
        <ele>90.019999999999996</ele>
        <time>2018-07-01T09:56:55Z</time>
      </trkpt>
      <trkpt lat="50.525598004460335" lon="5.215262984856963">
        <ele>90.5</ele>
        <time>2018-07-01T09:56:56Z</time>
      </trkpt>
      <trkpt lat="50.526925027370453" lon="5.214328989386559">
        <ele>92.420000000000002</ele>
        <time>2018-07-01T09:57:06Z</time>
      </trkpt>
      <trkpt lat="50.528351040557027" lon="5.21370998583734">
        <ele>94.829999999999998</ele>
        <time>2018-07-01T09:57:17Z</time>
      </trkpt>
      <trkpt lat="50.528979012742639" lon="5.21342902444303">
        <ele>92.900000000000006</ele>
        <time>2018-07-01T09:57:22Z</time>
      </trkpt>
      <trkpt lat="50.529119996353984" lon="5.21338602527976">
        <ele>92.420000000000002</ele>
        <time>2018-07-01T09:57:23Z</time>
      </trkpt>
      <trkpt lat="50.53046302869916" lon="5.212625032290816">
        <ele>86.659999999999997</ele>
        <time>2018-07-01T09:57:31Z</time>
      </trkpt>
      <trkpt lat="50.531808994710445" lon="5.211042026057839">
        <ele>84.25</ele>
        <time>2018-07-01T09:57:38Z</time>
      </trkpt>
      <trkpt lat="50.532870981842279" lon="5.209207981824875">
        <ele>82.810000000000002</ele>
        <time>2018-07-01T09:57:45Z</time>
      </trkpt>
      <trkpt lat="50.533385965973139" lon="5.20786402747035">
        <ele>82.810000000000002</ele>
        <time>2018-07-01T09:57:51Z</time>
      </trkpt>
      <trkpt lat="50.533482022583485" lon="5.207568984478712">
        <ele>82.810000000000002</ele>
        <time>2018-07-01T09:57:53Z</time>
      </trkpt>
      <trkpt lat="50.533582018688321" lon="5.207426995038986">
        <ele>82.810000000000002</ele>
        <time>2018-07-01T09:57:54Z</time>
      </trkpt>
      <trkpt lat="50.533698024228215" lon="5.207411991432309">
        <ele>82.810000000000002</ele>
        <time>2018-07-01T09:57:55Z</time>
      </trkpt>
      <trkpt lat="50.533726019784808" lon="5.20732800476253">
        <ele>82.810000000000002</ele>
        <time>2018-07-01T09:57:56Z</time>
      </trkpt>
      <trkpt lat="50.533769018948078" lon="5.207201018929482">
        <ele>82.810000000000002</ele>
        <time>2018-07-01T09:57:57Z</time>
      </trkpt>
      <trkpt lat="50.533760972321033" lon="5.20704997703433">
        <ele>82.810000000000002</ele>
        <time>2018-07-01T09:57:58Z</time>
      </trkpt>
      <trkpt lat="50.533769018948078" lon="5.206845961511135">
        <ele>82.810000000000002</ele>
        <time>2018-07-01T09:57:59Z</time>
      </trkpt>
      <trkpt lat="50.533814029768109" lon="5.206654015928507">
        <ele>82.810000000000002</ele>
        <time>2018-07-01T09:58:00Z</time>
      </trkpt>
      <trkpt lat="50.533856023102999" lon="5.206442037597299">
        <ele>82.810000000000002</ele>
        <time>2018-07-01T09:58:01Z</time>
      </trkpt>
      <trkpt lat="50.533879995346069" lon="5.206211032345891">
        <ele>82.810000000000002</ele>
        <time>2018-07-01T09:58:02Z</time>
      </trkpt>
      <trkpt lat="50.533876977860928" lon="5.204275986179709">
        <ele>86.659999999999997</ele>
        <time>2018-07-01T09:58:09Z</time>
      </trkpt>
      <trkpt lat="50.533590987324715" lon="5.201304014772177">
        <ele>95.790000000000006</ele>
        <time>2018-07-01T09:58:18Z</time>
      </trkpt>
      <trkpt lat="50.533648990094662" lon="5.200589960440993">
        <ele>98.189999999999998</ele>
        <time>2018-07-01T09:58:20Z</time>
      </trkpt>
      <trkpt lat="50.533738005906343" lon="5.199871966615319">
        <ele>100.59999999999999</ele>
        <time>2018-07-01T09:58:22Z</time>
      </trkpt>
      <trkpt lat="50.534188030287623" lon="5.198078993707895">
        <ele>107.31999999999999</ele>
        <time>2018-07-01T09:58:28Z</time>
      </trkpt>
      <trkpt lat="50.535140968859196" lon="5.195690989494324">
        <ele>116.94</ele>
        <time>2018-07-01T09:58:38Z</time>
      </trkpt>
      <trkpt lat="50.536552984267473" lon="5.192150976508856">
        <ele>127.51000000000001</ele>
        <time>2018-07-01T09:58:49Z</time>
      </trkpt>
      <trkpt lat="50.538582997396588" lon="5.187148991972208">
        <ele>138.09</ele>
        <time>2018-07-01T09:59:06Z</time>
      </trkpt>
      <trkpt lat="50.539625035598874" lon="5.18407803028822">
        <ele>140.00999999999999</ele>
        <time>2018-07-01T09:59:16Z</time>
      </trkpt>
      <trkpt lat="50.540172960609198" lon="5.181088037788868">
        <ele>140.97</ele>
        <time>2018-07-01T09:59:25Z</time>
      </trkpt>
      <trkpt lat="50.54028301499784" lon="5.178819978609681">
        <ele>139.53</ele>
        <time>2018-07-01T09:59:33Z</time>
      </trkpt>
      <trkpt lat="50.540392985567451" lon="5.175740970298648">
        <ele>138.09</ele>
        <time>2018-07-01T09:59:45Z</time>
      </trkpt>
      <trkpt lat="50.540527012199163" lon="5.171844977885485">
        <ele>136.63999999999999</ele>
        <time>2018-07-01T10:00:00Z</time>
      </trkpt>
      <trkpt lat="50.540632037445903" lon="5.16854602843523">
        <ele>140.97</ele>
        <time>2018-07-01T10:00:10Z</time>
      </trkpt>
      <trkpt lat="50.540597001090646" lon="5.164742991328239">
        <ele>141.93000000000001</ele>
        <time>2018-07-01T10:00:21Z</time>
      </trkpt>
      <trkpt lat="50.540371024981141" lon="5.159934964030981">
        <ele>142.41</ele>
        <time>2018-07-01T10:00:35Z</time>
      </trkpt>
      <trkpt lat="50.540638994425535" lon="5.157593982294202">
        <ele>144.81999999999999</ele>
        <time>2018-07-01T10:00:43Z</time>
      </trkpt>
      <trkpt lat="50.541030010208488" lon="5.154053969308734">
        <ele>140.97</ele>
        <time>2018-07-01T10:00:55Z</time>
      </trkpt>
      <trkpt lat="50.541391018778086" lon="5.151366982609034">
        <ele>136.63999999999999</ele>
        <time>2018-07-01T10:01:04Z</time>
      </trkpt>
      <trkpt lat="50.541458996012807" lon="5.151123991236091">
        <ele>136.63999999999999</ele>
        <time>2018-07-01T10:01:05Z</time>
      </trkpt>
      <trkpt lat="50.541540971025825" lon="5.150908995419741">
        <ele>136.16</ele>
        <time>2018-07-01T10:01:06Z</time>
      </trkpt>
      <trkpt lat="50.54161598905921" lon="5.150753008201718">
        <ele>136.16</ele>
        <time>2018-07-01T10:01:07Z</time>
      </trkpt>
      <trkpt lat="50.541670974344015" lon="5.150637002661824">
        <ele>136.16</ele>
        <time>2018-07-01T10:01:08Z</time>
      </trkpt>
      <trkpt lat="50.542203979566693" lon="5.149550959467888">
        <ele>138.56999999999999</ele>
        <time>2018-07-01T10:01:18Z</time>
      </trkpt>
      <trkpt lat="50.542861958965659" lon="5.148242963477969">
        <ele>138.09</ele>
        <time>2018-07-01T10:01:25Z</time>
      </trkpt>
      <trkpt lat="50.543431006371975" lon="5.147065976634622">
        <ele>138.56999999999999</ele>
        <time>2018-07-01T10:01:31Z</time>
      </trkpt>
      <trkpt lat="50.543620018288493" lon="5.14667303301394">
        <ele>137.61000000000001</ele>
        <time>2018-07-01T10:01:33Z</time>
      </trkpt>
      <trkpt lat="50.543713979423046" lon="5.146478991955519">
        <ele>137.13</ele>
        <time>2018-07-01T10:01:34Z</time>
      </trkpt>
      <trkpt lat="50.544446976855397" lon="5.144940996542573">
        <ele>134.24000000000001</ele>
        <time>2018-07-01T10:01:42Z</time>
      </trkpt>
      <trkpt lat="50.544511014595628" lon="5.144712002947927">
        <ele>134.24000000000001</ele>
        <time>2018-07-01T10:01:43Z</time>
      </trkpt>
      <trkpt lat="50.544547978788614" lon="5.144477980211377">
        <ele>133.75999999999999</ele>
        <time>2018-07-01T10:01:44Z</time>
      </trkpt>
      <trkpt lat="50.544570023193955" lon="5.144229959696531">
        <ele>133.75999999999999</ele>
        <time>2018-07-01T10:01:45Z</time>
      </trkpt>
      <trkpt lat="50.544569017365575" lon="5.143985962495208">
        <ele>132.80000000000001</ele>
        <time>2018-07-01T10:01:46Z</time>
      </trkpt>
      <trkpt lat="50.54455703124404" lon="5.143727967515588">
        <ele>132.31999999999999</ele>
        <time>2018-07-01T10:01:47Z</time>
      </trkpt>
      <trkpt lat="50.544544961303473" lon="5.143469972535968">
        <ele>131.84</ele>
        <time>2018-07-01T10:01:48Z</time>
      </trkpt>
      <trkpt lat="50.544490981847048" lon="5.142216961830854">
        <ele>130.88</ele>
        <time>2018-07-01T10:01:53Z</time>
      </trkpt>
      <trkpt lat="50.544510008767247" lon="5.141983022913337">
        <ele>130.88</ele>
        <time>2018-07-01T10:01:54Z</time>
      </trkpt>
      <trkpt lat="50.544558959081769" lon="5.141755035147071">
        <ele>131.36000000000001</ele>
        <time>2018-07-01T10:01:55Z</time>
      </trkpt>
      <trkpt lat="50.545022981241345" lon="5.139762992039323">
        <ele>135.19999999999999</ele>
        <time>2018-07-01T10:02:02Z</time>
      </trkpt>
      <trkpt lat="50.545921018347144" lon="5.135873034596443">
        <ele>139.53</ele>
        <time>2018-07-01T10:02:14Z</time>
      </trkpt>
      <trkpt lat="50.546059990301728" lon="5.135323014110327">
        <ele>140.49000000000001</ele>
        <time>2018-07-01T10:02:16Z</time>
      </trkpt>
      <trkpt lat="50.546280015259981" lon="5.134846000000835">
        <ele>141.44999999999999</ele>
        <time>2018-07-01T10:02:18Z</time>
      </trkpt>
      <trkpt lat="50.546401971951127" lon="5.134638966992497">
        <ele>141.44999999999999</ele>
        <time>2018-07-01T10:02:19Z</time>
      </trkpt>
      <trkpt lat="50.546540021896362" lon="5.134442998096347">
        <ele>141.44999999999999</ele>
        <time>2018-07-01T10:02:20Z</time>
      </trkpt>
      <trkpt lat="50.547079984098673" lon="5.133584020659328">
        <ele>142.41</ele>
        <time>2018-07-01T10:02:24Z</time>
      </trkpt>
      <trkpt lat="50.547190038487315" lon="5.133343962952495">
        <ele>142.41</ele>
        <time>2018-07-01T10:02:25Z</time>
      </trkpt>
      <trkpt lat="50.547263966873288" lon="5.133067024871707">
        <ele>142.41</ele>
        <time>2018-07-01T10:02:26Z</time>
      </trkpt>
      <trkpt lat="50.547340996563435" lon="5.132780028507114">
        <ele>142.41</ele>
        <time>2018-07-01T10:02:27Z</time>
      </trkpt>
      <trkpt lat="50.547415008768439" lon="5.132488003000617">
        <ele>142.41</ele>
        <time>2018-07-01T10:02:28Z</time>
      </trkpt>
      <trkpt lat="50.547457002103329" lon="5.132174016907811">
        <ele>142.41</ele>
        <time>2018-07-01T10:02:29Z</time>
      </trkpt>
      <trkpt lat="50.547913983464241" lon="5.128925023600459">
        <ele>140.49000000000001</ele>
        <time>2018-07-01T10:02:39Z</time>
      </trkpt>
      <trkpt lat="50.548153035342693" lon="5.128034027293325">
        <ele>139.53</ele>
        <time>2018-07-01T10:02:42Z</time>
      </trkpt>
      <trkpt lat="50.548586966469884" lon="5.126644978299737">
        <ele>138.56999999999999</ele>
        <time>2018-07-01T10:02:48Z</time>
      </trkpt>
      <trkpt lat="50.549362041056156" lon="5.124410027638078">
        <ele>140.00999999999999</ele>
        <time>2018-07-01T10:02:59Z</time>
      </trkpt>
      <trkpt lat="50.549678960815072" lon="5.123311998322606">
        <ele>140.49000000000001</ele>
        <time>2018-07-01T10:03:04Z</time>
      </trkpt>
      <trkpt lat="50.54973897524178" lon="5.123097002506256">
        <ele>140.97</ele>
        <time>2018-07-01T10:03:05Z</time>
      </trkpt>
      <trkpt lat="50.550116999074817" lon="5.12110797688365">
        <ele>146.25999999999999</ele>
        <time>2018-07-01T10:03:14Z</time>
      </trkpt>
      <trkpt lat="50.550259994342923" lon="5.119464034214616">
        <ele>147.22</ele>
        <time>2018-07-01T10:03:22Z</time>
      </trkpt>
      <trkpt lat="50.550185982137918" lon="5.117619009688497">
        <ele>147.22</ele>
        <time>2018-07-01T10:03:29Z</time>
      </trkpt>
      <trkpt lat="50.5500159971416" lon="5.115001006051898">
        <ele>148.18000000000001</ele>
        <time>2018-07-01T10:03:37Z</time>
      </trkpt>
      <trkpt lat="50.549794966354966" lon="5.111715970560908">
        <ele>152.03</ele>
        <time>2018-07-01T10:03:49Z</time>
      </trkpt>
      <trkpt lat="50.549664041027427" lon="5.109735997393727">
        <ele>152.03</ele>
        <time>2018-07-01T10:03:55Z</time>
      </trkpt>
      <trkpt lat="50.549445021897554" lon="5.106291035190225">
        <ele>158.27000000000001</ele>
        <time>2018-07-01T10:04:05Z</time>
      </trkpt>
      <trkpt lat="50.549292974174023" lon="5.103843016549945">
        <ele>164.03999999999999</ele>
        <time>2018-07-01T10:04:13Z</time>
      </trkpt>
      <trkpt lat="50.549043025821447" lon="5.100356983020902">
        <ele>175.09999999999999</ele>
        <time>2018-07-01T10:04:26Z</time>
      </trkpt>
      <trkpt lat="50.548857031390071" lon="5.097614005208015">
        <ele>179.41999999999999</ele>
        <time>2018-07-01T10:04:36Z</time>
      </trkpt>
      <trkpt lat="50.548839010298252" lon="5.097349975258112">
        <ele>179.41999999999999</ele>
        <time>2018-07-01T10:04:37Z</time>
      </trkpt>
      <trkpt lat="50.548634994775057" lon="5.094243977218866">
        <ele>186.15000000000001</ele>
        <time>2018-07-01T10:04:49Z</time>
      </trkpt>
      <trkpt lat="50.548590989783406" lon="5.092368023470044">
        <ele>189.52000000000001</ele>
        <time>2018-07-01T10:04:55Z</time>
      </trkpt>
      <trkpt lat="50.5487069953233" lon="5.08948196657002">
        <ele>195.28</ele>
        <time>2018-07-01T10:05:03Z</time>
      </trkpt>
      <trkpt lat="50.548993991687894" lon="5.084898993372917">
        <ele>203.46000000000001</ele>
        <time>2018-07-01T10:05:15Z</time>
      </trkpt>
      <trkpt lat="50.549256009981036" lon="5.080650039017201">
        <ele>206.81999999999999</ele>
        <time>2018-07-01T10:05:26Z</time>
      </trkpt>
      <trkpt lat="50.549469999969006" lon="5.076708029955626">
        <ele>204.90000000000001</ele>
        <time>2018-07-01T10:05:37Z</time>
      </trkpt>
      <trkpt lat="50.549688013270497" lon="5.073075983673334">
        <ele>200.56999999999999</ele>
        <time>2018-07-01T10:05:48Z</time>
      </trkpt>
      <trkpt lat="50.549836037680507" lon="5.070651015266776">
        <ele>200.56999999999999</ele>
        <time>2018-07-01T10:05:57Z</time>
      </trkpt>
      <trkpt lat="50.550024965777993" lon="5.067538982257247">
        <ele>200.09</ele>
        <time>2018-07-01T10:06:06Z</time>
      </trkpt>
      <trkpt lat="50.55012202821672" lon="5.065957987681031">
        <ele>200.09</ele>
        <time>2018-07-01T10:06:12Z</time>
      </trkpt>
      <trkpt lat="50.550193022936583" lon="5.064788041636348">
        <ele>198.65000000000001</ele>
        <time>2018-07-01T10:06:19Z</time>
      </trkpt>
      <trkpt lat="50.550293019041419" lon="5.063348030671477">
        <ele>193.36000000000001</ele>
        <time>2018-07-01T10:06:31Z</time>
      </trkpt>
      <trkpt lat="50.550397038459778" lon="5.061839036643505">
        <ele>193.36000000000001</ele>
        <time>2018-07-01T10:06:43Z</time>
      </trkpt>
      <trkpt lat="50.550504997372627" lon="5.060173971578479">
        <ele>196.72999999999999</ele>
        <time>2018-07-01T10:06:55Z</time>
      </trkpt>
      <trkpt lat="50.550598036497831" lon="5.058722980320454">
        <ele>198.65000000000001</ele>
        <time>2018-07-01T10:07:05Z</time>
      </trkpt>
      <trkpt lat="50.550637012347579" lon="5.058113029226661">
        <ele>199.61000000000001</ele>
        <time>2018-07-01T10:07:10Z</time>
      </trkpt>
      <trkpt lat="50.550644975155592" lon="5.057988977059722">
        <ele>199.61000000000001</ele>
        <time>2018-07-01T10:07:11Z</time>
      </trkpt>
      <trkpt lat="50.550756035372615" lon="5.056369006633759">
        <ele>200.56999999999999</ele>
        <time>2018-07-01T10:07:21Z</time>
      </trkpt>
      <trkpt lat="50.55091998539865" lon="5.054053002968431">
        <ele>201.05000000000001</ele>
        <time>2018-07-01T10:07:30Z</time>
      </trkpt>
      <trkpt lat="50.551110003143549" lon="5.051054963842034">
        <ele>201.53</ele>
        <time>2018-07-01T10:07:42Z</time>
      </trkpt>
      <trkpt lat="50.551208993420005" lon="5.048356996849179">
        <ele>198.16999999999999</ele>
        <time>2018-07-01T10:07:52Z</time>
      </trkpt>
      <trkpt lat="50.551342014223337" lon="5.045907972380519">
        <ele>198.16999999999999</ele>
        <time>2018-07-01T10:08:01Z</time>
      </trkpt>
      <trkpt lat="50.551976021379232" lon="5.044128997251391">
        <ele>201.05000000000001</ele>
        <time>2018-07-01T10:08:09Z</time>
      </trkpt>
      <trkpt lat="50.552668031305075" lon="5.042706001549959">
        <ele>201.05000000000001</ele>
        <time>2018-07-01T10:08:14Z</time>
      </trkpt>
      <trkpt lat="50.553774023428559" lon="5.040510026738048">
        <ele>199.61000000000001</ele>
        <time>2018-07-01T10:08:22Z</time>
      </trkpt>
      <trkpt lat="50.554672982543707" lon="5.038651004433632">
        <ele>198.16999999999999</ele>
        <time>2018-07-01T10:08:31Z</time>
      </trkpt>
      <trkpt lat="50.55555903352797" lon="5.036897007375956">
        <ele>199.61000000000001</ele>
        <time>2018-07-01T10:08:42Z</time>
      </trkpt>
      <trkpt lat="50.555673027411103" lon="5.03666901960969">
        <ele>199.61000000000001</ele>
        <time>2018-07-01T10:08:44Z</time>
      </trkpt>
      <trkpt lat="50.555804958567023" lon="5.036379005759955">
        <ele>199.13</ele>
        <time>2018-07-01T10:08:50Z</time>
      </trkpt>
      <trkpt lat="50.555879976600409" lon="5.036212960258126">
        <ele>199.61000000000001</ele>
        <time>2018-07-01T10:08:52Z</time>
      </trkpt>
      <trkpt lat="50.555929010733962" lon="5.036114975810051">
        <ele>199.61000000000001</ele>
        <time>2018-07-01T10:08:53Z</time>
      </trkpt>
      <trkpt lat="50.555987013503909" lon="5.035998970270157">
        <ele>200.09</ele>
        <time>2018-07-01T10:08:54Z</time>
      </trkpt>
      <trkpt lat="50.55605499073863" lon="5.035867961123586">
        <ele>200.56999999999999</ele>
        <time>2018-07-01T10:08:55Z</time>
      </trkpt>
      <trkpt lat="50.556130008772016" lon="5.03572697751224">
        <ele>200.56999999999999</ele>
        <time>2018-07-01T10:08:56Z</time>
      </trkpt>
      <trkpt lat="50.556207960471511" lon="5.035579958930612">
        <ele>200.56999999999999</ele>
        <time>2018-07-01T10:08:57Z</time>
      </trkpt>
      <trkpt lat="50.556283984333277" lon="5.035435035824776">
        <ele>201.05000000000001</ele>
        <time>2018-07-01T10:08:58Z</time>
      </trkpt>
      <trkpt lat="50.556682962924242" lon="5.034608999267221">
        <ele>201.53</ele>
        <time>2018-07-01T10:09:03Z</time>
      </trkpt>
      <trkpt lat="50.557549986988306" lon="5.032872017472982">
        <ele>202.97999999999999</ele>
        <time>2018-07-01T10:09:12Z</time>
      </trkpt>
      <trkpt lat="50.558607028797269" lon="5.030762040987611">
        <ele>202.49000000000001</ele>
        <time>2018-07-01T10:09:21Z</time>
      </trkpt>
      <trkpt lat="50.560008985921741" lon="5.027975980192423">
        <ele>202.49000000000001</ele>
        <time>2018-07-01T10:09:30Z</time>
      </trkpt>
      <trkpt lat="50.562223987653852" lon="5.023524016141892">
        <ele>198.65000000000001</ele>
        <time>2018-07-01T10:09:43Z</time>
      </trkpt>
      <trkpt lat="50.563815040513873" lon="5.020343000069261">
        <ele>194.31999999999999</ele>
        <time>2018-07-01T10:09:54Z</time>
      </trkpt>
      <trkpt lat="50.565544981509447" lon="5.016892002895474">
        <ele>185.19</ele>
        <time>2018-07-01T10:10:06Z</time>
      </trkpt>
      <trkpt lat="50.567116001620889" lon="5.013737976551056">
        <ele>181.83000000000001</ele>
        <time>2018-07-01T10:10:17Z</time>
      </trkpt>
      <trkpt lat="50.568351997062564" lon="5.011255005374551">
        <ele>182.78999999999999</ele>
        <time>2018-07-01T10:10:26Z</time>
      </trkpt>
      <trkpt lat="50.56987096555531" lon="5.008225031197071">
        <ele>183.75</ele>
        <time>2018-07-01T10:10:38Z</time>
      </trkpt>
      <trkpt lat="50.570702031254768" lon="5.00656801275909">
        <ele>184.22999999999999</ele>
        <time>2018-07-01T10:10:46Z</time>
      </trkpt>
      <trkpt lat="50.571332015097141" lon="5.005267979577184">
        <ele>183.27000000000001</ele>
        <time>2018-07-01T10:10:55Z</time>
      </trkpt>
      <trkpt lat="50.572164002805948" lon="5.003644991666079">
        <ele>180.87</ele>
        <time>2018-07-01T10:11:06Z</time>
      </trkpt>
      <trkpt lat="50.572721986100078" lon="5.00280998647213">
        <ele>178.46000000000001</ele>
        <time>2018-07-01T10:11:12Z</time>
      </trkpt>
      <trkpt lat="50.573373008519411" lon="5.002041030675173">
        <ele>176.53999999999999</ele>
        <time>2018-07-01T10:11:18Z</time>
      </trkpt>
      <trkpt lat="50.573452971875668" lon="5.001852018758655">
        <ele>176.53999999999999</ele>
        <time>2018-07-01T10:11:19Z</time>
      </trkpt>
      <trkpt lat="50.57352103292942" lon="5.00169200822711">
        <ele>176.53999999999999</ele>
        <time>2018-07-01T10:11:20Z</time>
      </trkpt>
      <trkpt lat="50.573585992679" lon="5.001539960503578">
        <ele>176.53999999999999</ele>
        <time>2018-07-01T10:11:21Z</time>
      </trkpt>
      <trkpt lat="50.573646007105708" lon="5.001397971063852">
        <ele>177.02000000000001</ele>
        <time>2018-07-01T10:11:22Z</time>
      </trkpt>
      <trkpt lat="50.573691017925739" lon="5.001252964138985">
        <ele>177.02000000000001</ele>
        <time>2018-07-01T10:11:23Z</time>
      </trkpt>
      <trkpt lat="50.574020007625222" lon="4.999707005918026">
        <ele>177.5</ele>
        <time>2018-07-01T10:11:32Z</time>
      </trkpt>
      <trkpt lat="50.574179012328386" lon="4.998964034020901">
        <ele>177.02000000000001</ele>
        <time>2018-07-01T10:11:37Z</time>
      </trkpt>
      <trkpt lat="50.574471037834883" lon="4.997517988085747">
        <ele>177.97999999999999</ele>
        <time>2018-07-01T10:11:46Z</time>
      </trkpt>
      <trkpt lat="50.575013011693954" lon="4.994927980005741">
        <ele>174.62</ele>
        <time>2018-07-01T10:11:58Z</time>
      </trkpt>
      <trkpt lat="50.575420036911964" lon="4.99297097325325">
        <ele>175.58000000000001</ele>
        <time>2018-07-01T10:12:06Z</time>
      </trkpt>
      <trkpt lat="50.575986988842487" lon="4.990193964913487">
        <ele>174.62</ele>
        <time>2018-07-01T10:12:14Z</time>
      </trkpt>
      <trkpt lat="50.576819982379675" lon="4.986122036352754">
        <ele>171.72999999999999</ele>
        <time>2018-07-01T10:12:25Z</time>
      </trkpt>
      <trkpt lat="50.577793037518859" lon="4.981412999331951">
        <ele>168.37</ele>
        <time>2018-07-01T10:12:39Z</time>
      </trkpt>
      <trkpt lat="50.5783970374614" lon="4.97850900515914">
        <ele>165.96000000000001</ele>
        <time>2018-07-01T10:12:49Z</time>
      </trkpt>
      <trkpt lat="50.578703982755542" lon="4.976951982825995">
        <ele>161.63999999999999</ele>
        <time>2018-07-01T10:12:58Z</time>
      </trkpt>
      <trkpt lat="50.578757040202618" lon="4.976687030866742">
        <ele>160.68000000000001</ele>
        <time>2018-07-01T10:13:00Z</time>
      </trkpt>
      <trkpt lat="50.578932976350188" lon="4.975926959887147">
        <ele>158.27000000000001</ele>
        <time>2018-07-01T10:13:05Z</time>
      </trkpt>
      <trkpt lat="50.578977987170219" lon="4.975744988769293">
        <ele>157.78999999999999</ele>
        <time>2018-07-01T10:13:06Z</time>
      </trkpt>
      <trkpt lat="50.579046970233321" lon="4.975580032914877">
        <ele>157.31</ele>
        <time>2018-07-01T10:13:07Z</time>
      </trkpt>
      <trkpt lat="50.579118970781565" lon="4.975406024605036">
        <ele>156.83000000000001</ele>
        <time>2018-07-01T10:13:08Z</time>
      </trkpt>
      <trkpt lat="50.579194994643331" lon="4.97522396966815">
        <ele>155.87</ele>
        <time>2018-07-01T10:13:09Z</time>
      </trkpt>
      <trkpt lat="50.579295996576548" lon="4.974982989951968">
        <ele>155.38999999999999</ele>
        <time>2018-07-01T10:13:10Z</time>
      </trkpt>
      <trkpt lat="50.579570000991225" lon="4.974537994712591">
        <ele>152.03</ele>
        <time>2018-07-01T10:13:13Z</time>
      </trkpt>
      <trkpt lat="50.580464014783502" lon="4.972851974889636">
        <ele>144.81999999999999</ele>
        <time>2018-07-01T10:13:22Z</time>
      </trkpt>
      <trkpt lat="50.581086035817862" lon="4.970987001433969">
        <ele>145.78</ele>
        <time>2018-07-01T10:13:31Z</time>
      </trkpt>
      <trkpt lat="50.581560032442212" lon="4.969004010781646">
        <ele>150.09999999999999</ele>
        <time>2018-07-01T10:13:40Z</time>
      </trkpt>
      <trkpt lat="50.581647036597133" lon="4.968509981408715">
        <ele>151.53999999999999</ele>
        <time>2018-07-01T10:13:42Z</time>
      </trkpt>
      <trkpt lat="50.581691041588783" lon="4.968259027227759">
        <ele>152.50999999999999</ele>
        <time>2018-07-01T10:13:43Z</time>
      </trkpt>
      <trkpt lat="50.582271991297603" lon="4.964947002008557">
        <ele>161.16</ele>
        <time>2018-07-01T10:13:55Z</time>
      </trkpt>
      <trkpt lat="50.582755040377378" lon="4.962192960083485">
        <ele>165.96000000000001</ele>
        <time>2018-07-01T10:14:03Z</time>
      </trkpt>
      <trkpt lat="50.583156030625105" lon="4.95992498472333">
        <ele>166.93000000000001</ele>
        <time>2018-07-01T10:14:10Z</time>
      </trkpt>
      <trkpt lat="50.583579987287521" lon="4.957545027136803">
        <ele>166.44999999999999</ele>
        <time>2018-07-01T10:14:17Z</time>
      </trkpt>
      <trkpt lat="50.584224974736571" lon="4.953919015824795">
        <ele>160.19999999999999</ele>
        <time>2018-07-01T10:14:26Z</time>
      </trkpt>
      <trkpt lat="50.584614984691143" lon="4.951708037406206">
        <ele>159.24000000000001</ele>
        <time>2018-07-01T10:14:33Z</time>
      </trkpt>
      <trkpt lat="50.585008012130857" lon="4.949441989883781">
        <ele>156.83000000000001</ele>
        <time>2018-07-01T10:14:42Z</time>
      </trkpt>
      <trkpt lat="50.585444960743189" lon="4.946997994557023">
        <ele>153.94999999999999</ele>
        <time>2018-07-01T10:14:51Z</time>
      </trkpt>
      <trkpt lat="50.585944019258022" lon="4.944162983447313">
        <ele>156.83000000000001</ele>
        <time>2018-07-01T10:14:59Z</time>
      </trkpt>
      <trkpt lat="50.586748011410236" lon="4.939689980819821">
        <ele>163.08000000000001</ele>
        <time>2018-07-01T10:15:11Z</time>
      </trkpt>
      <trkpt lat="50.587386041879654" lon="4.936111997812986">
        <ele>168.84999999999999</ele>
        <time>2018-07-01T10:15:21Z</time>
      </trkpt>
      <trkpt lat="50.588047038763762" lon="4.932383978739381">
        <ele>165.96000000000001</ele>
        <time>2018-07-01T10:15:32Z</time>
      </trkpt>
      <trkpt lat="50.588930994272232" lon="4.92737696506083">
        <ele>163.08000000000001</ele>
        <time>2018-07-01T10:15:47Z</time>
      </trkpt>
      <trkpt lat="50.589728029444814" lon="4.922854006290436">
        <ele>163.08000000000001</ele>
        <time>2018-07-01T10:16:00Z</time>
      </trkpt>
      <trkpt lat="50.590286012738943" lon="4.919672990217805">
        <ele>155.87</ele>
        <time>2018-07-01T10:16:09Z</time>
      </trkpt>
      <trkpt lat="50.590693037956953" lon="4.917351035401225">
        <ele>152.50999999999999</ele>
        <time>2018-07-01T10:16:16Z</time>
      </trkpt>
      <trkpt lat="50.591042982414365" lon="4.915341977030039">
        <ele>153.47</ele>
        <time>2018-07-01T10:16:24Z</time>
      </trkpt>
      <trkpt lat="50.591438021510839" lon="4.913094034418464">
        <ele>151.06</ele>
        <time>2018-07-01T10:16:35Z</time>
      </trkpt>
      <trkpt lat="50.591497030109167" lon="4.912797985598445">
        <ele>150.58000000000001</ele>
        <time>2018-07-01T10:16:37Z</time>
      </trkpt>
      <trkpt lat="50.591565007343888" lon="4.912716010585427">
        <ele>150.58000000000001</ele>
        <time>2018-07-01T10:16:38Z</time>
      </trkpt>
      <trkpt lat="50.591741027310491" lon="4.912520041689277">
        <ele>151.06</ele>
        <time>2018-07-01T10:16:41Z</time>
      </trkpt>
      <trkpt lat="50.591819984838367" lon="4.912310997024179">
        <ele>151.06</ele>
        <time>2018-07-01T10:16:42Z</time>
      </trkpt>
      <trkpt lat="50.591926015913486" lon="4.912221981212497">
        <ele>151.06</ele>
        <time>2018-07-01T10:16:43Z</time>
      </trkpt>
      <trkpt lat="50.593100991100073" lon="4.910893030464649">
        <ele>151.53999999999999</ele>
        <time>2018-07-01T10:16:54Z</time>
      </trkpt>
      <trkpt lat="50.593377007171512" lon="4.910605028271675">
        <ele>152.03</ele>
        <time>2018-07-01T10:16:57Z</time>
      </trkpt>
      <trkpt lat="50.593452025204897" lon="4.91053001023829">
        <ele>152.50999999999999</ele>
        <time>2018-07-01T10:16:58Z</time>
      </trkpt>
      <trkpt lat="50.593510027974844" lon="4.910472007468343">
        <ele>152.99000000000001</ele>
        <time>2018-07-01T10:16:59Z</time>
      </trkpt>
      <trkpt lat="50.59354699216783" lon="4.910434037446976">
        <ele>152.99000000000001</ele>
        <time>2018-07-01T10:17:00Z</time>
      </trkpt>
      <trkpt lat="50.593570964410901" lon="4.910409981384873">
        <ele>153.47</ele>
        <time>2018-07-01T10:17:01Z</time>
      </trkpt>
      <trkpt lat="50.593570964410901" lon="4.910409981384873">
        <ele>153.47</ele>
        <time>2018-07-01T10:17:10Z</time>
      </trkpt>
      <trkpt lat="50.593582028523088" lon="4.910399001091719">
        <ele>153.47</ele>
        <time>2018-07-01T10:17:14Z</time>
      </trkpt>
      <trkpt lat="50.593606000766158" lon="4.910376034677029">
        <ele>153.94999999999999</ele>
        <time>2018-07-01T10:17:15Z</time>
      </trkpt>
      <trkpt lat="50.593968015164137" lon="4.909975966438651">
        <ele>154.91</ele>
        <time>2018-07-01T10:17:21Z</time>
      </trkpt>
      <trkpt lat="50.59410204179585" lon="4.909836994484067">
        <ele>155.38999999999999</ele>
        <time>2018-07-01T10:17:23Z</time>
      </trkpt>
      <trkpt lat="50.594135988503695" lon="4.909791983664036">
        <ele>155.38999999999999</ele>
        <time>2018-07-01T10:17:24Z</time>
      </trkpt>
      <trkpt lat="50.594298010692" lon="4.909604983404279">
        <ele>156.34999999999999</ele>
        <time>2018-07-01T10:17:27Z</time>
      </trkpt>
      <trkpt lat="50.594349978491664" lon="4.909546980634332">
        <ele>156.34999999999999</ele>
        <time>2018-07-01T10:17:28Z</time>
      </trkpt>
      <trkpt lat="50.594397000968456" lon="4.909495012834668">
        <ele>156.83000000000001</ele>
        <time>2018-07-01T10:17:29Z</time>
      </trkpt>
      <trkpt lat="50.59455499984324" lon="4.909319998696446">
        <ele>157.31</ele>
        <time>2018-07-01T10:17:37Z</time>
      </trkpt>
      <trkpt lat="50.594659019261599" lon="4.909214973449707">
        <ele>155.38999999999999</ele>
        <time>2018-07-01T10:17:41Z</time>
      </trkpt>
      <trkpt lat="50.594659019261599" lon="4.909214973449707">
        <ele>155.38999999999999</ele>
        <time>2018-07-01T10:17:42Z</time>
      </trkpt>
      <trkpt lat="50.59468399733305" lon="4.909185972064734">
        <ele>154.91</ele>
        <time>2018-07-01T10:17:43Z</time>
      </trkpt>
      <trkpt lat="50.595125975087285" lon="4.908694038167596">
        <ele>154.43000000000001</ele>
        <time>2018-07-01T10:17:52Z</time>
      </trkpt>
      <trkpt lat="50.5951770208776" lon="4.908638969063759">
        <ele>154.43000000000001</ele>
        <time>2018-07-01T10:17:53Z</time>
      </trkpt>
      <trkpt lat="50.595794012770057" lon="4.907950982451439">
        <ele>154.91</ele>
        <time>2018-07-01T10:18:02Z</time>
      </trkpt>
      <trkpt lat="50.596775030717254" lon="4.90685697644949">
        <ele>157.31</ele>
        <time>2018-07-01T10:18:13Z</time>
      </trkpt>
      <trkpt lat="50.597783038392663" lon="4.90573899820447">
        <ele>157.31</ele>
        <time>2018-07-01T10:18:23Z</time>
      </trkpt>
      <trkpt lat="50.598910991102457" lon="4.904489004984498">
        <ele>156.83000000000001</ele>
        <time>2018-07-01T10:18:34Z</time>
      </trkpt>
      <trkpt lat="50.599814979359508" lon="4.903490971773863">
        <ele>157.78999999999999</ele>
        <time>2018-07-01T10:18:44Z</time>
      </trkpt>
      <trkpt lat="50.600780993700027" lon="4.902429990470409">
        <ele>156.83000000000001</ele>
        <time>2018-07-01T10:18:53Z</time>
      </trkpt>
      <trkpt lat="50.602341033518314" lon="4.900696026161313">
        <ele>154.91</ele>
        <time>2018-07-01T10:19:07Z</time>
      </trkpt>
      <trkpt lat="50.603891015052795" lon="4.898983016610146">
        <ele>153.94999999999999</ele>
        <time>2018-07-01T10:19:18Z</time>
      </trkpt>
      <trkpt lat="50.605871994048357" lon="4.896790981292725">
        <ele>150.58000000000001</ele>
        <time>2018-07-01T10:19:33Z</time>
      </trkpt>
      <trkpt lat="50.606943033635616" lon="4.895618017762899">
        <ele>149.13999999999999</ele>
        <time>2018-07-01T10:19:41Z</time>
      </trkpt>
      <trkpt lat="50.607203962281346" lon="4.895322974771261">
        <ele>149.13999999999999</ele>
        <time>2018-07-01T10:19:43Z</time>
      </trkpt>
      <trkpt lat="50.607990017160773" lon="4.894445976242423">
        <ele>149.13999999999999</ele>
        <time>2018-07-01T10:19:49Z</time>
      </trkpt>
      <trkpt lat="50.608118008822203" lon="4.894307004287839">
        <ele>149.62</ele>
        <time>2018-07-01T10:19:50Z</time>
      </trkpt>
      <trkpt lat="50.608364017680287" lon="4.894028976559639">
        <ele>150.58000000000001</ele>
        <time>2018-07-01T10:19:52Z</time>
      </trkpt>
      <trkpt lat="50.608484968543053" lon="4.893890004605055">
        <ele>151.53999999999999</ele>
        <time>2018-07-01T10:19:53Z</time>
      </trkpt>
      <trkpt lat="50.609973007813096" lon="4.89226802252233">
        <ele>160.19999999999999</ele>
        <time>2018-07-01T10:20:05Z</time>
      </trkpt>
      <trkpt lat="50.611430034041405" lon="4.890638999640942">
        <ele>161.63999999999999</ele>
        <time>2018-07-01T10:20:16Z</time>
      </trkpt>
      <trkpt lat="50.612687990069389" lon="4.889249028638005">
        <ele>159.24000000000001</ele>
        <time>2018-07-01T10:20:24Z</time>
      </trkpt>
      <trkpt lat="50.614161025732756" lon="4.887617994099855">
        <ele>156.34999999999999</ele>
        <time>2018-07-01T10:20:32Z</time>
      </trkpt>
      <trkpt lat="50.616541989147663" lon="4.884968977421522">
        <ele>152.50999999999999</ele>
        <time>2018-07-01T10:20:45Z</time>
      </trkpt>
      <trkpt lat="50.618685996159911" lon="4.882567981258035">
        <ele>152.99000000000001</ele>
        <time>2018-07-01T10:20:57Z</time>
      </trkpt>
      <trkpt lat="50.620663035660982" lon="4.880376029759646">
        <ele>153.47</ele>
        <time>2018-07-01T10:21:08Z</time>
      </trkpt>
      <trkpt lat="50.623030001297593" lon="4.877776969224215">
        <ele>157.78999999999999</ele>
        <time>2018-07-01T10:21:21Z</time>
      </trkpt>
      <trkpt lat="50.625200998038054" lon="4.87533800303936">
        <ele>155.87</ele>
        <time>2018-07-01T10:21:33Z</time>
      </trkpt>
      <trkpt lat="50.626647965982556" lon="4.873705040663481">
        <ele>152.03</ele>
        <time>2018-07-01T10:21:41Z</time>
      </trkpt>
      <trkpt lat="50.627720011398196" lon="4.872467033565044">
        <ele>147.69999999999999</ele>
        <time>2018-07-01T10:21:48Z</time>
      </trkpt>
      <trkpt lat="50.628705974668264" lon="4.871354000642896">
        <ele>143.84999999999999</ele>
        <time>2018-07-01T10:21:57Z</time>
      </trkpt>
      <trkpt lat="50.629878016188741" lon="4.870026977732778">
        <ele>142.88999999999999</ele>
        <time>2018-07-01T10:22:08Z</time>
      </trkpt>
      <trkpt lat="50.631288019940257" lon="4.868425028398633">
        <ele>143.84999999999999</ele>
        <time>2018-07-01T10:22:19Z</time>
      </trkpt>
      <trkpt lat="50.632513035088778" lon="4.867008989676833">
        <ele>146.25999999999999</ele>
        <time>2018-07-01T10:22:29Z</time>
      </trkpt>
      <trkpt lat="50.634033009409904" lon="4.865294974297285">
        <ele>145.30000000000001</ele>
        <time>2018-07-01T10:22:41Z</time>
      </trkpt>
      <trkpt lat="50.634165024384856" lon="4.865140998736024">
        <ele>145.78</ele>
        <time>2018-07-01T10:22:42Z</time>
      </trkpt>
      <trkpt lat="50.635917009785771" lon="4.86313596367836">
        <ele>146.25999999999999</ele>
        <time>2018-07-01T10:22:55Z</time>
      </trkpt>
      <trkpt lat="50.637375041842461" lon="4.861456984654069">
        <ele>149.13999999999999</ele>
        <time>2018-07-01T10:23:05Z</time>
      </trkpt>
      <trkpt lat="50.639204978942871" lon="4.85935497097671">
        <ele>143.37</ele>
        <time>2018-07-01T10:23:17Z</time>
      </trkpt>
      <trkpt lat="50.640515992417932" lon="4.857874978333712">
        <ele>140.00999999999999</ele>
        <time>2018-07-01T10:23:27Z</time>
      </trkpt>
      <trkpt lat="50.64229303970933" lon="4.855843959376216">
        <ele>141.93000000000001</ele>
        <time>2018-07-01T10:23:39Z</time>
      </trkpt>
      <trkpt lat="50.643905969336629" lon="4.85391503199935">
        <ele>143.37</ele>
        <time>2018-07-01T10:23:48Z</time>
      </trkpt>
      <trkpt lat="50.645784018561244" lon="4.851821986958385">
        <ele>146.74000000000001</ele>
        <time>2018-07-01T10:23:57Z</time>
      </trkpt>
      <trkpt lat="50.647714035585523" lon="4.849472036585212">
        <ele>143.37</ele>
        <time>2018-07-01T10:24:07Z</time>
      </trkpt>
      <trkpt lat="50.649623014032841" lon="4.84710599295795">
        <ele>139.53</ele>
        <time>2018-07-01T10:24:17Z</time>
      </trkpt>
      <trkpt lat="50.652188966050744" lon="4.843936040997505">
        <ele>145.78</ele>
        <time>2018-07-01T10:24:32Z</time>
      </trkpt>
      <trkpt lat="50.653308033943176" lon="4.842581022530794">
        <ele>148.18000000000001</ele>
        <time>2018-07-01T10:24:40Z</time>
      </trkpt>
      <trkpt lat="50.654823984950781" lon="4.840879999101162">
        <ele>151.53999999999999</ele>
        <time>2018-07-01T10:24:50Z</time>
      </trkpt>
      <trkpt lat="50.656254021450877" lon="4.839539984241128">
        <ele>150.58000000000001</ele>
        <time>2018-07-01T10:24:57Z</time>
      </trkpt>
      <trkpt lat="50.659207971766591" lon="4.836803963407874">
        <ele>149.62</ele>
        <time>2018-07-01T10:25:09Z</time>
      </trkpt>
      <trkpt lat="50.661294981837273" lon="4.834906971082091">
        <ele>149.13999999999999</ele>
        <time>2018-07-01T10:25:18Z</time>
      </trkpt>
      <trkpt lat="50.664479015395045" lon="4.831939022988081">
        <ele>140.49000000000001</ele>
        <time>2018-07-01T10:25:32Z</time>
      </trkpt>
      <trkpt lat="50.666971961036325" lon="4.829653026536107">
        <ele>134.72</ele>
        <time>2018-07-01T10:25:43Z</time>
      </trkpt>
      <trkpt lat="50.668897032737732" lon="4.827883020043373">
        <ele>130.88</ele>
        <time>2018-07-01T10:25:52Z</time>
      </trkpt>
      <trkpt lat="50.670047029852867" lon="4.826807035133243">
        <ele>129.91999999999999</ele>
        <time>2018-07-01T10:26:00Z</time>
      </trkpt>
      <trkpt lat="50.671311020851135" lon="4.825711017474532">
        <ele>130.88</ele>
        <time>2018-07-01T10:26:09Z</time>
      </trkpt>
      <trkpt lat="50.671420991420746" lon="4.825651003047824">
        <ele>131.36000000000001</ele>
        <time>2018-07-01T10:26:10Z</time>
      </trkpt>
      <trkpt lat="50.671518975868821" lon="4.82559802941978">
        <ele>131.84</ele>
        <time>2018-07-01T10:26:11Z</time>
      </trkpt>
      <trkpt lat="50.67168602719903" lon="4.825560981407762">
        <ele>131.84</ele>
        <time>2018-07-01T10:26:13Z</time>
      </trkpt>
      <trkpt lat="50.671785017475486" lon="4.82553499750793">
        <ele>131.84</ele>
        <time>2018-07-01T10:26:14Z</time>
      </trkpt>
      <trkpt lat="50.671823993325233" lon="4.825437013059855">
        <ele>132.31999999999999</ele>
        <time>2018-07-01T10:26:15Z</time>
      </trkpt>
      <trkpt lat="50.671851988881826" lon="4.825289994478226">
        <ele>132.31999999999999</ele>
        <time>2018-07-01T10:26:16Z</time>
      </trkpt>
      <trkpt lat="50.671828016638756" lon="4.825183963403106">
        <ele>132.31999999999999</ele>
        <time>2018-07-01T10:26:17Z</time>
      </trkpt>
      <trkpt lat="50.671787029132247" lon="4.825048008933663">
        <ele>132.31999999999999</ele>
        <time>2018-07-01T10:26:18Z</time>
      </trkpt>
      <trkpt lat="50.671714022755623" lon="4.824994029477239">
        <ele>132.80000000000001</ele>
        <time>2018-07-01T10:26:19Z</time>
      </trkpt>
      <trkpt lat="50.671617966145277" lon="4.825021019205451">
        <ele>132.80000000000001</ele>
        <time>2018-07-01T10:26:20Z</time>
      </trkpt>
      <trkpt lat="50.67151403054595" lon="4.824993023648858">
        <ele>132.80000000000001</ele>
        <time>2018-07-01T10:26:22Z</time>
      </trkpt>
      <trkpt lat="50.671328958123922" lon="4.824831001460552">
        <ele>133.28</ele>
        <time>2018-07-01T10:26:23Z</time>
      </trkpt>
      <trkpt lat="50.67121597006917" lon="4.824731005355716">
        <ele>133.75999999999999</ele>
        <time>2018-07-01T10:26:24Z</time>
      </trkpt>
      <trkpt lat="50.670223971828818" lon="4.82343097217381">
        <ele>134.72</ele>
        <time>2018-07-01T10:26:32Z</time>
      </trkpt>
      <trkpt lat="50.668686982244253" lon="4.821440018713474">
        <ele>136.63999999999999</ele>
        <time>2018-07-01T10:26:42Z</time>
      </trkpt>
      <trkpt lat="50.666812034323812" lon="4.819021001458168">
        <ele>137.13</ele>
        <time>2018-07-01T10:26:53Z</time>
      </trkpt>
      <trkpt lat="50.665350984781981" lon="4.817141024395824">
        <ele>138.09</ele>
        <time>2018-07-01T10:27:02Z</time>
      </trkpt>
      <trkpt lat="50.663280989974737" lon="4.814479015767574">
        <ele>140.97</ele>
        <time>2018-07-01T10:27:14Z</time>
      </trkpt>
      <trkpt lat="50.66152598708868" lon="4.812220009043813">
        <ele>143.84999999999999</ele>
        <time>2018-07-01T10:27:26Z</time>
      </trkpt>
      <trkpt lat="50.659671993926167" lon="4.809817001223564">
        <ele>141.44999999999999</ele>
        <time>2018-07-01T10:27:38Z</time>
      </trkpt>
      <trkpt lat="50.657838033512235" lon="4.807452969253063">
        <ele>139.05000000000001</ele>
        <time>2018-07-01T10:27:50Z</time>
      </trkpt>
      <trkpt lat="50.655963001772761" lon="4.805024983361363">
        <ele>139.53</ele>
        <time>2018-07-01T10:28:03Z</time>
      </trkpt>
      <trkpt lat="50.654718959704041" lon="4.803428985178471">
        <ele>139.05000000000001</ele>
        <time>2018-07-01T10:28:13Z</time>
      </trkpt>
      <trkpt lat="50.653605004772544" lon="4.80198503471911">
        <ele>139.05000000000001</ele>
        <time>2018-07-01T10:28:21Z</time>
      </trkpt>
      <trkpt lat="50.652191983535886" lon="4.800157025456429">
        <ele>139.05000000000001</ele>
        <time>2018-07-01T10:28:32Z</time>
      </trkpt>
      <trkpt lat="50.650504035875201" lon="4.797973958775401">
        <ele>140.49000000000001</ele>
        <time>2018-07-01T10:28:43Z</time>
      </trkpt>
      <trkpt lat="50.64899898134172" lon="4.796040002256632">
        <ele>140.97</ele>
        <time>2018-07-01T10:28:54Z</time>
      </trkpt>
      <trkpt lat="50.647482024505734" lon="4.794090036302805">
        <ele>140.97</ele>
        <time>2018-07-01T10:29:05Z</time>
      </trkpt>
      <trkpt lat="50.645299041643739" lon="4.79126600548625">
        <ele>140.97</ele>
        <time>2018-07-01T10:29:20Z</time>
      </trkpt>
      <trkpt lat="50.64349701628089" lon="4.78892301209271">
        <ele>140.49000000000001</ele>
        <time>2018-07-01T10:29:32Z</time>
      </trkpt>
      <trkpt lat="50.640976997092366" lon="4.78570100851357">
        <ele>143.84999999999999</ele>
        <time>2018-07-01T10:29:48Z</time>
      </trkpt>
      <trkpt lat="50.639457022771239" lon="4.78372598066926">
        <ele>147.69999999999999</ele>
        <time>2018-07-01T10:29:58Z</time>
      </trkpt>
      <trkpt lat="50.638808012008667" lon="4.782873038202524">
        <ele>148.18000000000001</ele>
        <time>2018-07-01T10:30:05Z</time>
      </trkpt>
      <trkpt lat="50.637873010709882" lon="4.781694961711764">
        <ele>149.13999999999999</ele>
        <time>2018-07-01T10:30:16Z</time>
      </trkpt>
      <trkpt lat="50.637541003525257" lon="4.781234040856361">
        <ele>151.53999999999999</ele>
        <time>2018-07-01T10:30:21Z</time>
      </trkpt>
      <trkpt lat="50.637489035725594" lon="4.781156005337834">
        <ele>152.03</ele>
        <time>2018-07-01T10:30:22Z</time>
      </trkpt>
      <trkpt lat="50.637476965785027" lon="4.781090039759874">
        <ele>152.50999999999999</ele>
        <time>2018-07-01T10:30:23Z</time>
      </trkpt>
      <trkpt lat="50.637463973835111" lon="4.78101703338325">
        <ele>152.99000000000001</ele>
        <time>2018-07-01T10:30:24Z</time>
      </trkpt>
      <trkpt lat="50.637478977441788" lon="4.780861968174577">
        <ele>153.94999999999999</ele>
        <time>2018-07-01T10:30:26Z</time>
      </trkpt>
      <trkpt lat="50.637519964948297" lon="4.780790973454714">
        <ele>154.43000000000001</ele>
        <time>2018-07-01T10:30:27Z</time>
      </trkpt>
      <trkpt lat="50.637637982144952" lon="4.780577989295125">
        <ele>154.91</ele>
        <time>2018-07-01T10:30:28Z</time>
      </trkpt>
      <trkpt lat="50.638209041208029" lon="4.779550032690167">
        <ele>155.87</ele>
        <time>2018-07-01T10:30:34Z</time>
      </trkpt>
      <trkpt lat="50.639219982549548" lon="4.777777008712292">
        <ele>157.78999999999999</ele>
        <time>2018-07-01T10:30:41Z</time>
      </trkpt>
      <trkpt lat="50.641215965151787" lon="4.774327017366886">
        <ele>158.27000000000001</ele>
        <time>2018-07-01T10:30:52Z</time>
      </trkpt>
      <trkpt lat="50.643010027706623" lon="4.771370971575379">
        <ele>152.03</ele>
        <time>2018-07-01T10:31:02Z</time>
      </trkpt>
      <trkpt lat="50.644307965412736" lon="4.769238028675318">
        <ele>148.66</ele>
        <time>2018-07-01T10:31:11Z</time>
      </trkpt>
      <trkpt lat="50.645232992246747" lon="4.767680000513792">
        <ele>146.25999999999999</ele>
        <time>2018-07-01T10:31:18Z</time>
      </trkpt>
      <trkpt lat="50.646136980503798" lon="4.766191961243749">
        <ele>146.25999999999999</ele>
        <time>2018-07-01T10:31:27Z</time>
      </trkpt>
      <trkpt lat="50.647096037864685" lon="4.764595041051507">
        <ele>147.22</ele>
        <time>2018-07-01T10:31:34Z</time>
      </trkpt>
      <trkpt lat="50.648304959759116" lon="4.762609032914043">
        <ele>150.09999999999999</ele>
        <time>2018-07-01T10:31:42Z</time>
      </trkpt>
      <trkpt lat="50.649869022890925" lon="4.760016007348895">
        <ele>152.99000000000001</ele>
        <time>2018-07-01T10:31:51Z</time>
      </trkpt>
      <trkpt lat="50.652628010138869" lon="4.75545197725296">
        <ele>149.13999999999999</ele>
        <time>2018-07-01T10:32:06Z</time>
      </trkpt>
      <trkpt lat="50.654817027971148" lon="4.751835018396378">
        <ele>152.99000000000001</ele>
        <time>2018-07-01T10:32:18Z</time>
      </trkpt>
      <trkpt lat="50.656267013400793" lon="4.749439973384142">
        <ele>150.09999999999999</ele>
        <time>2018-07-01T10:32:27Z</time>
      </trkpt>
      <trkpt lat="50.658686030656099" lon="4.745461000129581">
        <ele>148.18000000000001</ele>
        <time>2018-07-01T10:32:40Z</time>
      </trkpt>
      <trkpt lat="50.660077007487416" lon="4.743155976757407">
        <ele>150.58000000000001</ele>
        <time>2018-07-01T10:32:48Z</time>
      </trkpt>
      <trkpt lat="50.660528959706426" lon="4.74245198071003">
        <ele>151.53999999999999</ele>
        <time>2018-07-01T10:32:53Z</time>
      </trkpt>
      <trkpt lat="50.660609006881714" lon="4.742356007918716">
        <ele>151.53999999999999</ele>
        <time>2018-07-01T10:32:54Z</time>
      </trkpt>
      <trkpt lat="50.660677989944816" lon="4.742273027077317">
        <ele>151.53999999999999</ele>
        <time>2018-07-01T10:32:55Z</time>
      </trkpt>
      <trkpt lat="50.660736998543143" lon="4.742203038185835">
        <ele>151.53999999999999</ele>
        <time>2018-07-01T10:32:56Z</time>
      </trkpt>
      <trkpt lat="50.66085996106267" lon="4.742290964350104">
        <ele>151.53999999999999</ele>
        <time>2018-07-01T10:32:57Z</time>
      </trkpt>
      <trkpt lat="50.660913018509746" lon="4.742230027914047">
        <ele>151.53999999999999</ele>
        <time>2018-07-01T10:32:58Z</time>
      </trkpt>
      <trkpt lat="50.660964986309409" lon="4.742169007658958">
        <ele>151.53999999999999</ele>
        <time>2018-07-01T10:32:59Z</time>
      </trkpt>
      <trkpt lat="50.660985019057989" lon="4.742063982412219">
        <ele>152.03</ele>
        <time>2018-07-01T10:33:00Z</time>
      </trkpt>
      <trkpt lat="50.660976972430944" lon="4.741942025721073">
        <ele>152.03</ele>
        <time>2018-07-01T10:33:01Z</time>
      </trkpt>
      <trkpt lat="50.660928022116423" lon="4.741875976324081">
        <ele>152.03</ele>
        <time>2018-07-01T10:33:02Z</time>
      </trkpt>
      <trkpt lat="50.660873036831617" lon="4.741885028779507">
        <ele>152.03</ele>
        <time>2018-07-01T10:33:03Z</time>
      </trkpt>
      <trkpt lat="50.660798018798232" lon="4.7419130243361">
        <ele>152.03</ele>
        <time>2018-07-01T10:33:04Z</time>
      </trkpt>
      <trkpt lat="50.66066600382328" lon="4.741841023787856">
        <ele>152.03</ele>
        <time>2018-07-01T10:33:05Z</time>
      </trkpt>
      <trkpt lat="50.660572964698076" lon="4.74174102768302">
        <ele>151.53999999999999</ele>
        <time>2018-07-01T10:33:06Z</time>
      </trkpt>
      <trkpt lat="50.660461988300085" lon="4.741628961637616">
        <ele>151.53999999999999</ele>
        <time>2018-07-01T10:33:07Z</time>
      </trkpt>
      <trkpt lat="50.659454986453056" lon="4.740860005840659">
        <ele>150.09999999999999</ele>
        <time>2018-07-01T10:33:13Z</time>
      </trkpt>
      <trkpt lat="50.65785001963377" lon="4.739962974563241">
        <ele>151.06</ele>
        <time>2018-07-01T10:33:20Z</time>
      </trkpt>
      <trkpt lat="50.656864978373051" lon="4.73901498131454">
        <ele>151.53999999999999</ele>
        <time>2018-07-01T10:33:25Z</time>
      </trkpt>
      <trkpt lat="50.656564990058541" lon="4.738626983016729">
        <ele>152.50999999999999</ele>
        <time>2018-07-01T10:33:28Z</time>
      </trkpt>
      <trkpt lat="50.656486032530665" lon="4.738540984690189">
        <ele>152.99000000000001</ele>
        <time>2018-07-01T10:33:29Z</time>
      </trkpt>
      <trkpt lat="50.656586028635502" lon="4.73841299302876">
        <ele>152.99000000000001</ele>
        <time>2018-07-01T10:33:30Z</time>
      </trkpt>
      <trkpt lat="50.656599020585418" lon="4.738276032730937">
        <ele>153.47</ele>
        <time>2018-07-01T10:33:31Z</time>
      </trkpt>
      <trkpt lat="50.656615030020475" lon="4.738110993057489">
        <ele>153.94999999999999</ele>
        <time>2018-07-01T10:33:32Z</time>
      </trkpt>
      <trkpt lat="50.656632967293262" lon="4.737922986969352">
        <ele>154.43000000000001</ele>
        <time>2018-07-01T10:33:33Z</time>
      </trkpt>
      <trkpt lat="50.656676972284913" lon="4.737470028921962">
        <ele>154.91</ele>
        <time>2018-07-01T10:33:35Z</time>
      </trkpt>
      <trkpt lat="50.656703040003777" lon="4.737200969830155">
        <ele>154.91</ele>
        <time>2018-07-01T10:33:36Z</time>
      </trkpt>
      <trkpt lat="50.656856009736657" lon="4.735173974186182">
        <ele>152.03</ele>
        <time>2018-07-01T10:33:42Z</time>
      </trkpt>
      <trkpt lat="50.656846035271883" lon="4.734796034172177">
        <ele>152.03</ele>
        <time>2018-07-01T10:33:43Z</time>
      </trkpt>
      <trkpt lat="50.656804963946342" lon="4.734403006732464">
        <ele>151.53999999999999</ele>
        <time>2018-07-01T10:33:44Z</time>
      </trkpt>
      <trkpt lat="50.656530959531665" lon="4.731093998998404">
        <ele>152.99000000000001</ele>
        <time>2018-07-01T10:33:52Z</time>
      </trkpt>
      <trkpt lat="50.656337002292275" lon="4.728987962007523">
        <ele>155.87</ele>
        <time>2018-07-01T10:33:58Z</time>
      </trkpt>
      <trkpt lat="50.656412020325661" lon="4.727817010134459">
        <ele>157.78999999999999</ele>
        <time>2018-07-01T10:34:03Z</time>
      </trkpt>
      <trkpt lat="50.65643004141748" lon="4.727638978511095">
        <ele>158.27000000000001</ele>
        <time>2018-07-01T10:34:04Z</time>
      </trkpt>
      <trkpt lat="50.656445967033505" lon="4.727472010999918">
        <ele>158.75</ele>
        <time>2018-07-01T10:34:05Z</time>
      </trkpt>
      <trkpt lat="50.656361980363727" lon="4.727265983819962">
        <ele>158.75</ele>
        <time>2018-07-01T10:34:06Z</time>
      </trkpt>
      <trkpt lat="50.656269025057554" lon="4.727173028513789">
        <ele>158.75</ele>
        <time>2018-07-01T10:34:07Z</time>
      </trkpt>
      <trkpt lat="50.656167017295957" lon="4.727071020752192">
        <ele>158.75</ele>
        <time>2018-07-01T10:34:08Z</time>
      </trkpt>
      <trkpt lat="50.656060986220837" lon="4.726964989677072">
        <ele>158.75</ele>
        <time>2018-07-01T10:34:09Z</time>
      </trkpt>
      <trkpt lat="50.655955960974097" lon="4.726859964430332">
        <ele>158.75</ele>
        <time>2018-07-01T10:34:10Z</time>
      </trkpt>
      <trkpt lat="50.655921008437872" lon="4.726524017751217">
        <ele>158.75</ele>
        <time>2018-07-01T10:34:11Z</time>
      </trkpt>
      <trkpt lat="50.655885972082615" lon="4.726367024704814">
        <ele>158.75</ele>
        <time>2018-07-01T10:34:12Z</time>
      </trkpt>
      <trkpt lat="50.655835010111332" lon="4.726136019453406">
        <ele>158.27000000000001</ele>
        <time>2018-07-01T10:34:13Z</time>
      </trkpt>
      <trkpt lat="50.655779018998146" lon="4.725880958139896">
        <ele>158.27000000000001</ele>
        <time>2018-07-01T10:34:14Z</time>
      </trkpt>
      <trkpt lat="50.655347015708685" lon="4.723792020231485">
        <ele>158.75</ele>
        <time>2018-07-01T10:34:21Z</time>
      </trkpt>
      <trkpt lat="50.655255988240242" lon="4.7233060374856">
        <ele>158.27000000000001</ele>
        <time>2018-07-01T10:34:23Z</time>
      </trkpt>
      <trkpt lat="50.655191028490663" lon="4.723123982548714">
        <ele>158.27000000000001</ele>
        <time>2018-07-01T10:34:24Z</time>
      </trkpt>
      <trkpt lat="50.65512397326529" lon="4.722938993945718">
        <ele>157.78999999999999</ele>
        <time>2018-07-01T10:34:25Z</time>
      </trkpt>
      <trkpt lat="50.654716026037931" lon="4.721798971295357">
        <ele>156.34999999999999</ele>
        <time>2018-07-01T10:34:33Z</time>
      </trkpt>
      <trkpt lat="50.654696999117732" lon="4.721742980182171">
        <ele>155.87</ele>
        <time>2018-07-01T10:34:34Z</time>
      </trkpt>
      <trkpt lat="50.654642013832927" lon="4.721548017114401">
        <ele>156.34999999999999</ele>
        <time>2018-07-01T10:34:37Z</time>
      </trkpt>
      <trkpt lat="50.654661040753126" lon="4.721506023779512">
        <ele>156.34999999999999</ele>
        <time>2018-07-01T10:34:38Z</time>
      </trkpt>
      <trkpt lat="50.654723988845944" lon="4.721362022683024">
        <ele>156.34999999999999</ele>
        <time>2018-07-01T10:34:40Z</time>
      </trkpt>
      <trkpt lat="50.655096983537078" lon="4.720163997262716">
        <ele>155.87</ele>
        <time>2018-07-01T10:34:48Z</time>
      </trkpt>
      <trkpt lat="50.655112992972136" lon="4.719837019219995">
        <ele>155.38999999999999</ele>
        <time>2018-07-01T10:34:50Z</time>
      </trkpt>
      <trkpt lat="50.655117016285658" lon="4.719693018123508">
        <ele>155.38999999999999</ele>
        <time>2018-07-01T10:34:51Z</time>
      </trkpt>
      <trkpt lat="50.65512103959918" lon="4.719545999541879">
        <ele>154.91</ele>
        <time>2018-07-01T10:34:52Z</time>
      </trkpt>
      <trkpt lat="50.655126990750432" lon="4.719314994290471">
        <ele>154.91</ele>
        <time>2018-07-01T10:34:53Z</time>
      </trkpt>
      <trkpt lat="50.655111987143755" lon="4.719187002629042">
        <ele>154.43000000000001</ele>
        <time>2018-07-01T10:34:54Z</time>
      </trkpt>
      <trkpt lat="50.65492800436914" lon="4.71731498837471">
        <ele>150.09999999999999</ele>
        <time>2018-07-01T10:35:03Z</time>
      </trkpt>
      <trkpt lat="50.654881987720728" lon="4.714635964483023">
        <ele>148.66</ele>
        <time>2018-07-01T10:35:13Z</time>
      </trkpt>
      <trkpt lat="50.654849968850613" lon="4.712691027671099">
        <ele>149.62</ele>
        <time>2018-07-01T10:35:21Z</time>
      </trkpt>
      <trkpt lat="50.654833959415555" lon="4.711759965866804">
        <ele>150.09999999999999</ele>
        <time>2018-07-01T10:35:27Z</time>
      </trkpt>
      <trkpt lat="50.654831025749445" lon="4.711561985313892">
        <ele>150.09999999999999</ele>
        <time>2018-07-01T10:35:29Z</time>
      </trkpt>
      <trkpt lat="50.654761958867311" lon="4.711182033643127">
        <ele>149.13999999999999</ele>
        <time>2018-07-01T10:35:35Z</time>
      </trkpt>
      <trkpt lat="50.654761958867311" lon="4.711182033643127">
        <ele>149.13999999999999</ele>
        <time>2018-07-01T10:35:36Z</time>
      </trkpt>
      <trkpt lat="50.654719965532422" lon="4.711188990622759">
        <ele>148.66</ele>
        <time>2018-07-01T10:35:37Z</time>
      </trkpt>
      <trkpt lat="50.654689036309719" lon="4.711194019764662">
        <ele>148.66</ele>
        <time>2018-07-01T10:35:38Z</time>
      </trkpt>
      <trkpt lat="50.65465098246932" lon="4.711199970915914">
        <ele>149.13999999999999</ele>
        <time>2018-07-01T10:35:39Z</time>
      </trkpt>
      <trkpt lat="50.65460798330605" lon="4.711207011714578">
        <ele>149.13999999999999</ele>
        <time>2018-07-01T10:35:40Z</time>
      </trkpt>
      <trkpt lat="50.6545639783144" lon="4.71121396869421">
        <ele>148.66</ele>
        <time>2018-07-01T10:35:41Z</time>
      </trkpt>
      <trkpt lat="50.654517961665988" lon="4.711222015321255">
        <ele>148.66</ele>
        <time>2018-07-01T10:35:42Z</time>
      </trkpt>
      <trkpt lat="50.65447898581624" lon="4.711227966472507">
        <ele>148.66</ele>
        <time>2018-07-01T10:35:43Z</time>
      </trkpt>
      <trkpt lat="50.654442021623254" lon="4.71123400144279">
        <ele>148.66</ele>
        <time>2018-07-01T10:35:44Z</time>
      </trkpt>
      <trkpt lat="50.65441302023828" lon="4.711239030584693">
        <ele>148.18000000000001</ele>
        <time>2018-07-01T10:35:45Z</time>
      </trkpt>
      <trkpt lat="50.654394999146461" lon="4.711241964250803">
        <ele>148.18000000000001</ele>
        <time>2018-07-01T10:35:46Z</time>
      </trkpt>
      <trkpt lat="50.654379995539784" lon="4.711244981735945">
        <ele>148.18000000000001</ele>
        <time>2018-07-01T10:35:57Z</time>
      </trkpt>
      <trkpt lat="50.65430598333478" lon="4.71125696785748">
        <ele>147.69999999999999</ele>
        <time>2018-07-01T10:35:59Z</time>
      </trkpt>
      <trkpt lat="50.654234988614917" lon="4.711268031969667">
        <ele>147.69999999999999</ele>
        <time>2018-07-01T10:36:00Z</time>
      </trkpt>
      <trkpt lat="50.654149996116757" lon="4.711282029747963">
        <ele>147.69999999999999</ele>
        <time>2018-07-01T10:36:01Z</time>
      </trkpt>
      <trkpt lat="50.653459997847676" lon="4.711286975070834">
        <ele>145.30000000000001</ele>
        <time>2018-07-01T10:36:09Z</time>
      </trkpt>
      <trkpt lat="50.653389003127813" lon="4.711268031969667">
        <ele>144.34</ele>
        <time>2018-07-01T10:36:14Z</time>
      </trkpt>
      <trkpt lat="50.653214994817972" lon="4.711117995902896">
        <ele>143.84999999999999</ele>
        <time>2018-07-01T10:36:15Z</time>
      </trkpt>
      <trkpt lat="50.653227986767888" lon="4.711088994517922">
        <ele>143.84999999999999</ele>
        <time>2018-07-01T10:36:16Z</time>
      </trkpt>
      <trkpt lat="50.653241984546185" lon="4.711056975647807">
        <ele>143.84999999999999</ele>
        <time>2018-07-01T10:36:17Z</time>
      </trkpt>
      <trkpt lat="50.6532549764961" lon="4.711025962606072">
        <ele>143.84999999999999</ele>
        <time>2018-07-01T10:36:18Z</time>
      </trkpt>
      <trkpt lat="50.653506014496088" lon="4.710449036210775">
        <ele>142.41</ele>
        <time>2018-07-01T10:36:26Z</time>
      </trkpt>
      <trkpt lat="50.654041031375527" lon="4.709176998585463">
        <ele>142.41</ele>
        <time>2018-07-01T10:36:34Z</time>
      </trkpt>
      <trkpt lat="50.654920041561127" lon="4.706899970769882">
        <ele>143.37</ele>
        <time>2018-07-01T10:36:45Z</time>
      </trkpt>
      <trkpt lat="50.655805002897978" lon="4.704156992956996">
        <ele>144.81999999999999</ele>
        <time>2018-07-01T10:36:56Z</time>
      </trkpt>
      <trkpt lat="50.656104991212487" lon="4.703014958649874">
        <ele>145.78</ele>
        <time>2018-07-01T10:37:01Z</time>
      </trkpt>
      <trkpt lat="50.656127035617828" lon="4.702802980318666">
        <ele>146.25999999999999</ele>
        <time>2018-07-01T10:37:02Z</time>
      </trkpt>
      <trkpt lat="50.65610901452601" lon="4.702600976452231">
        <ele>146.25999999999999</ele>
        <time>2018-07-01T10:37:03Z</time>
      </trkpt>
      <trkpt lat="50.656169028952718" lon="4.700720999389887">
        <ele>149.62</ele>
        <time>2018-07-01T10:37:11Z</time>
      </trkpt>
      <trkpt lat="50.65623801201582" lon="4.700007028877735">
        <ele>151.06</ele>
        <time>2018-07-01T10:37:14Z</time>
      </trkpt>
      <trkpt lat="50.656231977045536" lon="4.699764959514141">
        <ele>151.53999999999999</ele>
        <time>2018-07-01T10:37:15Z</time>
      </trkpt>
      <trkpt lat="50.656041037291288" lon="4.698139959946275">
        <ele>153.47</ele>
        <time>2018-07-01T10:37:21Z</time>
      </trkpt>
      <trkpt lat="50.656056040897965" lon="4.697250975295901">
        <ele>154.91</ele>
        <time>2018-07-01T10:37:25Z</time>
      </trkpt>
      <trkpt lat="50.656083030626178" lon="4.697044026106596">
        <ele>155.38999999999999</ele>
        <time>2018-07-01T10:37:26Z</time>
      </trkpt>
      <trkpt lat="50.656111026182771" lon="4.696834981441498">
        <ele>155.87</ele>
        <time>2018-07-01T10:37:27Z</time>
      </trkpt>
      <trkpt lat="50.65643297508359" lon="4.694585027173162">
        <ele>156.83000000000001</ele>
        <time>2018-07-01T10:37:36Z</time>
      </trkpt>
      <trkpt lat="50.656807981431484" lon="4.692229963839054">
        <ele>157.78999999999999</ele>
        <time>2018-07-01T10:37:46Z</time>
      </trkpt>
      <trkpt lat="50.657327994704247" lon="4.69054302200675">
        <ele>158.27000000000001</ele>
        <time>2018-07-01T10:37:55Z</time>
      </trkpt>
      <trkpt lat="50.657633012160659" lon="4.689310966059566">
        <ele>155.38999999999999</ele>
        <time>2018-07-01T10:38:04Z</time>
      </trkpt>
      <trkpt lat="50.657686991617084" lon="4.689094964414835">
        <ele>153.94999999999999</ele>
        <time>2018-07-01T10:38:13Z</time>
      </trkpt>
      <trkpt lat="50.657686991617084" lon="4.689094964414835">
        <ele>153.94999999999999</ele>
        <time>2018-07-01T10:38:52Z</time>
      </trkpt>
      <trkpt lat="50.657686991617084" lon="4.689094964414835">
        <ele>153.94999999999999</ele>
        <time>2018-07-01T10:39:38Z</time>
      </trkpt>
      <trkpt lat="50.657686991617084" lon="4.689094964414835">
        <ele>153.94999999999999</ele>
        <time>2018-07-01T10:40:33Z</time>
      </trkpt>
      <trkpt lat="50.657686991617084" lon="4.689094964414835">
        <ele>153.94999999999999</ele>
        <time>2018-07-01T10:41:19Z</time>
      </trkpt>
      <trkpt lat="50.657686991617084" lon="4.689094964414835">
        <ele>154.43000000000001</ele>
        <time>2018-07-01T10:42:09Z</time>
      </trkpt>
      <trkpt lat="50.657738037407398" lon="4.68888902105391">
        <ele>154.91</ele>
        <time>2018-07-01T10:42:40Z</time>
      </trkpt>
      <trkpt lat="50.657840967178345" lon="4.688471015542746">
        <ele>153.94999999999999</ele>
        <time>2018-07-01T10:42:44Z</time>
      </trkpt>
      <trkpt lat="50.658170962706208" lon="4.687163019552827">
        <ele>151.53999999999999</ele>
        <time>2018-07-01T10:42:51Z</time>
      </trkpt>
      <trkpt lat="50.658683013170958" lon="4.685416985303164">
        <ele>147.22</ele>
        <time>2018-07-01T10:43:01Z</time>
      </trkpt>
      <trkpt lat="50.659265974536538" lon="4.683681009337306">
        <ele>141.93000000000001</ele>
        <time>2018-07-01T10:43:12Z</time>
      </trkpt>
      <trkpt lat="50.659335041418672" lon="4.683562992140651">
        <ele>141.44999999999999</ele>
        <time>2018-07-01T10:43:13Z</time>
      </trkpt>
      <trkpt lat="50.659406036138535" lon="4.683441035449505">
        <ele>140.97</ele>
        <time>2018-07-01T10:43:14Z</time>
      </trkpt>
      <trkpt lat="50.660336008295417" lon="4.682236975058913">
        <ele>138.56999999999999</ele>
        <time>2018-07-01T10:43:23Z</time>
      </trkpt>
      <trkpt lat="50.661706030368805" lon="4.680758994072676">
        <ele>136.63999999999999</ele>
        <time>2018-07-01T10:43:35Z</time>
      </trkpt>
      <trkpt lat="50.661966037005186" lon="4.680444002151489">
        <ele>136.63999999999999</ele>
        <time>2018-07-01T10:43:38Z</time>
      </trkpt>
      <trkpt lat="50.662323022261262" lon="4.680013004690409">
        <ele>135.68000000000001</ele>
        <time>2018-07-01T10:43:45Z</time>
      </trkpt>
      <trkpt lat="50.662359986454248" lon="4.679831033572555">
        <ele>135.19999999999999</ele>
        <time>2018-07-01T10:43:47Z</time>
      </trkpt>
      <trkpt lat="50.662340959534049" lon="4.679791973903775">
        <ele>135.19999999999999</ele>
        <time>2018-07-01T10:43:48Z</time>
      </trkpt>
      <trkpt lat="50.662315981462598" lon="4.679740006104112">
        <ele>134.72</ele>
        <time>2018-07-01T10:43:49Z</time>
      </trkpt>
      <trkpt lat="50.662252027541399" lon="4.679604973644018">
        <ele>133.75999999999999</ele>
        <time>2018-07-01T10:43:51Z</time>
      </trkpt>
      <trkpt lat="50.662177009508014" lon="4.679447980597615">
        <ele>133.28</ele>
        <time>2018-07-01T10:43:53Z</time>
      </trkpt>
      <trkpt lat="50.661577032878995" lon="4.678395967930555">
        <ele>127.03</ele>
        <time>2018-07-01T10:44:05Z</time>
      </trkpt>
      <trkpt lat="50.661473013460636" lon="4.678236041218042">
        <ele>126.06999999999999</ele>
        <time>2018-07-01T10:44:07Z</time>
      </trkpt>
      <trkpt lat="50.661422973498702" lon="4.678159011527896">
        <ele>125.59</ele>
        <time>2018-07-01T10:44:08Z</time>
      </trkpt>
      <trkpt lat="50.660976972430944" lon="4.677399024367333">
        <ele>122.22</ele>
        <time>2018-07-01T10:44:18Z</time>
      </trkpt>
      <trkpt lat="50.660778991878033" lon="4.677042961120606">
        <ele>121.26000000000001</ele>
        <time>2018-07-01T10:44:23Z</time>
      </trkpt>
      <trkpt lat="50.660749990493059" lon="4.676988981664181">
        <ele>120.78</ele>
        <time>2018-07-01T10:44:24Z</time>
      </trkpt>
      <trkpt lat="50.66068503074348" lon="4.676870964467526">
        <ele>120.78</ele>
        <time>2018-07-01T10:44:25Z</time>
      </trkpt>
      <trkpt lat="50.660690981894732" lon="4.676882028579712">
        <ele>120.78</ele>
        <time>2018-07-01T10:44:26Z</time>
      </trkpt>
      <trkpt lat="50.660663992166519" lon="4.676775997504592">
        <ele>120.78</ele>
        <time>2018-07-01T10:44:27Z</time>
      </trkpt>
      <trkpt lat="50.66068796440959" lon="4.676611041650176">
        <ele>120.78</ele>
        <time>2018-07-01T10:44:28Z</time>
      </trkpt>
      <trkpt lat="50.660727024078369" lon="4.676554966717959">
        <ele>120.78</ele>
        <time>2018-07-01T10:44:29Z</time>
      </trkpt>
      <trkpt lat="50.660773040726781" lon="4.676487995311618">
        <ele>120.78</ele>
        <time>2018-07-01T10:44:30Z</time>
      </trkpt>
      <trkpt lat="50.660822996869683" lon="4.676414988934994">
        <ele>120.78</ele>
        <time>2018-07-01T10:44:31Z</time>
      </trkpt>
      <trkpt lat="50.660931961610913" lon="4.67625699006021">
        <ele>121.73999999999999</ele>
        <time>2018-07-01T10:44:33Z</time>
      </trkpt>
      <trkpt lat="50.660991976037621" lon="4.67616998590529">
        <ele>122.22</ele>
        <time>2018-07-01T10:44:34Z</time>
      </trkpt>
      <trkpt lat="50.661055007949471" lon="4.676078958436847">
        <ele>123.19</ele>
        <time>2018-07-01T10:44:35Z</time>
      </trkpt>
      <trkpt lat="50.661119967699051" lon="4.675986003130674">
        <ele>123.67</ele>
        <time>2018-07-01T10:44:36Z</time>
      </trkpt>
      <trkpt lat="50.661185011267662" lon="4.67589296400547">
        <ele>124.15000000000001</ele>
        <time>2018-07-01T10:44:37Z</time>
      </trkpt>
      <trkpt lat="50.661248965188861" lon="4.675802020356059">
        <ele>124.63</ele>
        <time>2018-07-01T10:44:38Z</time>
      </trkpt>
      <trkpt lat="50.661420039832592" lon="4.675557017326355">
        <ele>125.59</ele>
        <time>2018-07-01T10:44:41Z</time>
      </trkpt>
      <trkpt lat="50.661514000967145" lon="4.675422990694642">
        <ele>126.06999999999999</ele>
        <time>2018-07-01T10:44:43Z</time>
      </trkpt>
      <trkpt lat="50.661521963775158" lon="4.675363982096314">
        <ele>126.06999999999999</ele>
        <time>2018-07-01T10:44:44Z</time>
      </trkpt>
      <trkpt lat="50.661521963775158" lon="4.675211012363434">
        <ele>126.06999999999999</ele>
        <time>2018-07-01T10:44:47Z</time>
      </trkpt>
      <trkpt lat="50.661521963775158" lon="4.675132976844907">
        <ele>126.06999999999999</ele>
        <time>2018-07-01T10:44:48Z</time>
      </trkpt>
      <trkpt lat="50.661494974046946" lon="4.675076985731721">
        <ele>126.06999999999999</ele>
        <time>2018-07-01T10:44:49Z</time>
      </trkpt>
      <trkpt lat="50.661455998197198" lon="4.674992999061942">
        <ele>126.55</ele>
        <time>2018-07-01T10:44:50Z</time>
      </trkpt>
      <trkpt lat="50.661412999033928" lon="4.674901971593499">
        <ele>126.55</ele>
        <time>2018-07-01T10:44:51Z</time>
      </trkpt>
      <trkpt lat="50.661366982385516" lon="4.674802981317043">
        <ele>126.55</ele>
        <time>2018-07-01T10:44:52Z</time>
      </trkpt>
      <trkpt lat="50.661220969632268" lon="4.674490001052618">
        <ele>127.51000000000001</ele>
        <time>2018-07-01T10:44:55Z</time>
      </trkpt>
      <trkpt lat="50.661022989079356" lon="4.674156988039613">
        <ele>127.98999999999999</ele>
        <time>2018-07-01T10:44:59Z</time>
      </trkpt>
      <trkpt lat="50.660957023501396" lon="4.674069983884692">
        <ele>127.98999999999999</ele>
        <time>2018-07-01T10:45:00Z</time>
      </trkpt>
      <trkpt lat="50.659918002784252" lon="4.672838011756539">
        <ele>135.19999999999999</ele>
        <time>2018-07-01T10:45:13Z</time>
      </trkpt>
      <trkpt lat="50.659275026991963" lon="4.672047011554241">
        <ele>140.00999999999999</ele>
        <time>2018-07-01T10:45:21Z</time>
      </trkpt>
      <trkpt lat="50.658317981287837" lon="4.670904977247119">
        <ele>144.34</ele>
        <time>2018-07-01T10:45:31Z</time>
      </trkpt>
      <trkpt lat="50.65679800696671" lon="4.669476030394435">
        <ele>147.22</ele>
        <time>2018-07-01T10:45:44Z</time>
      </trkpt>
      <trkpt lat="50.655053984373808" lon="4.66792001388967">
        <ele>149.13999999999999</ele>
        <time>2018-07-01T10:45:56Z</time>
      </trkpt>
      <trkpt lat="50.653755962848663" lon="4.666761970147491">
        <ele>147.22</ele>
        <time>2018-07-01T10:46:07Z</time>
      </trkpt>
      <trkpt lat="50.65336100757122" lon="4.666242962703109">
        <ele>145.78</ele>
        <time>2018-07-01T10:46:12Z</time>
      </trkpt>
      <trkpt lat="50.653063030913472" lon="4.665723033249378">
        <ele>142.88999999999999</ele>
        <time>2018-07-01T10:46:19Z</time>
      </trkpt>
      <trkpt lat="50.653055990114808" lon="4.665710041299462">
        <ele>142.88999999999999</ele>
        <time>2018-07-01T10:46:24Z</time>
      </trkpt>
      <trkpt lat="50.653046015650034" lon="4.665692020207644">
        <ele>141.93000000000001</ele>
        <time>2018-07-01T10:46:26Z</time>
      </trkpt>
      <trkpt lat="50.652958005666733" lon="4.665506025776267">
        <ele>141.93000000000001</ele>
        <time>2018-07-01T10:46:27Z</time>
      </trkpt>
      <trkpt lat="50.652452996000648" lon="4.66467303223908">
        <ele>141.44999999999999</ele>
        <time>2018-07-01T10:46:33Z</time>
      </trkpt>
      <trkpt lat="50.651409029960632" lon="4.663377022370696">
        <ele>139.53</ele>
        <time>2018-07-01T10:46:41Z</time>
      </trkpt>
      <trkpt lat="50.650090975686908" lon="4.661771971732378">
        <ele>139.05000000000001</ele>
        <time>2018-07-01T10:46:52Z</time>
      </trkpt>
      <trkpt lat="50.649753017351031" lon="4.66126000508666">
        <ele>139.05000000000001</ele>
        <time>2018-07-01T10:46:56Z</time>
      </trkpt>
      <trkpt lat="50.649681016802788" lon="4.661118015646935">
        <ele>139.05000000000001</ele>
        <time>2018-07-01T10:46:57Z</time>
      </trkpt>
      <trkpt lat="50.649610022082925" lon="4.66095901094377">
        <ele>138.56999999999999</ele>
        <time>2018-07-01T10:46:58Z</time>
      </trkpt>
      <trkpt lat="50.649556964635849" lon="4.660785002633929">
        <ele>138.56999999999999</ele>
        <time>2018-07-01T10:46:59Z</time>
      </trkpt>
      <trkpt lat="50.64951203763485" lon="4.660603031516075">
        <ele>138.56999999999999</ele>
        <time>2018-07-01T10:47:00Z</time>
      </trkpt>
      <trkpt lat="50.649468032643199" lon="4.660419970750809">
        <ele>138.56999999999999</ele>
        <time>2018-07-01T10:47:01Z</time>
      </trkpt>
      <trkpt lat="50.6494299788028" lon="4.660229030996561">
        <ele>138.09</ele>
        <time>2018-07-01T10:47:02Z</time>
      </trkpt>
      <trkpt lat="50.649205008521676" lon="4.658632026985288">
        <ele>138.09</ele>
        <time>2018-07-01T10:47:11Z</time>
      </trkpt>
      <trkpt lat="50.648877024650574" lon="4.65745403431356">
        <ele>133.28</ele>
        <time>2018-07-01T10:47:18Z</time>
      </trkpt>
      <trkpt lat="50.648243017494678" lon="4.655855018645525">
        <ele>134.24000000000001</ele>
        <time>2018-07-01T10:47:28Z</time>
      </trkpt>
      <trkpt lat="50.64786097034812" lon="4.654913982376456">
        <ele>136.63999999999999</ele>
        <time>2018-07-01T10:47:34Z</time>
      </trkpt>
      <trkpt lat="50.647370964288712" lon="4.653297029435635">
        <ele>139.05000000000001</ele>
        <time>2018-07-01T10:47:44Z</time>
      </trkpt>
      <trkpt lat="50.647123027592897" lon="4.652452971786261">
        <ele>140.00999999999999</ele>
        <time>2018-07-01T10:47:51Z</time>
      </trkpt>
      <trkpt lat="50.647123027592897" lon="4.652452971786261">
        <ele>140.00999999999999</ele>
        <time>2018-07-01T10:47:52Z</time>
      </trkpt>
      <trkpt lat="50.647162003442645" lon="4.652335960417986">
        <ele>140.49000000000001</ele>
        <time>2018-07-01T10:47:54Z</time>
      </trkpt>
      <trkpt lat="50.647187987342477" lon="4.652259014546871">
        <ele>140.49000000000001</ele>
        <time>2018-07-01T10:47:55Z</time>
      </trkpt>
      <trkpt lat="50.647872034460306" lon="4.651673035696149">
        <ele>141.44999999999999</ele>
        <time>2018-07-01T10:48:03Z</time>
      </trkpt>
      <trkpt lat="50.648271013051271" lon="4.651339016854763">
        <ele>141.93000000000001</ele>
        <time>2018-07-01T10:48:08Z</time>
      </trkpt>
      <trkpt lat="50.648338990285993" lon="4.651282019913197">
        <ele>141.93000000000001</ele>
        <time>2018-07-01T10:48:09Z</time>
      </trkpt>
      <trkpt lat="50.6484180316329" lon="4.651215970516205">
        <ele>141.93000000000001</ele>
        <time>2018-07-01T10:48:10Z</time>
      </trkpt>
      <trkpt lat="50.648594973608851" lon="4.651068029925227">
        <ele>140.97</ele>
        <time>2018-07-01T10:48:12Z</time>
      </trkpt>
      <trkpt lat="50.648874007165432" lon="4.650834007188678">
        <ele>141.93000000000001</ele>
        <time>2018-07-01T10:48:18Z</time>
      </trkpt>
      <trkpt lat="50.648942990228534" lon="4.650777010247111">
        <ele>142.88999999999999</ele>
        <time>2018-07-01T10:48:44Z</time>
      </trkpt>
      <trkpt lat="50.649358984082937" lon="4.650428993627429">
        <ele>143.84999999999999</ele>
        <time>2018-07-01T10:48:51Z</time>
      </trkpt>
      <trkpt lat="50.64953600987792" lon="4.6502819750458">
        <ele>143.84999999999999</ele>
        <time>2018-07-01T10:48:53Z</time>
      </trkpt>
      <trkpt lat="50.650165993720293" lon="4.649719968438149">
        <ele>144.81999999999999</ele>
        <time>2018-07-01T10:49:00Z</time>
      </trkpt>
      <trkpt lat="50.650202035903931" lon="4.649688033387065">
        <ele>145.30000000000001</ele>
        <time>2018-07-01T10:49:06Z</time>
      </trkpt>
      <trkpt lat="50.650214022025466" lon="4.649676969274879">
        <ele>145.30000000000001</ele>
        <time>2018-07-01T10:49:19Z</time>
      </trkpt>
      <trkpt lat="50.650239000096917" lon="4.649655008688569">
        <ele>145.30000000000001</ele>
        <time>2018-07-01T10:49:20Z</time>
      </trkpt>
      <trkpt lat="50.650687012821436" lon="4.649251000955701">
        <ele>143.84999999999999</ele>
        <time>2018-07-01T10:49:29Z</time>
      </trkpt>
      <trkpt lat="50.650738980621099" lon="4.649203978478909">
        <ele>143.84999999999999</ele>
        <time>2018-07-01T10:49:30Z</time>
      </trkpt>
      <trkpt lat="50.651487987488508" lon="4.648528983816505">
        <ele>140.00999999999999</ele>
        <time>2018-07-01T10:49:44Z</time>
      </trkpt>
      <trkpt lat="50.652279993519187" lon="4.647816019132733">
        <ele>137.13</ele>
        <time>2018-07-01T10:49:55Z</time>
      </trkpt>
      <trkpt lat="50.653405012562871" lon="4.646801976487041">
        <ele>138.09</ele>
        <time>2018-07-01T10:50:04Z</time>
      </trkpt>
      <trkpt lat="50.654611000791192" lon="4.645716017112136">
        <ele>139.05000000000001</ele>
        <time>2018-07-01T10:50:15Z</time>
      </trkpt>
      <trkpt lat="50.655275015160441" lon="4.645116962492466">
        <ele>135.68000000000001</ele>
        <time>2018-07-01T10:50:23Z</time>
      </trkpt>
      <trkpt lat="50.655348021537066" lon="4.645052002742887">
        <ele>136.16</ele>
        <time>2018-07-01T10:50:24Z</time>
      </trkpt>
      <trkpt lat="50.656062997877598" lon="4.644408021122217">
        <ele>140.97</ele>
        <time>2018-07-01T10:50:33Z</time>
      </trkpt>
      <trkpt lat="50.656257960945368" lon="4.644232001155615">
        <ele>141.93000000000001</ele>
        <time>2018-07-01T10:50:36Z</time>
      </trkpt>
      <trkpt lat="50.656434986740351" lon="4.64407199062407">
        <ele>141.93000000000001</ele>
        <time>2018-07-01T10:50:39Z</time>
      </trkpt>
      <trkpt lat="50.65651897341013" lon="4.643995966762304">
        <ele>141.44999999999999</ele>
        <time>2018-07-01T10:50:41Z</time>
      </trkpt>
      <trkpt lat="50.656588962301612" lon="4.643954979255796">
        <ele>140.97</ele>
        <time>2018-07-01T10:50:42Z</time>
      </trkpt>
      <trkpt lat="50.65664797089994" lon="4.643954979255796">
        <ele>140.97</ele>
        <time>2018-07-01T10:50:43Z</time>
      </trkpt>
      <trkpt lat="50.656747967004776" lon="4.644081965088844">
        <ele>140.49000000000001</ele>
        <time>2018-07-01T10:50:44Z</time>
      </trkpt>
      <trkpt lat="50.656788032501936" lon="4.644173998385668">
        <ele>140.00999999999999</ele>
        <time>2018-07-01T10:50:45Z</time>
      </trkpt>
      <trkpt lat="50.656832037493587" lon="4.644276006147265">
        <ele>139.53</ele>
        <time>2018-07-01T10:50:46Z</time>
      </trkpt>
      <trkpt lat="50.656880987808108" lon="4.644390000030398">
        <ele>139.53</ele>
        <time>2018-07-01T10:50:47Z</time>
      </trkpt>
      <trkpt lat="50.657446011900902" lon="4.645699001848698">
        <ele>133.75999999999999</ele>
        <time>2018-07-01T10:50:55Z</time>
      </trkpt>
      <trkpt lat="50.658611012622714" lon="4.648399986326695">
        <ele>127.51000000000001</ele>
        <time>2018-07-01T10:51:08Z</time>
      </trkpt>
      <trkpt lat="50.660120006650686" lon="4.651898005977273">
        <ele>127.03</ele>
        <time>2018-07-01T10:51:25Z</time>
      </trkpt>
      <trkpt lat="50.660445978865027" lon="4.652655981481075">
        <ele>127.51000000000001</ele>
        <time>2018-07-01T10:51:31Z</time>
      </trkpt>
      <trkpt lat="50.660482021048665" lon="4.652738962322474">
        <ele>127.03</ele>
        <time>2018-07-01T10:51:32Z</time>
      </trkpt>
      <trkpt lat="50.66051596775651" lon="4.65281599201262">
        <ele>127.03</ele>
        <time>2018-07-01T10:51:33Z</time>
      </trkpt>
      <trkpt lat="50.660512028262019" lon="4.652952030301094">
        <ele>127.03</ele>
        <time>2018-07-01T10:51:34Z</time>
      </trkpt>
      <trkpt lat="50.660487972199917" lon="4.653054960072041">
        <ele>126.55</ele>
        <time>2018-07-01T10:51:35Z</time>
      </trkpt>
      <trkpt lat="50.660458970814943" lon="4.653170965611935">
        <ele>126.55</ele>
        <time>2018-07-01T10:51:36Z</time>
      </trkpt>
      <trkpt lat="50.66042804159224" lon="4.653302980586886">
        <ele>126.06999999999999</ele>
        <time>2018-07-01T10:51:37Z</time>
      </trkpt>
      <trkpt lat="50.660095028579235" lon="4.654606031253934">
        <ele>124.15000000000001</ele>
        <time>2018-07-01T10:51:44Z</time>
      </trkpt>
      <trkpt lat="50.659713987261057" lon="4.655977981165052">
        <ele>120.3</ele>
        <time>2018-07-01T10:51:52Z</time>
      </trkpt>
      <trkpt lat="50.659619020298123" lon="4.656447032466531">
        <ele>119.34</ele>
        <time>2018-07-01T10:51:57Z</time>
      </trkpt>
      <trkpt lat="50.659652967005968" lon="4.656475028023124">
        <ele>118.86</ele>
        <time>2018-07-01T10:51:58Z</time>
      </trkpt>
      <trkpt lat="50.659693032503128" lon="4.656508974730969">
        <ele>119.34</ele>
        <time>2018-07-01T10:51:59Z</time>
      </trkpt>
      <trkpt lat="50.659778025001287" lon="4.656580975279212">
        <ele>118.38</ele>
        <time>2018-07-01T10:52:02Z</time>
      </trkpt>
      <trkpt lat="50.659614996984601" lon="4.656334966421127">
        <ele>117.90000000000001</ele>
        <time>2018-07-01T10:52:04Z</time>
      </trkpt>
      <trkpt lat="50.660260990262032" lon="4.65676998719573">
        <ele>115.98</ele>
        <time>2018-07-01T10:52:12Z</time>
      </trkpt>
      <trkpt lat="50.660275993868709" lon="4.656724976375699">
        <ele>116.94</ele>
        <time>2018-07-01T10:52:13Z</time>
      </trkpt>
      <trkpt lat="50.660319998860359" lon="4.656593967229128">
        <ele>116.94</ele>
        <time>2018-07-01T10:52:14Z</time>
      </trkpt>
      <trkpt lat="50.660319998860359" lon="4.656593967229128">
        <ele>116.94</ele>
        <time>2018-07-01T10:52:15Z</time>
      </trkpt>
      <trkpt lat="50.660329973325133" lon="4.656543005257845">
        <ele>117.42</ele>
        <time>2018-07-01T10:52:16Z</time>
      </trkpt>
      <trkpt lat="50.660351011902094" lon="4.656444014981389">
        <ele>117.90000000000001</ele>
        <time>2018-07-01T10:52:17Z</time>
      </trkpt>
      <trkpt lat="50.660373978316784" lon="4.656330021098256">
        <ele>118.38</ele>
        <time>2018-07-01T10:52:18Z</time>
      </trkpt>
      <trkpt lat="50.660399962216616" lon="4.656205968931317">
        <ele>118.86</ele>
        <time>2018-07-01T10:52:19Z</time>
      </trkpt>
      <trkpt lat="50.660744039341807" lon="4.654659004881978">
        <ele>125.11</ele>
        <time>2018-07-01T10:52:28Z</time>
      </trkpt>
      <trkpt lat="50.661292970180511" lon="4.652688000351191">
        <ele>129.43000000000001</ele>
        <time>2018-07-01T10:52:38Z</time>
      </trkpt>
      <trkpt lat="50.661522969603539" lon="4.652071008458734">
        <ele>129.91999999999999</ele>
        <time>2018-07-01T10:52:42Z</time>
      </trkpt>
      <trkpt lat="50.661609973758459" lon="4.651967994868755">
        <ele>130.40000000000001</ele>
        <time>2018-07-01T10:52:43Z</time>
      </trkpt>
      <trkpt lat="50.661698989570141" lon="4.651861963793635">
        <ele>130.40000000000001</ele>
        <time>2018-07-01T10:52:44Z</time>
      </trkpt>
      <trkpt lat="50.661793034523726" lon="4.651751993224025">
        <ele>130.88</ele>
        <time>2018-07-01T10:52:45Z</time>
      </trkpt>
      <trkpt lat="50.66189001314342" lon="4.651636993512511">
        <ele>131.36000000000001</ele>
        <time>2018-07-01T10:52:46Z</time>
      </trkpt>
      <trkpt lat="50.66279198974371" lon="4.650569977238774">
        <ele>136.63999999999999</ele>
        <time>2018-07-01T10:52:55Z</time>
      </trkpt>
      <trkpt lat="50.663249976933002" lon="4.649963965639472">
        <ele>136.16</ele>
        <time>2018-07-01T10:53:01Z</time>
      </trkpt>
      <trkpt lat="50.663316026329994" lon="4.649861035868526">
        <ele>136.16</ele>
        <time>2018-07-01T10:53:02Z</time>
      </trkpt>
      <trkpt lat="50.663378974422812" lon="4.649760033935309">
        <ele>136.16</ele>
        <time>2018-07-01T10:53:03Z</time>
      </trkpt>
      <trkpt lat="50.663444017991424" lon="4.64965702034533">
        <ele>136.16</ele>
        <time>2018-07-01T10:53:04Z</time>
      </trkpt>
      <trkpt lat="50.663508977741003" lon="4.649554006755352">
        <ele>136.16</ele>
        <time>2018-07-01T10:53:05Z</time>
      </trkpt>
      <trkpt lat="50.663603022694588" lon="4.649405982345343">
        <ele>136.16</ele>
        <time>2018-07-01T10:53:06Z</time>
      </trkpt>
      <trkpt lat="50.663623977452517" lon="4.649329036474228">
        <ele>136.16</ele>
        <time>2018-07-01T10:53:07Z</time>
      </trkpt>
      <trkpt lat="50.663653984665871" lon="4.649223005399108">
        <ele>136.63999999999999</ele>
        <time>2018-07-01T10:53:08Z</time>
      </trkpt>
      <trkpt lat="50.663709975779057" lon="4.649023013189435">
        <ele>137.61000000000001</ele>
        <time>2018-07-01T10:53:14Z</time>
      </trkpt>
      <trkpt lat="50.663712993264198" lon="4.649013038724661">
        <ele>137.61000000000001</ele>
        <time>2018-07-01T10:53:17Z</time>
      </trkpt>
      <trkpt lat="50.663778958842158" lon="4.648898039013147">
        <ele>138.09</ele>
        <time>2018-07-01T10:53:18Z</time>
      </trkpt>
      <trkpt lat="50.66382204182446" lon="4.648946989327669">
        <ele>138.56999999999999</ele>
        <time>2018-07-01T10:53:19Z</time>
      </trkpt>
      <trkpt lat="50.66388800740242" lon="4.649021001532674">
        <ele>138.56999999999999</ele>
        <time>2018-07-01T10:53:20Z</time>
      </trkpt>
      <trkpt lat="50.663970988243818" lon="4.649114962667227">
        <ele>139.05000000000001</ele>
        <time>2018-07-01T10:53:21Z</time>
      </trkpt>
      <trkpt lat="50.664624022319913" lon="4.649978969246149">
        <ele>140.00999999999999</ele>
        <time>2018-07-01T10:53:27Z</time>
      </trkpt>
      <trkpt lat="50.664728963747621" lon="4.650198994204402">
        <ele>140.00999999999999</ele>
        <time>2018-07-01T10:53:28Z</time>
      </trkpt>
      <trkpt lat="50.664914036169648" lon="4.650741973891854">
        <ele>139.05000000000001</ele>
        <time>2018-07-01T10:53:30Z</time>
      </trkpt>
      <trkpt lat="50.665632029995322" lon="4.653662983328104">
        <ele>134.72</ele>
        <time>2018-07-01T10:53:39Z</time>
      </trkpt>
      <trkpt lat="50.666235024109483" lon="4.656185014173389">
        <ele>133.28</ele>
        <time>2018-07-01T10:53:49Z</time>
      </trkpt>
      <trkpt lat="50.666307024657726" lon="4.656487014144659">
        <ele>132.80000000000001</ele>
        <time>2018-07-01T10:53:52Z</time>
      </trkpt>
      <trkpt lat="50.666307024657726" lon="4.656487014144659">
        <ele>133.28</ele>
        <time>2018-07-01T10:53:53Z</time>
      </trkpt>
      <trkpt lat="50.666366033256054" lon="4.656457006931305">
        <ele>133.28</ele>
        <time>2018-07-01T10:53:54Z</time>
      </trkpt>
      <trkpt lat="50.666415989398956" lon="4.656432028859854">
        <ele>133.28</ele>
        <time>2018-07-01T10:53:55Z</time>
      </trkpt>
      <trkpt lat="50.666477009654045" lon="4.6564020216465">
        <ele>133.28</ele>
        <time>2018-07-01T10:53:56Z</time>
      </trkpt>
      <trkpt lat="50.666541969403625" lon="4.656368996948004">
        <ele>133.28</ele>
        <time>2018-07-01T10:53:57Z</time>
      </trkpt>
      <trkpt lat="50.666620004922152" lon="4.656330021098256">
        <ele>133.28</ele>
        <time>2018-07-01T10:53:58Z</time>
      </trkpt>
      <trkpt lat="50.666750008240342" lon="4.656194988638163">
        <ele>132.80000000000001</ele>
        <time>2018-07-01T10:54:00Z</time>
      </trkpt>
      <trkpt lat="50.666818991303444" lon="4.656075965613127">
        <ele>132.80000000000001</ele>
        <time>2018-07-01T10:54:01Z</time>
      </trkpt>
      <trkpt lat="50.666888980194926" lon="4.655954008921981">
        <ele>132.80000000000001</ele>
        <time>2018-07-01T10:54:02Z</time>
      </trkpt>
      <trkpt lat="50.666940025985241" lon="4.65584403835237">
        <ele>133.28</ele>
        <time>2018-07-01T10:54:03Z</time>
      </trkpt>
      <trkpt lat="50.666975984349847" lon="4.655705988407135">
        <ele>133.28</ele>
        <time>2018-07-01T10:54:04Z</time>
      </trkpt>
      <trkpt lat="50.667318971827626" lon="4.654401009902358">
        <ele>133.75999999999999</ele>
        <time>2018-07-01T10:54:11Z</time>
      </trkpt>
      <trkpt lat="50.667831022292376" lon="4.652481973171234">
        <ele>135.19999999999999</ele>
        <time>2018-07-01T10:54:20Z</time>
      </trkpt>
      <trkpt lat="50.667972005903721" lon="4.652131022885442">
        <ele>135.68000000000001</ele>
        <time>2018-07-01T10:54:23Z</time>
      </trkpt>
      <trkpt lat="50.668007964268327" lon="4.652038989588618">
        <ele>135.68000000000001</ele>
        <time>2018-07-01T10:54:24Z</time>
      </trkpt>
      <trkpt lat="50.668065967038274" lon="4.651894988492131">
        <ele>135.68000000000001</ele>
        <time>2018-07-01T10:54:25Z</time>
      </trkpt>
      <trkpt lat="50.668554967269301" lon="4.651372041553259">
        <ele>133.28</ele>
        <time>2018-07-01T10:54:31Z</time>
      </trkpt>
      <trkpt lat="50.66867901943624" lon="4.651296017691493">
        <ele>132.80000000000001</ele>
        <time>2018-07-01T10:54:32Z</time>
      </trkpt>
      <trkpt lat="50.668813968077302" lon="4.65124698355794">
        <ele>131.84</ele>
        <time>2018-07-01T10:54:33Z</time>
      </trkpt>
      <trkpt lat="50.670060021802783" lon="4.65079695917666">
        <ele>124.63</ele>
        <time>2018-07-01T10:54:41Z</time>
      </trkpt>
      <trkpt lat="50.671367011964321" lon="4.650319023057818">
        <ele>116.94</ele>
        <time>2018-07-01T10:54:51Z</time>
      </trkpt>
      <trkpt lat="50.672658998519182" lon="4.649634975939989">
        <ele>113.09</ele>
        <time>2018-07-01T10:55:02Z</time>
      </trkpt>
      <trkpt lat="50.673596011474729" lon="4.64901396073401">
        <ele>110.20999999999999</ele>
        <time>2018-07-01T10:55:11Z</time>
      </trkpt>
      <trkpt lat="50.674597984179854" lon="4.648341983556747">
        <ele>106.36</ele>
        <time>2018-07-01T10:55:21Z</time>
      </trkpt>
      <trkpt lat="50.674874000251293" lon="4.648192031309009">
        <ele>105.40000000000001</ele>
        <time>2018-07-01T10:55:24Z</time>
      </trkpt>
      <trkpt lat="50.675746975466609" lon="4.64800201356411">
        <ele>103.95999999999999</ele>
        <time>2018-07-01T10:55:32Z</time>
      </trkpt>
      <trkpt lat="50.677082967013121" lon="4.64796002022922">
        <ele>103.48</ele>
        <time>2018-07-01T10:55:41Z</time>
      </trkpt>
      <trkpt lat="50.679003009572625" lon="4.647794980555773">
        <ele>101.56</ele>
        <time>2018-07-01T10:55:52Z</time>
      </trkpt>
      <trkpt lat="50.679149022325873" lon="4.647741001099348">
        <ele>101.56</ele>
        <time>2018-07-01T10:55:53Z</time>
      </trkpt>
      <trkpt lat="50.679285982623696" lon="4.647690039128065">
        <ele>101.08</ele>
        <time>2018-07-01T10:55:54Z</time>
      </trkpt>
      <trkpt lat="50.67940098233521" lon="4.647570010274649">
        <ele>101.08</ele>
        <time>2018-07-01T10:55:55Z</time>
      </trkpt>
      <trkpt lat="50.679511036723852" lon="4.647452998906374">
        <ele>100.59999999999999</ele>
        <time>2018-07-01T10:55:56Z</time>
      </trkpt>
      <trkpt lat="50.679712034761906" lon="4.647212019190192">
        <ele>100.11</ele>
        <time>2018-07-01T10:55:58Z</time>
      </trkpt>
      <trkpt lat="50.679882019758224" lon="4.646928040310741">
        <ele>99.629999999999995</ele>
        <time>2018-07-01T10:56:00Z</time>
      </trkpt>
      <trkpt lat="50.679948991164565" lon="4.646747997030616">
        <ele>99.150000000000006</ele>
        <time>2018-07-01T10:56:01Z</time>
      </trkpt>
      <trkpt lat="50.680016968399286" lon="4.64656300842762">
        <ele>99.150000000000006</ele>
        <time>2018-07-01T10:56:02Z</time>
      </trkpt>
      <trkpt lat="50.680080000311136" lon="4.646375002339482">
        <ele>99.150000000000006</ele>
        <time>2018-07-01T10:56:03Z</time>
      </trkpt>
      <trkpt lat="50.680133979767561" lon="4.646180961281061">
        <ele>98.670000000000002</ele>
        <time>2018-07-01T10:56:04Z</time>
      </trkpt>
      <trkpt lat="50.680171027779579" lon="4.646001001819968">
        <ele>99.150000000000006</ele>
        <time>2018-07-01T10:56:05Z</time>
      </trkpt>
      <trkpt lat="50.680179996415973" lon="4.645838979631662">
        <ele>99.150000000000006</ele>
        <time>2018-07-01T10:56:06Z</time>
      </trkpt>
      <trkpt lat="50.680187037214637" lon="4.64570302516222">
        <ele>99.629999999999995</ele>
        <time>2018-07-01T10:56:07Z</time>
      </trkpt>
      <trkpt lat="50.680203968659043" lon="4.645590037107468">
        <ele>100.11</ele>
        <time>2018-07-01T10:56:08Z</time>
      </trkpt>
      <trkpt lat="50.680227018892765" lon="4.645490041002631">
        <ele>100.59999999999999</ele>
        <time>2018-07-01T10:56:09Z</time>
      </trkpt>
      <trkpt lat="50.680250991135836" lon="4.645387027412653">
        <ele>101.08</ele>
        <time>2018-07-01T10:56:10Z</time>
      </trkpt>
      <trkpt lat="50.680274041369557" lon="4.645286025479436">
        <ele>101.56</ele>
        <time>2018-07-01T10:56:11Z</time>
      </trkpt>
      <trkpt lat="50.680296001955867" lon="4.64518896304071">
        <ele>102.04000000000001</ele>
        <time>2018-07-01T10:56:12Z</time>
      </trkpt>
      <trkpt lat="50.680317962542176" lon="4.645096007734537">
        <ele>103</ele>
        <time>2018-07-01T10:56:13Z</time>
      </trkpt>
      <trkpt lat="50.680341012775898" lon="4.644996011629701">
        <ele>103.48</ele>
        <time>2018-07-01T10:56:14Z</time>
      </trkpt>
      <trkpt lat="50.680383006110787" lon="4.644814040511847">
        <ele>104.44</ele>
        <time>2018-07-01T10:56:16Z</time>
      </trkpt>
      <trkpt lat="50.680466992780566" lon="4.644645983353257">
        <ele>104.92</ele>
        <time>2018-07-01T10:56:17Z</time>
      </trkpt>
      <trkpt lat="50.680520972236991" lon="4.644537018612027">
        <ele>104.92</ele>
        <time>2018-07-01T10:56:18Z</time>
      </trkpt>
      <trkpt lat="50.680574029684067" lon="4.644430987536907">
        <ele>104.92</ele>
        <time>2018-07-01T10:56:19Z</time>
      </trkpt>
      <trkpt lat="50.680631026625633" lon="4.644354041665793">
        <ele>104.92</ele>
        <time>2018-07-01T10:56:20Z</time>
      </trkpt>
      <trkpt lat="50.680702021345496" lon="4.644291009753943">
        <ele>104.92</ele>
        <time>2018-07-01T10:56:21Z</time>
      </trkpt>
      <trkpt lat="50.680777039378881" lon="4.644224038347602">
        <ele>104.92</ele>
        <time>2018-07-01T10:56:22Z</time>
      </trkpt>
      <trkpt lat="50.680854991078377" lon="4.644154971465468">
        <ele>105.40000000000001</ele>
        <time>2018-07-01T10:56:23Z</time>
      </trkpt>
      <trkpt lat="50.680935038253665" lon="4.644082970917225">
        <ele>105.40000000000001</ele>
        <time>2018-07-01T10:56:24Z</time>
      </trkpt>
      <trkpt lat="50.68120401352644" lon="4.643842997029424">
        <ele>106.84</ele>
        <time>2018-07-01T10:56:27Z</time>
      </trkpt>
      <trkpt lat="50.682038012892008" lon="4.643099019303918">
        <ele>111.17</ele>
        <time>2018-07-01T10:56:35Z</time>
      </trkpt>
      <trkpt lat="50.683019030839205" lon="4.642084976658225">
        <ele>116.94</ele>
        <time>2018-07-01T10:56:44Z</time>
      </trkpt>
      <trkpt lat="50.684116976335645" lon="4.640745967626572">
        <ele>125.11</ele>
        <time>2018-07-01T10:56:55Z</time>
      </trkpt>
      <trkpt lat="50.684416964650154" lon="4.640381019562483">
        <ele>126.55</ele>
        <time>2018-07-01T10:57:01Z</time>
      </trkpt>
      <trkpt lat="50.684502040967345" lon="4.640355035662651">
        <ele>127.03</ele>
        <time>2018-07-01T10:57:02Z</time>
      </trkpt>
      <trkpt lat="50.684563983231783" lon="4.640391999855638">
        <ele>127.03</ele>
        <time>2018-07-01T10:57:03Z</time>
      </trkpt>
      <trkpt lat="50.685240989550948" lon="4.640801036730409">
        <ele>127.98999999999999</ele>
        <time>2018-07-01T10:57:09Z</time>
      </trkpt>
      <trkpt lat="50.685532009229064" lon="4.641036987304688">
        <ele>127.98999999999999</ele>
        <time>2018-07-01T10:57:11Z</time>
      </trkpt>
      <trkpt lat="50.68567500449717" lon="4.641184005886316">
        <ele>128.47</ele>
        <time>2018-07-01T10:57:12Z</time>
      </trkpt>
      <trkpt lat="50.685808025300503" lon="4.641363965347409">
        <ele>128.47</ele>
        <time>2018-07-01T10:57:13Z</time>
      </trkpt>
      <trkpt lat="50.685941968113184" lon="4.641546020284295">
        <ele>128.47</ele>
        <time>2018-07-01T10:57:14Z</time>
      </trkpt>
      <trkpt lat="50.686067026108503" lon="4.64174902997911">
        <ele>128.47</ele>
        <time>2018-07-01T10:57:15Z</time>
      </trkpt>
      <trkpt lat="50.686171967536211" lon="4.641980035230517">
        <ele>127.98999999999999</ele>
        <time>2018-07-01T10:57:16Z</time>
      </trkpt>
      <trkpt lat="50.686272969469428" lon="4.642208022996783">
        <ele>127.98999999999999</ele>
        <time>2018-07-01T10:57:17Z</time>
      </trkpt>
      <trkpt lat="50.686838999390602" lon="4.643477965146303">
        <ele>127.51000000000001</ele>
        <time>2018-07-01T10:57:24Z</time>
      </trkpt>
      <trkpt lat="50.687850024551153" lon="4.645101958885789">
        <ele>127.03</ele>
        <time>2018-07-01T10:57:35Z</time>
      </trkpt>
      <trkpt lat="50.688848979771137" lon="4.647010015323758">
        <ele>126.06999999999999</ele>
        <time>2018-07-01T10:57:47Z</time>
      </trkpt>
      <trkpt lat="50.689779035747051" lon="4.647922972217202">
        <ele>122.22</ele>
        <time>2018-07-01T10:57:55Z</time>
      </trkpt>
      <trkpt lat="50.690447995439172" lon="4.648206029087305">
        <ele>120.78</ele>
        <time>2018-07-01T10:58:00Z</time>
      </trkpt>
      <trkpt lat="50.690581016242504" lon="4.648233018815517">
        <ele>120.3</ele>
        <time>2018-07-01T10:58:01Z</time>
      </trkpt>
      <trkpt lat="50.691059958189726" lon="4.648312982171774">
        <ele>119.34</ele>
        <time>2018-07-01T10:58:05Z</time>
      </trkpt>
      <trkpt lat="50.691156014800072" lon="4.648323962464929">
        <ele>118.86</ele>
        <time>2018-07-01T10:58:06Z</time>
      </trkpt>
      <trkpt lat="50.691257016733289" lon="4.648336032405496">
        <ele>118.86</ele>
        <time>2018-07-01T10:58:07Z</time>
      </trkpt>
      <trkpt lat="50.691547030583024" lon="4.64836897328496">
        <ele>117.90000000000001</ele>
        <time>2018-07-01T10:58:10Z</time>
      </trkpt>
      <trkpt lat="50.692762993276119" lon="4.648510040715337">
        <ele>114.53</ele>
        <time>2018-07-01T10:58:22Z</time>
      </trkpt>
      <trkpt lat="50.692975977435708" lon="4.648534012958407">
        <ele>113.56999999999999</ele>
        <time>2018-07-01T10:58:24Z</time>
      </trkpt>
      <trkpt lat="50.69338702596724" lon="4.64864700101316">
        <ele>113.09</ele>
        <time>2018-07-01T10:58:28Z</time>
      </trkpt>
      <trkpt lat="50.693779969587922" lon="4.648889992386103">
        <ele>110.69</ele>
        <time>2018-07-01T10:58:32Z</time>
      </trkpt>
      <trkpt lat="50.693868985399604" lon="4.648973979055882">
        <ele>109.73</ele>
        <time>2018-07-01T10:58:33Z</time>
      </trkpt>
      <trkpt lat="50.693960012868047" lon="4.649059977382422">
        <ele>109.25</ele>
        <time>2018-07-01T10:58:34Z</time>
      </trkpt>
      <trkpt lat="50.694916974753141" lon="4.649968994781375">
        <ele>100.11</ele>
        <time>2018-07-01T10:58:44Z</time>
      </trkpt>
      <trkpt lat="50.695799002423882" lon="4.650951018556953">
        <ele>93.390000000000001</ele>
        <time>2018-07-01T10:58:54Z</time>
      </trkpt>
      <trkpt lat="50.695991031825542" lon="4.651261987164617">
        <ele>92.420000000000002</ele>
        <time>2018-07-01T10:58:57Z</time>
      </trkpt>
      <trkpt lat="50.69605297408998" lon="4.651367012411356">
        <ele>91.939999999999998</ele>
        <time>2018-07-01T10:58:58Z</time>
      </trkpt>
      <trkpt lat="50.696110976859927" lon="4.651464996859431">
        <ele>91.459999999999994</ele>
        <time>2018-07-01T10:58:59Z</time>
      </trkpt>
      <trkpt lat="50.696756970137358" lon="4.653034005314112">
        <ele>86.180000000000007</ele>
        <time>2018-07-01T10:59:10Z</time>
      </trkpt>
      <trkpt lat="50.697458032518625" lon="4.654958993196487">
        <ele>78.969999999999999</ele>
        <time>2018-07-01T10:59:22Z</time>
      </trkpt>
      <trkpt lat="50.697925994172692" lon="4.656266989186406">
        <ele>74.640000000000001</ele>
        <time>2018-07-01T10:59:31Z</time>
      </trkpt>
      <trkpt lat="50.697954995557666" lon="4.656352987512946">
        <ele>74.159999999999997</ele>
        <time>2018-07-01T10:59:32Z</time>
      </trkpt>
      <trkpt lat="50.698020039126277" lon="4.656722964718938">
        <ele>73.680000000000007</ele>
        <time>2018-07-01T10:59:36Z</time>
      </trkpt>
      <trkpt lat="50.698031019419432" lon="4.656840981915593">
        <ele>73.200000000000003</ele>
        <time>2018-07-01T10:59:37Z</time>
      </trkpt>
      <trkpt lat="50.698089022189379" lon="4.65803598985076">
        <ele>72.239999999999995</ele>
        <time>2018-07-01T10:59:45Z</time>
      </trkpt>
      <trkpt lat="50.698092961683869" lon="4.658173033967614">
        <ele>72.719999999999999</ele>
        <time>2018-07-01T10:59:46Z</time>
      </trkpt>
      <trkpt lat="50.698097990825772" lon="4.658313011750579">
        <ele>72.719999999999999</ele>
        <time>2018-07-01T10:59:47Z</time>
      </trkpt>
      <trkpt lat="50.698106037452817" lon="4.658572012558579">
        <ele>72.719999999999999</ele>
        <time>2018-07-01T10:59:49Z</time>
      </trkpt>
      <trkpt lat="50.698143001645803" lon="4.658792959526181">
        <ele>72.719999999999999</ele>
        <time>2018-07-01T10:59:51Z</time>
      </trkpt>
      <trkpt lat="50.698216008022428" lon="4.659038968384266">
        <ele>72.719999999999999</ele>
        <time>2018-07-01T10:59:53Z</time>
      </trkpt>
      <trkpt lat="50.698647005483508" lon="4.660023003816605">
        <ele>71.760000000000005</ele>
        <time>2018-07-01T11:00:01Z</time>
      </trkpt>
      <trkpt lat="50.698687992990017" lon="4.660113025456667">
        <ele>70.790000000000006</ele>
        <time>2018-07-01T11:00:02Z</time>
      </trkpt>
      <trkpt lat="50.698708025738597" lon="4.660156024619937">
        <ele>70.310000000000002</ele>
        <time>2018-07-01T11:00:03Z</time>
      </trkpt>
      <trkpt lat="50.698708025738597" lon="4.660156024619937">
        <ele>69.349999999999994</ele>
        <time>2018-07-01T11:00:04Z</time>
      </trkpt>
      <trkpt lat="50.698768962174654" lon="4.660299019888043">
        <ele>68.870000000000005</ele>
        <time>2018-07-01T11:00:05Z</time>
      </trkpt>
      <trkpt lat="50.698782037943602" lon="4.660329027101398">
        <ele>68.390000000000001</ele>
        <time>2018-07-01T11:00:06Z</time>
      </trkpt>
      <trkpt lat="50.698782037943602" lon="4.660329027101398">
        <ele>67.909999999999997</ele>
        <time>2018-07-01T11:00:07Z</time>
      </trkpt>
      <trkpt lat="50.698782037943602" lon="4.660329027101398">
        <ele>67.430000000000007</ele>
        <time>2018-07-01T11:00:23Z</time>
      </trkpt>
      <trkpt lat="50.698811961337924" lon="4.66039901599288">
        <ele>66.469999999999999</ele>
        <time>2018-07-01T11:00:35Z</time>
      </trkpt>
      <trkpt lat="50.698785977438092" lon="4.660607976838946">
        <ele>65.989999999999995</ele>
        <time>2018-07-01T11:00:36Z</time>
      </trkpt>
      <trkpt lat="50.698753036558628" lon="4.66061401180923">
        <ele>66.469999999999999</ele>
        <time>2018-07-01T11:00:37Z</time>
      </trkpt>
      <trkpt lat="50.698706014081836" lon="4.660621974617243">
        <ele>67.430000000000007</ele>
        <time>2018-07-01T11:00:38Z</time>
      </trkpt>
      <trkpt lat="50.698645999655128" lon="4.660632032901049">
        <ele>68.390000000000001</ele>
        <time>2018-07-01T11:00:39Z</time>
      </trkpt>
      <trkpt lat="50.698437038809061" lon="4.660668997094035">
        <ele>70.310000000000002</ele>
        <time>2018-07-01T11:00:42Z</time>
      </trkpt>
      <trkpt lat="50.698376018553972" lon="4.660713002085686">
        <ele>70.790000000000006</ele>
        <time>2018-07-01T11:00:43Z</time>
      </trkpt>
      <trkpt lat="50.698305023834109" lon="4.660769999027252">
        <ele>71.269999999999996</ele>
        <time>2018-07-01T11:00:44Z</time>
      </trkpt>
      <trkpt lat="50.698230005800724" lon="4.66082900762558">
        <ele>71.760000000000005</ele>
        <time>2018-07-01T11:00:45Z</time>
      </trkpt>
      <trkpt lat="50.698164962232113" lon="4.660910982638598">
        <ele>72.719999999999999</ele>
        <time>2018-07-01T11:00:46Z</time>
      </trkpt>
      <trkpt lat="50.698097990825772" lon="4.661004021763802">
        <ele>73.200000000000003</ele>
        <time>2018-07-01T11:00:47Z</time>
      </trkpt>
      <trkpt lat="50.697395000606775" lon="4.661937011405826">
        <ele>77.519999999999996</ele>
        <time>2018-07-01T11:00:56Z</time>
      </trkpt>
      <trkpt lat="50.69731998257339" lon="4.66203399002552">
        <ele>78</ele>
        <time>2018-07-01T11:00:57Z</time>
      </trkpt>
      <trkpt lat="50.696576004847884" lon="4.662963040173054">
        <ele>84.730000000000004</ele>
        <time>2018-07-01T11:01:07Z</time>
      </trkpt>
      <trkpt lat="50.696500986814499" lon="4.663025988265872">
        <ele>85.209999999999994</ele>
        <time>2018-07-01T11:01:08Z</time>
      </trkpt>
      <trkpt lat="50.696429992094636" lon="4.66308600269258">
        <ele>85.689999999999998</ele>
        <time>2018-07-01T11:01:09Z</time>
      </trkpt>
      <trkpt lat="50.696366038173437" lon="4.663139982149005">
        <ele>86.180000000000007</ele>
        <time>2018-07-01T11:01:10Z</time>
      </trkpt>
      <trkpt lat="50.696307029575109" lon="4.663189016282558">
        <ele>86.180000000000007</ele>
        <time>2018-07-01T11:01:11Z</time>
      </trkpt>
      <trkpt lat="50.696251038461924" lon="4.6632369607687">
        <ele>86.659999999999997</ele>
        <time>2018-07-01T11:01:12Z</time>
      </trkpt>
      <trkpt lat="50.696191024035215" lon="4.663232015445828">
        <ele>87.140000000000001</ele>
        <time>2018-07-01T11:01:13Z</time>
      </trkpt>
      <trkpt lat="50.696123968809843" lon="4.663212988525629">
        <ele>87.620000000000005</ele>
        <time>2018-07-01T11:01:14Z</time>
      </trkpt>
      <trkpt lat="50.696053979918361" lon="4.663193039596081">
        <ele>87.620000000000005</ele>
        <time>2018-07-01T11:01:15Z</time>
      </trkpt>
      <trkpt lat="50.695939986035228" lon="4.663160014897585">
        <ele>88.099999999999994</ele>
        <time>2018-07-01T11:01:16Z</time>
      </trkpt>
      <trkpt lat="50.695906039327383" lon="4.663125984370709">
        <ele>88.099999999999994</ele>
        <time>2018-07-01T11:01:17Z</time>
      </trkpt>
      <trkpt lat="50.695835966616869" lon="4.663053983822465">
        <ele>88.099999999999994</ele>
        <time>2018-07-01T11:01:18Z</time>
      </trkpt>
      <trkpt lat="50.695147980004549" lon="4.662353005260229">
        <ele>89.060000000000002</ele>
        <time>2018-07-01T11:01:25Z</time>
      </trkpt>
      <trkpt lat="50.694345999509096" lon="4.661597041413188">
        <ele>92.900000000000006</ele>
        <time>2018-07-01T11:01:33Z</time>
      </trkpt>
      <trkpt lat="50.69431004114449" lon="4.661565022543073">
        <ele>92.900000000000006</ele>
        <time>2018-07-01T11:01:34Z</time>
      </trkpt>
      <trkpt lat="50.694282967597246" lon="4.66153996065259">
        <ele>93.390000000000001</ele>
        <time>2018-07-01T11:01:35Z</time>
      </trkpt>
      <trkpt lat="50.694260001182556" lon="4.661520011723042">
        <ele>93.390000000000001</ele>
        <time>2018-07-01T11:01:36Z</time>
      </trkpt>
      <trkpt lat="50.69424600340426" lon="4.661507019773126">
        <ele>93.390000000000001</ele>
        <time>2018-07-01T11:01:37Z</time>
      </trkpt>
      <trkpt lat="50.69424600340426" lon="4.661507019773126">
        <ele>93.870000000000005</ele>
        <time>2018-07-01T11:01:49Z</time>
      </trkpt>
      <trkpt lat="50.694098984822631" lon="4.661650015041232">
        <ele>94.349999999999994</ele>
        <time>2018-07-01T11:02:23Z</time>
      </trkpt>
      <trkpt lat="50.693907039240003" lon="4.66190398670733">
        <ele>93.870000000000005</ele>
        <time>2018-07-01T11:02:29Z</time>
      </trkpt>
      <trkpt lat="50.693907039240003" lon="4.66190398670733">
        <ele>93.390000000000001</ele>
        <time>2018-07-01T11:02:38Z</time>
      </trkpt>
      <trkpt lat="50.693907039240003" lon="4.66190398670733">
        <ele>93.390000000000001</ele>
        <time>2018-07-01T11:02:40Z</time>
      </trkpt>
      <trkpt lat="50.693907961249352" lon="4.661902980878949">
        <ele>92.900000000000006</ele>
        <time>2018-07-01T11:02:41Z</time>
      </trkpt>
      <trkpt lat="50.693933023139834" lon="4.661870039999485">
        <ele>92.900000000000006</ele>
        <time>2018-07-01T11:02:42Z</time>
      </trkpt>
      <trkpt lat="50.694196969270706" lon="4.661521017551422">
        <ele>91.459999999999994</ele>
        <time>2018-07-01T11:02:49Z</time>
      </trkpt>
      <trkpt lat="50.694210967049003" lon="4.66147500090301">
        <ele>91.459999999999994</ele>
        <time>2018-07-01T11:02:50Z</time>
      </trkpt>
      <trkpt lat="50.694210967049003" lon="4.66147500090301">
        <ele>90.980000000000004</ele>
        <time>2018-07-01T11:02:59Z</time>
      </trkpt>
      <trkpt lat="50.69422303698957" lon="4.661485981196165">
        <ele>90.980000000000004</ele>
        <time>2018-07-01T11:03:00Z</time>
      </trkpt>
      <trkpt lat="50.69422303698957" lon="4.661485981196165">
        <ele>90.980000000000004</ele>
        <time>2018-07-01T11:03:01Z</time>
      </trkpt>
      <trkpt lat="50.69426603615284" lon="4.661423033103347">
        <ele>90.5</ele>
        <time>2018-07-01T11:03:02Z</time>
      </trkpt>
      <trkpt lat="50.694295037537813" lon="4.661381961777806">
        <ele>89.540000000000006</ele>
        <time>2018-07-01T11:03:03Z</time>
      </trkpt>
      <trkpt lat="50.69433300755918" lon="4.66132496483624">
        <ele>89.060000000000002</ele>
        <time>2018-07-01T11:03:05Z</time>
      </trkpt>
      <trkpt lat="50.694888979196548" lon="4.660509992390871">
        <ele>84.730000000000004</ele>
        <time>2018-07-01T11:03:11Z</time>
      </trkpt>
      <trkpt lat="50.695508988574147" lon="4.659583959728479">
        <ele>79.930000000000007</ele>
        <time>2018-07-01T11:03:18Z</time>
      </trkpt>
      <trkpt lat="50.6960070412606" lon="4.658839982002974">
        <ele>80.409999999999997</ele>
        <time>2018-07-01T11:03:24Z</time>
      </trkpt>
      <trkpt lat="50.696712965145707" lon="4.65790699236095">
        <ele>83.290000000000006</ele>
        <time>2018-07-01T11:03:31Z</time>
      </trkpt>
      <trkpt lat="50.697156032547355" lon="4.657363006845117">
        <ele>81.370000000000005</ele>
        <time>2018-07-01T11:03:35Z</time>
      </trkpt>
      <trkpt lat="50.697785010561347" lon="4.656662028282881">
        <ele>76.560000000000002</ele>
        <time>2018-07-01T11:03:42Z</time>
      </trkpt>
      <trkpt lat="50.697924988344312" lon="4.656539987772703">
        <ele>73.200000000000003</ele>
        <time>2018-07-01T11:03:46Z</time>
      </trkpt>
      <trkpt lat="50.697962958365679" lon="4.656377965584397">
        <ele>72.719999999999999</ele>
        <time>2018-07-01T11:03:47Z</time>
      </trkpt>
      <trkpt lat="50.697939991950989" lon="4.656307976692915">
        <ele>72.239999999999995</ele>
        <time>2018-07-01T11:03:48Z</time>
      </trkpt>
      <trkpt lat="50.697909984737635" lon="4.656217033043504">
        <ele>71.760000000000005</ele>
        <time>2018-07-01T11:03:49Z</time>
      </trkpt>
      <trkpt lat="50.697871008887887" lon="4.656100021675229">
        <ele>71.269999999999996</ele>
        <time>2018-07-01T11:03:50Z</time>
      </trkpt>
      <trkpt lat="50.697828009724617" lon="4.655982004478574">
        <ele>71.269999999999996</ele>
        <time>2018-07-01T11:03:51Z</time>
      </trkpt>
      <trkpt lat="50.69766397587955" lon="4.655528962612152">
        <ele>72.239999999999995</ele>
        <time>2018-07-01T11:03:54Z</time>
      </trkpt>
      <trkpt lat="50.697008008137345" lon="4.653704976662993">
        <ele>80.409999999999997</ele>
        <time>2018-07-01T11:04:05Z</time>
      </trkpt>
      <trkpt lat="50.696946987882257" lon="4.653543038293719">
        <ele>81.370000000000005</ele>
        <time>2018-07-01T11:04:06Z</time>
      </trkpt>
      <trkpt lat="50.696163028478622" lon="4.651582008227706">
        <ele>88.099999999999994</ele>
        <time>2018-07-01T11:04:18Z</time>
      </trkpt>
      <trkpt lat="50.695507982745767" lon="4.650587998330593">
        <ele>91.459999999999994</ele>
        <time>2018-07-01T11:04:26Z</time>
      </trkpt>
      <trkpt lat="50.694356979802251" lon="4.649438001215458">
        <ele>94.829999999999998</ele>
        <time>2018-07-01T11:04:37Z</time>
      </trkpt>
      <trkpt lat="50.693531027063727" lon="4.648696035146713">
        <ele>101.56</ele>
        <time>2018-07-01T11:04:45Z</time>
      </trkpt>
      <trkpt lat="50.693183010444045" lon="4.648580029606819">
        <ele>103.95999999999999</ele>
        <time>2018-07-01T11:04:48Z</time>
      </trkpt>
      <trkpt lat="50.691949026659131" lon="4.648413984104991">
        <ele>112.61</ele>
        <time>2018-07-01T11:04:58Z</time>
      </trkpt>
      <trkpt lat="50.691203037276864" lon="4.648329997435212">
        <ele>115.98</ele>
        <time>2018-07-01T11:05:04Z</time>
      </trkpt>
      <trkpt lat="50.691072028130293" lon="4.648314993828535">
        <ele>115.98</ele>
        <time>2018-07-01T11:05:05Z</time>
      </trkpt>
      <trkpt lat="50.690230987966061" lon="4.648161018267274">
        <ele>117.42</ele>
        <time>2018-07-01T11:05:11Z</time>
      </trkpt>
      <trkpt lat="50.689144022762775" lon="4.647380998358131">
        <ele>120.3</ele>
        <time>2018-07-01T11:05:18Z</time>
      </trkpt>
      <trkpt lat="50.688999015837908" lon="4.647218976169825">
        <ele>120.78</ele>
        <time>2018-07-01T11:05:19Z</time>
      </trkpt>
      <trkpt lat="50.688858032226562" lon="4.647027030587196">
        <ele>121.73999999999999</ele>
        <time>2018-07-01T11:05:20Z</time>
      </trkpt>
      <trkpt lat="50.688098967075348" lon="4.645558018237352">
        <ele>124.63</ele>
        <time>2018-07-01T11:05:28Z</time>
      </trkpt>
      <trkpt lat="50.687015019357204" lon="4.643827993422747">
        <ele>126.06999999999999</ele>
        <time>2018-07-01T11:05:37Z</time>
      </trkpt>
      <trkpt lat="50.686158975586295" lon="4.641951033845544">
        <ele>127.98999999999999</ele>
        <time>2018-07-01T11:05:45Z</time>
      </trkpt>
      <trkpt lat="50.685795033350587" lon="4.641347033903003">
        <ele>128.47</ele>
        <time>2018-07-01T11:05:48Z</time>
      </trkpt>
      <trkpt lat="50.685661006718874" lon="4.641165984794498">
        <ele>128.94999999999999</ele>
        <time>2018-07-01T11:05:49Z</time>
      </trkpt>
      <trkpt lat="50.685521028935909" lon="4.641025001183152">
        <ele>128.94999999999999</ele>
        <time>2018-07-01T11:05:50Z</time>
      </trkpt>
      <trkpt lat="50.685380967333913" lon="4.640886029228568">
        <ele>129.43000000000001</ele>
        <time>2018-07-01T11:05:51Z</time>
      </trkpt>
      <trkpt lat="50.685240989550948" lon="4.640801036730409">
        <ele>129.43000000000001</ele>
        <time>2018-07-01T11:05:52Z</time>
      </trkpt>
      <trkpt lat="50.684619974344969" lon="4.640426030382514">
        <ele>130.88</ele>
        <time>2018-07-01T11:05:58Z</time>
      </trkpt>
      <trkpt lat="50.684558032080531" lon="4.640387976542115">
        <ele>130.88</ele>
        <time>2018-07-01T11:05:59Z</time>
      </trkpt>
      <trkpt lat="50.684505980461836" lon="4.640356963500381">
        <ele>130.88</ele>
        <time>2018-07-01T11:06:00Z</time>
      </trkpt>
      <trkpt lat="50.684432974085212" lon="4.640361992642283">
        <ele>130.88</ele>
        <time>2018-07-01T11:06:01Z</time>
      </trkpt>
      <trkpt lat="50.684398021548986" lon="4.640403985977173">
        <ele>130.88</ele>
        <time>2018-07-01T11:06:02Z</time>
      </trkpt>
      <trkpt lat="50.684357034042478" lon="4.640454025939107">
        <ele>130.88</ele>
        <time>2018-07-01T11:06:03Z</time>
      </trkpt>
      <trkpt lat="50.684304982423782" lon="4.640516974031925">
        <ele>130.88</ele>
        <time>2018-07-01T11:06:04Z</time>
      </trkpt>
      <trkpt lat="50.683679021894932" lon="4.64127997867763">
        <ele>127.51000000000001</ele>
        <time>2018-07-01T11:06:12Z</time>
      </trkpt>
      <trkpt lat="50.682846028357744" lon="4.642295027151704">
        <ele>121.73999999999999</ele>
        <time>2018-07-01T11:06:22Z</time>
      </trkpt>
      <trkpt lat="50.68174003623426" lon="4.643364977091551">
        <ele>114.05</ele>
        <time>2018-07-01T11:06:33Z</time>
      </trkpt>
      <trkpt lat="50.680853985249996" lon="4.644154971465468">
        <ele>107.81</ele>
        <time>2018-07-01T11:06:41Z</time>
      </trkpt>
      <trkpt lat="50.68058199249208" lon="4.644413972273469">
        <ele>105.40000000000001</ele>
        <time>2018-07-01T11:06:45Z</time>
      </trkpt>
      <trkpt lat="50.680547961965203" lon="4.644483039155603">
        <ele>104.92</ele>
        <time>2018-07-01T11:06:46Z</time>
      </trkpt>
      <trkpt lat="50.680510997772217" lon="4.644557973369956">
        <ele>103.95999999999999</ele>
        <time>2018-07-01T11:06:47Z</time>
      </trkpt>
      <trkpt lat="50.68047403357923" lon="4.644631985574961">
        <ele>103.48</ele>
        <time>2018-07-01T11:06:48Z</time>
      </trkpt>
      <trkpt lat="50.680437991395593" lon="4.644703986123204">
        <ele>103</ele>
        <time>2018-07-01T11:06:49Z</time>
      </trkpt>
      <trkpt lat="50.680383006110787" lon="4.644814040511847">
        <ele>102.52</ele>
        <time>2018-07-01T11:06:50Z</time>
      </trkpt>
      <trkpt lat="50.680369008332491" lon="4.644871959462762">
        <ele>102.04000000000001</ele>
        <time>2018-07-01T11:06:51Z</time>
      </trkpt>
      <trkpt lat="50.68034796975553" lon="4.644963992759585">
        <ele>101.56</ele>
        <time>2018-07-01T11:06:52Z</time>
      </trkpt>
      <trkpt lat="50.680327014997602" lon="4.64505803771317">
        <ele>101.08</ele>
        <time>2018-07-01T11:06:53Z</time>
      </trkpt>
      <trkpt lat="50.680306982249022" lon="4.64514403603971">
        <ele>100.59999999999999</ele>
        <time>2018-07-01T11:06:54Z</time>
      </trkpt>
      <trkpt lat="50.680269012227654" lon="4.645305974408984">
        <ele>99.629999999999995</ele>
        <time>2018-07-01T11:06:56Z</time>
      </trkpt>
      <trkpt lat="50.680253002792597" lon="4.645376969128847">
        <ele>99.150000000000006</ele>
        <time>2018-07-01T11:06:57Z</time>
      </trkpt>
      <trkpt lat="50.68021503277123" lon="4.645539997145534">
        <ele>98.189999999999998</ele>
        <time>2018-07-01T11:06:59Z</time>
      </trkpt>
      <trkpt lat="50.680189970880747" lon="4.645649967715144">
        <ele>97.709999999999994</ele>
        <time>2018-07-01T11:07:00Z</time>
      </trkpt>
      <trkpt lat="50.68017496727407" lon="4.645937969908118">
        <ele>97.230000000000004</ele>
        <time>2018-07-01T11:07:02Z</time>
      </trkpt>
      <trkpt lat="50.680104978382587" lon="4.646283974871039">
        <ele>96.75</ele>
        <time>2018-07-01T11:07:04Z</time>
      </trkpt>
      <trkpt lat="50.680060973390937" lon="4.646443985402584">
        <ele>96.75</ele>
        <time>2018-07-01T11:07:05Z</time>
      </trkpt>
      <trkpt lat="50.680001964792609" lon="4.646602990105748">
        <ele>96.75</ele>
        <time>2018-07-01T11:07:06Z</time>
      </trkpt>
      <trkpt lat="50.679947985336185" lon="4.646749002858996">
        <ele>96.269999999999996</ele>
        <time>2018-07-01T11:07:07Z</time>
      </trkpt>
      <trkpt lat="50.679893000051379" lon="4.646899038925767">
        <ele>96.269999999999996</ele>
        <time>2018-07-01T11:07:08Z</time>
      </trkpt>
      <trkpt lat="50.679825022816658" lon="4.647054020315409">
        <ele>95.790000000000006</ele>
        <time>2018-07-01T11:07:09Z</time>
      </trkpt>
      <trkpt lat="50.679735001176596" lon="4.647180000320077">
        <ele>95.790000000000006</ele>
        <time>2018-07-01T11:07:10Z</time>
      </trkpt>
      <trkpt lat="50.679540960118175" lon="4.647419974207878">
        <ele>96.269999999999996</ele>
        <time>2018-07-01T11:07:12Z</time>
      </trkpt>
      <trkpt lat="50.679439036175609" lon="4.64752902276814">
        <ele>96.75</ele>
        <time>2018-07-01T11:07:13Z</time>
      </trkpt>
      <trkpt lat="50.67933501675725" lon="4.647639999166131">
        <ele>96.75</ele>
        <time>2018-07-01T11:07:14Z</time>
      </trkpt>
      <trkpt lat="50.679210964590311" lon="4.647718034684658">
        <ele>97.230000000000004</ele>
        <time>2018-07-01T11:07:15Z</time>
      </trkpt>
      <trkpt lat="50.679084984585643" lon="4.647763967514038">
        <ele>97.709999999999994</ele>
        <time>2018-07-01T11:07:16Z</time>
      </trkpt>
      <trkpt lat="50.67802500911057" lon="4.647926995530725">
        <ele>100.59999999999999</ele>
        <time>2018-07-01T11:07:23Z</time>
      </trkpt>
      <trkpt lat="50.676204040646553" lon="4.647989021614194">
        <ele>104.44</ele>
        <time>2018-07-01T11:07:33Z</time>
      </trkpt>
      <trkpt lat="50.675358977168798" lon="4.648059010505676">
        <ele>107.81</ele>
        <time>2018-07-01T11:07:40Z</time>
      </trkpt>
      <trkpt lat="50.674408972263336" lon="4.648467963561416">
        <ele>110.20999999999999</ele>
        <time>2018-07-01T11:07:49Z</time>
      </trkpt>
      <trkpt lat="50.673241959884763" lon="4.649252006784082">
        <ele>111.17</ele>
        <time>2018-07-01T11:08:00Z</time>
      </trkpt>
      <trkpt lat="50.671884007751942" lon="4.650090029463172">
        <ele>114.05</ele>
        <time>2018-07-01T11:08:12Z</time>
      </trkpt>
      <trkpt lat="50.670146020129323" lon="4.650765024125576">
        <ele>122.22</ele>
        <time>2018-07-01T11:08:25Z</time>
      </trkpt>
      <trkpt lat="50.668556978926063" lon="4.651371035724878">
        <ele>130.88</ele>
        <time>2018-07-01T11:08:34Z</time>
      </trkpt>
      <trkpt lat="50.668440973386168" lon="4.651466002687812">
        <ele>132.31999999999999</ele>
        <time>2018-07-01T11:08:35Z</time>
      </trkpt>
      <trkpt lat="50.668341983109713" lon="4.651546971872449">
        <ele>133.28</ele>
        <time>2018-07-01T11:08:36Z</time>
      </trkpt>
      <trkpt lat="50.668163029477" lon="4.651754004880786">
        <ele>136.16</ele>
        <time>2018-07-01T11:08:39Z</time>
      </trkpt>
      <trkpt lat="50.668126987293363" lon="4.65180597268045">
        <ele>137.13</ele>
        <time>2018-07-01T11:08:40Z</time>
      </trkpt>
      <trkpt lat="50.668102009221911" lon="4.651843020692468">
        <ele>138.09</ele>
        <time>2018-07-01T11:08:41Z</time>
      </trkpt>
      <trkpt lat="50.668259002268314" lon="4.651616038754582">
        <ele>138.56999999999999</ele>
        <time>2018-07-01T11:08:42Z</time>
      </trkpt>
      <trkpt lat="50.668074013665318" lon="4.651884008198977">
        <ele>139.53</ele>
        <time>2018-07-01T11:08:43Z</time>
      </trkpt>
      <trkpt lat="50.668065967038274" lon="4.651894988492131">
        <ele>140.49000000000001</ele>
        <time>2018-07-01T11:08:44Z</time>
      </trkpt>
      <trkpt lat="50.668043000623584" lon="4.651952991262078">
        <ele>140.97</ele>
        <time>2018-07-01T11:08:45Z</time>
      </trkpt>
      <trkpt lat="50.668006958439946" lon="4.652043012902141">
        <ele>141.44999999999999</ele>
        <time>2018-07-01T11:08:46Z</time>
      </trkpt>
      <trkpt lat="50.667916014790535" lon="4.652269994840026">
        <ele>142.41</ele>
        <time>2018-07-01T11:08:48Z</time>
      </trkpt>
      <trkpt lat="50.66751996986568" lon="4.653638005256653">
        <ele>140.97</ele>
        <time>2018-07-01T11:08:55Z</time>
      </trkpt>
      <trkpt lat="50.667035998776555" lon="4.65547900646925">
        <ele>140.00999999999999</ele>
        <time>2018-07-01T11:09:02Z</time>
      </trkpt>
      <trkpt lat="50.666815973818302" lon="4.656079988926649">
        <ele>139.53</ele>
        <time>2018-07-01T11:09:06Z</time>
      </trkpt>
      <trkpt lat="50.666750008240342" lon="4.656194988638163">
        <ele>139.53</ele>
        <time>2018-07-01T11:09:07Z</time>
      </trkpt>
      <trkpt lat="50.666693011298776" lon="4.656292973086238">
        <ele>139.53</ele>
        <time>2018-07-01T11:09:08Z</time>
      </trkpt>
      <trkpt lat="50.666614975780249" lon="4.656332032755017">
        <ele>139.53</ele>
        <time>2018-07-01T11:09:09Z</time>
      </trkpt>
      <trkpt lat="50.666541969403625" lon="4.656368996948004">
        <ele>139.53</ele>
        <time>2018-07-01T11:09:10Z</time>
      </trkpt>
      <trkpt lat="50.666428981348872" lon="4.65642498806119">
        <ele>139.05000000000001</ele>
        <time>2018-07-01T11:09:12Z</time>
      </trkpt>
      <trkpt lat="50.666393022984266" lon="4.656443009153009">
        <ele>138.56999999999999</ele>
        <time>2018-07-01T11:09:13Z</time>
      </trkpt>
      <trkpt lat="50.666361004114151" lon="4.656459018588066">
        <ele>138.09</ele>
        <time>2018-07-01T11:09:14Z</time>
      </trkpt>
      <trkpt lat="50.666286991909146" lon="4.656404033303261">
        <ele>137.61000000000001</ele>
        <time>2018-07-01T11:09:15Z</time>
      </trkpt>
      <trkpt lat="50.666267964988947" lon="4.656325997784734">
        <ele>137.61000000000001</ele>
        <time>2018-07-01T11:09:16Z</time>
      </trkpt>
      <trkpt lat="50.666241981089115" lon="4.656216027215123">
        <ele>137.61000000000001</ele>
        <time>2018-07-01T11:09:17Z</time>
      </trkpt>
      <trkpt lat="50.666211973875761" lon="4.656091975048184">
        <ele>137.13</ele>
        <time>2018-07-01T11:09:18Z</time>
      </trkpt>
      <trkpt lat="50.666137039661407" lon="4.655775977298617">
        <ele>136.63999999999999</ele>
        <time>2018-07-01T11:09:20Z</time>
      </trkpt>
      <trkpt lat="50.665797991678119" lon="4.654358010739088">
        <ele>134.24000000000001</ele>
        <time>2018-07-01T11:09:26Z</time>
      </trkpt>
      <trkpt lat="50.665131965652108" lon="4.651570022106171">
        <ele>132.31999999999999</ele>
        <time>2018-07-01T11:09:35Z</time>
      </trkpt>
      <trkpt lat="50.664708008989692" lon="4.650149960070849">
        <ele>133.75999999999999</ele>
        <time>2018-07-01T11:09:41Z</time>
      </trkpt>
      <trkpt lat="50.6640600040555" lon="4.649215964600444">
        <ele>136.16</ele>
        <time>2018-07-01T11:09:45Z</time>
      </trkpt>
      <trkpt lat="50.663922037929296" lon="4.649059977382422">
        <ele>136.63999999999999</ele>
        <time>2018-07-01T11:09:46Z</time>
      </trkpt>
      <trkpt lat="50.663645016029477" lon="4.648780021816492">
        <ele>138.09</ele>
        <time>2018-07-01T11:09:49Z</time>
      </trkpt>
      <trkpt lat="50.663597993552685" lon="4.648741967976093">
        <ele>138.56999999999999</ele>
        <time>2018-07-01T11:09:50Z</time>
      </trkpt>
      <trkpt lat="50.663574021309614" lon="4.648723024874926">
        <ele>139.05000000000001</ele>
        <time>2018-07-01T11:09:51Z</time>
      </trkpt>
      <trkpt lat="50.663476036861539" lon="4.648635014891625">
        <ele>140.97</ele>
        <time>2018-07-01T11:09:55Z</time>
      </trkpt>
      <trkpt lat="50.66300799138844" lon="4.64826101437211">
        <ele>142.88999999999999</ele>
        <time>2018-07-01T11:10:01Z</time>
      </trkpt>
      <trkpt lat="50.66210500895977" lon="4.647490968927741">
        <ele>143.37</ele>
        <time>2018-07-01T11:10:08Z</time>
      </trkpt>
      <trkpt lat="50.661103958263993" lon="4.646639032289386">
        <ele>143.84999999999999</ele>
        <time>2018-07-01T11:10:16Z</time>
      </trkpt>
      <trkpt lat="50.660092011094093" lon="4.645092990249395">
        <ele>143.84999999999999</ele>
        <time>2018-07-01T11:10:24Z</time>
      </trkpt>
      <trkpt lat="50.659363958984613" lon="4.642962981015444">
        <ele>145.78</ele>
        <time>2018-07-01T11:10:32Z</time>
      </trkpt>
      <trkpt lat="50.65918299369514" lon="4.641003962606192">
        <ele>146.74000000000001</ele>
        <time>2018-07-01T11:10:39Z</time>
      </trkpt>
      <trkpt lat="50.659286007285118" lon="4.638879988342524">
        <ele>145.78</ele>
        <time>2018-07-01T11:10:47Z</time>
      </trkpt>
      <trkpt lat="50.659281983971596" lon="4.637027001008391">
        <ele>146.74000000000001</ele>
        <time>2018-07-01T11:10:55Z</time>
      </trkpt>
      <trkpt lat="50.659264968708158" lon="4.6368089877069">
        <ele>146.74000000000001</ele>
        <time>2018-07-01T11:10:56Z</time>
      </trkpt>
      <trkpt lat="50.659234961494803" lon="4.636596003547311">
        <ele>146.74000000000001</ele>
        <time>2018-07-01T11:10:57Z</time>
      </trkpt>
      <trkpt lat="50.659187017008662" lon="4.636401040479541">
        <ele>146.74000000000001</ele>
        <time>2018-07-01T11:10:58Z</time>
      </trkpt>
      <trkpt lat="50.659057013690472" lon="4.635694026947022">
        <ele>146.25999999999999</ele>
        <time>2018-07-01T11:11:02Z</time>
      </trkpt>
      <trkpt lat="50.659043015912175" lon="4.635544996708632">
        <ele>146.25999999999999</ele>
        <time>2018-07-01T11:11:03Z</time>
      </trkpt>
      <trkpt lat="50.659047961235046" lon="4.635403007268906">
        <ele>146.25999999999999</ele>
        <time>2018-07-01T11:11:04Z</time>
      </trkpt>
      <trkpt lat="50.659104958176613" lon="4.635279038920999">
        <ele>146.74000000000001</ele>
        <time>2018-07-01T11:11:05Z</time>
      </trkpt>
      <trkpt lat="50.659172013401985" lon="4.635131014510989">
        <ele>146.74000000000001</ele>
        <time>2018-07-01T11:11:06Z</time>
      </trkpt>
      <trkpt lat="50.659267986193299" lon="4.634921969845891">
        <ele>146.74000000000001</ele>
        <time>2018-07-01T11:11:07Z</time>
      </trkpt>
      <trkpt lat="50.659353984519839" lon="4.63485499843955">
        <ele>146.74000000000001</ele>
        <time>2018-07-01T11:11:08Z</time>
      </trkpt>
      <trkpt lat="50.659480970352888" lon="4.634758019819856">
        <ele>146.74000000000001</ele>
        <time>2018-07-01T11:11:09Z</time>
      </trkpt>
      <trkpt lat="50.660561984404922" lon="4.633981017395854">
        <ele>147.69999999999999</ele>
        <time>2018-07-01T11:11:16Z</time>
      </trkpt>
      <trkpt lat="50.662389993667603" lon="4.632593980059028">
        <ele>148.66</ele>
        <time>2018-07-01T11:11:28Z</time>
      </trkpt>
      <trkpt lat="50.662735998630524" lon="4.632371021434665">
        <ele>149.13999999999999</ele>
        <time>2018-07-01T11:11:31Z</time>
      </trkpt>
      <trkpt lat="50.662823002785444" lon="4.632315030321479">
        <ele>149.13999999999999</ele>
        <time>2018-07-01T11:11:32Z</time>
      </trkpt>
      <trkpt lat="50.662981001660228" lon="4.632346965372562">
        <ele>149.13999999999999</ele>
        <time>2018-07-01T11:11:33Z</time>
      </trkpt>
      <trkpt lat="50.662997011095285" lon="4.632335985079408">
        <ele>148.66</ele>
        <time>2018-07-01T11:11:34Z</time>
      </trkpt>
      <trkpt lat="50.663055013865232" lon="4.632283011451364">
        <ele>148.66</ele>
        <time>2018-07-01T11:11:35Z</time>
      </trkpt>
      <trkpt lat="50.663127014413476" lon="4.632116965949535">
        <ele>148.66</ele>
        <time>2018-07-01T11:11:36Z</time>
      </trkpt>
      <trkpt lat="50.663104970008135" lon="4.632015964016318">
        <ele>148.66</ele>
        <time>2018-07-01T11:11:37Z</time>
      </trkpt>
      <trkpt lat="50.663002962246537" lon="4.631871040910482">
        <ele>148.66</ele>
        <time>2018-07-01T11:11:38Z</time>
      </trkpt>
      <trkpt lat="50.662886034697294" lon="4.63186701759696">
        <ele>148.66</ele>
        <time>2018-07-01T11:11:39Z</time>
      </trkpt>
      <trkpt lat="50.662840018048882" lon="4.631718993186951">
        <ele>148.18000000000001</ele>
        <time>2018-07-01T11:11:40Z</time>
      </trkpt>
      <trkpt lat="50.662788972258568" lon="4.631551019847393">
        <ele>147.69999999999999</ele>
        <time>2018-07-01T11:11:41Z</time>
      </trkpt>
      <trkpt lat="50.662100985646248" lon="4.629621002823114">
        <ele>144.81999999999999</ele>
        <time>2018-07-01T11:11:51Z</time>
      </trkpt>
      <trkpt lat="50.6613539904356" lon="4.627702971920371">
        <ele>143.37</ele>
        <time>2018-07-01T11:12:02Z</time>
      </trkpt>
      <trkpt lat="50.661207977682352" lon="4.627110036090016">
        <ele>142.88999999999999</ele>
        <time>2018-07-01T11:12:05Z</time>
      </trkpt>
      <trkpt lat="50.661157015711069" lon="4.626901997253299">
        <ele>142.88999999999999</ele>
        <time>2018-07-01T11:12:06Z</time>
      </trkpt>
      <trkpt lat="50.661107981577516" lon="4.626702005043626">
        <ele>142.41</ele>
        <time>2018-07-01T11:12:07Z</time>
      </trkpt>
      <trkpt lat="50.660961968824267" lon="4.625279009342194">
        <ele>140.97</ele>
        <time>2018-07-01T11:12:14Z</time>
      </trkpt>
      <trkpt lat="50.660950988531113" lon="4.625157974660397">
        <ele>140.49000000000001</ele>
        <time>2018-07-01T11:12:15Z</time>
      </trkpt>
      <trkpt lat="50.660930033773184" lon="4.62505403906107">
        <ele>140.49000000000001</ele>
        <time>2018-07-01T11:12:16Z</time>
      </trkpt>
      <trkpt lat="50.660876976326108" lon="4.625066025182605">
        <ele>140.49000000000001</ele>
        <time>2018-07-01T11:12:17Z</time>
      </trkpt>
      <trkpt lat="50.660808999091387" lon="4.625081028789282">
        <ele>140.97</ele>
        <time>2018-07-01T11:12:18Z</time>
      </trkpt>
      <trkpt lat="50.66072802990675" lon="4.62509997189045">
        <ele>140.97</ele>
        <time>2018-07-01T11:12:19Z</time>
      </trkpt>
      <trkpt lat="50.660633984953165" lon="4.62512101046741">
        <ele>140.49000000000001</ele>
        <time>2018-07-01T11:12:20Z</time>
      </trkpt>
      <trkpt lat="50.659589013084769" lon="4.625458968803287">
        <ele>140.97</ele>
        <time>2018-07-01T11:12:28Z</time>
      </trkpt>
      <trkpt lat="50.658053029328585" lon="4.625960038974881">
        <ele>147.69999999999999</ele>
        <time>2018-07-01T11:12:39Z</time>
      </trkpt>
      <trkpt lat="50.657734014093876" lon="4.626004965975881">
        <ele>148.66</ele>
        <time>2018-07-01T11:12:42Z</time>
      </trkpt>
      <trkpt lat="50.657624965533614" lon="4.626011000946164">
        <ele>149.13999999999999</ele>
        <time>2018-07-01T11:12:43Z</time>
      </trkpt>
      <trkpt lat="50.65750602632761" lon="4.626015024259687">
        <ele>149.62</ele>
        <time>2018-07-01T11:12:44Z</time>
      </trkpt>
      <trkpt lat="50.657287007197738" lon="4.625905975699425">
        <ele>150.58000000000001</ele>
        <time>2018-07-01T11:12:46Z</time>
      </trkpt>
      <trkpt lat="50.657176030799747" lon="4.625792987644672">
        <ele>151.06</ele>
        <time>2018-07-01T11:12:47Z</time>
      </trkpt>
      <trkpt lat="50.657080980017781" lon="4.625675976276398">
        <ele>151.53999999999999</ele>
        <time>2018-07-01T11:12:48Z</time>
      </trkpt>
      <trkpt lat="50.65647304058075" lon="4.624920012429357">
        <ele>155.38999999999999</ele>
        <time>2018-07-01T11:12:55Z</time>
      </trkpt>
      <trkpt lat="50.656415037810802" lon="4.624665034934878">
        <ele>155.87</ele>
        <time>2018-07-01T11:12:56Z</time>
      </trkpt>
      <trkpt lat="50.656377989798784" lon="4.624517010524869">
        <ele>156.83000000000001</ele>
        <time>2018-07-01T11:12:58Z</time>
      </trkpt>
      <trkpt lat="50.656305989250541" lon="4.624502006918192">
        <ele>156.83000000000001</ele>
        <time>2018-07-01T11:12:59Z</time>
      </trkpt>
      <trkpt lat="50.656184032559395" lon="4.624464036896825">
        <ele>157.31</ele>
        <time>2018-07-01T11:13:00Z</time>
      </trkpt>
      <trkpt lat="50.656111026182771" lon="4.624365968629718">
        <ele>157.78999999999999</ele>
        <time>2018-07-01T11:13:01Z</time>
      </trkpt>
      <trkpt lat="50.656027961522341" lon="4.624254992231727">
        <ele>157.78999999999999</ele>
        <time>2018-07-01T11:13:02Z</time>
      </trkpt>
      <trkpt lat="50.655936012044549" lon="4.6241320297122">
        <ele>158.27000000000001</ele>
        <time>2018-07-01T11:13:03Z</time>
      </trkpt>
      <trkpt lat="50.655835010111332" lon="4.623995991423726">
        <ele>158.75</ele>
        <time>2018-07-01T11:13:04Z</time>
      </trkpt>
      <trkpt lat="50.655727973207831" lon="4.623850984498859">
        <ele>159.24000000000001</ele>
        <time>2018-07-01T11:13:05Z</time>
      </trkpt>
      <trkpt lat="50.65505800768733" lon="4.623130979016423">
        <ele>160.68000000000001</ele>
        <time>2018-07-01T11:13:10Z</time>
      </trkpt>
      <trkpt lat="50.654901014640927" lon="4.623010028153658">
        <ele>160.68000000000001</ele>
        <time>2018-07-01T11:13:11Z</time>
      </trkpt>
      <trkpt lat="50.652871001511812" lon="4.621584014967084">
        <ele>157.31</ele>
        <time>2018-07-01T11:13:23Z</time>
      </trkpt>
      <trkpt lat="50.650928998365998" lon="4.620110979303718">
        <ele>152.99000000000001</ele>
        <time>2018-07-01T11:13:33Z</time>
      </trkpt>
      <trkpt lat="50.649791993200779" lon="4.618663005530834">
        <ele>152.50999999999999</ele>
        <time>2018-07-01T11:13:40Z</time>
      </trkpt>
      <trkpt lat="50.647821994498372" lon="4.616037039086223">
        <ele>151.06</ele>
        <time>2018-07-01T11:13:52Z</time>
      </trkpt>
      <trkpt lat="50.646708961576223" lon="4.614498037844896">
        <ele>149.62</ele>
        <time>2018-07-01T11:14:00Z</time>
      </trkpt>
      <trkpt lat="50.646256003528833" lon="4.613835029304028">
        <ele>149.13999999999999</ele>
        <time>2018-07-01T11:14:05Z</time>
      </trkpt>
      <trkpt lat="50.646244017407298" lon="4.613678958266974">
        <ele>149.13999999999999</ele>
        <time>2018-07-01T11:14:06Z</time>
      </trkpt>
      <trkpt lat="50.646211998537183" lon="4.613616010174155">
        <ele>148.66</ele>
        <time>2018-07-01T11:14:07Z</time>
      </trkpt>
      <trkpt lat="50.646188026294112" lon="4.613595977425575">
        <ele>148.66</ele>
        <time>2018-07-01T11:14:08Z</time>
      </trkpt>
      <trkpt lat="50.646144021302462" lon="4.613607041537762">
        <ele>148.66</ele>
        <time>2018-07-01T11:14:09Z</time>
      </trkpt>
      <trkpt lat="50.646066991612315" lon="4.613559013232589">
        <ele>148.66</ele>
        <time>2018-07-01T11:14:10Z</time>
      </trkpt>
      <trkpt lat="50.646003959700465" lon="4.613486006855965">
        <ele>148.66</ele>
        <time>2018-07-01T11:14:11Z</time>
      </trkpt>
      <trkpt lat="50.64592600800097" lon="4.613396991044283">
        <ele>148.66</ele>
        <time>2018-07-01T11:14:12Z</time>
      </trkpt>
      <trkpt lat="50.645188987255096" lon="4.612562991678715">
        <ele>149.62</ele>
        <time>2018-07-01T11:14:20Z</time>
      </trkpt>
      <trkpt lat="50.644231019541621" lon="4.611679036170244">
        <ele>151.06</ele>
        <time>2018-07-01T11:14:30Z</time>
      </trkpt>
      <trkpt lat="50.643126033246517" lon="4.61113597266376">
        <ele>149.13999999999999</ele>
        <time>2018-07-01T11:14:41Z</time>
      </trkpt>
      <trkpt lat="50.642130011692643" lon="4.610836990177631">
        <ele>145.78</ele>
        <time>2018-07-01T11:14:51Z</time>
      </trkpt>
      <trkpt lat="50.641182018443942" lon="4.610775969922543">
        <ele>141.93000000000001</ele>
        <time>2018-07-01T11:15:01Z</time>
      </trkpt>
      <trkpt lat="50.641108006238937" lon="4.610779993236065">
        <ele>141.44999999999999</ele>
        <time>2018-07-01T11:15:02Z</time>
      </trkpt>
      <trkpt lat="50.64098697155714" lon="4.610610008239746">
        <ele>140.97</ele>
        <time>2018-07-01T11:15:03Z</time>
      </trkpt>
      <trkpt lat="50.640980014577508" lon="4.610602967441082">
        <ele>140.49000000000001</ele>
        <time>2018-07-01T11:15:04Z</time>
      </trkpt>
      <trkpt lat="50.640932992100716" lon="4.610556028783321">
        <ele>140.00999999999999</ele>
        <time>2018-07-01T11:15:05Z</time>
      </trkpt>
      <trkpt lat="50.6409009732306" lon="4.610524009913206">
        <ele>139.53</ele>
        <time>2018-07-01T11:15:06Z</time>
      </trkpt>
      <trkpt lat="50.640881024301052" lon="4.610504982993007">
        <ele>139.05000000000001</ele>
        <time>2018-07-01T11:15:07Z</time>
      </trkpt>
      <trkpt lat="50.640882030129433" lon="4.610399035736918">
        <ele>138.56999999999999</ele>
        <time>2018-07-01T11:15:08Z</time>
      </trkpt>
      <trkpt lat="50.640904996544123" lon="4.610368022695184">
        <ele>138.09</ele>
        <time>2018-07-01T11:15:09Z</time>
      </trkpt>
      <trkpt lat="50.640938021242619" lon="4.610324017703533">
        <ele>137.61000000000001</ele>
        <time>2018-07-01T11:15:10Z</time>
      </trkpt>
      <trkpt lat="50.640978002920747" lon="4.610270960256457">
        <ele>137.13</ele>
        <time>2018-07-01T11:15:11Z</time>
      </trkpt>
      <trkpt lat="50.6410270370543" lon="4.610204994678497">
        <ele>136.63999999999999</ele>
        <time>2018-07-01T11:15:12Z</time>
      </trkpt>
      <trkpt lat="50.641081016510725" lon="4.610132994130254">
        <ele>136.63999999999999</ele>
        <time>2018-07-01T11:15:13Z</time>
      </trkpt>
      <trkpt lat="50.641142958775163" lon="4.610051019117236">
        <ele>136.16</ele>
        <time>2018-07-01T11:15:14Z</time>
      </trkpt>
      <trkpt lat="50.641206996515393" lon="4.609996033832431">
        <ele>136.63999999999999</ele>
        <time>2018-07-01T11:15:15Z</time>
      </trkpt>
      <trkpt lat="50.641291989013553" lon="4.609934007748961">
        <ele>136.63999999999999</ele>
        <time>2018-07-01T11:15:16Z</time>
      </trkpt>
      <trkpt lat="50.641462979838252" lon="4.609810039401054">
        <ele>137.61000000000001</ele>
        <time>2018-07-01T11:15:18Z</time>
      </trkpt>
      <trkpt lat="50.641536992043257" lon="4.609755976125598">
        <ele>138.56999999999999</ele>
        <time>2018-07-01T11:15:19Z</time>
      </trkpt>
      <trkpt lat="50.641615027561784" lon="4.609699985012412">
        <ele>139.53</ele>
        <time>2018-07-01T11:15:20Z</time>
      </trkpt>
      <trkpt lat="50.64246503636241" lon="4.609208973124623">
        <ele>144.34</ele>
        <time>2018-07-01T11:15:27Z</time>
      </trkpt>
      <trkpt lat="50.643274979665875" lon="4.608822986483574">
        <ele>146.25999999999999</ele>
        <time>2018-07-01T11:15:34Z</time>
      </trkpt>
      <trkpt lat="50.644564032554626" lon="4.608353013172746">
        <ele>141.44999999999999</ele>
        <time>2018-07-01T11:15:46Z</time>
      </trkpt>
      <trkpt lat="50.644777016714215" lon="4.608285035938025">
        <ele>141.44999999999999</ele>
        <time>2018-07-01T11:15:48Z</time>
      </trkpt>
      <trkpt lat="50.644877012819052" lon="4.608253017067909">
        <ele>141.44999999999999</ele>
        <time>2018-07-01T11:15:49Z</time>
      </trkpt>
      <trkpt lat="50.644977008923888" lon="4.608220998197794">
        <ele>141.44999999999999</ele>
        <time>2018-07-01T11:15:50Z</time>
      </trkpt>
      <trkpt lat="50.646190959960222" lon="4.607866024598479">
        <ele>137.61000000000001</ele>
        <time>2018-07-01T11:16:01Z</time>
      </trkpt>
      <trkpt lat="50.646983971819282" lon="4.607408959418535">
        <ele>132.80000000000001</ele>
        <time>2018-07-01T11:16:08Z</time>
      </trkpt>
      <trkpt lat="50.64708799123764" lon="4.607336036860943">
        <ele>132.80000000000001</ele>
        <time>2018-07-01T11:16:09Z</time>
      </trkpt>
      <trkpt lat="50.64824502915144" lon="4.606460966169834">
        <ele>131.36000000000001</ele>
        <time>2018-07-01T11:16:19Z</time>
      </trkpt>
      <trkpt lat="50.649252030998468" lon="4.605494029819965">
        <ele>128.94999999999999</ele>
        <time>2018-07-01T11:16:26Z</time>
      </trkpt>
      <trkpt lat="50.649438025429845" lon="4.605294037610292">
        <ele>127.51000000000001</ele>
        <time>2018-07-01T11:16:28Z</time>
      </trkpt>
      <trkpt lat="50.649527041241527" lon="4.605241985991597">
        <ele>126.55</ele>
        <time>2018-07-01T11:16:29Z</time>
      </trkpt>
      <trkpt lat="50.649685962125659" lon="4.60522698238492">
        <ele>125.11</ele>
        <time>2018-07-01T11:16:31Z</time>
      </trkpt>
      <trkpt lat="50.650217961519957" lon="4.605178032070398">
        <ele>122.22</ele>
        <time>2018-07-01T11:16:36Z</time>
      </trkpt>
      <trkpt lat="50.650343019515276" lon="4.605165962129831">
        <ele>121.73999999999999</ele>
        <time>2018-07-01T11:16:37Z</time>
      </trkpt>
      <trkpt lat="50.650465982034802" lon="4.605154981836677">
        <ele>120.78</ele>
        <time>2018-07-01T11:16:38Z</time>
      </trkpt>
      <trkpt lat="50.650585005059838" lon="4.605144001543522">
        <ele>120.3</ele>
        <time>2018-07-01T11:16:39Z</time>
      </trkpt>
      <trkpt lat="50.650698998942971" lon="4.605103014037013">
        <ele>119.34</ele>
        <time>2018-07-01T11:16:40Z</time>
      </trkpt>
      <trkpt lat="50.650820033624768" lon="4.605025984346867">
        <ele>118.38</ele>
        <time>2018-07-01T11:16:41Z</time>
      </trkpt>
      <trkpt lat="50.650945007801056" lon="4.604947026818991">
        <ele>117.90000000000001</ele>
        <time>2018-07-01T11:16:42Z</time>
      </trkpt>
      <trkpt lat="50.651070987805724" lon="4.604864967986941">
        <ele>116.94</ele>
        <time>2018-07-01T11:16:43Z</time>
      </trkpt>
      <trkpt lat="50.651193028315902" lon="4.604771006852388">
        <ele>116.45999999999999</ele>
        <time>2018-07-01T11:16:44Z</time>
      </trkpt>
      <trkpt lat="50.651299981400371" lon="4.604685008525848">
        <ele>115.5</ele>
        <time>2018-07-01T11:16:45Z</time>
      </trkpt>
      <trkpt lat="50.651457980275154" lon="4.60455902852118">
        <ele>115.01000000000001</ele>
        <time>2018-07-01T11:16:46Z</time>
      </trkpt>
      <trkpt lat="50.651457980275154" lon="4.60455902852118">
        <ele>114.05</ele>
        <time>2018-07-01T11:16:47Z</time>
      </trkpt>
      <trkpt lat="50.651495028287172" lon="4.604527009651065">
        <ele>113.09</ele>
        <time>2018-07-01T11:16:48Z</time>
      </trkpt>
      <trkpt lat="50.651628971099854" lon="4.604412009939551">
        <ele>110.69</ele>
        <time>2018-07-01T11:16:50Z</time>
      </trkpt>
      <trkpt lat="50.651797028258443" lon="4.604249987751246">
        <ele>108.29000000000001</ele>
        <time>2018-07-01T11:16:52Z</time>
      </trkpt>
      <trkpt lat="50.651867017149925" lon="4.604126019403338">
        <ele>107.31999999999999</ele>
        <time>2018-07-01T11:16:53Z</time>
      </trkpt>
      <trkpt lat="50.651939017698169" lon="4.603998027741909">
        <ele>106.36</ele>
        <time>2018-07-01T11:16:54Z</time>
      </trkpt>
      <trkpt lat="50.652345037087798" lon="4.603042993694544">
        <ele>103</ele>
        <time>2018-07-01T11:17:01Z</time>
      </trkpt>
      <trkpt lat="50.652432963252068" lon="4.602835038676858">
        <ele>102.52</ele>
        <time>2018-07-01T11:17:03Z</time>
      </trkpt>
      <trkpt lat="50.652470011264086" lon="4.602749040350318">
        <ele>102.04000000000001</ele>
        <time>2018-07-01T11:17:04Z</time>
      </trkpt>
      <trkpt lat="50.652527008205652" lon="4.602615013718605">
        <ele>101.56</ele>
        <time>2018-07-01T11:17:06Z</time>
      </trkpt>
      <trkpt lat="50.652551986277103" lon="4.602499008178711">
        <ele>101.08</ele>
        <time>2018-07-01T11:17:07Z</time>
      </trkpt>
      <trkpt lat="50.652555003762245" lon="4.602422984316945">
        <ele>100.59999999999999</ele>
        <time>2018-07-01T11:17:08Z</time>
      </trkpt>
      <trkpt lat="50.652560032904148" lon="4.602274959906936">
        <ele>100.59999999999999</ele>
        <time>2018-07-01T11:17:09Z</time>
      </trkpt>
      <trkpt lat="50.6525659840554" lon="4.602095000445843">
        <ele>100.11</ele>
        <time>2018-07-01T11:17:10Z</time>
      </trkpt>
      <trkpt lat="50.652574030682445" lon="4.601891990751028">
        <ele>100.11</ele>
        <time>2018-07-01T11:17:11Z</time>
      </trkpt>
      <trkpt lat="50.652628010138869" lon="4.600328011438251">
        <ele>99.629999999999995</ele>
        <time>2018-07-01T11:17:19Z</time>
      </trkpt>
      <trkpt lat="50.652687018737197" lon="4.598405035212636">
        <ele>99.150000000000006</ele>
        <time>2018-07-01T11:17:31Z</time>
      </trkpt>
      <trkpt lat="50.652637984603643" lon="4.597068959847093">
        <ele>100.11</ele>
        <time>2018-07-01T11:17:41Z</time>
      </trkpt>
      <trkpt lat="50.652636978775263" lon="4.59564303047955">
        <ele>98.189999999999998</ele>
        <time>2018-07-01T11:17:51Z</time>
      </trkpt>
      <trkpt lat="50.652617029845715" lon="4.593959022313356">
        <ele>96.269999999999996</ele>
        <time>2018-07-01T11:18:01Z</time>
      </trkpt>
      <trkpt lat="50.652617029845715" lon="4.59358099848032">
        <ele>94.829999999999998</ele>
        <time>2018-07-01T11:18:04Z</time>
      </trkpt>
      <trkpt lat="50.652617029845715" lon="4.593493994325399">
        <ele>94.349999999999994</ele>
        <time>2018-07-01T11:18:05Z</time>
      </trkpt>
      <trkpt lat="50.652602026239038" lon="4.593204986304045">
        <ele>91.939999999999998</ele>
        <time>2018-07-01T11:18:09Z</time>
      </trkpt>
      <trkpt lat="50.652592973783612" lon="4.593152012676001">
        <ele>91.459999999999994</ele>
        <time>2018-07-01T11:18:10Z</time>
      </trkpt>
      <trkpt lat="50.652582999318838" lon="4.593093004077673">
        <ele>90.5</ele>
        <time>2018-07-01T11:18:11Z</time>
      </trkpt>
      <trkpt lat="50.652571013197303" lon="4.593019997701049">
        <ele>90.019999999999996</ele>
        <time>2018-07-01T11:18:12Z</time>
      </trkpt>
      <trkpt lat="50.652551986277103" lon="4.592907009646297">
        <ele>90.019999999999996</ele>
        <time>2018-07-01T11:18:13Z</time>
      </trkpt>
      <trkpt lat="50.652532037347555" lon="4.592826040461659">
        <ele>90.019999999999996</ele>
        <time>2018-07-01T11:18:14Z</time>
      </trkpt>
      <trkpt lat="50.65250102430582" lon="4.592703999951482">
        <ele>90.019999999999996</ele>
        <time>2018-07-01T11:18:15Z</time>
      </trkpt>
      <trkpt lat="50.6522430293262" lon="4.591530030593276">
        <ele>96.75</ele>
        <time>2018-07-01T11:18:21Z</time>
      </trkpt>
      <trkpt lat="50.651997020468116" lon="4.590786974877119">
        <ele>101.08</ele>
        <time>2018-07-01T11:18:24Z</time>
      </trkpt>
      <trkpt lat="50.651908004656434" lon="4.590554963797331">
        <ele>102.04000000000001</ele>
        <time>2018-07-01T11:18:25Z</time>
      </trkpt>
      <trkpt lat="50.651786969974637" lon="4.590353965759277">
        <ele>103.48</ele>
        <time>2018-07-01T11:18:26Z</time>
      </trkpt>
      <trkpt lat="50.650592967867851" lon="4.588668029755354">
        <ele>111.17</ele>
        <time>2018-07-01T11:18:35Z</time>
      </trkpt>
      <trkpt lat="50.649436013773084" lon="4.586973963305354">
        <ele>111.17</ele>
        <time>2018-07-01T11:18:43Z</time>
      </trkpt>
      <trkpt lat="50.649087997153401" lon="4.586421009153128">
        <ele>112.61</ele>
        <time>2018-07-01T11:18:46Z</time>
      </trkpt>
      <trkpt lat="50.648491960018873" lon="4.585127010941505">
        <ele>115.01000000000001</ele>
        <time>2018-07-01T11:18:52Z</time>
      </trkpt>
      <trkpt lat="50.648390036076307" lon="4.584897011518478">
        <ele>114.53</ele>
        <time>2018-07-01T11:18:53Z</time>
      </trkpt>
      <trkpt lat="50.648300014436245" lon="4.584692995995283">
        <ele>114.53</ele>
        <time>2018-07-01T11:18:54Z</time>
      </trkpt>
      <trkpt lat="50.648244023323059" lon="4.584509013220668">
        <ele>114.53</ele>
        <time>2018-07-01T11:18:55Z</time>
      </trkpt>
      <trkpt lat="50.648207981139421" lon="4.584306003525853">
        <ele>114.53</ele>
        <time>2018-07-01T11:18:56Z</time>
      </trkpt>
      <trkpt lat="50.648169005289674" lon="4.584091007709503">
        <ele>114.53</ele>
        <time>2018-07-01T11:18:57Z</time>
      </trkpt>
      <trkpt lat="50.647897012531757" lon="4.582563992589712">
        <ele>112.61</ele>
        <time>2018-07-01T11:19:03Z</time>
      </trkpt>
      <trkpt lat="50.647844038903713" lon="4.582036016508937">
        <ele>111.65000000000001</ele>
        <time>2018-07-01T11:19:05Z</time>
      </trkpt>
      <trkpt lat="50.647805985063314" lon="4.579627979546785">
        <ele>104.92</ele>
        <time>2018-07-01T11:19:13Z</time>
      </trkpt>
      <trkpt lat="50.64777597784996" lon="4.577022967860103">
        <ele>99.150000000000006</ele>
        <time>2018-07-01T11:19:21Z</time>
      </trkpt>
      <trkpt lat="50.647772960364819" lon="4.576259963214397">
        <ele>98.189999999999998</ele>
        <time>2018-07-01T11:19:24Z</time>
      </trkpt>
      <trkpt lat="50.647807996720076" lon="4.576039016246796">
        <ele>97.230000000000004</ele>
        <time>2018-07-01T11:19:25Z</time>
      </trkpt>
      <trkpt lat="50.647848984226584" lon="4.575821002945304">
        <ele>96.269999999999996</ele>
        <time>2018-07-01T11:19:26Z</time>
      </trkpt>
      <trkpt lat="50.648088036105037" lon="4.5748679805547">
        <ele>91.459999999999994</ele>
        <time>2018-07-01T11:19:30Z</time>
      </trkpt>
      <trkpt lat="50.648128017783165" lon="4.574706964194775">
        <ele>90.5</ele>
        <time>2018-07-01T11:19:31Z</time>
      </trkpt>
      <trkpt lat="50.648229019716382" lon="4.574302034452558">
        <ele>87.620000000000005</ele>
        <time>2018-07-01T11:19:34Z</time>
      </trkpt>
      <trkpt lat="50.64837696030736" lon="4.573558978736401">
        <ele>84.25</ele>
        <time>2018-07-01T11:19:39Z</time>
      </trkpt>
      <trkpt lat="50.648405961692333" lon="4.573405003175139">
        <ele>83.290000000000006</ele>
        <time>2018-07-01T11:19:40Z</time>
      </trkpt>
      <trkpt lat="50.648391963914037" lon="4.573235018178821">
        <ele>82.810000000000002</ele>
        <time>2018-07-01T11:19:41Z</time>
      </trkpt>
      <trkpt lat="50.648371009156108" lon="4.573076013475657">
        <ele>81.849999999999994</ele>
        <time>2018-07-01T11:19:42Z</time>
      </trkpt>
      <trkpt lat="50.648347036913037" lon="4.572887001559138">
        <ele>80.890000000000001</ele>
        <time>2018-07-01T11:19:43Z</time>
      </trkpt>
      <trkpt lat="50.648287022486329" lon="4.572788011282682">
        <ele>79.930000000000007</ele>
        <time>2018-07-01T11:19:44Z</time>
      </trkpt>
      <trkpt lat="50.648213010281324" lon="4.572668988257647">
        <ele>79.450000000000003</ele>
        <time>2018-07-01T11:19:45Z</time>
      </trkpt>
      <trkpt lat="50.648117959499359" lon="4.572594976052642">
        <ele>78.480000000000004</ele>
        <time>2018-07-01T11:19:46Z</time>
      </trkpt>
      <trkpt lat="50.648014023900032" lon="4.572521969676018">
        <ele>78</ele>
        <time>2018-07-01T11:19:47Z</time>
      </trkpt>
      <trkpt lat="50.647902963683009" lon="4.572511995211244">
        <ele>77.519999999999996</ele>
        <time>2018-07-01T11:19:48Z</time>
      </trkpt>
      <trkpt lat="50.64779500477016" lon="4.57250202074647">
        <ele>77.040000000000006</ele>
        <time>2018-07-01T11:19:49Z</time>
      </trkpt>
      <trkpt lat="50.647166026756167" lon="4.572415016591549">
        <ele>72.239999999999995</ele>
        <time>2018-07-01T11:19:55Z</time>
      </trkpt>
      <trkpt lat="50.647080028429627" lon="4.572372017428279">
        <ele>71.760000000000005</ele>
        <time>2018-07-01T11:19:56Z</time>
      </trkpt>
      <trkpt lat="50.646977014839649" lon="4.572284007444978">
        <ele>70.790000000000006</ele>
        <time>2018-07-01T11:19:57Z</time>
      </trkpt>
      <trkpt lat="50.646584993228316" lon="4.571950994431973">
        <ele>66.469999999999999</ele>
        <time>2018-07-01T11:20:01Z</time>
      </trkpt>
      <trkpt lat="50.646487008780241" lon="4.571868013590574">
        <ele>65.510000000000005</ele>
        <time>2018-07-01T11:20:02Z</time>
      </trkpt>
      <trkpt lat="50.646393969655037" lon="4.571788972243667">
        <ele>64.549999999999997</ele>
        <time>2018-07-01T11:20:03Z</time>
      </trkpt>
      <trkpt lat="50.646309982985258" lon="4.571716971695423">
        <ele>64.069999999999993</ele>
        <time>2018-07-01T11:20:04Z</time>
      </trkpt>
      <trkpt lat="50.646221973001957" lon="4.571642959490418">
        <ele>62.619999999999997</ele>
        <time>2018-07-01T11:20:05Z</time>
      </trkpt>
      <trkpt lat="50.646153995767236" lon="4.571546986699104">
        <ele>61.659999999999997</ele>
        <time>2018-07-01T11:20:06Z</time>
      </trkpt>
      <trkpt lat="50.646007983013988" lon="4.571342971175909">
        <ele>59.740000000000002</ele>
        <time>2018-07-01T11:20:08Z</time>
      </trkpt>
      <trkpt lat="50.645973030477762" lon="4.571220008656383">
        <ele>58.299999999999997</ele>
        <time>2018-07-01T11:20:09Z</time>
      </trkpt>
      <trkpt lat="50.645946962758899" lon="4.571101991459727">
        <ele>57.340000000000003</ele>
        <time>2018-07-01T11:20:10Z</time>
      </trkpt>
      <trkpt lat="50.64592701382935" lon="4.571005012840033">
        <ele>56.369999999999997</ele>
        <time>2018-07-01T11:20:11Z</time>
      </trkpt>
      <trkpt lat="50.645921984687448" lon="4.57097802311182">
        <ele>54.93</ele>
        <time>2018-07-01T11:20:12Z</time>
      </trkpt>
      <trkpt lat="50.645921984687448" lon="4.57078498788178">
        <ele>53.969999999999999</ele>
        <time>2018-07-01T11:20:13Z</time>
      </trkpt>
      <trkpt lat="50.645888959988952" lon="4.570760009810329">
        <ele>53.009999999999998</ele>
        <time>2018-07-01T11:20:14Z</time>
      </trkpt>
      <trkpt lat="50.645832968875766" lon="4.570718016475439">
        <ele>51.090000000000003</ele>
        <time>2018-07-01T11:20:16Z</time>
      </trkpt>
      <trkpt lat="50.645701037719846" lon="4.570602010935545">
        <ele>50.130000000000003</ele>
        <time>2018-07-01T11:20:17Z</time>
      </trkpt>
      <trkpt lat="50.645615961402655" lon="4.570553982630372">
        <ele>49.159999999999997</ele>
        <time>2018-07-01T11:20:18Z</time>
      </trkpt>
      <trkpt lat="50.645526023581624" lon="4.570523975417018">
        <ele>48.200000000000003</ele>
        <time>2018-07-01T11:20:19Z</time>
      </trkpt>
      <trkpt lat="50.645439019426703" lon="4.570494974032044">
        <ele>47.719999999999999</ele>
        <time>2018-07-01T11:20:20Z</time>
      </trkpt>
      <trkpt lat="50.645342040807009" lon="4.570463038980961">
        <ele>46.759999999999998</ele>
        <time>2018-07-01T11:20:21Z</time>
      </trkpt>
      <trkpt lat="50.645284960046411" lon="4.570416016504169">
        <ele>46.759999999999998</ele>
        <time>2018-07-01T11:20:22Z</time>
      </trkpt>
      <trkpt lat="50.644415002316236" lon="4.569709002971649">
        <ele>47.240000000000002</ele>
        <time>2018-07-01T11:20:30Z</time>
      </trkpt>
      <trkpt lat="50.644312994554639" lon="4.569623004645109">
        <ele>47.240000000000002</ele>
        <time>2018-07-01T11:20:31Z</time>
      </trkpt>
      <trkpt lat="50.644234959036112" lon="4.569499958306551">
        <ele>47.240000000000002</ele>
        <time>2018-07-01T11:20:32Z</time>
      </trkpt>
      <trkpt lat="50.644140997901559" lon="4.569326033815742">
        <ele>47.719999999999999</ele>
        <time>2018-07-01T11:20:33Z</time>
      </trkpt>
      <trkpt lat="50.643898006528616" lon="4.568684985861182">
        <ele>49.159999999999997</ele>
        <time>2018-07-01T11:20:37Z</time>
      </trkpt>
      <trkpt lat="50.643693991005421" lon="4.568147035315633">
        <ele>52.530000000000001</ele>
        <time>2018-07-01T11:20:41Z</time>
      </trkpt>
      <trkpt lat="50.643667001277208" lon="4.568052990362048">
        <ele>53.009999999999998</ele>
        <time>2018-07-01T11:20:42Z</time>
      </trkpt>
      <trkpt lat="50.643662977963686" lon="4.567993981763721">
        <ele>53.490000000000002</ele>
        <time>2018-07-01T11:20:43Z</time>
      </trkpt>
      <trkpt lat="50.643659960478544" lon="4.567954000085592">
        <ele>53.969999999999999</ele>
        <time>2018-07-01T11:20:44Z</time>
      </trkpt>
      <trkpt lat="50.643658032640815" lon="4.567916030064225">
        <ele>54.450000000000003</ele>
        <time>2018-07-01T11:20:45Z</time>
      </trkpt>
      <trkpt lat="50.643654009327292" lon="4.567861966788769">
        <ele>54.93</ele>
        <time>2018-07-01T11:20:46Z</time>
      </trkpt>
      <trkpt lat="50.643632970750332" lon="4.567750990390778">
        <ele>55.409999999999997</ele>
        <time>2018-07-01T11:20:47Z</time>
      </trkpt>
      <trkpt lat="50.643570022657514" lon="4.567716037854552">
        <ele>55.890000000000001</ele>
        <time>2018-07-01T11:20:48Z</time>
      </trkpt>
      <trkpt lat="50.643485030159354" lon="4.56766901537776">
        <ele>56.859999999999999</ele>
        <time>2018-07-01T11:20:49Z</time>
      </trkpt>
      <trkpt lat="50.643386039882898" lon="4.567614030092955">
        <ele>57.340000000000003</ele>
        <time>2018-07-01T11:20:50Z</time>
      </trkpt>
      <trkpt lat="50.64328202046454" lon="4.567556027323008">
        <ele>58.299999999999997</ele>
        <time>2018-07-01T11:20:51Z</time>
      </trkpt>
      <trkpt lat="50.643183030188084" lon="4.567531971260905">
        <ele>59.740000000000002</ele>
        <time>2018-07-01T11:20:52Z</time>
      </trkpt>
      <trkpt lat="50.64311002381146" lon="4.567543035373092">
        <ele>60.700000000000003</ele>
        <time>2018-07-01T11:20:53Z</time>
      </trkpt>
      <trkpt lat="50.643018996343017" lon="4.567621992900968">
        <ele>61.659999999999997</ele>
        <time>2018-07-01T11:20:54Z</time>
      </trkpt>
      <trkpt lat="50.642930986359715" lon="4.567705979570746">
        <ele>62.619999999999997</ele>
        <time>2018-07-01T11:20:55Z</time>
      </trkpt>
      <trkpt lat="50.642494037747383" lon="4.568174025043845">
        <ele>67.430000000000007</ele>
        <time>2018-07-01T11:21:00Z</time>
      </trkpt>
      <trkpt lat="50.642434023320675" lon="4.568236973136663">
        <ele>68.390000000000001</ele>
        <time>2018-07-01T11:21:01Z</time>
      </trkpt>
      <trkpt lat="50.642389012500644" lon="4.568285001441836">
        <ele>69.829999999999998</ele>
        <time>2018-07-01T11:21:02Z</time>
      </trkpt>
      <trkpt lat="50.642305025830865" lon="4.568244013935328">
        <ele>70.790000000000006</ele>
        <time>2018-07-01T11:21:03Z</time>
      </trkpt>
      <trkpt lat="50.642280969768763" lon="4.568178970366716">
        <ele>71.760000000000005</ele>
        <time>2018-07-01T11:21:04Z</time>
      </trkpt>
      <trkpt lat="50.642251968383789" lon="4.568095989525318">
        <ele>73.200000000000003</ele>
        <time>2018-07-01T11:21:05Z</time>
      </trkpt>
      <trkpt lat="50.642213998362422" lon="4.567990964278579">
        <ele>74.159999999999997</ele>
        <time>2018-07-01T11:21:06Z</time>
      </trkpt>
      <trkpt lat="50.642168987542391" lon="4.567869007587433">
        <ele>75.599999999999994</ele>
        <time>2018-07-01T11:21:07Z</time>
      </trkpt>
      <trkpt lat="50.641894983127713" lon="4.567262995988131">
        <ele>80.409999999999997</ele>
        <time>2018-07-01T11:21:11Z</time>
      </trkpt>
      <trkpt lat="50.641803033649921" lon="4.567111032083631">
        <ele>81.370000000000005</ele>
        <time>2018-07-01T11:21:12Z</time>
      </trkpt>
      <trkpt lat="50.641496004536748" lon="4.566670982167125">
        <ele>83.769999999999996</ele>
        <time>2018-07-01T11:21:15Z</time>
      </trkpt>
      <trkpt lat="50.641283020377159" lon="4.566353978589177">
        <ele>84.25</ele>
        <time>2018-07-01T11:21:17Z</time>
      </trkpt>
      <trkpt lat="50.641075987368822" lon="4.56603697501123">
        <ele>86.180000000000007</ele>
        <time>2018-07-01T11:21:19Z</time>
      </trkpt>
      <trkpt lat="50.640697041526437" lon="4.56532996147871">
        <ele>90.980000000000004</ele>
        <time>2018-07-01T11:21:24Z</time>
      </trkpt>
      <trkpt lat="50.640156995505095" lon="4.564087009057403">
        <ele>99.150000000000006</ele>
        <time>2018-07-01T11:21:32Z</time>
      </trkpt>
      <trkpt lat="50.639170026406646" lon="4.562629982829094">
        <ele>107.81</ele>
        <time>2018-07-01T11:21:41Z</time>
      </trkpt>
      <trkpt lat="50.637910980731249" lon="4.560856958851218">
        <ele>111.17</ele>
        <time>2018-07-01T11:21:52Z</time>
      </trkpt>
      <trkpt lat="50.637776032090187" lon="4.560681022703648">
        <ele>111.17</ele>
        <time>2018-07-01T11:21:54Z</time>
      </trkpt>
      <trkpt lat="50.63769799657166" lon="4.560588989406824">
        <ele>111.17</ele>
        <time>2018-07-01T11:21:55Z</time>
      </trkpt>
      <trkpt lat="50.637606969103217" lon="4.560468038544059">
        <ele>111.65000000000001</ele>
        <time>2018-07-01T11:21:56Z</time>
      </trkpt>
      <trkpt lat="50.637504039332271" lon="4.560327976942062">
        <ele>111.17</ele>
        <time>2018-07-01T11:21:57Z</time>
      </trkpt>
      <trkpt lat="50.637389039620757" lon="4.56017198972404">
        <ele>111.17</ele>
        <time>2018-07-01T11:21:58Z</time>
      </trkpt>
      <trkpt lat="50.636479016393423" lon="4.558933982625604">
        <ele>111.17</ele>
        <time>2018-07-01T11:22:04Z</time>
      </trkpt>
      <trkpt lat="50.634979996830225" lon="4.556858958676457">
        <ele>111.65000000000001</ele>
        <time>2018-07-01T11:22:13Z</time>
      </trkpt>
      <trkpt lat="50.633150981739163" lon="4.554365007206798">
        <ele>113.09</ele>
        <time>2018-07-01T11:22:23Z</time>
      </trkpt>
      <trkpt lat="50.63198103569448" lon="4.552814019843936">
        <ele>115.5</ele>
        <time>2018-07-01T11:22:31Z</time>
      </trkpt>
      <trkpt lat="50.631780959665775" lon="4.552574967965484">
        <ele>115.98</ele>
        <time>2018-07-01T11:22:33Z</time>
      </trkpt>
      <trkpt lat="50.631722034886479" lon="4.552504979074001">
        <ele>115.98</ele>
        <time>2018-07-01T11:22:34Z</time>
      </trkpt>
      <trkpt lat="50.631760004907846" lon="4.552337005734444">
        <ele>116.45999999999999</ele>
        <time>2018-07-01T11:22:35Z</time>
      </trkpt>
      <trkpt lat="50.631760004907846" lon="4.55222100019455">
        <ele>116.45999999999999</ele>
        <time>2018-07-01T11:22:36Z</time>
      </trkpt>
      <trkpt lat="50.631760004907846" lon="4.552103988826275">
        <ele>116.94</ele>
        <time>2018-07-01T11:22:37Z</time>
      </trkpt>
      <trkpt lat="50.631760004907846" lon="4.551979014649987">
        <ele>116.45999999999999</ele>
        <time>2018-07-01T11:22:38Z</time>
      </trkpt>
      <trkpt lat="50.631748018786311" lon="4.551838031038642">
        <ele>116.45999999999999</ele>
        <time>2018-07-01T11:22:39Z</time>
      </trkpt>
      <trkpt lat="50.63172597438097" lon="4.55168497748673">
        <ele>116.45999999999999</ele>
        <time>2018-07-01T11:22:40Z</time>
      </trkpt>
      <trkpt lat="50.631595971062779" lon="4.551351964473724">
        <ele>116.45999999999999</ele>
        <time>2018-07-01T11:22:42Z</time>
      </trkpt>
      <trkpt lat="50.630921982228756" lon="4.549834001809359">
        <ele>115.5</ele>
        <time>2018-07-01T11:22:49Z</time>
      </trkpt>
      <trkpt lat="50.630332985892892" lon="4.547587987035513">
        <ele>119.34</ele>
        <time>2018-07-01T11:22:56Z</time>
      </trkpt>
      <trkpt lat="50.62923202291131" lon="4.544287025928497">
        <ele>127.51000000000001</ele>
        <time>2018-07-01T11:23:05Z</time>
      </trkpt>
      <trkpt lat="50.627817995846272" lon="4.541353024542332">
        <ele>129.91999999999999</ele>
        <time>2018-07-01T11:23:13Z</time>
      </trkpt>
      <trkpt lat="50.626168018206954" lon="4.538476020097733">
        <ele>129.43000000000001</ele>
        <time>2018-07-01T11:23:21Z</time>
      </trkpt>
      <trkpt lat="50.625209966674447" lon="4.535624999552965">
        <ele>123.67</ele>
        <time>2018-07-01T11:23:28Z</time>
      </trkpt>
      <trkpt lat="50.624776035547256" lon="4.532558983191848">
        <ele>112.61</ele>
        <time>2018-07-01T11:23:35Z</time>
      </trkpt>
      <trkpt lat="50.624757008627057" lon="4.527912978082895">
        <ele>90.5</ele>
        <time>2018-07-01T11:23:45Z</time>
      </trkpt>
      <trkpt lat="50.624547963961959" lon="4.523796960711479">
        <ele>83.290000000000006</ele>
        <time>2018-07-01T11:23:54Z</time>
      </trkpt>
      <trkpt lat="50.623871041461825" lon="4.519643979147077">
        <ele>88.579999999999998</ele>
        <time>2018-07-01T11:24:04Z</time>
      </trkpt>
      <trkpt lat="50.62282900325954" lon="4.515621000900865">
        <ele>102.04000000000001</ele>
        <time>2018-07-01T11:24:14Z</time>
      </trkpt>
      <trkpt lat="50.621806997805834" lon="4.512221971526742">
        <ele>112.61</ele>
        <time>2018-07-01T11:24:22Z</time>
      </trkpt>
      <trkpt lat="50.620420966297388" lon="4.507023012265563">
        <ele>125.59</ele>
        <time>2018-07-01T11:24:33Z</time>
      </trkpt>
      <trkpt lat="50.619389992207289" lon="4.501606039702892">
        <ele>132.31999999999999</ele>
        <time>2018-07-01T11:24:44Z</time>
      </trkpt>
      <trkpt lat="50.618903003633022" lon="4.497540984302759">
        <ele>133.28</ele>
        <time>2018-07-01T11:24:53Z</time>
      </trkpt>
      <trkpt lat="50.618641991168261" lon="4.493150962516666">
        <ele>132.31999999999999</ele>
        <time>2018-07-01T11:25:03Z</time>
      </trkpt>
      <trkpt lat="50.618534032255411" lon="4.489103006199002">
        <ele>131.84</ele>
        <time>2018-07-01T11:25:12Z</time>
      </trkpt>
      <trkpt lat="50.618412997573614" lon="4.484492959454656">
        <ele>130.40000000000001</ele>
        <time>2018-07-01T11:25:22Z</time>
      </trkpt>
      <trkpt lat="50.618308978155255" lon="4.478307031095028">
        <ele>128.47</ele>
        <time>2018-07-01T11:25:35Z</time>
      </trkpt>
      <trkpt lat="50.618368992581964" lon="4.474629973992705">
        <ele>125.59</ele>
        <time>2018-07-01T11:25:43Z</time>
      </trkpt>
      <trkpt lat="50.618697982281446" lon="4.469239991158247">
        <ele>127.51000000000001</ele>
        <time>2018-07-01T11:25:55Z</time>
      </trkpt>
      <trkpt lat="50.619056979194283" lon="4.465654967352748">
        <ele>130.40000000000001</ele>
        <time>2018-07-01T11:26:03Z</time>
      </trkpt>
      <trkpt lat="50.619969014078379" lon="4.459198974072933">
        <ele>133.75999999999999</ele>
        <time>2018-07-01T11:26:17Z</time>
      </trkpt>
      <trkpt lat="50.620906027033925" lon="4.453051015734673">
        <ele>138.56999999999999</ele>
        <time>2018-07-01T11:26:30Z</time>
      </trkpt>
      <trkpt lat="50.62149996869266" lon="4.447870999574661">
        <ele>139.05000000000001</ele>
        <time>2018-07-01T11:26:41Z</time>
      </trkpt>
      <trkpt lat="50.621674982830882" lon="4.444975974038243">
        <ele>137.61000000000001</ele>
        <time>2018-07-01T11:26:48Z</time>
      </trkpt>
      <trkpt lat="50.621662996709347" lon="4.442399963736534">
        <ele>136.16</ele>
        <time>2018-07-01T11:26:55Z</time>
      </trkpt>
      <trkpt lat="50.621744971722364" lon="4.441455993801355">
        <ele>136.16</ele>
        <time>2018-07-01T11:26:58Z</time>
      </trkpt>
      <trkpt lat="50.621795011684299" lon="4.441161034628749">
        <ele>136.16</ele>
        <time>2018-07-01T11:26:59Z</time>
      </trkpt>
      <trkpt lat="50.621858965605497" lon="4.44088501855731">
        <ele>136.63999999999999</ele>
        <time>2018-07-01T11:27:00Z</time>
      </trkpt>
      <trkpt lat="50.621953010559082" lon="4.440603973343968">
        <ele>136.63999999999999</ele>
        <time>2018-07-01T11:27:01Z</time>
      </trkpt>
      <trkpt lat="50.622049989178777" lon="4.440311025828123">
        <ele>136.63999999999999</ele>
        <time>2018-07-01T11:27:02Z</time>
      </trkpt>
      <trkpt lat="50.622148979455233" lon="4.440013971179724">
        <ele>136.16</ele>
        <time>2018-07-01T11:27:03Z</time>
      </trkpt>
      <trkpt lat="50.622350983321667" lon="4.439409971237183">
        <ele>136.16</ele>
        <time>2018-07-01T11:27:05Z</time>
      </trkpt>
      <trkpt lat="50.622437987476587" lon="4.439079975709319">
        <ele>136.16</ele>
        <time>2018-07-01T11:27:06Z</time>
      </trkpt>
      <trkpt lat="50.622667986899614" lon="4.438060987740755">
        <ele>136.16</ele>
        <time>2018-07-01T11:27:10Z</time>
      </trkpt>
      <trkpt lat="50.62268097884953" lon="4.437851021066308">
        <ele>136.16</ele>
        <time>2018-07-01T11:27:11Z</time>
      </trkpt>
      <trkpt lat="50.622671004384756" lon="4.437678018584848">
        <ele>136.16</ele>
        <time>2018-07-01T11:27:12Z</time>
      </trkpt>
      <trkpt lat="50.622665975242853" lon="4.437414994463325">
        <ele>135.68000000000001</ele>
        <time>2018-07-01T11:27:14Z</time>
      </trkpt>
      <trkpt lat="50.622671004384756" lon="4.437295971438289">
        <ele>135.19999999999999</ele>
        <time>2018-07-01T11:27:15Z</time>
      </trkpt>
      <trkpt lat="50.622676033526659" lon="4.437181977555156">
        <ele>134.72</ele>
        <time>2018-07-01T11:27:16Z</time>
      </trkpt>
      <trkpt lat="50.622728001326323" lon="4.436963964253664">
        <ele>134.24000000000001</ele>
        <time>2018-07-01T11:27:17Z</time>
      </trkpt>
      <trkpt lat="50.622821040451527" lon="4.436852987855673">
        <ele>133.75999999999999</ele>
        <time>2018-07-01T11:27:18Z</time>
      </trkpt>
      <trkpt lat="50.623626038432121" lon="4.435969032347202">
        <ele>131.36000000000001</ele>
        <time>2018-07-01T11:27:24Z</time>
      </trkpt>
      <trkpt lat="50.624806964769959" lon="4.4349330291152">
        <ele>127.03</ele>
        <time>2018-07-01T11:27:31Z</time>
      </trkpt>
      <trkpt lat="50.625987974926829" lon="4.434172036126256">
        <ele>125.59</ele>
        <time>2018-07-01T11:27:39Z</time>
      </trkpt>
      <trkpt lat="50.627779019996524" lon="4.433462005108595">
        <ele>127.51000000000001</ele>
        <time>2018-07-01T11:27:49Z</time>
      </trkpt>
      <trkpt lat="50.629864018410444" lon="4.432748034596443">
        <ele>137.13</ele>
        <time>2018-07-01T11:28:00Z</time>
      </trkpt>
      <trkpt lat="50.631647016853094" lon="4.431833988055587">
        <ele>144.34</ele>
        <time>2018-07-01T11:28:10Z</time>
      </trkpt>
      <trkpt lat="50.632816040888429" lon="4.430648032575846">
        <ele>145.30000000000001</ele>
        <time>2018-07-01T11:28:17Z</time>
      </trkpt>
      <trkpt lat="50.635300017893314" lon="4.427941013127565">
        <ele>142.88999999999999</ele>
        <time>2018-07-01T11:28:31Z</time>
      </trkpt>
      <trkpt lat="50.637561958283186" lon="4.425548985600472">
        <ele>134.72</ele>
        <time>2018-07-01T11:28:43Z</time>
      </trkpt>
      <trkpt lat="50.639368006959558" lon="4.423663979396224">
        <ele>131.36000000000001</ele>
        <time>2018-07-01T11:28:53Z</time>
      </trkpt>
      <trkpt lat="50.641114041209221" lon="4.422495039179921">
        <ele>133.28</ele>
        <time>2018-07-01T11:29:02Z</time>
      </trkpt>
      <trkpt lat="50.642240988090634" lon="4.422121038660407">
        <ele>138.09</ele>
        <time>2018-07-01T11:29:09Z</time>
      </trkpt>
      <trkpt lat="50.643334994092584" lon="4.421858014538884">
        <ele>140.97</ele>
        <time>2018-07-01T11:29:17Z</time>
      </trkpt>
      <trkpt lat="50.644861003383994" lon="4.421301037073135">
        <ele>140.49000000000001</ele>
        <time>2018-07-01T11:29:26Z</time>
      </trkpt>
      <trkpt lat="50.64618500880897" lon="4.420242989435792">
        <ele>134.72</ele>
        <time>2018-07-01T11:29:34Z</time>
      </trkpt>
      <trkpt lat="50.648105973377824" lon="4.418560992926359">
        <ele>124.15000000000001</ele>
        <time>2018-07-01T11:29:45Z</time>
      </trkpt>
      <trkpt lat="50.649914033710957" lon="4.416959965601564">
        <ele>123.67</ele>
        <time>2018-07-01T11:29:56Z</time>
      </trkpt>
      <trkpt lat="50.651804991066456" lon="4.415279980748892">
        <ele>127.98999999999999</ele>
        <time>2018-07-01T11:30:09Z</time>
      </trkpt>
      <trkpt lat="50.653212983161211" lon="4.41402898170054">
        <ele>134.72</ele>
        <time>2018-07-01T11:30:18Z</time>
      </trkpt>
      <trkpt lat="50.654635978862643" lon="4.413195988163352">
        <ele>138.56999999999999</ele>
        <time>2018-07-01T11:30:25Z</time>
      </trkpt>
      <trkpt lat="50.655701989308" lon="4.412862975150347">
        <ele>140.97</ele>
        <time>2018-07-01T11:30:31Z</time>
      </trkpt>
      <trkpt lat="50.657354984432459" lon="4.412859035655856">
        <ele>140.00999999999999</ele>
        <time>2018-07-01T11:30:39Z</time>
      </trkpt>
      <trkpt lat="50.659550037235022" lon="4.413118958473206">
        <ele>137.61000000000001</ele>
        <time>2018-07-01T11:30:49Z</time>
      </trkpt>
      <trkpt lat="50.662139039486647" lon="4.413425987586379">
        <ele>138.09</ele>
        <time>2018-07-01T11:31:02Z</time>
      </trkpt>
      <trkpt lat="50.664227977395058" lon="4.413627991452813">
        <ele>142.41</ele>
        <time>2018-07-01T11:31:12Z</time>
      </trkpt>
      <trkpt lat="50.666133016347885" lon="4.41353696398437">
        <ele>141.93000000000001</ele>
        <time>2018-07-01T11:31:22Z</time>
      </trkpt>
      <trkpt lat="50.668763006106019" lon="4.41327603533864">
        <ele>137.61000000000001</ele>
        <time>2018-07-01T11:31:35Z</time>
      </trkpt>
      <trkpt lat="50.672152983024716" lon="4.41295400261879">
        <ele>133.75999999999999</ele>
        <time>2018-07-01T11:31:51Z</time>
      </trkpt>
      <trkpt lat="50.674547022208571" lon="4.412736995145679">
        <ele>125.11</ele>
        <time>2018-07-01T11:32:02Z</time>
      </trkpt>
      <trkpt lat="50.67716502584517" lon="4.41248101182282">
        <ele>120.78</ele>
        <time>2018-07-01T11:32:15Z</time>
      </trkpt>
      <trkpt lat="50.678975014016032" lon="4.412302980199456">
        <ele>125.11</ele>
        <time>2018-07-01T11:32:25Z</time>
      </trkpt>
      <trkpt lat="50.679855030030012" lon="4.412129977717996">
        <ele>128.47</ele>
        <time>2018-07-01T11:32:32Z</time>
      </trkpt>
      <trkpt lat="50.680169016122818" lon="4.41200902685523">
        <ele>129.91999999999999</ele>
        <time>2018-07-01T11:32:37Z</time>
      </trkpt>
      <trkpt lat="50.680231964215636" lon="4.411982959136367">
        <ele>129.91999999999999</ele>
        <time>2018-07-01T11:32:38Z</time>
      </trkpt>
      <trkpt lat="50.680292984470725" lon="4.411957981064916">
        <ele>129.91999999999999</ele>
        <time>2018-07-01T11:32:39Z</time>
      </trkpt>
      <trkpt lat="50.68034403026104" lon="4.411937026306987">
        <ele>129.91999999999999</ele>
        <time>2018-07-01T11:32:40Z</time>
      </trkpt>
      <trkpt lat="50.68038803525269" lon="4.41183703020215">
        <ele>130.40000000000001</ele>
        <time>2018-07-01T11:32:41Z</time>
      </trkpt>
      <trkpt lat="50.680372025817633" lon="4.411758994683623">
        <ele>130.40000000000001</ele>
        <time>2018-07-01T11:32:42Z</time>
      </trkpt>
      <trkpt lat="50.680350987240672" lon="4.411660004407167">
        <ele>130.40000000000001</ele>
        <time>2018-07-01T11:32:43Z</time>
      </trkpt>
      <trkpt lat="50.680327014997602" lon="4.411549028009176">
        <ele>130.88</ele>
        <time>2018-07-01T11:32:44Z</time>
      </trkpt>
      <trkpt lat="50.68030203692615" lon="4.411431010812521">
        <ele>130.88</ele>
        <time>2018-07-01T11:32:45Z</time>
      </trkpt>
      <trkpt lat="50.680275969207287" lon="4.411307964473963">
        <ele>130.88</ele>
        <time>2018-07-01T11:32:46Z</time>
      </trkpt>
      <trkpt lat="50.680250991135836" lon="4.411179972812533">
        <ele>130.88</ele>
        <time>2018-07-01T11:32:47Z</time>
      </trkpt>
      <trkpt lat="50.680155018344522" lon="4.410308003425598">
        <ele>132.31999999999999</ele>
        <time>2018-07-01T11:32:53Z</time>
      </trkpt>
      <trkpt lat="50.679918983951211" lon="4.408396007493138">
        <ele>132.31999999999999</ele>
        <time>2018-07-01T11:33:06Z</time>
      </trkpt>
      <trkpt lat="50.679810019209981" lon="4.407524038106203">
        <ele>133.28</ele>
        <time>2018-07-01T11:33:14Z</time>
      </trkpt>
    </trkseg>
  </trk>

  <trk>
    <name>Track vom: 2018-07-01 14:13</name>
    <extensions>
      <gpxx:TrackExtension>
        <gpxx:DisplayColor>DarkGray</gpxx:DisplayColor>
      </gpxx:TrackExtension>
    </extensions>
    <trkseg>
      <trkpt lat="50.680040018633008" lon="4.411933002993465">
        <ele>129.91999999999999</ele>
        <time>2018-07-01T12:13:08Z</time>
      </trkpt>
      <trkpt lat="50.680040018633008" lon="4.411930991336703">
        <ele>129.91999999999999</ele>
        <time>2018-07-01T12:13:57Z</time>
      </trkpt>
      <trkpt lat="50.680041024461389" lon="4.411930991336703">
        <ele>129.91999999999999</ele>
        <time>2018-07-01T12:14:41Z</time>
      </trkpt>
      <trkpt lat="50.680041024461389" lon="4.411925040185452">
        <ele>130.40000000000001</ele>
        <time>2018-07-01T12:15:32Z</time>
      </trkpt>
      <trkpt lat="50.68004697561264" lon="4.411915987730026">
        <ele>129.91999999999999</ele>
        <time>2018-07-01T12:16:25Z</time>
      </trkpt>
      <trkpt lat="50.68004697561264" lon="4.411915987730026">
        <ele>129.91999999999999</ele>
        <time>2018-07-01T12:16:29Z</time>
      </trkpt>
      <trkpt lat="50.67995997145772" lon="4.412092007696629">
        <ele>128.47</ele>
        <time>2018-07-01T12:16:33Z</time>
      </trkpt>
      <trkpt lat="50.679890988394618" lon="4.41211698576808">
        <ele>128.47</ele>
        <time>2018-07-01T12:16:34Z</time>
      </trkpt>
      <trkpt lat="50.679219011217356" lon="4.412269033491612">
        <ele>125.59</ele>
        <time>2018-07-01T12:16:42Z</time>
      </trkpt>
      <trkpt lat="50.679178023710847" lon="4.412274984642863">
        <ele>125.11</ele>
        <time>2018-07-01T12:16:48Z</time>
      </trkpt>
      <trkpt lat="50.678980965167284" lon="4.412301974371076">
        <ele>123.19</ele>
        <time>2018-07-01T12:17:17Z</time>
      </trkpt>
      <trkpt lat="50.678910976275802" lon="4.412312032654882">
        <ele>121.73999999999999</ele>
        <time>2018-07-01T12:17:23Z</time>
      </trkpt>
      <trkpt lat="50.678881974890828" lon="4.412315972149372">
        <ele>120.78</ele>
        <time>2018-07-01T12:17:24Z</time>
      </trkpt>
      <trkpt lat="50.678861020132899" lon="4.412318989634514">
        <ele>119.34</ele>
        <time>2018-07-01T12:17:27Z</time>
      </trkpt>
      <trkpt lat="50.678879963234067" lon="4.412315972149372">
        <ele>119.34</ele>
        <time>2018-07-01T12:17:28Z</time>
      </trkpt>
      <trkpt lat="50.678913993760943" lon="4.412312032654882">
        <ele>118.86</ele>
        <time>2018-07-01T12:17:29Z</time>
      </trkpt>
      <trkpt lat="50.678965039551258" lon="4.412303986027837">
        <ele>118.38</ele>
        <time>2018-07-01T12:17:30Z</time>
      </trkpt>
      <trkpt lat="50.679027987644076" lon="4.412296023219824">
        <ele>117.90000000000001</ele>
        <time>2018-07-01T12:17:31Z</time>
      </trkpt>
      <trkpt lat="50.679089007899165" lon="4.412286970764399">
        <ele>117.42</ele>
        <time>2018-07-01T12:17:32Z</time>
      </trkpt>
      <trkpt lat="50.679140975698829" lon="4.412280013784766">
        <ele>117.42</ele>
        <time>2018-07-01T12:17:33Z</time>
      </trkpt>
      <trkpt lat="50.679180035367608" lon="4.412274984642863">
        <ele>117.42</ele>
        <time>2018-07-01T12:17:34Z</time>
      </trkpt>
      <trkpt lat="50.679212976247072" lon="4.412270039319992">
        <ele>116.94</ele>
        <time>2018-07-01T12:17:35Z</time>
      </trkpt>
      <trkpt lat="50.679236026480794" lon="4.41226702183485">
        <ele>116.94</ele>
        <time>2018-07-01T12:17:36Z</time>
      </trkpt>
      <trkpt lat="50.679236026480794" lon="4.41226702183485">
        <ele>116.94</ele>
        <time>2018-07-01T12:17:37Z</time>
      </trkpt>
      <trkpt lat="50.679236026480794" lon="4.41226702183485">
        <ele>116.45999999999999</ele>
        <time>2018-07-01T12:17:53Z</time>
      </trkpt>
      <trkpt lat="50.679424032568932" lon="4.412241037935019">
        <ele>119.34</ele>
        <time>2018-07-01T12:18:08Z</time>
      </trkpt>
      <trkpt lat="50.679912026971579" lon="4.412109022960067">
        <ele>114.05</ele>
        <time>2018-07-01T12:18:18Z</time>
      </trkpt>
      <trkpt lat="50.680456012487411" lon="4.411890003830195">
        <ele>112.61</ele>
        <time>2018-07-01T12:18:26Z</time>
      </trkpt>
      <trkpt lat="50.681068981066346" lon="4.41162102855742">
        <ele>112.61</ele>
        <time>2018-07-01T12:18:33Z</time>
      </trkpt>
      <trkpt lat="50.682238005101681" lon="4.411049969494343">
        <ele>111.65000000000001</ele>
        <time>2018-07-01T12:18:41Z</time>
      </trkpt>
      <trkpt lat="50.683558993041515" lon="4.410433983430266">
        <ele>113.56999999999999</ele>
        <time>2018-07-01T12:18:50Z</time>
      </trkpt>
      <trkpt lat="50.684689963236451" lon="4.409909024834633">
        <ele>116.45999999999999</ele>
        <time>2018-07-01T12:19:00Z</time>
      </trkpt>
      <trkpt lat="50.685275020077825" lon="4.409638037905097">
        <ele>117.90000000000001</ele>
        <time>2018-07-01T12:19:06Z</time>
      </trkpt>
      <trkpt lat="50.685325982049108" lon="4.409611970186234">
        <ele>118.38</ele>
        <time>2018-07-01T12:19:07Z</time>
      </trkpt>
      <trkpt lat="50.685911038890481" lon="4.409320028498769">
        <ele>120.3</ele>
        <time>2018-07-01T12:19:16Z</time>
      </trkpt>
      <trkpt lat="50.685979016125202" lon="4.409285997971892">
        <ele>120.78</ele>
        <time>2018-07-01T12:19:17Z</time>
      </trkpt>
      <trkpt lat="50.686049005016685" lon="4.409258002415299">
        <ele>120.78</ele>
        <time>2018-07-01T12:19:18Z</time>
      </trkpt>
      <trkpt lat="50.686117988079786" lon="4.409235036000609">
        <ele>121.26000000000001</ele>
        <time>2018-07-01T12:19:19Z</time>
      </trkpt>
      <trkpt lat="50.686174985021353" lon="4.409205028787255">
        <ele>121.26000000000001</ele>
        <time>2018-07-01T12:19:20Z</time>
      </trkpt>
      <trkpt lat="50.686370031908154" lon="4.409122969955206">
        <ele>121.73999999999999</ele>
        <time>2018-07-01T12:19:23Z</time>
      </trkpt>
      <trkpt lat="50.686428034678102" lon="4.409092962741852">
        <ele>121.73999999999999</ele>
        <time>2018-07-01T12:19:24Z</time>
      </trkpt>
      <trkpt lat="50.686601037159562" lon="4.409006964415312">
        <ele>122.22</ele>
        <time>2018-07-01T12:19:27Z</time>
      </trkpt>
      <trkpt lat="50.686636995524168" lon="4.408989027142525">
        <ele>122.22</ele>
        <time>2018-07-01T12:19:28Z</time>
      </trkpt>
      <trkpt lat="50.686662979424" lon="4.408976035192609">
        <ele>122.22</ele>
        <time>2018-07-01T12:19:29Z</time>
      </trkpt>
      <trkpt lat="50.686714025214314" lon="4.409221960231662">
        <ele>122.70999999999999</ele>
        <time>2018-07-01T12:19:30Z</time>
      </trkpt>
      <trkpt lat="50.686739003285766" lon="4.409237969666719">
        <ele>122.70999999999999</ele>
        <time>2018-07-01T12:19:31Z</time>
      </trkpt>
      <trkpt lat="50.686773033812642" lon="4.40925900824368">
        <ele>122.70999999999999</ele>
        <time>2018-07-01T12:19:32Z</time>
      </trkpt>
      <trkpt lat="50.686816032975912" lon="4.409285997971892">
        <ele>123.19</ele>
        <time>2018-07-01T12:19:33Z</time>
      </trkpt>
      <trkpt lat="50.686865989118814" lon="4.409317011013627">
        <ele>123.19</ele>
        <time>2018-07-01T12:19:34Z</time>
      </trkpt>
      <trkpt lat="50.686918962746859" lon="4.409350035712123">
        <ele>123.19</ele>
        <time>2018-07-01T12:19:35Z</time>
      </trkpt>
      <trkpt lat="50.686970008537173" lon="4.409382976591587">
        <ele>123.67</ele>
        <time>2018-07-01T12:19:36Z</time>
      </trkpt>
      <trkpt lat="50.687016025185585" lon="4.40941097214818">
        <ele>123.19</ele>
        <time>2018-07-01T12:19:37Z</time>
      </trkpt>
      <trkpt lat="50.687034968286753" lon="4.409422958269715">
        <ele>123.19</ele>
        <time>2018-07-01T12:19:38Z</time>
      </trkpt>
      <trkpt lat="50.687148962169886" lon="4.40874201245606">
        <ele>122.22</ele>
        <time>2018-07-01T12:19:41Z</time>
      </trkpt>
      <trkpt lat="50.687218029052019" lon="4.408710999414325">
        <ele>122.22</ele>
        <time>2018-07-01T12:19:42Z</time>
      </trkpt>
      <trkpt lat="50.687298998236656" lon="4.408673029392958">
        <ele>122.70999999999999</ele>
        <time>2018-07-01T12:19:43Z</time>
      </trkpt>
      <trkpt lat="50.687389019876719" lon="4.408632041886449">
        <ele>122.70999999999999</ele>
        <time>2018-07-01T12:19:44Z</time>
      </trkpt>
      <trkpt lat="50.687473006546497" lon="4.408591976389289">
        <ele>122.70999999999999</ele>
        <time>2018-07-01T12:19:45Z</time>
      </trkpt>
      <trkpt lat="50.687551964074373" lon="4.408553000539541">
        <ele>122.70999999999999</ele>
        <time>2018-07-01T12:19:46Z</time>
      </trkpt>
      <trkpt lat="50.688193012028933" lon="4.408220993354917">
        <ele>122.22</ele>
        <time>2018-07-01T12:19:55Z</time>
      </trkpt>
      <trkpt lat="50.688778990879655" lon="4.407865013927221">
        <ele>121.26000000000001</ele>
        <time>2018-07-01T12:20:05Z</time>
      </trkpt>
      <trkpt lat="50.689273020252585" lon="4.40745497122407">
        <ele>119.81999999999999</ele>
        <time>2018-07-01T12:20:16Z</time>
      </trkpt>
      <trkpt lat="50.689437976107001" lon="4.407535018399358">
        <ele>119.81999999999999</ele>
        <time>2018-07-01T12:20:18Z</time>
      </trkpt>
      <trkpt lat="50.689560016617179" lon="4.407511968165636">
        <ele>119.34</ele>
        <time>2018-07-01T12:20:21Z</time>
      </trkpt>
      <trkpt lat="50.68960502743721" lon="4.407458994537592">
        <ele>119.34</ele>
        <time>2018-07-01T12:20:22Z</time>
      </trkpt>
      <trkpt lat="50.689631011337042" lon="4.407426975667477">
        <ele>118.86</ele>
        <time>2018-07-01T12:20:23Z</time>
      </trkpt>
      <trkpt lat="50.689631011337042" lon="4.407294038683176">
        <ele>118.86</ele>
        <time>2018-07-01T12:20:24Z</time>
      </trkpt>
      <trkpt lat="50.689631011337042" lon="4.407207034528256">
        <ele>118.86</ele>
        <time>2018-07-01T12:20:25Z</time>
      </trkpt>
      <trkpt lat="50.689720027148724" lon="4.407083988189697">
        <ele>118.38</ele>
        <time>2018-07-01T12:20:26Z</time>
      </trkpt>
      <trkpt lat="50.689782975241542" lon="4.407038977369666">
        <ele>118.38</ele>
        <time>2018-07-01T12:20:27Z</time>
      </trkpt>
      <trkpt lat="50.689855981618166" lon="4.406986003741622">
        <ele>117.90000000000001</ele>
        <time>2018-07-01T12:20:28Z</time>
      </trkpt>
      <trkpt lat="50.690824007615447" lon="4.406258035451174">
        <ele>117.90000000000001</ele>
        <time>2018-07-01T12:20:39Z</time>
      </trkpt>
      <trkpt lat="50.692181959748268" lon="4.405211973935366">
        <ele>116.45999999999999</ele>
        <time>2018-07-01T12:20:54Z</time>
      </trkpt>
      <trkpt lat="50.692516984418035" lon="4.404953978955746">
        <ele>115.5</ele>
        <time>2018-07-01T12:20:58Z</time>
      </trkpt>
      <trkpt lat="50.692600971087813" lon="4.404890025034547">
        <ele>115.5</ele>
        <time>2018-07-01T12:20:59Z</time>
      </trkpt>
      <trkpt lat="50.693700006231666" lon="4.404115034267306">
        <ele>116.94</ele>
        <time>2018-07-01T12:21:10Z</time>
      </trkpt>
      <trkpt lat="50.695029040798545" lon="4.403502987697721">
        <ele>117.42</ele>
        <time>2018-07-01T12:21:22Z</time>
      </trkpt>
      <trkpt lat="50.695783998817205" lon="4.403194030746818">
        <ele>117.42</ele>
        <time>2018-07-01T12:21:30Z</time>
      </trkpt>
      <trkpt lat="50.695874020457268" lon="4.40315798856318">
        <ele>117.90000000000001</ele>
        <time>2018-07-01T12:21:31Z</time>
      </trkpt>
      <trkpt lat="50.697028040885925" lon="4.402639986947179">
        <ele>119.34</ele>
        <time>2018-07-01T12:21:42Z</time>
      </trkpt>
      <trkpt lat="50.698408037424088" lon="4.40231996588409">
        <ele>119.34</ele>
        <time>2018-07-01T12:21:54Z</time>
      </trkpt>
      <trkpt lat="50.699505982920527" lon="4.402235979214311">
        <ele>118.86</ele>
        <time>2018-07-01T12:22:04Z</time>
      </trkpt>
      <trkpt lat="50.699608996510506" lon="4.40223497338593">
        <ele>118.86</ele>
        <time>2018-07-01T12:22:05Z</time>
      </trkpt>
      <trkpt lat="50.700148036703467" lon="4.402198009192944">
        <ele>119.81999999999999</ele>
        <time>2018-07-01T12:22:10Z</time>
      </trkpt>
      <trkpt lat="50.70024199783802" lon="4.402193985879421">
        <ele>119.34</ele>
        <time>2018-07-01T12:22:11Z</time>
      </trkpt>
      <trkpt lat="50.700661009177566" lon="4.402172025293112">
        <ele>118.86</ele>
        <time>2018-07-01T12:22:18Z</time>
      </trkpt>
      <trkpt lat="50.700674001127481" lon="4.402172025293112">
        <ele>118.86</ele>
        <time>2018-07-01T12:22:21Z</time>
      </trkpt>
      <trkpt lat="50.700704008340836" lon="4.402134977281094">
        <ele>119.34</ele>
        <time>2018-07-01T12:22:22Z</time>
      </trkpt>
      <trkpt lat="50.700707025825977" lon="4.40206297673285">
        <ele>119.34</ele>
        <time>2018-07-01T12:22:23Z</time>
      </trkpt>
      <trkpt lat="50.700709959492087" lon="4.40195401199162">
        <ele>119.34</ele>
        <time>2018-07-01T12:22:24Z</time>
      </trkpt>
      <trkpt lat="50.70071398280561" lon="4.401820991188288">
        <ele>119.81999999999999</ele>
        <time>2018-07-01T12:22:25Z</time>
      </trkpt>
      <trkpt lat="50.70073502138257" lon="4.401191007345915">
        <ele>119.81999999999999</ele>
        <time>2018-07-01T12:22:29Z</time>
      </trkpt>
      <trkpt lat="50.700823031365871" lon="4.39959199167788">
        <ele>117.90000000000001</ele>
        <time>2018-07-01T12:22:37Z</time>
      </trkpt>
      <trkpt lat="50.700946999713778" lon="4.39761302433908">
        <ele>115.5</ele>
        <time>2018-07-01T12:22:47Z</time>
      </trkpt>
      <trkpt lat="50.700954040512443" lon="4.39748402684927">
        <ele>115.5</ele>
        <time>2018-07-01T12:22:48Z</time>
      </trkpt>
      <trkpt lat="50.701061999425292" lon="4.397225026041269">
        <ele>115.01000000000001</ele>
        <time>2018-07-01T12:22:50Z</time>
      </trkpt>
      <trkpt lat="50.701046995818615" lon="4.397149002179503">
        <ele>115.5</ele>
        <time>2018-07-01T12:22:51Z</time>
      </trkpt>
      <trkpt lat="50.701016988605261" lon="4.396787993609905">
        <ele>115.01000000000001</ele>
        <time>2018-07-01T12:22:53Z</time>
      </trkpt>
      <trkpt lat="50.701039033010602" lon="4.396606022492051">
        <ele>115.01000000000001</ele>
        <time>2018-07-01T12:22:54Z</time>
      </trkpt>
      <trkpt lat="50.701064011082053" lon="4.396405024453998">
        <ele>115.5</ele>
        <time>2018-07-01T12:22:55Z</time>
      </trkpt>
      <trkpt lat="50.701094018295407" lon="4.396189022809267">
        <ele>115.5</ele>
        <time>2018-07-01T12:22:56Z</time>
      </trkpt>
      <trkpt lat="50.701158978044987" lon="4.395976960659027">
        <ele>115.01000000000001</ele>
        <time>2018-07-01T12:22:57Z</time>
      </trkpt>
      <trkpt lat="50.701225027441978" lon="4.395757019519806">
        <ele>115.01000000000001</ele>
        <time>2018-07-01T12:22:58Z</time>
      </trkpt>
      <trkpt lat="50.702021978795528" lon="4.393827002495527">
        <ele>115.98</ele>
        <time>2018-07-01T12:23:07Z</time>
      </trkpt>
      <trkpt lat="50.702731003984809" lon="4.39217702485621">
        <ele>118.86</ele>
        <time>2018-07-01T12:23:16Z</time>
      </trkpt>
      <trkpt lat="50.703397030010819" lon="4.390626959502697">
        <ele>119.81999999999999</ele>
        <time>2018-07-01T12:23:26Z</time>
      </trkpt>
      <trkpt lat="50.704165985807776" lon="4.388622008264065">
        <ele>120.3</ele>
        <time>2018-07-01T12:23:38Z</time>
      </trkpt>
      <trkpt lat="50.704854978248477" lon="4.386519994586706">
        <ele>120.78</ele>
        <time>2018-07-01T12:23:50Z</time>
      </trkpt>
      <trkpt lat="50.705125965178013" lon="4.385716002434492">
        <ele>119.34</ele>
        <time>2018-07-01T12:23:56Z</time>
      </trkpt>
      <trkpt lat="50.70516200736165" lon="4.385627992451191">
        <ele>119.34</ele>
        <time>2018-07-01T12:23:57Z</time>
      </trkpt>
      <trkpt lat="50.70531103760004" lon="4.385553980246186">
        <ele>118.86</ele>
        <time>2018-07-01T12:23:59Z</time>
      </trkpt>
      <trkpt lat="50.705381026491523" lon="4.385459013283253">
        <ele>118.38</ele>
        <time>2018-07-01T12:24:00Z</time>
      </trkpt>
      <trkpt lat="50.705381026491523" lon="4.38536899164319">
        <ele>118.38</ele>
        <time>2018-07-01T12:24:01Z</time>
      </trkpt>
      <trkpt lat="50.705326963216066" lon="4.385277964174748">
        <ele>117.90000000000001</ele>
        <time>2018-07-01T12:24:02Z</time>
      </trkpt>
      <trkpt lat="50.705316988751292" lon="4.385262038558722">
        <ele>117.90000000000001</ele>
        <time>2018-07-01T12:24:03Z</time>
      </trkpt>
      <trkpt lat="50.705209029838443" lon="4.385129017755389">
        <ele>117.90000000000001</ele>
        <time>2018-07-01T12:24:04Z</time>
      </trkpt>
      <trkpt lat="50.705187991261482" lon="4.385015023872256">
        <ele>117.90000000000001</ele>
        <time>2018-07-01T12:24:05Z</time>
      </trkpt>
      <trkpt lat="50.705163013190031" lon="4.384885020554066">
        <ele>117.90000000000001</ele>
        <time>2018-07-01T12:24:06Z</time>
      </trkpt>
      <trkpt lat="50.705135017633438" lon="4.384741019457579">
        <ele>117.90000000000001</ele>
        <time>2018-07-01T12:24:07Z</time>
      </trkpt>
      <trkpt lat="50.705116996541619" lon="4.384582014754415">
        <ele>117.90000000000001</ele>
        <time>2018-07-01T12:24:08Z</time>
      </trkpt>
      <trkpt lat="50.705107022076845" lon="4.384413035586476">
        <ele>117.90000000000001</ele>
        <time>2018-07-01T12:24:09Z</time>
      </trkpt>
      <trkpt lat="50.705017000436783" lon="4.383002026006579">
        <ele>117.42</ele>
        <time>2018-07-01T12:24:16Z</time>
      </trkpt>
      <trkpt lat="50.705003002658486" lon="4.382783006876707">
        <ele>117.90000000000001</ele>
        <time>2018-07-01T12:24:17Z</time>
      </trkpt>
      <trkpt lat="50.70481801405549" lon="4.380353009328246">
        <ele>119.81999999999999</ele>
        <time>2018-07-01T12:24:29Z</time>
      </trkpt>
      <trkpt lat="50.704566976055503" lon="4.377509029582143">
        <ele>117.42</ele>
        <time>2018-07-01T12:24:43Z</time>
      </trkpt>
      <trkpt lat="50.704524982720613" lon="4.37733200378716">
        <ele>116.94</ele>
        <time>2018-07-01T12:24:44Z</time>
      </trkpt>
      <trkpt lat="50.704478966072202" lon="4.377149026840925">
        <ele>116.94</ele>
        <time>2018-07-01T12:24:45Z</time>
      </trkpt>
      <trkpt lat="50.704433033242822" lon="4.376964960247278">
        <ele>116.45999999999999</ele>
        <time>2018-07-01T12:24:46Z</time>
      </trkpt>
      <trkpt lat="50.70438701659441" lon="4.376785000786185">
        <ele>115.98</ele>
        <time>2018-07-01T12:24:47Z</time>
      </trkpt>
      <trkpt lat="50.703664999455214" lon="4.375214986503124">
        <ele>113.56999999999999</ele>
        <time>2018-07-01T12:24:57Z</time>
      </trkpt>
      <trkpt lat="50.702972989529371" lon="4.373724013566971">
        <ele>114.05</ele>
        <time>2018-07-01T12:25:06Z</time>
      </trkpt>
      <trkpt lat="50.702835023403168" lon="4.373403992503882">
        <ele>113.56999999999999</ele>
        <time>2018-07-01T12:25:08Z</time>
      </trkpt>
      <trkpt lat="50.70277601480484" lon="4.373239036649466">
        <ele>113.56999999999999</ele>
        <time>2018-07-01T12:25:09Z</time>
      </trkpt>
      <trkpt lat="50.702713988721371" lon="4.373067962005734">
        <ele>113.09</ele>
        <time>2018-07-01T12:25:10Z</time>
      </trkpt>
      <trkpt lat="50.702613992616534" lon="4.372707037255168">
        <ele>112.61</ele>
        <time>2018-07-01T12:25:12Z</time>
      </trkpt>
      <trkpt lat="50.702096996828914" lon="4.370599994435906">
        <ele>109.25</ele>
        <time>2018-07-01T12:25:23Z</time>
      </trkpt>
      <trkpt lat="50.701677985489368" lon="4.368957979604602">
        <ele>105.88</ele>
        <time>2018-07-01T12:25:31Z</time>
      </trkpt>
      <trkpt lat="50.701619982719421" lon="4.368749018758535">
        <ele>105.40000000000001</ele>
        <time>2018-07-01T12:25:32Z</time>
      </trkpt>
      <trkpt lat="50.701562985777855" lon="4.368541985750198">
        <ele>104.44</ele>
        <time>2018-07-01T12:25:33Z</time>
      </trkpt>
      <trkpt lat="50.700962003320456" lon="4.36656896956265">
        <ele>97.230000000000004</ele>
        <time>2018-07-01T12:25:43Z</time>
      </trkpt>
      <trkpt lat="50.700323972851038" lon="4.36454800888896">
        <ele>88.579999999999998</ele>
        <time>2018-07-01T12:25:55Z</time>
      </trkpt>
      <trkpt lat="50.699842013418674" lon="4.362955028191209">
        <ele>80.409999999999997</ele>
        <time>2018-07-01T12:26:05Z</time>
      </trkpt>
      <trkpt lat="50.699690971523523" lon="4.36248698271811">
        <ele>78</ele>
        <time>2018-07-01T12:26:09Z</time>
      </trkpt>
      <trkpt lat="50.699664987623692" lon="4.362408025190234">
        <ele>77.519999999999996</ele>
        <time>2018-07-01T12:26:10Z</time>
      </trkpt>
      <trkpt lat="50.699673034250736" lon="4.362172996625304">
        <ele>76.560000000000002</ele>
        <time>2018-07-01T12:26:12Z</time>
      </trkpt>
      <trkpt lat="50.69966297596693" lon="4.362088004127145">
        <ele>76.079999999999998</ele>
        <time>2018-07-01T12:26:13Z</time>
      </trkpt>
      <trkpt lat="50.699606984853745" lon="4.36197099275887">
        <ele>76.079999999999998</ele>
        <time>2018-07-01T12:26:14Z</time>
      </trkpt>
      <trkpt lat="50.699536995962262" lon="4.361924976110458">
        <ele>75.599999999999994</ele>
        <time>2018-07-01T12:26:15Z</time>
      </trkpt>
      <trkpt lat="50.699485028162599" lon="4.361809976398945">
        <ele>75.120000000000005</ele>
        <time>2018-07-01T12:26:16Z</time>
      </trkpt>
      <trkpt lat="50.699443034827709" lon="4.361693970859051">
        <ele>75.120000000000005</ele>
        <time>2018-07-01T12:26:17Z</time>
      </trkpt>
      <trkpt lat="50.699414033442736" lon="4.361576959490776">
        <ele>74.159999999999997</ele>
        <time>2018-07-01T12:26:18Z</time>
      </trkpt>
      <trkpt lat="50.699387965723872" lon="4.361459026113153">
        <ele>73.680000000000007</ele>
        <time>2018-07-01T12:26:19Z</time>
      </trkpt>
      <trkpt lat="50.69936198182404" lon="4.361341008916497">
        <ele>73.200000000000003</ele>
        <time>2018-07-01T12:26:20Z</time>
      </trkpt>
      <trkpt lat="50.699330968782306" lon="4.361220980063081">
        <ele>73.200000000000003</ele>
        <time>2018-07-01T12:26:21Z</time>
      </trkpt>
      <trkpt lat="50.699299033731222" lon="4.361103968694806">
        <ele>73.200000000000003</ele>
        <time>2018-07-01T12:26:22Z</time>
      </trkpt>
      <trkpt lat="50.699265003204346" lon="4.36098100617528">
        <ele>73.200000000000003</ele>
        <time>2018-07-01T12:26:23Z</time>
      </trkpt>
      <trkpt lat="50.699228961020708" lon="4.36085200868547">
        <ele>73.200000000000003</ele>
        <time>2018-07-01T12:26:24Z</time>
      </trkpt>
      <trkpt lat="50.699191996827722" lon="4.360718987882137">
        <ele>73.200000000000003</ele>
        <time>2018-07-01T12:26:25Z</time>
      </trkpt>
      <trkpt lat="50.698998961597681" lon="4.359982972964644">
        <ele>74.159999999999997</ele>
        <time>2018-07-01T12:26:31Z</time>
      </trkpt>
      <trkpt lat="50.69897498935461" lon="4.359876019880176">
        <ele>74.159999999999997</ele>
        <time>2018-07-01T12:26:32Z</time>
      </trkpt>
      <trkpt lat="50.698671983554959" lon="4.358686963096261">
        <ele>76.079999999999998</ele>
        <time>2018-07-01T12:26:40Z</time>
      </trkpt>
      <trkpt lat="50.698236040771008" lon="4.356669019907713">
        <ele>78</ele>
        <time>2018-07-01T12:26:51Z</time>
      </trkpt>
      <trkpt lat="50.697634974494576" lon="4.353975998237729">
        <ele>76.560000000000002</ele>
        <time>2018-07-01T12:27:05Z</time>
      </trkpt>
      <trkpt lat="50.697328029200435" lon="4.351955037564039">
        <ele>76.079999999999998</ele>
        <time>2018-07-01T12:27:13Z</time>
      </trkpt>
      <trkpt lat="50.697090988978744" lon="4.349493021145463">
        <ele>78.480000000000004</ele>
        <time>2018-07-01T12:27:24Z</time>
      </trkpt>
      <trkpt lat="50.697059975937009" lon="4.349286993965507">
        <ele>78.480000000000004</ele>
        <time>2018-07-01T12:27:25Z</time>
      </trkpt>
      <trkpt lat="50.697001973167062" lon="4.349103011190891">
        <ele>78.969999999999999</ele>
        <time>2018-07-01T12:27:26Z</time>
      </trkpt>
      <trkpt lat="50.696937013417482" lon="4.348915005102754">
        <ele>79.450000000000003</ele>
        <time>2018-07-01T12:27:27Z</time>
      </trkpt>
      <trkpt lat="50.696871969848871" lon="4.348731022328138">
        <ele>79.450000000000003</ele>
        <time>2018-07-01T12:27:28Z</time>
      </trkpt>
      <trkpt lat="50.696809021756053" lon="4.348548967391253">
        <ele>79.450000000000003</ele>
        <time>2018-07-01T12:27:29Z</time>
      </trkpt>
      <trkpt lat="50.696734003722668" lon="4.348332965746522">
        <ele>79.930000000000007</ele>
        <time>2018-07-01T12:27:30Z</time>
      </trkpt>
      <trkpt lat="50.69667499512434" lon="4.348186030983925">
        <ele>79.930000000000007</ele>
        <time>2018-07-01T12:27:31Z</time>
      </trkpt>
      <trkpt lat="50.696483971551061" lon="4.347679009661079">
        <ele>79.930000000000007</ele>
        <time>2018-07-01T12:27:34Z</time>
      </trkpt>
      <trkpt lat="50.696438038721681" lon="4.347494021058083">
        <ele>79.450000000000003</ele>
        <time>2018-07-01T12:27:35Z</time>
      </trkpt>
      <trkpt lat="50.696392022073269" lon="4.347310038283467">
        <ele>79.930000000000007</ele>
        <time>2018-07-01T12:27:36Z</time>
      </trkpt>
      <trkpt lat="50.696358997374773" lon="4.347118008881807">
        <ele>79.450000000000003</ele>
        <time>2018-07-01T12:27:37Z</time>
      </trkpt>
      <trkpt lat="50.696337036788464" lon="4.346908964216709">
        <ele>78.480000000000004</ele>
        <time>2018-07-01T12:27:38Z</time>
      </trkpt>
      <trkpt lat="50.696314992383122" lon="4.34669598005712">
        <ele>78</ele>
        <time>2018-07-01T12:27:39Z</time>
      </trkpt>
      <trkpt lat="50.696034030988812" lon="4.34413799084723">
        <ele>72.239999999999995</ele>
        <time>2018-07-01T12:27:51Z</time>
      </trkpt>
      <trkpt lat="50.695799002423882" lon="4.341932041570544">
        <ele>71.760000000000005</ele>
        <time>2018-07-01T12:28:00Z</time>
      </trkpt>
      <trkpt lat="50.695403963327408" lon="4.339896999299526">
        <ele>71.760000000000005</ele>
        <time>2018-07-01T12:28:09Z</time>
      </trkpt>
      <trkpt lat="50.694917980581522" lon="4.337657019495964">
        <ele>71.760000000000005</ele>
        <time>2018-07-01T12:28:20Z</time>
      </trkpt>
      <trkpt lat="50.694271987304091" lon="4.334735004231334">
        <ele>73.680000000000007</ele>
        <time>2018-07-01T12:28:34Z</time>
      </trkpt>
      <trkpt lat="50.693572014570236" lon="4.331876020878553">
        <ele>71.269999999999996</ele>
        <time>2018-07-01T12:28:47Z</time>
      </trkpt>
      <trkpt lat="50.692555038258433" lon="4.328395016491413">
        <ele>68.390000000000001</ele>
        <time>2018-07-01T12:29:01Z</time>
      </trkpt>
      <trkpt lat="50.69145399145782" lon="4.324629027396441">
        <ele>65.030000000000001</ele>
        <time>2018-07-01T12:29:17Z</time>
      </trkpt>
      <trkpt lat="50.691050989553332" lon="4.323277026414871">
        <ele>65.989999999999995</ele>
        <time>2018-07-01T12:29:24Z</time>
      </trkpt>
      <trkpt lat="50.690934984013438" lon="4.322890033945441">
        <ele>64.549999999999997</ele>
        <time>2018-07-01T12:29:31Z</time>
      </trkpt>
      <trkpt lat="50.690934984013438" lon="4.322890033945441">
        <ele>63.579999999999998</ele>
        <time>2018-07-01T12:29:46Z</time>
      </trkpt>
      <trkpt lat="50.690828030928969" lon="4.322532964870334">
        <ele>63.579999999999998</ele>
        <time>2018-07-01T12:30:04Z</time>
      </trkpt>
      <trkpt lat="50.69050800986588" lon="4.321410041302443">
        <ele>63.100000000000001</ele>
        <time>2018-07-01T12:30:11Z</time>
      </trkpt>
      <trkpt lat="50.689933011308312" lon="4.319448005408049">
        <ele>64.069999999999993</ele>
        <time>2018-07-01T12:30:20Z</time>
      </trkpt>
      <trkpt lat="50.689209988340735" lon="4.316948018968105">
        <ele>68.870000000000005</ele>
        <time>2018-07-01T12:30:32Z</time>
      </trkpt>
      <trkpt lat="50.688500041142106" lon="4.314449960365892">
        <ele>71.269999999999996</ele>
        <time>2018-07-01T12:30:43Z</time>
      </trkpt>
      <trkpt lat="50.688087986782193" lon="4.312998969107866">
        <ele>72.239999999999995</ele>
        <time>2018-07-01T12:30:51Z</time>
      </trkpt>
      <trkpt lat="50.687955971807241" lon="4.312535030767322">
        <ele>74.159999999999997</ele>
        <time>2018-07-01T12:30:54Z</time>
      </trkpt>
      <trkpt lat="50.687913978472352" lon="4.312387006357312">
        <ele>75.120000000000005</ele>
        <time>2018-07-01T12:30:55Z</time>
      </trkpt>
      <trkpt lat="50.687421038746834" lon="4.310652958229184">
        <ele>75.120000000000005</ele>
        <time>2018-07-01T12:31:06Z</time>
      </trkpt>
      <trkpt lat="50.686814021319151" lon="4.308563014492393">
        <ele>72.239999999999995</ele>
        <time>2018-07-01T12:31:19Z</time>
      </trkpt>
      <trkpt lat="50.686154030263424" lon="4.306267965584993">
        <ele>73.200000000000003</ele>
        <time>2018-07-01T12:31:33Z</time>
      </trkpt>
      <trkpt lat="50.68610499612987" lon="4.306106027215719">
        <ele>72.719999999999999</ele>
        <time>2018-07-01T12:31:34Z</time>
      </trkpt>
      <trkpt lat="50.685735018923879" lon="4.304790990427136">
        <ele>69.829999999999998</ele>
        <time>2018-07-01T12:31:42Z</time>
      </trkpt>
      <trkpt lat="50.685689002275467" lon="4.304618993774056">
        <ele>69.829999999999998</ele>
        <time>2018-07-01T12:31:43Z</time>
      </trkpt>
      <trkpt lat="50.685175023972988" lon="4.302860973402858">
        <ele>68.390000000000001</ele>
        <time>2018-07-01T12:31:53Z</time>
      </trkpt>
      <trkpt lat="50.684781996533275" lon="4.301377041265369">
        <ele>68.870000000000005</ele>
        <time>2018-07-01T12:32:03Z</time>
      </trkpt>
      <trkpt lat="50.684410007670522" lon="4.300196031108499">
        <ele>69.349999999999994</ele>
        <time>2018-07-01T12:32:10Z</time>
      </trkpt>
      <trkpt lat="50.684361979365349" lon="4.300035014748573">
        <ele>69.349999999999994</ele>
        <time>2018-07-01T12:32:11Z</time>
      </trkpt>
      <trkpt lat="50.683896029368043" lon="4.298359975218773">
        <ele>70.310000000000002</ele>
        <time>2018-07-01T12:32:21Z</time>
      </trkpt>
      <trkpt lat="50.683635016903281" lon="4.296585023403168">
        <ele>70.790000000000006</ele>
        <time>2018-07-01T12:32:31Z</time>
      </trkpt>
      <trkpt lat="50.683328993618488" lon="4.294640002772212">
        <ele>66.469999999999999</ele>
        <time>2018-07-01T12:32:41Z</time>
      </trkpt>
      <trkpt lat="50.682840999215841" lon="4.292595991864801">
        <ele>62.140000000000001</ele>
        <time>2018-07-01T12:32:51Z</time>
      </trkpt>
      <trkpt lat="50.682789031416178" lon="4.292374961078167">
        <ele>61.659999999999997</ele>
        <time>2018-07-01T12:32:52Z</time>
      </trkpt>
      <trkpt lat="50.682732034474611" lon="4.292138004675508">
        <ele>62.140000000000001</ele>
        <time>2018-07-01T12:32:53Z</time>
      </trkpt>
      <trkpt lat="50.682675959542394" lon="4.291882021352649">
        <ele>62.140000000000001</ele>
        <time>2018-07-01T12:32:54Z</time>
      </trkpt>
      <trkpt lat="50.68262399174273" lon="4.291609022766352">
        <ele>62.140000000000001</ele>
        <time>2018-07-01T12:32:55Z</time>
      </trkpt>
      <trkpt lat="50.682572023943067" lon="4.291338035836816">
        <ele>62.140000000000001</ele>
        <time>2018-07-01T12:32:56Z</time>
      </trkpt>
      <trkpt lat="50.68249398842454" lon="4.289373988285661">
        <ele>61.18</ele>
        <time>2018-07-01T12:33:03Z</time>
      </trkpt>
      <trkpt lat="50.68266598507762" lon="4.287949986755848">
        <ele>60.700000000000003</ele>
        <time>2018-07-01T12:33:08Z</time>
      </trkpt>
      <trkpt lat="50.68270898424089" lon="4.287678999826312">
        <ele>60.700000000000003</ele>
        <time>2018-07-01T12:33:09Z</time>
      </trkpt>
      <trkpt lat="50.683088013902307" lon="4.285251013934612">
        <ele>58.780000000000001</ele>
        <time>2018-07-01T12:33:19Z</time>
      </trkpt>
      <trkpt lat="50.683553963899612" lon="4.282255992293358">
        <ele>55.890000000000001</ele>
        <time>2018-07-01T12:33:32Z</time>
      </trkpt>
      <trkpt lat="50.683936011046171" lon="4.27976899780333">
        <ele>54.93</ele>
        <time>2018-07-01T12:33:42Z</time>
      </trkpt>
      <trkpt lat="50.684118987992406" lon="4.277675030753017">
        <ele>54.93</ele>
        <time>2018-07-01T12:33:51Z</time>
      </trkpt>
      <trkpt lat="50.68393399938941" lon="4.276055982336402">
        <ele>55.409999999999997</ele>
        <time>2018-07-01T12:33:58Z</time>
      </trkpt>
      <trkpt lat="50.683886976912618" lon="4.275832017883658">
        <ele>56.369999999999997</ele>
        <time>2018-07-01T12:33:59Z</time>
      </trkpt>
      <trkpt lat="50.683401999995112" lon="4.273819020017982">
        <ele>57.340000000000003</ele>
        <time>2018-07-01T12:34:10Z</time>
      </trkpt>
      <trkpt lat="50.683338968083262" lon="4.273563036695123">
        <ele>57.82</ele>
        <time>2018-07-01T12:34:12Z</time>
      </trkpt>
      <trkpt lat="50.683317007496953" lon="4.27347200922668">
        <ele>58.780000000000001</ele>
        <time>2018-07-01T12:34:13Z</time>
      </trkpt>
      <trkpt lat="50.683299992233515" lon="4.273405959829688">
        <ele>59.259999999999998</ele>
        <time>2018-07-01T12:34:14Z</time>
      </trkpt>
      <trkpt lat="50.683288006111979" lon="4.273354997858405">
        <ele>59.740000000000002</ele>
        <time>2018-07-01T12:34:15Z</time>
      </trkpt>
      <trkpt lat="50.683278031647205" lon="4.273316022008658">
        <ele>60.219999999999999</ele>
        <time>2018-07-01T12:34:16Z</time>
      </trkpt>
      <trkpt lat="50.683271996676922" lon="4.273290038108826">
        <ele>60.700000000000003</ele>
        <time>2018-07-01T12:34:17Z</time>
      </trkpt>
      <trkpt lat="50.683271996676922" lon="4.273290038108826">
        <ele>61.659999999999997</ele>
        <time>2018-07-01T12:34:30Z</time>
      </trkpt>
      <trkpt lat="50.683177029713988" lon="4.272904973477125">
        <ele>64.069999999999993</ele>
        <time>2018-07-01T12:34:40Z</time>
      </trkpt>
      <trkpt lat="50.683218017220497" lon="4.272776981815696">
        <ele>64.069999999999993</ele>
        <time>2018-07-01T12:34:41Z</time>
      </trkpt>
      <trkpt lat="50.683265039697289" lon="4.272758960723877">
        <ele>64.069999999999993</ele>
        <time>2018-07-01T12:34:42Z</time>
      </trkpt>
      <trkpt lat="50.683874990791082" lon="4.272448997944593">
        <ele>65.510000000000005</ele>
        <time>2018-07-01T12:34:49Z</time>
      </trkpt>
      <trkpt lat="50.685066981241107" lon="4.271804010495544">
        <ele>65.510000000000005</ele>
        <time>2018-07-01T12:34:59Z</time>
      </trkpt>
      <trkpt lat="50.686329966410995" lon="4.271116023883224">
        <ele>65.989999999999995</ele>
        <time>2018-07-01T12:35:08Z</time>
      </trkpt>
      <trkpt lat="50.687531009316444" lon="4.270587963983417">
        <ele>70.790000000000006</ele>
        <time>2018-07-01T12:35:15Z</time>
      </trkpt>
      <trkpt lat="50.68943202495575" lon="4.269909029826522">
        <ele>83.769999999999996</ele>
        <time>2018-07-01T12:35:24Z</time>
      </trkpt>
      <trkpt lat="50.692214984446764" lon="4.268933963030577">
        <ele>103.48</ele>
        <time>2018-07-01T12:35:37Z</time>
      </trkpt>
      <trkpt lat="50.693571008741856" lon="4.268442029133439">
        <ele>110.69</ele>
        <time>2018-07-01T12:35:44Z</time>
      </trkpt>
      <trkpt lat="50.695068016648293" lon="4.267913969233632">
        <ele>118.86</ele>
        <time>2018-07-01T12:35:53Z</time>
      </trkpt>
      <trkpt lat="50.696685975417495" lon="4.267126992344856">
        <ele>122.70999999999999</ele>
        <time>2018-07-01T12:36:03Z</time>
      </trkpt>
      <trkpt lat="50.698385993018746" lon="4.26575998775661">
        <ele>118.38</ele>
        <time>2018-07-01T12:36:13Z</time>
      </trkpt>
      <trkpt lat="50.700232023373246" lon="4.26419097930193">
        <ele>113.09</ele>
        <time>2018-07-01T12:36:25Z</time>
      </trkpt>
      <trkpt lat="50.702350968495011" lon="4.262371016666293">
        <ele>112.13</ele>
        <time>2018-07-01T12:36:39Z</time>
      </trkpt>
      <trkpt lat="50.704252989962697" lon="4.261207021772862">
        <ele>116.94</ele>
        <time>2018-07-01T12:36:50Z</time>
      </trkpt>
      <trkpt lat="50.706841992214322" lon="4.259853009134531">
        <ele>123.67</ele>
        <time>2018-07-01T12:37:05Z</time>
      </trkpt>
      <trkpt lat="50.708523988723755" lon="4.258895963430405">
        <ele>119.81999999999999</ele>
        <time>2018-07-01T12:37:16Z</time>
      </trkpt>
      <trkpt lat="50.709194038063288" lon="4.258551970124245">
        <ele>118.86</ele>
        <time>2018-07-01T12:37:20Z</time>
      </trkpt>
      <trkpt lat="50.710362978279591" lon="4.258264973759651">
        <ele>114.53</ele>
        <time>2018-07-01T12:37:28Z</time>
      </trkpt>
      <trkpt lat="50.711487997323275" lon="4.258036985993385">
        <ele>109.25</ele>
        <time>2018-07-01T12:37:38Z</time>
      </trkpt>
      <trkpt lat="50.71268099360168" lon="4.257632978260517">
        <ele>103</ele>
        <time>2018-07-01T12:37:47Z</time>
      </trkpt>
      <trkpt lat="50.712929014116526" lon="4.257510015740991">
        <ele>102.04000000000001</ele>
        <time>2018-07-01T12:37:49Z</time>
      </trkpt>
      <trkpt lat="50.713047031313181" lon="4.257452012971044">
        <ele>102.04000000000001</ele>
        <time>2018-07-01T12:37:50Z</time>
      </trkpt>
      <trkpt lat="50.713543994352221" lon="4.25720700994134">
        <ele>99.150000000000006</ele>
        <time>2018-07-01T12:37:55Z</time>
      </trkpt>
      <trkpt lat="50.713640972971916" lon="4.257158981636167">
        <ele>97.709999999999994</ele>
        <time>2018-07-01T12:37:56Z</time>
      </trkpt>
      <trkpt lat="50.713745998218656" lon="4.257107013836503">
        <ele>96.269999999999996</ele>
        <time>2018-07-01T12:37:57Z</time>
      </trkpt>
      <trkpt lat="50.713851023465395" lon="4.257053034380078">
        <ele>95.310000000000002</ele>
        <time>2018-07-01T12:37:58Z</time>
      </trkpt>
      <trkpt lat="50.713953031226993" lon="4.256997965276241">
        <ele>93.870000000000005</ele>
        <time>2018-07-01T12:37:59Z</time>
      </trkpt>
      <trkpt lat="50.714857019484043" lon="4.256516005843878">
        <ele>84.730000000000004</ele>
        <time>2018-07-01T12:38:09Z</time>
      </trkpt>
      <trkpt lat="50.71592403575778" lon="4.255931032821536">
        <ele>77.040000000000006</ele>
        <time>2018-07-01T12:38:20Z</time>
      </trkpt>
      <trkpt lat="50.716781001538038" lon="4.255460975691676">
        <ele>73.680000000000007</ele>
        <time>2018-07-01T12:38:30Z</time>
      </trkpt>
      <trkpt lat="50.716854007914662" lon="4.255421999841929">
        <ele>73.200000000000003</ele>
        <time>2018-07-01T12:38:32Z</time>
      </trkpt>
      <trkpt lat="50.716889966279268" lon="4.255401967093349">
        <ele>72.719999999999999</ele>
        <time>2018-07-01T12:38:33Z</time>
      </trkpt>
      <trkpt lat="50.717366980388761" lon="4.255140032619238">
        <ele>70.310000000000002</ele>
        <time>2018-07-01T12:38:40Z</time>
      </trkpt>
      <trkpt lat="50.717681972309947" lon="4.254965018481016">
        <ele>68.390000000000001</ele>
        <time>2018-07-01T12:38:43Z</time>
      </trkpt>
      <trkpt lat="50.718388985842466" lon="4.25426403991878">
        <ele>66.469999999999999</ele>
        <time>2018-07-01T12:38:50Z</time>
      </trkpt>
      <trkpt lat="50.719028022140265" lon="4.253430040553212">
        <ele>65.030000000000001</ele>
        <time>2018-07-01T12:38:58Z</time>
      </trkpt>
      <trkpt lat="50.719102034345269" lon="4.25334102474153">
        <ele>64.069999999999993</ele>
        <time>2018-07-01T12:38:59Z</time>
      </trkpt>
      <trkpt lat="50.719495983794332" lon="4.25286702811718">
        <ele>59.740000000000002</ele>
        <time>2018-07-01T12:39:05Z</time>
      </trkpt>
      <trkpt lat="50.719545017927885" lon="4.25280399620533">
        <ele>59.259999999999998</ele>
        <time>2018-07-01T12:39:06Z</time>
      </trkpt>
      <trkpt lat="50.719595979899168" lon="4.252739036455751">
        <ele>58.780000000000001</ele>
        <time>2018-07-01T12:39:07Z</time>
      </trkpt>
      <trkpt lat="50.719766970723867" lon="4.252490010112524">
        <ele>57.82</ele>
        <time>2018-07-01T12:39:10Z</time>
      </trkpt>
      <trkpt lat="50.719833020120859" lon="4.252398982644081">
        <ele>57.340000000000003</ele>
        <time>2018-07-01T12:39:11Z</time>
      </trkpt>
      <trkpt lat="50.720036029815674" lon="4.252147022634745">
        <ele>57.340000000000003</ele>
        <time>2018-07-01T12:39:14Z</time>
      </trkpt>
      <trkpt lat="50.720106018707156" lon="4.252060018479824">
        <ele>57.340000000000003</ele>
        <time>2018-07-01T12:39:15Z</time>
      </trkpt>
      <trkpt lat="50.7201780192554" lon="4.251969996839762">
        <ele>57.340000000000003</ele>
        <time>2018-07-01T12:39:16Z</time>
      </trkpt>
      <trkpt lat="50.720251025632024" lon="4.251879975199699">
        <ele>56.859999999999999</ele>
        <time>2018-07-01T12:39:17Z</time>
      </trkpt>
      <trkpt lat="50.720320008695126" lon="4.251793976873159">
        <ele>57.340000000000003</ele>
        <time>2018-07-01T12:39:18Z</time>
      </trkpt>
      <trkpt lat="50.720385974273086" lon="4.251709990203381">
        <ele>58.299999999999997</ele>
        <time>2018-07-01T12:39:19Z</time>
      </trkpt>
      <trkpt lat="50.720449006184936" lon="4.251630026847124">
        <ele>58.780000000000001</ele>
        <time>2018-07-01T12:39:20Z</time>
      </trkpt>
      <trkpt lat="50.720569035038352" lon="4.251474961638451">
        <ele>59.740000000000002</ele>
        <time>2018-07-01T12:39:22Z</time>
      </trkpt>
      <trkpt lat="50.720627037808299" lon="4.251399021595717">
        <ele>59.740000000000002</ele>
        <time>2018-07-01T12:39:23Z</time>
      </trkpt>
      <trkpt lat="50.720875980332494" lon="4.251077994704247">
        <ele>60.700000000000003</ele>
        <time>2018-07-01T12:39:28Z</time>
      </trkpt>
      <trkpt lat="50.720911016687751" lon="4.251032983884215">
        <ele>60.700000000000003</ele>
        <time>2018-07-01T12:39:29Z</time>
      </trkpt>
      <trkpt lat="50.721096005290747" lon="4.250795021653175">
        <ele>61.18</ele>
        <time>2018-07-01T12:39:40Z</time>
      </trkpt>
      <trkpt lat="50.721203964203596" lon="4.25065697170794">
        <ele>65.030000000000001</ele>
        <time>2018-07-01T12:40:15Z</time>
      </trkpt>
      <trkpt lat="50.721431029960513" lon="4.250356983393431">
        <ele>66.950000000000003</ele>
        <time>2018-07-01T12:40:22Z</time>
      </trkpt>
      <trkpt lat="50.721494983881712" lon="4.2501600086689">
        <ele>66.950000000000003</ele>
        <time>2018-07-01T12:40:23Z</time>
      </trkpt>
      <trkpt lat="50.721450978890061" lon="4.250068981200457">
        <ele>66.469999999999999</ele>
        <time>2018-07-01T12:40:25Z</time>
      </trkpt>
      <trkpt lat="50.721414014697075" lon="4.249992035329342">
        <ele>66.469999999999999</ele>
        <time>2018-07-01T12:40:26Z</time>
      </trkpt>
      <trkpt lat="50.721363974735141" lon="4.249887010082603">
        <ele>65.989999999999995</ele>
        <time>2018-07-01T12:40:27Z</time>
      </trkpt>
      <trkpt lat="50.720887966454029" lon="4.248818987980485">
        <ele>66.469999999999999</ele>
        <time>2018-07-01T12:40:33Z</time>
      </trkpt>
      <trkpt lat="50.720359990373254" lon="4.246672969311476">
        <ele>68.870000000000005</ele>
        <time>2018-07-01T12:40:42Z</time>
      </trkpt>
      <trkpt lat="50.720311962068081" lon="4.244324024766684">
        <ele>66.469999999999999</ele>
        <time>2018-07-01T12:40:50Z</time>
      </trkpt>
      <trkpt lat="50.720685962587595" lon="4.242305997759104">
        <ele>60.700000000000003</ele>
        <time>2018-07-01T12:40:57Z</time>
      </trkpt>
      <trkpt lat="50.721478974446654" lon="4.23969897441566">
        <ele>53.969999999999999</ele>
        <time>2018-07-01T12:41:08Z</time>
      </trkpt>
      <trkpt lat="50.722310962155461" lon="4.237507022917271">
        <ele>47.240000000000002</ele>
        <time>2018-07-01T12:41:16Z</time>
      </trkpt>
      <trkpt lat="50.723311007022858" lon="4.23486596904695">
        <ele>40.990000000000002</ele>
        <time>2018-07-01T12:41:26Z</time>
      </trkpt>
      <trkpt lat="50.724494028836489" lon="4.231688976287842">
        <ele>41.469999999999999</ele>
        <time>2018-07-01T12:41:39Z</time>
      </trkpt>
      <trkpt lat="50.725415032356977" lon="4.229645971208811">
        <ele>43.399999999999999</ele>
        <time>2018-07-01T12:41:49Z</time>
      </trkpt>
      <trkpt lat="50.725991958752275" lon="4.229070972651243">
        <ele>39.549999999999997</ele>
        <time>2018-07-01T12:41:54Z</time>
      </trkpt>
      <trkpt lat="50.726107964292169" lon="4.22899997793138">
        <ele>38.109999999999999</ele>
        <time>2018-07-01T12:41:55Z</time>
      </trkpt>
      <trkpt lat="50.726218018680811" lon="4.228966031223536">
        <ele>36.670000000000002</ele>
        <time>2018-07-01T12:41:56Z</time>
      </trkpt>
      <trkpt lat="50.726438965648413" lon="4.228895036503673">
        <ele>32.82</ele>
        <time>2018-07-01T12:41:59Z</time>
      </trkpt>
      <trkpt lat="50.726667959243059" lon="4.228748017922044">
        <ele>26.09</ele>
        <time>2018-07-01T12:42:05Z</time>
      </trkpt>
      <trkpt lat="50.726762004196644" lon="4.228706024587154">
        <ele>25.129999999999999</ele>
        <time>2018-07-01T12:42:06Z</time>
      </trkpt>
      <trkpt lat="50.726849008351564" lon="4.228706024587154">
        <ele>24.170000000000002</ele>
        <time>2018-07-01T12:42:07Z</time>
      </trkpt>
      <trkpt lat="50.727129969745874" lon="4.228739971294999">
        <ele>24.649999999999999</ele>
        <time>2018-07-01T12:42:10Z</time>
      </trkpt>
      <trkpt lat="50.727211022749543" lon="4.228749023750424">
        <ele>26.57</ele>
        <time>2018-07-01T12:42:11Z</time>
      </trkpt>
      <trkpt lat="50.728615997359157" lon="4.228807026520371">
        <ele>36.189999999999998</ele>
        <time>2018-07-01T12:42:20Z</time>
      </trkpt>
      <trkpt lat="50.728759998455644" lon="4.22882404178381">
        <ele>37.149999999999999</ele>
        <time>2018-07-01T12:42:21Z</time>
      </trkpt>
      <trkpt lat="50.72890299372375" lon="4.228863017633557">
        <ele>37.630000000000003</ele>
        <time>2018-07-01T12:42:22Z</time>
      </trkpt>
      <trkpt lat="50.72903098538518" lon="4.228939963504672">
        <ele>38.109999999999999</ele>
        <time>2018-07-01T12:42:23Z</time>
      </trkpt>
      <trkpt lat="50.729156965389848" lon="4.229015987366438">
        <ele>38.590000000000003</ele>
        <time>2018-07-01T12:42:24Z</time>
      </trkpt>
      <trkpt lat="50.729274982586503" lon="4.229115983471274">
        <ele>39.549999999999997</ele>
        <time>2018-07-01T12:42:25Z</time>
      </trkpt>
      <trkpt lat="50.730497986078262" lon="4.230202026665211">
        <ele>42.920000000000002</ele>
        <time>2018-07-01T12:42:36Z</time>
      </trkpt>
      <trkpt lat="50.730590019375086" lon="4.230290958657861">
        <ele>42.920000000000002</ele>
        <time>2018-07-01T12:42:37Z</time>
      </trkpt>
      <trkpt lat="50.730669982731342" lon="4.230371005833149">
        <ele>42.920000000000002</ele>
        <time>2018-07-01T12:42:38Z</time>
      </trkpt>
      <trkpt lat="50.73098698630929" lon="4.230626989156008">
        <ele>42.439999999999998</ele>
        <time>2018-07-01T12:42:44Z</time>
      </trkpt>
      <trkpt lat="50.731000984087586" lon="4.230637969449163">
        <ele>42.920000000000002</ele>
        <time>2018-07-01T12:42:45Z</time>
      </trkpt>
      <trkpt lat="50.731058986857533" lon="4.230855982750654">
        <ele>42.920000000000002</ele>
        <time>2018-07-01T12:42:46Z</time>
      </trkpt>
      <trkpt lat="50.731114977970719" lon="4.230871992185712">
        <ele>42.920000000000002</ele>
        <time>2018-07-01T12:42:47Z</time>
      </trkpt>
      <trkpt lat="50.731195025146008" lon="4.230894958600402">
        <ele>42.920000000000002</ele>
        <time>2018-07-01T12:42:48Z</time>
      </trkpt>
      <trkpt lat="50.731251016259193" lon="4.23084600828588">
        <ele>42.439999999999998</ele>
        <time>2018-07-01T12:42:49Z</time>
      </trkpt>
      <trkpt lat="50.731294015422463" lon="4.230761015787721">
        <ele>42.439999999999998</ele>
        <time>2018-07-01T12:42:50Z</time>
      </trkpt>
      <trkpt lat="50.731301978230476" lon="4.230745006352663">
        <ele>41.950000000000003</ele>
        <time>2018-07-01T12:42:51Z</time>
      </trkpt>
      <trkpt lat="50.731365010142326" lon="4.230506038293243">
        <ele>41.950000000000003</ele>
        <time>2018-07-01T12:42:52Z</time>
      </trkpt>
      <trkpt lat="50.731432987377048" lon="4.230457004159689">
        <ele>41.469999999999999</ele>
        <time>2018-07-01T12:42:53Z</time>
      </trkpt>
      <trkpt lat="50.731509011238813" lon="4.230401013046503">
        <ele>41.469999999999999</ele>
        <time>2018-07-01T12:42:54Z</time>
      </trkpt>
      <trkpt lat="50.73158897459507" lon="4.230335969477892">
        <ele>40.990000000000002</ele>
        <time>2018-07-01T12:42:55Z</time>
      </trkpt>
      <trkpt lat="50.732523975893855" lon="4.229629961773753">
        <ele>39.07</ele>
        <time>2018-07-01T12:43:06Z</time>
      </trkpt>
      <trkpt lat="50.732610980048776" lon="4.229586040601134">
        <ele>38.590000000000003</ele>
        <time>2018-07-01T12:43:07Z</time>
      </trkpt>
      <trkpt lat="50.73281298391521" lon="4.229495013132691">
        <ele>39.07</ele>
        <time>2018-07-01T12:43:09Z</time>
      </trkpt>
      <trkpt lat="50.732924966141582" lon="4.229473974555731">
        <ele>39.07</ele>
        <time>2018-07-01T12:43:10Z</time>
      </trkpt>
      <trkpt lat="50.733948983252048" lon="4.229624010622501">
        <ele>39.549999999999997</ele>
        <time>2018-07-01T12:43:18Z</time>
      </trkpt>
      <trkpt lat="50.735656963661313" lon="4.230242008343339">
        <ele>45.799999999999997</ele>
        <time>2018-07-01T12:43:32Z</time>
      </trkpt>
      <trkpt lat="50.735743967816234" lon="4.230293976143003">
        <ele>46.280000000000001</ele>
        <time>2018-07-01T12:43:33Z</time>
      </trkpt>
      <trkpt lat="50.735814040526748" lon="4.230356002226472">
        <ele>46.280000000000001</ele>
        <time>2018-07-01T12:43:34Z</time>
      </trkpt>
      <trkpt lat="50.735877994447947" lon="4.230411993339658">
        <ele>46.280000000000001</ele>
        <time>2018-07-01T12:43:35Z</time>
      </trkpt>
      <trkpt lat="50.735937003046274" lon="4.230463961139321">
        <ele>46.759999999999998</ele>
        <time>2018-07-01T12:43:36Z</time>
      </trkpt>
      <trkpt lat="50.735998023301363" lon="4.230517018586397">
        <ele>46.759999999999998</ele>
        <time>2018-07-01T12:43:37Z</time>
      </trkpt>
      <trkpt lat="50.736087039113045" lon="4.230594970285893">
        <ele>46.759999999999998</ele>
        <time>2018-07-01T12:43:38Z</time>
      </trkpt>
      <trkpt lat="50.736135989427567" lon="4.230647021904588">
        <ele>47.240000000000002</ele>
        <time>2018-07-01T12:43:39Z</time>
      </trkpt>
      <trkpt lat="50.736865969374776" lon="4.231595015153289">
        <ele>45.799999999999997</ele>
        <time>2018-07-01T12:43:48Z</time>
      </trkpt>
      <trkpt lat="50.73777599260211" lon="4.232935030013323">
        <ele>48.200000000000003</ele>
        <time>2018-07-01T12:44:00Z</time>
      </trkpt>
      <trkpt lat="50.738003980368376" lon="4.233370972797275">
        <ele>48.68</ele>
        <time>2018-07-01T12:44:04Z</time>
      </trkpt>
      <trkpt lat="50.738083021715283" lon="4.233511034399271">
        <ele>49.649999999999999</ele>
        <time>2018-07-01T12:44:10Z</time>
      </trkpt>
      <trkpt lat="50.738134989514947" lon="4.233602983877063">
        <ele>49.649999999999999</ele>
        <time>2018-07-01T12:44:34Z</time>
      </trkpt>
      <trkpt lat="50.738193998113275" lon="4.23361798748374">
        <ele>49.649999999999999</ele>
        <time>2018-07-01T12:44:36Z</time>
      </trkpt>
      <trkpt lat="50.738231968134642" lon="4.23355202190578">
        <ele>49.159999999999997</ele>
        <time>2018-07-01T12:44:37Z</time>
      </trkpt>
      <trkpt lat="50.738276978954673" lon="4.233472980558872">
        <ele>49.159999999999997</ele>
        <time>2018-07-01T12:44:38Z</time>
      </trkpt>
      <trkpt lat="50.738325007259846" lon="4.233387988060713">
        <ele>49.159999999999997</ele>
        <time>2018-07-01T12:44:39Z</time>
      </trkpt>
      <trkpt lat="50.738361971452832" lon="4.233301989734173">
        <ele>49.159999999999997</ele>
        <time>2018-07-01T12:44:40Z</time>
      </trkpt>
      <trkpt lat="50.738401031121612" lon="4.233196964487433">
        <ele>49.649999999999999</ele>
        <time>2018-07-01T12:44:41Z</time>
      </trkpt>
      <trkpt lat="50.73844201862812" lon="4.233084982261062">
        <ele>49.159999999999997</ele>
        <time>2018-07-01T12:44:42Z</time>
      </trkpt>
      <trkpt lat="50.73848501779139" lon="4.232967970892787">
        <ele>49.159999999999997</ele>
        <time>2018-07-01T12:44:43Z</time>
      </trkpt>
      <trkpt lat="50.738839991390705" lon="4.231557967141271">
        <ele>48.68</ele>
        <time>2018-07-01T12:44:52Z</time>
      </trkpt>
      <trkpt lat="50.739461006596684" lon="4.229162000119686">
        <ele>52.049999999999997</ele>
        <time>2018-07-01T12:45:05Z</time>
      </trkpt>
      <trkpt lat="50.739830983802676" lon="4.227716038003564">
        <ele>54.93</ele>
        <time>2018-07-01T12:45:13Z</time>
      </trkpt>
      <trkpt lat="50.74048200622201" lon="4.225162994116545">
        <ele>58.299999999999997</ele>
        <time>2018-07-01T12:45:27Z</time>
      </trkpt>
      <trkpt lat="50.741001013666391" lon="4.223106997087598">
        <ele>61.659999999999997</ele>
        <time>2018-07-01T12:45:38Z</time>
      </trkpt>
      <trkpt lat="50.741371996700764" lon="4.221658017486334">
        <ele>63.100000000000001</ele>
        <time>2018-07-01T12:45:46Z</time>
      </trkpt>
      <trkpt lat="50.741837024688721" lon="4.21984501183033">
        <ele>65.030000000000001</ele>
        <time>2018-07-01T12:45:56Z</time>
      </trkpt>
      <trkpt lat="50.74254403822124" lon="4.217085018754005">
        <ele>66.469999999999999</ele>
        <time>2018-07-01T12:46:11Z</time>
      </trkpt>
      <trkpt lat="50.743024991825223" lon="4.215172016993165">
        <ele>66.950000000000003</ele>
        <time>2018-07-01T12:46:23Z</time>
      </trkpt>
      <trkpt lat="50.743542993441224" lon="4.213019041344523">
        <ele>68.870000000000005</ele>
        <time>2018-07-01T12:46:37Z</time>
      </trkpt>
      <trkpt lat="50.743570988997817" lon="4.212829023599625">
        <ele>68.870000000000005</ele>
        <time>2018-07-01T12:46:38Z</time>
      </trkpt>
      <trkpt lat="50.743596972897649" lon="4.212621990591288">
        <ele>69.349999999999994</ele>
        <time>2018-07-01T12:46:39Z</time>
      </trkpt>
      <trkpt lat="50.743551040068269" lon="4.210732039064169">
        <ele>69.829999999999998</ele>
        <time>2018-07-01T12:46:48Z</time>
      </trkpt>
      <trkpt lat="50.743501000106335" lon="4.208949962630868">
        <ele>68.390000000000001</ele>
        <time>2018-07-01T12:46:56Z</time>
      </trkpt>
      <trkpt lat="50.743573000654578" lon="4.207194959744811">
        <ele>65.989999999999995</ele>
        <time>2018-07-01T12:47:05Z</time>
      </trkpt>
      <trkpt lat="50.743646007031202" lon="4.205654030665755">
        <ele>65.030000000000001</ele>
        <time>2018-07-01T12:47:14Z</time>
      </trkpt>
      <trkpt lat="50.743747008964419" lon="4.203747985884547">
        <ele>64.549999999999997</ele>
        <time>2018-07-01T12:47:25Z</time>
      </trkpt>
      <trkpt lat="50.743866031989455" lon="4.202203033491969">
        <ele>62.619999999999997</ele>
        <time>2018-07-01T12:47:33Z</time>
      </trkpt>
      <trkpt lat="50.743982959538698" lon="4.201619988307357">
        <ele>60.700000000000003</ele>
        <time>2018-07-01T12:47:36Z</time>
      </trkpt>
      <trkpt lat="50.744667006656528" lon="4.199802037328482">
        <ele>58.780000000000001</ele>
        <time>2018-07-01T12:47:46Z</time>
      </trkpt>
      <trkpt lat="50.745324986055493" lon="4.198125991970301">
        <ele>58.299999999999997</ele>
        <time>2018-07-01T12:47:55Z</time>
      </trkpt>
      <trkpt lat="50.745975002646446" lon="4.196465034037828">
        <ele>57.82</ele>
        <time>2018-07-01T12:48:02Z</time>
      </trkpt>
      <trkpt lat="50.747092980891466" lon="4.193623987957835">
        <ele>58.780000000000001</ele>
        <time>2018-07-01T12:48:13Z</time>
      </trkpt>
      <trkpt lat="50.748292012140155" lon="4.19058496132493">
        <ele>60.219999999999999</ele>
        <time>2018-07-01T12:48:26Z</time>
      </trkpt>
      <trkpt lat="50.749081000685692" lon="4.18858696706593">
        <ele>61.18</ele>
        <time>2018-07-01T12:48:35Z</time>
      </trkpt>
      <trkpt lat="50.749766975641251" lon="4.186811009421945">
        <ele>59.259999999999998</ele>
        <time>2018-07-01T12:48:43Z</time>
      </trkpt>
      <trkpt lat="50.750832986086607" lon="4.184111030772328">
        <ele>58.299999999999997</ele>
        <time>2018-07-01T12:48:56Z</time>
      </trkpt>
      <trkpt lat="50.751836970448494" lon="4.181521022692323">
        <ele>53.490000000000002</ele>
        <time>2018-07-01T12:49:07Z</time>
      </trkpt>
      <trkpt lat="50.753128034994006" lon="4.178213020786643">
        <ele>45.32</ele>
        <time>2018-07-01T12:49:19Z</time>
      </trkpt>
      <trkpt lat="50.754088014364243" lon="4.175753016024828">
        <ele>49.649999999999999</ele>
        <time>2018-07-01T12:49:29Z</time>
      </trkpt>
      <trkpt lat="50.755061991512775" lon="4.173313966020942">
        <ele>51.090000000000003</ele>
        <time>2018-07-01T12:49:40Z</time>
      </trkpt>
      <trkpt lat="50.755839999765158" lon="4.171279007568955">
        <ele>48.68</ele>
        <time>2018-07-01T12:49:50Z</time>
      </trkpt>
      <trkpt lat="50.756540978327394" lon="4.169478993862867">
        <ele>52.049999999999997</ele>
        <time>2018-07-01T12:50:00Z</time>
      </trkpt>
      <trkpt lat="50.757230976596475" lon="4.168050969019532">
        <ele>55.890000000000001</ele>
        <time>2018-07-01T12:50:09Z</time>
      </trkpt>
      <trkpt lat="50.757624004036188" lon="4.16724999435246">
        <ele>56.859999999999999</ele>
        <time>2018-07-01T12:50:14Z</time>
      </trkpt>
      <trkpt lat="50.757682006806135" lon="4.167070034891367">
        <ele>56.859999999999999</ele>
        <time>2018-07-01T12:50:15Z</time>
      </trkpt>
      <trkpt lat="50.758217023685575" lon="4.165412010625005">
        <ele>53.009999999999998</ele>
        <time>2018-07-01T12:50:25Z</time>
      </trkpt>
      <trkpt lat="50.758693031966686" lon="4.16381299495697">
        <ele>47.240000000000002</ele>
        <time>2018-07-01T12:50:34Z</time>
      </trkpt>
      <trkpt lat="50.759035013616085" lon="4.162659980356693">
        <ele>47.719999999999999</ele>
        <time>2018-07-01T12:50:42Z</time>
      </trkpt>
      <trkpt lat="50.759076001122594" lon="4.162520002573729">
        <ele>48.200000000000003</ele>
        <time>2018-07-01T12:50:44Z</time>
      </trkpt>
      <trkpt lat="50.759093016386032" lon="4.162454959005117">
        <ele>48.68</ele>
        <time>2018-07-01T12:50:45Z</time>
      </trkpt>
      <trkpt lat="50.7591119594872" lon="4.162382036447525">
        <ele>48.68</ele>
        <time>2018-07-01T12:50:46Z</time>
      </trkpt>
      <trkpt lat="50.759302983060479" lon="4.161273026838899">
        <ele>53.009999999999998</ele>
        <time>2018-07-01T12:50:55Z</time>
      </trkpt>
      <trkpt lat="50.759326033294201" lon="4.159706030040979">
        <ele>54.93</ele>
        <time>2018-07-01T12:51:06Z</time>
      </trkpt>
      <trkpt lat="50.759326033294201" lon="4.159569991752505">
        <ele>54.450000000000003</ele>
        <time>2018-07-01T12:51:07Z</time>
      </trkpt>
      <trkpt lat="50.759326033294201" lon="4.159482987597585">
        <ele>53.969999999999999</ele>
        <time>2018-07-01T12:51:08Z</time>
      </trkpt>
      <trkpt lat="50.759326033294201" lon="4.159367987886071">
        <ele>53.490000000000002</ele>
        <time>2018-07-01T12:51:09Z</time>
      </trkpt>
      <trkpt lat="50.759326033294201" lon="4.159246031194925">
        <ele>52.530000000000001</ele>
        <time>2018-07-01T12:51:10Z</time>
      </trkpt>
      <trkpt lat="50.759326033294201" lon="4.157976005226374">
        <ele>50.130000000000003</ele>
        <time>2018-07-01T12:51:19Z</time>
      </trkpt>
      <trkpt lat="50.759326033294201" lon="4.157841978594661">
        <ele>49.649999999999999</ele>
        <time>2018-07-01T12:51:20Z</time>
      </trkpt>
      <trkpt lat="50.759326033294201" lon="4.157552970573306">
        <ele>49.159999999999997</ele>
        <time>2018-07-01T12:51:22Z</time>
      </trkpt>
      <trkpt lat="50.759326033294201" lon="4.157398995012045">
        <ele>48.68</ele>
        <time>2018-07-01T12:51:23Z</time>
      </trkpt>
      <trkpt lat="50.759330978617072" lon="4.1572580114007">
        <ele>48.68</ele>
        <time>2018-07-01T12:51:24Z</time>
      </trkpt>
      <trkpt lat="50.759340031072497" lon="4.157091965898871">
        <ele>48.200000000000003</ele>
        <time>2018-07-01T12:51:25Z</time>
      </trkpt>
      <trkpt lat="50.759348999708891" lon="4.156923992559314">
        <ele>48.200000000000003</ele>
        <time>2018-07-01T12:51:26Z</time>
      </trkpt>
      <trkpt lat="50.759357968345284" lon="4.156761970371008">
        <ele>47.719999999999999</ele>
        <time>2018-07-01T12:51:27Z</time>
      </trkpt>
      <trkpt lat="50.759366014972329" lon="4.156602965667844">
        <ele>47.719999999999999</ele>
        <time>2018-07-01T12:51:28Z</time>
      </trkpt>
      <trkpt lat="50.759724006056786" lon="4.154674038290978">
        <ele>42.439999999999998</ele>
        <time>2018-07-01T12:51:39Z</time>
      </trkpt>
      <trkpt lat="50.76031400822103" lon="4.152657017111778">
        <ele>36.670000000000002</ele>
        <time>2018-07-01T12:51:50Z</time>
      </trkpt>
      <trkpt lat="50.760975005105138" lon="4.150834036991">
        <ele>35.710000000000001</ele>
        <time>2018-07-01T12:52:00Z</time>
      </trkpt>
      <trkpt lat="50.762050990015268" lon="4.149120021611452">
        <ele>41.469999999999999</ele>
        <time>2018-07-01T12:52:11Z</time>
      </trkpt>
      <trkpt lat="50.763212973251939" lon="4.147502984851599">
        <ele>49.159999999999997</ele>
        <time>2018-07-01T12:52:21Z</time>
      </trkpt>
      <trkpt lat="50.764389038085937" lon="4.145915033295751">
        <ele>53.009999999999998</ele>
        <time>2018-07-01T12:52:32Z</time>
      </trkpt>
      <trkpt lat="50.764609985053539" lon="4.14561596699059">
        <ele>53.490000000000002</ele>
        <time>2018-07-01T12:52:37Z</time>
      </trkpt>
      <trkpt lat="50.764638986438513" lon="4.145576991140842">
        <ele>53.969999999999999</ele>
        <time>2018-07-01T12:52:48Z</time>
      </trkpt>
      <trkpt lat="50.764797991141677" lon="4.145269962027669">
        <ele>54.93</ele>
        <time>2018-07-01T12:52:54Z</time>
      </trkpt>
      <trkpt lat="50.765261007472873" lon="4.144279975444078">
        <ele>55.409999999999997</ele>
        <time>2018-07-01T12:53:01Z</time>
      </trkpt>
      <trkpt lat="50.765926027670503" lon="4.142832001671195">
        <ele>54.93</ele>
        <time>2018-07-01T12:53:07Z</time>
      </trkpt>
      <trkpt lat="50.766896987333894" lon="4.140766030177474">
        <ele>56.859999999999999</ele>
        <time>2018-07-01T12:53:16Z</time>
      </trkpt>
      <trkpt lat="50.768057964742184" lon="4.138273000717163">
        <ele>58.299999999999997</ele>
        <time>2018-07-01T12:53:27Z</time>
      </trkpt>
      <trkpt lat="50.769503004848957" lon="4.135188041254878">
        <ele>52.530000000000001</ele>
        <time>2018-07-01T12:53:40Z</time>
      </trkpt>
      <trkpt lat="50.770880989730358" lon="4.132259991019964">
        <ele>56.369999999999997</ele>
        <time>2018-07-01T12:53:53Z</time>
      </trkpt>
      <trkpt lat="50.771883968263865" lon="4.130212040618062">
        <ele>58.780000000000001</ele>
        <time>2018-07-01T12:54:04Z</time>
      </trkpt>
      <trkpt lat="50.772880995646119" lon="4.128432981669903">
        <ele>59.259999999999998</ele>
        <time>2018-07-01T12:54:13Z</time>
      </trkpt>
      <trkpt lat="50.774091007187963" lon="4.126281011849642">
        <ele>56.859999999999999</ele>
        <time>2018-07-01T12:54:23Z</time>
      </trkpt>
      <trkpt lat="50.775318033993244" lon="4.124098028987646">
        <ele>52.049999999999997</ele>
        <time>2018-07-01T12:54:33Z</time>
      </trkpt>
      <trkpt lat="50.776279019191861" lon="4.122402034699917">
        <ele>50.130000000000003</ele>
        <time>2018-07-01T12:54:42Z</time>
      </trkpt>
      <trkpt lat="50.777171021327376" lon="4.120809976011515">
        <ele>55.890000000000001</ele>
        <time>2018-07-01T12:54:51Z</time>
      </trkpt>
      <trkpt lat="50.777667984366417" lon="4.119899030774832">
        <ele>61.659999999999997</ele>
        <time>2018-07-01T12:54:59Z</time>
      </trkpt>
      <trkpt lat="50.777773009613156" lon="4.119693003594875">
        <ele>63.579999999999998</ele>
        <time>2018-07-01T12:55:02Z</time>
      </trkpt>
      <trkpt lat="50.777854984626174" lon="4.119484964758158">
        <ele>66.469999999999999</ele>
        <time>2018-07-01T12:55:11Z</time>
      </trkpt>
      <trkpt lat="50.777930002659559" lon="4.119054973125458">
        <ele>67.909999999999997</ele>
        <time>2018-07-01T12:55:19Z</time>
      </trkpt>
      <trkpt lat="50.778038967400789" lon="4.117835992947221">
        <ele>71.269999999999996</ele>
        <time>2018-07-01T12:55:27Z</time>
      </trkpt>
      <trkpt lat="50.778200989589095" lon="4.116017036139965">
        <ele>74.159999999999997</ele>
        <time>2018-07-01T12:55:36Z</time>
      </trkpt>
      <trkpt lat="50.778444986790419" lon="4.113218989223242">
        <ele>77.040000000000006</ele>
        <time>2018-07-01T12:55:49Z</time>
      </trkpt>
      <trkpt lat="50.778708010911942" lon="4.110322035849094">
        <ele>83.290000000000006</ele>
        <time>2018-07-01T12:56:02Z</time>
      </trkpt>
      <trkpt lat="50.778958965092897" lon="4.107705038040876">
        <ele>89.540000000000006</ele>
        <time>2018-07-01T12:56:13Z</time>
      </trkpt>
      <trkpt lat="50.778879001736641" lon="4.10655596293509">
        <ele>90.980000000000004</ele>
        <time>2018-07-01T12:56:19Z</time>
      </trkpt>
      <trkpt lat="50.778844971209764" lon="4.106353959068656">
        <ele>90.980000000000004</ele>
        <time>2018-07-01T12:56:20Z</time>
      </trkpt>
      <trkpt lat="50.778779005631804" lon="4.106152961030603">
        <ele>90.5</ele>
        <time>2018-07-01T12:56:21Z</time>
      </trkpt>
      <trkpt lat="50.778712034225464" lon="4.105949029326439">
        <ele>90.019999999999996</ele>
        <time>2018-07-01T12:56:22Z</time>
      </trkpt>
      <trkpt lat="50.777959004044533" lon="4.103789012879133">
        <ele>80.409999999999997</ele>
        <time>2018-07-01T12:56:32Z</time>
      </trkpt>
      <trkpt lat="50.777684999629855" lon="4.102807994931936">
        <ele>76.079999999999998</ele>
        <time>2018-07-01T12:56:37Z</time>
      </trkpt>
      <trkpt lat="50.777672007679939" lon="4.102612026035786">
        <ele>75.599999999999994</ele>
        <time>2018-07-01T12:56:38Z</time>
      </trkpt>
      <trkpt lat="50.777672007679939" lon="4.102413039654493">
        <ele>75.120000000000005</ele>
        <time>2018-07-01T12:56:39Z</time>
      </trkpt>
      <trkpt lat="50.777679970487952" lon="4.102209024131298">
        <ele>74.159999999999997</ele>
        <time>2018-07-01T12:56:40Z</time>
      </trkpt>
      <trkpt lat="50.777698997408152" lon="4.101990005001426">
        <ele>73.680000000000007</ele>
        <time>2018-07-01T12:56:41Z</time>
      </trkpt>
      <trkpt lat="50.777719030156732" lon="4.101761011406779">
        <ele>72.719999999999999</ele>
        <time>2018-07-01T12:56:42Z</time>
      </trkpt>
      <trkpt lat="50.77803703956306" lon="4.099987987428904">
        <ele>65.989999999999995</ele>
        <time>2018-07-01T12:56:49Z</time>
      </trkpt>
      <trkpt lat="50.778492009267211" lon="4.098305990919471">
        <ele>61.659999999999997</ele>
        <time>2018-07-01T12:56:54Z</time>
      </trkpt>
      <trkpt lat="50.779259959235787" lon="4.095441978424788">
        <ele>49.649999999999999</ele>
        <time>2018-07-01T12:57:03Z</time>
      </trkpt>
      <trkpt lat="50.779830012470484" lon="4.093261007219553">
        <ele>42.439999999999998</ele>
        <time>2018-07-01T12:57:10Z</time>
      </trkpt>
      <trkpt lat="50.780410040169954" lon="4.091048017144203">
        <ele>43.399999999999999</ele>
        <time>2018-07-01T12:57:18Z</time>
      </trkpt>
      <trkpt lat="50.781057039275765" lon="4.088794039562345">
        <ele>43.880000000000003</ele>
        <time>2018-07-01T12:57:28Z</time>
      </trkpt>
      <trkpt lat="50.781973013654351" lon="4.087282028049231">
        <ele>44.359999999999999</ele>
        <time>2018-07-01T12:57:37Z</time>
      </trkpt>
      <trkpt lat="50.783745031803846" lon="4.084994019940496">
        <ele>45.799999999999997</ele>
        <time>2018-07-01T12:57:51Z</time>
      </trkpt>
      <trkpt lat="50.785317979753017" lon="4.082944979891181">
        <ele>42.439999999999998</ele>
        <time>2018-07-01T12:58:03Z</time>
      </trkpt>
      <trkpt lat="50.787431979551911" lon="4.080202002078295">
        <ele>35.710000000000001</ele>
        <time>2018-07-01T12:58:18Z</time>
      </trkpt>
      <trkpt lat="50.789743037894368" lon="4.077204968780279">
        <ele>30.899999999999999</ele>
        <time>2018-07-01T12:58:34Z</time>
      </trkpt>
      <trkpt lat="50.791366025805473" lon="4.075090968981385">
        <ele>30.899999999999999</ele>
        <time>2018-07-01T12:58:46Z</time>
      </trkpt>
      <trkpt lat="50.793280033394694" lon="4.0725879650563">
        <ele>33.780000000000001</ele>
        <time>2018-07-01T12:59:01Z</time>
      </trkpt>
      <trkpt lat="50.795092033222318" lon="4.070026036351919">
        <ele>27.050000000000001</ele>
        <time>2018-07-01T12:59:15Z</time>
      </trkpt>
      <trkpt lat="50.797127997502685" lon="4.067182978615165">
        <ele>28.98</ele>
        <time>2018-07-01T12:59:31Z</time>
      </trkpt>
      <trkpt lat="50.798849975690246" lon="4.064707970246673">
        <ele>30.899999999999999</ele>
        <time>2018-07-01T12:59:45Z</time>
      </trkpt>
      <trkpt lat="50.799988992512226" lon="4.063109960407019">
        <ele>28.98</ele>
        <time>2018-07-01T12:59:56Z</time>
      </trkpt>
      <trkpt lat="50.800097035244107" lon="4.062963025644422">
        <ele>28.98</ele>
        <time>2018-07-01T12:59:57Z</time>
      </trkpt>
      <trkpt lat="50.801429003477097" lon="4.061095034703612">
        <ele>23.690000000000001</ele>
        <time>2018-07-01T13:00:09Z</time>
      </trkpt>
      <trkpt lat="50.802452014759183" lon="4.059806987643242">
        <ele>25.609999999999999</ele>
        <time>2018-07-01T13:00:20Z</time>
      </trkpt>
      <trkpt lat="50.80369396135211" lon="4.0586659591645">
        <ele>24.649999999999999</ele>
        <time>2018-07-01T13:00:32Z</time>
      </trkpt>
      <trkpt lat="50.8050880394876" lon="4.057600032538176">
        <ele>19.84</ele>
        <time>2018-07-01T13:00:44Z</time>
      </trkpt>
      <trkpt lat="50.807156022638083" lon="4.055982995778322">
        <ele>21.289999999999999</ele>
        <time>2018-07-01T13:01:00Z</time>
      </trkpt>
      <trkpt lat="50.808778004720807" lon="4.054725039750338">
        <ele>24.170000000000002</ele>
        <time>2018-07-01T13:01:11Z</time>
      </trkpt>
      <trkpt lat="50.811180006712675" lon="4.052872974425554">
        <ele>25.129999999999999</ele>
        <time>2018-07-01T13:01:26Z</time>
      </trkpt>
      <trkpt lat="50.813199961557984" lon="4.051321987062693">
        <ele>27.050000000000001</ele>
        <time>2018-07-01T13:01:39Z</time>
      </trkpt>
      <trkpt lat="50.81507901661098" lon="4.049874013289809">
        <ele>25.609999999999999</ele>
        <time>2018-07-01T13:01:51Z</time>
      </trkpt>
      <trkpt lat="50.81684298813343" lon="4.048230992630124">
        <ele>23.210000000000001</ele>
        <time>2018-07-01T13:02:03Z</time>
      </trkpt>
      <trkpt lat="50.818169005215168" lon="4.046413963660598">
        <ele>24.170000000000002</ele>
        <time>2018-07-01T13:02:13Z</time>
      </trkpt>
      <trkpt lat="50.819667018949986" lon="4.044873034581542">
        <ele>23.210000000000001</ele>
        <time>2018-07-01T13:02:23Z</time>
      </trkpt>
      <trkpt lat="50.819814037531614" lon="4.044722998514772">
        <ele>22.73</ele>
        <time>2018-07-01T13:02:24Z</time>
      </trkpt>
      <trkpt lat="50.821594018489122" lon="4.042910998687148">
        <ele>21.77</ele>
        <time>2018-07-01T13:02:37Z</time>
      </trkpt>
      <trkpt lat="50.822852980345488" lon="4.041606020182371">
        <ele>21.77</ele>
        <time>2018-07-01T13:02:47Z</time>
      </trkpt>
      <trkpt lat="50.823500985279679" lon="4.041006965562701">
        <ele>19.359999999999999</ele>
        <time>2018-07-01T13:02:54Z</time>
      </trkpt>
      <trkpt lat="50.823500985279679" lon="4.041006965562701">
        <ele>19.359999999999999</ele>
        <time>2018-07-01T13:03:03Z</time>
      </trkpt>
      <trkpt lat="50.823747999966145" lon="4.040806973353028">
        <ele>19.359999999999999</ele>
        <time>2018-07-01T13:03:24Z</time>
      </trkpt>
      <trkpt lat="50.824658023193479" lon="4.039845988154411">
        <ele>17.920000000000002</ele>
        <time>2018-07-01T13:03:34Z</time>
      </trkpt>
      <trkpt lat="50.825894018635154" lon="4.038350991904736">
        <ele>16</ele>
        <time>2018-07-01T13:03:46Z</time>
      </trkpt>
      <trkpt lat="50.827426984906197" lon="4.036442013457418">
        <ele>15.52</ele>
        <time>2018-07-01T13:04:01Z</time>
      </trkpt>
      <trkpt lat="50.827672993764281" lon="4.036140013486147">
        <ele>15.039999999999999</ele>
        <time>2018-07-01T13:04:04Z</time>
      </trkpt>
      <trkpt lat="50.827739965170622" lon="4.036057032644749">
        <ele>15.52</ele>
        <time>2018-07-01T13:04:05Z</time>
      </trkpt>
      <trkpt lat="50.828002989292145" lon="4.035732988268137">
        <ele>16</ele>
        <time>2018-07-01T13:04:12Z</time>
      </trkpt>
      <trkpt lat="50.828178003430367" lon="4.035518998280168">
        <ele>16.48</ele>
        <time>2018-07-01T13:04:21Z</time>
      </trkpt>
      <trkpt lat="50.828223014250398" lon="4.035463007166982">
        <ele>16.48</ele>
        <time>2018-07-01T13:04:22Z</time>
      </trkpt>
      <trkpt lat="50.828275987878442" lon="4.035413973033428">
        <ele>16.960000000000001</ele>
        <time>2018-07-01T13:04:23Z</time>
      </trkpt>
      <trkpt lat="50.828331978991628" lon="4.035365022718906">
        <ele>16.960000000000001</ele>
        <time>2018-07-01T13:04:24Z</time>
      </trkpt>
      <trkpt lat="50.828387970104814" lon="4.035314982756972">
        <ele>16.48</ele>
        <time>2018-07-01T13:04:25Z</time>
      </trkpt>
      <trkpt lat="50.828484026715159" lon="4.035311965271831">
        <ele>16.48</ele>
        <time>2018-07-01T13:04:26Z</time>
      </trkpt>
      <trkpt lat="50.828574970364571" lon="4.035347001627088">
        <ele>16.48</ele>
        <time>2018-07-01T13:04:27Z</time>
      </trkpt>
      <trkpt lat="50.828685024753213" lon="4.035388994961977">
        <ele>16.48</ele>
        <time>2018-07-01T13:04:28Z</time>
      </trkpt>
      <trkpt lat="50.828807987272739" lon="4.035438029095531">
        <ele>16.48</ele>
        <time>2018-07-01T13:04:29Z</time>
      </trkpt>
      <trkpt lat="50.83014003932476" lon="4.036032976582646">
        <ele>17.440000000000001</ele>
        <time>2018-07-01T13:04:38Z</time>
      </trkpt>
      <trkpt lat="50.831981040537357" lon="4.03687602840364">
        <ele>17.920000000000002</ele>
        <time>2018-07-01T13:04:47Z</time>
      </trkpt>
      <trkpt lat="50.834794007241726" lon="4.038126021623612">
        <ele>18.879999999999999</ele>
        <time>2018-07-01T13:05:00Z</time>
      </trkpt>
      <trkpt lat="50.836813040077686" lon="4.038436990231276">
        <ele>18.399999999999999</ele>
        <time>2018-07-01T13:05:09Z</time>
      </trkpt>
      <trkpt lat="50.837984997779131" lon="4.038219982758164">
        <ele>17.920000000000002</ele>
        <time>2018-07-01T13:05:15Z</time>
      </trkpt>
      <trkpt lat="50.839305985718966" lon="4.037639033049345">
        <ele>16.960000000000001</ele>
        <time>2018-07-01T13:05:24Z</time>
      </trkpt>
      <trkpt lat="50.84068899974227" lon="4.03657897375524">
        <ele>16</ele>
        <time>2018-07-01T13:05:32Z</time>
      </trkpt>
      <trkpt lat="50.842102020978928" lon="4.034854983910918">
        <ele>16</ele>
        <time>2018-07-01T13:05:40Z</time>
      </trkpt>
      <trkpt lat="50.844641989096999" lon="4.031431982293725">
        <ele>31.859999999999999</ele>
        <time>2018-07-01T13:05:55Z</time>
      </trkpt>
      <trkpt lat="50.846544010564685" lon="4.02897197753191">
        <ele>33.299999999999997</ele>
        <time>2018-07-01T13:06:06Z</time>
      </trkpt>
      <trkpt lat="50.848220977932215" lon="4.027328034862876">
        <ele>31.859999999999999</ele>
        <time>2018-07-01T13:06:15Z</time>
      </trkpt>
      <trkpt lat="50.850454000756145" lon="4.025882994756103">
        <ele>29.940000000000001</ele>
        <time>2018-07-01T13:06:26Z</time>
      </trkpt>
      <trkpt lat="50.853052977472544" lon="4.025023011490703">
        <ele>30.420000000000002</ele>
        <time>2018-07-01T13:06:38Z</time>
      </trkpt>
      <trkpt lat="50.856327032670379" lon="4.024382969364524">
        <ele>28.02</ele>
        <time>2018-07-01T13:06:53Z</time>
      </trkpt>
      <trkpt lat="50.858742026612163" lon="4.024035958573222">
        <ele>23.690000000000001</ele>
        <time>2018-07-01T13:07:04Z</time>
      </trkpt>
      <trkpt lat="50.860280022025108" lon="4.024222958832979">
        <ele>24.649999999999999</ele>
        <time>2018-07-01T13:07:11Z</time>
      </trkpt>
      <trkpt lat="50.862171985208988" lon="4.02508202008903">
        <ele>28.02</ele>
        <time>2018-07-01T13:07:20Z</time>
      </trkpt>
      <trkpt lat="50.864136032760143" lon="4.026527982205153">
        <ele>30.899999999999999</ele>
        <time>2018-07-01T13:07:30Z</time>
      </trkpt>
      <trkpt lat="50.866946987807751" lon="4.02858498506248">
        <ele>28.5</ele>
        <time>2018-07-01T13:07:44Z</time>
      </trkpt>
      <trkpt lat="50.869066016748548" lon="4.029544964432716">
        <ele>22.73</ele>
        <time>2018-07-01T13:07:54Z</time>
      </trkpt>
      <trkpt lat="50.871209017932415" lon="4.03002499602735">
        <ele>21.289999999999999</ele>
        <time>2018-07-01T13:08:04Z</time>
      </trkpt>
      <trkpt lat="50.874276040121913" lon="4.030505027621985">
        <ele>31.859999999999999</ele>
        <time>2018-07-01T13:08:18Z</time>
      </trkpt>
      <trkpt lat="50.875804983079433" lon="4.030736032873392">
        <ele>36.189999999999998</ele>
        <time>2018-07-01T13:08:26Z</time>
      </trkpt>
      <trkpt lat="50.876525994390249" lon="4.030856983736157">
        <ele>37.149999999999999</ele>
        <time>2018-07-01T13:08:33Z</time>
      </trkpt>
      <trkpt lat="50.876880967989564" lon="4.030918003991246">
        <ele>37.630000000000003</ele>
        <time>2018-07-01T13:08:40Z</time>
      </trkpt>
      <trkpt lat="50.877002002671361" lon="4.030938036739826">
        <ele>37.149999999999999</ele>
        <time>2018-07-01T13:08:47Z</time>
      </trkpt>
      <trkpt lat="50.877754027023911" lon="4.031044989824295">
        <ele>34.740000000000002</ele>
        <time>2018-07-01T13:08:53Z</time>
      </trkpt>
      <trkpt lat="50.879140980541706" lon="4.031255040317774">
        <ele>29.940000000000001</ele>
        <time>2018-07-01T13:09:00Z</time>
      </trkpt>
      <trkpt lat="50.881754960864782" lon="4.031661981716752">
        <ele>28.02</ele>
        <time>2018-07-01T13:09:12Z</time>
      </trkpt>
      <trkpt lat="50.884629031643271" lon="4.032106976956129">
        <ele>26.09</ele>
        <time>2018-07-01T13:09:25Z</time>
      </trkpt>
      <trkpt lat="50.887026004493237" lon="4.03245298191905">
        <ele>21.289999999999999</ele>
        <time>2018-07-01T13:09:36Z</time>
      </trkpt>
      <trkpt lat="50.889415014535189" lon="4.032808039337397">
        <ele>26.09</ele>
        <time>2018-07-01T13:09:47Z</time>
      </trkpt>
      <trkpt lat="50.892507014796138" lon="4.03314096853137">
        <ele>30.899999999999999</ele>
        <time>2018-07-01T13:10:01Z</time>
      </trkpt>
      <trkpt lat="50.895808981731534" lon="4.033056981861591">
        <ele>28.5</ele>
        <time>2018-07-01T13:10:16Z</time>
      </trkpt>
      <trkpt lat="50.898679029196501" lon="4.032909041270614">
        <ele>24.649999999999999</ele>
        <time>2018-07-01T13:10:29Z</time>
      </trkpt>
      <trkpt lat="50.901530971750617" lon="4.032780965790153">
        <ele>21.289999999999999</ele>
        <time>2018-07-01T13:10:42Z</time>
      </trkpt>
      <trkpt lat="50.904826987534761" lon="4.032613998278976">
        <ele>25.609999999999999</ele>
        <time>2018-07-01T13:10:57Z</time>
      </trkpt>
      <trkpt lat="50.907943965867162" lon="4.032465973868966">
        <ele>23.690000000000001</ele>
        <time>2018-07-01T13:11:11Z</time>
      </trkpt>
      <trkpt lat="50.910564986988902" lon="4.032348962500691">
        <ele>17.440000000000001</ele>
        <time>2018-07-01T13:11:23Z</time>
      </trkpt>
      <trkpt lat="50.912112034857273" lon="4.032295988872647">
        <ele>17.440000000000001</ele>
        <time>2018-07-01T13:11:31Z</time>
      </trkpt>
      <trkpt lat="50.913420030847192" lon="4.03234301134944">
        <ele>17.440000000000001</ele>
        <time>2018-07-01T13:11:40Z</time>
      </trkpt>
      <trkpt lat="50.913571994751692" lon="4.032317027449608">
        <ele>17.440000000000001</ele>
        <time>2018-07-01T13:11:44Z</time>
      </trkpt>
      <trkpt lat="50.913571994751692" lon="4.032317027449608">
        <ele>17.920000000000002</ele>
        <time>2018-07-01T13:11:46Z</time>
      </trkpt>
      <trkpt lat="50.913571994751692" lon="4.032317027449608">
        <ele>18.399999999999999</ele>
        <time>2018-07-01T13:11:47Z</time>
      </trkpt>
      <trkpt lat="50.91369504109025" lon="4.032376036047936">
        <ele>18.399999999999999</ele>
        <time>2018-07-01T13:11:52Z</time>
      </trkpt>
      <trkpt lat="50.913808029145002" lon="4.032407971099019">
        <ele>18.399999999999999</ele>
        <time>2018-07-01T13:11:54Z</time>
      </trkpt>
      <trkpt lat="50.913862008601427" lon="4.032371006906033">
        <ele>18.879999999999999</ele>
        <time>2018-07-01T13:11:55Z</time>
      </trkpt>
      <trkpt lat="50.91391297057271" lon="4.032319961115718">
        <ele>18.879999999999999</ele>
        <time>2018-07-01T13:11:56Z</time>
      </trkpt>
      <trkpt lat="50.914088990539312" lon="4.032259024679661">
        <ele>19.359999999999999</ele>
        <time>2018-07-01T13:11:58Z</time>
      </trkpt>
      <trkpt lat="50.914200972765684" lon="4.032256007194519">
        <ele>19.84</ele>
        <time>2018-07-01T13:11:59Z</time>
      </trkpt>
      <trkpt lat="50.915261032059789" lon="4.032203033566475">
        <ele>18.879999999999999</ele>
        <time>2018-07-01T13:12:06Z</time>
      </trkpt>
      <trkpt lat="50.916793998330832" lon="4.032027013599873">
        <ele>20.32</ele>
        <time>2018-07-01T13:12:13Z</time>
      </trkpt>
      <trkpt lat="50.918858963996172" lon="4.031840013340116">
        <ele>24.170000000000002</ele>
        <time>2018-07-01T13:12:23Z</time>
      </trkpt>
      <trkpt lat="50.920924013480544" lon="4.031609008088708">
        <ele>22.25</ele>
        <time>2018-07-01T13:12:34Z</time>
      </trkpt>
      <trkpt lat="50.92321696691215" lon="4.031415972858667">
        <ele>21.289999999999999</ele>
        <time>2018-07-01T13:12:46Z</time>
      </trkpt>
      <trkpt lat="50.924509037286043" lon="4.031611019745469">
        <ele>21.289999999999999</ele>
        <time>2018-07-01T13:12:53Z</time>
      </trkpt>
      <trkpt lat="50.925906971096992" lon="4.032554989680648">
        <ele>20.32</ele>
        <time>2018-07-01T13:13:01Z</time>
      </trkpt>
      <trkpt lat="50.927053028717637" lon="4.033915037289262">
        <ele>20.32</ele>
        <time>2018-07-01T13:13:09Z</time>
      </trkpt>
      <trkpt lat="50.927628027275205" lon="4.034580979496241">
        <ele>18.399999999999999</ele>
        <time>2018-07-01T13:13:16Z</time>
      </trkpt>
      <trkpt lat="50.927649987861514" lon="4.034606041386724">
        <ele>17.920000000000002</ele>
        <time>2018-07-01T13:13:24Z</time>
      </trkpt>
      <trkpt lat="50.927659962326288" lon="4.034617021679878">
        <ele>17.920000000000002</ele>
        <time>2018-07-01T13:13:26Z</time>
      </trkpt>
      <trkpt lat="50.92768301256001" lon="4.03477200306952">
        <ele>17.920000000000002</ele>
        <time>2018-07-01T13:13:27Z</time>
      </trkpt>
      <trkpt lat="50.92768301256001" lon="4.034775020554662">
        <ele>17.920000000000002</ele>
        <time>2018-07-01T13:13:28Z</time>
      </trkpt>
      <trkpt lat="50.9277059789747" lon="4.03487803414464">
        <ele>17.440000000000001</ele>
        <time>2018-07-01T13:13:29Z</time>
      </trkpt>
      <trkpt lat="50.927768005058169" lon="4.034982975572348">
        <ele>17.440000000000001</ele>
        <time>2018-07-01T13:13:30Z</time>
      </trkpt>
      <trkpt lat="50.92783497646451" lon="4.035011976957321">
        <ele>17.920000000000002</ele>
        <time>2018-07-01T13:13:31Z</time>
      </trkpt>
      <trkpt lat="50.927907982841134" lon="4.035005019977689">
        <ele>17.920000000000002</ele>
        <time>2018-07-01T13:13:32Z</time>
      </trkpt>
      <trkpt lat="50.92796104028821" lon="4.034965038299561">
        <ele>17.920000000000002</ele>
        <time>2018-07-01T13:13:33Z</time>
      </trkpt>
      <trkpt lat="50.92796104028821" lon="4.034965038299561">
        <ele>17.920000000000002</ele>
        <time>2018-07-01T13:13:34Z</time>
      </trkpt>
      <trkpt lat="50.92811300419271" lon="4.03490100055933">
        <ele>17.920000000000002</ele>
        <time>2018-07-01T13:13:35Z</time>
      </trkpt>
      <trkpt lat="50.928189028054476" lon="4.03490100055933">
        <ele>17.920000000000002</ele>
        <time>2018-07-01T13:13:36Z</time>
      </trkpt>
      <trkpt lat="50.928332023322582" lon="4.03490100055933">
        <ele>17.920000000000002</ele>
        <time>2018-07-01T13:13:38Z</time>
      </trkpt>
      <trkpt lat="50.928388014435768" lon="4.034931007772684">
        <ele>17.440000000000001</ele>
        <time>2018-07-01T13:13:39Z</time>
      </trkpt>
      <trkpt lat="50.928540984168649" lon="4.035046007484198">
        <ele>16.48</ele>
        <time>2018-07-01T13:13:42Z</time>
      </trkpt>
      <trkpt lat="50.92860602773726" lon="4.035094035789371">
        <ele>16.48</ele>
        <time>2018-07-01T13:13:43Z</time>
      </trkpt>
      <trkpt lat="50.928675010800362" lon="4.035146003589034">
        <ele>16</ele>
        <time>2018-07-01T13:13:44Z</time>
      </trkpt>
      <trkpt lat="50.929069966077805" lon="4.035385977476835">
        <ele>15.52</ele>
        <time>2018-07-01T13:13:50Z</time>
      </trkpt>
      <trkpt lat="50.929218996316195" lon="4.035457978025079">
        <ele>15.039999999999999</ele>
        <time>2018-07-01T13:13:53Z</time>
      </trkpt>
      <trkpt lat="50.929480008780956" lon="4.035561997443438">
        <ele>14.08</ele>
        <time>2018-07-01T13:13:59Z</time>
      </trkpt>
      <trkpt lat="50.929549997672439" lon="4.035578006878495">
        <ele>14.08</ele>
        <time>2018-07-01T13:14:00Z</time>
      </trkpt>
      <trkpt lat="50.930506959557533" lon="4.035787973552942">
        <ele>16.48</ele>
        <time>2018-07-01T13:14:11Z</time>
      </trkpt>
      <trkpt lat="50.930800996720791" lon="4.035852011293173">
        <ele>17.920000000000002</ele>
        <time>2018-07-01T13:14:14Z</time>
      </trkpt>
      <trkpt lat="50.930981962010264" lon="4.035891992971301">
        <ele>18.879999999999999</ele>
        <time>2018-07-01T13:14:16Z</time>
      </trkpt>
      <trkpt lat="50.93107801862061" lon="4.035915965214372">
        <ele>19.359999999999999</ele>
        <time>2018-07-01T13:14:17Z</time>
      </trkpt>
      <trkpt lat="50.931176003068686" lon="4.035940021276474">
        <ele>19.359999999999999</ele>
        <time>2018-07-01T13:14:18Z</time>
      </trkpt>
      <trkpt lat="50.931270970031619" lon="4.035964999347925">
        <ele>19.84</ele>
        <time>2018-07-01T13:14:19Z</time>
      </trkpt>
      <trkpt lat="50.931360991671681" lon="4.035987965762615">
        <ele>19.84</ele>
        <time>2018-07-01T13:14:20Z</time>
      </trkpt>
      <trkpt lat="50.931442966684699" lon="4.036009004339576">
        <ele>19.359999999999999</ele>
        <time>2018-07-01T13:14:21Z</time>
      </trkpt>
      <trkpt lat="50.931515973061323" lon="4.036028031259775">
        <ele>18.879999999999999</ele>
        <time>2018-07-01T13:14:22Z</time>
      </trkpt>
      <trkpt lat="50.931582022458315" lon="4.036045968532562">
        <ele>18.879999999999999</ele>
        <time>2018-07-01T13:14:23Z</time>
      </trkpt>
      <trkpt lat="50.931716971099377" lon="4.036081004887819">
        <ele>17.920000000000002</ele>
        <time>2018-07-01T13:14:26Z</time>
      </trkpt>
      <trkpt lat="50.93180799856782" lon="4.036106988787651">
        <ele>17.920000000000002</ele>
        <time>2018-07-01T13:14:27Z</time>
      </trkpt>
      <trkpt lat="50.93187396414578" lon="4.036126015707851">
        <ele>17.920000000000002</ele>
        <time>2018-07-01T13:14:28Z</time>
      </trkpt>
      <trkpt lat="50.932329017668962" lon="4.036265993490815">
        <ele>17.440000000000001</ele>
        <time>2018-07-01T13:14:35Z</time>
      </trkpt>
      <trkpt lat="50.932372016832232" lon="4.036278985440731">
        <ele>17.440000000000001</ele>
        <time>2018-07-01T13:14:36Z</time>
      </trkpt>
      <trkpt lat="50.932404035702348" lon="4.036288959905505">
        <ele>17.440000000000001</ele>
        <time>2018-07-01T13:14:37Z</time>
      </trkpt>
      <trkpt lat="50.932435970753431" lon="4.036230035126209">
        <ele>17.440000000000001</ele>
        <time>2018-07-01T13:14:38Z</time>
      </trkpt>
      <trkpt lat="50.932447034865618" lon="4.036157028749585">
        <ele>16.960000000000001</ele>
        <time>2018-07-01T13:14:39Z</time>
      </trkpt>
      <trkpt lat="50.932460026815534" lon="4.036064995452762">
        <ele>16.960000000000001</ele>
        <time>2018-07-01T13:14:40Z</time>
      </trkpt>
      <trkpt lat="50.932466983795166" lon="4.035571971908212">
        <ele>17.440000000000001</ele>
        <time>2018-07-01T13:14:44Z</time>
      </trkpt>
      <trkpt lat="50.932456003502011" lon="4.035436017438769">
        <ele>17.440000000000001</ele>
        <time>2018-07-01T13:14:45Z</time>
      </trkpt>
      <trkpt lat="50.932444017380476" lon="4.035292016342282">
        <ele>17.920000000000002</ele>
        <time>2018-07-01T13:14:46Z</time>
      </trkpt>
      <trkpt lat="50.932433037087321" lon="4.035150026902556">
        <ele>17.920000000000002</ele>
        <time>2018-07-01T13:14:47Z</time>
      </trkpt>
      <trkpt lat="50.932415015995502" lon="4.035017006099224">
        <ele>18.399999999999999</ele>
        <time>2018-07-01T13:14:48Z</time>
      </trkpt>
      <trkpt lat="50.932376040145755" lon="4.034885996952653">
        <ele>18.879999999999999</ele>
        <time>2018-07-01T13:14:49Z</time>
      </trkpt>
      <trkpt lat="50.932335974648595" lon="4.034750964492559">
        <ele>19.359999999999999</ele>
        <time>2018-07-01T13:14:50Z</time>
      </trkpt>
      <trkpt lat="50.931887961924076" lon="4.033240964636207">
        <ele>20.809999999999999</ele>
        <time>2018-07-01T13:15:00Z</time>
      </trkpt>
      <trkpt lat="50.931789977476001" lon="4.032910969108343">
        <ele>20.809999999999999</ele>
        <time>2018-07-01T13:15:03Z</time>
      </trkpt>
      <trkpt lat="50.931772040203214" lon="4.032847015187144">
        <ele>20.809999999999999</ele>
        <time>2018-07-01T13:15:04Z</time>
      </trkpt>
      <trkpt lat="50.93176499940455" lon="4.032822959125042">
        <ele>21.289999999999999</ele>
        <time>2018-07-01T13:15:05Z</time>
      </trkpt>
      <trkpt lat="50.931813027709723" lon="4.032706031575799">
        <ele>21.289999999999999</ele>
        <time>2018-07-01T13:15:09Z</time>
      </trkpt>
      <trkpt lat="50.931857032701373" lon="4.032691027969122">
        <ele>21.289999999999999</ele>
        <time>2018-07-01T13:15:10Z</time>
      </trkpt>
      <trkpt lat="50.932422978803515" lon="4.032487012445927">
        <ele>20.32</ele>
        <time>2018-07-01T13:15:17Z</time>
      </trkpt>
      <trkpt lat="50.932807037606835" lon="4.032348962500691">
        <ele>18.399999999999999</ele>
        <time>2018-07-01T13:15:24Z</time>
      </trkpt>
      <trkpt lat="50.932810977101326" lon="4.032347034662962">
        <ele>18.399999999999999</ele>
        <time>2018-07-01T13:15:25Z</time>
      </trkpt>
      <trkpt lat="50.932863028720021" lon="4.032234968617559">
        <ele>17.920000000000002</ele>
        <time>2018-07-01T13:15:26Z</time>
      </trkpt>
      <trkpt lat="50.932838972657919" lon="4.032173026353121">
        <ele>17.920000000000002</ele>
        <time>2018-07-01T13:15:27Z</time>
      </trkpt>
      <trkpt lat="50.932812988758087" lon="4.0320860221982">
        <ele>17.920000000000002</ele>
        <time>2018-07-01T13:15:28Z</time>
      </trkpt>
      <trkpt lat="50.932779964059591" lon="4.031974039971829">
        <ele>17.920000000000002</ele>
        <time>2018-07-01T13:15:29Z</time>
      </trkpt>
      <trkpt lat="50.932745011523366" lon="4.031854011118412">
        <ele>17.920000000000002</ele>
        <time>2018-07-01T13:15:30Z</time>
      </trkpt>
      <trkpt lat="50.93271098099649" lon="4.031739011406899">
        <ele>17.920000000000002</ele>
        <time>2018-07-01T13:15:31Z</time>
      </trkpt>
      <trkpt lat="50.932649960741401" lon="4.031532984226942">
        <ele>17.920000000000002</ele>
        <time>2018-07-01T13:15:33Z</time>
      </trkpt>
      <trkpt lat="50.932600004598498" lon="4.031369034200907">
        <ele>17.920000000000002</ele>
        <time>2018-07-01T13:15:35Z</time>
      </trkpt>
      <trkpt lat="50.932544013485312" lon="4.031186979264021">
        <ele>17.440000000000001</ele>
        <time>2018-07-01T13:15:42Z</time>
      </trkpt>
      <trkpt lat="50.932514006271958" lon="4.031088994815946">
        <ele>16.960000000000001</ele>
        <time>2018-07-01T13:16:08Z</time>
      </trkpt>
      <trkpt lat="50.932493973523378" lon="4.031022023409605">
        <ele>16.960000000000001</ele>
        <time>2018-07-01T13:16:09Z</time>
      </trkpt>
      <trkpt lat="50.932475030422211" lon="4.030959997326136">
        <ele>16.960000000000001</ele>
        <time>2018-07-01T13:16:10Z</time>
      </trkpt>
      <trkpt lat="50.932521969079971" lon="4.030826976522803">
        <ele>16.960000000000001</ele>
        <time>2018-07-01T13:16:11Z</time>
      </trkpt>
      <trkpt lat="50.932567985728383" lon="4.030803004279733">
        <ele>16.960000000000001</ele>
        <time>2018-07-01T13:16:12Z</time>
      </trkpt>
      <trkpt lat="50.932626994326711" lon="4.030771991237998">
        <ele>16.960000000000001</ele>
        <time>2018-07-01T13:16:13Z</time>
      </trkpt>
      <trkpt lat="50.932704024016857" lon="4.030731003731489">
        <ele>16.960000000000001</ele>
        <time>2018-07-01T13:16:14Z</time>
      </trkpt>
      <trkpt lat="50.932792034000158" lon="4.030684987083077">
        <ele>16.48</ele>
        <time>2018-07-01T13:16:15Z</time>
      </trkpt>
      <trkpt lat="50.932884989306331" lon="4.030636036768556">
        <ele>16.48</ele>
        <time>2018-07-01T13:16:16Z</time>
      </trkpt>
      <trkpt lat="50.934083014726639" lon="4.029976967722178">
        <ele>16</ele>
        <time>2018-07-01T13:16:27Z</time>
      </trkpt>
      <trkpt lat="50.935494024306536" lon="4.029058981686831">
        <ele>14.56</ele>
        <time>2018-07-01T13:16:39Z</time>
      </trkpt>
      <trkpt lat="50.936618959531188" lon="4.027995988726616">
        <ele>13.6</ele>
        <time>2018-07-01T13:16:50Z</time>
      </trkpt>
      <trkpt lat="50.937074013054371" lon="4.027573959901929">
        <ele>13.119999999999999</ele>
        <time>2018-07-01T13:16:57Z</time>
      </trkpt>
      <trkpt lat="50.937510961666703" lon="4.027088982984424">
        <ele>14.08</ele>
        <time>2018-07-01T13:17:04Z</time>
      </trkpt>
      <trkpt lat="50.93756502494216" lon="4.026980018243194">
        <ele>14.56</ele>
        <time>2018-07-01T13:17:05Z</time>
      </trkpt>
      <trkpt lat="50.937680024653673" lon="4.026751024648547">
        <ele>14.56</ele>
        <time>2018-07-01T13:17:07Z</time>
      </trkpt>
      <trkpt lat="50.937792006880045" lon="4.026526976376772">
        <ele>15.039999999999999</ele>
        <time>2018-07-01T13:17:09Z</time>
      </trkpt>
      <trkpt lat="50.937873981893063" lon="4.026268981397152">
        <ele>15.039999999999999</ele>
        <time>2018-07-01T13:17:11Z</time>
      </trkpt>
      <trkpt lat="50.93801898881793" lon="4.025393994525075">
        <ele>16</ele>
        <time>2018-07-01T13:17:17Z</time>
      </trkpt>
      <trkpt lat="50.938041033223271" lon="4.025249993428588">
        <ele>16</ele>
        <time>2018-07-01T13:17:18Z</time>
      </trkpt>
      <trkpt lat="50.938163995742798" lon="4.024066971614957">
        <ele>17.920000000000002</ele>
        <time>2018-07-01T13:17:27Z</time>
      </trkpt>
      <trkpt lat="50.938182016834617" lon="4.023941997438669">
        <ele>18.879999999999999</ele>
        <time>2018-07-01T13:17:28Z</time>
      </trkpt>
      <trkpt lat="50.938201965764165" lon="4.023832026869059">
        <ele>19.359999999999999</ele>
        <time>2018-07-01T13:17:29Z</time>
      </trkpt>
      <trkpt lat="50.938221998512745" lon="4.023719960823655">
        <ele>19.359999999999999</ele>
        <time>2018-07-01T13:17:30Z</time>
      </trkpt>
      <trkpt lat="50.938243959099054" lon="4.02360001578927">
        <ele>19.84</ele>
        <time>2018-07-01T13:17:31Z</time>
      </trkpt>
      <trkpt lat="50.938269020989537" lon="4.023475041612983">
        <ele>20.32</ele>
        <time>2018-07-01T13:17:32Z</time>
      </trkpt>
      <trkpt lat="50.938664982095361" lon="4.021750967949629">
        <ele>20.809999999999999</ele>
        <time>2018-07-01T13:17:45Z</time>
      </trkpt>
      <trkpt lat="50.938757015392184" lon="4.021334974095225">
        <ele>19.84</ele>
        <time>2018-07-01T13:17:48Z</time>
      </trkpt>
      <trkpt lat="50.938788028433919" lon="4.0211929846555">
        <ele>19.359999999999999</ele>
        <time>2018-07-01T13:17:49Z</time>
      </trkpt>
      <trkpt lat="50.93917896039784" lon="4.019485004246235">
        <ele>17.440000000000001</ele>
        <time>2018-07-01T13:18:00Z</time>
      </trkpt>
      <trkpt lat="50.9393709897995" lon="4.018646981567144">
        <ele>18.879999999999999</ele>
        <time>2018-07-01T13:18:06Z</time>
      </trkpt>
      <trkpt lat="50.939407031983137" lon="4.01852997019887">
        <ele>19.359999999999999</ele>
        <time>2018-07-01T13:18:07Z</time>
      </trkpt>
      <trkpt lat="50.939440978690982" lon="4.01842100545764">
        <ele>19.359999999999999</ele>
        <time>2018-07-01T13:18:08Z</time>
      </trkpt>
      <trkpt lat="50.939467968419194" lon="4.018240040168166">
        <ele>19.359999999999999</ele>
        <time>2018-07-01T13:18:09Z</time>
      </trkpt>
      <trkpt lat="50.939510967582464" lon="4.018082963302732">
        <ele>19.84</ele>
        <time>2018-07-01T13:18:10Z</time>
      </trkpt>
      <trkpt lat="50.939554972574115" lon="4.017919013276696">
        <ele>19.84</ele>
        <time>2018-07-01T13:18:11Z</time>
      </trkpt>
      <trkpt lat="50.939593026414514" lon="4.017741987481713">
        <ele>19.84</ele>
        <time>2018-07-01T13:18:12Z</time>
      </trkpt>
      <trkpt lat="50.939867030829191" lon="4.016317985951901">
        <ele>20.32</ele>
        <time>2018-07-01T13:18:21Z</time>
      </trkpt>
      <trkpt lat="50.939924027770758" lon="4.015806019306183">
        <ele>21.289999999999999</ele>
        <time>2018-07-01T13:18:27Z</time>
      </trkpt>
      <trkpt lat="50.939941965043545" lon="4.015678027644754">
        <ele>21.77</ele>
        <time>2018-07-01T13:18:34Z</time>
      </trkpt>
      <trkpt lat="50.939952023327351" lon="4.015602003782988">
        <ele>21.77</ele>
        <time>2018-07-01T13:18:35Z</time>
      </trkpt>
      <trkpt lat="50.939955962821841" lon="4.015566967427731">
        <ele>21.77</ele>
        <time>2018-07-01T13:18:36Z</time>
      </trkpt>
      <trkpt lat="50.939955962821841" lon="4.015566967427731">
        <ele>21.77</ele>
        <time>2018-07-01T13:18:37Z</time>
      </trkpt>
      <trkpt lat="50.939963003620505" lon="4.015382984653115">
        <ele>21.77</ele>
        <time>2018-07-01T13:18:38Z</time>
      </trkpt>
      <trkpt lat="50.93997398391366" lon="4.015288017690182">
        <ele>21.289999999999999</ele>
        <time>2018-07-01T13:18:39Z</time>
      </trkpt>
      <trkpt lat="50.939983958378434" lon="4.015196990221739">
        <ele>21.289999999999999</ele>
        <time>2018-07-01T13:18:40Z</time>
      </trkpt>
      <trkpt lat="50.939993010833859" lon="4.015120966359973">
        <ele>21.289999999999999</ele>
        <time>2018-07-01T13:18:41Z</time>
      </trkpt>
      <trkpt lat="50.939999967813492" lon="4.015055000782013">
        <ele>20.809999999999999</ele>
        <time>2018-07-01T13:18:42Z</time>
      </trkpt>
      <trkpt lat="50.940008014440536" lon="4.014990041032434">
        <ele>20.809999999999999</ele>
        <time>2018-07-01T13:18:43Z</time>
      </trkpt>
      <trkpt lat="50.940014971420169" lon="4.014927009120584">
        <ele>20.809999999999999</ele>
        <time>2018-07-01T13:18:44Z</time>
      </trkpt>
      <trkpt lat="50.940025029703975" lon="4.014852996915579">
        <ele>20.32</ele>
        <time>2018-07-01T13:18:45Z</time>
      </trkpt>
      <trkpt lat="50.940038021653891" lon="4.014758029952645">
        <ele>20.32</ele>
        <time>2018-07-01T13:18:46Z</time>
      </trkpt>
      <trkpt lat="50.940053025260568" lon="4.014644036069512">
        <ele>20.32</ele>
        <time>2018-07-01T13:18:47Z</time>
      </trkpt>
      <trkpt lat="50.940194008871913" lon="4.013463025912643">
        <ele>22.73</ele>
        <time>2018-07-01T13:18:54Z</time>
      </trkpt>
      <trkpt lat="50.940236002206802" lon="4.013130012899637">
        <ele>22.73</ele>
        <time>2018-07-01T13:18:56Z</time>
      </trkpt>
      <trkpt lat="50.940463989973068" lon="4.010994974523783">
        <ele>22.73</ele>
        <time>2018-07-01T13:19:08Z</time>
      </trkpt>
      <trkpt lat="50.940760960802436" lon="4.008595990017057">
        <ele>22.25</ele>
        <time>2018-07-01T13:19:21Z</time>
      </trkpt>
      <trkpt lat="50.941005041822791" lon="4.006470004096627">
        <ele>23.210000000000001</ele>
        <time>2018-07-01T13:19:32Z</time>
      </trkpt>
      <trkpt lat="50.94130402430892" lon="4.003864992409945">
        <ele>23.690000000000001</ele>
        <time>2018-07-01T13:19:46Z</time>
      </trkpt>
      <trkpt lat="50.941538969054818" lon="4.001715034246445">
        <ele>21.77</ele>
        <time>2018-07-01T13:19:58Z</time>
      </trkpt>
      <trkpt lat="50.941793024539948" lon="3.999453010037541">
        <ele>20.809999999999999</ele>
        <time>2018-07-01T13:20:10Z</time>
      </trkpt>
      <trkpt lat="50.942048002034426" lon="3.99726097472012">
        <ele>20.809999999999999</ele>
        <time>2018-07-01T13:20:22Z</time>
      </trkpt>
      <trkpt lat="50.942312031984329" lon="3.994936002418399">
        <ele>21.289999999999999</ele>
        <time>2018-07-01T13:20:35Z</time>
      </trkpt>
      <trkpt lat="50.9424430411309" lon="3.993744011968374">
        <ele>22.73</ele>
        <time>2018-07-01T13:20:44Z</time>
      </trkpt>
      <trkpt lat="50.942502971738577" lon="3.99324101395905">
        <ele>24.649999999999999</ele>
        <time>2018-07-01T13:20:55Z</time>
      </trkpt>
      <trkpt lat="50.942544965073466" lon="3.992772968485951">
        <ele>25.129999999999999</ele>
        <time>2018-07-01T13:21:01Z</time>
      </trkpt>
      <trkpt lat="50.942652001976967" lon="3.991796979680657">
        <ele>23.690000000000001</ele>
        <time>2018-07-01T13:21:09Z</time>
      </trkpt>
      <trkpt lat="50.942882001399994" lon="3.989831004291773">
        <ele>21.289999999999999</ele>
        <time>2018-07-01T13:21:19Z</time>
      </trkpt>
      <trkpt lat="50.943158017471433" lon="3.987478036433458">
        <ele>19.359999999999999</ele>
        <time>2018-07-01T13:21:28Z</time>
      </trkpt>
      <trkpt lat="50.943564036861062" lon="3.983786981552839">
        <ele>16.48</ele>
        <time>2018-07-01T13:21:42Z</time>
      </trkpt>
      <trkpt lat="50.943913981318474" lon="3.98073697462678">
        <ele>16.960000000000001</ele>
        <time>2018-07-01T13:21:53Z</time>
      </trkpt>
      <trkpt lat="50.944202989339828" lon="3.978175967931747">
        <ele>17.440000000000001</ele>
        <time>2018-07-01T13:22:03Z</time>
      </trkpt>
      <trkpt lat="50.944515969604254" lon="3.975324025377631">
        <ele>20.809999999999999</ele>
        <time>2018-07-01T13:22:15Z</time>
      </trkpt>
      <trkpt lat="50.944816041737795" lon="3.972777016460896">
        <ele>24.170000000000002</ele>
        <time>2018-07-01T13:22:26Z</time>
      </trkpt>
      <trkpt lat="50.945097003132105" lon="3.970318017527461">
        <ele>26.09</ele>
        <time>2018-07-01T13:22:36Z</time>
      </trkpt>
      <trkpt lat="50.945478966459632" lon="3.96679300814867">
        <ele>30.420000000000002</ele>
        <time>2018-07-01T13:22:49Z</time>
      </trkpt>
      <trkpt lat="50.945822037756443" lon="3.963687010109425">
        <ele>30.420000000000002</ele>
        <time>2018-07-01T13:23:00Z</time>
      </trkpt>
      <trkpt lat="50.946070980280638" lon="3.961467985063791">
        <ele>30.420000000000002</ele>
        <time>2018-07-01T13:23:09Z</time>
      </trkpt>
      <trkpt lat="50.946395024657249" lon="3.958483021706343">
        <ele>25.129999999999999</ele>
        <time>2018-07-01T13:23:21Z</time>
      </trkpt>
      <trkpt lat="50.946791991591454" lon="3.954989025369287">
        <ele>20.32</ele>
        <time>2018-07-01T13:23:34Z</time>
      </trkpt>
      <trkpt lat="50.947188958525658" lon="3.952012024819851">
        <ele>20.32</ele>
        <time>2018-07-01T13:23:45Z</time>
      </trkpt>
      <trkpt lat="50.947676030918956" lon="3.949371976777911">
        <ele>20.809999999999999</ele>
        <time>2018-07-01T13:23:55Z</time>
      </trkpt>
      <trkpt lat="50.948134018108249" lon="3.947001993656158">
        <ele>22.25</ele>
        <time>2018-07-01T13:24:05Z</time>
      </trkpt>
      <trkpt lat="50.94856602139771" lon="3.944677021354437">
        <ele>23.210000000000001</ele>
        <time>2018-07-01T13:24:15Z</time>
      </trkpt>
      <trkpt lat="50.949207991361618" lon="3.941269023343921">
        <ele>25.609999999999999</ele>
        <time>2018-07-01T13:24:28Z</time>
      </trkpt>
      <trkpt lat="50.949730016291142" lon="3.938505006954074">
        <ele>26.09</ele>
        <time>2018-07-01T13:24:38Z</time>
      </trkpt>
      <trkpt lat="50.950342984870076" lon="3.935257019475102">
        <ele>28.02</ele>
        <time>2018-07-01T13:24:50Z</time>
      </trkpt>
      <trkpt lat="50.950954025611281" lon="3.932026969268918">
        <ele>33.299999999999997</ele>
        <time>2018-07-01T13:25:02Z</time>
      </trkpt>
      <trkpt lat="50.951516032218933" lon="3.929052986204624">
        <ele>37.630000000000003</ele>
        <time>2018-07-01T13:25:13Z</time>
      </trkpt>
      <trkpt lat="50.951803028583527" lon="3.927533011883497">
        <ele>37.149999999999999</ele>
        <time>2018-07-01T13:25:20Z</time>
      </trkpt>
      <trkpt lat="50.951964966952801" lon="3.926676968112588">
        <ele>37.149999999999999</ele>
        <time>2018-07-01T13:25:25Z</time>
      </trkpt>
      <trkpt lat="50.95198298804462" lon="3.926577977836132">
        <ele>37.149999999999999</ele>
        <time>2018-07-01T13:25:26Z</time>
      </trkpt>
      <trkpt lat="50.951996985822916" lon="3.926504971459508">
        <ele>37.149999999999999</ele>
        <time>2018-07-01T13:25:27Z</time>
      </trkpt>
      <trkpt lat="50.952006038278341" lon="3.926459960639477">
        <ele>37.149999999999999</ele>
        <time>2018-07-01T13:25:28Z</time>
      </trkpt>
      <trkpt lat="50.952009977772832" lon="3.926438000053167">
        <ele>37.149999999999999</ele>
        <time>2018-07-01T13:25:29Z</time>
      </trkpt>
      <trkpt lat="50.952183986082673" lon="3.92646498978138">
        <ele>37.149999999999999</ele>
        <time>2018-07-01T13:25:30Z</time>
      </trkpt>
      <trkpt lat="50.952199995517731" lon="3.926521986722946">
        <ele>37.149999999999999</ele>
        <time>2018-07-01T13:25:31Z</time>
      </trkpt>
      <trkpt lat="50.95221801660955" lon="3.92659398727119">
        <ele>36.670000000000002</ele>
        <time>2018-07-01T13:25:32Z</time>
      </trkpt>
      <trkpt lat="50.952239977195859" lon="3.926675040274859">
        <ele>36.670000000000002</ele>
        <time>2018-07-01T13:25:33Z</time>
      </trkpt>
      <trkpt lat="50.95226101577282" lon="3.926755003631115">
        <ele>36.189999999999998</ele>
        <time>2018-07-01T13:25:34Z</time>
      </trkpt>
      <trkpt lat="50.952280964702368" lon="3.926833039149642">
        <ele>36.189999999999998</ele>
        <time>2018-07-01T13:25:35Z</time>
      </trkpt>
      <trkpt lat="50.95254197716713" lon="3.927824031561613">
        <ele>34.259999999999998</ele>
        <time>2018-07-01T13:25:44Z</time>
      </trkpt>
      <trkpt lat="50.952995019033551" lon="3.929552966728807">
        <ele>32.82</ele>
        <time>2018-07-01T13:25:54Z</time>
      </trkpt>
      <trkpt lat="50.953339012339711" lon="3.930991971865296">
        <ele>32.82</ele>
        <time>2018-07-01T13:26:04Z</time>
      </trkpt>
      <trkpt lat="50.953511008992791" lon="3.931914987042546">
        <ele>32.82</ele>
        <time>2018-07-01T13:26:11Z</time>
      </trkpt>
      <trkpt lat="50.953528024256229" lon="3.932006014510989">
        <ele>32.340000000000003</ele>
        <time>2018-07-01T13:26:12Z</time>
      </trkpt>
      <trkpt lat="50.953542022034526" lon="3.932085977867246">
        <ele>32.340000000000003</ele>
        <time>2018-07-01T13:26:13Z</time>
      </trkpt>
      <trkpt lat="50.953553002327681" lon="3.932144986465573">
        <ele>32.82</ele>
        <time>2018-07-01T13:26:14Z</time>
      </trkpt>
      <trkpt lat="50.953558031469584" lon="3.932168036699295">
        <ele>32.82</ele>
        <time>2018-07-01T13:26:15Z</time>
      </trkpt>
      <trkpt lat="50.953559959307313" lon="3.932183040305972">
        <ele>32.340000000000003</ele>
        <time>2018-07-01T13:26:16Z</time>
      </trkpt>
      <trkpt lat="50.953550990670919" lon="3.932129982858896">
        <ele>32.340000000000003</ele>
        <time>2018-07-01T13:26:17Z</time>
      </trkpt>
      <trkpt lat="50.953544033691287" lon="3.93209301866591">
        <ele>32.340000000000003</ele>
        <time>2018-07-01T13:26:18Z</time>
      </trkpt>
      <trkpt lat="50.953536992892623" lon="3.932055970653892">
        <ele>32.340000000000003</ele>
        <time>2018-07-01T13:26:19Z</time>
      </trkpt>
      <trkpt lat="50.953531041741371" lon="3.932023029774427">
        <ele>32.340000000000003</ele>
        <time>2018-07-01T13:26:20Z</time>
      </trkpt>
      <trkpt lat="50.953524000942707" lon="3.931983970105648">
        <ele>31.859999999999999</ele>
        <time>2018-07-01T13:26:21Z</time>
      </trkpt>
      <trkpt lat="50.953516038134694" lon="3.931940970942378">
        <ele>31.859999999999999</ele>
        <time>2018-07-01T13:26:22Z</time>
      </trkpt>
      <trkpt lat="50.953507991507649" lon="3.931898977607489">
        <ele>31.859999999999999</ele>
        <time>2018-07-01T13:26:23Z</time>
      </trkpt>
      <trkpt lat="50.953501034528017" lon="3.931863019242883">
        <ele>32.340000000000003</ele>
        <time>2018-07-01T13:26:24Z</time>
      </trkpt>
      <trkpt lat="50.953494999557734" lon="3.931828988716006">
        <ele>32.340000000000003</ele>
        <time>2018-07-01T13:26:25Z</time>
      </trkpt>
      <trkpt lat="50.95348603092134" lon="3.931781966239214">
        <ele>32.82</ele>
        <time>2018-07-01T13:26:26Z</time>
      </trkpt>
      <trkpt lat="50.953352004289627" lon="3.93106103874743">
        <ele>34.740000000000002</ele>
        <time>2018-07-01T13:26:32Z</time>
      </trkpt>
      <trkpt lat="50.952945984899998" lon="3.929360015317798">
        <ele>38.109999999999999</ele>
        <time>2018-07-01T13:26:41Z</time>
      </trkpt>
      <trkpt lat="50.952844982966781" lon="3.928976040333509">
        <ele>39.07</ele>
        <time>2018-07-01T13:26:43Z</time>
      </trkpt>
      <trkpt lat="50.952356988564134" lon="3.927119029685855">
        <ele>41.950000000000003</ele>
        <time>2018-07-01T13:26:52Z</time>
      </trkpt>
      <trkpt lat="50.952121959999204" lon="3.926226021721959">
        <ele>42.920000000000002</ele>
        <time>2018-07-01T13:26:59Z</time>
      </trkpt>
      <trkpt lat="50.952108968049288" lon="3.926175981760025">
        <ele>42.439999999999998</ele>
        <time>2018-07-01T13:27:06Z</time>
      </trkpt>
      <trkpt lat="50.952126989141107" lon="3.925829976797104">
        <ele>40.030000000000001</ele>
        <time>2018-07-01T13:27:17Z</time>
      </trkpt>
      <trkpt lat="50.95213201828301" lon="3.92580097541213">
        <ele>37.149999999999999</ele>
        <time>2018-07-01T13:27:31Z</time>
      </trkpt>
      <trkpt lat="50.952162025496364" lon="3.925651023164392">
        <ele>36.189999999999998</ele>
        <time>2018-07-01T13:28:18Z</time>
      </trkpt>
      <trkpt lat="50.95217501744628" lon="3.925582962110639">
        <ele>36.189999999999998</ele>
        <time>2018-07-01T13:28:19Z</time>
      </trkpt>
      <trkpt lat="50.95234701409936" lon="3.924711998552084">
        <ele>33.299999999999997</ele>
        <time>2018-07-01T13:28:25Z</time>
      </trkpt>
      <trkpt lat="50.952664017677307" lon="3.923038970679045">
        <ele>28.98</ele>
        <time>2018-07-01T13:28:32Z</time>
      </trkpt>
      <trkpt lat="50.953176990151405" lon="3.92027897760272">
        <ele>24.649999999999999</ele>
        <time>2018-07-01T13:28:42Z</time>
      </trkpt>
      <trkpt lat="50.953596001490951" lon="3.918040003627539">
        <ele>19.84</ele>
        <time>2018-07-01T13:28:52Z</time>
      </trkpt>
      <trkpt lat="50.953689962625504" lon="3.917533988133073">
        <ele>19.84</ele>
        <time>2018-07-01T13:28:58Z</time>
      </trkpt>
      <trkpt lat="50.953732961788774" lon="3.917300971224904">
        <ele>19.84</ele>
        <time>2018-07-01T13:29:10Z</time>
      </trkpt>
      <trkpt lat="50.953732961788774" lon="3.917300971224904">
        <ele>19.84</ele>
        <time>2018-07-01T13:29:26Z</time>
      </trkpt>
      <trkpt lat="50.953732961788774" lon="3.917300971224904">
        <ele>19.84</ele>
        <time>2018-07-01T13:29:27Z</time>
      </trkpt>
      <trkpt lat="50.953734973445535" lon="3.917285967618227">
        <ele>20.32</ele>
        <time>2018-07-01T13:29:29Z</time>
      </trkpt>
      <trkpt lat="50.953729022294283" lon="3.917322009801865">
        <ele>20.32</ele>
        <time>2018-07-01T13:29:30Z</time>
      </trkpt>
      <trkpt lat="50.953716030344367" lon="3.917389987036586">
        <ele>19.84</ele>
        <time>2018-07-01T13:29:31Z</time>
      </trkpt>
      <trkpt lat="50.953699015080929" lon="3.917484031990171">
        <ele>20.32</ele>
        <time>2018-07-01T13:29:32Z</time>
      </trkpt>
      <trkpt lat="50.953675964847207" lon="3.917608000338078">
        <ele>19.84</ele>
        <time>2018-07-01T13:29:33Z</time>
      </trkpt>
      <trkpt lat="50.953447977080941" lon="3.91883703880012">
        <ele>18.879999999999999</ele>
        <time>2018-07-01T13:29:39Z</time>
      </trkpt>
      <trkpt lat="50.952944979071617" lon="3.921521008014679">
        <ele>21.289999999999999</ele>
        <time>2018-07-01T13:29:48Z</time>
      </trkpt>
      <trkpt lat="50.952470982447267" lon="3.924070028588176">
        <ele>25.609999999999999</ele>
        <time>2018-07-01T13:29:57Z</time>
      </trkpt>
      <trkpt lat="50.952102011069655" lon="3.925956962630153">
        <ele>29.460000000000001</ele>
        <time>2018-07-01T13:30:06Z</time>
      </trkpt>
      <trkpt lat="50.952079966664314" lon="3.926067017018795">
        <ele>29.460000000000001</ele>
        <time>2018-07-01T13:30:07Z</time>
      </trkpt>
      <trkpt lat="50.952124977484345" lon="3.926238007843494">
        <ele>29.940000000000001</ele>
        <time>2018-07-01T13:30:08Z</time>
      </trkpt>
      <trkpt lat="50.952162025496364" lon="3.92637999728322">
        <ele>30.420000000000002</ele>
        <time>2018-07-01T13:30:09Z</time>
      </trkpt>
      <trkpt lat="50.952202007174492" lon="3.926531039178371">
        <ele>30.420000000000002</ele>
        <time>2018-07-01T13:30:10Z</time>
      </trkpt>
      <trkpt lat="50.952245006337762" lon="3.926694989204407">
        <ele>30.420000000000002</ele>
        <time>2018-07-01T13:30:11Z</time>
      </trkpt>
      <trkpt lat="50.952738029882312" lon="3.92857002094388">
        <ele>27.530000000000001</ele>
        <time>2018-07-01T13:30:20Z</time>
      </trkpt>
      <trkpt lat="50.953203979879618" lon="3.93037598580122">
        <ele>24.170000000000002</ele>
        <time>2018-07-01T13:30:29Z</time>
      </trkpt>
      <trkpt lat="50.953577980399132" lon="3.932325029745698">
        <ele>23.690000000000001</ele>
        <time>2018-07-01T13:30:39Z</time>
      </trkpt>
      <trkpt lat="50.953625002875924" lon="3.932698024436832">
        <ele>22.73</ele>
        <time>2018-07-01T13:30:41Z</time>
      </trkpt>
      <trkpt lat="50.953736985102296" lon="3.933164980262518">
        <ele>21.289999999999999</ele>
        <time>2018-07-01T13:30:44Z</time>
      </trkpt>
      <trkpt lat="50.953800017014146" lon="3.933399002999067">
        <ele>21.289999999999999</ele>
        <time>2018-07-01T13:30:46Z</time>
      </trkpt>
      <trkpt lat="50.953833963721991" lon="3.933523977175355">
        <ele>21.289999999999999</ele>
        <time>2018-07-01T13:30:47Z</time>
      </trkpt>
      <trkpt lat="50.954094976186752" lon="3.934402987360954">
        <ele>22.73</ele>
        <time>2018-07-01T13:30:53Z</time>
      </trkpt>
      <trkpt lat="50.954535026103258" lon="3.93544401973486">
        <ele>24.649999999999999</ele>
        <time>2018-07-01T13:30:59Z</time>
      </trkpt>
      <trkpt lat="50.954601997509599" lon="3.935611993074417">
        <ele>24.649999999999999</ele>
        <time>2018-07-01T13:31:00Z</time>
      </trkpt>
      <trkpt lat="50.954642985016108" lon="3.935794970020652">
        <ele>24.649999999999999</ele>
        <time>2018-07-01T13:31:01Z</time>
      </trkpt>
      <trkpt lat="50.954681038856506" lon="3.935989011079073">
        <ele>24.649999999999999</ele>
        <time>2018-07-01T13:31:02Z</time>
      </trkpt>
      <trkpt lat="50.954721020534635" lon="3.936190009117127">
        <ele>24.649999999999999</ele>
        <time>2018-07-01T13:31:03Z</time>
      </trkpt>
      <trkpt lat="50.955145983025432" lon="3.937968984246254">
        <ele>25.609999999999999</ele>
        <time>2018-07-01T13:31:12Z</time>
      </trkpt>
      <trkpt lat="50.955817960202694" lon="3.939576968550682">
        <ele>24.170000000000002</ele>
        <time>2018-07-01T13:31:21Z</time>
      </trkpt>
      <trkpt lat="50.956779029220343" lon="3.941515032202005">
        <ele>23.690000000000001</ele>
        <time>2018-07-01T13:31:32Z</time>
      </trkpt>
      <trkpt lat="50.957486964762211" lon="3.942862004041672">
        <ele>23.210000000000001</ele>
        <time>2018-07-01T13:31:40Z</time>
      </trkpt>
      <trkpt lat="50.957808997482061" lon="3.943452006205916">
        <ele>24.170000000000002</ele>
        <time>2018-07-01T13:31:44Z</time>
      </trkpt>
      <trkpt lat="50.958521040156484" lon="3.944635028019548">
        <ele>30.899999999999999</ele>
        <time>2018-07-01T13:31:53Z</time>
      </trkpt>
      <trkpt lat="50.958856986835599" lon="3.945410018786788">
        <ele>31.379999999999999</ele>
        <time>2018-07-01T13:31:59Z</time>
      </trkpt>
      <trkpt lat="50.958906020969152" lon="3.945528035983443">
        <ele>31.379999999999999</ele>
        <time>2018-07-01T13:32:00Z</time>
      </trkpt>
      <trkpt lat="50.959011968225241" lon="3.945784019306302">
        <ele>30.899999999999999</ele>
        <time>2018-07-01T13:32:02Z</time>
      </trkpt>
      <trkpt lat="50.959071982651949" lon="3.94593003205955">
        <ele>30.899999999999999</ele>
        <time>2018-07-01T13:32:03Z</time>
      </trkpt>
      <trkpt lat="50.959136020392179" lon="3.946083001792431">
        <ele>31.379999999999999</ele>
        <time>2018-07-01T13:32:04Z</time>
      </trkpt>
      <trkpt lat="50.95920299179852" lon="3.946245023980737">
        <ele>31.379999999999999</ele>
        <time>2018-07-01T13:32:05Z</time>
      </trkpt>
      <trkpt lat="50.959272980690002" lon="3.946412997320294">
        <ele>31.379999999999999</ele>
        <time>2018-07-01T13:32:06Z</time>
      </trkpt>
      <trkpt lat="50.95982501283288" lon="3.948206976056099">
        <ele>31.859999999999999</ele>
        <time>2018-07-01T13:32:16Z</time>
      </trkpt>
      <trkpt lat="50.960018970072269" lon="3.948907032608986">
        <ele>29.940000000000001</ele>
        <time>2018-07-01T13:32:20Z</time>
      </trkpt>
      <trkpt lat="50.9600830078125" lon="3.949069976806641">
        <ele>29.940000000000001</ele>
        <time>2018-07-01T13:32:21Z</time>
      </trkpt>
      <trkpt lat="50.960348965600133" lon="3.949615973979235">
        <ele>28.98</ele>
        <time>2018-07-01T13:32:25Z</time>
      </trkpt>
      <trkpt lat="50.960405040532351" lon="3.949731979519129">
        <ele>28.5</ele>
        <time>2018-07-01T13:32:26Z</time>
      </trkpt>
      <trkpt lat="50.960454996675253" lon="3.949830969795585">
        <ele>27.530000000000001</ele>
        <time>2018-07-01T13:32:27Z</time>
      </trkpt>
      <trkpt lat="50.960504030808806" lon="3.949904982000589">
        <ele>27.050000000000001</ele>
        <time>2018-07-01T13:32:28Z</time>
      </trkpt>
      <trkpt lat="50.960563039407134" lon="3.949938006699085">
        <ele>26.57</ele>
        <time>2018-07-01T13:32:29Z</time>
      </trkpt>
      <trkpt lat="50.960623975843191" lon="3.949914034456015">
        <ele>26.09</ele>
        <time>2018-07-01T13:32:30Z</time>
      </trkpt>
      <trkpt lat="50.960698993876576" lon="3.949839016422629">
        <ele>25.609999999999999</ele>
        <time>2018-07-01T13:32:31Z</time>
      </trkpt>
      <trkpt lat="50.960787003859878" lon="3.949737008661032">
        <ele>25.129999999999999</ele>
        <time>2018-07-01T13:32:32Z</time>
      </trkpt>
      <trkpt lat="50.960880964994431" lon="3.949626032263041">
        <ele>25.129999999999999</ele>
        <time>2018-07-01T13:32:33Z</time>
      </trkpt>
      <trkpt lat="50.961962984874845" lon="3.948393976315856">
        <ele>24.170000000000002</ele>
        <time>2018-07-01T13:32:43Z</time>
      </trkpt>
      <trkpt lat="50.963411964476109" lon="3.946841983124614">
        <ele>23.210000000000001</ele>
        <time>2018-07-01T13:32:56Z</time>
      </trkpt>
      <trkpt lat="50.965165039524436" lon="3.945199968293309">
        <ele>19.84</ele>
        <time>2018-07-01T13:33:11Z</time>
      </trkpt>
      <trkpt lat="50.96530401147902" lon="3.944965023547411">
        <ele>19.84</ele>
        <time>2018-07-01T13:33:13Z</time>
      </trkpt>
      <trkpt lat="50.965610034763813" lon="3.944411985576153">
        <ele>18.879999999999999</ele>
        <time>2018-07-01T13:33:19Z</time>
      </trkpt>
      <trkpt lat="50.96564800478518" lon="3.944352976977825">
        <ele>18.879999999999999</ele>
        <time>2018-07-01T13:33:20Z</time>
      </trkpt>
      <trkpt lat="50.965748000890017" lon="3.944199001416564">
        <ele>18.399999999999999</ele>
        <time>2018-07-01T13:33:24Z</time>
      </trkpt>
      <trkpt lat="50.965761998668313" lon="3.944138986989856">
        <ele>18.399999999999999</ele>
        <time>2018-07-01T13:33:25Z</time>
      </trkpt>
      <trkpt lat="50.965800974518061" lon="3.943962967023253">
        <ele>17.920000000000002</ele>
        <time>2018-07-01T13:33:27Z</time>
      </trkpt>
      <trkpt lat="50.966065004467964" lon="3.942940961569548">
        <ele>17.440000000000001</ele>
        <time>2018-07-01T13:33:34Z</time>
      </trkpt>
      <trkpt lat="50.966752991080284" lon="3.940719002857804">
        <ele>14.56</ele>
        <time>2018-07-01T13:33:47Z</time>
      </trkpt>
      <trkpt lat="50.967199997976422" lon="3.939314028248191">
        <ele>15.52</ele>
        <time>2018-07-01T13:33:55Z</time>
      </trkpt>
      <trkpt lat="50.967246014624834" lon="3.939132979139686">
        <ele>15.52</ele>
        <time>2018-07-01T13:33:56Z</time>
      </trkpt>
      <trkpt lat="50.967253977432847" lon="3.938942961394787">
        <ele>16</ele>
        <time>2018-07-01T13:33:57Z</time>
      </trkpt>
      <trkpt lat="50.967266969382763" lon="3.938421020284295">
        <ele>16</ele>
        <time>2018-07-01T13:34:00Z</time>
      </trkpt>
      <trkpt lat="50.967270992696285" lon="3.938257992267609">
        <ele>16</ele>
        <time>2018-07-01T13:34:01Z</time>
      </trkpt>
      <trkpt lat="50.96725900657475" lon="3.938097981736064">
        <ele>16</ele>
        <time>2018-07-01T13:34:02Z</time>
      </trkpt>
      <trkpt lat="50.967188011854887" lon="3.937604958191514">
        <ele>15.52</ele>
        <time>2018-07-01T13:34:05Z</time>
      </trkpt>
      <trkpt lat="50.967161022126675" lon="3.937447965145111">
        <ele>15.52</ele>
        <time>2018-07-01T13:34:06Z</time>
      </trkpt>
      <trkpt lat="50.967106036841869" lon="3.937124004587531">
        <ele>14.56</ele>
        <time>2018-07-01T13:34:08Z</time>
      </trkpt>
      <trkpt lat="50.967078041285276" lon="3.936957959085703">
        <ele>14.08</ele>
        <time>2018-07-01T13:34:09Z</time>
      </trkpt>
      <trkpt lat="50.966718960553408" lon="3.934854017570615">
        <ele>12.630000000000001</ele>
        <time>2018-07-01T13:34:21Z</time>
      </trkpt>
      <trkpt lat="50.96657101996243" lon="3.933978024870157">
        <ele>14.56</ele>
        <time>2018-07-01T13:34:26Z</time>
      </trkpt>
      <trkpt lat="50.966436993330717" lon="3.93310303799808">
        <ele>15.52</ele>
        <time>2018-07-01T13:34:31Z</time>
      </trkpt>
      <trkpt lat="50.966419978067279" lon="3.932934980839491">
        <ele>15.52</ele>
        <time>2018-07-01T13:34:32Z</time>
      </trkpt>
      <trkpt lat="50.966433975845575" lon="3.932763990014792">
        <ele>15.52</ele>
        <time>2018-07-01T13:34:33Z</time>
      </trkpt>
      <trkpt lat="50.966465994715691" lon="3.932603979483247">
        <ele>15.52</ele>
        <time>2018-07-01T13:34:34Z</time>
      </trkpt>
      <trkpt lat="50.966498013585806" lon="3.932443968951702">
        <ele>15.52</ele>
        <time>2018-07-01T13:34:35Z</time>
      </trkpt>
      <trkpt lat="50.966530032455921" lon="3.932280018925667">
        <ele>15.52</ele>
        <time>2018-07-01T13:34:36Z</time>
      </trkpt>
      <trkpt lat="50.966772018000484" lon="3.930852999910712">
        <ele>16.960000000000001</ele>
        <time>2018-07-01T13:34:45Z</time>
      </trkpt>
      <trkpt lat="50.966773023828864" lon="3.930700030177832">
        <ele>16.960000000000001</ele>
        <time>2018-07-01T13:34:46Z</time>
      </trkpt>
      <trkpt lat="50.966739999130368" lon="3.930554017424583">
        <ele>16.960000000000001</ele>
        <time>2018-07-01T13:34:47Z</time>
      </trkpt>
      <trkpt lat="50.966368010267615" lon="3.929032031446695">
        <ele>21.77</ele>
        <time>2018-07-01T13:34:57Z</time>
      </trkpt>
      <trkpt lat="50.966007001698017" lon="3.928055036813021">
        <ele>24.649999999999999</ele>
        <time>2018-07-01T13:35:05Z</time>
      </trkpt>
      <trkpt lat="50.965965008363128" lon="3.927941964939237">
        <ele>24.649999999999999</ele>
        <time>2018-07-01T13:35:06Z</time>
      </trkpt>
      <trkpt lat="50.965923015028238" lon="3.927823025733233">
        <ele>25.129999999999999</ele>
        <time>2018-07-01T13:35:07Z</time>
      </trkpt>
      <trkpt lat="50.965620009228587" lon="3.926819963380694">
        <ele>31.859999999999999</ele>
        <time>2018-07-01T13:35:16Z</time>
      </trkpt>
      <trkpt lat="50.96560500562191" lon="3.926760032773018">
        <ele>32.340000000000003</ele>
        <time>2018-07-01T13:35:17Z</time>
      </trkpt>
      <trkpt lat="50.965623026713729" lon="3.926714016124606">
        <ele>32.82</ele>
        <time>2018-07-01T13:35:18Z</time>
      </trkpt>
      <trkpt lat="50.965655967593193" lon="3.926690965890884">
        <ele>33.299999999999997</ele>
        <time>2018-07-01T13:35:19Z</time>
      </trkpt>
      <trkpt lat="50.965696033090353" lon="3.92666095867753">
        <ele>34.259999999999998</ele>
        <time>2018-07-01T13:35:20Z</time>
      </trkpt>
      <trkpt lat="50.965749006718397" lon="3.926622988656163">
        <ele>34.740000000000002</ele>
        <time>2018-07-01T13:35:21Z</time>
      </trkpt>
      <trkpt lat="50.965833999216557" lon="3.926560962572694">
        <ele>35.229999999999997</ele>
        <time>2018-07-01T13:35:22Z</time>
      </trkpt>
      <trkpt lat="50.965887978672981" lon="3.926560962572694">
        <ele>35.710000000000001</ele>
        <time>2018-07-01T13:35:23Z</time>
      </trkpt>
      <trkpt lat="50.966152008622885" lon="3.926560962572694">
        <ele>37.149999999999999</ele>
        <time>2018-07-01T13:35:26Z</time>
      </trkpt>
      <trkpt lat="50.966238006949425" lon="3.926533972844482">
        <ele>37.149999999999999</ele>
        <time>2018-07-01T13:35:27Z</time>
      </trkpt>
      <trkpt lat="50.966329034417868" lon="3.926491979509592">
        <ele>37.630000000000003</ele>
        <time>2018-07-01T13:35:28Z</time>
      </trkpt>
      <trkpt lat="50.966429030522704" lon="3.926433976739645">
        <ele>37.630000000000003</ele>
        <time>2018-07-01T13:35:29Z</time>
      </trkpt>
      <trkpt lat="50.966512011364102" lon="3.926330963149667">
        <ele>37.630000000000003</ele>
        <time>2018-07-01T13:35:30Z</time>
      </trkpt>
      <trkpt lat="50.966599015519023" lon="3.926223004236817">
        <ele>37.630000000000003</ele>
        <time>2018-07-01T13:35:31Z</time>
      </trkpt>
      <trkpt lat="50.967304017394781" lon="3.925280040130019">
        <ele>38.109999999999999</ele>
        <time>2018-07-01T13:35:39Z</time>
      </trkpt>
      <trkpt lat="50.967379035428166" lon="3.925136039033532">
        <ele>37.630000000000003</ele>
        <time>2018-07-01T13:35:40Z</time>
      </trkpt>
      <trkpt lat="50.967828975990415" lon="3.923890991136432">
        <ele>34.740000000000002</ele>
        <time>2018-07-01T13:35:48Z</time>
      </trkpt>
      <trkpt lat="50.967974988743663" lon="3.923519002273679">
        <ele>33.780000000000001</ele>
        <time>2018-07-01T13:35:51Z</time>
      </trkpt>
      <trkpt lat="50.968041960150003" lon="3.923405008390546">
        <ele>33.299999999999997</ele>
        <time>2018-07-01T13:35:52Z</time>
      </trkpt>
      <trkpt lat="50.968127958476543" lon="3.923315992578864">
        <ele>33.299999999999997</ele>
        <time>2018-07-01T13:35:53Z</time>
      </trkpt>
      <trkpt lat="50.96822602674365" lon="3.923241980373859">
        <ele>33.299999999999997</ele>
        <time>2018-07-01T13:35:54Z</time>
      </trkpt>
      <trkpt lat="50.968331973999739" lon="3.923160005360842">
        <ele>32.82</ele>
        <time>2018-07-01T13:35:55Z</time>
      </trkpt>
      <trkpt lat="50.969142001122236" lon="3.922668993473053">
        <ele>29.940000000000001</ele>
        <time>2018-07-01T13:36:02Z</time>
      </trkpt>
      <trkpt lat="50.969261024147272" lon="3.922634962946177">
        <ele>29.460000000000001</ele>
        <time>2018-07-01T13:36:03Z</time>
      </trkpt>
      <trkpt lat="50.969818001613021" lon="3.922495990991592">
        <ele>28.5</ele>
        <time>2018-07-01T13:36:08Z</time>
      </trkpt>
      <trkpt lat="50.969915986061096" lon="3.922436982393265">
        <ele>28.02</ele>
        <time>2018-07-01T13:36:09Z</time>
      </trkpt>
      <trkpt lat="50.970006007701159" lon="3.922346038743854">
        <ele>27.050000000000001</ele>
        <time>2018-07-01T13:36:10Z</time>
      </trkpt>
      <trkpt lat="50.970069961622357" lon="3.922213017940521">
        <ele>26.57</ele>
        <time>2018-07-01T13:36:11Z</time>
      </trkpt>
      <trkpt lat="50.970129976049066" lon="3.922073040157557">
        <ele>26.09</ele>
        <time>2018-07-01T13:36:12Z</time>
      </trkpt>
      <trkpt lat="50.970166018232703" lon="3.921912023797631">
        <ele>25.609999999999999</ele>
        <time>2018-07-01T13:36:13Z</time>
      </trkpt>
      <trkpt lat="50.970189990475774" lon="3.921754024922848">
        <ele>25.129999999999999</ele>
        <time>2018-07-01T13:36:14Z</time>
      </trkpt>
      <trkpt lat="50.970233995467424" lon="3.921556966379285">
        <ele>24.649999999999999</ele>
        <time>2018-07-01T13:36:15Z</time>
      </trkpt>
      <trkpt lat="50.970274982973933" lon="3.921369966119528">
        <ele>24.170000000000002</ele>
        <time>2018-07-01T13:36:16Z</time>
      </trkpt>
      <trkpt lat="50.970317982137203" lon="3.92117902636528">
        <ele>23.210000000000001</ele>
        <time>2018-07-01T13:36:17Z</time>
      </trkpt>
      <trkpt lat="50.971029018983245" lon="3.918993026018143">
        <ele>19.84</ele>
        <time>2018-07-01T13:36:28Z</time>
      </trkpt>
      <trkpt lat="50.9718999825418" lon="3.917105002328754">
        <ele>18.399999999999999</ele>
        <time>2018-07-01T13:36:38Z</time>
      </trkpt>
      <trkpt lat="50.972876977175474" lon="3.915254026651382">
        <ele>19.84</ele>
        <time>2018-07-01T13:36:49Z</time>
      </trkpt>
      <trkpt lat="50.973651967942715" lon="3.913559960201383">
        <ele>20.32</ele>
        <time>2018-07-01T13:36:59Z</time>
      </trkpt>
      <trkpt lat="50.973793035373092" lon="3.913175985217094">
        <ele>20.809999999999999</ele>
        <time>2018-07-01T13:37:01Z</time>
      </trkpt>
      <trkpt lat="50.974539024755359" lon="3.911416959017515">
        <ele>18.399999999999999</ele>
        <time>2018-07-01T13:37:11Z</time>
      </trkpt>
      <trkpt lat="50.974653018638492" lon="3.911295002326369">
        <ele>18.399999999999999</ele>
        <time>2018-07-01T13:37:12Z</time>
      </trkpt>
      <trkpt lat="50.974765000864863" lon="3.911174973472953">
        <ele>18.399999999999999</ele>
        <time>2018-07-01T13:37:13Z</time>
      </trkpt>
      <trkpt lat="50.97488603554666" lon="3.911082018166781">
        <ele>18.399999999999999</ele>
        <time>2018-07-01T13:37:14Z</time>
      </trkpt>
      <trkpt lat="50.975010003894567" lon="3.911005994305015">
        <ele>18.399999999999999</ele>
        <time>2018-07-01T13:37:15Z</time>
      </trkpt>
      <trkpt lat="50.975136989727616" lon="3.910950003191829">
        <ele>18.879999999999999</ele>
        <time>2018-07-01T13:37:16Z</time>
      </trkpt>
      <trkpt lat="50.97540495917201" lon="3.910897029563785">
        <ele>19.359999999999999</ele>
        <time>2018-07-01T13:37:18Z</time>
      </trkpt>
      <trkpt lat="50.975533034652472" lon="3.910870961844921">
        <ele>19.359999999999999</ele>
        <time>2018-07-01T13:37:19Z</time>
      </trkpt>
      <trkpt lat="50.975781977176666" lon="3.910821005702019">
        <ele>19.359999999999999</ele>
        <time>2018-07-01T13:37:21Z</time>
      </trkpt>
      <trkpt lat="50.97594098187983" lon="3.910789992660284">
        <ele>19.84</ele>
        <time>2018-07-01T13:37:22Z</time>
      </trkpt>
      <trkpt lat="50.977371018379927" lon="3.910177024081349">
        <ele>19.359999999999999</ele>
        <time>2018-07-01T13:37:31Z</time>
      </trkpt>
      <trkpt lat="50.977826993912458" lon="3.909855997189879">
        <ele>19.84</ele>
        <time>2018-07-01T13:37:34Z</time>
      </trkpt>
      <trkpt lat="50.977969989180565" lon="3.909718031063676">
        <ele>19.359999999999999</ele>
        <time>2018-07-01T13:37:35Z</time>
      </trkpt>
      <trkpt lat="50.979070030152798" lon="3.908340968191624">
        <ele>17.920000000000002</ele>
        <time>2018-07-01T13:37:44Z</time>
      </trkpt>
      <trkpt lat="50.980496965348721" lon="3.906797021627426">
        <ele>16.48</ele>
        <time>2018-07-01T13:37:55Z</time>
      </trkpt>
      <trkpt lat="50.981684010475874" lon="3.906103000044823">
        <ele>16.48</ele>
        <time>2018-07-01T13:38:02Z</time>
      </trkpt>
      <trkpt lat="50.984161030501127" lon="3.905229019001126">
        <ele>13.119999999999999</ele>
        <time>2018-07-01T13:38:14Z</time>
      </trkpt>
      <trkpt lat="50.985634988173842" lon="3.904668018221855">
        <ele>13.6</ele>
        <time>2018-07-01T13:38:22Z</time>
      </trkpt>
      <trkpt lat="50.987357972189784" lon="3.904068041592836">
        <ele>12.630000000000001</ele>
        <time>2018-07-01T13:38:32Z</time>
      </trkpt>
      <trkpt lat="50.988851962611079" lon="3.903679959475994">
        <ele>13.119999999999999</ele>
        <time>2018-07-01T13:38:41Z</time>
      </trkpt>
      <trkpt lat="50.989009039476514" lon="3.903590021654964">
        <ele>13.6</ele>
        <time>2018-07-01T13:38:42Z</time>
      </trkpt>
      <trkpt lat="50.990663962438703" lon="3.902225028723478">
        <ele>15.52</ele>
        <time>2018-07-01T13:38:53Z</time>
      </trkpt>
      <trkpt lat="50.992219978943467" lon="3.901181984692812">
        <ele>15.039999999999999</ele>
        <time>2018-07-01T13:39:03Z</time>
      </trkpt>
      <trkpt lat="50.992785003036261" lon="3.900614026933909">
        <ele>14.08</ele>
        <time>2018-07-01T13:39:07Z</time>
      </trkpt>
      <trkpt lat="50.992904026061296" lon="3.900427026674151">
        <ele>13.6</ele>
        <time>2018-07-01T13:39:08Z</time>
      </trkpt>
      <trkpt lat="50.993023971095681" lon="3.900239020586014">
        <ele>13.6</ele>
        <time>2018-07-01T13:39:09Z</time>
      </trkpt>
      <trkpt lat="50.994311012327671" lon="3.897714978083968">
        <ele>11.19</ele>
        <time>2018-07-01T13:39:21Z</time>
      </trkpt>
      <trkpt lat="50.995262023061514" lon="3.896618960425258">
        <ele>10.710000000000001</ele>
        <time>2018-07-01T13:39:28Z</time>
      </trkpt>
      <trkpt lat="50.996678983792663" lon="3.895813962444663">
        <ele>12.630000000000001</ele>
        <time>2018-07-01T13:39:37Z</time>
      </trkpt>
      <trkpt lat="50.998098962008953" lon="3.894984992220998">
        <ele>17.440000000000001</ele>
        <time>2018-07-01T13:39:46Z</time>
      </trkpt>
      <trkpt lat="50.999193973839283" lon="3.893736004829407">
        <ele>18.399999999999999</ele>
        <time>2018-07-01T13:39:54Z</time>
      </trkpt>
      <trkpt lat="50.999840972945094" lon="3.892933018505573">
        <ele>18.399999999999999</ele>
        <time>2018-07-01T13:40:01Z</time>
      </trkpt>
      <trkpt lat="50.999886989593506" lon="3.892877027392387">
        <ele>17.920000000000002</ele>
        <time>2018-07-01T13:40:02Z</time>
      </trkpt>
      <trkpt lat="50.999924959614873" lon="3.892830004915595">
        <ele>18.399999999999999</ele>
        <time>2018-07-01T13:40:03Z</time>
      </trkpt>
      <trkpt lat="50.999955972656608" lon="3.892791029065847">
        <ele>17.920000000000002</ele>
        <time>2018-07-01T13:40:04Z</time>
      </trkpt>
      <trkpt lat="50.999993020668626" lon="3.892709976062179">
        <ele>18.399999999999999</ele>
        <time>2018-07-01T13:40:05Z</time>
      </trkpt>
      <trkpt lat="50.999986985698342" lon="3.89260402880609">
        <ele>18.399999999999999</ele>
        <time>2018-07-01T13:40:06Z</time>
      </trkpt>
      <trkpt lat="50.99998002871871" lon="3.89247796498239">
        <ele>18.399999999999999</ele>
        <time>2018-07-01T13:40:07Z</time>
      </trkpt>
      <trkpt lat="50.999972987920046" lon="3.892337987199426">
        <ele>17.920000000000002</ele>
        <time>2018-07-01T13:40:08Z</time>
      </trkpt>
      <trkpt lat="50.999964019283652" lon="3.892179988324642">
        <ele>17.440000000000001</ele>
        <time>2018-07-01T13:40:09Z</time>
      </trkpt>
      <trkpt lat="50.999868968501687" lon="3.890460021793842">
        <ele>14.08</ele>
        <time>2018-07-01T13:40:18Z</time>
      </trkpt>
      <trkpt lat="50.999868968501687" lon="3.890337981283665">
        <ele>13.6</ele>
        <time>2018-07-01T13:40:19Z</time>
      </trkpt>
      <trkpt lat="50.999872991815209" lon="3.89026396907866">
        <ele>13.6</ele>
        <time>2018-07-01T13:40:20Z</time>
      </trkpt>
      <trkpt lat="50.999883972108364" lon="3.890054002404213">
        <ele>13.119999999999999</ele>
        <time>2018-07-01T13:40:26Z</time>
      </trkpt>
      <trkpt lat="50.999994026497006" lon="3.890009997412562">
        <ele>12.630000000000001</ele>
        <time>2018-07-01T13:40:27Z</time>
      </trkpt>
      <trkpt lat="51.000048005953431" lon="3.890027012676001">
        <ele>12.15</ele>
        <time>2018-07-01T13:40:28Z</time>
      </trkpt>
      <trkpt lat="51.000120006501675" lon="3.890050984919071">
        <ele>12.15</ele>
        <time>2018-07-01T13:40:29Z</time>
      </trkpt>
      <trkpt lat="51.000203993171453" lon="3.890077974647284">
        <ele>12.15</ele>
        <time>2018-07-01T13:40:30Z</time>
      </trkpt>
      <trkpt lat="51.001134971156716" lon="3.890164978802204">
        <ele>13.6</ele>
        <time>2018-07-01T13:40:38Z</time>
      </trkpt>
      <trkpt lat="51.002123029902577" lon="3.889883011579514">
        <ele>16.48</ele>
        <time>2018-07-01T13:40:46Z</time>
      </trkpt>
      <trkpt lat="51.00249501876533" lon="3.889782009646297">
        <ele>16.960000000000001</ele>
        <time>2018-07-01T13:40:53Z</time>
      </trkpt>
      <trkpt lat="51.002745972946286" lon="3.889690982177854">
        <ele>16.960000000000001</ele>
        <time>2018-07-01T13:40:58Z</time>
      </trkpt>
      <trkpt lat="51.002800958231091" lon="3.889668015763164">
        <ele>16.960000000000001</ele>
        <time>2018-07-01T13:40:59Z</time>
      </trkpt>
      <trkpt lat="51.002849992364645" lon="3.889648988842964">
        <ele>16.960000000000001</ele>
        <time>2018-07-01T13:41:00Z</time>
      </trkpt>
      <trkpt lat="51.002868013456464" lon="3.889515968039632">
        <ele>16.48</ele>
        <time>2018-07-01T13:41:01Z</time>
      </trkpt>
      <trkpt lat="51.002852004021406" lon="3.889433993026614">
        <ele>16.48</ele>
        <time>2018-07-01T13:41:02Z</time>
      </trkpt>
      <trkpt lat="51.002833982929587" lon="3.889342965558171">
        <ele>16.48</ele>
        <time>2018-07-01T13:41:03Z</time>
      </trkpt>
      <trkpt lat="51.002815961837769" lon="3.88925202190876">
        <ele>16.48</ele>
        <time>2018-07-01T13:41:04Z</time>
      </trkpt>
      <trkpt lat="51.002784026786685" lon="3.889095028862357">
        <ele>16</ele>
        <time>2018-07-01T13:41:06Z</time>
      </trkpt>
      <trkpt lat="51.002771034836769" lon="3.889027973636985">
        <ele>16</ele>
        <time>2018-07-01T13:41:07Z</time>
      </trkpt>
      <trkpt lat="51.002756031230092" lon="3.888954967260361">
        <ele>16.48</ele>
        <time>2018-07-01T13:41:08Z</time>
      </trkpt>
      <trkpt lat="51.002658968791366" lon="3.888291036710143">
        <ele>17.440000000000001</ele>
        <time>2018-07-01T13:41:13Z</time>
      </trkpt>
      <trkpt lat="51.002372978255153" lon="3.886344004422426">
        <ele>16.960000000000001</ele>
        <time>2018-07-01T13:41:23Z</time>
      </trkpt>
      <trkpt lat="51.002135016024113" lon="3.884770972654223">
        <ele>13.6</ele>
        <time>2018-07-01T13:41:32Z</time>
      </trkpt>
      <trkpt lat="51.002011969685555" lon="3.883930016309023">
        <ele>12.630000000000001</ele>
        <time>2018-07-01T13:41:39Z</time>
      </trkpt>
      <trkpt lat="51.001999983564019" lon="3.883436992764473">
        <ele>11.19</ele>
        <time>2018-07-01T13:41:43Z</time>
      </trkpt>
      <trkpt lat="51.001984979957342" lon="3.883316963911057">
        <ele>10.710000000000001</ele>
        <time>2018-07-01T13:41:44Z</time>
      </trkpt>
      <trkpt lat="51.001970982179046" lon="3.883200958371162">
        <ele>10.23</ele>
        <time>2018-07-01T13:41:45Z</time>
      </trkpt>
      <trkpt lat="51.001906022429466" lon="3.882669964805245">
        <ele>8.310000000000001</ele>
        <time>2018-07-01T13:41:52Z</time>
      </trkpt>
      <trkpt lat="51.001894036307931" lon="3.882598970085383">
        <ele>7.83</ele>
        <time>2018-07-01T13:41:53Z</time>
      </trkpt>
      <trkpt lat="51.001754980534315" lon="3.881815010681748">
        <ele>5.42</ele>
        <time>2018-07-01T13:42:01Z</time>
      </trkpt>
      <trkpt lat="51.001740982756019" lon="3.881740998476744">
        <ele>5.42</ele>
        <time>2018-07-01T13:42:02Z</time>
      </trkpt>
      <trkpt lat="51.001757998019457" lon="3.881634967401624">
        <ele>5.42</ele>
        <time>2018-07-01T13:42:03Z</time>
      </trkpt>
      <trkpt lat="51.001777024939656" lon="3.881590040400624">
        <ele>5.91</ele>
        <time>2018-07-01T13:42:04Z</time>
      </trkpt>
      <trkpt lat="51.001810971647501" lon="3.881530025973916">
        <ele>5.91</ele>
        <time>2018-07-01T13:42:05Z</time>
      </trkpt>
      <trkpt lat="51.001858999952674" lon="3.881484009325504">
        <ele>5.91</ele>
        <time>2018-07-01T13:42:06Z</time>
      </trkpt>
      <trkpt lat="51.002041976898909" lon="3.881308995187283">
        <ele>5.91</ele>
        <time>2018-07-01T13:42:09Z</time>
      </trkpt>
      <trkpt lat="51.002713032066822" lon="3.88072201050818">
        <ele>6.39</ele>
        <time>2018-07-01T13:42:19Z</time>
      </trkpt>
      <trkpt lat="51.002784026786685" lon="3.880664007738233">
        <ele>6.39</ele>
        <time>2018-07-01T13:42:20Z</time>
      </trkpt>
      <trkpt lat="51.003003967925906" lon="3.880482036620379">
        <ele>3.98</ele>
        <time>2018-07-01T13:42:26Z</time>
      </trkpt>
      <trkpt lat="51.003148974850774" lon="3.880363013595343">
        <ele>2.06</ele>
        <time>2018-07-01T13:42:32Z</time>
      </trkpt>
      <trkpt lat="51.003274032846093" lon="3.880354966968298">
        <ele>1.58</ele>
        <time>2018-07-01T13:42:33Z</time>
      </trkpt>
      <trkpt lat="51.003320971503854" lon="3.880277015268803">
        <ele>1.58</ele>
        <time>2018-07-01T13:42:34Z</time>
      </trkpt>
      <trkpt lat="51.003524987027049" lon="3.879934027791023">
        <ele>1.1</ele>
        <time>2018-07-01T13:42:37Z</time>
      </trkpt>
      <trkpt lat="51.004684958606958" lon="3.878838010132313">
        <ele>1.58</ele>
        <time>2018-07-01T13:42:48Z</time>
      </trkpt>
      <trkpt lat="51.006193030625582" lon="3.877405039966106">
        <ele>2.06</ele>
        <time>2018-07-01T13:43:01Z</time>
      </trkpt>
      <trkpt lat="51.007187040522695" lon="3.876459980383515">
        <ele>6.87</ele>
        <time>2018-07-01T13:43:10Z</time>
      </trkpt>
      <trkpt lat="51.00771501660347" lon="3.876008028164506">
        <ele>6.87</ele>
        <time>2018-07-01T13:43:16Z</time>
      </trkpt>
      <trkpt lat="51.007805038243532" lon="3.875941978767514">
        <ele>6.39</ele>
        <time>2018-07-01T13:43:17Z</time>
      </trkpt>
      <trkpt lat="51.007892964407802" lon="3.875941978767514">
        <ele>5.91</ele>
        <time>2018-07-01T13:43:18Z</time>
      </trkpt>
      <trkpt lat="51.007998995482922" lon="3.875941978767514">
        <ele>5.91</ele>
        <time>2018-07-01T13:43:19Z</time>
      </trkpt>
      <trkpt lat="51.008069990202785" lon="3.875990007072687">
        <ele>5.42</ele>
        <time>2018-07-01T13:43:20Z</time>
      </trkpt>
      <trkpt lat="51.008151965215802" lon="3.876067958772183">
        <ele>5.42</ele>
        <time>2018-07-01T13:43:21Z</time>
      </trkpt>
      <trkpt lat="51.008218014612794" lon="3.876176001504064">
        <ele>4.94</ele>
        <time>2018-07-01T13:43:22Z</time>
      </trkpt>
      <trkpt lat="51.008298983797431" lon="3.876307010650635">
        <ele>4.94</ele>
        <time>2018-07-01T13:43:23Z</time>
      </trkpt>
      <trkpt lat="51.008337959647179" lon="3.876442965120077">
        <ele>4.46</ele>
        <time>2018-07-01T13:43:24Z</time>
      </trkpt>
      <trkpt lat="51.008378025144339" lon="3.876582020893693">
        <ele>3.98</ele>
        <time>2018-07-01T13:43:25Z</time>
      </trkpt>
      <trkpt lat="51.008415995165706" lon="3.876716969534755">
        <ele>3.98</ele>
        <time>2018-07-01T13:43:26Z</time>
      </trkpt>
      <trkpt lat="51.008602995425463" lon="3.877454996109009">
        <ele>0.14</ele>
        <time>2018-07-01T13:43:33Z</time>
      </trkpt>
      <trkpt lat="51.008664015680552" lon="3.877659011632204">
        <ele>-2.27</ele>
        <time>2018-07-01T13:43:37Z</time>
      </trkpt>
      <trkpt lat="51.008664015680552" lon="3.877659011632204">
        <ele>-2.75</ele>
        <time>2018-07-01T13:43:38Z</time>
      </trkpt>
      <trkpt lat="51.008663009852171" lon="3.877851041033864">
        <ele>-2.75</ele>
        <time>2018-07-01T13:43:39Z</time>
      </trkpt>
      <trkpt lat="51.008732998743653" lon="3.877881970256567">
        <ele>-2.75</ele>
        <time>2018-07-01T13:43:40Z</time>
      </trkpt>
      <trkpt lat="51.008779015392065" lon="3.877859003841877">
        <ele>-3.23</ele>
        <time>2018-07-01T13:43:41Z</time>
      </trkpt>
      <trkpt lat="51.00881396792829" lon="3.877702010795474">
        <ele>-3.23</ele>
        <time>2018-07-01T13:43:42Z</time>
      </trkpt>
      <trkpt lat="51.008864007890224" lon="3.877664962783456">
        <ele>-3.23</ele>
        <time>2018-07-01T13:43:43Z</time>
      </trkpt>
      <trkpt lat="51.008929973468184" lon="3.877615006640554">
        <ele>-3.23</ele>
        <time>2018-07-01T13:43:44Z</time>
      </trkpt>
      <trkpt lat="51.008999040350318" lon="3.877560021355748">
        <ele>-3.71</ele>
        <time>2018-07-01T13:43:45Z</time>
      </trkpt>
      <trkpt lat="51.009067017585039" lon="3.877491960301995">
        <ele>-4.19</ele>
        <time>2018-07-01T13:43:46Z</time>
      </trkpt>
      <trkpt lat="51.009303973987699" lon="3.877255003899336">
        <ele>-5.15</ele>
        <time>2018-07-01T13:43:49Z</time>
      </trkpt>
      <trkpt lat="51.009368011727929" lon="3.877160036936402">
        <ele>-4.67</ele>
        <time>2018-07-01T13:43:50Z</time>
      </trkpt>
      <trkpt lat="51.009414028376341" lon="3.877029027789831">
        <ele>-4.67</ele>
        <time>2018-07-01T13:43:51Z</time>
      </trkpt>
      <trkpt lat="51.009458033367991" lon="3.876907993108034">
        <ele>-4.67</ele>
        <time>2018-07-01T13:43:52Z</time>
      </trkpt>
      <trkpt lat="51.009450992569327" lon="3.876761980354786">
        <ele>-5.15</ele>
        <time>2018-07-01T13:43:53Z</time>
      </trkpt>
      <trkpt lat="51.009444035589695" lon="3.876604987308383">
        <ele>-5.63</ele>
        <time>2018-07-01T13:43:54Z</time>
      </trkpt>
      <trkpt lat="51.00943598896265" lon="3.876436008140445">
        <ele>-5.63</ele>
        <time>2018-07-01T13:43:55Z</time>
      </trkpt>
      <trkpt lat="51.009400030598044" lon="3.876312039792538">
        <ele>-5.63</ele>
        <time>2018-07-01T13:43:56Z</time>
      </trkpt>
      <trkpt lat="51.009356025606394" lon="3.876157980412245">
        <ele>-6.11</ele>
        <time>2018-07-01T13:43:57Z</time>
      </trkpt>
      <trkpt lat="51.008916981518269" lon="3.87459802441299">
        <ele>-4.19</ele>
        <time>2018-07-01T13:44:06Z</time>
      </trkpt>
      <trkpt lat="51.00876702927053" lon="3.87404004111886">
        <ele>-4.67</ele>
        <time>2018-07-01T13:44:10Z</time>
      </trkpt>
      <trkpt lat="51.008734004572034" lon="3.873915988951922">
        <ele>-4.67</ele>
        <time>2018-07-01T13:44:11Z</time>
      </trkpt>
      <trkpt lat="51.008700979873538" lon="3.873793026432395">
        <ele>-4.67</ele>
        <time>2018-07-01T13:44:12Z</time>
      </trkpt>
      <trkpt lat="51.008668038994074" lon="3.873669980093837">
        <ele>-5.63</ele>
        <time>2018-07-01T13:44:13Z</time>
      </trkpt>
      <trkpt lat="51.008635014295578" lon="3.873548023402691">
        <ele>-6.11</ele>
        <time>2018-07-01T13:44:14Z</time>
      </trkpt>
      <trkpt lat="51.008600983768702" lon="3.873421959578991">
        <ele>-6.11</ele>
        <time>2018-07-01T13:44:15Z</time>
      </trkpt>
      <trkpt lat="51.008520014584064" lon="3.873017029836774">
        <ele>-5.15</ele>
        <time>2018-07-01T13:44:18Z</time>
      </trkpt>
      <trkpt lat="51.008493024855852" lon="3.87273196130991">
        <ele>-4.19</ele>
        <time>2018-07-01T13:44:20Z</time>
      </trkpt>
      <trkpt lat="51.00846704095602" lon="3.872126033529639">
        <ele>-1.79</ele>
        <time>2018-07-01T13:44:24Z</time>
      </trkpt>
      <trkpt lat="51.008693017065525" lon="3.870504973456264">
        <ele>1.1</ele>
        <time>2018-07-01T13:44:34Z</time>
      </trkpt>
      <trkpt lat="51.008754959329963" lon="3.869797959923744">
        <ele>1.1</ele>
        <time>2018-07-01T13:44:38Z</time>
      </trkpt>
      <trkpt lat="51.008847998455167" lon="3.867519004270434">
        <ele>1.1</ele>
        <time>2018-07-01T13:44:50Z</time>
      </trkpt>
      <trkpt lat="51.008783960714936" lon="3.866954986006022">
        <ele>0.62</ele>
        <time>2018-07-01T13:44:53Z</time>
      </trkpt>
      <trkpt lat="51.008751019835472" lon="3.866767985746265">
        <ele>0.62</ele>
        <time>2018-07-01T13:44:54Z</time>
      </trkpt>
      <trkpt lat="51.008213991299272" lon="3.864959003403783">
        <ele>3.5</ele>
        <time>2018-07-01T13:45:04Z</time>
      </trkpt>
      <trkpt lat="51.008204016834497" lon="3.864787006750703">
        <ele>3.5</ele>
        <time>2018-07-01T13:45:05Z</time>
      </trkpt>
      <trkpt lat="51.008194964379072" lon="3.864618027582765">
        <ele>3.5</ele>
        <time>2018-07-01T13:45:06Z</time>
      </trkpt>
      <trkpt lat="51.00821197964251" lon="3.864452987909317">
        <ele>3.5</ele>
        <time>2018-07-01T13:45:07Z</time>
      </trkpt>
      <trkpt lat="51.008247015997767" lon="3.864284008741379">
        <ele>3.5</ele>
        <time>2018-07-01T13:45:08Z</time>
      </trkpt>
      <trkpt lat="51.008293032646179" lon="3.864113017916679">
        <ele>3.02</ele>
        <time>2018-07-01T13:45:09Z</time>
      </trkpt>
      <trkpt lat="51.008368972688913" lon="3.863972034305334">
        <ele>3.02</ele>
        <time>2018-07-01T13:45:10Z</time>
      </trkpt>
      <trkpt lat="51.00844700820744" lon="3.863829961046577">
        <ele>3.5</ele>
        <time>2018-07-01T13:45:11Z</time>
      </trkpt>
      <trkpt lat="51.008535018190742" lon="3.863668022677302">
        <ele>3.02</ele>
        <time>2018-07-01T13:45:12Z</time>
      </trkpt>
      <trkpt lat="51.008687987923622" lon="3.863378008827567">
        <ele>3.02</ele>
        <time>2018-07-01T13:45:14Z</time>
      </trkpt>
      <trkpt lat="51.008729981258512" lon="3.863196959719062">
        <ele>2.54</ele>
        <time>2018-07-01T13:45:15Z</time>
      </trkpt>
      <trkpt lat="51.008755965158343" lon="3.863021023571491">
        <ele>2.54</ele>
        <time>2018-07-01T13:45:16Z</time>
      </trkpt>
      <trkpt lat="51.00877096876502" lon="3.862833017483354">
        <ele>2.54</ele>
        <time>2018-07-01T13:45:17Z</time>
      </trkpt>
      <trkpt lat="51.008762000128627" lon="3.862638976424933">
        <ele>2.54</ele>
        <time>2018-07-01T13:45:18Z</time>
      </trkpt>
      <trkpt lat="51.008751019835472" lon="3.862432027235627">
        <ele>2.54</ele>
        <time>2018-07-01T13:45:19Z</time>
      </trkpt>
      <trkpt lat="51.008588997647166" lon="3.860048968344927">
        <ele>3.98</ele>
        <time>2018-07-01T13:45:30Z</time>
      </trkpt>
      <trkpt lat="51.008625961840153" lon="3.857957012951374">
        <ele>4.94</ele>
        <time>2018-07-01T13:45:39Z</time>
      </trkpt>
      <trkpt lat="51.008504005149007" lon="3.855809988453984">
        <ele>9.75</ele>
        <time>2018-07-01T13:45:48Z</time>
      </trkpt>
      <trkpt lat="51.008643982931972" lon="3.85399698279798">
        <ele>8.310000000000001</ele>
        <time>2018-07-01T13:45:56Z</time>
      </trkpt>
      <trkpt lat="51.009268015623093" lon="3.850802974775434">
        <ele>7.35</ele>
        <time>2018-07-01T13:46:10Z</time>
      </trkpt>
      <trkpt lat="51.009761039167643" lon="3.848438020795584">
        <ele>3.98</ele>
        <time>2018-07-01T13:46:20Z</time>
      </trkpt>
      <trkpt lat="51.010721018537879" lon="3.845249963924289">
        <ele>4.46</ele>
        <time>2018-07-01T13:46:36Z</time>
      </trkpt>
      <trkpt lat="51.010889997705817" lon="3.844658033922315">
        <ele>4.46</ele>
        <time>2018-07-01T13:46:39Z</time>
      </trkpt>
      <trkpt lat="51.010945988819003" lon="3.844459969550371">
        <ele>4.46</ele>
        <time>2018-07-01T13:46:40Z</time>
      </trkpt>
      <trkpt lat="51.011008014902472" lon="3.844041964039207">
        <ele>4.46</ele>
        <time>2018-07-01T13:46:42Z</time>
      </trkpt>
      <trkpt lat="51.011125026270747" lon="3.84172503836453">
        <ele>5.42</ele>
        <time>2018-07-01T13:46:52Z</time>
      </trkpt>
      <trkpt lat="51.011236002668738" lon="3.839327981695533">
        <ele>3.98</ele>
        <time>2018-07-01T13:47:02Z</time>
      </trkpt>
      <trkpt lat="51.011309009045362" lon="3.837049026042223">
        <ele>1.58</ele>
        <time>2018-07-01T13:47:12Z</time>
      </trkpt>
      <trkpt lat="51.011123014613986" lon="3.834717012941837">
        <ele>0.62</ele>
        <time>2018-07-01T13:47:23Z</time>
      </trkpt>
      <trkpt lat="51.0112189874053" lon="3.831457039341331">
        <ele>1.1</ele>
        <time>2018-07-01T13:47:38Z</time>
      </trkpt>
      <trkpt lat="51.011202977970243" lon="3.828808022662997">
        <ele>1.1</ele>
        <time>2018-07-01T13:47:50Z</time>
      </trkpt>
      <trkpt lat="51.011117985472083" lon="3.827196015045047">
        <ele>0.14</ele>
        <time>2018-07-01T13:47:57Z</time>
      </trkpt>
      <trkpt lat="51.011403976008296" lon="3.824434010311961">
        <ele>1.1</ele>
        <time>2018-07-01T13:48:09Z</time>
      </trkpt>
      <trkpt lat="51.012116018682718" lon="3.822072995826602">
        <ele>2.06</ele>
        <time>2018-07-01T13:48:20Z</time>
      </trkpt>
      <trkpt lat="51.012882962822914" lon="3.820037031546235">
        <ele>3.02</ele>
        <time>2018-07-01T13:48:30Z</time>
      </trkpt>
      <trkpt lat="51.013052025809884" lon="3.819588012993336">
        <ele>2.54</ele>
        <time>2018-07-01T13:48:32Z</time>
      </trkpt>
      <trkpt lat="51.013104999437928" lon="3.819338986650109">
        <ele>2.06</ele>
        <time>2018-07-01T13:48:33Z</time>
      </trkpt>
      <trkpt lat="51.013491991907358" lon="3.817246025428176">
        <ele>1.58</ele>
        <time>2018-07-01T13:48:43Z</time>
      </trkpt>
      <trkpt lat="51.013485034927726" lon="3.817114010453224">
        <ele>2.06</ele>
        <time>2018-07-01T13:48:44Z</time>
      </trkpt>
      <trkpt lat="51.013420997187495" lon="3.816999010741711">
        <ele>2.06</ele>
        <time>2018-07-01T13:48:45Z</time>
      </trkpt>
      <trkpt lat="51.013344973325729" lon="3.816862972453237">
        <ele>2.06</ele>
        <time>2018-07-01T13:48:46Z</time>
      </trkpt>
      <trkpt lat="51.013261992484331" lon="3.816713020205498">
        <ele>2.06</ele>
        <time>2018-07-01T13:48:47Z</time>
      </trkpt>
      <trkpt lat="51.013174988329411" lon="3.816557032987475">
        <ele>2.06</ele>
        <time>2018-07-01T13:48:48Z</time>
      </trkpt>
      <trkpt lat="51.013094019144773" lon="3.816412026062608">
        <ele>2.06</ele>
        <time>2018-07-01T13:48:49Z</time>
      </trkpt>
      <trkpt lat="51.013057976961136" lon="3.816231982782483">
        <ele>2.06</ele>
        <time>2018-07-01T13:48:50Z</time>
      </trkpt>
      <trkpt lat="51.013051019981503" lon="3.816040959209204">
        <ele>2.54</ele>
        <time>2018-07-01T13:48:51Z</time>
      </trkpt>
      <trkpt lat="51.013043979182839" lon="3.81583602167666">
        <ele>2.54</ele>
        <time>2018-07-01T13:48:52Z</time>
      </trkpt>
      <trkpt lat="51.013060994446278" lon="3.815635023638606">
        <ele>2.54</ele>
        <time>2018-07-01T13:48:53Z</time>
      </trkpt>
      <trkpt lat="51.013092007488012" lon="3.815446011722088">
        <ele>2.54</ele>
        <time>2018-07-01T13:48:54Z</time>
      </trkpt>
      <trkpt lat="51.013122014701366" lon="3.815266974270344">
        <ele>2.54</ele>
        <time>2018-07-01T13:48:55Z</time>
      </trkpt>
      <trkpt lat="51.013200972229242" lon="3.81514803506434">
        <ele>2.54</ele>
        <time>2018-07-01T13:48:56Z</time>
      </trkpt>
      <trkpt lat="51.013294011354446" lon="3.815034963190556">
        <ele>2.54</ele>
        <time>2018-07-01T13:48:57Z</time>
      </trkpt>
      <trkpt lat="51.013393001630902" lon="3.81491401232779">
        <ele>2.54</ele>
        <time>2018-07-01T13:48:58Z</time>
      </trkpt>
      <trkpt lat="51.014165980741382" lon="3.81397096440196">
        <ele>2.06</ele>
        <time>2018-07-01T13:49:05Z</time>
      </trkpt>
      <trkpt lat="51.014352981001139" lon="3.813742976635695">
        <ele>0.62</ele>
        <time>2018-07-01T13:49:09Z</time>
      </trkpt>
      <trkpt lat="51.01437795907259" lon="3.81371296942234">
        <ele>0.62</ele>
        <time>2018-07-01T13:49:10Z</time>
      </trkpt>
      <trkpt lat="51.014394974336028" lon="3.813692014664412">
        <ele>0.14</ele>
        <time>2018-07-01T13:49:11Z</time>
      </trkpt>
      <trkpt lat="51.014408972114325" lon="3.813674999400973">
        <ele>-0.34</ele>
        <time>2018-07-01T13:49:12Z</time>
      </trkpt>
      <trkpt lat="51.01442095823586" lon="3.813659995794296">
        <ele>-0.82</ele>
        <time>2018-07-01T13:49:13Z</time>
      </trkpt>
      <trkpt lat="51.014431016519666" lon="3.813648009672761">
        <ele>-1.3</ele>
        <time>2018-07-01T13:49:14Z</time>
      </trkpt>
      <trkpt lat="51.014431016519666" lon="3.813648009672761">
        <ele>-1.79</ele>
        <time>2018-07-01T13:49:29Z</time>
      </trkpt>
      <trkpt lat="51.014431016519666" lon="3.813648009672761">
        <ele>-2.27</ele>
        <time>2018-07-01T13:50:10Z</time>
      </trkpt>
      <trkpt lat="51.014452977105975" lon="3.813622025772929">
        <ele>-2.27</ele>
        <time>2018-07-01T13:50:43Z</time>
      </trkpt>
      <trkpt lat="51.014481978490949" lon="3.813585983589292">
        <ele>-2.27</ele>
        <time>2018-07-01T13:50:44Z</time>
      </trkpt>
      <trkpt lat="51.014751959592104" lon="3.813255988061428">
        <ele>-2.27</ele>
        <time>2018-07-01T13:50:48Z</time>
      </trkpt>
      <trkpt lat="51.014847010374069" lon="3.813140988349915">
        <ele>-2.27</ele>
        <time>2018-07-01T13:50:49Z</time>
      </trkpt>
      <trkpt lat="51.015949985012412" lon="3.811874985694885">
        <ele>-1.3</ele>
        <time>2018-07-01T13:50:58Z</time>
      </trkpt>
      <trkpt lat="51.016431022435427" lon="3.811354972422123">
        <ele>-0.34</ele>
        <time>2018-07-01T13:51:02Z</time>
      </trkpt>
      <trkpt lat="51.016537975519896" lon="3.81117501296103">
        <ele>0.14</ele>
        <time>2018-07-01T13:51:03Z</time>
      </trkpt>
      <trkpt lat="51.017095958814025" lon="3.810321986675263">
        <ele>1.1</ele>
        <time>2018-07-01T13:51:08Z</time>
      </trkpt>
      <trkpt lat="51.017231997102499" lon="3.810190977528691">
        <ele>1.58</ele>
        <time>2018-07-01T13:51:09Z</time>
      </trkpt>
      <trkpt lat="51.017379015684128" lon="3.8100990280509">
        <ele>1.58</ele>
        <time>2018-07-01T13:51:10Z</time>
      </trkpt>
      <trkpt lat="51.01753399707377" lon="3.810024010017514">
        <ele>2.06</ele>
        <time>2018-07-01T13:51:11Z</time>
      </trkpt>
      <trkpt lat="51.017698030918837" lon="3.809944968670607">
        <ele>2.06</ele>
        <time>2018-07-01T13:51:12Z</time>
      </trkpt>
      <trkpt lat="51.017890982329845" lon="3.809853019192815">
        <ele>2.54</ele>
        <time>2018-07-01T13:51:13Z</time>
      </trkpt>
      <trkpt lat="51.018053004518151" lon="3.809860982000828">
        <ele>2.54</ele>
        <time>2018-07-01T13:51:14Z</time>
      </trkpt>
      <trkpt lat="51.018235981464386" lon="3.809870034456253">
        <ele>3.02</ele>
        <time>2018-07-01T13:51:15Z</time>
      </trkpt>
      <trkpt lat="51.018422981724143" lon="3.809915967285633">
        <ele>3.5</ele>
        <time>2018-07-01T13:51:16Z</time>
      </trkpt>
      <trkpt lat="51.018611993640661" lon="3.80999400280416">
        <ele>3.98</ele>
        <time>2018-07-01T13:51:17Z</time>
      </trkpt>
      <trkpt lat="51.018804023042321" lon="3.810072038322687">
        <ele>4.46</ele>
        <time>2018-07-01T13:51:18Z</time>
      </trkpt>
      <trkpt lat="51.019342979416251" lon="3.810264989733696">
        <ele>5.42</ele>
        <time>2018-07-01T13:51:21Z</time>
      </trkpt>
      <trkpt lat="51.01951003074646" lon="3.810276975855231">
        <ele>5.91</ele>
        <time>2018-07-01T13:51:22Z</time>
      </trkpt>
      <trkpt lat="51.019670963287354" lon="3.810248980298638">
        <ele>6.39</ele>
        <time>2018-07-01T13:51:23Z</time>
      </trkpt>
      <trkpt lat="51.019829967990518" lon="3.81018796004355">
        <ele>6.87</ele>
        <time>2018-07-01T13:51:24Z</time>
      </trkpt>
      <trkpt lat="51.01998302154243" lon="3.810085030272603">
        <ele>7.35</ele>
        <time>2018-07-01T13:51:25Z</time>
      </trkpt>
      <trkpt lat="51.020143032073975" lon="3.809961983934045">
        <ele>7.35</ele>
        <time>2018-07-01T13:51:26Z</time>
      </trkpt>
      <trkpt lat="51.021023970097303" lon="3.809157991781831">
        <ele>7.35</ele>
        <time>2018-07-01T13:51:32Z</time>
      </trkpt>
      <trkpt lat="51.021157996729016" lon="3.808973003178835">
        <ele>6.39</ele>
        <time>2018-07-01T13:51:33Z</time>
      </trkpt>
      <trkpt lat="51.021268973127007" lon="3.808734035119414">
        <ele>5.91</ele>
        <time>2018-07-01T13:51:34Z</time>
      </trkpt>
      <trkpt lat="51.022014962509274" lon="3.807035023346543">
        <ele>2.06</ele>
        <time>2018-07-01T13:51:42Z</time>
      </trkpt>
      <trkpt lat="51.022182013839483" lon="3.806678960099816">
        <ele>2.06</ele>
        <time>2018-07-01T13:51:44Z</time>
      </trkpt>
      <trkpt lat="51.022275974974036" lon="3.806518027558923">
        <ele>1.58</ele>
        <time>2018-07-01T13:51:45Z</time>
      </trkpt>
      <trkpt lat="51.023004027083516" lon="3.805711017921567">
        <ele>0.62</ele>
        <time>2018-07-01T13:51:53Z</time>
      </trkpt>
      <trkpt lat="51.024113958701491" lon="3.804745003581047">
        <ele>0.14</ele>
        <time>2018-07-01T13:52:04Z</time>
      </trkpt>
      <trkpt lat="51.024189982563257" lon="3.804636960849166">
        <ele>0.62</ele>
        <time>2018-07-01T13:52:05Z</time>
      </trkpt>
      <trkpt lat="51.024333983659744" lon="3.804436968639493">
        <ele>0.62</ele>
        <time>2018-07-01T13:52:07Z</time>
      </trkpt>
      <trkpt lat="51.024973019957542" lon="3.803460979834199">
        <ele>1.58</ele>
        <time>2018-07-01T13:52:17Z</time>
      </trkpt>
      <trkpt lat="51.025663018226624" lon="3.802437968552113">
        <ele>3.98</ele>
        <time>2018-07-01T13:52:28Z</time>
      </trkpt>
      <trkpt lat="51.025825040414929" lon="3.802208974957466">
        <ele>3.5</ele>
        <time>2018-07-01T13:52:32Z</time>
      </trkpt>
      <trkpt lat="51.025886982679367" lon="3.802191037684679">
        <ele>3.5</ele>
        <time>2018-07-01T13:52:33Z</time>
      </trkpt>
      <trkpt lat="51.025952026247978" lon="3.802229007706046">
        <ele>3.5</ele>
        <time>2018-07-01T13:52:34Z</time>
      </trkpt>
      <trkpt lat="51.026027966290712" lon="3.802273012697697">
        <ele>3.5</ele>
        <time>2018-07-01T13:52:35Z</time>
      </trkpt>
      <trkpt lat="51.026114970445633" lon="3.80232397466898">
        <ele>3.98</ele>
        <time>2018-07-01T13:52:36Z</time>
      </trkpt>
      <trkpt lat="51.027109986171126" lon="3.802728988230228">
        <ele>5.91</ele>
        <time>2018-07-01T13:52:46Z</time>
      </trkpt>
      <trkpt lat="51.027664029970765" lon="3.802712978795171">
        <ele>5.91</ele>
        <time>2018-07-01T13:52:51Z</time>
      </trkpt>
      <trkpt lat="51.028185971081257" lon="3.802456995472312">
        <ele>5.91</ele>
        <time>2018-07-01T13:52:56Z</time>
      </trkpt>
      <trkpt lat="51.028742026537657" lon="3.802183996886015">
        <ele>7.35</ele>
        <time>2018-07-01T13:53:04Z</time>
      </trkpt>
      <trkpt lat="51.028832970187068" lon="3.80208701826632">
        <ele>7.83</ele>
        <time>2018-07-01T13:53:07Z</time>
      </trkpt>
      <trkpt lat="51.02885602042079" lon="3.802019963040948">
        <ele>7.83</ele>
        <time>2018-07-01T13:53:08Z</time>
      </trkpt>
      <trkpt lat="51.028884015977383" lon="3.801933964714408">
        <ele>7.83</ele>
        <time>2018-07-01T13:53:09Z</time>
      </trkpt>
      <trkpt lat="51.028917040675879" lon="3.801835980266333">
        <ele>7.83</ele>
        <time>2018-07-01T13:53:10Z</time>
      </trkpt>
      <trkpt lat="51.02894201874733" lon="3.801728021353483">
        <ele>8.310000000000001</ele>
        <time>2018-07-01T13:53:11Z</time>
      </trkpt>
      <trkpt lat="51.028946964070201" lon="3.801603969186544">
        <ele>8.789999999999999</ele>
        <time>2018-07-01T13:53:12Z</time>
      </trkpt>
      <trkpt lat="51.028956016525626" lon="3.801339017227292">
        <ele>10.23</ele>
        <time>2018-07-01T13:53:14Z</time>
      </trkpt>
      <trkpt lat="51.028960039839149" lon="3.801224017515779">
        <ele>10.710000000000001</ele>
        <time>2018-07-01T13:53:15Z</time>
      </trkpt>
      <trkpt lat="51.028960039839149" lon="3.801115974783897">
        <ele>10.710000000000001</ele>
        <time>2018-07-01T13:53:16Z</time>
      </trkpt>
      <trkpt lat="51.028946964070201" lon="3.801009021699429">
        <ele>11.19</ele>
        <time>2018-07-01T13:53:17Z</time>
      </trkpt>
      <trkpt lat="51.028934977948666" lon="3.800911959260702">
        <ele>11.67</ele>
        <time>2018-07-01T13:53:18Z</time>
      </trkpt>
      <trkpt lat="51.028923997655511" lon="3.800817998126149">
        <ele>11.67</ele>
        <time>2018-07-01T13:53:19Z</time>
      </trkpt>
      <trkpt lat="51.028914023190737" lon="3.800729988142848">
        <ele>11.19</ele>
        <time>2018-07-01T13:53:20Z</time>
      </trkpt>
      <trkpt lat="51.028905976563692" lon="3.800665028393269">
        <ele>11.19</ele>
        <time>2018-07-01T13:53:21Z</time>
      </trkpt>
      <trkpt lat="51.028915029019117" lon="3.8005839753896">
        <ele>11.19</ele>
        <time>2018-07-01T13:53:22Z</time>
      </trkpt>
      <trkpt lat="51.028937995433807" lon="3.800554974004626">
        <ele>11.19</ele>
        <time>2018-07-01T13:53:23Z</time>
      </trkpt>
      <trkpt lat="51.028956016525626" lon="3.800533013418317">
        <ele>11.67</ele>
        <time>2018-07-01T13:53:24Z</time>
      </trkpt>
      <trkpt lat="51.028980994597077" lon="3.800489008426666">
        <ele>11.67</ele>
        <time>2018-07-01T13:53:25Z</time>
      </trkpt>
      <trkpt lat="51.028971020132303" lon="3.800467969849706">
        <ele>11.67</ele>
        <time>2018-07-01T13:53:26Z</time>
      </trkpt>
      <trkpt lat="51.028960961848497" lon="3.800445003435016">
        <ele>11.19</ele>
        <time>2018-07-01T13:53:27Z</time>
      </trkpt>
      <trkpt lat="51.028949981555343" lon="3.800420025363565">
        <ele>10.23</ele>
        <time>2018-07-01T13:53:28Z</time>
      </trkpt>
      <trkpt lat="51.028934977948666" lon="3.800387000665069">
        <ele>9.75</ele>
        <time>2018-07-01T13:53:29Z</time>
      </trkpt>
      <trkpt lat="51.028907988220453" lon="3.80032598040998">
        <ele>8.789999999999999</ele>
        <time>2018-07-01T13:53:30Z</time>
      </trkpt>
      <trkpt lat="51.028870018199086" lon="3.800242999568582">
        <ele>8.310000000000001</ele>
        <time>2018-07-01T13:53:31Z</time>
      </trkpt>
      <trkpt lat="51.028828024864197" lon="3.800149038434029">
        <ele>7.35</ele>
        <time>2018-07-01T13:53:32Z</time>
      </trkpt>
      <trkpt lat="51.028781002387404" lon="3.800044013187289">
        <ele>6.39</ele>
        <time>2018-07-01T13:53:33Z</time>
      </trkpt>
      <trkpt lat="51.028224024921656" lon="3.798918994143605">
        <ele>3.02</ele>
        <time>2018-07-01T13:53:42Z</time>
      </trkpt>
      <trkpt lat="51.027751034125686" lon="3.797370018437505">
        <ele>1.1</ele>
        <time>2018-07-01T13:53:51Z</time>
      </trkpt>
      <trkpt lat="51.027559004724026" lon="3.796684965491295">
        <ele>1.1</ele>
        <time>2018-07-01T13:53:55Z</time>
      </trkpt>
      <trkpt lat="51.027521034702659" lon="3.796533001586795">
        <ele>1.1</ele>
        <time>2018-07-01T13:53:56Z</time>
      </trkpt>
      <trkpt lat="51.027518017217517" lon="3.796366034075618">
        <ele>1.1</ele>
        <time>2018-07-01T13:53:57Z</time>
      </trkpt>
      <trkpt lat="51.027542995288968" lon="3.796198982745409">
        <ele>1.1</ele>
        <time>2018-07-01T13:53:58Z</time>
      </trkpt>
      <trkpt lat="51.02756998501718" lon="3.796016005799174">
        <ele>1.1</ele>
        <time>2018-07-01T13:53:59Z</time>
      </trkpt>
      <trkpt lat="51.027597980573773" lon="3.795820958912373">
        <ele>0.62</ele>
        <time>2018-07-01T13:54:00Z</time>
      </trkpt>
      <trkpt lat="51.027623964473605" lon="3.795616021379829">
        <ele>0.62</ele>
        <time>2018-07-01T13:54:01Z</time>
      </trkpt>
      <trkpt lat="51.027965024113655" lon="3.793680975213647">
        <ele>1.1</ele>
        <time>2018-07-01T13:54:10Z</time>
      </trkpt>
      <trkpt lat="51.028212960809469" lon="3.791949022561312">
        <ele>-1.3</ele>
        <time>2018-07-01T13:54:19Z</time>
      </trkpt>
      <trkpt lat="51.028227964416146" lon="3.791739977896214">
        <ele>-1.79</ele>
        <time>2018-07-01T13:54:20Z</time>
      </trkpt>
      <trkpt lat="51.028212960809469" lon="3.791517019271851">
        <ele>-2.27</ele>
        <time>2018-07-01T13:54:21Z</time>
      </trkpt>
      <trkpt lat="51.028196029365063" lon="3.791286014020443">
        <ele>-2.75</ele>
        <time>2018-07-01T13:54:22Z</time>
      </trkpt>
      <trkpt lat="51.028179014101624" lon="3.791050985455513">
        <ele>-2.75</ele>
        <time>2018-07-01T13:54:23Z</time>
      </trkpt>
      <trkpt lat="51.02814900688827" lon="3.790811011567712">
        <ele>-2.75</ele>
        <time>2018-07-01T13:54:24Z</time>
      </trkpt>
      <trkpt lat="51.02776100859046" lon="3.788568014279008">
        <ele>2.06</ele>
        <time>2018-07-01T13:54:34Z</time>
      </trkpt>
      <trkpt lat="51.02776100859046" lon="3.788352012634277">
        <ele>3.5</ele>
        <time>2018-07-01T13:54:35Z</time>
      </trkpt>
      <trkpt lat="51.027766037732363" lon="3.78814497962594">
        <ele>4.46</ele>
        <time>2018-07-01T13:54:36Z</time>
      </trkpt>
      <trkpt lat="51.027793027460575" lon="3.787933001294732">
        <ele>5.42</ele>
        <time>2018-07-01T13:54:37Z</time>
      </trkpt>
      <trkpt lat="51.027821023017168" lon="3.787722028791904">
        <ele>6.39</ele>
        <time>2018-07-01T13:54:38Z</time>
      </trkpt>
      <trkpt lat="51.028134003281593" lon="3.785092961043119">
        <ele>5.42</ele>
        <time>2018-07-01T13:54:49Z</time>
      </trkpt>
      <trkpt lat="51.02821103297174" lon="3.784112026914954">
        <ele>2.54</ele>
        <time>2018-07-01T13:54:53Z</time>
      </trkpt>
      <trkpt lat="51.028174990788102" lon="3.783873980864883">
        <ele>2.54</ele>
        <time>2018-07-01T13:54:54Z</time>
      </trkpt>
      <trkpt lat="51.028136014938354" lon="3.783628977835178">
        <ele>2.06</ele>
        <time>2018-07-01T13:54:55Z</time>
      </trkpt>
      <trkpt lat="51.028096033260226" lon="3.7833740003407">
        <ele>1.1</ele>
        <time>2018-07-01T13:54:56Z</time>
      </trkpt>
      <trkpt lat="51.028051022440195" lon="3.783111982047558">
        <ele>0.62</ele>
        <time>2018-07-01T13:54:57Z</time>
      </trkpt>
      <trkpt lat="51.027573002502322" lon="3.780952971428633">
        <ele>0.14</ele>
        <time>2018-07-01T13:55:05Z</time>
      </trkpt>
      <trkpt lat="51.026910999789834" lon="3.778145033866167">
        <ele>3.5</ele>
        <time>2018-07-01T13:55:16Z</time>
      </trkpt>
      <trkpt lat="51.025940962135792" lon="3.775632977485657">
        <ele>3.98</ele>
        <time>2018-07-01T13:55:27Z</time>
      </trkpt>
      <trkpt lat="51.025502001866698" lon="3.774539977312088">
        <ele>5.91</ele>
        <time>2018-07-01T13:55:34Z</time>
      </trkpt>
      <trkpt lat="51.024974025785923" lon="3.773276992142201">
        <ele>9.27</ele>
        <time>2018-07-01T13:55:44Z</time>
      </trkpt>
      <trkpt lat="51.02490495890379" lon="3.773123016580939">
        <ele>10.23</ele>
        <time>2018-07-01T13:55:50Z</time>
      </trkpt>
      <trkpt lat="51.02490495890379" lon="3.773123016580939">
        <ele>10.23</ele>
        <time>2018-07-01T13:56:27Z</time>
      </trkpt>
      <trkpt lat="51.024803034961224" lon="3.772893017157912">
        <ele>9.75</ele>
        <time>2018-07-01T13:57:03Z</time>
      </trkpt>
      <trkpt lat="51.02460203692317" lon="3.772547012194991">
        <ele>7.35</ele>
        <time>2018-07-01T13:57:08Z</time>
      </trkpt>
      <trkpt lat="51.024536993354559" lon="3.772476017475128">
        <ele>7.35</ele>
        <time>2018-07-01T13:57:09Z</time>
      </trkpt>
      <trkpt lat="51.024465998634696" lon="3.772398987784982">
        <ele>6.87</ele>
        <time>2018-07-01T13:57:10Z</time>
      </trkpt>
      <trkpt lat="51.023462014272809" lon="3.77127698622644">
        <ele>4.46</ele>
        <time>2018-07-01T13:57:22Z</time>
      </trkpt>
      <trkpt lat="51.022359039634466" lon="3.770059011876583">
        <ele>3.5</ele>
        <time>2018-07-01T13:57:34Z</time>
      </trkpt>
      <trkpt lat="51.022052010521293" lon="3.769832029938698">
        <ele>3.5</ele>
        <time>2018-07-01T13:57:37Z</time>
      </trkpt>
      <trkpt lat="51.021951008588076" lon="3.769763968884945">
        <ele>3.5</ele>
        <time>2018-07-01T13:57:38Z</time>
      </trkpt>
      <trkpt lat="51.021838020533323" lon="3.769722981378436">
        <ele>3.5</ele>
        <time>2018-07-01T13:57:39Z</time>
      </trkpt>
      <trkpt lat="51.021726038306952" lon="3.769684005528688">
        <ele>3.5</ele>
        <time>2018-07-01T13:57:40Z</time>
      </trkpt>
      <trkpt lat="51.021609026938677" lon="3.769690962508321">
        <ele>3.98</ele>
        <time>2018-07-01T13:57:41Z</time>
      </trkpt>
      <trkpt lat="51.020224001258612" lon="3.769790958613157">
        <ele>4.94</ele>
        <time>2018-07-01T13:57:53Z</time>
      </trkpt>
      <trkpt lat="51.019842959940434" lon="3.769790958613157">
        <ele>5.42</ele>
        <time>2018-07-01T13:57:57Z</time>
      </trkpt>
      <trkpt lat="51.019775988534093" lon="3.769761035218835">
        <ele>5.91</ele>
        <time>2018-07-01T13:57:58Z</time>
      </trkpt>
      <trkpt lat="51.019711028784513" lon="3.769733039662242">
        <ele>6.39</ele>
        <time>2018-07-01T13:57:59Z</time>
      </trkpt>
      <trkpt lat="51.019628969952464" lon="3.769671013578773">
        <ele>6.87</ele>
        <time>2018-07-01T13:58:00Z</time>
      </trkpt>
      <trkpt lat="51.019588988274336" lon="3.769604964181781">
        <ele>6.87</ele>
        <time>2018-07-01T13:58:01Z</time>
      </trkpt>
      <trkpt lat="51.019554035738111" lon="3.769548973068595">
        <ele>7.35</ele>
        <time>2018-07-01T13:58:02Z</time>
      </trkpt>
      <trkpt lat="51.019520005211234" lon="3.769492981955409">
        <ele>7.83</ele>
        <time>2018-07-01T13:58:03Z</time>
      </trkpt>
      <trkpt lat="51.019485974684358" lon="3.769436990842223">
        <ele>7.83</ele>
        <time>2018-07-01T13:58:04Z</time>
      </trkpt>
      <trkpt lat="51.019449010491371" lon="3.769376976415515">
        <ele>8.310000000000001</ele>
        <time>2018-07-01T13:58:05Z</time>
      </trkpt>
      <trkpt lat="51.019413974136114" lon="3.769189976155758">
        <ele>8.789999999999999</ele>
        <time>2018-07-01T13:58:06Z</time>
      </trkpt>
      <trkpt lat="51.019411040470004" lon="3.769146976992488">
        <ele>9.27</ele>
        <time>2018-07-01T13:58:07Z</time>
      </trkpt>
      <trkpt lat="51.019401988014579" lon="3.769028959795833">
        <ele>9.75</ele>
        <time>2018-07-01T13:58:08Z</time>
      </trkpt>
      <trkpt lat="51.019393019378185" lon="3.768911026418209">
        <ele>9.75</ele>
        <time>2018-07-01T13:58:09Z</time>
      </trkpt>
      <trkpt lat="51.019344991073012" lon="3.768803989514709">
        <ele>10.23</ele>
        <time>2018-07-01T13:58:10Z</time>
      </trkpt>
      <trkpt lat="51.019290005788207" lon="3.768679015338421">
        <ele>10.710000000000001</ele>
        <time>2018-07-01T13:58:11Z</time>
      </trkpt>
      <trkpt lat="51.018341006711125" lon="3.76725903712213">
        <ele>15.52</ele>
        <time>2018-07-01T13:58:23Z</time>
      </trkpt>
      <trkpt lat="51.017552018165588" lon="3.765591038390994">
        <ele>10.23</ele>
        <time>2018-07-01T13:58:35Z</time>
      </trkpt>
      <trkpt lat="51.017151027917862" lon="3.76470297574997">
        <ele>6.87</ele>
        <time>2018-07-01T13:58:42Z</time>
      </trkpt>
      <trkpt lat="51.017020018771291" lon="3.764323024079204">
        <ele>5.91</ele>
        <time>2018-07-01T13:58:46Z</time>
      </trkpt>
      <trkpt lat="51.016966039314866" lon="3.764241971075535">
        <ele>5.91</ele>
        <time>2018-07-01T13:58:47Z</time>
      </trkpt>
      <trkpt lat="51.016284003853798" lon="3.763380981981754">
        <ele>5.42</ele>
        <time>2018-07-01T13:58:56Z</time>
      </trkpt>
      <trkpt lat="51.01603296585381" lon="3.763064984232187">
        <ele>5.42</ele>
        <time>2018-07-01T13:58:59Z</time>
      </trkpt>
      <trkpt lat="51.015126965939999" lon="3.762087989598513">
        <ele>10.23</ele>
        <time>2018-07-01T13:59:09Z</time>
      </trkpt>
      <trkpt lat="51.014595972374082" lon="3.7617829721421">
        <ele>11.19</ele>
        <time>2018-07-01T13:59:15Z</time>
      </trkpt>
      <trkpt lat="51.013905974105" lon="3.76169596798718">
        <ele>9.75</ele>
        <time>2018-07-01T13:59:24Z</time>
      </trkpt>
      <trkpt lat="51.013884013518691" lon="3.76169303432107">
        <ele>9.27</ele>
        <time>2018-07-01T13:59:34Z</time>
      </trkpt>
      <trkpt lat="51.013658037409186" lon="3.761664032936096">
        <ele>8.789999999999999</ele>
        <time>2018-07-01T13:59:43Z</time>
      </trkpt>
      <trkpt lat="51.013582013547421" lon="3.761638971045613">
        <ele>8.789999999999999</ele>
        <time>2018-07-01T13:59:44Z</time>
      </trkpt>
      <trkpt lat="51.013503978028893" lon="3.761601001024246">
        <ele>8.310000000000001</ele>
        <time>2018-07-01T13:59:45Z</time>
      </trkpt>
      <trkpt lat="51.013405993580818" lon="3.761550961062312">
        <ele>8.310000000000001</ele>
        <time>2018-07-01T13:59:46Z</time>
      </trkpt>
      <trkpt lat="51.013329969719052" lon="3.761530006304383">
        <ele>8.310000000000001</ele>
        <time>2018-07-01T13:59:47Z</time>
      </trkpt>
      <trkpt lat="51.012464035302401" lon="3.761187018826604">
        <ele>9.27</ele>
        <time>2018-07-01T13:59:55Z</time>
      </trkpt>
      <trkpt lat="51.012349035590887" lon="3.761204034090042">
        <ele>9.27</ele>
        <time>2018-07-01T13:59:56Z</time>
      </trkpt>
      <trkpt lat="51.012239987030625" lon="3.761220965534449">
        <ele>9.27</ele>
        <time>2018-07-01T13:59:57Z</time>
      </trkpt>
      <trkpt lat="51.011084960773587" lon="3.761422969400883">
        <ele>3.5</ele>
        <time>2018-07-01T14:00:08Z</time>
      </trkpt>
      <trkpt lat="51.009396007284522" lon="3.761766962707043">
        <ele>0.62</ele>
        <time>2018-07-01T14:00:22Z</time>
      </trkpt>
      <trkpt lat="51.007469007745385" lon="3.762039039283991">
        <ele>0.62</ele>
        <time>2018-07-01T14:00:37Z</time>
      </trkpt>
      <trkpt lat="51.007235990837216" lon="3.762013977393508">
        <ele>1.1</ele>
        <time>2018-07-01T14:00:39Z</time>
      </trkpt>
      <trkpt lat="51.0071159619838" lon="3.761984976008534">
        <ele>1.58</ele>
        <time>2018-07-01T14:00:40Z</time>
      </trkpt>
      <trkpt lat="51.006994005292654" lon="3.761938037350774">
        <ele>2.06</ele>
        <time>2018-07-01T14:00:41Z</time>
      </trkpt>
      <trkpt lat="51.00687799975276" lon="3.761894032359123">
        <ele>2.06</ele>
        <time>2018-07-01T14:00:42Z</time>
      </trkpt>
      <trkpt lat="51.006764005869627" lon="3.761851033195853">
        <ele>2.54</ele>
        <time>2018-07-01T14:00:43Z</time>
      </trkpt>
      <trkpt lat="51.005664970725775" lon="3.761122981086373">
        <ele>4.94</ele>
        <time>2018-07-01T14:00:53Z</time>
      </trkpt>
      <trkpt lat="51.00483700633049" lon="3.760670023038983">
        <ele>6.87</ele>
        <time>2018-07-01T14:01:02Z</time>
      </trkpt>
      <trkpt lat="51.004774980247021" lon="3.760630963370204">
        <ele>6.87</ele>
        <time>2018-07-01T14:01:03Z</time>
      </trkpt>
      <trkpt lat="51.004682024940848" lon="3.760498026385903">
        <ele>6.87</ele>
        <time>2018-07-01T14:01:04Z</time>
      </trkpt>
      <trkpt lat="51.004695016890764" lon="3.760402975603938">
        <ele>7.35</ele>
        <time>2018-07-01T14:01:05Z</time>
      </trkpt>
      <trkpt lat="51.004712032154202" lon="3.760282024741173">
        <ele>7.35</ele>
        <time>2018-07-01T14:01:06Z</time>
      </trkpt>
      <trkpt lat="51.004731981083751" lon="3.760137017816305">
        <ele>6.87</ele>
        <time>2018-07-01T14:01:07Z</time>
      </trkpt>
      <trkpt lat="51.004755031317472" lon="3.759968960657716">
        <ele>6.87</ele>
        <time>2018-07-01T14:01:08Z</time>
      </trkpt>
      <trkpt lat="51.004989976063371" lon="3.758267015218735">
        <ele>5.42</ele>
        <time>2018-07-01T14:01:15Z</time>
      </trkpt>
      <trkpt lat="51.005363976582885" lon="3.756073974072933">
        <ele>5.42</ele>
        <time>2018-07-01T14:01:23Z</time>
      </trkpt>
      <trkpt lat="51.005956996232271" lon="3.753572981804609">
        <ele>4.46</ele>
        <time>2018-07-01T14:01:34Z</time>
      </trkpt>
      <trkpt lat="51.006034025922418" lon="3.752907961606979">
        <ele>3.98</ele>
        <time>2018-07-01T14:01:37Z</time>
      </trkpt>
      <trkpt lat="51.006042994558811" lon="3.75269397161901">
        <ele>3.98</ele>
        <time>2018-07-01T14:01:38Z</time>
      </trkpt>
      <trkpt lat="51.006030002608895" lon="3.752274038270116">
        <ele>3.98</ele>
        <time>2018-07-01T14:01:40Z</time>
      </trkpt>
      <trkpt lat="51.006052969023585" lon="3.751908000558615">
        <ele>3.5</ele>
        <time>2018-07-01T14:01:42Z</time>
      </trkpt>
      <trkpt lat="51.006077025085688" lon="3.751758970320225">
        <ele>3.98</ele>
        <time>2018-07-01T14:01:43Z</time>
      </trkpt>
      <trkpt lat="51.006151037290692" lon="3.751539029181004">
        <ele>3.98</ele>
        <time>2018-07-01T14:01:45Z</time>
      </trkpt>
      <trkpt lat="51.006151037290692" lon="3.751538023352623">
        <ele>3.98</ele>
        <time>2018-07-01T14:01:46Z</time>
      </trkpt>
      <trkpt lat="51.00634197704494" lon="3.751324033364654">
        <ele>4.46</ele>
        <time>2018-07-01T14:01:48Z</time>
      </trkpt>
      <trkpt lat="51.006428981199861" lon="3.751311963424087">
        <ele>4.46</ele>
        <time>2018-07-01T14:01:49Z</time>
      </trkpt>
      <trkpt lat="51.006525037810206" lon="3.751298971474171">
        <ele>4.46</ele>
        <time>2018-07-01T14:01:50Z</time>
      </trkpt>
      <trkpt lat="51.006629979237914" lon="3.75129503197968">
        <ele>4.94</ele>
        <time>2018-07-01T14:01:51Z</time>
      </trkpt>
      <trkpt lat="51.006741039454937" lon="3.75129796564579">
        <ele>5.42</ele>
        <time>2018-07-01T14:01:52Z</time>
      </trkpt>
      <trkpt lat="51.006859978660941" lon="3.751311963424087">
        <ele>5.42</ele>
        <time>2018-07-01T14:01:53Z</time>
      </trkpt>
      <trkpt lat="51.00698403082788" lon="3.751326967030764">
        <ele>5.91</ele>
        <time>2018-07-01T14:01:54Z</time>
      </trkpt>
      <trkpt lat="51.008427981287241" lon="3.751530982553959">
        <ele>6.87</ele>
        <time>2018-07-01T14:02:04Z</time>
      </trkpt>
      <trkpt lat="51.009411010891199" lon="3.75172502361238">
        <ele>3.5</ele>
        <time>2018-07-01T14:02:12Z</time>
      </trkpt>
      <trkpt lat="51.009500026702881" lon="3.751748995855451">
        <ele>3.02</ele>
        <time>2018-07-01T14:02:13Z</time>
      </trkpt>
      <trkpt lat="51.009575966745615" lon="3.751787971705198">
        <ele>3.02</ele>
        <time>2018-07-01T14:02:14Z</time>
      </trkpt>
      <trkpt lat="51.009620977565646" lon="3.751877993345261">
        <ele>2.54</ele>
        <time>2018-07-01T14:02:15Z</time>
      </trkpt>
      <trkpt lat="51.009646961465478" lon="3.751998022198677">
        <ele>1.58</ele>
        <time>2018-07-01T14:02:16Z</time>
      </trkpt>
      <trkpt lat="51.009638998657465" lon="3.752104975283146">
        <ele>1.1</ele>
        <time>2018-07-01T14:02:17Z</time>
      </trkpt>
      <trkpt lat="51.009631035849452" lon="3.752216035500169">
        <ele>0.62</ele>
        <time>2018-07-01T14:02:18Z</time>
      </trkpt>
      <trkpt lat="51.00956398062408" lon="3.752319971099496">
        <ele>0.14</ele>
        <time>2018-07-01T14:02:19Z</time>
      </trkpt>
      <trkpt lat="51.009475970640779" lon="3.752346038818359">
        <ele>-0.34</ele>
        <time>2018-07-01T14:02:20Z</time>
      </trkpt>
      <trkpt lat="51.009395001456141" lon="3.752317959442735">
        <ele>-0.34</ele>
        <time>2018-07-01T14:02:21Z</time>
      </trkpt>
      <trkpt lat="51.009315038099885" lon="3.75226397998631">
        <ele>-0.82</ele>
        <time>2018-07-01T14:02:22Z</time>
      </trkpt>
      <trkpt lat="51.009228033944964" lon="3.752204971387982">
        <ele>-0.82</ele>
        <time>2018-07-01T14:02:23Z</time>
      </trkpt>
      <trkpt lat="51.0088100284338" lon="3.751930966973305">
        <ele>-1.79</ele>
        <time>2018-07-01T14:02:27Z</time>
      </trkpt>
      <trkpt lat="51.00870500318706" lon="3.751899031922221">
        <ele>-1.79</ele>
        <time>2018-07-01T14:02:28Z</time>
      </trkpt>
      <trkpt lat="51.008518002927303" lon="3.751800963655114">
        <ele>-2.75</ele>
        <time>2018-07-01T14:02:31Z</time>
      </trkpt>
      <trkpt lat="51.008485984057188" lon="3.751777997240424">
        <ele>-2.75</ele>
        <time>2018-07-01T14:02:32Z</time>
      </trkpt>
      <trkpt lat="51.008470980450511" lon="3.751767016947269">
        <ele>-3.23</ele>
        <time>2018-07-01T14:02:33Z</time>
      </trkpt>
      <trkpt lat="51.008452959358692" lon="3.751669032499194">
        <ele>-3.71</ele>
        <time>2018-07-01T14:02:35Z</time>
      </trkpt>
      <trkpt lat="51.008438961580396" lon="3.751589991152287">
        <ele>-3.71</ele>
        <time>2018-07-01T14:02:36Z</time>
      </trkpt>
      <trkpt lat="51.008433010429144" lon="3.75151296146214">
        <ele>-4.19</ele>
        <time>2018-07-01T14:02:37Z</time>
      </trkpt>
      <trkpt lat="51.00846896879375" lon="3.751379018649459">
        <ele>-4.19</ele>
        <time>2018-07-01T14:02:38Z</time>
      </trkpt>
      <trkpt lat="51.008515991270542" lon="3.751206016167998">
        <ele>-4.19</ele>
        <time>2018-07-01T14:02:39Z</time>
      </trkpt>
      <trkpt lat="51.00889602676034" lon="3.749777991324663">
        <ele>-3.71</ele>
        <time>2018-07-01T14:02:45Z</time>
      </trkpt>
      <trkpt lat="51.009454010054469" lon="3.747511021792889">
        <ele>-2.75</ele>
        <time>2018-07-01T14:02:52Z</time>
      </trkpt>
      <trkpt lat="51.010835012421012" lon="3.742608027532697">
        <ele>-1.79</ele>
        <time>2018-07-01T14:03:06Z</time>
      </trkpt>
      <trkpt lat="51.011996995657682" lon="3.738531991839409">
        <ele>6.39</ele>
        <time>2018-07-01T14:03:18Z</time>
      </trkpt>
      <trkpt lat="51.012810040265322" lon="3.734933976083994">
        <ele>3.5</ele>
        <time>2018-07-01T14:03:28Z</time>
      </trkpt>
      <trkpt lat="51.013653008267283" lon="3.731828983873129">
        <ele>-0.82</ele>
        <time>2018-07-01T14:03:37Z</time>
      </trkpt>
      <trkpt lat="51.013956014066935" lon="3.729263031855226">
        <ele>-0.34</ele>
        <time>2018-07-01T14:03:44Z</time>
      </trkpt>
      <trkpt lat="51.014058021828532" lon="3.726191986352205">
        <ele>-2.75</ele>
        <time>2018-07-01T14:03:52Z</time>
      </trkpt>
      <trkpt lat="51.014162041246891" lon="3.721898021176457">
        <ele>-3.71</ele>
        <time>2018-07-01T14:04:03Z</time>
      </trkpt>
      <trkpt lat="51.014343006536365" lon="3.718911968171597">
        <ele>-3.71</ele>
        <time>2018-07-01T14:04:11Z</time>
      </trkpt>
      <trkpt lat="51.014782972633839" lon="3.715579994022846">
        <ele>-6.11</ele>
        <time>2018-07-01T14:04:20Z</time>
      </trkpt>
      <trkpt lat="51.015756027773023" lon="3.712151041254401">
        <ele>-5.63</ele>
        <time>2018-07-01T14:04:30Z</time>
      </trkpt>
      <trkpt lat="51.016913987696171" lon="3.709761025384069">
        <ele>-5.15</ele>
        <time>2018-07-01T14:04:38Z</time>
      </trkpt>
      <trkpt lat="51.018097009509802" lon="3.707951959222555">
        <ele>-5.15</ele>
        <time>2018-07-01T14:04:45Z</time>
      </trkpt>
      <trkpt lat="51.019960977137089" lon="3.706240961328149">
        <ele>-3.23</ele>
        <time>2018-07-01T14:04:54Z</time>
      </trkpt>
      <trkpt lat="51.02196198888123" lon="3.705106973648071">
        <ele>-0.82</ele>
        <time>2018-07-01T14:05:03Z</time>
      </trkpt>
      <trkpt lat="51.024510003626347" lon="3.704109024256468">
        <ele>2.06</ele>
        <time>2018-07-01T14:05:14Z</time>
      </trkpt>
      <trkpt lat="51.027537966147065" lon="3.70301996357739">
        <ele>6.39</ele>
        <time>2018-07-01T14:05:27Z</time>
      </trkpt>
      <trkpt lat="51.029102029278874" lon="3.702113041654229">
        <ele>5.42</ele>
        <time>2018-07-01T14:05:34Z</time>
      </trkpt>
      <trkpt lat="51.030835993587971" lon="3.700171038508415">
        <ele>3.98</ele>
        <time>2018-07-01T14:05:43Z</time>
      </trkpt>
      <trkpt lat="51.032053967937827" lon="3.697886969894171">
        <ele>3.02</ele>
        <time>2018-07-01T14:05:51Z</time>
      </trkpt>
      <trkpt lat="51.032631983980536" lon="3.696190975606442">
        <ele>2.54</ele>
        <time>2018-07-01T14:05:56Z</time>
      </trkpt>
      <trkpt lat="51.032708007842302" lon="3.695867015048862">
        <ele>3.02</ele>
        <time>2018-07-01T14:05:57Z</time>
      </trkpt>
      <trkpt lat="51.033204970881343" lon="3.692981963977218">
        <ele>2.06</ele>
        <time>2018-07-01T14:06:05Z</time>
      </trkpt>
      <trkpt lat="51.033741999417543" lon="3.689347989857197">
        <ele>-0.82</ele>
        <time>2018-07-01T14:06:15Z</time>
      </trkpt>
      <trkpt lat="51.034506009891629" lon="3.687055958434939">
        <ele>-1.79</ele>
        <time>2018-07-01T14:06:22Z</time>
      </trkpt>
      <trkpt lat="51.035632034763694" lon="3.685192996636033">
        <ele>1.1</ele>
        <time>2018-07-01T14:06:29Z</time>
      </trkpt>
      <trkpt lat="51.037860028445721" lon="3.68226402439177">
        <ele>4.46</ele>
        <time>2018-07-01T14:06:41Z</time>
      </trkpt>
      <trkpt lat="51.039329962804914" lon="3.68099601007998">
        <ele>1.1</ele>
        <time>2018-07-01T14:06:48Z</time>
      </trkpt>
      <trkpt lat="51.041368022561073" lon="3.680063020437956">
        <ele>-0.82</ele>
        <time>2018-07-01T14:06:57Z</time>
      </trkpt>
      <trkpt lat="51.043690983206034" lon="3.679473018273711">
        <ele>-1.79</ele>
        <time>2018-07-01T14:07:07Z</time>
      </trkpt>
      <trkpt lat="51.046490035951138" lon="3.678781008347869">
        <ele>-1.79</ele>
        <time>2018-07-01T14:07:19Z</time>
      </trkpt>
      <trkpt lat="51.049047019332647" lon="3.677737964317203">
        <ele>0.14</ele>
        <time>2018-07-01T14:07:30Z</time>
      </trkpt>
      <trkpt lat="51.050924984738231" lon="3.676111958920956">
        <ele>0.62</ele>
        <time>2018-07-01T14:07:39Z</time>
      </trkpt>
      <trkpt lat="51.052760034799576" lon="3.67375697940588">
        <ele>1.1</ele>
        <time>2018-07-01T14:07:49Z</time>
      </trkpt>
      <trkpt lat="51.053317012265325" lon="3.672974025830627">
        <ele>1.1</ele>
        <time>2018-07-01T14:07:52Z</time>
      </trkpt>
      <trkpt lat="51.05347802862525" lon="3.67272399365902">
        <ele>1.1</ele>
        <time>2018-07-01T14:07:53Z</time>
      </trkpt>
      <trkpt lat="51.055676015093923" lon="3.6693109665066">
        <ele>3.5</ele>
        <time>2018-07-01T14:08:06Z</time>
      </trkpt>
      <trkpt lat="51.058000987395644" lon="3.666086029261351">
        <ele>3.98</ele>
        <time>2018-07-01T14:08:19Z</time>
      </trkpt>
      <trkpt lat="51.060298969969153" lon="3.663404993712902">
        <ele>2.54</ele>
        <time>2018-07-01T14:08:31Z</time>
      </trkpt>
      <trkpt lat="51.062779007479548" lon="3.661172976717353">
        <ele>4.46</ele>
        <time>2018-07-01T14:08:43Z</time>
      </trkpt>
      <trkpt lat="51.064996020868421" lon="3.659781999886036">
        <ele>3.98</ele>
        <time>2018-07-01T14:08:53Z</time>
      </trkpt>
      <trkpt lat="51.067507993429899" lon="3.658769968897104">
        <ele>5.42</ele>
        <time>2018-07-01T14:09:04Z</time>
      </trkpt>
      <trkpt lat="51.070783976465464" lon="3.658197987824678">
        <ele>4.46</ele>
        <time>2018-07-01T14:09:18Z</time>
      </trkpt>
      <trkpt lat="51.073626028373837" lon="3.658193964511156">
        <ele>3.98</ele>
        <time>2018-07-01T14:09:30Z</time>
      </trkpt>
      <trkpt lat="51.076710987836123" lon="3.658413989469409">
        <ele>4.94</ele>
        <time>2018-07-01T14:09:43Z</time>
      </trkpt>
      <trkpt lat="51.079784967005253" lon="3.658678019419313">
        <ele>4.46</ele>
        <time>2018-07-01T14:09:56Z</time>
      </trkpt>
      <trkpt lat="51.082066018134356" lon="3.659271961078048">
        <ele>6.39</ele>
        <time>2018-07-01T14:10:06Z</time>
      </trkpt>
      <trkpt lat="51.083195982500911" lon="3.660578029230237">
        <ele>7.83</ele>
        <time>2018-07-01T14:10:12Z</time>
      </trkpt>
      <trkpt lat="51.083924034610391" lon="3.662637965753675">
        <ele>10.23</ele>
        <time>2018-07-01T14:10:18Z</time>
      </trkpt>
      <trkpt lat="51.084500961005688" lon="3.664826983585954">
        <ele>12.630000000000001</ele>
        <time>2018-07-01T14:10:25Z</time>
      </trkpt>
      <trkpt lat="51.085186013951898" lon="3.667617989704013">
        <ele>9.27</ele>
        <time>2018-07-01T14:10:35Z</time>
      </trkpt>
      <trkpt lat="51.085328003391623" lon="3.668483002111316">
        <ele>6.87</ele>
        <time>2018-07-01T14:10:39Z</time>
      </trkpt>
      <trkpt lat="51.085323980078101" lon="3.668652987107635">
        <ele>6.39</ele>
        <time>2018-07-01T14:10:40Z</time>
      </trkpt>
      <trkpt lat="51.085315011441708" lon="3.668822972103953">
        <ele>6.39</ele>
        <time>2018-07-01T14:10:41Z</time>
      </trkpt>
      <trkpt lat="51.085271006450057" lon="3.668967979028821">
        <ele>5.91</ele>
        <time>2018-07-01T14:10:42Z</time>
      </trkpt>
      <trkpt lat="51.085203029215336" lon="3.669090019538999">
        <ele>5.42</ele>
        <time>2018-07-01T14:10:43Z</time>
      </trkpt>
      <trkpt lat="51.085102027282119" lon="3.669191021472216">
        <ele>5.42</ele>
        <time>2018-07-01T14:10:44Z</time>
      </trkpt>
      <trkpt lat="51.085001025348902" lon="3.669247012585402">
        <ele>4.94</ele>
        <time>2018-07-01T14:10:45Z</time>
      </trkpt>
      <trkpt lat="51.084893988445401" lon="3.669260004535317">
        <ele>4.94</ele>
        <time>2018-07-01T14:10:46Z</time>
      </trkpt>
      <trkpt lat="51.084792986512184" lon="3.669235026463866">
        <ele>4.94</ele>
        <time>2018-07-01T14:10:47Z</time>
      </trkpt>
      <trkpt lat="51.084692990407348" lon="3.669205019250512">
        <ele>4.94</ele>
        <time>2018-07-01T14:10:48Z</time>
      </trkpt>
      <trkpt lat="51.084605986252427" lon="3.669075015932322">
        <ele>4.94</ele>
        <time>2018-07-01T14:10:49Z</time>
      </trkpt>
      <trkpt lat="51.084538009017706" lon="3.668940989300609">
        <ele>4.94</ele>
        <time>2018-07-01T14:10:50Z</time>
      </trkpt>
      <trkpt lat="51.084486041218042" lon="3.668766980990768">
        <ele>5.42</ele>
        <time>2018-07-01T14:10:51Z</time>
      </trkpt>
      <trkpt lat="51.084465002641082" lon="3.668582998216152">
        <ele>5.42</ele>
        <time>2018-07-01T14:10:52Z</time>
      </trkpt>
      <trkpt lat="51.084473971277475" lon="3.668352998793125">
        <ele>5.42</ele>
        <time>2018-07-01T14:10:53Z</time>
      </trkpt>
      <trkpt lat="51.084513030946255" lon="3.668146971613169">
        <ele>4.46</ele>
        <time>2018-07-01T14:10:54Z</time>
      </trkpt>
      <trkpt lat="51.084555024281144" lon="3.667926024645567">
        <ele>3.98</ele>
        <time>2018-07-01T14:10:55Z</time>
      </trkpt>
      <trkpt lat="51.084598023444414" lon="3.667700970545411">
        <ele>3.5</ele>
        <time>2018-07-01T14:10:56Z</time>
      </trkpt>
      <trkpt lat="51.084630964323878" lon="3.667487986385822">
        <ele>3.02</ele>
        <time>2018-07-01T14:10:57Z</time>
      </trkpt>
      <trkpt lat="51.084650997072458" lon="3.667271984741092">
        <ele>3.02</ele>
        <time>2018-07-01T14:10:58Z</time>
      </trkpt>
      <trkpt lat="51.084667006507516" lon="3.667094958946109">
        <ele>2.54</ele>
        <time>2018-07-01T14:10:59Z</time>
      </trkpt>
      <trkpt lat="51.084626019001007" lon="3.666891027241945">
        <ele>2.06</ele>
        <time>2018-07-01T14:11:00Z</time>
      </trkpt>
      <trkpt lat="51.084589976817369" lon="3.666710983961821">
        <ele>1.1</ele>
        <time>2018-07-01T14:11:01Z</time>
      </trkpt>
      <trkpt lat="51.084551000967622" lon="3.666552985087037">
        <ele>1.1</ele>
        <time>2018-07-01T14:11:02Z</time>
      </trkpt>
      <trkpt lat="51.084512025117874" lon="3.666405966505408">
        <ele>0.62</ele>
        <time>2018-07-01T14:11:03Z</time>
      </trkpt>
      <trkpt lat="51.084429966285825" lon="3.666098015382886">
        <ele>-0.34</ele>
        <time>2018-07-01T14:11:08Z</time>
      </trkpt>
      <trkpt lat="51.084429966285825" lon="3.666098015382886">
        <ele>-0.34</ele>
        <time>2018-07-01T14:11:33Z</time>
      </trkpt>
      <trkpt lat="51.084327036514878" lon="3.665746981278062">
        <ele>0.62</ele>
        <time>2018-07-01T14:11:40Z</time>
      </trkpt>
      <trkpt lat="51.084343967959285" lon="3.665466019883752">
        <ele>1.1</ele>
        <time>2018-07-01T14:11:43Z</time>
      </trkpt>
      <trkpt lat="51.084371963515878" lon="3.665411034598947">
        <ele>1.1</ele>
        <time>2018-07-01T14:11:44Z</time>
      </trkpt>
      <trkpt lat="51.084399959072471" lon="3.66535403765738">
        <ele>1.1</ele>
        <time>2018-07-01T14:11:45Z</time>
      </trkpt>
      <trkpt lat="51.084433989599347" lon="3.665286982432008">
        <ele>1.1</ele>
        <time>2018-07-01T14:11:46Z</time>
      </trkpt>
      <trkpt lat="51.084471959620714" lon="3.665209030732513">
        <ele>0.62</ele>
        <time>2018-07-01T14:11:47Z</time>
      </trkpt>
      <trkpt lat="51.084546977654099" lon="3.665061006322503">
        <ele>0.62</ele>
        <time>2018-07-01T14:11:49Z</time>
      </trkpt>
      <trkpt lat="51.084782006219029" lon="3.664566976949573">
        <ele>-1.79</ele>
        <time>2018-07-01T14:11:58Z</time>
      </trkpt>
      <trkpt lat="51.085336972028017" lon="3.663490992039442">
        <ele>-0.34</ele>
        <time>2018-07-01T14:12:06Z</time>
      </trkpt>
      <trkpt lat="51.086371969431639" lon="3.661780999973416">
        <ele>5.42</ele>
        <time>2018-07-01T14:12:16Z</time>
      </trkpt>
      <trkpt lat="51.087256008759141" lon="3.660088023170829">
        <ele>11.19</ele>
        <time>2018-07-01T14:12:23Z</time>
      </trkpt>
      <trkpt lat="51.087949024513364" lon="3.658621022477746">
        <ele>12.15</ele>
        <time>2018-07-01T14:12:30Z</time>
      </trkpt>
      <trkpt lat="51.08875896781683" lon="3.656516997143626">
        <ele>7.83</ele>
        <time>2018-07-01T14:12:39Z</time>
      </trkpt>
      <trkpt lat="51.089778961613774" lon="3.653552988544107">
        <ele>5.42</ele>
        <time>2018-07-01T14:12:52Z</time>
      </trkpt>
      <trkpt lat="51.090506007894874" lon="3.651360031217337">
        <ele>6.87</ele>
        <time>2018-07-01T14:13:02Z</time>
      </trkpt>
      <trkpt lat="51.091163987293839" lon="3.649405958130956">
        <ele>5.91</ele>
        <time>2018-07-01T14:13:11Z</time>
      </trkpt>
      <trkpt lat="51.092160008847713" lon="3.646445972844958">
        <ele>5.91</ele>
        <time>2018-07-01T14:13:24Z</time>
      </trkpt>
      <trkpt lat="51.09303499571979" lon="3.644644031301141">
        <ele>7.35</ele>
        <time>2018-07-01T14:13:33Z</time>
      </trkpt>
      <trkpt lat="51.094535021111369" lon="3.64260102622211">
        <ele>8.789999999999999</ele>
        <time>2018-07-01T14:13:45Z</time>
      </trkpt>
      <trkpt lat="51.096007972955704" lon="3.640650976449251">
        <ele>9.75</ele>
        <time>2018-07-01T14:13:57Z</time>
      </trkpt>
      <trkpt lat="51.09644802287221" lon="3.640069020912051">
        <ele>10.710000000000001</ele>
        <time>2018-07-01T14:14:04Z</time>
      </trkpt>
      <trkpt lat="51.096630999818444" lon="3.639829969033599">
        <ele>10.710000000000001</ele>
        <time>2018-07-01T14:14:13Z</time>
      </trkpt>
      <trkpt lat="51.096851024776697" lon="3.639540039002895">
        <ele>12.15</ele>
        <time>2018-07-01T14:14:27Z</time>
      </trkpt>
      <trkpt lat="51.097856014966965" lon="3.638171022757888">
        <ele>13.6</ele>
        <time>2018-07-01T14:14:38Z</time>
      </trkpt>
      <trkpt lat="51.099140960723162" lon="3.636316023766995">
        <ele>11.19</ele>
        <time>2018-07-01T14:14:51Z</time>
      </trkpt>
      <trkpt lat="51.10053101554513" lon="3.634428000077605">
        <ele>13.6</ele>
        <time>2018-07-01T14:15:01Z</time>
      </trkpt>
      <trkpt lat="51.102047972381115" lon="3.63205399364233">
        <ele>9.75</ele>
        <time>2018-07-01T14:15:12Z</time>
      </trkpt>
      <trkpt lat="51.103181960061193" lon="3.629181012511253">
        <ele>8.789999999999999</ele>
        <time>2018-07-01T14:15:23Z</time>
      </trkpt>
      <trkpt lat="51.104201031848788" lon="3.626566026359797">
        <ele>8.310000000000001</ele>
        <time>2018-07-01T14:15:34Z</time>
      </trkpt>
      <trkpt lat="51.105326972901821" lon="3.623687010258436">
        <ele>7.35</ele>
        <time>2018-07-01T14:15:48Z</time>
      </trkpt>
      <trkpt lat="51.106454003602266" lon="3.62094403244555">
        <ele>8.310000000000001</ele>
        <time>2018-07-01T14:16:01Z</time>
      </trkpt>
      <trkpt lat="51.10736696049571" lon="3.618593998253346">
        <ele>8.789999999999999</ele>
        <time>2018-07-01T14:16:13Z</time>
      </trkpt>
      <trkpt lat="51.108186962082982" lon="3.616402968764305">
        <ele>8.789999999999999</ele>
        <time>2018-07-01T14:16:25Z</time>
      </trkpt>
      <trkpt lat="51.108958013355732" lon="3.614930016919971">
        <ele>8.789999999999999</ele>
        <time>2018-07-01T14:16:33Z</time>
      </trkpt>
      <trkpt lat="51.110342033207417" lon="3.613375006243587">
        <ele>10.23</ele>
        <time>2018-07-01T14:16:43Z</time>
      </trkpt>
      <trkpt lat="51.112097036093473" lon="3.612475963309407">
        <ele>12.15</ele>
        <time>2018-07-01T14:16:54Z</time>
      </trkpt>
      <trkpt lat="51.113256001845002" lon="3.612117972224951">
        <ele>12.15</ele>
        <time>2018-07-01T14:17:02Z</time>
      </trkpt>
      <trkpt lat="51.114312959834933" lon="3.611821001395583">
        <ele>9.75</ele>
        <time>2018-07-01T14:17:10Z</time>
      </trkpt>
      <trkpt lat="51.116137029603124" lon="3.611325966194272">
        <ele>8.789999999999999</ele>
        <time>2018-07-01T14:17:20Z</time>
      </trkpt>
      <trkpt lat="51.119000036269426" lon="3.610518034547567">
        <ele>10.23</ele>
        <time>2018-07-01T14:17:36Z</time>
      </trkpt>
      <trkpt lat="51.12167595885694" lon="3.60977397300303">
        <ele>9.75</ele>
        <time>2018-07-01T14:17:51Z</time>
      </trkpt>
      <trkpt lat="51.124369986355305" lon="3.609041981399059">
        <ele>12.15</ele>
        <time>2018-07-01T14:18:06Z</time>
      </trkpt>
      <trkpt lat="51.126888999715447" lon="3.60833496786654">
        <ele>12.630000000000001</ele>
        <time>2018-07-01T14:18:20Z</time>
      </trkpt>
      <trkpt lat="51.129385968670249" lon="3.607518989592791">
        <ele>10.23</ele>
        <time>2018-07-01T14:18:34Z</time>
      </trkpt>
      <trkpt lat="51.132362969219685" lon="3.60616497695446">
        <ele>8.310000000000001</ele>
        <time>2018-07-01T14:18:51Z</time>
      </trkpt>
      <trkpt lat="51.13533603027463" lon="3.604807024821639">
        <ele>8.310000000000001</ele>
        <time>2018-07-01T14:19:08Z</time>
      </trkpt>
      <trkpt lat="51.138119995594025" lon="3.603527024388313">
        <ele>10.23</ele>
        <time>2018-07-01T14:19:24Z</time>
      </trkpt>
      <trkpt lat="51.139325983822346" lon="3.602995024994016">
        <ele>9.75</ele>
        <time>2018-07-01T14:19:32Z</time>
      </trkpt>
      <trkpt lat="51.139729991555214" lon="3.60281397588551">
        <ele>8.310000000000001</ele>
        <time>2018-07-01T14:19:39Z</time>
      </trkpt>
      <trkpt lat="51.139794029295444" lon="3.602786986157298">
        <ele>7.83</ele>
        <time>2018-07-01T14:19:49Z</time>
      </trkpt>
      <trkpt lat="51.140070967376232" lon="3.602685984224081">
        <ele>6.87</ele>
        <time>2018-07-01T14:19:57Z</time>
      </trkpt>
      <trkpt lat="51.140826009213924" lon="3.602420026436448">
        <ele>6.87</ele>
        <time>2018-07-01T14:20:03Z</time>
      </trkpt>
      <trkpt lat="51.142932968214154" lon="3.601899007335305">
        <ele>8.310000000000001</ele>
        <time>2018-07-01T14:20:16Z</time>
      </trkpt>
      <trkpt lat="51.144904978573322" lon="3.601464992389083">
        <ele>8.310000000000001</ele>
        <time>2018-07-01T14:20:29Z</time>
      </trkpt>
      <trkpt lat="51.147067006677389" lon="3.60098697245121">
        <ele>7.83</ele>
        <time>2018-07-01T14:20:43Z</time>
      </trkpt>
      <trkpt lat="51.150145009160042" lon="3.600314995273948">
        <ele>6.87</ele>
        <time>2018-07-01T14:21:00Z</time>
      </trkpt>
      <trkpt lat="51.152120037004352" lon="3.599882991984487">
        <ele>5.42</ele>
        <time>2018-07-01T14:21:11Z</time>
      </trkpt>
      <trkpt lat="51.153603969141841" lon="3.599256025627255">
        <ele>4.46</ele>
        <time>2018-07-01T14:21:20Z</time>
      </trkpt>
      <trkpt lat="51.154383989050984" lon="3.59857901930809">
        <ele>3.5</ele>
        <time>2018-07-01T14:21:26Z</time>
      </trkpt>
      <trkpt lat="51.155164008960128" lon="3.597387028858066">
        <ele>3.98</ele>
        <time>2018-07-01T14:21:34Z</time>
      </trkpt>
      <trkpt lat="51.156348036602139" lon="3.595154006034136">
        <ele>5.42</ele>
        <time>2018-07-01T14:21:45Z</time>
      </trkpt>
      <trkpt lat="51.157613033428788" lon="3.592711016535759">
        <ele>4.94</ele>
        <time>2018-07-01T14:21:57Z</time>
      </trkpt>
      <trkpt lat="51.158880963921547" lon="3.591021979227662">
        <ele>4.46</ele>
        <time>2018-07-01T14:22:07Z</time>
      </trkpt>
      <trkpt lat="51.160524990409613" lon="3.589746002107859">
        <ele>4.94</ele>
        <time>2018-07-01T14:22:18Z</time>
      </trkpt>
      <trkpt lat="51.162369009107351" lon="3.588496008887887">
        <ele>5.91</ele>
        <time>2018-07-01T14:22:30Z</time>
      </trkpt>
      <trkpt lat="51.164489965885878" lon="3.587114000692964">
        <ele>6.39</ele>
        <time>2018-07-01T14:22:43Z</time>
      </trkpt>
      <trkpt lat="51.166673032566905" lon="3.586017983034253">
        <ele>6.39</ele>
        <time>2018-07-01T14:22:56Z</time>
      </trkpt>
      <trkpt lat="51.169599993154407" lon="3.584888018667698">
        <ele>6.87</ele>
        <time>2018-07-01T14:23:13Z</time>
      </trkpt>
      <trkpt lat="51.172024039551616" lon="3.584038009867072">
        <ele>6.87</ele>
        <time>2018-07-01T14:23:27Z</time>
      </trkpt>
      <trkpt lat="51.17325902916491" lon="3.58296001330018">
        <ele>7.83</ele>
        <time>2018-07-01T14:23:35Z</time>
      </trkpt>
      <trkpt lat="51.174694010987878" lon="3.581525031477213">
        <ele>10.23</ele>
        <time>2018-07-01T14:23:45Z</time>
      </trkpt>
      <trkpt lat="51.175431031733751" lon="3.580683991312981">
        <ele>8.789999999999999</ele>
        <time>2018-07-01T14:23:53Z</time>
      </trkpt>
      <trkpt lat="51.176543980836868" lon="3.57939200475812">
        <ele>6.87</ele>
        <time>2018-07-01T14:24:03Z</time>
      </trkpt>
      <trkpt lat="51.178046017885208" lon="3.577714031562209">
        <ele>6.87</ele>
        <time>2018-07-01T14:24:16Z</time>
      </trkpt>
      <trkpt lat="51.179183023050427" lon="3.576549030840397">
        <ele>8.310000000000001</ele>
        <time>2018-07-01T14:24:26Z</time>
      </trkpt>
      <trkpt lat="51.17983496747911" lon="3.575850985944271">
        <ele>6.87</ele>
        <time>2018-07-01T14:24:35Z</time>
      </trkpt>
      <trkpt lat="51.17987796664238" lon="3.575801029801369">
        <ele>6.87</ele>
        <time>2018-07-01T14:24:36Z</time>
      </trkpt>
      <trkpt lat="51.179914008826017" lon="3.575760964304209">
        <ele>6.39</ele>
        <time>2018-07-01T14:24:37Z</time>
      </trkpt>
      <trkpt lat="51.179959019646049" lon="3.575711008161306">
        <ele>6.39</ele>
        <time>2018-07-01T14:24:45Z</time>
      </trkpt>
      <trkpt lat="51.180097991600633" lon="3.575549991801381">
        <ele>6.87</ele>
        <time>2018-07-01T14:24:58Z</time>
      </trkpt>
      <trkpt lat="51.180917993187904" lon="3.574628988280892">
        <ele>8.310000000000001</ele>
        <time>2018-07-01T14:25:07Z</time>
      </trkpt>
      <trkpt lat="51.181974029168487" lon="3.573308000341058">
        <ele>8.310000000000001</ele>
        <time>2018-07-01T14:25:18Z</time>
      </trkpt>
      <trkpt lat="51.182034965604544" lon="3.573146983981133">
        <ele>8.310000000000001</ele>
        <time>2018-07-01T14:25:19Z</time>
      </trkpt>
      <trkpt lat="51.182095985859632" lon="3.572983033955097">
        <ele>8.310000000000001</ele>
        <time>2018-07-01T14:25:20Z</time>
      </trkpt>
      <trkpt lat="51.182437967509031" lon="3.571932027116418">
        <ele>9.27</ele>
        <time>2018-07-01T14:25:28Z</time>
      </trkpt>
      <trkpt lat="51.182795958593488" lon="3.570809019729495">
        <ele>10.23</ele>
        <time>2018-07-01T14:25:38Z</time>
      </trkpt>
      <trkpt lat="51.18322997353971" lon="3.569244034588337">
        <ele>10.23</ele>
        <time>2018-07-01T14:25:48Z</time>
      </trkpt>
      <trkpt lat="51.183742024004459" lon="3.567586010321975">
        <ele>11.19</ele>
        <time>2018-07-01T14:25:59Z</time>
      </trkpt>
      <trkpt lat="51.183778988197446" lon="3.567479979246855">
        <ele>11.19</ele>
        <time>2018-07-01T14:26:00Z</time>
      </trkpt>
      <trkpt lat="51.183871021494269" lon="3.567217038944364">
        <ele>11.67</ele>
        <time>2018-07-01T14:26:07Z</time>
      </trkpt>
      <trkpt lat="51.183923995122313" lon="3.567068008705974">
        <ele>12.630000000000001</ele>
        <time>2018-07-01T14:26:36Z</time>
      </trkpt>
      <trkpt lat="51.184378964826465" lon="3.566070981323719">
        <ele>14.56</ele>
        <time>2018-07-01T14:26:45Z</time>
      </trkpt>
      <trkpt lat="51.184445014223456" lon="3.565969979390502">
        <ele>14.56</ele>
        <time>2018-07-01T14:26:46Z</time>
      </trkpt>
      <trkpt lat="51.184507962316275" lon="3.565871994942427">
        <ele>14.56</ele>
        <time>2018-07-01T14:26:47Z</time>
      </trkpt>
      <trkpt lat="51.184635031968355" lon="3.56568600051105">
        <ele>14.56</ele>
        <time>2018-07-01T14:26:49Z</time>
      </trkpt>
      <trkpt lat="51.184699991717935" lon="3.565575024113059">
        <ele>14.56</ele>
        <time>2018-07-01T14:26:50Z</time>
      </trkpt>
      <trkpt lat="51.184749025851488" lon="3.56544996611774">
        <ele>15.039999999999999</ele>
        <time>2018-07-01T14:26:51Z</time>
      </trkpt>
      <trkpt lat="51.184919010847807" lon="3.565026009455323">
        <ele>15.039999999999999</ele>
        <time>2018-07-01T14:26:55Z</time>
      </trkpt>
      <trkpt lat="51.184959998354316" lon="3.564922995865345">
        <ele>15.52</ele>
        <time>2018-07-01T14:26:56Z</time>
      </trkpt>
      <trkpt lat="51.185154961422086" lon="3.564441036432982">
        <ele>14.56</ele>
        <time>2018-07-01T14:27:00Z</time>
      </trkpt>
      <trkpt lat="51.185222016647458" lon="3.564318995922804">
        <ele>14.08</ele>
        <time>2018-07-01T14:27:01Z</time>
      </trkpt>
      <trkpt lat="51.185293011367321" lon="3.564187986776233">
        <ele>13.6</ele>
        <time>2018-07-01T14:27:02Z</time>
      </trkpt>
      <trkpt lat="51.185369035229087" lon="3.564049014821649">
        <ele>13.6</ele>
        <time>2018-07-01T14:27:03Z</time>
      </trkpt>
      <trkpt lat="51.185445981100202" lon="3.563907025381923">
        <ele>13.6</ele>
        <time>2018-07-01T14:27:04Z</time>
      </trkpt>
      <trkpt lat="51.18552602827549" lon="3.563762018457055">
        <ele>13.119999999999999</ele>
        <time>2018-07-01T14:27:05Z</time>
      </trkpt>
      <trkpt lat="51.18600295856595" lon="3.562886025756598">
        <ele>13.119999999999999</ele>
        <time>2018-07-01T14:27:11Z</time>
      </trkpt>
      <trkpt lat="51.18617202155292" lon="3.562614032998681">
        <ele>13.119999999999999</ele>
        <time>2018-07-01T14:27:13Z</time>
      </trkpt>
      <trkpt lat="51.186263971030712" lon="3.562469026073813">
        <ele>13.119999999999999</ele>
        <time>2018-07-01T14:27:14Z</time>
      </trkpt>
      <trkpt lat="51.187019012868404" lon="3.561191959306598">
        <ele>10.710000000000001</ele>
        <time>2018-07-01T14:27:23Z</time>
      </trkpt>
      <trkpt lat="51.187919983640313" lon="3.559730993583798">
        <ele>7.83</ele>
        <time>2018-07-01T14:27:34Z</time>
      </trkpt>
      <trkpt lat="51.188988005742431" lon="3.557937014847994">
        <ele>8.789999999999999</ele>
        <time>2018-07-01T14:27:46Z</time>
      </trkpt>
      <trkpt lat="51.189077021554112" lon="3.5578019823879">
        <ele>8.310000000000001</ele>
        <time>2018-07-01T14:27:47Z</time>
      </trkpt>
      <trkpt lat="51.189904985949397" lon="3.55636197142303">
        <ele>10.710000000000001</ele>
        <time>2018-07-01T14:27:57Z</time>
      </trkpt>
      <trkpt lat="51.190334977582097" lon="3.555287998169661">
        <ele>13.6</ele>
        <time>2018-07-01T14:28:06Z</time>
      </trkpt>
      <trkpt lat="51.190427010878921" lon="3.555070990696549">
        <ele>14.08</ele>
        <time>2018-07-01T14:28:08Z</time>
      </trkpt>
      <trkpt lat="51.190861025825143" lon="3.553920993581414">
        <ele>13.6</ele>
        <time>2018-07-01T14:28:15Z</time>
      </trkpt>
      <trkpt lat="51.191368969157338" lon="3.552441000938416">
        <ele>15.039999999999999</ele>
        <time>2018-07-01T14:28:24Z</time>
      </trkpt>
      <trkpt lat="51.192118981853127" lon="3.55036798864603">
        <ele>14.08</ele>
        <time>2018-07-01T14:28:34Z</time>
      </trkpt>
      <trkpt lat="51.192906964570284" lon="3.548263041302562">
        <ele>14.08</ele>
        <time>2018-07-01T14:28:44Z</time>
      </trkpt>
      <trkpt lat="51.193783041089773" lon="3.545907977968454">
        <ele>13.6</ele>
        <time>2018-07-01T14:28:55Z</time>
      </trkpt>
      <trkpt lat="51.195048037916422" lon="3.542478019371629">
        <ele>9.27</ele>
        <time>2018-07-01T14:29:10Z</time>
      </trkpt>
      <trkpt lat="51.195864016190171" lon="3.540270980447531">
        <ele>9.75</ele>
        <time>2018-07-01T14:29:20Z</time>
      </trkpt>
      <trkpt lat="51.196592990309" lon="3.538263011723757">
        <ele>10.710000000000001</ele>
        <time>2018-07-01T14:29:29Z</time>
      </trkpt>
      <trkpt lat="51.197350965812802" lon="3.535998975858092">
        <ele>10.710000000000001</ele>
        <time>2018-07-01T14:29:40Z</time>
      </trkpt>
      <trkpt lat="51.19777400046587" lon="3.534537004306912">
        <ele>9.75</ele>
        <time>2018-07-01T14:29:48Z</time>
      </trkpt>
      <trkpt lat="51.198017997667193" lon="3.533982038497925">
        <ele>9.75</ele>
        <time>2018-07-01T14:29:53Z</time>
      </trkpt>
      <trkpt lat="51.198072982951999" lon="3.533925963565707">
        <ele>9.27</ele>
        <time>2018-07-01T14:29:54Z</time>
      </trkpt>
      <trkpt lat="51.198127968236804" lon="3.533870978280902">
        <ele>9.75</ele>
        <time>2018-07-01T14:29:55Z</time>
      </trkpt>
      <trkpt lat="51.198170967400074" lon="3.533857986330986">
        <ele>9.75</ele>
        <time>2018-07-01T14:29:56Z</time>
      </trkpt>
      <trkpt lat="51.198226036503911" lon="3.533849017694593">
        <ele>9.27</ele>
        <time>2018-07-01T14:29:57Z</time>
      </trkpt>
      <trkpt lat="51.198276998475194" lon="3.533839965239167">
        <ele>9.27</ele>
        <time>2018-07-01T14:29:58Z</time>
      </trkpt>
      <trkpt lat="51.198336007073522" lon="3.533830996602774">
        <ele>9.27</ele>
        <time>2018-07-01T14:29:59Z</time>
      </trkpt>
      <trkpt lat="51.198393004015088" lon="3.533821022138">
        <ele>9.27</ele>
        <time>2018-07-01T14:30:00Z</time>
      </trkpt>
      <trkpt lat="51.19848201982677" lon="3.533862009644508">
        <ele>8.789999999999999</ele>
        <time>2018-07-01T14:30:01Z</time>
      </trkpt>
      <trkpt lat="51.198629038408399" lon="3.533927975222468">
        <ele>8.789999999999999</ele>
        <time>2018-07-01T14:30:02Z</time>
      </trkpt>
      <trkpt lat="51.198714030906558" lon="3.53399695828557">
        <ele>8.789999999999999</ele>
        <time>2018-07-01T14:30:03Z</time>
      </trkpt>
      <trkpt lat="51.199868973344564" lon="3.534631971269846">
        <ele>7.35</ele>
        <time>2018-07-01T14:30:10Z</time>
      </trkpt>
      <trkpt lat="51.201676027849317" lon="3.535061040893197">
        <ele>6.39</ele>
        <time>2018-07-01T14:30:20Z</time>
      </trkpt>
      <trkpt lat="51.204024972394109" lon="3.53506900370121">
        <ele>4.46</ele>
        <time>2018-07-01T14:30:32Z</time>
      </trkpt>
      <trkpt lat="51.206643981859088" lon="3.535525985062122">
        <ele>3.02</ele>
        <time>2018-07-01T14:30:44Z</time>
      </trkpt>
      <trkpt lat="51.209198031574488" lon="3.535997970029712">
        <ele>10.23</ele>
        <time>2018-07-01T14:30:57Z</time>
      </trkpt>
      <trkpt lat="51.209573037922382" lon="3.536119004711509">
        <ele>10.23</ele>
        <time>2018-07-01T14:31:00Z</time>
      </trkpt>
      <trkpt lat="51.209701029583812" lon="3.536159992218018">
        <ele>9.75</ele>
        <time>2018-07-01T14:31:01Z</time>
      </trkpt>
      <trkpt lat="51.209762971848249" lon="3.536235010251403">
        <ele>9.75</ele>
        <time>2018-07-01T14:31:02Z</time>
      </trkpt>
      <trkpt lat="51.209844024851918" lon="3.536330983042717">
        <ele>9.27</ele>
        <time>2018-07-01T14:31:03Z</time>
      </trkpt>
      <trkpt lat="51.209930023178458" lon="3.536462998017669">
        <ele>9.27</ele>
        <time>2018-07-01T14:31:04Z</time>
      </trkpt>
      <trkpt lat="51.209981990978122" lon="3.536655027419329">
        <ele>8.789999999999999</ele>
        <time>2018-07-01T14:31:05Z</time>
      </trkpt>
      <trkpt lat="51.209990959614515" lon="3.536842027679086">
        <ele>8.310000000000001</ele>
        <time>2018-07-01T14:31:06Z</time>
      </trkpt>
      <trkpt lat="51.210000012069941" lon="3.537029027938843">
        <ele>7.83</ele>
        <time>2018-07-01T14:31:07Z</time>
      </trkpt>
      <trkpt lat="51.209947038441896" lon="3.537232037633658">
        <ele>6.87</ele>
        <time>2018-07-01T14:31:08Z</time>
      </trkpt>
      <trkpt lat="51.209893980994821" lon="3.537401016801596">
        <ele>6.39</ele>
        <time>2018-07-01T14:31:09Z</time>
      </trkpt>
      <trkpt lat="51.209801025688648" lon="3.537558009847999">
        <ele>5.42</ele>
        <time>2018-07-01T14:31:10Z</time>
      </trkpt>
      <trkpt lat="51.209688959643245" lon="3.53768901899457">
        <ele>4.46</ele>
        <time>2018-07-01T14:31:11Z</time>
      </trkpt>
      <trkpt lat="51.209574965760112" lon="3.537738975137472">
        <ele>4.46</ele>
        <time>2018-07-01T14:31:12Z</time>
      </trkpt>
      <trkpt lat="51.209431970492005" lon="3.537723971530795">
        <ele>3.98</ele>
        <time>2018-07-01T14:31:13Z</time>
      </trkpt>
      <trkpt lat="51.209324011579156" lon="3.537659011781216">
        <ele>3.5</ele>
        <time>2018-07-01T14:31:14Z</time>
      </trkpt>
      <trkpt lat="51.209216974675655" lon="3.537594974040985">
        <ele>3.5</ele>
        <time>2018-07-01T14:31:15Z</time>
      </trkpt>
      <trkpt lat="51.209126031026244" lon="3.537458013743162">
        <ele>3.02</ele>
        <time>2018-07-01T14:31:16Z</time>
      </trkpt>
      <trkpt lat="51.209055036306381" lon="3.537315018475056">
        <ele>3.02</ele>
        <time>2018-07-01T14:31:17Z</time>
      </trkpt>
      <trkpt lat="51.208990998566151" lon="3.537146961316466">
        <ele>2.54</ele>
        <time>2018-07-01T14:31:18Z</time>
      </trkpt>
      <trkpt lat="51.208982029929757" lon="3.536974964663386">
        <ele>2.06</ele>
        <time>2018-07-01T14:31:19Z</time>
      </trkpt>
      <trkpt lat="51.208973983302712" lon="3.536796011030674">
        <ele>2.06</ele>
        <time>2018-07-01T14:31:20Z</time>
      </trkpt>
      <trkpt lat="51.208984041586518" lon="3.536602975800633">
        <ele>2.54</ele>
        <time>2018-07-01T14:31:21Z</time>
      </trkpt>
      <trkpt lat="51.209002984687686" lon="3.536400971934199">
        <ele>2.54</ele>
        <time>2018-07-01T14:31:22Z</time>
      </trkpt>
      <trkpt lat="51.209046989679337" lon="3.536165021359921">
        <ele>2.54</ele>
        <time>2018-07-01T14:31:23Z</time>
      </trkpt>
      <trkpt lat="51.209226027131081" lon="3.535379972308874">
        <ele>4.46</ele>
        <time>2018-07-01T14:31:26Z</time>
      </trkpt>
      <trkpt lat="51.209745034575462" lon="3.532892977818847">
        <ele>4.94</ele>
        <time>2018-07-01T14:31:33Z</time>
      </trkpt>
      <trkpt lat="51.210177037864923" lon="3.529475005343556">
        <ele>3.5</ele>
        <time>2018-07-01T14:31:41Z</time>
      </trkpt>
      <trkpt lat="51.210555983707309" lon="3.526247972622514">
        <ele>3.5</ele>
        <time>2018-07-01T14:31:49Z</time>
      </trkpt>
      <trkpt lat="51.211337009444833" lon="3.522909041494131">
        <ele>2.54</ele>
        <time>2018-07-01T14:31:57Z</time>
      </trkpt>
      <trkpt lat="51.213112967088819" lon="3.517010025680065">
        <ele>4.94</ele>
        <time>2018-07-01T14:32:11Z</time>
      </trkpt>
      <trkpt lat="51.214106976985931" lon="3.512556971982122">
        <ele>13.6</ele>
        <time>2018-07-01T14:32:21Z</time>
      </trkpt>
      <trkpt lat="51.215590992942452" lon="3.5056989826262">
        <ele>13.119999999999999</ele>
        <time>2018-07-01T14:32:36Z</time>
      </trkpt>
      <trkpt lat="51.216562958434224" lon="3.501192033290863">
        <ele>4.94</ele>
        <time>2018-07-01T14:32:46Z</time>
      </trkpt>
      <trkpt lat="51.217912025749683" lon="3.494939971715212">
        <ele>4.94</ele>
        <time>2018-07-01T14:33:00Z</time>
      </trkpt>
      <trkpt lat="51.21884903870523" lon="3.490576017647982">
        <ele>5.42</ele>
        <time>2018-07-01T14:33:10Z</time>
      </trkpt>
      <trkpt lat="51.219828967005014" lon="3.485679980367422">
        <ele>4.46</ele>
        <time>2018-07-01T14:33:23Z</time>
      </trkpt>
      <trkpt lat="51.220410000532866" lon="3.481295993551612">
        <ele>5.42</ele>
        <time>2018-07-01T14:33:34Z</time>
      </trkpt>
      <trkpt lat="51.220786012709141" lon="3.47572697326541">
        <ele>3.98</ele>
        <time>2018-07-01T14:33:48Z</time>
      </trkpt>
      <trkpt lat="51.220983993262053" lon="3.470665980130434">
        <ele>3.02</ele>
        <time>2018-07-01T14:34:00Z</time>
      </trkpt>
      <trkpt lat="51.221193037927151" lon="3.465341040864587">
        <ele>2.54</ele>
        <time>2018-07-01T14:34:12Z</time>
      </trkpt>
      <trkpt lat="51.221424965187907" lon="3.459577979519963">
        <ele>2.54</ele>
        <time>2018-07-01T14:34:25Z</time>
      </trkpt>
      <trkpt lat="51.221638033166528" lon="3.454022035002708">
        <ele>3.98</ele>
        <time>2018-07-01T14:34:37Z</time>
      </trkpt>
      <trkpt lat="51.221754960715771" lon="3.451149975880981">
        <ele>5.42</ele>
        <time>2018-07-01T14:34:44Z</time>
      </trkpt>
      <trkpt lat="51.221830984577537" lon="3.449194980785251">
        <ele>4.46</ele>
        <time>2018-07-01T14:34:51Z</time>
      </trkpt>
      <trkpt lat="51.221845988184214" lon="3.447922021150589">
        <ele>3.98</ele>
        <time>2018-07-01T14:34:59Z</time>
      </trkpt>
      <trkpt lat="51.221845988184214" lon="3.447851026430726">
        <ele>3.98</ele>
        <time>2018-07-01T14:35:00Z</time>
      </trkpt>
      <trkpt lat="51.221845988184214" lon="3.447799980640411">
        <ele>3.98</ele>
        <time>2018-07-01T14:35:01Z</time>
      </trkpt>
      <trkpt lat="51.221845988184214" lon="3.447799980640411">
        <ele>3.98</ele>
        <time>2018-07-01T14:35:02Z</time>
      </trkpt>
      <trkpt lat="51.221845988184214" lon="3.447799980640411">
        <ele>3.98</ele>
        <time>2018-07-01T14:35:15Z</time>
      </trkpt>
      <trkpt lat="51.221845988184214" lon="3.447764022275806">
        <ele>3.98</ele>
        <time>2018-07-01T14:35:34Z</time>
      </trkpt>
      <trkpt lat="51.221845988184214" lon="3.447598982602358">
        <ele>4.46</ele>
        <time>2018-07-01T14:35:38Z</time>
      </trkpt>
      <trkpt lat="51.221845988184214" lon="3.447512984275818">
        <ele>4.94</ele>
        <time>2018-07-01T14:35:39Z</time>
      </trkpt>
      <trkpt lat="51.221826961264014" lon="3.4464639890939">
        <ele>5.42</ele>
        <time>2018-07-01T14:35:46Z</time>
      </trkpt>
      <trkpt lat="51.221740962937474" lon="3.444420984014869">
        <ele>6.39</ele>
        <time>2018-07-01T14:35:54Z</time>
      </trkpt>
      <trkpt lat="51.221511969342828" lon="3.441497962921858">
        <ele>4.94</ele>
        <time>2018-07-01T14:36:03Z</time>
      </trkpt>
      <trkpt lat="51.221181973814964" lon="3.437296031042934">
        <ele>3.5</ele>
        <time>2018-07-01T14:36:15Z</time>
      </trkpt>
      <trkpt lat="51.220954991877079" lon="3.434397988021374">
        <ele>4.94</ele>
        <time>2018-07-01T14:36:24Z</time>
      </trkpt>
      <trkpt lat="51.220836974680424" lon="3.43144697137177">
        <ele>5.42</ele>
        <time>2018-07-01T14:36:34Z</time>
      </trkpt>
      <trkpt lat="51.220867987722158" lon="3.428137041628361">
        <ele>6.87</ele>
        <time>2018-07-01T14:36:44Z</time>
      </trkpt>
      <trkpt lat="51.220922973006964" lon="3.423348963260651">
        <ele>7.83</ele>
        <time>2018-07-01T14:36:56Z</time>
      </trkpt>
      <trkpt lat="51.220972007140517" lon="3.419131021946669">
        <ele>7.35</ele>
        <time>2018-07-01T14:37:06Z</time>
      </trkpt>
      <trkpt lat="51.221029004082084" lon="3.414955995976925">
        <ele>6.87</ele>
        <time>2018-07-01T14:37:18Z</time>
      </trkpt>
      <trkpt lat="51.221083989366889" lon="3.412525998428464">
        <ele>6.87</ele>
        <time>2018-07-01T14:37:26Z</time>
      </trkpt>
      <trkpt lat="51.22115196660161" lon="3.411751007661223">
        <ele>6.87</ele>
        <time>2018-07-01T14:37:32Z</time>
      </trkpt>
      <trkpt lat="51.221162024885416" lon="3.411671966314316">
        <ele>6.87</ele>
        <time>2018-07-01T14:37:33Z</time>
      </trkpt>
      <trkpt lat="51.221176022663713" lon="3.411555038765073">
        <ele>6.39</ele>
        <time>2018-07-01T14:37:40Z</time>
      </trkpt>
      <trkpt lat="51.221239976584911" lon="3.411090010777116">
        <ele>6.87</ele>
        <time>2018-07-01T14:38:00Z</time>
      </trkpt>
      <trkpt lat="51.221606014296412" lon="3.409825013950467">
        <ele>5.91</ele>
        <time>2018-07-01T14:38:06Z</time>
      </trkpt>
      <trkpt lat="51.222499022260308" lon="3.407965991646051">
        <ele>4.46</ele>
        <time>2018-07-01T14:38:14Z</time>
      </trkpt>
      <trkpt lat="51.223623035475612" lon="3.40658800676465">
        <ele>5.42</ele>
        <time>2018-07-01T14:38:21Z</time>
      </trkpt>
      <trkpt lat="51.225259015336633" lon="3.40495303273201">
        <ele>5.91</ele>
        <time>2018-07-01T14:38:31Z</time>
      </trkpt>
      <trkpt lat="51.227300008758903" lon="3.403373965993524">
        <ele>4.94</ele>
        <time>2018-07-01T14:38:42Z</time>
      </trkpt>
      <trkpt lat="51.229495983570814" lon="3.402279037982225">
        <ele>3.98</ele>
        <time>2018-07-01T14:38:53Z</time>
      </trkpt>
      <trkpt lat="51.231106985360384" lon="3.40164402499795">
        <ele>5.42</ele>
        <time>2018-07-01T14:39:01Z</time>
      </trkpt>
      <trkpt lat="51.234002010896802" lon="3.400602992624044">
        <ele>6.39</ele>
        <time>2018-07-01T14:39:15Z</time>
      </trkpt>
      <trkpt lat="51.237038020044565" lon="3.399485014379025">
        <ele>6.87</ele>
        <time>2018-07-01T14:39:29Z</time>
      </trkpt>
      <trkpt lat="51.239526020362973" lon="3.398698037490249">
        <ele>7.83</ele>
        <time>2018-07-01T14:39:40Z</time>
      </trkpt>
      <trkpt lat="51.242046961560845" lon="3.398553030565381">
        <ele>9.27</ele>
        <time>2018-07-01T14:39:51Z</time>
      </trkpt>
      <trkpt lat="51.244515012949705" lon="3.398440964519978">
        <ele>12.15</ele>
        <time>2018-07-01T14:40:02Z</time>
      </trkpt>
      <trkpt lat="51.246082009747624" lon="3.397815003991127">
        <ele>9.27</ele>
        <time>2018-07-01T14:40:09Z</time>
      </trkpt>
      <trkpt lat="51.247848998755217" lon="3.396699959412217">
        <ele>5.91</ele>
        <time>2018-07-01T14:40:18Z</time>
      </trkpt>
      <trkpt lat="51.250421991571784" lon="3.395146960392594">
        <ele>5.42</ele>
        <time>2018-07-01T14:40:31Z</time>
      </trkpt>
      <trkpt lat="51.252427026629448" lon="3.393695969134569">
        <ele>4.94</ele>
        <time>2018-07-01T14:40:41Z</time>
      </trkpt>
      <trkpt lat="51.253568977117538" lon="3.392658960074186">
        <ele>4.94</ele>
        <time>2018-07-01T14:40:48Z</time>
      </trkpt>
      <trkpt lat="51.254826011136174" lon="3.391391029581428">
        <ele>5.42</ele>
        <time>2018-07-01T14:40:57Z</time>
      </trkpt>
      <trkpt lat="51.255163969472051" lon="3.391047036275268">
        <ele>5.91</ele>
        <time>2018-07-01T14:41:02Z</time>
      </trkpt>
      <trkpt lat="51.255186013877392" lon="3.390952991321683">
        <ele>6.39</ele>
        <time>2018-07-01T14:41:03Z</time>
      </trkpt>
      <trkpt lat="51.255186013877392" lon="3.390952991321683">
        <ele>6.39</ele>
        <time>2018-07-01T14:41:13Z</time>
      </trkpt>
      <trkpt lat="51.255186013877392" lon="3.390952991321683">
        <ele>6.39</ele>
        <time>2018-07-01T14:42:00Z</time>
      </trkpt>
      <trkpt lat="51.255175033584237" lon="3.390798009932041">
        <ele>6.39</ele>
        <time>2018-07-01T14:42:22Z</time>
      </trkpt>
      <trkpt lat="51.255166986957192" lon="3.390699019655585">
        <ele>6.39</ele>
        <time>2018-07-01T14:42:23Z</time>
      </trkpt>
      <trkpt lat="51.255153995007277" lon="3.390587037429214">
        <ele>5.91</ele>
        <time>2018-07-01T14:42:24Z</time>
      </trkpt>
      <trkpt lat="51.25513999722898" lon="3.390468014404178">
        <ele>5.42</ele>
        <time>2018-07-01T14:42:25Z</time>
      </trkpt>
      <trkpt lat="51.255123987793922" lon="3.390328958630562">
        <ele>5.42</ele>
        <time>2018-07-01T14:42:26Z</time>
      </trkpt>
      <trkpt lat="51.255105966702104" lon="3.390170959755778">
        <ele>4.94</ele>
        <time>2018-07-01T14:42:27Z</time>
      </trkpt>
      <trkpt lat="51.254826011136174" lon="3.388420986011624">
        <ele>4.46</ele>
        <time>2018-07-01T14:42:36Z</time>
      </trkpt>
      <trkpt lat="51.254356037825346" lon="3.386289970949292">
        <ele>4.94</ele>
        <time>2018-07-01T14:42:47Z</time>
      </trkpt>
      <trkpt lat="51.253967033699155" lon="3.384678969159722">
        <ele>4.94</ele>
        <time>2018-07-01T14:42:56Z</time>
      </trkpt>
      <trkpt lat="51.253921017050743" lon="3.384507978335023">
        <ele>4.94</ele>
        <time>2018-07-01T14:42:57Z</time>
      </trkpt>
      <trkpt lat="51.253861002624035" lon="3.384342016652226">
        <ele>5.42</ele>
        <time>2018-07-01T14:42:58Z</time>
      </trkpt>
      <trkpt lat="51.253748014569283" lon="3.384026018902659">
        <ele>5.91</ele>
        <time>2018-07-01T14:43:00Z</time>
      </trkpt>
      <trkpt lat="51.253674002364278" lon="3.383900038897991">
        <ele>6.39</ele>
        <time>2018-07-01T14:43:01Z</time>
      </trkpt>
      <trkpt lat="51.253589009866118" lon="3.383779004216194">
        <ele>6.87</ele>
        <time>2018-07-01T14:43:02Z</time>
      </trkpt>
      <trkpt lat="51.253496976569295" lon="3.38368303142488">
        <ele>6.39</ele>
        <time>2018-07-01T14:43:03Z</time>
      </trkpt>
      <trkpt lat="51.253402009606361" lon="3.383587980642915">
        <ele>6.87</ele>
        <time>2018-07-01T14:43:04Z</time>
      </trkpt>
      <trkpt lat="51.253302013501525" lon="3.383487984538078">
        <ele>7.35</ele>
        <time>2018-07-01T14:43:05Z</time>
      </trkpt>
      <trkpt lat="51.253206040710211" lon="3.383377008140087">
        <ele>7.35</ele>
        <time>2018-07-01T14:43:06Z</time>
      </trkpt>
      <trkpt lat="51.253110989928246" lon="3.383267037570477">
        <ele>7.35</ele>
        <time>2018-07-01T14:43:07Z</time>
      </trkpt>
      <trkpt lat="51.253023985773325" lon="3.38316704146564">
        <ele>7.35</ele>
        <time>2018-07-01T14:43:08Z</time>
      </trkpt>
      <trkpt lat="51.252936981618404" lon="3.383027985692024">
        <ele>7.35</ele>
        <time>2018-07-01T14:43:09Z</time>
      </trkpt>
      <trkpt lat="51.25286003574729" lon="3.382905023172498">
        <ele>7.35</ele>
        <time>2018-07-01T14:43:10Z</time>
      </trkpt>
      <trkpt lat="51.252782000228763" lon="3.382779965177178">
        <ele>7.35</ele>
        <time>2018-07-01T14:43:11Z</time>
      </trkpt>
      <trkpt lat="51.252123015001416" lon="3.381308019161224">
        <ele>7.35</ele>
        <time>2018-07-01T14:43:21Z</time>
      </trkpt>
      <trkpt lat="51.251665027812123" lon="3.380153998732567">
        <ele>7.35</ele>
        <time>2018-07-01T14:43:28Z</time>
      </trkpt>
      <trkpt lat="51.251598978415132" lon="3.379980996251106">
        <ele>7.35</ele>
        <time>2018-07-01T14:43:29Z</time>
      </trkpt>
      <trkpt lat="51.250824993476272" lon="3.377950983121991">
        <ele>8.310000000000001</ele>
        <time>2018-07-01T14:43:41Z</time>
      </trkpt>
      <trkpt lat="51.250085039064288" lon="3.375990958884358">
        <ele>8.789999999999999</ele>
        <time>2018-07-01T14:43:52Z</time>
      </trkpt>
      <trkpt lat="51.249050041660666" lon="3.373011024668813">
        <ele>8.310000000000001</ele>
        <time>2018-07-01T14:44:08Z</time>
      </trkpt>
      <trkpt lat="51.248157033696771" lon="3.371282005682588">
        <ele>8.310000000000001</ele>
        <time>2018-07-01T14:44:18Z</time>
      </trkpt>
      <trkpt lat="51.247468963265419" lon="3.369443016126752">
        <ele>6.39</ele>
        <time>2018-07-01T14:44:27Z</time>
      </trkpt>
      <trkpt lat="51.246594982221723" lon="3.366885026916862">
        <ele>5.91</ele>
        <time>2018-07-01T14:44:39Z</time>
      </trkpt>
      <trkpt lat="51.246017972007394" lon="3.364590983837843">
        <ele>4.94</ele>
        <time>2018-07-01T14:44:48Z</time>
      </trkpt>
      <trkpt lat="51.245920993387699" lon="3.362406995147467">
        <ele>4.94</ele>
        <time>2018-07-01T14:44:56Z</time>
      </trkpt>
      <trkpt lat="51.245920993387699" lon="3.359317006543279">
        <ele>4.46</ele>
        <time>2018-07-01T14:45:08Z</time>
      </trkpt>
      <trkpt lat="51.24585896730423" lon="3.357095969840884">
        <ele>6.39</ele>
        <time>2018-07-01T14:45:17Z</time>
      </trkpt>
      <trkpt lat="51.245526960119605" lon="3.354791030287743">
        <ele>8.310000000000001</ele>
        <time>2018-07-01T14:45:27Z</time>
      </trkpt>
      <trkpt lat="51.24547298066318" lon="3.354452988132834">
        <ele>8.310000000000001</ele>
        <time>2018-07-01T14:45:29Z</time>
      </trkpt>
      <trkpt lat="51.245443979278207" lon="3.354279985651374">
        <ele>8.789999999999999</ele>
        <time>2018-07-01T14:45:30Z</time>
      </trkpt>
      <trkpt lat="51.245032008737326" lon="3.352471003308892">
        <ele>5.42</ele>
        <time>2018-07-01T14:45:39Z</time>
      </trkpt>
      <trkpt lat="51.244502020999789" lon="3.350119041278958">
        <ele>4.46</ele>
        <time>2018-07-01T14:45:50Z</time>
      </trkpt>
      <trkpt lat="51.244036993011832" lon="3.347080014646053">
        <ele>3.5</ele>
        <time>2018-07-01T14:46:04Z</time>
      </trkpt>
      <trkpt lat="51.243681013584137" lon="3.344654962420464">
        <ele>3.5</ele>
        <time>2018-07-01T14:46:16Z</time>
      </trkpt>
      <trkpt lat="51.243343977257609" lon="3.341946015134454">
        <ele>3.5</ele>
        <time>2018-07-01T14:46:29Z</time>
      </trkpt>
      <trkpt lat="51.243174998089671" lon="3.340981006622315">
        <ele>3.5</ele>
        <time>2018-07-01T14:46:34Z</time>
      </trkpt>
      <trkpt lat="51.243033008649945" lon="3.34021900780499">
        <ele>2.06</ele>
        <time>2018-07-01T14:46:40Z</time>
      </trkpt>
      <trkpt lat="51.243024040013552" lon="3.340169973671436">
        <ele>2.06</ele>
        <time>2018-07-01T14:46:41Z</time>
      </trkpt>
      <trkpt lat="51.243013981729746" lon="3.340117000043392">
        <ele>1.1</ele>
        <time>2018-07-01T14:46:46Z</time>
      </trkpt>
      <trkpt lat="51.242970982566476" lon="3.34007098339498">
        <ele>1.1</ele>
        <time>2018-07-01T14:46:47Z</time>
      </trkpt>
      <trkpt lat="51.242917003110051" lon="3.340093027800322">
        <ele>1.1</ele>
        <time>2018-07-01T14:46:48Z</time>
      </trkpt>
      <trkpt lat="51.242851037532091" lon="3.340119011700153">
        <ele>0.62</ele>
        <time>2018-07-01T14:46:49Z</time>
      </trkpt>
      <trkpt lat="51.242781970649958" lon="3.340147007256746">
        <ele>0.62</ele>
        <time>2018-07-01T14:46:50Z</time>
      </trkpt>
      <trkpt lat="51.242705024778843" lon="3.3401770144701">
        <ele>0.62</ele>
        <time>2018-07-01T14:46:51Z</time>
      </trkpt>
      <trkpt lat="51.241830037906766" lon="3.34045697003603">
        <ele>0.62</ele>
        <time>2018-07-01T14:46:59Z</time>
      </trkpt>
      <trkpt lat="51.240630000829697" lon="3.340843040496111">
        <ele>1.58</ele>
        <time>2018-07-01T14:47:09Z</time>
      </trkpt>
      <trkpt lat="51.239204993471503" lon="3.341130958870053">
        <ele>1.58</ele>
        <time>2018-07-01T14:47:20Z</time>
      </trkpt>
      <trkpt lat="51.238069999963045" lon="3.34146598353982">
        <ele>1.1</ele>
        <time>2018-07-01T14:47:30Z</time>
      </trkpt>
      <trkpt lat="51.237446973100305" lon="3.341668993234634">
        <ele>2.54</ele>
        <time>2018-07-01T14:47:39Z</time>
      </trkpt>
      <trkpt lat="51.237041959539056" lon="3.341807965189219">
        <ele>2.54</ele>
        <time>2018-07-01T14:47:45Z</time>
      </trkpt>
      <trkpt lat="51.236934000626206" lon="3.341718027368188">
        <ele>2.54</ele>
        <time>2018-07-01T14:47:46Z</time>
      </trkpt>
      <trkpt lat="51.236921008676291" lon="3.341634040698409">
        <ele>2.54</ele>
        <time>2018-07-01T14:47:47Z</time>
      </trkpt>
      <trkpt lat="51.236904999241233" lon="3.341525997966528">
        <ele>2.54</ele>
        <time>2018-07-01T14:47:48Z</time>
      </trkpt>
      <trkpt lat="51.236886978149414" lon="3.341405969113112">
        <ele>2.54</ele>
        <time>2018-07-01T14:47:49Z</time>
      </trkpt>
      <trkpt lat="51.236867029219866" lon="3.34127102047205">
        <ele>2.54</ele>
        <time>2018-07-01T14:47:50Z</time>
      </trkpt>
      <trkpt lat="51.236595036461949" lon="3.339808965101838">
        <ele>2.54</ele>
        <time>2018-07-01T14:47:58Z</time>
      </trkpt>
      <trkpt lat="51.236322037875652" lon="3.337393971160054">
        <ele>3.02</ele>
        <time>2018-07-01T14:48:10Z</time>
      </trkpt>
      <trkpt lat="51.236192034557462" lon="3.334147995337844">
        <ele>3.5</ele>
        <time>2018-07-01T14:48:24Z</time>
      </trkpt>
      <trkpt lat="51.235968992114067" lon="3.332416964694858">
        <ele>3.5</ele>
        <time>2018-07-01T14:48:33Z</time>
      </trkpt>
      <trkpt lat="51.235571019351482" lon="3.329480029642582">
        <ele>4.46</ele>
        <time>2018-07-01T14:48:48Z</time>
      </trkpt>
      <trkpt lat="51.235221996903419" lon="3.326805029064417">
        <ele>4.94</ele>
        <time>2018-07-01T14:49:02Z</time>
      </trkpt>
      <trkpt lat="51.234786976128817" lon="3.324143020436168">
        <ele>3.02</ele>
        <time>2018-07-01T14:49:17Z</time>
      </trkpt>
      <trkpt lat="51.234454968944192" lon="3.322136979550123">
        <ele>2.54</ele>
        <time>2018-07-01T14:49:29Z</time>
      </trkpt>
      <trkpt lat="51.234079040586948" lon="3.319863975048065">
        <ele>3.02</ele>
        <time>2018-07-01T14:49:42Z</time>
      </trkpt>
      <trkpt lat="51.233694981783628" lon="3.317542020231485">
        <ele>2.06</ele>
        <time>2018-07-01T14:49:55Z</time>
      </trkpt>
      <trkpt lat="51.233288962393999" lon="3.3156399987638">
        <ele>2.54</ele>
        <time>2018-07-01T14:50:06Z</time>
      </trkpt>
      <trkpt lat="51.232853019610047" lon="3.313282001763582">
        <ele>3.98</ele>
        <time>2018-07-01T14:50:19Z</time>
      </trkpt>
      <trkpt lat="51.232395032420754" lon="3.310974966734648">
        <ele>3.98</ele>
        <time>2018-07-01T14:50:29Z</time>
      </trkpt>
      <trkpt lat="51.232004016637802" lon="3.309206971898675">
        <ele>3.98</ele>
        <time>2018-07-01T14:50:39Z</time>
      </trkpt>
      <trkpt lat="51.231912989169359" lon="3.308897009119391">
        <ele>3.98</ele>
        <time>2018-07-01T14:50:42Z</time>
      </trkpt>
      <trkpt lat="51.231739986687899" lon="3.308317987248302">
        <ele>4.94</ele>
        <time>2018-07-01T14:50:47Z</time>
      </trkpt>
      <trkpt lat="51.231324998661876" lon="3.306936984881759">
        <ele>7.35</ele>
        <time>2018-07-01T14:50:58Z</time>
      </trkpt>
      <trkpt lat="51.231287028640509" lon="3.306799018755555">
        <ele>7.35</ele>
        <time>2018-07-01T14:50:59Z</time>
      </trkpt>
      <trkpt lat="51.231262972578406" lon="3.30665803514421">
        <ele>6.87</ele>
        <time>2018-07-01T14:51:00Z</time>
      </trkpt>
      <trkpt lat="51.23124998062849" lon="3.306505987420678">
        <ele>6.87</ele>
        <time>2018-07-01T14:51:01Z</time>
      </trkpt>
      <trkpt lat="51.231223996728659" lon="3.306196024641395">
        <ele>6.87</ele>
        <time>2018-07-01T14:51:03Z</time>
      </trkpt>
      <trkpt lat="51.231244029477239" lon="3.305361019447446">
        <ele>7.35</ele>
        <time>2018-07-01T14:51:10Z</time>
      </trkpt>
      <trkpt lat="51.231155013665557" lon="3.305226992815733">
        <ele>7.35</ele>
        <time>2018-07-01T14:51:11Z</time>
      </trkpt>
      <trkpt lat="51.23112098313868" lon="3.304950976744294">
        <ele>7.35</ele>
        <time>2018-07-01T14:51:13Z</time>
      </trkpt>
      <trkpt lat="51.231102040037513" lon="3.30479096621275">
        <ele>7.35</ele>
        <time>2018-07-01T14:51:14Z</time>
      </trkpt>
      <trkpt lat="51.230803979560733" lon="3.303559999912977">
        <ele>9.27</ele>
        <time>2018-07-01T14:51:21Z</time>
      </trkpt>
      <trkpt lat="51.229888005182147" lon="3.30163199454546">
        <ele>6.87</ele>
        <time>2018-07-01T14:51:32Z</time>
      </trkpt>
      <trkpt lat="51.229202030226588" lon="3.300249986350536">
        <ele>4.46</ele>
        <time>2018-07-01T14:51:40Z</time>
      </trkpt>
      <trkpt lat="51.228620996698737" lon="3.299037041142583">
        <ele>3.02</ele>
        <time>2018-07-01T14:51:47Z</time>
      </trkpt>
      <trkpt lat="51.228542039170861" lon="3.298847023397684">
        <ele>2.54</ele>
        <time>2018-07-01T14:51:48Z</time>
      </trkpt>
      <trkpt lat="51.228470960631967" lon="3.298648037016392">
        <ele>2.54</ele>
        <time>2018-07-01T14:51:49Z</time>
      </trkpt>
      <trkpt lat="51.227967040613294" lon="3.296670997515321">
        <ele>4.46</ele>
        <time>2018-07-01T14:51:58Z</time>
      </trkpt>
      <trkpt lat="51.227583987638354" lon="3.294747015461326">
        <ele>4.46</ele>
        <time>2018-07-01T14:52:06Z</time>
      </trkpt>
      <trkpt lat="51.227191966027021" lon="3.292833007872105">
        <ele>3.02</ele>
        <time>2018-07-01T14:52:15Z</time>
      </trkpt>
      <trkpt lat="51.227132035419345" lon="3.292636033147574">
        <ele>3.02</ele>
        <time>2018-07-01T14:52:16Z</time>
      </trkpt>
      <trkpt lat="51.22637003660202" lon="3.290195977315307">
        <ele>2.54</ele>
        <time>2018-07-01T14:52:28Z</time>
      </trkpt>
      <trkpt lat="51.225218027830124" lon="3.286646995693445">
        <ele>3.5</ele>
        <time>2018-07-01T14:52:44Z</time>
      </trkpt>
      <trkpt lat="51.224639005959034" lon="3.284931974485517">
        <ele>2.54</ele>
        <time>2018-07-01T14:52:53Z</time>
      </trkpt>
      <trkpt lat="51.223702998831868" lon="3.282439028844237">
        <ele>3.5</ele>
        <time>2018-07-01T14:53:07Z</time>
      </trkpt>
      <trkpt lat="51.222935970872641" lon="3.280606996268034">
        <ele>2.54</ele>
        <time>2018-07-01T14:53:18Z</time>
      </trkpt>
      <trkpt lat="51.222855001688004" lon="3.280459977686405">
        <ele>2.06</ele>
        <time>2018-07-01T14:53:19Z</time>
      </trkpt>
      <trkpt lat="51.222773026674986" lon="3.280311031267047">
        <ele>1.58</ele>
        <time>2018-07-01T14:53:20Z</time>
      </trkpt>
      <trkpt lat="51.221872977912426" lon="3.278679996728897">
        <ele>0.62</ele>
        <time>2018-07-01T14:53:30Z</time>
      </trkpt>
      <trkpt lat="51.220984999090433" lon="3.277065977454186">
        <ele>2.54</ele>
        <time>2018-07-01T14:53:39Z</time>
      </trkpt>
      <trkpt lat="51.220014039427042" lon="3.275326984003186">
        <ele>2.54</ele>
        <time>2018-07-01T14:53:49Z</time>
      </trkpt>
      <trkpt lat="51.218979964032769" lon="3.273482965305448">
        <ele>4.46</ele>
        <time>2018-07-01T14:54:00Z</time>
      </trkpt>
      <trkpt lat="51.21801202185452" lon="3.271756963804364">
        <ele>3.02</ele>
        <time>2018-07-01T14:54:10Z</time>
      </trkpt>
      <trkpt lat="51.216937964782119" lon="3.26983499340713">
        <ele>5.42</ele>
        <time>2018-07-01T14:54:21Z</time>
      </trkpt>
      <trkpt lat="51.21674501337111" lon="3.269482031464577">
        <ele>5.42</ele>
        <time>2018-07-01T14:54:23Z</time>
      </trkpt>
      <trkpt lat="51.215738011524081" lon="3.26768796890974">
        <ele>7.35</ele>
        <time>2018-07-01T14:54:33Z</time>
      </trkpt>
      <trkpt lat="51.214619027450681" lon="3.26568796299398">
        <ele>3.5</ele>
        <time>2018-07-01T14:54:44Z</time>
      </trkpt>
      <trkpt lat="51.214153999462724" lon="3.264875002205372">
        <ele>4.94</ele>
        <time>2018-07-01T14:54:50Z</time>
      </trkpt>
      <trkpt lat="51.21410496532917" lon="3.264787998050451">
        <ele>4.46</ele>
        <time>2018-07-01T14:54:51Z</time>
      </trkpt>
      <trkpt lat="51.214087028056383" lon="3.264545006677508">
        <ele>4.94</ele>
        <time>2018-07-01T14:54:53Z</time>
      </trkpt>
      <trkpt lat="51.214057020843029" lon="3.26448398642242">
        <ele>4.94</ele>
        <time>2018-07-01T14:54:54Z</time>
      </trkpt>
      <trkpt lat="51.21388896368444" lon="3.264341996982694">
        <ele>5.42</ele>
        <time>2018-07-01T14:54:56Z</time>
      </trkpt>
      <trkpt lat="51.213834984228015" lon="3.264202019199729">
        <ele>5.42</ele>
        <time>2018-07-01T14:54:57Z</time>
      </trkpt>
      <trkpt lat="51.213785028085113" lon="3.264043014496565">
        <ele>5.91</ele>
        <time>2018-07-01T14:54:58Z</time>
      </trkpt>
      <trkpt lat="51.213734988123178" lon="3.263884009793401">
        <ele>6.39</ele>
        <time>2018-07-01T14:54:59Z</time>
      </trkpt>
      <trkpt lat="51.213715961202979" lon="3.263683011755347">
        <ele>6.87</ele>
        <time>2018-07-01T14:55:00Z</time>
      </trkpt>
      <trkpt lat="51.213697018101811" lon="3.263489976525307">
        <ele>6.87</ele>
        <time>2018-07-01T14:55:01Z</time>
      </trkpt>
      <trkpt lat="51.213680002838373" lon="3.26330297626555">
        <ele>7.35</ele>
        <time>2018-07-01T14:55:02Z</time>
      </trkpt>
      <trkpt lat="51.213661981746554" lon="3.263121005147696">
        <ele>7.35</ele>
        <time>2018-07-01T14:55:03Z</time>
      </trkpt>
      <trkpt lat="51.213645972311497" lon="3.260805001482368">
        <ele>7.35</ele>
        <time>2018-07-01T14:55:15Z</time>
      </trkpt>
      <trkpt lat="51.213786033913493" lon="3.257980970665813">
        <ele>5.42</ele>
        <time>2018-07-01T14:55:30Z</time>
      </trkpt>
      <trkpt lat="51.213961970061064" lon="3.256138041615486">
        <ele>4.94</ele>
        <time>2018-07-01T14:55:40Z</time>
      </trkpt>
      <trkpt lat="51.214142013341188" lon="3.254846977069974">
        <ele>5.42</ele>
        <time>2018-07-01T14:55:47Z</time>
      </trkpt>
      <trkpt lat="51.214214013889432" lon="3.252312960103154">
        <ele>5.42</ele>
        <time>2018-07-01T14:56:00Z</time>
      </trkpt>
      <trkpt lat="51.214232034981251" lon="3.251679036766291">
        <ele>6.39</ele>
        <time>2018-07-01T14:56:06Z</time>
      </trkpt>
      <trkpt lat="51.214235974475741" lon="3.251631008461118">
        <ele>6.39</ele>
        <time>2018-07-01T14:56:07Z</time>
      </trkpt>
      <trkpt lat="51.214241003617644" lon="3.251579040661454">
        <ele>6.87</ele>
        <time>2018-07-01T14:56:08Z</time>
      </trkpt>
      <trkpt lat="51.214314009994268" lon="3.251503016799688">
        <ele>7.35</ele>
        <time>2018-07-01T14:56:09Z</time>
      </trkpt>
      <trkpt lat="51.214314009994268" lon="3.251503016799688">
        <ele>7.35</ele>
        <time>2018-07-01T14:56:10Z</time>
      </trkpt>
      <trkpt lat="51.214321972802281" lon="3.251494970172644">
        <ele>7.35</ele>
        <time>2018-07-01T14:56:11Z</time>
      </trkpt>
      <trkpt lat="51.214353991672397" lon="3.25146202929318">
        <ele>7.35</ele>
        <time>2018-07-01T14:56:12Z</time>
      </trkpt>
      <trkpt lat="51.214391039684415" lon="3.251425987109542">
        <ele>7.83</ele>
        <time>2018-07-01T14:56:13Z</time>
      </trkpt>
      <trkpt lat="51.214400008320808" lon="3.251295983791351">
        <ele>7.83</ele>
        <time>2018-07-01T14:56:14Z</time>
      </trkpt>
      <trkpt lat="51.214400008320808" lon="3.251232029870153">
        <ele>8.310000000000001</ele>
        <time>2018-07-01T14:56:15Z</time>
      </trkpt>
      <trkpt lat="51.214365977793932" lon="3.251189030706883">
        <ele>8.310000000000001</ele>
        <time>2018-07-01T14:56:16Z</time>
      </trkpt>
      <trkpt lat="51.214330019429326" lon="3.251153994351625">
        <ele>8.789999999999999</ele>
        <time>2018-07-01T14:56:17Z</time>
      </trkpt>
      <trkpt lat="51.214290037751198" lon="3.251137984916568">
        <ele>8.789999999999999</ele>
        <time>2018-07-01T14:56:18Z</time>
      </trkpt>
      <trkpt lat="51.214249972254038" lon="3.251137984916568">
        <ele>8.789999999999999</ele>
        <time>2018-07-01T14:56:19Z</time>
      </trkpt>
      <trkpt lat="51.214249972254038" lon="3.251137984916568">
        <ele>8.789999999999999</ele>
        <time>2018-07-01T14:56:20Z</time>
      </trkpt>
      <trkpt lat="51.214249972254038" lon="3.251137984916568">
        <ele>8.789999999999999</ele>
        <time>2018-07-01T14:56:21Z</time>
      </trkpt>
      <trkpt lat="51.21410203166306" lon="3.251123987138271">
        <ele>8.789999999999999</ele>
        <time>2018-07-01T14:56:22Z</time>
      </trkpt>
      <trkpt lat="51.21406096033752" lon="3.25107503682375">
        <ele>8.789999999999999</ele>
        <time>2018-07-01T14:56:23Z</time>
      </trkpt>
      <trkpt lat="51.214017039164901" lon="3.251020973548293">
        <ele>8.789999999999999</ele>
        <time>2018-07-01T14:56:24Z</time>
      </trkpt>
      <trkpt lat="51.213971022516489" lon="3.250965988263488">
        <ele>8.789999999999999</ele>
        <time>2018-07-01T14:56:25Z</time>
      </trkpt>
      <trkpt lat="51.21393296867609" lon="3.250868003815413">
        <ele>8.789999999999999</ele>
        <time>2018-07-01T14:56:26Z</time>
      </trkpt>
      <trkpt lat="51.213899021968246" lon="3.250779993832111">
        <ele>8.310000000000001</ele>
        <time>2018-07-01T14:56:27Z</time>
      </trkpt>
      <trkpt lat="51.213863985612988" lon="3.25069097802043">
        <ele>8.310000000000001</ele>
        <time>2018-07-01T14:56:28Z</time>
      </trkpt>
      <trkpt lat="51.213820986449718" lon="3.250580001622438">
        <ele>8.310000000000001</ele>
        <time>2018-07-01T14:56:29Z</time>
      </trkpt>
      <trkpt lat="51.213814029470086" lon="3.250483023002744">
        <ele>8.310000000000001</ele>
        <time>2018-07-01T14:56:30Z</time>
      </trkpt>
      <trkpt lat="51.213807994499803" lon="3.250380009412766">
        <ele>8.310000000000001</ele>
        <time>2018-07-01T14:56:31Z</time>
      </trkpt>
      <trkpt lat="51.213747980073094" lon="3.249330008402467">
        <ele>8.789999999999999</ele>
        <time>2018-07-01T14:56:40Z</time>
      </trkpt>
      <trkpt lat="51.213744962587953" lon="3.249211991205812">
        <ele>8.789999999999999</ele>
        <time>2018-07-01T14:56:41Z</time>
      </trkpt>
      <trkpt lat="51.21371696703136" lon="3.248356031253934">
        <ele>8.310000000000001</ele>
        <time>2018-07-01T14:56:48Z</time>
      </trkpt>
      <trkpt lat="51.213713027536869" lon="3.248233990743756">
        <ele>8.310000000000001</ele>
        <time>2018-07-01T14:56:49Z</time>
      </trkpt>
      <trkpt lat="51.213704980909824" lon="3.24811203405261">
        <ele>8.789999999999999</ele>
        <time>2018-07-01T14:56:50Z</time>
      </trkpt>
      <trkpt lat="51.21339300647378" lon="3.246616031974554">
        <ele>8.310000000000001</ele>
        <time>2018-07-01T14:57:01Z</time>
      </trkpt>
      <trkpt lat="51.213091006502509" lon="3.245089016854763">
        <ele>8.310000000000001</ele>
        <time>2018-07-01T14:57:10Z</time>
      </trkpt>
      <trkpt lat="51.212870981544256" lon="3.243032013997436">
        <ele>7.83</ele>
        <time>2018-07-01T14:57:22Z</time>
      </trkpt>
      <trkpt lat="51.212763022631407" lon="3.241782020777464">
        <ele>7.83</ele>
        <time>2018-07-01T14:57:32Z</time>
      </trkpt>
      <trkpt lat="51.212760005146265" lon="3.241742961108685">
        <ele>7.83</ele>
        <time>2018-07-01T14:57:40Z</time>
      </trkpt>
      <trkpt lat="51.212760005146265" lon="3.241742961108685">
        <ele>8.310000000000001</ele>
        <time>2018-07-01T14:58:21Z</time>
      </trkpt>
      <trkpt lat="51.212735027074814" lon="3.241432998329401">
        <ele>8.789999999999999</ele>
        <time>2018-07-01T14:58:42Z</time>
      </trkpt>
      <trkpt lat="51.212689010426402" lon="3.240729002282023">
        <ele>8.310000000000001</ele>
        <time>2018-07-01T14:58:52Z</time>
      </trkpt>
      <trkpt lat="51.212669983506203" lon="3.240551976487041">
        <ele>8.310000000000001</ele>
        <time>2018-07-01T14:58:55Z</time>
      </trkpt>
      <trkpt lat="51.212596977129579" lon="3.240191973745823">
        <ele>6.87</ele>
        <time>2018-07-01T14:59:02Z</time>
      </trkpt>
      <trkpt lat="51.212591025978327" lon="3.240168001502752">
        <ele>6.87</ele>
        <time>2018-07-01T14:59:03Z</time>
      </trkpt>
      <trkpt lat="51.21257996186614" lon="3.240126008167863">
        <ele>6.39</ele>
        <time>2018-07-01T14:59:04Z</time>
      </trkpt>
      <trkpt lat="51.21257602237165" lon="3.240108992904425">
        <ele>6.39</ele>
        <time>2018-07-01T14:59:05Z</time>
      </trkpt>
      <trkpt lat="51.21257602237165" lon="3.240108992904425">
        <ele>6.39</ele>
        <time>2018-07-01T14:59:06Z</time>
      </trkpt>
      <trkpt lat="51.21255598962307" lon="3.239967003464699">
        <ele>6.39</ele>
        <time>2018-07-01T14:59:07Z</time>
      </trkpt>
      <trkpt lat="51.212554983794689" lon="3.239958034828305">
        <ele>5.91</ele>
        <time>2018-07-01T14:59:08Z</time>
      </trkpt>
      <trkpt lat="51.212554983794689" lon="3.239958034828305">
        <ele>5.91</ele>
        <time>2018-07-01T14:59:09Z</time>
      </trkpt>
      <trkpt lat="51.21253302320838" lon="3.239786960184574">
        <ele>5.42</ele>
        <time>2018-07-01T14:59:10Z</time>
      </trkpt>
      <trkpt lat="51.212520031258464" lon="3.239440033212304">
        <ele>4.94</ele>
        <time>2018-07-01T14:59:14Z</time>
      </trkpt>
      <trkpt lat="51.212517013773322" lon="3.239356968551874">
        <ele>4.46</ele>
        <time>2018-07-01T14:59:15Z</time>
      </trkpt>
      <trkpt lat="51.21251399628818" lon="3.239269964396954">
        <ele>3.98</ele>
        <time>2018-07-01T14:59:16Z</time>
      </trkpt>
      <trkpt lat="51.212507039308548" lon="3.239096039906144">
        <ele>3.02</ele>
        <time>2018-07-01T14:59:18Z</time>
      </trkpt>
      <trkpt lat="51.212496981024742" lon="3.238833015784621">
        <ele>2.54</ele>
        <time>2018-07-01T14:59:21Z</time>
      </trkpt>
      <trkpt lat="51.2124939635396" lon="3.23874399997294">
        <ele>2.06</ele>
        <time>2018-07-01T14:59:22Z</time>
      </trkpt>
      <trkpt lat="51.212455993518233" lon="3.23853000998497">
        <ele>1.58</ele>
        <time>2018-07-01T14:59:25Z</time>
      </trkpt>
      <trkpt lat="51.212414000183344" lon="3.238382991403341">
        <ele>2.06</ele>
        <time>2018-07-01T14:59:27Z</time>
      </trkpt>
      <trkpt lat="51.212391033768654" lon="3.238331023603678">
        <ele>1.58</ele>
        <time>2018-07-01T14:59:28Z</time>
      </trkpt>
      <trkpt lat="51.212349962443113" lon="3.238273020833731">
        <ele>1.58</ele>
        <time>2018-07-01T14:59:29Z</time>
      </trkpt>
      <trkpt lat="51.212174026295543" lon="3.238028017804027">
        <ele>1.58</ele>
        <time>2018-07-01T14:59:33Z</time>
      </trkpt>
      <trkpt lat="51.21212700381875" lon="3.237961968407035">
        <ele>1.1</ele>
        <time>2018-07-01T14:59:34Z</time>
      </trkpt>
      <trkpt lat="51.212080987170339" lon="3.237899020314217">
        <ele>1.1</ele>
        <time>2018-07-01T14:59:35Z</time>
      </trkpt>
      <trkpt lat="51.211877977475524" lon="3.237615963444114">
        <ele>0.14</ele>
        <time>2018-07-01T14:59:39Z</time>
      </trkpt>
      <trkpt lat="51.21182600967586" lon="3.237543040886521">
        <ele>0.14</ele>
        <time>2018-07-01T14:59:40Z</time>
      </trkpt>
      <trkpt lat="51.211732970550656" lon="3.237395016476512">
        <ele>0.14</ele>
        <time>2018-07-01T14:59:42Z</time>
      </trkpt>
      <trkpt lat="51.211534989997745" lon="3.237059991806746">
        <ele>-0.34</ele>
        <time>2018-07-01T14:59:46Z</time>
      </trkpt>
      <trkpt lat="51.211486961692572" lon="3.236977010965347">
        <ele>-0.82</ele>
        <time>2018-07-01T14:59:47Z</time>
      </trkpt>
      <trkpt lat="51.211264003068209" lon="3.236616002395749">
        <ele>-1.3</ele>
        <time>2018-07-01T14:59:52Z</time>
      </trkpt>
      <trkpt lat="51.211230978369713" lon="3.236567974090576">
        <ele>-1.79</ele>
        <time>2018-07-01T14:59:53Z</time>
      </trkpt>
      <trkpt lat="51.211161995306611" lon="3.236464960500598">
        <ele>-2.27</ele>
        <time>2018-07-01T14:59:55Z</time>
      </trkpt>
      <trkpt lat="51.211126036942005" lon="3.236409975215793">
        <ele>-2.27</ele>
        <time>2018-07-01T14:59:56Z</time>
      </trkpt>
      <trkpt lat="51.210962003096938" lon="3.236191039904952">
        <ele>-3.23</ele>
        <time>2018-07-01T15:00:00Z</time>
      </trkpt>
      <trkpt lat="51.210911963135004" lon="3.236129013821483">
        <ele>-3.71</ele>
        <time>2018-07-01T15:00:01Z</time>
      </trkpt>
      <trkpt lat="51.210736026987433" lon="3.23588602244854">
        <ele>-4.19</ele>
        <time>2018-07-01T15:00:05Z</time>
      </trkpt>
      <trkpt lat="51.210697973147035" lon="3.235827013850212">
        <ele>-4.67</ele>
        <time>2018-07-01T15:00:06Z</time>
      </trkpt>
      <trkpt lat="51.210661008954048" lon="3.235769011080265">
        <ele>-4.67</ele>
        <time>2018-07-01T15:00:07Z</time>
      </trkpt>
      <trkpt lat="51.21062396094203" lon="3.235713019967079">
        <ele>-5.15</ele>
        <time>2018-07-01T15:00:08Z</time>
      </trkpt>
      <trkpt lat="51.210589008405805" lon="3.235659040510654">
        <ele>-5.63</ele>
        <time>2018-07-01T15:00:09Z</time>
      </trkpt>
      <trkpt lat="51.210494041442871" lon="3.235446978360415">
        <ele>-6.11</ele>
        <time>2018-07-01T15:00:12Z</time>
      </trkpt>
      <trkpt lat="51.210440983995795" lon="3.235326027497649">
        <ele>-6.59</ele>
        <time>2018-07-01T15:00:14Z</time>
      </trkpt>
      <trkpt lat="51.210413994267583" lon="3.235267018899322">
        <ele>-6.59</ele>
        <time>2018-07-01T15:00:15Z</time>
      </trkpt>
      <trkpt lat="51.210382981225848" lon="3.2351990416646">
        <ele>-6.59</ele>
        <time>2018-07-01T15:00:16Z</time>
      </trkpt>
      <trkpt lat="51.210355991497636" lon="3.235138021409512">
        <ele>-6.59</ele>
        <time>2018-07-01T15:00:17Z</time>
      </trkpt>
      <trkpt lat="51.210327995941043" lon="3.235078006982803">
        <ele>-6.59</ele>
        <time>2018-07-01T15:00:18Z</time>
      </trkpt>
      <trkpt lat="51.21030000038445" lon="3.235026961192489">
        <ele>-6.59</ele>
        <time>2018-07-01T15:00:19Z</time>
      </trkpt>
      <trkpt lat="51.210135966539383" lon="3.234754968434572">
        <ele>-8.51</ele>
        <time>2018-07-01T15:00:25Z</time>
      </trkpt>
      <trkpt lat="51.210070000961423" lon="3.234643992036581">
        <ele>-9</ele>
        <time>2018-07-01T15:00:27Z</time>
      </trkpt>
      <trkpt lat="51.210036976262927" lon="3.234589006751776">
        <ele>-9.48</ele>
        <time>2018-07-01T15:00:28Z</time>
      </trkpt>
      <trkpt lat="51.210001017898321" lon="3.234529998153448">
        <ele>-9.960000000000001</ele>
        <time>2018-07-01T15:00:29Z</time>
      </trkpt>
      <trkpt lat="51.20997603982687" lon="3.234476018697023">
        <ele>-9.960000000000001</ele>
        <time>2018-07-01T15:00:30Z</time>
      </trkpt>
      <trkpt lat="51.209945026785135" lon="3.234410975128412">
        <ele>-9.960000000000001</ele>
        <time>2018-07-01T15:00:31Z</time>
      </trkpt>
      <trkpt lat="51.209824997931719" lon="3.234149040654302">
        <ele>-10.44</ele>
        <time>2018-07-01T15:00:34Z</time>
      </trkpt>
      <trkpt lat="51.209802031517029" lon="3.234058013185859">
        <ele>-10.44</ele>
        <time>2018-07-01T15:00:35Z</time>
      </trkpt>
      <trkpt lat="51.209757020696998" lon="3.233884004876018">
        <ele>-9.960000000000001</ele>
        <time>2018-07-01T15:00:37Z</time>
      </trkpt>
      <trkpt lat="51.209731036797166" lon="3.233783002942801">
        <ele>-9.48</ele>
        <time>2018-07-01T15:00:38Z</time>
      </trkpt>
      <trkpt lat="51.209704969078302" lon="3.233683006837964">
        <ele>-9</ele>
        <time>2018-07-01T15:00:39Z</time>
      </trkpt>
      <trkpt lat="51.209659958258271" lon="3.233349993824959">
        <ele>-6.59</ele>
        <time>2018-07-01T15:00:42Z</time>
      </trkpt>
      <trkpt lat="51.209662975743413" lon="3.233241029083729">
        <ele>-6.59</ele>
        <time>2018-07-01T15:00:43Z</time>
      </trkpt>
      <trkpt lat="51.209669010713696" lon="3.232909021899104">
        <ele>-4.67</ele>
        <time>2018-07-01T15:00:46Z</time>
      </trkpt>
      <trkpt lat="51.209699017927051" lon="3.231854997575283">
        <ele>-1.3</ele>
        <time>2018-07-01T15:00:56Z</time>
      </trkpt>
      <trkpt lat="51.209756014868617" lon="3.231474962085486">
        <ele>0.14</ele>
        <time>2018-07-01T15:01:00Z</time>
      </trkpt>
      <trkpt lat="51.209786022081971" lon="3.231292990967631">
        <ele>0.62</ele>
        <time>2018-07-01T15:01:02Z</time>
      </trkpt>
      <trkpt lat="51.209805971011519" lon="3.231192994862795">
        <ele>0.62</ele>
        <time>2018-07-01T15:01:03Z</time>
      </trkpt>
      <trkpt lat="51.209889035671949" lon="3.230654960498214">
        <ele>1.58</ele>
        <time>2018-07-01T15:01:09Z</time>
      </trkpt>
      <trkpt lat="51.209900015965104" lon="3.230582037940621">
        <ele>2.06</ele>
        <time>2018-07-01T15:01:10Z</time>
      </trkpt>
      <trkpt lat="51.209908984601498" lon="3.230514982715249">
        <ele>2.06</ele>
        <time>2018-07-01T15:01:11Z</time>
      </trkpt>
      <trkpt lat="51.209928011521697" lon="3.230381961911917">
        <ele>1.58</ele>
        <time>2018-07-01T15:01:13Z</time>
      </trkpt>
      <trkpt lat="51.20995600707829" lon="3.230295963585377">
        <ele>1.58</ele>
        <time>2018-07-01T15:01:14Z</time>
      </trkpt>
      <trkpt lat="51.209988025948405" lon="3.230249024927616">
        <ele>1.58</ele>
        <time>2018-07-01T15:01:15Z</time>
      </trkpt>
      <trkpt lat="51.210019960999489" lon="3.230203008279204">
        <ele>2.06</ele>
        <time>2018-07-01T15:01:16Z</time>
      </trkpt>
      <trkpt lat="51.210052985697985" lon="3.230155985802412">
        <ele>2.06</ele>
        <time>2018-07-01T15:01:17Z</time>
      </trkpt>
      <trkpt lat="51.210088022053242" lon="3.230105023831129">
        <ele>2.06</ele>
        <time>2018-07-01T15:01:18Z</time>
      </trkpt>
      <trkpt lat="51.210129009559751" lon="3.230047021061182">
        <ele>2.54</ele>
        <time>2018-07-01T15:01:19Z</time>
      </trkpt>
      <trkpt lat="51.210172008723021" lon="3.229984994977713">
        <ele>2.54</ele>
        <time>2018-07-01T15:01:20Z</time>
      </trkpt>
      <trkpt lat="51.210416005924344" lon="3.229650976136327">
        <ele>2.54</ele>
        <time>2018-07-01T15:01:25Z</time>
      </trkpt>
      <trkpt lat="51.210517007857561" lon="3.22952700778842">
        <ele>3.02</ele>
        <time>2018-07-01T15:01:27Z</time>
      </trkpt>
      <trkpt lat="51.210568975657225" lon="3.229461964219809">
        <ele>2.54</ele>
        <time>2018-07-01T15:01:28Z</time>
      </trkpt>
      <trkpt lat="51.210704008117318" lon="3.229299020022154">
        <ele>2.06</ele>
        <time>2018-07-01T15:01:31Z</time>
      </trkpt>
      <trkpt lat="51.210739966481924" lon="3.229259960353375">
        <ele>2.06</ele>
        <time>2018-07-01T15:01:32Z</time>
      </trkpt>
      <trkpt lat="51.210770979523659" lon="3.229228025302291">
        <ele>2.06</ele>
        <time>2018-07-01T15:01:33Z</time>
      </trkpt>
      <trkpt lat="51.210801992565393" lon="3.229196006432176">
        <ele>2.06</ele>
        <time>2018-07-01T15:01:34Z</time>
      </trkpt>
      <trkpt lat="51.21083702892065" lon="3.229158958420157">
        <ele>2.06</ele>
        <time>2018-07-01T15:01:35Z</time>
      </trkpt>
      <trkpt lat="51.210873993113637" lon="3.22911998257041">
        <ele>2.06</ele>
        <time>2018-07-01T15:01:36Z</time>
      </trkpt>
      <trkpt lat="51.210909029468894" lon="3.229084024205804">
        <ele>2.06</ele>
        <time>2018-07-01T15:01:37Z</time>
      </trkpt>
      <trkpt lat="51.211126958951354" lon="3.228822005912662">
        <ele>3.5</ele>
        <time>2018-07-01T15:01:45Z</time>
      </trkpt>
      <trkpt lat="51.211110027506948" lon="3.228787975385785">
        <ele>3.98</ele>
        <time>2018-07-01T15:01:46Z</time>
      </trkpt>
      <trkpt lat="51.211071973666549" lon="3.228714969009161">
        <ele>4.94</ele>
        <time>2018-07-01T15:01:48Z</time>
      </trkpt>
      <trkpt lat="51.210872987285256" lon="3.228331999853253">
        <ele>6.87</ele>
        <time>2018-07-01T15:01:57Z</time>
      </trkpt>
      <trkpt lat="51.210838034749031" lon="3.228264022618532">
        <ele>7.35</ele>
        <time>2018-07-01T15:01:58Z</time>
      </trkpt>
      <trkpt lat="51.210833005607128" lon="3.228268967941403">
        <ele>7.83</ele>
        <time>2018-07-01T15:01:59Z</time>
      </trkpt>
      <trkpt lat="51.210814984515309" lon="3.22828397154808">
        <ele>7.83</ele>
        <time>2018-07-01T15:02:00Z</time>
      </trkpt>
      <trkpt lat="51.210787994787097" lon="3.228307021781802">
        <ele>7.83</ele>
        <time>2018-07-01T15:02:01Z</time>
      </trkpt>
      <trkpt lat="51.210636030882597" lon="3.228439036756754">
        <ele>8.310000000000001</ele>
        <time>2018-07-01T15:02:05Z</time>
      </trkpt>
      <trkpt lat="51.210597977042198" lon="3.228471977636218">
        <ele>8.310000000000001</ele>
        <time>2018-07-01T15:02:06Z</time>
      </trkpt>
      <trkpt lat="51.210516002029181" lon="3.228542972356081">
        <ele>8.310000000000001</ele>
        <time>2018-07-01T15:02:07Z</time>
      </trkpt>
      <trkpt lat="51.210496975108981" lon="3.228567028418183">
        <ele>8.310000000000001</ele>
        <time>2018-07-01T15:02:08Z</time>
      </trkpt>
      <trkpt lat="51.210450036451221" lon="3.22862796485424">
        <ele>8.789999999999999</ele>
        <time>2018-07-01T15:02:09Z</time>
      </trkpt>
      <trkpt lat="51.210402008146048" lon="3.22868999093771">
        <ele>8.789999999999999</ele>
        <time>2018-07-01T15:02:10Z</time>
      </trkpt>
      <trkpt lat="51.21014803647995" lon="3.229019986465573">
        <ele>7.83</ele>
        <time>2018-07-01T15:02:17Z</time>
      </trkpt>
      <trkpt lat="51.21010503731668" lon="3.229072960093617">
        <ele>7.83</ele>
        <time>2018-07-01T15:02:18Z</time>
      </trkpt>
      <trkpt lat="51.210067989304662" lon="3.22911998257041">
        <ele>7.35</ele>
        <time>2018-07-01T15:02:19Z</time>
      </trkpt>
      <trkpt lat="51.210033958777785" lon="3.22916298173368">
        <ele>7.35</ele>
        <time>2018-07-01T15:02:20Z</time>
      </trkpt>
      <trkpt lat="51.210005963221192" lon="3.229198018088937">
        <ele>6.87</ele>
        <time>2018-07-01T15:02:21Z</time>
      </trkpt>
      <trkpt lat="51.209984002634883" lon="3.22922601364553">
        <ele>6.39</ele>
        <time>2018-07-01T15:02:22Z</time>
      </trkpt>
      <trkpt lat="51.209924994036555" lon="3.229301031678915">
        <ele>4.94</ele>
        <time>2018-07-01T15:02:26Z</time>
      </trkpt>
    </trkseg>
  </trk>

</gpx>